<?xml version='1.0' encoding='UTF-8'?><gpx version="1.1" creator="JPX - https://github.com/jenetics/jpx" xmlns="http://www.topografix.com/GPX/1/1"><trk><trkseg><trkpt lat="42.1765033" lon="11.796435"><ele>57.5</ele><time>2026-04-19T08:08:29.866Z</time></trkpt><trkpt lat="42.1765933" lon="11.796335"><ele>58.0</ele><time>2026-04-19T08:08:30.866Z</time></trkpt><trkpt lat="42.1768983" lon="11.79612"><ele>58.0</ele><time>2026-04-19T08:08:33.607Z</time></trkpt><trkpt lat="42.1770283" lon="11.796035"><ele>58.0</ele><time>2026-04-19T08:08:34.608Z</time></trkpt><trkpt lat="42.17715" lon="11.795925"><ele>58.0</ele><time>2026-04-19T08:08:35.607Z</time></trkpt><trkpt lat="42.1772533" lon="11.79583"><ele>58.0</ele><time>2026-04-19T08:08:36.607Z</time></trkpt><trkpt lat="42.1773583" lon="11.7957417"><ele>57.8</ele><time>2026-04-19T08:08:37.607Z</time></trkpt><trkpt lat="42.1774567" lon="11.7956767"><ele>57.599999999999994</ele><time>2026-04-19T08:08:38.607Z</time></trkpt><trkpt lat="42.17755" lon="11.7956033"><ele>57.400000000000006</ele><time>2026-04-19T08:08:39.607Z</time></trkpt><trkpt lat="42.17764" lon="11.79553"><ele>57.2</ele><time>2026-04-19T08:08:40.607Z</time></trkpt><trkpt lat="42.17773" lon="11.7954667"><ele>57.0</ele><time>2026-04-19T08:08:41.607Z</time></trkpt><trkpt lat="42.1778333" lon="11.795425"><ele>57.0</ele><time>2026-04-19T08:08:42.607Z</time></trkpt><trkpt lat="42.1779533" lon="11.7954217"><ele>57.0</ele><time>2026-04-19T08:08:43.608Z</time></trkpt><trkpt lat="42.1781" lon="11.795445"><ele>57.0</ele><time>2026-04-19T08:08:44.607Z</time></trkpt><trkpt lat="42.17827" lon="11.7954817"><ele>57.0</ele><time>2026-04-19T08:08:45.607Z</time></trkpt><trkpt lat="42.178445" lon="11.7955233"><ele>56.5</ele><time>2026-04-19T08:08:46.607Z</time></trkpt><trkpt lat="42.1786167" lon="11.7955633"><ele>56.0</ele><time>2026-04-19T08:08:47.607Z</time></trkpt><trkpt lat="42.1787667" lon="11.79559"><ele>55.5</ele><time>2026-04-19T08:08:48.607Z</time></trkpt><trkpt lat="42.178885" lon="11.7956067"><ele>55.0</ele><time>2026-04-19T08:08:49.607Z</time></trkpt><trkpt lat="42.178975" lon="11.7956217"><ele>54.2</ele><time>2026-04-19T08:08:50.607Z</time></trkpt><trkpt lat="42.179045" lon="11.7956233"><ele>53.4</ele><time>2026-04-19T08:08:51.607Z</time></trkpt><trkpt lat="42.179125" lon="11.7956317"><ele>52.599999999999994</ele><time>2026-04-19T08:08:52.607Z</time></trkpt><trkpt lat="42.1792267" lon="11.7956583"><ele>51.8</ele><time>2026-04-19T08:08:53.607Z</time></trkpt><trkpt lat="42.1793333" lon="11.795695"><ele>51.0</ele><time>2026-04-19T08:08:54.607Z</time></trkpt><trkpt lat="42.1794583" lon="11.79572"><ele>51.0</ele><time>2026-04-19T08:08:55.607Z</time></trkpt><trkpt lat="42.1795983" lon="11.7957417"><ele>51.0</ele><time>2026-04-19T08:08:56.607Z</time></trkpt><trkpt lat="42.1797517" lon="11.7957717"><ele>51.0</ele><time>2026-04-19T08:08:57.607Z</time></trkpt><trkpt lat="42.1799033" lon="11.7958083"><ele>49.0</ele><time>2026-04-19T08:08:58.607Z</time></trkpt><trkpt lat="42.1800533" lon="11.79584"><ele>47.0</ele><time>2026-04-19T08:08:59.607Z</time></trkpt><trkpt lat="42.1801933" lon="11.7958667"><ele>45.0</ele><time>2026-04-19T08:09:00.607Z</time></trkpt><trkpt lat="42.18034" lon="11.7958967"><ele>43.0</ele><time>2026-04-19T08:09:01.608Z</time></trkpt><trkpt lat="42.1805" lon="11.795935"><ele>43.0</ele><time>2026-04-19T08:09:02.607Z</time></trkpt><trkpt lat="42.1806567" lon="11.7959633"><ele>43.0</ele><time>2026-04-19T08:09:03.607Z</time></trkpt><trkpt lat="42.1808167" lon="11.7959867"><ele>43.0</ele><time>2026-04-19T08:09:04.608Z</time></trkpt><trkpt lat="42.1809733" lon="11.796005"><ele>39.0</ele><time>2026-04-19T08:09:05.607Z</time></trkpt><trkpt lat="42.1811333" lon="11.7960283"><ele>35.0</ele><time>2026-04-19T08:09:06.607Z</time></trkpt><trkpt lat="42.1812867" lon="11.7960467"><ele>31.0</ele><time>2026-04-19T08:09:07.608Z</time></trkpt><trkpt lat="42.1814383" lon="11.79606"><ele>27.333333333333336</ele><time>2026-04-19T08:09:08.607Z</time></trkpt><trkpt lat="42.1815867" lon="11.7960683"><ele>23.666666666666668</ele><time>2026-04-19T08:09:09.607Z</time></trkpt><trkpt lat="42.1817383" lon="11.7960783"><ele>20.0</ele><time>2026-04-19T08:09:10.607Z</time></trkpt><trkpt lat="42.1818933" lon="11.796095"><ele>20.0</ele><time>2026-04-19T08:09:11.607Z</time></trkpt><trkpt lat="42.1820383" lon="11.796105"><ele>20.0</ele><time>2026-04-19T08:09:12.607Z</time></trkpt><trkpt lat="42.18218" lon="11.79612"><ele>20.0</ele><time>2026-04-19T08:09:13.607Z</time></trkpt><trkpt lat="42.18232" lon="11.7961267"><ele>20.0</ele><time>2026-04-19T08:09:14.607Z</time></trkpt><trkpt lat="42.1824567" lon="11.7961383"><ele>19.0</ele><time>2026-04-19T08:09:15.607Z</time></trkpt><trkpt lat="42.1825833" lon="11.7961483"><ele>18.0</ele><time>2026-04-19T08:09:16.607Z</time></trkpt><trkpt lat="42.1827117" lon="11.7961617"><ele>17.0</ele><time>2026-04-19T08:09:17.608Z</time></trkpt><trkpt lat="42.1828233" lon="11.79617"><ele>16.0</ele><time>2026-04-19T08:09:18.607Z</time></trkpt><trkpt lat="42.18294" lon="11.7961767"><ele>16.0</ele><time>2026-04-19T08:09:19.607Z</time></trkpt><trkpt lat="42.183055" lon="11.7961733"><ele>16.0</ele><time>2026-04-19T08:09:20.607Z</time></trkpt><trkpt lat="42.1831633" lon="11.7961633"><ele>16.0</ele><time>2026-04-19T08:09:21.607Z</time></trkpt><trkpt lat="42.1832883" lon="11.796135"><ele>16.0</ele><time>2026-04-19T08:09:22.608Z</time></trkpt><trkpt lat="42.183425" lon="11.7960983"><ele>15.25</ele><time>2026-04-19T08:09:23.607Z</time></trkpt><trkpt lat="42.1835733" lon="11.7960567"><ele>14.5</ele><time>2026-04-19T08:09:24.607Z</time></trkpt><trkpt lat="42.1837117" lon="11.7960217"><ele>13.75</ele><time>2026-04-19T08:09:25.608Z</time></trkpt><trkpt lat="42.18386" lon="11.7960167"><ele>13.0</ele><time>2026-04-19T08:09:26.607Z</time></trkpt><trkpt lat="42.1840017" lon="11.7960583"><ele>12.75</ele><time>2026-04-19T08:09:27.607Z</time></trkpt><trkpt lat="42.1841383" lon="11.796145"><ele>12.5</ele><time>2026-04-19T08:09:28.607Z</time></trkpt><trkpt lat="42.1842683" lon="11.7962517"><ele>12.25</ele><time>2026-04-19T08:09:29.608Z</time></trkpt><trkpt lat="42.1843917" lon="11.7963517"><ele>12.0</ele><time>2026-04-19T08:09:30.608Z</time></trkpt><trkpt lat="42.1845067" lon="11.79645"><ele>12.0</ele><time>2026-04-19T08:09:31.607Z</time></trkpt><trkpt lat="42.1846133" lon="11.79653"><ele>12.0</ele><time>2026-04-19T08:09:32.607Z</time></trkpt><trkpt lat="42.1846933" lon="11.7966017"><ele>12.0</ele><time>2026-04-19T08:09:33.607Z</time></trkpt><trkpt lat="42.184755" lon="11.7966533"><ele>12.0</ele><time>2026-04-19T08:09:34.608Z</time></trkpt><trkpt lat="42.1848583" lon="11.7966467"><ele>12.0</ele><time>2026-04-19T08:09:36.607Z</time></trkpt><trkpt lat="42.1849083" lon="11.7965283"><ele>12.0</ele><time>2026-04-19T08:09:38.608Z</time></trkpt><trkpt lat="42.1849167" lon="11.7964217"><ele>12.0</ele><time>2026-04-19T08:09:39.607Z</time></trkpt><trkpt lat="42.1849217" lon="11.7962833"><ele>12.0</ele><time>2026-04-19T08:09:40.607Z</time></trkpt><trkpt lat="42.18495" lon="11.79613"><ele>12.0</ele><time>2026-04-19T08:09:41.607Z</time></trkpt><trkpt lat="42.18499" lon="11.7959933"><ele>12.0</ele><time>2026-04-19T08:09:42.607Z</time></trkpt><trkpt lat="42.18504" lon="11.7958583"><ele>12.0</ele><time>2026-04-19T08:09:43.607Z</time></trkpt><trkpt lat="42.1851033" lon="11.7957467"><ele>12.0</ele><time>2026-04-19T08:09:44.608Z</time></trkpt><trkpt lat="42.1851717" lon="11.7956267"><ele>12.0</ele><time>2026-04-19T08:09:45.607Z</time></trkpt><trkpt lat="42.185265" lon="11.7955117"><ele>12.0</ele><time>2026-04-19T08:09:46.607Z</time></trkpt><trkpt lat="42.1853717" lon="11.7953917"><ele>12.0</ele><time>2026-04-19T08:09:47.607Z</time></trkpt><trkpt lat="42.1854967" lon="11.7952567"><ele>12.0</ele><time>2026-04-19T08:09:48.607Z</time></trkpt><trkpt lat="42.1856233" lon="11.795125"><ele>12.0</ele><time>2026-04-19T08:09:49.608Z</time></trkpt><trkpt lat="42.185755" lon="11.7950033"><ele>13.0</ele><time>2026-04-19T08:09:50.607Z</time></trkpt><trkpt lat="42.1858867" lon="11.7948767"><ele>14.0</ele><time>2026-04-19T08:09:51.607Z</time></trkpt><trkpt lat="42.18601" lon="11.7947533"><ele>15.0</ele><time>2026-04-19T08:09:52.607Z</time></trkpt><trkpt lat="42.1861283" lon="11.7946383"><ele>15.0</ele><time>2026-04-19T08:09:53.607Z</time></trkpt><trkpt lat="42.1862317" lon="11.79449"><ele>15.0</ele><time>2026-04-19T08:09:54.607Z</time></trkpt><trkpt lat="42.1863267" lon="11.7943083"><ele>15.0</ele><time>2026-04-19T08:09:55.607Z</time></trkpt><trkpt lat="42.1864233" lon="11.7941117"><ele>13.666666666666666</ele><time>2026-04-19T08:09:56.607Z</time></trkpt><trkpt lat="42.1865283" lon="11.7939183"><ele>12.333333333333332</ele><time>2026-04-19T08:09:57.607Z</time></trkpt><trkpt lat="42.1866333" lon="11.79373"><ele>11.0</ele><time>2026-04-19T08:09:58.608Z</time></trkpt><trkpt lat="42.1867333" lon="11.7935533"><ele>13.666666666666666</ele><time>2026-04-19T08:09:59.607Z</time></trkpt><trkpt lat="42.1868383" lon="11.7933833"><ele>16.333333333333332</ele><time>2026-04-19T08:10:00.607Z</time></trkpt><trkpt lat="42.1869383" lon="11.7932167"><ele>19.0</ele><time>2026-04-19T08:10:01.607Z</time></trkpt><trkpt lat="42.1870283" lon="11.7930383"><ele>19.0</ele><time>2026-04-19T08:10:02.607Z</time></trkpt><trkpt lat="42.1871133" lon="11.7928483"><ele>19.0</ele><time>2026-04-19T08:10:03.608Z</time></trkpt><trkpt lat="42.1871933" lon="11.7926633"><ele>19.0</ele><time>2026-04-19T08:10:04.607Z</time></trkpt><trkpt lat="42.18727" lon="11.7924783"><ele>16.666666666666664</ele><time>2026-04-19T08:10:05.607Z</time></trkpt><trkpt lat="42.187355" lon="11.7922967"><ele>14.333333333333332</ele><time>2026-04-19T08:10:06.608Z</time></trkpt><trkpt lat="42.1874367" lon="11.7921083"><ele>12.0</ele><time>2026-04-19T08:10:07.607Z</time></trkpt><trkpt lat="42.1875217" lon="11.79192"><ele>13.0</ele><time>2026-04-19T08:10:08.607Z</time></trkpt><trkpt lat="42.1875867" lon="11.7917383"><ele>14.0</ele><time>2026-04-19T08:10:09.607Z</time></trkpt><trkpt lat="42.1876617" lon="11.79158"><ele>15.0</ele><time>2026-04-19T08:10:10.607Z</time></trkpt><trkpt lat="42.1877367" lon="11.791425"><ele>16.0</ele><time>2026-04-19T08:10:11.607Z</time></trkpt><trkpt lat="42.18781" lon="11.791285"><ele>15.999999999999998</ele><time>2026-04-19T08:10:12.607Z</time></trkpt><trkpt lat="42.1878783" lon="11.7911517"><ele>16.0</ele><time>2026-04-19T08:10:13.607Z</time></trkpt><trkpt lat="42.1879267" lon="11.79104"><ele>16.0</ele><time>2026-04-19T08:10:14.608Z</time></trkpt><trkpt lat="42.1879683" lon="11.79096"><ele>16.0</ele><time>2026-04-19T08:10:15.608Z</time></trkpt><trkpt lat="42.188005" lon="11.790875"><ele>15.999999999999998</ele><time>2026-04-19T08:10:16.608Z</time></trkpt><trkpt lat="42.1880333" lon="11.7907983"><ele>16.0</ele><time>2026-04-19T08:10:17.607Z</time></trkpt><trkpt lat="42.1880833" lon="11.79072"><ele>16.6</ele><time>2026-04-19T08:10:19.607Z</time></trkpt><trkpt lat="42.1881433" lon="11.7907917"><ele>17.200000000000003</ele><time>2026-04-19T08:10:21.607Z</time></trkpt><trkpt lat="42.18817" lon="11.7908817"><ele>17.799999999999997</ele><time>2026-04-19T08:10:22.607Z</time></trkpt><trkpt lat="42.1882033" lon="11.7909967"><ele>18.4</ele><time>2026-04-19T08:10:23.607Z</time></trkpt><trkpt lat="42.1882467" lon="11.7911333"><ele>19.0</ele><time>2026-04-19T08:10:24.607Z</time></trkpt><trkpt lat="42.1883117" lon="11.7913083"><ele>15.333333333333332</ele><time>2026-04-19T08:10:25.608Z</time></trkpt><trkpt lat="42.1883817" lon="11.7914817"><ele>11.666666666666666</ele><time>2026-04-19T08:10:26.607Z</time></trkpt><trkpt lat="42.1884617" lon="11.791665"><ele>8.0</ele><time>2026-04-19T08:10:27.608Z</time></trkpt><trkpt lat="42.1885433" lon="11.7918733"><ele>8.0</ele><time>2026-04-19T08:10:28.607Z</time></trkpt><trkpt lat="42.18864" lon="11.7921033"><ele>8.0</ele><time>2026-04-19T08:10:29.607Z</time></trkpt><trkpt lat="42.1887417" lon="11.7923433"><ele>8.0</ele><time>2026-04-19T08:10:30.607Z</time></trkpt><trkpt lat="42.18884" lon="11.7925833"><ele>8.0</ele><time>2026-04-19T08:10:31.608Z</time></trkpt><trkpt lat="42.18894" lon="11.7928183"><ele>8.0</ele><time>2026-04-19T08:10:32.608Z</time></trkpt><trkpt lat="42.1890433" lon="11.7930383"><ele>8.0</ele><time>2026-04-19T08:10:33.607Z</time></trkpt><trkpt lat="42.1891333" lon="11.79325"><ele>8.333333333333332</ele><time>2026-04-19T08:10:34.607Z</time></trkpt><trkpt lat="42.1892183" lon="11.79345"><ele>8.666666666666666</ele><time>2026-04-19T08:10:35.607Z</time></trkpt><trkpt lat="42.1893033" lon="11.7936317"><ele>9.0</ele><time>2026-04-19T08:10:36.607Z</time></trkpt><trkpt lat="42.1893767" lon="11.793805"><ele>9.0</ele><time>2026-04-19T08:10:37.607Z</time></trkpt><trkpt lat="42.1894467" lon="11.79398"><ele>9.0</ele><time>2026-04-19T08:10:38.607Z</time></trkpt><trkpt lat="42.1895133" lon="11.794135"><ele>9.0</ele><time>2026-04-19T08:10:39.607Z</time></trkpt><trkpt lat="42.1895667" lon="11.7942917"><ele>9.0</ele><time>2026-04-19T08:10:40.607Z</time></trkpt><trkpt lat="42.1896233" lon="11.7944333"><ele>9.0</ele><time>2026-04-19T08:10:41.607Z</time></trkpt><trkpt lat="42.1896817" lon="11.7945717"><ele>9.0</ele><time>2026-04-19T08:10:42.607Z</time></trkpt><trkpt lat="42.1897417" lon="11.7947167"><ele>9.0</ele><time>2026-04-19T08:10:43.607Z</time></trkpt><trkpt lat="42.1898017" lon="11.794855"><ele>9.0</ele><time>2026-04-19T08:10:44.608Z</time></trkpt><trkpt lat="42.1898667" lon="11.7949933"><ele>9.0</ele><time>2026-04-19T08:10:45.607Z</time></trkpt><trkpt lat="42.1899267" lon="11.7951517"><ele>9.0</ele><time>2026-04-19T08:10:46.607Z</time></trkpt><trkpt lat="42.18999" lon="11.79533"><ele>9.0</ele><time>2026-04-19T08:10:47.607Z</time></trkpt><trkpt lat="42.19002" lon="11.795525"><ele>9.0</ele><time>2026-04-19T08:10:48.607Z</time></trkpt><trkpt lat="42.1900167" lon="11.7957217"><ele>9.333333333333334</ele><time>2026-04-19T08:10:49.607Z</time></trkpt><trkpt lat="42.1899583" lon="11.7959233"><ele>9.666666666666668</ele><time>2026-04-19T08:10:50.607Z</time></trkpt><trkpt lat="42.1898633" lon="11.796115"><ele>10.0</ele><time>2026-04-19T08:10:51.607Z</time></trkpt><trkpt lat="42.189735" lon="11.7962967"><ele>10.333333333333334</ele><time>2026-04-19T08:10:52.608Z</time></trkpt><trkpt lat="42.189585" lon="11.796495"><ele>10.666666666666666</ele><time>2026-04-19T08:10:53.607Z</time></trkpt><trkpt lat="42.1894367" lon="11.796685"><ele>11.0</ele><time>2026-04-19T08:10:54.607Z</time></trkpt><trkpt lat="42.1893033" lon="11.79685"><ele>11.666666666666666</ele><time>2026-04-19T08:10:55.608Z</time></trkpt><trkpt lat="42.1891867" lon="11.79701"><ele>12.333333333333332</ele><time>2026-04-19T08:10:56.607Z</time></trkpt><trkpt lat="42.18907" lon="11.7971567"><ele>13.0</ele><time>2026-04-19T08:10:57.607Z</time></trkpt><trkpt lat="42.1889567" lon="11.7973"><ele>13.0</ele><time>2026-04-19T08:10:58.607Z</time></trkpt><trkpt lat="42.1888533" lon="11.7974433"><ele>13.0</ele><time>2026-04-19T08:10:59.607Z</time></trkpt><trkpt lat="42.188755" lon="11.797575"><ele>13.0</ele><time>2026-04-19T08:11:00.607Z</time></trkpt><trkpt lat="42.1886667" lon="11.7977283"><ele>13.0</ele><time>2026-04-19T08:11:01.607Z</time></trkpt><trkpt lat="42.188585" lon="11.797895"><ele>14.333333333333332</ele><time>2026-04-19T08:11:02.607Z</time></trkpt><trkpt lat="42.1884917" lon="11.7980717"><ele>15.666666666666668</ele><time>2026-04-19T08:11:03.607Z</time></trkpt><trkpt lat="42.188395" lon="11.79826"><ele>17.0</ele><time>2026-04-19T08:11:04.608Z</time></trkpt><trkpt lat="42.1882983" lon="11.7984667"><ele>18.0</ele><time>2026-04-19T08:11:05.607Z</time></trkpt><trkpt lat="42.1881933" lon="11.798705"><ele>19.0</ele><time>2026-04-19T08:11:06.607Z</time></trkpt><trkpt lat="42.18809" lon="11.798945"><ele>20.0</ele><time>2026-04-19T08:11:07.607Z</time></trkpt><trkpt lat="42.187985" lon="11.7991783"><ele>18.0</ele><time>2026-04-19T08:11:08.607Z</time></trkpt><trkpt lat="42.18789" lon="11.7994017"><ele>16.0</ele><time>2026-04-19T08:11:09.607Z</time></trkpt><trkpt lat="42.1878033" lon="11.7996183"><ele>14.0</ele><time>2026-04-19T08:11:10.607Z</time></trkpt><trkpt lat="42.1877217" lon="11.7998133"><ele>14.0</ele><time>2026-04-19T08:11:11.607Z</time></trkpt><trkpt lat="42.1876317" lon="11.800015"><ele>14.0</ele><time>2026-04-19T08:11:12.607Z</time></trkpt><trkpt lat="42.1875433" lon="11.80021"><ele>14.0</ele><time>2026-04-19T08:11:13.607Z</time></trkpt><trkpt lat="42.187465" lon="11.8004033"><ele>14.333333333333334</ele><time>2026-04-19T08:11:14.608Z</time></trkpt><trkpt lat="42.1873833" lon="11.80059"><ele>14.666666666666668</ele><time>2026-04-19T08:11:15.608Z</time></trkpt><trkpt lat="42.1872933" lon="11.800775"><ele>15.0</ele><time>2026-04-19T08:11:16.607Z</time></trkpt><trkpt lat="42.1872083" lon="11.8009567"><ele>14.333333333333332</ele><time>2026-04-19T08:11:17.607Z</time></trkpt><trkpt lat="42.1871283" lon="11.8011367"><ele>13.666666666666666</ele><time>2026-04-19T08:11:18.607Z</time></trkpt><trkpt lat="42.1870433" lon="11.8013217"><ele>13.0</ele><time>2026-04-19T08:11:19.608Z</time></trkpt><trkpt lat="42.1869617" lon="11.8015067"><ele>13.0</ele><time>2026-04-19T08:11:20.607Z</time></trkpt><trkpt lat="42.1868917" lon="11.801695"><ele>13.0</ele><time>2026-04-19T08:11:21.607Z</time></trkpt><trkpt lat="42.18683" lon="11.8018983"><ele>13.0</ele><time>2026-04-19T08:11:22.607Z</time></trkpt><trkpt lat="42.1867867" lon="11.8021283"><ele>13.666666666666666</ele><time>2026-04-19T08:11:23.607Z</time></trkpt><trkpt lat="42.1867633" lon="11.8023667"><ele>14.333333333333332</ele><time>2026-04-19T08:11:24.607Z</time></trkpt><trkpt lat="42.1867717" lon="11.8026117"><ele>15.0</ele><time>2026-04-19T08:11:25.607Z</time></trkpt><trkpt lat="42.186815" lon="11.8028433"><ele>15.0</ele><time>2026-04-19T08:11:26.607Z</time></trkpt><trkpt lat="42.1868767" lon="11.803045"><ele>15.0</ele><time>2026-04-19T08:11:27.607Z</time></trkpt><trkpt lat="42.186935" lon="11.8032417"><ele>15.0</ele><time>2026-04-19T08:11:28.608Z</time></trkpt><trkpt lat="42.1869883" lon="11.803455"><ele>15.0</ele><time>2026-04-19T08:11:29.607Z</time></trkpt><trkpt lat="42.1870217" lon="11.8036883"><ele>15.0</ele><time>2026-04-19T08:11:30.608Z</time></trkpt><trkpt lat="42.1870533" lon="11.80394"><ele>15.0</ele><time>2026-04-19T08:11:31.607Z</time></trkpt><trkpt lat="42.1870717" lon="11.8041983"><ele>15.333333333333332</ele><time>2026-04-19T08:11:32.607Z</time></trkpt><trkpt lat="42.187085" lon="11.80444"><ele>15.666666666666666</ele><time>2026-04-19T08:11:33.607Z</time></trkpt><trkpt lat="42.1870967" lon="11.8046667"><ele>16.0</ele><time>2026-04-19T08:11:34.607Z</time></trkpt><trkpt lat="42.187105" lon="11.8048917"><ele>16.0</ele><time>2026-04-19T08:11:35.607Z</time></trkpt><trkpt lat="42.1871217" lon="11.80513"><ele>16.0</ele><time>2026-04-19T08:11:36.608Z</time></trkpt><trkpt lat="42.1871267" lon="11.8053633"><ele>16.0</ele><time>2026-04-19T08:11:37.607Z</time></trkpt><trkpt lat="42.187135" lon="11.8055917"><ele>16.0</ele><time>2026-04-19T08:11:38.607Z</time></trkpt><trkpt lat="42.1871433" lon="11.80582"><ele>16.0</ele><time>2026-04-19T08:11:39.608Z</time></trkpt><trkpt lat="42.1871633" lon="11.8060483"><ele>16.0</ele><time>2026-04-19T08:11:40.607Z</time></trkpt><trkpt lat="42.1871767" lon="11.8062733"><ele>16.0</ele><time>2026-04-19T08:11:41.607Z</time></trkpt><trkpt lat="42.1871883" lon="11.8064967"><ele>16.0</ele><time>2026-04-19T08:11:42.608Z</time></trkpt><trkpt lat="42.1872083" lon="11.806715"><ele>16.0</ele><time>2026-04-19T08:11:43.607Z</time></trkpt><trkpt lat="42.1872233" lon="11.8069367"><ele>15.666666666666666</ele><time>2026-04-19T08:11:44.608Z</time></trkpt><trkpt lat="42.1872333" lon="11.8071783"><ele>15.333333333333332</ele><time>2026-04-19T08:11:45.608Z</time></trkpt><trkpt lat="42.1872417" lon="11.8074167"><ele>15.0</ele><time>2026-04-19T08:11:46.607Z</time></trkpt><trkpt lat="42.1872483" lon="11.8076617"><ele>15.666666666666668</ele><time>2026-04-19T08:11:47.607Z</time></trkpt><trkpt lat="42.18727" lon="11.807905"><ele>16.333333333333336</ele><time>2026-04-19T08:11:48.607Z</time></trkpt><trkpt lat="42.1872817" lon="11.8081467"><ele>17.0</ele><time>2026-04-19T08:11:49.607Z</time></trkpt><trkpt lat="42.18729" lon="11.80838"><ele>17.0</ele><time>2026-04-19T08:11:50.607Z</time></trkpt><trkpt lat="42.1872933" lon="11.8086067"><ele>17.0</ele><time>2026-04-19T08:11:51.607Z</time></trkpt><trkpt lat="42.1872983" lon="11.8088233"><ele>17.0</ele><time>2026-04-19T08:11:52.607Z</time></trkpt><trkpt lat="42.1873167" lon="11.809045"><ele>18.666666666666668</ele><time>2026-04-19T08:11:53.607Z</time></trkpt><trkpt lat="42.1873467" lon="11.809275"><ele>20.333333333333332</ele><time>2026-04-19T08:11:54.608Z</time></trkpt><trkpt lat="42.1873783" lon="11.8095083"><ele>22.0</ele><time>2026-04-19T08:11:55.607Z</time></trkpt><trkpt lat="42.18741" lon="11.80973"><ele>22.0</ele><time>2026-04-19T08:11:56.607Z</time></trkpt><trkpt lat="42.187445" lon="11.80996"><ele>22.0</ele><time>2026-04-19T08:11:57.607Z</time></trkpt><trkpt lat="42.1874817" lon="11.81019"><ele>22.0</ele><time>2026-04-19T08:11:58.607Z</time></trkpt><trkpt lat="42.1875117" lon="11.8104017"><ele>21.333333333333332</ele><time>2026-04-19T08:11:59.608Z</time></trkpt><trkpt lat="42.1875417" lon="11.8106133"><ele>20.666666666666668</ele><time>2026-04-19T08:12:00.607Z</time></trkpt><trkpt lat="42.1875683" lon="11.8108267"><ele>20.0</ele><time>2026-04-19T08:12:01.607Z</time></trkpt><trkpt lat="42.187605" lon="11.8110517"><ele>19.666666666666668</ele><time>2026-04-19T08:12:02.607Z</time></trkpt><trkpt lat="42.1876417" lon="11.8112817"><ele>19.333333333333332</ele><time>2026-04-19T08:12:03.607Z</time></trkpt><trkpt lat="42.1876783" lon="11.8115217"><ele>19.0</ele><time>2026-04-19T08:12:04.608Z</time></trkpt><trkpt lat="42.1877117" lon="11.8117783"><ele>18.666666666666664</ele><time>2026-04-19T08:12:05.607Z</time></trkpt><trkpt lat="42.1877483" lon="11.8120267"><ele>18.333333333333332</ele><time>2026-04-19T08:12:06.607Z</time></trkpt><trkpt lat="42.187785" lon="11.8122833"><ele>18.0</ele><time>2026-04-19T08:12:07.607Z</time></trkpt><trkpt lat="42.187815" lon="11.812515"><ele>18.666666666666668</ele><time>2026-04-19T08:12:08.607Z</time></trkpt><trkpt lat="42.1878517" lon="11.8127367"><ele>19.333333333333336</ele><time>2026-04-19T08:12:09.607Z</time></trkpt><trkpt lat="42.187885" lon="11.8129583"><ele>20.0</ele><time>2026-04-19T08:12:10.607Z</time></trkpt><trkpt lat="42.187915" lon="11.8131833"><ele>20.0</ele><time>2026-04-19T08:12:11.607Z</time></trkpt><trkpt lat="42.1879433" lon="11.8134"><ele>20.0</ele><time>2026-04-19T08:12:12.607Z</time></trkpt><trkpt lat="42.1879717" lon="11.8136133"><ele>20.0</ele><time>2026-04-19T08:12:13.607Z</time></trkpt><trkpt lat="42.1880017" lon="11.81383"><ele>20.0</ele><time>2026-04-19T08:12:14.607Z</time></trkpt><trkpt lat="42.18803" lon="11.8140417"><ele>20.0</ele><time>2026-04-19T08:12:15.607Z</time></trkpt><trkpt lat="42.188065" lon="11.8142617"><ele>20.0</ele><time>2026-04-19T08:12:16.607Z</time></trkpt><trkpt lat="42.188105" lon="11.8144783"><ele>20.333333333333336</ele><time>2026-04-19T08:12:17.607Z</time></trkpt><trkpt lat="42.1881333" lon="11.814685"><ele>20.666666666666668</ele><time>2026-04-19T08:12:18.608Z</time></trkpt><trkpt lat="42.188165" lon="11.8148817"><ele>21.0</ele><time>2026-04-19T08:12:19.607Z</time></trkpt><trkpt lat="42.1881933" lon="11.8150783"><ele>22.333333333333336</ele><time>2026-04-19T08:12:20.607Z</time></trkpt><trkpt lat="42.1882217" lon="11.8152733"><ele>23.666666666666668</ele><time>2026-04-19T08:12:21.608Z</time></trkpt><trkpt lat="42.1882483" lon="11.8154917"><ele>25.0</ele><time>2026-04-19T08:12:22.607Z</time></trkpt><trkpt lat="42.1882567" lon="11.81573"><ele>25.0</ele><time>2026-04-19T08:12:23.607Z</time></trkpt><trkpt lat="42.1882617" lon="11.8159833"><ele>25.0</ele><time>2026-04-19T08:12:24.607Z</time></trkpt><trkpt lat="42.1882667" lon="11.8162367"><ele>25.0</ele><time>2026-04-19T08:12:25.607Z</time></trkpt><trkpt lat="42.188265" lon="11.8164883"><ele>25.333333333333336</ele><time>2026-04-19T08:12:26.607Z</time></trkpt><trkpt lat="42.188265" lon="11.8167183"><ele>25.666666666666664</ele><time>2026-04-19T08:12:27.607Z</time></trkpt><trkpt lat="42.18826" lon="11.81693"><ele>26.0</ele><time>2026-04-19T08:12:28.607Z</time></trkpt><trkpt lat="42.1882733" lon="11.8171417"><ele>26.25</ele><time>2026-04-19T08:12:29.608Z</time></trkpt><trkpt lat="42.188275" lon="11.81735"><ele>26.5</ele><time>2026-04-19T08:12:30.607Z</time></trkpt><trkpt lat="42.18827" lon="11.8175617"><ele>26.75</ele><time>2026-04-19T08:12:31.607Z</time></trkpt><trkpt lat="42.1882617" lon="11.8177383"><ele>27.0</ele><time>2026-04-19T08:12:32.608Z</time></trkpt><trkpt lat="42.18826" lon="11.817895"><ele>27.0</ele><time>2026-04-19T08:12:33.607Z</time></trkpt><trkpt lat="42.1882617" lon="11.8180283"><ele>27.0</ele><time>2026-04-19T08:12:34.607Z</time></trkpt><trkpt lat="42.1882583" lon="11.81814"><ele>27.0</ele><time>2026-04-19T08:12:35.607Z</time></trkpt><trkpt lat="42.18826" lon="11.8182333"><ele>27.0</ele><time>2026-04-19T08:12:36.607Z</time></trkpt><trkpt lat="42.1882633" lon="11.8183833"><ele>27.0</ele><time>2026-04-19T08:12:38.607Z</time></trkpt><trkpt lat="42.1882667" lon="11.8184733"><ele>27.0</ele><time>2026-04-19T08:12:40.608Z</time></trkpt><trkpt lat="42.188265" lon="11.8185667"><ele>27.0</ele><time>2026-04-19T08:12:42.608Z</time></trkpt><trkpt lat="42.1882783" lon="11.818735"><ele>27.000000000000004</ele><time>2026-04-19T08:13:55.607Z</time></trkpt><trkpt lat="42.18828" lon="11.8188217"><ele>27.000000000000004</ele><time>2026-04-19T08:13:56.607Z</time></trkpt><trkpt lat="42.18828" lon="11.8189283"><ele>27.0</ele><time>2026-04-19T08:13:57.607Z</time></trkpt><trkpt lat="42.1882633" lon="11.81905"><ele>27.0</ele><time>2026-04-19T08:13:58.607Z</time></trkpt><trkpt lat="42.1882333" lon="11.8191683"><ele>27.0</ele><time>2026-04-19T08:13:59.607Z</time></trkpt><trkpt lat="42.1881783" lon="11.8192833"><ele>27.0</ele><time>2026-04-19T08:14:00.607Z</time></trkpt><trkpt lat="42.18808" lon="11.8194083"><ele>27.0</ele><time>2026-04-19T08:14:01.608Z</time></trkpt><trkpt lat="42.1879383" lon="11.8195233"><ele>27.0</ele><time>2026-04-19T08:14:02.607Z</time></trkpt><trkpt lat="42.1877583" lon="11.8196283"><ele>26.333333333333336</ele><time>2026-04-19T08:14:03.607Z</time></trkpt><trkpt lat="42.1875833" lon="11.8197217"><ele>25.666666666666668</ele><time>2026-04-19T08:14:04.608Z</time></trkpt><trkpt lat="42.1874183" lon="11.8198117"><ele>25.0</ele><time>2026-04-19T08:14:05.607Z</time></trkpt><trkpt lat="42.1872667" lon="11.8199083"><ele>25.0</ele><time>2026-04-19T08:14:06.607Z</time></trkpt><trkpt lat="42.1871233" lon="11.820005"><ele>25.0</ele><time>2026-04-19T08:14:07.607Z</time></trkpt><trkpt lat="42.1869833" lon="11.8200967"><ele>25.0</ele><time>2026-04-19T08:14:08.607Z</time></trkpt><trkpt lat="42.18683" lon="11.8202"><ele>25.0</ele><time>2026-04-19T08:14:09.607Z</time></trkpt><trkpt lat="42.18667" lon="11.820305"><ele>25.0</ele><time>2026-04-19T08:14:10.607Z</time></trkpt><trkpt lat="42.1865017" lon="11.82041"><ele>25.0</ele><time>2026-04-19T08:14:11.607Z</time></trkpt><trkpt lat="42.1863317" lon="11.8205133"><ele>24.333333333333336</ele><time>2026-04-19T08:14:12.607Z</time></trkpt><trkpt lat="42.1861717" lon="11.8206183"><ele>23.666666666666668</ele><time>2026-04-19T08:14:13.607Z</time></trkpt><trkpt lat="42.1860167" lon="11.8207183"><ele>23.0</ele><time>2026-04-19T08:14:14.607Z</time></trkpt><trkpt lat="42.1858633" lon="11.820815"><ele>23.0</ele><time>2026-04-19T08:14:15.607Z</time></trkpt><trkpt lat="42.1857183" lon="11.8209117"><ele>23.0</ele><time>2026-04-19T08:14:16.608Z</time></trkpt><trkpt lat="42.185575" lon="11.8209967"><ele>23.0</ele><time>2026-04-19T08:14:17.607Z</time></trkpt><trkpt lat="42.18544" lon="11.8210817"><ele>23.5</ele><time>2026-04-19T08:14:18.607Z</time></trkpt><trkpt lat="42.18531" lon="11.8211683"><ele>24.0</ele><time>2026-04-19T08:14:19.608Z</time></trkpt><trkpt lat="42.1851833" lon="11.8212467"><ele>24.5</ele><time>2026-04-19T08:14:20.607Z</time></trkpt><trkpt lat="42.1850667" lon="11.8213317"><ele>25.0</ele><time>2026-04-19T08:14:21.607Z</time></trkpt><trkpt lat="42.184965" lon="11.8214417"><ele>25.0</ele><time>2026-04-19T08:14:22.607Z</time></trkpt><trkpt lat="42.1848867" lon="11.821565"><ele>25.0</ele><time>2026-04-19T08:14:23.606Z</time></trkpt><trkpt lat="42.1848283" lon="11.8216917"><ele>25.0</ele><time>2026-04-19T08:14:24.607Z</time></trkpt><trkpt lat="42.1847817" lon="11.821825"><ele>25.0</ele><time>2026-04-19T08:14:25.607Z</time></trkpt><trkpt lat="42.1847567" lon="11.82196"><ele>25.0</ele><time>2026-04-19T08:14:26.606Z</time></trkpt><trkpt lat="42.18475" lon="11.8220933"><ele>26.25</ele><time>2026-04-19T08:14:27.606Z</time></trkpt><trkpt lat="42.1847517" lon="11.8222367"><ele>27.5</ele><time>2026-04-19T08:14:28.606Z</time></trkpt><trkpt lat="42.184755" lon="11.82242"><ele>28.75</ele><time>2026-04-19T08:14:29.606Z</time></trkpt><trkpt lat="42.184765" lon="11.8226133"><ele>30.0</ele><time>2026-04-19T08:14:30.606Z</time></trkpt><trkpt lat="42.1847667" lon="11.8228117"><ele>32.666666666666664</ele><time>2026-04-19T08:14:31.607Z</time></trkpt><trkpt lat="42.1847617" lon="11.8230183"><ele>35.33333333333333</ele><time>2026-04-19T08:14:32.606Z</time></trkpt><trkpt lat="42.1847667" lon="11.8232317"><ele>38.0</ele><time>2026-04-19T08:14:33.606Z</time></trkpt><trkpt lat="42.1847683" lon="11.8234483"><ele>40.0</ele><time>2026-04-19T08:14:34.607Z</time></trkpt><trkpt lat="42.1847667" lon="11.82367"><ele>42.0</ele><time>2026-04-19T08:14:35.606Z</time></trkpt><trkpt lat="42.1847633" lon="11.8238883"><ele>44.0</ele><time>2026-04-19T08:14:36.606Z</time></trkpt><trkpt lat="42.1847617" lon="11.824105"><ele>44.666666666666664</ele><time>2026-04-19T08:14:37.606Z</time></trkpt><trkpt lat="42.1847667" lon="11.82432"><ele>45.333333333333336</ele><time>2026-04-19T08:14:38.606Z</time></trkpt><trkpt lat="42.184775" lon="11.82454"><ele>46.0</ele><time>2026-04-19T08:14:39.606Z</time></trkpt><trkpt lat="42.1847783" lon="11.82477"><ele>46.0</ele><time>2026-04-19T08:14:40.606Z</time></trkpt><trkpt lat="42.1847767" lon="11.8250083"><ele>46.0</ele><time>2026-04-19T08:14:41.607Z</time></trkpt><trkpt lat="42.1847817" lon="11.82524"><ele>46.0</ele><time>2026-04-19T08:14:42.606Z</time></trkpt><trkpt lat="42.18478" lon="11.8254767"><ele>45.66666666666667</ele><time>2026-04-19T08:14:43.606Z</time></trkpt><trkpt lat="42.184785" lon="11.8257083"><ele>45.333333333333336</ele><time>2026-04-19T08:14:44.606Z</time></trkpt><trkpt lat="42.1847817" lon="11.825945"><ele>45.0</ele><time>2026-04-19T08:14:45.606Z</time></trkpt><trkpt lat="42.184775" lon="11.8261883"><ele>43.0</ele><time>2026-04-19T08:14:46.606Z</time></trkpt><trkpt lat="42.184775" lon="11.8264317"><ele>41.0</ele><time>2026-04-19T08:14:47.607Z</time></trkpt><trkpt lat="42.1847783" lon="11.82667"><ele>39.0</ele><time>2026-04-19T08:14:48.606Z</time></trkpt><trkpt lat="42.1847783" lon="11.8269117"><ele>38.0</ele><time>2026-04-19T08:14:49.606Z</time></trkpt><trkpt lat="42.18478" lon="11.82715"><ele>37.0</ele><time>2026-04-19T08:14:50.606Z</time></trkpt><trkpt lat="42.1847767" lon="11.8273917"><ele>36.0</ele><time>2026-04-19T08:14:51.607Z</time></trkpt><trkpt lat="42.1847767" lon="11.827625"><ele>35.666666666666664</ele><time>2026-04-19T08:14:52.606Z</time></trkpt><trkpt lat="42.1847833" lon="11.827855"><ele>35.33333333333333</ele><time>2026-04-19T08:14:53.606Z</time></trkpt><trkpt lat="42.184785" lon="11.82808"><ele>35.0</ele><time>2026-04-19T08:14:54.606Z</time></trkpt><trkpt lat="42.18479" lon="11.8282933"><ele>35.25</ele><time>2026-04-19T08:14:55.606Z</time></trkpt><trkpt lat="42.1847817" lon="11.828505"><ele>35.5</ele><time>2026-04-19T08:14:56.606Z</time></trkpt><trkpt lat="42.1847833" lon="11.8287"><ele>35.75</ele><time>2026-04-19T08:14:57.606Z</time></trkpt><trkpt lat="42.1847883" lon="11.8288783"><ele>36.0</ele><time>2026-04-19T08:14:58.606Z</time></trkpt><trkpt lat="42.1847883" lon="11.82904"><ele>36.0</ele><time>2026-04-19T08:14:59.606Z</time></trkpt><trkpt lat="42.184785" lon="11.8291917"><ele>36.0</ele><time>2026-04-19T08:15:00.606Z</time></trkpt><trkpt lat="42.1847817" lon="11.8293367"><ele>36.0</ele><time>2026-04-19T08:15:01.606Z</time></trkpt><trkpt lat="42.18479" lon="11.829495"><ele>36.0</ele><time>2026-04-19T08:15:02.606Z</time></trkpt><trkpt lat="42.1847917" lon="11.829665"><ele>36.5</ele><time>2026-04-19T08:15:03.606Z</time></trkpt><trkpt lat="42.1847983" lon="11.8298483"><ele>37.0</ele><time>2026-04-19T08:15:04.607Z</time></trkpt><trkpt lat="42.1847917" lon="11.8300333"><ele>37.5</ele><time>2026-04-19T08:15:05.606Z</time></trkpt><trkpt lat="42.1847967" lon="11.8302083"><ele>38.0</ele><time>2026-04-19T08:15:06.606Z</time></trkpt><trkpt lat="42.1848167" lon="11.8303917"><ele>39.0</ele><time>2026-04-19T08:15:07.607Z</time></trkpt><trkpt lat="42.1848483" lon="11.8305717"><ele>40.0</ele><time>2026-04-19T08:15:08.606Z</time></trkpt><trkpt lat="42.1849133" lon="11.8307683"><ele>41.0</ele><time>2026-04-19T08:15:09.606Z</time></trkpt><trkpt lat="42.1850033" lon="11.8309783"><ele>41.0</ele><time>2026-04-19T08:15:10.607Z</time></trkpt><trkpt lat="42.185105" lon="11.8312017"><ele>41.0</ele><time>2026-04-19T08:15:11.607Z</time></trkpt><trkpt lat="42.1852283" lon="11.8314333"><ele>41.0</ele><time>2026-04-19T08:15:12.607Z</time></trkpt><trkpt lat="42.185365" lon="11.8316767"><ele>46.5</ele><time>2026-04-19T08:15:13.606Z</time></trkpt><trkpt lat="42.1855" lon="11.83193"><ele>52.0</ele><time>2026-04-19T08:15:14.607Z</time></trkpt><trkpt lat="42.1856317" lon="11.8321767"><ele>45.0</ele><time>2026-04-19T08:15:15.606Z</time></trkpt><trkpt lat="42.1857683" lon="11.8324167"><ele>38.0</ele><time>2026-04-19T08:15:16.606Z</time></trkpt><trkpt lat="42.1859133" lon="11.83267"><ele>38.0</ele><time>2026-04-19T08:15:17.606Z</time></trkpt><trkpt lat="42.1860467" lon="11.8329117"><ele>38.0</ele><time>2026-04-19T08:15:18.606Z</time></trkpt><trkpt lat="42.1861733" lon="11.8331383"><ele>38.0</ele><time>2026-04-19T08:15:19.606Z</time></trkpt><trkpt lat="42.1862917" lon="11.83335"><ele>37.0</ele><time>2026-04-19T08:15:20.606Z</time></trkpt><trkpt lat="42.186425" lon="11.8335667"><ele>36.0</ele><time>2026-04-19T08:15:21.607Z</time></trkpt><trkpt lat="42.18656" lon="11.8338"><ele>35.0</ele><time>2026-04-19T08:15:22.606Z</time></trkpt><trkpt lat="42.1866983" lon="11.834045"><ele>35.0</ele><time>2026-04-19T08:15:23.606Z</time></trkpt><trkpt lat="42.1868417" lon="11.8343033"><ele>35.0</ele><time>2026-04-19T08:15:24.606Z</time></trkpt><trkpt lat="42.186975" lon="11.8345733"><ele>37.0</ele><time>2026-04-19T08:15:25.607Z</time></trkpt><trkpt lat="42.1871133" lon="11.8348367"><ele>39.0</ele><time>2026-04-19T08:15:26.607Z</time></trkpt><trkpt lat="42.1872433" lon="11.8350733"><ele>37.666666666666664</ele><time>2026-04-19T08:15:27.607Z</time></trkpt><trkpt lat="42.187365" lon="11.835285"><ele>36.33333333333333</ele><time>2026-04-19T08:15:28.607Z</time></trkpt><trkpt lat="42.1874783" lon="11.835485"><ele>35.0</ele><time>2026-04-19T08:15:29.607Z</time></trkpt><trkpt lat="42.18758" lon="11.8356767"><ele>35.0</ele><time>2026-04-19T08:15:30.606Z</time></trkpt><trkpt lat="42.1876833" lon="11.8358717"><ele>35.0</ele><time>2026-04-19T08:15:31.606Z</time></trkpt><trkpt lat="42.18778" lon="11.8360417"><ele>35.0</ele><time>2026-04-19T08:15:32.606Z</time></trkpt><trkpt lat="42.18787" lon="11.8362017"><ele>35.5</ele><time>2026-04-19T08:15:33.607Z</time></trkpt><trkpt lat="42.1879483" lon="11.83635"><ele>36.0</ele><time>2026-04-19T08:15:34.606Z</time></trkpt><trkpt lat="42.1880233" lon="11.83649"><ele>36.5</ele><time>2026-04-19T08:15:35.607Z</time></trkpt><trkpt lat="42.1880767" lon="11.8366367"><ele>37.0</ele><time>2026-04-19T08:15:36.607Z</time></trkpt><trkpt lat="42.1881117" lon="11.8367833"><ele>37.2</ele><time>2026-04-19T08:15:37.606Z</time></trkpt><trkpt lat="42.18812" lon="11.8369267"><ele>37.400000000000006</ele><time>2026-04-19T08:15:38.606Z</time></trkpt><trkpt lat="42.1881" lon="11.837075"><ele>37.599999999999994</ele><time>2026-04-19T08:15:39.607Z</time></trkpt><trkpt lat="42.1880617" lon="11.8372183"><ele>37.8</ele><time>2026-04-19T08:15:40.606Z</time></trkpt><trkpt lat="42.1880083" lon="11.83735"><ele>38.0</ele><time>2026-04-19T08:15:41.606Z</time></trkpt><trkpt lat="42.1879267" lon="11.83748"><ele>38.0</ele><time>2026-04-19T08:15:42.606Z</time></trkpt><trkpt lat="42.1878167" lon="11.8376083"><ele>38.0</ele><time>2026-04-19T08:15:43.607Z</time></trkpt><trkpt lat="42.1876817" lon="11.8377417"><ele>38.0</ele><time>2026-04-19T08:15:44.606Z</time></trkpt><trkpt lat="42.187545" lon="11.837855"><ele>38.0</ele><time>2026-04-19T08:15:45.606Z</time></trkpt><trkpt lat="42.1874133" lon="11.83797"><ele>38.0</ele><time>2026-04-19T08:15:46.606Z</time></trkpt><trkpt lat="42.18728" lon="11.8380733"><ele>38.0</ele><time>2026-04-19T08:15:47.606Z</time></trkpt><trkpt lat="42.1871433" lon="11.8381933"><ele>38.0</ele><time>2026-04-19T08:15:48.606Z</time></trkpt><trkpt lat="42.1870117" lon="11.838325"><ele>38.0</ele><time>2026-04-19T08:15:49.607Z</time></trkpt><trkpt lat="42.1868767" lon="11.838445"><ele>38.0</ele><time>2026-04-19T08:15:50.606Z</time></trkpt><trkpt lat="42.1867533" lon="11.83856"><ele>38.5</ele><time>2026-04-19T08:15:51.606Z</time></trkpt><trkpt lat="42.1866367" lon="11.838665"><ele>39.0</ele><time>2026-04-19T08:15:52.606Z</time></trkpt><trkpt lat="42.186525" lon="11.8387633"><ele>39.5</ele><time>2026-04-19T08:15:53.606Z</time></trkpt><trkpt lat="42.186425" lon="11.8388683"><ele>40.0</ele><time>2026-04-19T08:15:54.606Z</time></trkpt><trkpt lat="42.1863367" lon="11.8389817"><ele>40.0</ele><time>2026-04-19T08:15:55.606Z</time></trkpt><trkpt lat="42.1862483" lon="11.839115"><ele>40.0</ele><time>2026-04-19T08:15:56.606Z</time></trkpt><trkpt lat="42.1861733" lon="11.839245"><ele>40.0</ele><time>2026-04-19T08:15:57.606Z</time></trkpt><trkpt lat="42.1861083" lon="11.8393933"><ele>40.0</ele><time>2026-04-19T08:15:58.606Z</time></trkpt><trkpt lat="42.186055" lon="11.8395583"><ele>40.0</ele><time>2026-04-19T08:15:59.607Z</time></trkpt><trkpt lat="42.1860183" lon="11.839755"><ele>40.0</ele><time>2026-04-19T08:16:00.606Z</time></trkpt><trkpt lat="42.1859917" lon="11.839985"><ele>40.0</ele><time>2026-04-19T08:16:01.606Z</time></trkpt><trkpt lat="42.185955" lon="11.84022"><ele>40.0</ele><time>2026-04-19T08:16:02.606Z</time></trkpt><trkpt lat="42.1859283" lon="11.8404483"><ele>40.0</ele><time>2026-04-19T08:16:03.606Z</time></trkpt><trkpt lat="42.185895" lon="11.8406717"><ele>40.0</ele><time>2026-04-19T08:16:04.607Z</time></trkpt><trkpt lat="42.1858617" lon="11.8408933"><ele>41.0</ele><time>2026-04-19T08:16:05.606Z</time></trkpt><trkpt lat="42.18583" lon="11.8411267"><ele>42.0</ele><time>2026-04-19T08:16:06.607Z</time></trkpt><trkpt lat="42.1857917" lon="11.8413683"><ele>43.0</ele><time>2026-04-19T08:16:07.606Z</time></trkpt><trkpt lat="42.1857633" lon="11.8415983"><ele>43.5</ele><time>2026-04-19T08:16:08.606Z</time></trkpt><trkpt lat="42.1857417" lon="11.8418083"><ele>44.0</ele><time>2026-04-19T08:16:09.607Z</time></trkpt><trkpt lat="42.18571" lon="11.8419967"><ele>44.5</ele><time>2026-04-19T08:16:10.606Z</time></trkpt><trkpt lat="42.18568" lon="11.8421717"><ele>45.0</ele><time>2026-04-19T08:16:11.606Z</time></trkpt><trkpt lat="42.18565" lon="11.8423333"><ele>45.0</ele><time>2026-04-19T08:16:12.606Z</time></trkpt><trkpt lat="42.1856267" lon="11.8424767"><ele>45.0</ele><time>2026-04-19T08:16:13.607Z</time></trkpt><trkpt lat="42.1856033" lon="11.842625"><ele>45.0</ele><time>2026-04-19T08:16:14.606Z</time></trkpt><trkpt lat="42.1855983" lon="11.842775"><ele>45.0</ele><time>2026-04-19T08:16:15.607Z</time></trkpt><trkpt lat="42.1856133" lon="11.8429167"><ele>45.0</ele><time>2026-04-19T08:16:16.607Z</time></trkpt><trkpt lat="42.1856433" lon="11.843065"><ele>45.25</ele><time>2026-04-19T08:16:17.606Z</time></trkpt><trkpt lat="42.1856883" lon="11.8432033"><ele>45.5</ele><time>2026-04-19T08:16:18.606Z</time></trkpt><trkpt lat="42.185755" lon="11.84333"><ele>45.75</ele><time>2026-04-19T08:16:19.607Z</time></trkpt><trkpt lat="42.1858283" lon="11.843455"><ele>46.0</ele><time>2026-04-19T08:16:20.606Z</time></trkpt><trkpt lat="42.1859117" lon="11.8435733"><ele>46.0</ele><time>2026-04-19T08:16:21.606Z</time></trkpt><trkpt lat="42.1860067" lon="11.8436883"><ele>46.0</ele><time>2026-04-19T08:16:22.606Z</time></trkpt><trkpt lat="42.1861267" lon="11.8438117"><ele>46.0</ele><time>2026-04-19T08:16:23.606Z</time></trkpt><trkpt lat="42.1862617" lon="11.8439417"><ele>46.0</ele><time>2026-04-19T08:16:24.607Z</time></trkpt><trkpt lat="42.1864183" lon="11.8440883"><ele>48.66666666666667</ele><time>2026-04-19T08:16:25.606Z</time></trkpt><trkpt lat="42.186565" lon="11.8442317"><ele>51.333333333333336</ele><time>2026-04-19T08:16:26.606Z</time></trkpt><trkpt lat="42.1866817" lon="11.8443583"><ele>54.0</ele><time>2026-04-19T08:16:27.606Z</time></trkpt><trkpt lat="42.1867767" lon="11.8444867"><ele>54.25</ele><time>2026-04-19T08:16:28.606Z</time></trkpt><trkpt lat="42.186875" lon="11.8446067"><ele>54.5</ele><time>2026-04-19T08:16:29.606Z</time></trkpt><trkpt lat="42.1869833" lon="11.8447133"><ele>54.75</ele><time>2026-04-19T08:16:30.606Z</time></trkpt><trkpt lat="42.18711" lon="11.8448133"><ele>55.0</ele><time>2026-04-19T08:16:31.606Z</time></trkpt><trkpt lat="42.1872417" lon="11.8449283"><ele>55.25</ele><time>2026-04-19T08:16:32.606Z</time></trkpt><trkpt lat="42.1873667" lon="11.8450333"><ele>55.5</ele><time>2026-04-19T08:16:33.606Z</time></trkpt><trkpt lat="42.18748" lon="11.8451483"><ele>55.75</ele><time>2026-04-19T08:16:34.607Z</time></trkpt><trkpt lat="42.187585" lon="11.84526"><ele>56.0</ele><time>2026-04-19T08:16:35.607Z</time></trkpt><trkpt lat="42.1876983" lon="11.8453817"><ele>56.0</ele><time>2026-04-19T08:16:36.606Z</time></trkpt><trkpt lat="42.1878083" lon="11.84549"><ele>56.0</ele><time>2026-04-19T08:16:37.606Z</time></trkpt><trkpt lat="42.1879017" lon="11.84559"><ele>56.0</ele><time>2026-04-19T08:16:38.607Z</time></trkpt><trkpt lat="42.1879833" lon="11.8456883"><ele>56.0</ele><time>2026-04-19T08:16:39.606Z</time></trkpt><trkpt lat="42.1880533" lon="11.84578"><ele>56.0</ele><time>2026-04-19T08:16:40.606Z</time></trkpt><trkpt lat="42.188115" lon="11.8458883"><ele>55.99999999999999</ele><time>2026-04-19T08:16:41.606Z</time></trkpt><trkpt lat="42.1881617" lon="11.8460067"><ele>55.99999999999999</ele><time>2026-04-19T08:16:42.606Z</time></trkpt><trkpt lat="42.1882033" lon="11.84612"><ele>56.0</ele><time>2026-04-19T08:16:43.606Z</time></trkpt><trkpt lat="42.1882383" lon="11.8462283"><ele>56.0</ele><time>2026-04-19T08:16:44.606Z</time></trkpt><trkpt lat="42.1882783" lon="11.8463233"><ele>58.0</ele><time>2026-04-19T08:16:45.606Z</time></trkpt><trkpt lat="42.1883317" lon="11.8464233"><ele>59.99999999999999</ele><time>2026-04-19T08:16:46.606Z</time></trkpt><trkpt lat="42.1883933" lon="11.8465517"><ele>61.99999999999999</ele><time>2026-04-19T08:16:47.606Z</time></trkpt><trkpt lat="42.1884417" lon="11.8466883"><ele>64.0</ele><time>2026-04-19T08:16:48.606Z</time></trkpt><trkpt lat="42.18847" lon="11.8468017"><ele>66.0</ele><time>2026-04-19T08:16:49.606Z</time></trkpt><trkpt lat="42.1884867" lon="11.84696"><ele>66.5</ele><time>2026-04-19T08:16:51.606Z</time></trkpt><trkpt lat="42.18851" lon="11.8470433"><ele>67.0</ele><time>2026-04-19T08:16:52.606Z</time></trkpt><trkpt lat="42.18856" lon="11.8471233"><ele>67.5</ele><time>2026-04-19T08:16:53.606Z</time></trkpt><trkpt lat="42.1886383" lon="11.847195"><ele>68.0</ele><time>2026-04-19T08:16:54.606Z</time></trkpt><trkpt lat="42.188725" lon="11.8472433"><ele>68.5</ele><time>2026-04-19T08:16:55.606Z</time></trkpt><trkpt lat="42.1888033" lon="11.8473"><ele>69.0</ele><time>2026-04-19T08:16:56.606Z</time></trkpt><trkpt lat="42.1888583" lon="11.8473783"><ele>69.0</ele><time>2026-04-19T08:16:57.606Z</time></trkpt><trkpt lat="42.188915" lon="11.8474733"><ele>69.0</ele><time>2026-04-19T08:16:58.607Z</time></trkpt><trkpt lat="42.1889617" lon="11.8475817"><ele>69.0</ele><time>2026-04-19T08:16:59.606Z</time></trkpt><trkpt lat="42.189015" lon="11.8476833"><ele>69.0</ele><time>2026-04-19T08:17:00.606Z</time></trkpt><trkpt lat="42.1890683" lon="11.8477833"><ele>69.0</ele><time>2026-04-19T08:17:01.606Z</time></trkpt><trkpt lat="42.1891083" lon="11.847875"><ele>69.0</ele><time>2026-04-19T08:17:02.606Z</time></trkpt><trkpt lat="42.1891633" lon="11.8479817"><ele>69.60000000000001</ele><time>2026-04-19T08:17:03.606Z</time></trkpt><trkpt lat="42.189225" lon="11.8480883"><ele>70.2</ele><time>2026-04-19T08:17:04.606Z</time></trkpt><trkpt lat="42.1892933" lon="11.8481983"><ele>70.80000000000001</ele><time>2026-04-19T08:17:05.606Z</time></trkpt><trkpt lat="42.1893717" lon="11.8483033"><ele>71.4</ele><time>2026-04-19T08:17:06.606Z</time></trkpt><trkpt lat="42.1894383" lon="11.8484083"><ele>72.0</ele><time>2026-04-19T08:17:07.606Z</time></trkpt><trkpt lat="42.1894983" lon="11.8485167"><ele>72.6</ele><time>2026-04-19T08:17:08.606Z</time></trkpt><trkpt lat="42.18954" lon="11.8486317"><ele>73.2</ele><time>2026-04-19T08:17:09.606Z</time></trkpt><trkpt lat="42.1895733" lon="11.8487683"><ele>73.8</ele><time>2026-04-19T08:17:10.607Z</time></trkpt><trkpt lat="42.1895817" lon="11.848915"><ele>74.4</ele><time>2026-04-19T08:17:11.606Z</time></trkpt><trkpt lat="42.1895633" lon="11.8490767"><ele>75.0</ele><time>2026-04-19T08:17:12.606Z</time></trkpt><trkpt lat="42.189525" lon="11.8492383"><ele>76.2</ele><time>2026-04-19T08:17:13.606Z</time></trkpt><trkpt lat="42.1894833" lon="11.8493817"><ele>77.4</ele><time>2026-04-19T08:17:14.606Z</time></trkpt><trkpt lat="42.1894383" lon="11.8495"><ele>78.6</ele><time>2026-04-19T08:17:15.606Z</time></trkpt><trkpt lat="42.1893867" lon="11.8496067"><ele>79.8</ele><time>2026-04-19T08:17:16.606Z</time></trkpt><trkpt lat="42.1893467" lon="11.84969"><ele>81.0</ele><time>2026-04-19T08:17:17.606Z</time></trkpt><trkpt lat="42.1893017" lon="11.8497733"><ele>81.0</ele><time>2026-04-19T08:17:18.606Z</time></trkpt><trkpt lat="42.189265" lon="11.8498683"><ele>81.0</ele><time>2026-04-19T08:17:19.606Z</time></trkpt><trkpt lat="42.189245" lon="11.8499917"><ele>81.0</ele><time>2026-04-19T08:17:20.606Z</time></trkpt><trkpt lat="42.1892617" lon="11.8501067"><ele>81.0</ele><time>2026-04-19T08:17:21.606Z</time></trkpt><trkpt lat="42.1893033" lon="11.850225"><ele>81.0</ele><time>2026-04-19T08:17:22.606Z</time></trkpt><trkpt lat="42.18936" lon="11.85032"><ele>81.0</ele><time>2026-04-19T08:17:23.606Z</time></trkpt><trkpt lat="42.1894333" lon="11.850405"><ele>81.6</ele><time>2026-04-19T08:17:24.606Z</time></trkpt><trkpt lat="42.1895133" lon="11.8504867"><ele>82.19999999999999</ele><time>2026-04-19T08:17:25.607Z</time></trkpt><trkpt lat="42.1895867" lon="11.8505783"><ele>82.80000000000001</ele><time>2026-04-19T08:17:26.606Z</time></trkpt><trkpt lat="42.1896567" lon="11.8506717"><ele>83.4</ele><time>2026-04-19T08:17:27.606Z</time></trkpt><trkpt lat="42.1897033" lon="11.85079"><ele>84.0</ele><time>2026-04-19T08:17:28.606Z</time></trkpt><trkpt lat="42.1897383" lon="11.850925"><ele>85.5</ele><time>2026-04-19T08:17:29.606Z</time></trkpt><trkpt lat="42.189765" lon="11.8510717"><ele>87.0</ele><time>2026-04-19T08:17:30.607Z</time></trkpt><trkpt lat="42.18977" lon="11.8512383"><ele>88.5</ele><time>2026-04-19T08:17:31.606Z</time></trkpt><trkpt lat="42.1897783" lon="11.8514117"><ele>90.0</ele><time>2026-04-19T08:17:32.606Z</time></trkpt><trkpt lat="42.1897883" lon="11.8515867"><ele>90.0</ele><time>2026-04-19T08:17:33.606Z</time></trkpt><trkpt lat="42.1897967" lon="11.85179"><ele>90.0</ele><time>2026-04-19T08:17:34.606Z</time></trkpt><trkpt lat="42.18981" lon="11.8519833"><ele>90.0</ele><time>2026-04-19T08:17:35.606Z</time></trkpt><trkpt lat="42.1898217" lon="11.8521533"><ele>90.0</ele><time>2026-04-19T08:17:36.606Z</time></trkpt><trkpt lat="42.1898433" lon="11.85231"><ele>92.75</ele><time>2026-04-19T08:17:37.606Z</time></trkpt><trkpt lat="42.18987" lon="11.8524667"><ele>95.5</ele><time>2026-04-19T08:17:38.607Z</time></trkpt><trkpt lat="42.189915" lon="11.8526333"><ele>98.25</ele><time>2026-04-19T08:17:39.606Z</time></trkpt><trkpt lat="42.18998" lon="11.8528083"><ele>101.0</ele><time>2026-04-19T08:17:40.606Z</time></trkpt><trkpt lat="42.190045" lon="11.8529817"><ele>101.0</ele><time>2026-04-19T08:17:41.606Z</time></trkpt><trkpt lat="42.1901067" lon="11.853155"><ele>101.0</ele><time>2026-04-19T08:17:42.606Z</time></trkpt><trkpt lat="42.1901633" lon="11.8533233"><ele>101.0</ele><time>2026-04-19T08:17:43.606Z</time></trkpt><trkpt lat="42.1902217" lon="11.853495"><ele>101.0</ele><time>2026-04-19T08:17:44.606Z</time></trkpt><trkpt lat="42.190305" lon="11.85365"><ele>101.33333333333333</ele><time>2026-04-19T08:17:45.606Z</time></trkpt><trkpt lat="42.1904183" lon="11.853805"><ele>101.66666666666666</ele><time>2026-04-19T08:17:46.606Z</time></trkpt><trkpt lat="42.1905517" lon="11.8539633"><ele>102.0</ele><time>2026-04-19T08:17:47.606Z</time></trkpt><trkpt lat="42.190685" lon="11.85411"><ele>104.33333333333334</ele><time>2026-04-19T08:17:48.606Z</time></trkpt><trkpt lat="42.190825" lon="11.854275"><ele>106.66666666666667</ele><time>2026-04-19T08:17:49.607Z</time></trkpt><trkpt lat="42.19096" lon="11.85445"><ele>109.0</ele><time>2026-04-19T08:17:50.606Z</time></trkpt><trkpt lat="42.1910783" lon="11.85461"><ele>109.25</ele><time>2026-04-19T08:17:51.606Z</time></trkpt><trkpt lat="42.1911683" lon="11.8547617"><ele>109.5</ele><time>2026-04-19T08:17:52.607Z</time></trkpt><trkpt lat="42.1912317" lon="11.85492"><ele>109.75</ele><time>2026-04-19T08:17:53.606Z</time></trkpt><trkpt lat="42.19127" lon="11.85512"><ele>110.0</ele><time>2026-04-19T08:17:54.606Z</time></trkpt><trkpt lat="42.1912867" lon="11.8553533"><ele>110.33333333333333</ele><time>2026-04-19T08:17:55.606Z</time></trkpt><trkpt lat="42.1912883" lon="11.8555917"><ele>110.66666666666666</ele><time>2026-04-19T08:17:56.606Z</time></trkpt><trkpt lat="42.1912933" lon="11.85582"><ele>111.0</ele><time>2026-04-19T08:17:57.606Z</time></trkpt><trkpt lat="42.1913167" lon="11.8560383"><ele>113.0</ele><time>2026-04-19T08:17:58.606Z</time></trkpt><trkpt lat="42.1913667" lon="11.8562433"><ele>115.0</ele><time>2026-04-19T08:17:59.606Z</time></trkpt><trkpt lat="42.19144" lon="11.8564433"><ele>117.0</ele><time>2026-04-19T08:18:00.606Z</time></trkpt><trkpt lat="42.1915317" lon="11.8566417"><ele>119.33333333333334</ele><time>2026-04-19T08:18:01.606Z</time></trkpt><trkpt lat="42.1916283" lon="11.8568383"><ele>121.66666666666667</ele><time>2026-04-19T08:18:02.606Z</time></trkpt><trkpt lat="42.1917267" lon="11.8570433"><ele>124.0</ele><time>2026-04-19T08:18:03.607Z</time></trkpt><trkpt lat="42.191835" lon="11.857255"><ele>124.0</ele><time>2026-04-19T08:18:04.606Z</time></trkpt><trkpt lat="42.19194" lon="11.857445"><ele>124.0</ele><time>2026-04-19T08:18:05.606Z</time></trkpt><trkpt lat="42.1920433" lon="11.85761"><ele>124.0</ele><time>2026-04-19T08:18:06.606Z</time></trkpt><trkpt lat="42.1921617" lon="11.85775"><ele>125.0</ele><time>2026-04-19T08:18:07.606Z</time></trkpt><trkpt lat="42.1922917" lon="11.85788"><ele>126.0</ele><time>2026-04-19T08:18:08.607Z</time></trkpt><trkpt lat="42.192415" lon="11.8580117"><ele>127.0</ele><time>2026-04-19T08:18:09.606Z</time></trkpt><trkpt lat="42.1925333" lon="11.8581317"><ele>127.0</ele><time>2026-04-19T08:18:10.607Z</time></trkpt><trkpt lat="42.1926467" lon="11.85824"><ele>127.0</ele><time>2026-04-19T08:18:11.606Z</time></trkpt><trkpt lat="42.192745" lon="11.85834"><ele>127.0</ele><time>2026-04-19T08:18:12.606Z</time></trkpt><trkpt lat="42.192835" lon="11.8584383"><ele>127.0</ele><time>2026-04-19T08:18:13.607Z</time></trkpt><trkpt lat="42.1929067" lon="11.8585333"><ele>128.33333333333334</ele><time>2026-04-19T08:18:14.606Z</time></trkpt><trkpt lat="42.1929633" lon="11.858615"><ele>129.66666666666669</ele><time>2026-04-19T08:18:15.606Z</time></trkpt><trkpt lat="42.1930117" lon="11.858685"><ele>131.0</ele><time>2026-04-19T08:18:16.606Z</time></trkpt><trkpt lat="42.193055" lon="11.8588033"><ele>132.33333333333334</ele><time>2026-04-19T08:18:18.606Z</time></trkpt><trkpt lat="42.1930267" lon="11.8588817"><ele>133.66666666666666</ele><time>2026-04-19T08:18:20.606Z</time></trkpt><trkpt lat="42.1929817" lon="11.8589433"><ele>135.0</ele><time>2026-04-19T08:18:22.606Z</time></trkpt><trkpt lat="42.1929383" lon="11.8590317"><ele>135.0</ele><time>2026-04-19T08:18:24.606Z</time></trkpt><trkpt lat="42.1928967" lon="11.8591467"><ele>135.0</ele><time>2026-04-19T08:18:26.606Z</time></trkpt><trkpt lat="42.1928717" lon="11.8593033"><ele>135.0</ele><time>2026-04-19T08:18:28.606Z</time></trkpt><trkpt lat="42.1928733" lon="11.8594267"><ele>135.0</ele><time>2026-04-19T08:18:30.606Z</time></trkpt><trkpt lat="42.19294" lon="11.8595783"><ele>135.0</ele><time>2026-04-19T08:18:38.606Z</time></trkpt><trkpt lat="42.1930017" lon="11.8596967"><ele>136.25</ele><time>2026-04-19T08:18:39.605Z</time></trkpt><trkpt lat="42.193075" lon="11.8598267"><ele>137.5</ele><time>2026-04-19T08:18:40.605Z</time></trkpt><trkpt lat="42.1931617" lon="11.8599733"><ele>138.75</ele><time>2026-04-19T08:18:41.605Z</time></trkpt><trkpt lat="42.193255" lon="11.8601467"><ele>140.0</ele><time>2026-04-19T08:18:42.605Z</time></trkpt><trkpt lat="42.1933633" lon="11.8603367"><ele>141.0</ele><time>2026-04-19T08:18:43.605Z</time></trkpt><trkpt lat="42.1934767" lon="11.8605383"><ele>142.0</ele><time>2026-04-19T08:18:44.605Z</time></trkpt><trkpt lat="42.1935867" lon="11.860755"><ele>143.0</ele><time>2026-04-19T08:18:45.606Z</time></trkpt><trkpt lat="42.1936983" lon="11.8609683"><ele>144.0</ele><time>2026-04-19T08:18:46.605Z</time></trkpt><trkpt lat="42.193805" lon="11.8611617"><ele>145.0</ele><time>2026-04-19T08:18:47.605Z</time></trkpt><trkpt lat="42.1939067" lon="11.8613467"><ele>146.0</ele><time>2026-04-19T08:18:48.605Z</time></trkpt><trkpt lat="42.1940167" lon="11.8615467"><ele>144.33333333333331</ele><time>2026-04-19T08:18:49.606Z</time></trkpt><trkpt lat="42.194115" lon="11.8617483"><ele>142.66666666666666</ele><time>2026-04-19T08:18:50.605Z</time></trkpt><trkpt lat="42.1942183" lon="11.8619317"><ele>141.0</ele><time>2026-04-19T08:18:51.606Z</time></trkpt><trkpt lat="42.1943217" lon="11.862105"><ele>141.0</ele><time>2026-04-19T08:18:52.605Z</time></trkpt><trkpt lat="42.19444" lon="11.8622467"><ele>141.0</ele><time>2026-04-19T08:18:53.606Z</time></trkpt><trkpt lat="42.1945617" lon="11.8623767"><ele>141.0</ele><time>2026-04-19T08:18:54.605Z</time></trkpt><trkpt lat="42.1946833" lon="11.862495"><ele>140.75</ele><time>2026-04-19T08:18:55.605Z</time></trkpt><trkpt lat="42.1947983" lon="11.8626167"><ele>140.5</ele><time>2026-04-19T08:18:56.605Z</time></trkpt><trkpt lat="42.1949033" lon="11.8627583"><ele>140.25</ele><time>2026-04-19T08:18:57.606Z</time></trkpt><trkpt lat="42.1949983" lon="11.8629133"><ele>140.0</ele><time>2026-04-19T08:18:58.605Z</time></trkpt><trkpt lat="42.1950883" lon="11.8630667"><ele>140.0</ele><time>2026-04-19T08:18:59.605Z</time></trkpt><trkpt lat="42.19517" lon="11.8632267"><ele>140.0</ele><time>2026-04-19T08:19:00.605Z</time></trkpt><trkpt lat="42.1952667" lon="11.8634"><ele>140.0</ele><time>2026-04-19T08:19:01.605Z</time></trkpt><trkpt lat="42.1953583" lon="11.8635883"><ele>141.33333333333331</ele><time>2026-04-19T08:19:02.605Z</time></trkpt><trkpt lat="42.195445" lon="11.8637783"><ele>142.66666666666666</ele><time>2026-04-19T08:19:03.605Z</time></trkpt><trkpt lat="42.1955367" lon="11.8639533"><ele>144.0</ele><time>2026-04-19T08:19:04.606Z</time></trkpt><trkpt lat="42.1956217" lon="11.8641117"><ele>142.0</ele><time>2026-04-19T08:19:05.605Z</time></trkpt><trkpt lat="42.195705" lon="11.864265"><ele>140.0</ele><time>2026-04-19T08:19:06.605Z</time></trkpt><trkpt lat="42.1957817" lon="11.8644033"><ele>138.0</ele><time>2026-04-19T08:19:07.605Z</time></trkpt><trkpt lat="42.19586" lon="11.8645367"><ele>136.0</ele><time>2026-04-19T08:19:08.605Z</time></trkpt><trkpt lat="42.1959367" lon="11.864675"><ele>136.0</ele><time>2026-04-19T08:19:09.605Z</time></trkpt><trkpt lat="42.1960067" lon="11.8648267"><ele>136.0</ele><time>2026-04-19T08:19:10.606Z</time></trkpt><trkpt lat="42.1960767" lon="11.864965"><ele>136.0</ele><time>2026-04-19T08:19:11.605Z</time></trkpt><trkpt lat="42.1961467" lon="11.8650933"><ele>136.0</ele><time>2026-04-19T08:19:12.606Z</time></trkpt><trkpt lat="42.1962117" lon="11.8652267"><ele>138.25</ele><time>2026-04-19T08:19:13.605Z</time></trkpt><trkpt lat="42.19629" lon="11.8653617"><ele>140.5</ele><time>2026-04-19T08:19:14.605Z</time></trkpt><trkpt lat="42.196375" lon="11.8655117"><ele>142.75</ele><time>2026-04-19T08:19:15.605Z</time></trkpt><trkpt lat="42.19646" lon="11.865665"><ele>145.0</ele><time>2026-04-19T08:19:16.605Z</time></trkpt><trkpt lat="42.196535" lon="11.8658133"><ele>140.75</ele><time>2026-04-19T08:19:17.605Z</time></trkpt><trkpt lat="42.196615" lon="11.8659667"><ele>136.5</ele><time>2026-04-19T08:19:18.605Z</time></trkpt><trkpt lat="42.1966933" lon="11.8661133"><ele>132.25</ele><time>2026-04-19T08:19:19.605Z</time></trkpt><trkpt lat="42.1967783" lon="11.8662483"><ele>128.0</ele><time>2026-04-19T08:19:20.605Z</time></trkpt><trkpt lat="42.196865" lon="11.8663983"><ele>128.0</ele><time>2026-04-19T08:19:21.605Z</time></trkpt><trkpt lat="42.1969517" lon="11.8665617"><ele>128.0</ele><time>2026-04-19T08:19:22.606Z</time></trkpt><trkpt lat="42.1970483" lon="11.8667283"><ele>128.0</ele><time>2026-04-19T08:19:23.605Z</time></trkpt><trkpt lat="42.1971433" lon="11.86689"><ele>131.0</ele><time>2026-04-19T08:19:24.605Z</time></trkpt><trkpt lat="42.197235" lon="11.8670633"><ele>134.0</ele><time>2026-04-19T08:19:25.605Z</time></trkpt><trkpt lat="42.197325" lon="11.8672317"><ele>137.0</ele><time>2026-04-19T08:19:26.605Z</time></trkpt><trkpt lat="42.1974117" lon="11.8674"><ele>134.66666666666666</ele><time>2026-04-19T08:19:27.605Z</time></trkpt><trkpt lat="42.1974967" lon="11.86757"><ele>132.33333333333334</ele><time>2026-04-19T08:19:28.605Z</time></trkpt><trkpt lat="42.1975833" lon="11.867745"><ele>130.0</ele><time>2026-04-19T08:19:29.605Z</time></trkpt><trkpt lat="42.197675" lon="11.8679217"><ele>130.0</ele><time>2026-04-19T08:19:30.605Z</time></trkpt><trkpt lat="42.1977633" lon="11.8681"><ele>130.0</ele><time>2026-04-19T08:19:31.605Z</time></trkpt><trkpt lat="42.197855" lon="11.8682633"><ele>130.0</ele><time>2026-04-19T08:19:32.606Z</time></trkpt><trkpt lat="42.197935" lon="11.8684117"><ele>130.0</ele><time>2026-04-19T08:19:33.605Z</time></trkpt><trkpt lat="42.1980017" lon="11.8685517"><ele>132.5</ele><time>2026-04-19T08:19:34.606Z</time></trkpt><trkpt lat="42.1980583" lon="11.8687"><ele>135.0</ele><time>2026-04-19T08:19:35.605Z</time></trkpt><trkpt lat="42.198105" lon="11.8688483"><ele>137.5</ele><time>2026-04-19T08:19:36.606Z</time></trkpt><trkpt lat="42.19814" lon="11.8690133"><ele>140.0</ele><time>2026-04-19T08:19:37.605Z</time></trkpt><trkpt lat="42.1981683" lon="11.8691867"><ele>136.0</ele><time>2026-04-19T08:19:38.605Z</time></trkpt><trkpt lat="42.1981817" lon="11.8693617"><ele>132.0</ele><time>2026-04-19T08:19:39.606Z</time></trkpt><trkpt lat="42.1981933" lon="11.8695133"><ele>128.0</ele><time>2026-04-19T08:19:40.605Z</time></trkpt><trkpt lat="42.198225" lon="11.8696467"><ele>124.0</ele><time>2026-04-19T08:19:41.605Z</time></trkpt><trkpt lat="42.1982783" lon="11.8697667"><ele>124.0</ele><time>2026-04-19T08:19:42.605Z</time></trkpt><trkpt lat="42.1983483" lon="11.8698867"><ele>124.0</ele><time>2026-04-19T08:19:43.605Z</time></trkpt><trkpt lat="42.1984167" lon="11.870015"><ele>124.0</ele><time>2026-04-19T08:19:44.605Z</time></trkpt><trkpt lat="42.1984983" lon="11.8701367"><ele>124.0</ele><time>2026-04-19T08:19:45.605Z</time></trkpt><trkpt lat="42.1985767" lon="11.8702517"><ele>127.4</ele><time>2026-04-19T08:19:46.605Z</time></trkpt><trkpt lat="42.1986517" lon="11.87037"><ele>130.8</ele><time>2026-04-19T08:19:47.605Z</time></trkpt><trkpt lat="42.1987217" lon="11.8704783"><ele>134.2</ele><time>2026-04-19T08:19:48.605Z</time></trkpt><trkpt lat="42.198795" lon="11.8705733"><ele>137.6</ele><time>2026-04-19T08:19:49.605Z</time></trkpt><trkpt lat="42.1988683" lon="11.8706233"><ele>141.0</ele><time>2026-04-19T08:19:50.606Z</time></trkpt><trkpt lat="42.19894" lon="11.8706567"><ele>140.0</ele><time>2026-04-19T08:19:51.605Z</time></trkpt><trkpt lat="42.1990167" lon="11.870655"><ele>139.0</ele><time>2026-04-19T08:19:52.605Z</time></trkpt><trkpt lat="42.1990933" lon="11.8705817"><ele>138.0</ele><time>2026-04-19T08:19:53.606Z</time></trkpt><trkpt lat="42.199175" lon="11.8704767"><ele>137.0</ele><time>2026-04-19T08:19:54.605Z</time></trkpt><trkpt lat="42.199255" lon="11.8703467"><ele>136.0</ele><time>2026-04-19T08:19:55.606Z</time></trkpt><trkpt lat="42.1993133" lon="11.8701983"><ele>132.66666666666669</ele><time>2026-04-19T08:19:56.605Z</time></trkpt><trkpt lat="42.1993717" lon="11.8700033"><ele>129.33333333333334</ele><time>2026-04-19T08:19:57.606Z</time></trkpt><trkpt lat="42.1994317" lon="11.8697983"><ele>126.0</ele><time>2026-04-19T08:19:58.605Z</time></trkpt><trkpt lat="42.1994917" lon="11.869595"><ele>126.0</ele><time>2026-04-19T08:19:59.605Z</time></trkpt><trkpt lat="42.1995517" lon="11.8694"><ele>126.0</ele><time>2026-04-19T08:20:00.605Z</time></trkpt><trkpt lat="42.1996083" lon="11.8692233"><ele>126.0</ele><time>2026-04-19T08:20:01.605Z</time></trkpt><trkpt lat="42.1996733" lon="11.8690617"><ele>126.0</ele><time>2026-04-19T08:20:02.605Z</time></trkpt><trkpt lat="42.1997383" lon="11.868915"><ele>126.25</ele><time>2026-04-19T08:20:03.605Z</time></trkpt><trkpt lat="42.1998267" lon="11.8687617"><ele>126.5</ele><time>2026-04-19T08:20:04.606Z</time></trkpt><trkpt lat="42.199915" lon="11.8686133"><ele>126.75</ele><time>2026-04-19T08:20:05.605Z</time></trkpt><trkpt lat="42.2000133" lon="11.8684783"><ele>127.0</ele><time>2026-04-19T08:20:06.606Z</time></trkpt><trkpt lat="42.2001117" lon="11.8683467"><ele>127.0</ele><time>2026-04-19T08:20:07.605Z</time></trkpt><trkpt lat="42.2002117" lon="11.86822"><ele>127.0</ele><time>2026-04-19T08:20:08.605Z</time></trkpt><trkpt lat="42.2003067" lon="11.8680983"><ele>127.0</ele><time>2026-04-19T08:20:09.606Z</time></trkpt><trkpt lat="42.2003983" lon="11.8679767"><ele>127.0</ele><time>2026-04-19T08:20:10.606Z</time></trkpt><trkpt lat="42.2004783" lon="11.8678667"><ele>127.0</ele><time>2026-04-19T08:20:11.606Z</time></trkpt><trkpt lat="42.200555" lon="11.8677867"><ele>126.99999999999999</ele><time>2026-04-19T08:20:12.606Z</time></trkpt><trkpt lat="42.2006383" lon="11.8677567"><ele>126.99999999999999</ele><time>2026-04-19T08:20:13.605Z</time></trkpt><trkpt lat="42.2007067" lon="11.8677617"><ele>127.0</ele><time>2026-04-19T08:20:14.606Z</time></trkpt><trkpt lat="42.2007967" lon="11.867855"><ele>127.0</ele><time>2026-04-19T08:20:16.605Z</time></trkpt><trkpt lat="42.200795" lon="11.8680217"><ele>127.83333333333334</ele><time>2026-04-19T08:20:18.605Z</time></trkpt><trkpt lat="42.2007683" lon="11.8681267"><ele>128.66666666666669</ele><time>2026-04-19T08:20:19.605Z</time></trkpt><trkpt lat="42.2007267" lon="11.8682333"><ele>129.5</ele><time>2026-04-19T08:20:20.605Z</time></trkpt><trkpt lat="42.2006867" lon="11.8683467"><ele>130.33333333333334</ele><time>2026-04-19T08:20:21.605Z</time></trkpt><trkpt lat="42.20065" lon="11.8684667"><ele>131.16666666666666</ele><time>2026-04-19T08:20:22.605Z</time></trkpt><trkpt lat="42.2006267" lon="11.8685817"><ele>132.0</ele><time>2026-04-19T08:20:23.605Z</time></trkpt><trkpt lat="42.2006067" lon="11.86869"><ele>132.0</ele><time>2026-04-19T08:20:24.605Z</time></trkpt><trkpt lat="42.2005883" lon="11.86878"><ele>132.0</ele><time>2026-04-19T08:20:25.605Z</time></trkpt><trkpt lat="42.20057" lon="11.86891"><ele>132.0</ele><time>2026-04-19T08:20:27.605Z</time></trkpt><trkpt lat="42.20055" lon="11.869025"><ele>132.0</ele><time>2026-04-19T08:20:30.605Z</time></trkpt><trkpt lat="42.2005183" lon="11.869155"><ele>132.0</ele><time>2026-04-19T08:20:32.605Z</time></trkpt><trkpt lat="42.2004833" lon="11.8692567"><ele>132.0</ele><time>2026-04-19T08:20:33.605Z</time></trkpt><trkpt lat="42.20042" lon="11.8694083"><ele>134.33333333333334</ele><time>2026-04-19T08:20:34.605Z</time></trkpt><trkpt lat="42.200345" lon="11.8695883"><ele>136.66666666666669</ele><time>2026-04-19T08:20:35.605Z</time></trkpt><trkpt lat="42.2002583" lon="11.8697717"><ele>139.0</ele><time>2026-04-19T08:20:36.606Z</time></trkpt><trkpt lat="42.2001667" lon="11.86995"><ele>139.0</ele><time>2026-04-19T08:20:37.605Z</time></trkpt><trkpt lat="42.20008" lon="11.870105"><ele>139.0</ele><time>2026-04-19T08:20:38.605Z</time></trkpt><trkpt lat="42.2000033" lon="11.87025"><ele>139.0</ele><time>2026-04-19T08:20:39.605Z</time></trkpt><trkpt lat="42.199945" lon="11.8704117"><ele>139.0</ele><time>2026-04-19T08:20:40.606Z</time></trkpt><trkpt lat="42.1998933" lon="11.8705867"><ele>141.66666666666669</ele><time>2026-04-19T08:20:41.606Z</time></trkpt><trkpt lat="42.1998567" lon="11.8708017"><ele>144.33333333333334</ele><time>2026-04-19T08:20:42.606Z</time></trkpt><trkpt lat="42.199825" lon="11.8710017"><ele>147.0</ele><time>2026-04-19T08:20:43.605Z</time></trkpt><trkpt lat="42.1997967" lon="11.8711833"><ele>147.0</ele><time>2026-04-19T08:20:44.605Z</time></trkpt><trkpt lat="42.19979" lon="11.87135"><ele>147.0</ele><time>2026-04-19T08:20:45.605Z</time></trkpt><trkpt lat="42.1998117" lon="11.8715067"><ele>147.0</ele><time>2026-04-19T08:20:46.605Z</time></trkpt><trkpt lat="42.1998367" lon="11.871675"><ele>147.0</ele><time>2026-04-19T08:20:47.606Z</time></trkpt><trkpt lat="42.1998733" lon="11.8718483"><ele>148.25</ele><time>2026-04-19T08:20:48.605Z</time></trkpt><trkpt lat="42.19989" lon="11.8720167"><ele>149.5</ele><time>2026-04-19T08:20:49.606Z</time></trkpt><trkpt lat="42.199875" lon="11.8721817"><ele>150.75</ele><time>2026-04-19T08:20:50.605Z</time></trkpt><trkpt lat="42.1998317" lon="11.8723683"><ele>152.0</ele><time>2026-04-19T08:20:51.605Z</time></trkpt><trkpt lat="42.1997867" lon="11.8725833"><ele>155.33333333333331</ele><time>2026-04-19T08:20:52.605Z</time></trkpt><trkpt lat="42.1997417" lon="11.872825"><ele>158.66666666666666</ele><time>2026-04-19T08:20:53.605Z</time></trkpt><trkpt lat="42.1996983" lon="11.8730817"><ele>162.0</ele><time>2026-04-19T08:20:54.606Z</time></trkpt><trkpt lat="42.1996717" lon="11.8733517"><ele>162.66666666666666</ele><time>2026-04-19T08:20:55.606Z</time></trkpt><trkpt lat="42.199675" lon="11.873605"><ele>163.33333333333331</ele><time>2026-04-19T08:20:56.605Z</time></trkpt><trkpt lat="42.1997067" lon="11.8738517"><ele>164.0</ele><time>2026-04-19T08:20:57.606Z</time></trkpt><trkpt lat="42.199765" lon="11.8741133"><ele>165.33333333333331</ele><time>2026-04-19T08:20:58.605Z</time></trkpt><trkpt lat="42.1998317" lon="11.8743983"><ele>166.66666666666666</ele><time>2026-04-19T08:20:59.605Z</time></trkpt><trkpt lat="42.1998883" lon="11.8746833"><ele>168.0</ele><time>2026-04-19T08:21:00.605Z</time></trkpt><trkpt lat="42.1999417" lon="11.874965"><ele>165.0</ele><time>2026-04-19T08:21:01.605Z</time></trkpt><trkpt lat="42.1999933" lon="11.875205"><ele>162.0</ele><time>2026-04-19T08:21:02.605Z</time></trkpt><trkpt lat="42.200025" lon="11.875405"><ele>159.0</ele><time>2026-04-19T08:21:03.605Z</time></trkpt><trkpt lat="42.2000617" lon="11.8755683"><ele>159.0</ele><time>2026-04-19T08:21:04.605Z</time></trkpt><trkpt lat="42.2000733" lon="11.8757067"><ele>159.0</ele><time>2026-04-19T08:21:05.605Z</time></trkpt><trkpt lat="42.2000767" lon="11.875815"><ele>159.0</ele><time>2026-04-19T08:21:06.605Z</time></trkpt><trkpt lat="42.200055" lon="11.8759083"><ele>159.0</ele><time>2026-04-19T08:21:07.605Z</time></trkpt><trkpt lat="42.2000233" lon="11.8759933"><ele>159.0</ele><time>2026-04-19T08:21:08.605Z</time></trkpt><trkpt lat="42.1999817" lon="11.8760683"><ele>159.0</ele><time>2026-04-19T08:21:09.605Z</time></trkpt><trkpt lat="42.1999217" lon="11.8761467"><ele>159.25</ele><time>2026-04-19T08:21:11.605Z</time></trkpt><trkpt lat="42.1998533" lon="11.876255"><ele>159.5</ele><time>2026-04-19T08:21:35.605Z</time></trkpt><trkpt lat="42.1997683" lon="11.8763667"><ele>159.75</ele><time>2026-04-19T08:21:37.605Z</time></trkpt><trkpt lat="42.1996883" lon="11.876475"><ele>160.0</ele><time>2026-04-19T08:21:38.605Z</time></trkpt><trkpt lat="42.19959" lon="11.87661"><ele>160.0</ele><time>2026-04-19T08:21:39.606Z</time></trkpt><trkpt lat="42.1994833" lon="11.8767617"><ele>160.0</ele><time>2026-04-19T08:21:40.606Z</time></trkpt><trkpt lat="42.199385" lon="11.876915"><ele>160.0</ele><time>2026-04-19T08:21:41.605Z</time></trkpt><trkpt lat="42.1992883" lon="11.8770467"><ele>160.0</ele><time>2026-04-19T08:21:42.605Z</time></trkpt><trkpt lat="42.1992033" lon="11.8771683"><ele>159.5</ele><time>2026-04-19T08:21:43.606Z</time></trkpt><trkpt lat="42.1991167" lon="11.87729"><ele>159.0</ele><time>2026-04-19T08:21:44.605Z</time></trkpt><trkpt lat="42.1990383" lon="11.8774083"><ele>158.5</ele><time>2026-04-19T08:21:45.605Z</time></trkpt><trkpt lat="42.198965" lon="11.877515"><ele>158.0</ele><time>2026-04-19T08:21:46.605Z</time></trkpt><trkpt lat="42.198895" lon="11.8776117"><ele>157.66666666666666</ele><time>2026-04-19T08:21:47.605Z</time></trkpt><trkpt lat="42.198835" lon="11.877705"><ele>157.33333333333331</ele><time>2026-04-19T08:21:48.605Z</time></trkpt><trkpt lat="42.1987733" lon="11.8777883"><ele>157.0</ele><time>2026-04-19T08:21:49.606Z</time></trkpt><trkpt lat="42.1987217" lon="11.8778683"><ele>156.66666666666666</ele><time>2026-04-19T08:21:50.605Z</time></trkpt><trkpt lat="42.19867" lon="11.8779467"><ele>156.33333333333334</ele><time>2026-04-19T08:21:51.605Z</time></trkpt><trkpt lat="42.19862" lon="11.8780217"><ele>156.0</ele><time>2026-04-19T08:21:52.605Z</time></trkpt><trkpt lat="42.1985717" lon="11.87809"><ele>156.0</ele><time>2026-04-19T08:21:53.605Z</time></trkpt><trkpt lat="42.1985217" lon="11.878165"><ele>156.0</ele><time>2026-04-19T08:21:54.605Z</time></trkpt><trkpt lat="42.1984617" lon="11.878255"><ele>156.0</ele><time>2026-04-19T08:21:55.605Z</time></trkpt><trkpt lat="42.198385" lon="11.8783533"><ele>156.0</ele><time>2026-04-19T08:21:56.605Z</time></trkpt><trkpt lat="42.1983133" lon="11.8784767"><ele>156.0</ele><time>2026-04-19T08:21:57.606Z</time></trkpt><trkpt lat="42.198245" lon="11.8785883"><ele>155.6</ele><time>2026-04-19T08:21:58.605Z</time></trkpt><trkpt lat="42.198175" lon="11.8786883"><ele>155.2</ele><time>2026-04-19T08:21:59.605Z</time></trkpt><trkpt lat="42.19809" lon="11.8787867"><ele>154.8</ele><time>2026-04-19T08:22:00.605Z</time></trkpt><trkpt lat="42.1980117" lon="11.87888"><ele>154.4</ele><time>2026-04-19T08:22:01.606Z</time></trkpt><trkpt lat="42.1979333" lon="11.87895"><ele>154.0</ele><time>2026-04-19T08:22:02.605Z</time></trkpt><trkpt lat="42.1978517" lon="11.87901"><ele>154.0</ele><time>2026-04-19T08:22:03.605Z</time></trkpt><trkpt lat="42.1977517" lon="11.87905"><ele>154.0</ele><time>2026-04-19T08:22:04.605Z</time></trkpt><trkpt lat="42.19763" lon="11.8790667"><ele>154.0</ele><time>2026-04-19T08:22:05.605Z</time></trkpt><trkpt lat="42.1975" lon="11.8790833"><ele>154.0</ele><time>2026-04-19T08:22:06.605Z</time></trkpt><trkpt lat="42.19738" lon="11.879075"><ele>153.6</ele><time>2026-04-19T08:22:07.605Z</time></trkpt><trkpt lat="42.1972683" lon="11.8790633"><ele>153.2</ele><time>2026-04-19T08:22:08.605Z</time></trkpt><trkpt lat="42.19717" lon="11.8790567"><ele>152.79999999999998</ele><time>2026-04-19T08:22:09.606Z</time></trkpt><trkpt lat="42.1970867" lon="11.8790567"><ele>152.4</ele><time>2026-04-19T08:22:10.606Z</time></trkpt><trkpt lat="42.1970167" lon="11.8790717"><ele>152.0</ele><time>2026-04-19T08:22:11.606Z</time></trkpt><trkpt lat="42.1969117" lon="11.8791733"><ele>151.6</ele><time>2026-04-19T08:22:13.605Z</time></trkpt><trkpt lat="42.19689" lon="11.8792817"><ele>151.2</ele><time>2026-04-19T08:22:14.605Z</time></trkpt><trkpt lat="42.1969067" lon="11.8794267"><ele>150.8</ele><time>2026-04-19T08:22:15.605Z</time></trkpt><trkpt lat="42.1969083" lon="11.8795767"><ele>150.4</ele><time>2026-04-19T08:22:16.605Z</time></trkpt><trkpt lat="42.19691" lon="11.87971"><ele>150.0</ele><time>2026-04-19T08:22:17.605Z</time></trkpt><trkpt lat="42.1969067" lon="11.8798317"><ele>150.0</ele><time>2026-04-19T08:22:18.605Z</time></trkpt><trkpt lat="42.1969067" lon="11.8799517"><ele>150.0</ele><time>2026-04-19T08:22:19.605Z</time></trkpt><trkpt lat="42.1968983" lon="11.8800817"><ele>150.0</ele><time>2026-04-19T08:22:20.605Z</time></trkpt><trkpt lat="42.1969017" lon="11.8802"><ele>150.0</ele><time>2026-04-19T08:22:21.605Z</time></trkpt><trkpt lat="42.196905" lon="11.8803117"><ele>150.0</ele><time>2026-04-19T08:22:22.604Z</time></trkpt><trkpt lat="42.196905" lon="11.8804267"><ele>150.0</ele><time>2026-04-19T08:22:23.605Z</time></trkpt><trkpt lat="42.196915" lon="11.8805283"><ele>150.5</ele><time>2026-04-19T08:22:24.605Z</time></trkpt><trkpt lat="42.1969183" lon="11.88062"><ele>151.0</ele><time>2026-04-19T08:22:25.605Z</time></trkpt><trkpt lat="42.19692" lon="11.8807633"><ele>151.5</ele><time>2026-04-19T08:22:27.604Z</time></trkpt><trkpt lat="42.1969467" lon="11.8809083"><ele>152.0</ele><time>2026-04-19T08:22:29.604Z</time></trkpt><trkpt lat="42.196955" lon="11.881"><ele>152.5</ele><time>2026-04-19T08:22:30.604Z</time></trkpt><trkpt lat="42.1969583" lon="11.8811"><ele>153.0</ele><time>2026-04-19T08:22:31.604Z</time></trkpt><trkpt lat="42.1969533" lon="11.8812117"><ele>154.0</ele><time>2026-04-19T08:22:32.604Z</time></trkpt><trkpt lat="42.1969433" lon="11.8813317"><ele>155.0</ele><time>2026-04-19T08:22:33.604Z</time></trkpt><trkpt lat="42.196945" lon="11.881455"><ele>156.0</ele><time>2026-04-19T08:22:34.604Z</time></trkpt><trkpt lat="42.19695" lon="11.8816017"><ele>157.0</ele><time>2026-04-19T08:22:35.604Z</time></trkpt><trkpt lat="42.196955" lon="11.8817683"><ele>158.0</ele><time>2026-04-19T08:22:36.604Z</time></trkpt><trkpt lat="42.1969467" lon="11.8819217"><ele>158.66666666666666</ele><time>2026-04-19T08:22:37.604Z</time></trkpt><trkpt lat="42.1969417" lon="11.8820417"><ele>159.33333333333331</ele><time>2026-04-19T08:22:38.604Z</time></trkpt><trkpt lat="42.1969333" lon="11.8821433"><ele>160.0</ele><time>2026-04-19T08:22:39.604Z</time></trkpt><trkpt lat="42.1969467" lon="11.88229"><ele>160.66666666666666</ele><time>2026-04-19T08:22:41.604Z</time></trkpt><trkpt lat="42.196985" lon="11.882385"><ele>161.33333333333334</ele><time>2026-04-19T08:22:43.604Z</time></trkpt><trkpt lat="42.1970267" lon="11.8824517"><ele>162.0</ele><time>2026-04-19T08:22:45.604Z</time></trkpt><trkpt lat="42.1970967" lon="11.882525"><ele>162.25</ele><time>2026-04-19T08:22:47.604Z</time></trkpt><trkpt lat="42.1971817" lon="11.8826767"><ele>162.5</ele><time>2026-04-19T08:22:49.604Z</time></trkpt><trkpt lat="42.1972367" lon="11.8828317"><ele>162.75</ele><time>2026-04-19T08:22:50.604Z</time></trkpt><trkpt lat="42.1972983" lon="11.8830233"><ele>163.0</ele><time>2026-04-19T08:22:51.604Z</time></trkpt><trkpt lat="42.1973483" lon="11.8832167"><ele>163.0</ele><time>2026-04-19T08:22:52.604Z</time></trkpt><trkpt lat="42.197395" lon="11.8833767"><ele>163.0</ele><time>2026-04-19T08:22:53.604Z</time></trkpt><trkpt lat="42.1974517" lon="11.8835183"><ele>163.0</ele><time>2026-04-19T08:22:54.604Z</time></trkpt><trkpt lat="42.197505" lon="11.8836667"><ele>163.0</ele><time>2026-04-19T08:22:55.604Z</time></trkpt><trkpt lat="42.1975767" lon="11.8838017"><ele>164.25</ele><time>2026-04-19T08:22:56.604Z</time></trkpt><trkpt lat="42.1976633" lon="11.8839433"><ele>165.5</ele><time>2026-04-19T08:22:57.604Z</time></trkpt><trkpt lat="42.1977567" lon="11.884065"><ele>166.75</ele><time>2026-04-19T08:22:58.604Z</time></trkpt><trkpt lat="42.1978283" lon="11.88415"><ele>168.0</ele><time>2026-04-19T08:22:59.604Z</time></trkpt><trkpt lat="42.1979033" lon="11.88422"><ele>168.0</ele><time>2026-04-19T08:23:00.604Z</time></trkpt><trkpt lat="42.1979967" lon="11.8842683"><ele>168.0</ele><time>2026-04-19T08:23:01.604Z</time></trkpt><trkpt lat="42.1980867" lon="11.8842917"><ele>168.0</ele><time>2026-04-19T08:23:02.604Z</time></trkpt><trkpt lat="42.1981733" lon="11.884315"><ele>168.0</ele><time>2026-04-19T08:23:03.604Z</time></trkpt><trkpt lat="42.1982633" lon="11.8843333"><ele>168.0</ele><time>2026-04-19T08:23:04.604Z</time></trkpt><trkpt lat="42.1983367" lon="11.88436"><ele>168.0</ele><time>2026-04-19T08:23:05.604Z</time></trkpt><trkpt lat="42.198395" lon="11.884395"><ele>168.0</ele><time>2026-04-19T08:23:06.604Z</time></trkpt><trkpt lat="42.1984583" lon="11.8844483"><ele>168.0</ele><time>2026-04-19T08:23:07.604Z</time></trkpt><trkpt lat="42.1985183" lon="11.8845183"><ele>168.0</ele><time>2026-04-19T08:23:08.604Z</time></trkpt><trkpt lat="42.1985867" lon="11.884605"><ele>168.0</ele><time>2026-04-19T08:23:09.604Z</time></trkpt><trkpt lat="42.198645" lon="11.8847033"><ele>168.0</ele><time>2026-04-19T08:23:10.605Z</time></trkpt><trkpt lat="42.1986933" lon="11.8847833"><ele>168.0</ele><time>2026-04-19T08:23:11.604Z</time></trkpt><trkpt lat="42.1987683" lon="11.8849033"><ele>168.0</ele><time>2026-04-19T08:23:13.604Z</time></trkpt><trkpt lat="42.19884" lon="11.8850117"><ele>168.0</ele><time>2026-04-19T08:23:15.604Z</time></trkpt><trkpt lat="42.19891" lon="11.8851317"><ele>168.0</ele><time>2026-04-19T08:23:17.604Z</time></trkpt><trkpt lat="42.1989933" lon="11.8852467"><ele>168.0</ele><time>2026-04-19T08:23:19.605Z</time></trkpt><trkpt lat="42.1990833" lon="11.8853783"><ele>166.4</ele><time>2026-04-19T08:23:21.605Z</time></trkpt><trkpt lat="42.1991233" lon="11.88545"><ele>164.8</ele><time>2026-04-19T08:23:22.605Z</time></trkpt><trkpt lat="42.1991733" lon="11.8855767"><ele>163.2</ele><time>2026-04-19T08:23:24.604Z</time></trkpt><trkpt lat="42.1992383" lon="11.8856867"><ele>161.6</ele><time>2026-04-19T08:23:26.604Z</time></trkpt><trkpt lat="42.1992833" lon="11.8857683"><ele>160.0</ele><time>2026-04-19T08:23:27.605Z</time></trkpt><trkpt lat="42.199355" lon="11.8858867"><ele>160.6</ele><time>2026-04-19T08:23:28.604Z</time></trkpt><trkpt lat="42.199445" lon="11.8860183"><ele>161.2</ele><time>2026-04-19T08:23:29.604Z</time></trkpt><trkpt lat="42.1995167" lon="11.8861183"><ele>161.8</ele><time>2026-04-19T08:23:30.604Z</time></trkpt><trkpt lat="42.199585" lon="11.886185"><ele>162.4</ele><time>2026-04-19T08:23:31.604Z</time></trkpt><trkpt lat="42.19966" lon="11.8862467"><ele>163.0</ele><time>2026-04-19T08:23:32.605Z</time></trkpt><trkpt lat="42.199745" lon="11.8862967"><ele>163.0</ele><time>2026-04-19T08:23:33.604Z</time></trkpt><trkpt lat="42.19983" lon="11.8863383"><ele>163.0</ele><time>2026-04-19T08:23:34.604Z</time></trkpt><trkpt lat="42.199925" lon="11.8863967"><ele>163.0</ele><time>2026-04-19T08:23:35.605Z</time></trkpt><trkpt lat="42.2000083" lon="11.8864467"><ele>163.0</ele><time>2026-04-19T08:23:36.604Z</time></trkpt><trkpt lat="42.20008" lon="11.8864783"><ele>163.0</ele><time>2026-04-19T08:23:37.604Z</time></trkpt><trkpt lat="42.20015" lon="11.8864983"><ele>163.0</ele><time>2026-04-19T08:23:38.604Z</time></trkpt><trkpt lat="42.20025" lon="11.8865667"><ele>163.4</ele><time>2026-04-19T08:23:40.604Z</time></trkpt><trkpt lat="42.200305" lon="11.8866333"><ele>163.8</ele><time>2026-04-19T08:23:41.605Z</time></trkpt><trkpt lat="42.20037" lon="11.8867567"><ele>164.2</ele><time>2026-04-19T08:23:42.604Z</time></trkpt><trkpt lat="42.20044" lon="11.8869033"><ele>164.6</ele><time>2026-04-19T08:23:43.605Z</time></trkpt><trkpt lat="42.2005083" lon="11.8870533"><ele>165.0</ele><time>2026-04-19T08:23:44.604Z</time></trkpt><trkpt lat="42.2005817" lon="11.88719"><ele>165.0</ele><time>2026-04-19T08:23:45.604Z</time></trkpt><trkpt lat="42.20064" lon="11.8873183"><ele>165.0</ele><time>2026-04-19T08:23:46.604Z</time></trkpt><trkpt lat="42.2006933" lon="11.8874417"><ele>165.0</ele><time>2026-04-19T08:23:47.604Z</time></trkpt><trkpt lat="42.200755" lon="11.8875567"><ele>165.0</ele><time>2026-04-19T08:23:48.604Z</time></trkpt><trkpt lat="42.2008267" lon="11.8876633"><ele>165.0</ele><time>2026-04-19T08:23:49.604Z</time></trkpt><trkpt lat="42.2009083" lon="11.887755"><ele>163.5</ele><time>2026-04-19T08:23:50.604Z</time></trkpt><trkpt lat="42.2009767" lon="11.88783"><ele>162.0</ele><time>2026-04-19T08:23:51.604Z</time></trkpt><trkpt lat="42.2010467" lon="11.8879067"><ele>160.5</ele><time>2026-04-19T08:23:52.604Z</time></trkpt><trkpt lat="42.2010917" lon="11.888"><ele>159.0</ele><time>2026-04-19T08:23:53.604Z</time></trkpt><trkpt lat="42.2011083" lon="11.888105"><ele>157.5</ele><time>2026-04-19T08:23:54.604Z</time></trkpt><trkpt lat="42.2011" lon="11.8882333"><ele>156.0</ele><time>2026-04-19T08:23:55.604Z</time></trkpt><trkpt lat="42.2010833" lon="11.88836"><ele>156.6</ele><time>2026-04-19T08:23:56.604Z</time></trkpt><trkpt lat="42.201065" lon="11.8884933"><ele>157.2</ele><time>2026-04-19T08:23:57.604Z</time></trkpt><trkpt lat="42.2010717" lon="11.8886417"><ele>157.8</ele><time>2026-04-19T08:23:58.604Z</time></trkpt><trkpt lat="42.2011017" lon="11.888795"><ele>158.4</ele><time>2026-04-19T08:23:59.604Z</time></trkpt><trkpt lat="42.20115" lon="11.88894"><ele>159.0</ele><time>2026-04-19T08:24:00.604Z</time></trkpt><trkpt lat="42.2011767" lon="11.889065"><ele>159.0</ele><time>2026-04-19T08:24:01.604Z</time></trkpt><trkpt lat="42.2011933" lon="11.8892"><ele>159.0</ele><time>2026-04-19T08:24:02.604Z</time></trkpt><trkpt lat="42.2012067" lon="11.889345"><ele>159.0</ele><time>2026-04-19T08:24:03.604Z</time></trkpt><trkpt lat="42.2012133" lon="11.8894783"><ele>159.0</ele><time>2026-04-19T08:24:04.604Z</time></trkpt><trkpt lat="42.2012283" lon="11.8896067"><ele>159.0</ele><time>2026-04-19T08:24:05.604Z</time></trkpt><trkpt lat="42.2012483" lon="11.8897133"><ele>160.33333333333334</ele><time>2026-04-19T08:24:06.604Z</time></trkpt><trkpt lat="42.201265" lon="11.8898133"><ele>161.66666666666666</ele><time>2026-04-19T08:24:07.604Z</time></trkpt><trkpt lat="42.2012833" lon="11.8899067"><ele>163.0</ele><time>2026-04-19T08:24:08.604Z</time></trkpt><trkpt lat="42.2013133" lon="11.890005"><ele>164.33333333333331</ele><time>2026-04-19T08:24:09.604Z</time></trkpt><trkpt lat="42.20137" lon="11.8901033"><ele>165.66666666666666</ele><time>2026-04-19T08:24:10.605Z</time></trkpt><trkpt lat="42.2014467" lon="11.89019"><ele>167.0</ele><time>2026-04-19T08:24:11.604Z</time></trkpt><trkpt lat="42.2015567" lon="11.8902617"><ele>167.25</ele><time>2026-04-19T08:24:12.604Z</time></trkpt><trkpt lat="42.2016833" lon="11.8903033"><ele>167.5</ele><time>2026-04-19T08:24:13.604Z</time></trkpt><trkpt lat="42.201815" lon="11.8903583"><ele>167.75</ele><time>2026-04-19T08:24:14.604Z</time></trkpt><trkpt lat="42.2019333" lon="11.890415"><ele>168.0</ele><time>2026-04-19T08:24:15.604Z</time></trkpt><trkpt lat="42.2020317" lon="11.8904917"><ele>168.0</ele><time>2026-04-19T08:24:16.605Z</time></trkpt><trkpt lat="42.2021333" lon="11.8905817"><ele>168.0</ele><time>2026-04-19T08:24:17.604Z</time></trkpt><trkpt lat="42.202215" lon="11.890685"><ele>168.0</ele><time>2026-04-19T08:24:18.604Z</time></trkpt><trkpt lat="42.2023017" lon="11.89081"><ele>168.0</ele><time>2026-04-19T08:24:19.604Z</time></trkpt><trkpt lat="42.202375" lon="11.8909133"><ele>169.25</ele><time>2026-04-19T08:24:20.605Z</time></trkpt><trkpt lat="42.2024533" lon="11.8910217"><ele>170.5</ele><time>2026-04-19T08:24:21.604Z</time></trkpt><trkpt lat="42.20253" lon="11.8911467"><ele>171.75</ele><time>2026-04-19T08:24:22.605Z</time></trkpt><trkpt lat="42.202605" lon="11.8912783"><ele>173.0</ele><time>2026-04-19T08:24:23.604Z</time></trkpt><trkpt lat="42.202655" lon="11.891405"><ele>173.0</ele><time>2026-04-19T08:24:24.604Z</time></trkpt><trkpt lat="42.2027133" lon="11.891575"><ele>173.0</ele><time>2026-04-19T08:24:25.604Z</time></trkpt><trkpt lat="42.2027472" lon="11.8917188"><ele>173.0</ele><time>2026-04-19T08:24:26.604Z</time></trkpt><trkpt lat="42.202757" lon="11.8918734"><ele>173.0</ele><time>2026-04-19T08:24:27.605Z</time></trkpt><trkpt lat="42.202764" lon="11.8920428"><ele>173.75</ele><time>2026-04-19T08:24:28.604Z</time></trkpt><trkpt lat="42.2027636" lon="11.8922199"><ele>174.5</ele><time>2026-04-19T08:24:29.604Z</time></trkpt><trkpt lat="42.2027529" lon="11.8923908"><ele>175.25</ele><time>2026-04-19T08:24:30.604Z</time></trkpt><trkpt lat="42.2027412" lon="11.8925436"><ele>176.0</ele><time>2026-04-19T08:24:31.604Z</time></trkpt><trkpt lat="42.2027212" lon="11.8926858"><ele>176.0</ele><time>2026-04-19T08:24:32.604Z</time></trkpt><trkpt lat="42.2027004" lon="11.8928166"><ele>176.0</ele><time>2026-04-19T08:24:33.605Z</time></trkpt><trkpt lat="42.2026844" lon="11.8929644"><ele>176.0</ele><time>2026-04-19T08:24:34.604Z</time></trkpt><trkpt lat="42.2026733" lon="11.8931357"><ele>176.0</ele><time>2026-04-19T08:24:35.604Z</time></trkpt><trkpt lat="42.2026708" lon="11.8933343"><ele>176.66666666666666</ele><time>2026-04-19T08:24:36.604Z</time></trkpt><trkpt lat="42.2026906" lon="11.8935807"><ele>177.33333333333334</ele><time>2026-04-19T08:24:37.604Z</time></trkpt><trkpt lat="42.2027135" lon="11.893824"><ele>178.0</ele><time>2026-04-19T08:24:38.604Z</time></trkpt><trkpt lat="42.2027316" lon="11.8940417"><ele>178.0</ele><time>2026-04-19T08:24:39.604Z</time></trkpt><trkpt lat="42.2027419" lon="11.8942281"><ele>178.0</ele><time>2026-04-19T08:24:40.604Z</time></trkpt><trkpt lat="42.2027544" lon="11.8943915"><ele>178.0</ele><time>2026-04-19T08:24:41.604Z</time></trkpt><trkpt lat="42.2027603" lon="11.8945504"><ele>178.0</ele><time>2026-04-19T08:24:42.605Z</time></trkpt><trkpt lat="42.2027567" lon="11.8947038"><ele>178.0</ele><time>2026-04-19T08:24:43.604Z</time></trkpt><trkpt lat="42.2027527" lon="11.8948437"><ele>178.0</ele><time>2026-04-19T08:24:44.604Z</time></trkpt><trkpt lat="42.2027529" lon="11.8949584"><ele>178.0</ele><time>2026-04-19T08:24:45.604Z</time></trkpt><trkpt lat="42.2027291" lon="11.8951008"><ele>178.0</ele><time>2026-04-19T08:24:47.604Z</time></trkpt><trkpt lat="42.2026272" lon="11.8951726"><ele>178.0</ele><time>2026-04-19T08:24:49.604Z</time></trkpt><trkpt lat="42.2025339" lon="11.8951945"><ele>178.0</ele><time>2026-04-19T08:24:50.604Z</time></trkpt><trkpt lat="42.2024171" lon="11.8952095"><ele>178.0</ele><time>2026-04-19T08:24:51.604Z</time></trkpt><trkpt lat="42.2022886" lon="11.8952411"><ele>178.0</ele><time>2026-04-19T08:24:52.605Z</time></trkpt><trkpt lat="42.2021653" lon="11.8952984"><ele>178.0</ele><time>2026-04-19T08:24:53.604Z</time></trkpt><trkpt lat="42.2020379" lon="11.8953601"><ele>180.5</ele><time>2026-04-19T08:24:54.604Z</time></trkpt><trkpt lat="42.2019091" lon="11.8954168"><ele>183.0</ele><time>2026-04-19T08:24:55.604Z</time></trkpt><trkpt lat="42.2017964" lon="11.8954476"><ele>185.5</ele><time>2026-04-19T08:24:56.605Z</time></trkpt><trkpt lat="42.2016908" lon="11.895454"><ele>188.0</ele><time>2026-04-19T08:24:57.604Z</time></trkpt><trkpt lat="42.2015893" lon="11.8954574"><ele>188.0</ele><time>2026-04-19T08:24:58.604Z</time></trkpt><trkpt lat="42.201505" lon="11.8954383"><ele>188.0</ele><time>2026-04-19T08:24:59.604Z</time></trkpt><trkpt lat="42.2014283" lon="11.895415"><ele>188.0</ele><time>2026-04-19T08:25:00.604Z</time></trkpt><trkpt lat="42.2013533" lon="11.8953783"><ele>188.0</ele><time>2026-04-19T08:25:01.605Z</time></trkpt><trkpt lat="42.2012667" lon="11.8953183"><ele>188.0</ele><time>2026-04-19T08:25:02.604Z</time></trkpt><trkpt lat="42.2011783" lon="11.8952517"><ele>188.0</ele><time>2026-04-19T08:25:03.604Z</time></trkpt><trkpt lat="42.201095" lon="11.895185"><ele>189.83333333333331</ele><time>2026-04-19T08:25:04.604Z</time></trkpt><trkpt lat="42.2010167" lon="11.895115"><ele>191.66666666666666</ele><time>2026-04-19T08:25:05.604Z</time></trkpt><trkpt lat="42.2009233" lon="11.89506"><ele>193.5</ele><time>2026-04-19T08:25:06.604Z</time></trkpt><trkpt lat="42.2008433" lon="11.8950067"><ele>195.33333333333331</ele><time>2026-04-19T08:25:07.604Z</time></trkpt><trkpt lat="42.200775" lon="11.8949883"><ele>197.16666666666666</ele><time>2026-04-19T08:25:08.605Z</time></trkpt><trkpt lat="42.2007083" lon="11.8950033"><ele>199.0</ele><time>2026-04-19T08:25:09.604Z</time></trkpt><trkpt lat="42.20059" lon="11.895105"><ele>201.6</ele><time>2026-04-19T08:25:11.605Z</time></trkpt><trkpt lat="42.200535" lon="11.895185"><ele>204.2</ele><time>2026-04-19T08:25:12.604Z</time></trkpt><trkpt lat="42.2004867" lon="11.8952833"><ele>206.79999999999998</ele><time>2026-04-19T08:25:13.604Z</time></trkpt><trkpt lat="42.2004283" lon="11.8953933"><ele>209.39999999999998</ele><time>2026-04-19T08:25:14.604Z</time></trkpt><trkpt lat="42.2003567" lon="11.8955067"><ele>212.0</ele><time>2026-04-19T08:25:15.604Z</time></trkpt><trkpt lat="42.20028" lon="11.8956183"><ele>212.0</ele><time>2026-04-19T08:25:16.604Z</time></trkpt><trkpt lat="42.2002" lon="11.8957467"><ele>212.0</ele><time>2026-04-19T08:25:17.605Z</time></trkpt><trkpt lat="42.2001183" lon="11.89588"><ele>212.0</ele><time>2026-04-19T08:25:18.604Z</time></trkpt><trkpt lat="42.2000367" lon="11.8960133"><ele>212.0</ele><time>2026-04-19T08:25:19.604Z</time></trkpt><trkpt lat="42.19996" lon="11.8961517"><ele>211.5</ele><time>2026-04-19T08:25:20.605Z</time></trkpt><trkpt lat="42.1998833" lon="11.8963033"><ele>211.0</ele><time>2026-04-19T08:25:21.604Z</time></trkpt><trkpt lat="42.1998017" lon="11.8964483"><ele>210.5</ele><time>2026-04-19T08:25:22.604Z</time></trkpt><trkpt lat="42.1997183" lon="11.8965933"><ele>210.0</ele><time>2026-04-19T08:25:23.604Z</time></trkpt><trkpt lat="42.1996417" lon="11.8967467"><ele>214.25</ele><time>2026-04-19T08:25:24.604Z</time></trkpt><trkpt lat="42.1995683" lon="11.8969117"><ele>218.5</ele><time>2026-04-19T08:25:25.604Z</time></trkpt><trkpt lat="42.1995017" lon="11.89707"><ele>222.75</ele><time>2026-04-19T08:25:26.604Z</time></trkpt><trkpt lat="42.1994367" lon="11.8972267"><ele>227.0</ele><time>2026-04-19T08:25:27.604Z</time></trkpt><trkpt lat="42.1993717" lon="11.8973883"><ele>227.0</ele><time>2026-04-19T08:25:28.604Z</time></trkpt><trkpt lat="42.1993067" lon="11.89755"><ele>227.0</ele><time>2026-04-19T08:25:29.604Z</time></trkpt><trkpt lat="42.1992417" lon="11.8977217"><ele>227.0</ele><time>2026-04-19T08:25:30.604Z</time></trkpt><trkpt lat="42.1991767" lon="11.8978633"><ele>227.0</ele><time>2026-04-19T08:25:31.604Z</time></trkpt><trkpt lat="42.19911" lon="11.8980167"><ele>227.5</ele><time>2026-04-19T08:25:32.605Z</time></trkpt><trkpt lat="42.19905" lon="11.8981633"><ele>228.0</ele><time>2026-04-19T08:25:33.605Z</time></trkpt><trkpt lat="42.19898" lon="11.8983033"><ele>228.5</ele><time>2026-04-19T08:25:34.605Z</time></trkpt><trkpt lat="42.1989" lon="11.8984433"><ele>229.0</ele><time>2026-04-19T08:25:35.604Z</time></trkpt><trkpt lat="42.1988233" lon="11.898585"><ele>236.75</ele><time>2026-04-19T08:25:36.604Z</time></trkpt><trkpt lat="42.19877" lon="11.898735"><ele>244.5</ele><time>2026-04-19T08:25:37.604Z</time></trkpt><trkpt lat="42.1987367" lon="11.898885"><ele>252.25</ele><time>2026-04-19T08:25:38.604Z</time></trkpt><trkpt lat="42.1987267" lon="11.8990467"><ele>260.0</ele><time>2026-04-19T08:25:39.604Z</time></trkpt><trkpt lat="42.1987383" lon="11.8992"><ele>260.0</ele><time>2026-04-19T08:25:40.604Z</time></trkpt><trkpt lat="42.19875" lon="11.8993683"><ele>260.0</ele><time>2026-04-19T08:25:41.604Z</time></trkpt><trkpt lat="42.1987367" lon="11.89952"><ele>260.0</ele><time>2026-04-19T08:25:42.604Z</time></trkpt><trkpt lat="42.1987083" lon="11.8996667"><ele>260.0</ele><time>2026-04-19T08:25:43.604Z</time></trkpt><trkpt lat="42.1986783" lon="11.8998217"><ele>260.0</ele><time>2026-04-19T08:25:44.604Z</time></trkpt><trkpt lat="42.1986483" lon="11.8999617"><ele>260.0</ele><time>2026-04-19T08:25:45.604Z</time></trkpt><trkpt lat="42.1986167" lon="11.9000467"><ele>260.0</ele><time>2026-04-19T08:25:46.604Z</time></trkpt><trkpt lat="42.1985483" lon="11.9000817"><ele>260.0</ele><time>2026-04-19T08:25:48.605Z</time></trkpt><trkpt lat="42.1984783" lon="11.9000067"><ele>260.0</ele><time>2026-04-19T08:25:50.604Z</time></trkpt><trkpt lat="42.1984367" lon="11.8999233"><ele>260.0</ele><time>2026-04-19T08:25:51.604Z</time></trkpt><trkpt lat="42.1984067" lon="11.8997967"><ele>260.0</ele><time>2026-04-19T08:25:52.603Z</time></trkpt><trkpt lat="42.1983733" lon="11.8996483"><ele>260.0</ele><time>2026-04-19T08:25:53.603Z</time></trkpt><trkpt lat="42.1983367" lon="11.8994783"><ele>260.0</ele><time>2026-04-19T08:25:54.604Z</time></trkpt><trkpt lat="42.1983033" lon="11.8993017"><ele>260.0</ele><time>2026-04-19T08:25:55.603Z</time></trkpt><trkpt lat="42.1982633" lon="11.89912"><ele>260.0</ele><time>2026-04-19T08:25:56.603Z</time></trkpt><trkpt lat="42.1982167" lon="11.8989333"><ele>260.0</ele><time>2026-04-19T08:25:57.603Z</time></trkpt><trkpt lat="42.19817" lon="11.8987567"><ele>260.0</ele><time>2026-04-19T08:25:58.603Z</time></trkpt><trkpt lat="42.19811" lon="11.8985883"><ele>260.0</ele><time>2026-04-19T08:25:59.603Z</time></trkpt><trkpt lat="42.19804" lon="11.8984133"><ele>267.0</ele><time>2026-04-19T08:26:00.603Z</time></trkpt><trkpt lat="42.1979633" lon="11.898225"><ele>274.0</ele><time>2026-04-19T08:26:01.603Z</time></trkpt><trkpt lat="42.1978833" lon="11.898025"><ele>281.0</ele><time>2026-04-19T08:26:02.603Z</time></trkpt><trkpt lat="42.1978133" lon="11.8978367"><ele>281.0</ele><time>2026-04-19T08:26:03.603Z</time></trkpt><trkpt lat="42.1977333" lon="11.897665"><ele>281.0</ele><time>2026-04-19T08:26:04.603Z</time></trkpt><trkpt lat="42.197665" lon="11.89748"><ele>281.0</ele><time>2026-04-19T08:26:05.603Z</time></trkpt><trkpt lat="42.1976033" lon="11.897285"><ele>280.0</ele><time>2026-04-19T08:26:06.604Z</time></trkpt><trkpt lat="42.197545" lon="11.8971"><ele>279.0</ele><time>2026-04-19T08:26:07.603Z</time></trkpt><trkpt lat="42.19749" lon="11.896915"><ele>278.0</ele><time>2026-04-19T08:26:08.603Z</time></trkpt><trkpt lat="42.1974383" lon="11.8967283"><ele>277.0</ele><time>2026-04-19T08:26:09.603Z</time></trkpt><trkpt lat="42.1973883" lon="11.8965633"><ele>279.66666666666663</ele><time>2026-04-19T08:26:10.603Z</time></trkpt><trkpt lat="42.1973267" lon="11.896425"><ele>282.3333333333333</ele><time>2026-04-19T08:26:11.603Z</time></trkpt><trkpt lat="42.1972617" lon="11.89633"><ele>285.0</ele><time>2026-04-19T08:26:12.604Z</time></trkpt><trkpt lat="42.197205" lon="11.8962683"><ele>287.6666666666667</ele><time>2026-04-19T08:26:13.604Z</time></trkpt><trkpt lat="42.1971383" lon="11.8962117"><ele>290.33333333333337</ele><time>2026-04-19T08:26:14.603Z</time></trkpt><trkpt lat="42.1970717" lon="11.896155"><ele>293.0</ele><time>2026-04-19T08:26:15.604Z</time></trkpt><trkpt lat="42.197005" lon="11.8960917"><ele>293.0</ele><time>2026-04-19T08:26:16.603Z</time></trkpt><trkpt lat="42.1969317" lon="11.89604"><ele>293.0</ele><time>2026-04-19T08:26:17.603Z</time></trkpt><trkpt lat="42.1968583" lon="11.895995"><ele>293.0</ele><time>2026-04-19T08:26:18.604Z</time></trkpt><trkpt lat="42.19678" lon="11.8959733"><ele>293.0</ele><time>2026-04-19T08:26:19.603Z</time></trkpt><trkpt lat="42.19669" lon="11.8959783"><ele>293.0</ele><time>2026-04-19T08:26:20.603Z</time></trkpt><trkpt lat="42.1966" lon="11.8959933"><ele>293.0</ele><time>2026-04-19T08:26:21.604Z</time></trkpt><trkpt lat="42.196515" lon="11.896015"><ele>293.8</ele><time>2026-04-19T08:26:22.603Z</time></trkpt><trkpt lat="42.1964183" lon="11.896075"><ele>294.6</ele><time>2026-04-19T08:26:23.604Z</time></trkpt><trkpt lat="42.196325" lon="11.8961517"><ele>295.4</ele><time>2026-04-19T08:26:24.603Z</time></trkpt><trkpt lat="42.1962367" lon="11.8962467"><ele>296.2</ele><time>2026-04-19T08:26:25.603Z</time></trkpt><trkpt lat="42.1961667" lon="11.89634"><ele>297.0</ele><time>2026-04-19T08:26:26.603Z</time></trkpt><trkpt lat="42.1961" lon="11.89643"><ele>297.0</ele><time>2026-04-19T08:26:27.603Z</time></trkpt><trkpt lat="42.19603" lon="11.8965067"><ele>297.0</ele><time>2026-04-19T08:26:28.603Z</time></trkpt><trkpt lat="42.1959583" lon="11.896575"><ele>297.0</ele><time>2026-04-19T08:26:29.603Z</time></trkpt><trkpt lat="42.1958667" lon="11.8966367"><ele>297.0</ele><time>2026-04-19T08:26:30.603Z</time></trkpt><trkpt lat="42.1957717" lon="11.8967017"><ele>297.0</ele><time>2026-04-19T08:26:31.603Z</time></trkpt><trkpt lat="42.195665" lon="11.8967683"><ele>302.4</ele><time>2026-04-19T08:26:32.604Z</time></trkpt><trkpt lat="42.1955617" lon="11.8968183"><ele>307.79999999999995</ele><time>2026-04-19T08:26:33.603Z</time></trkpt><trkpt lat="42.19547" lon="11.8968583"><ele>313.2</ele><time>2026-04-19T08:26:34.603Z</time></trkpt><trkpt lat="42.195395" lon="11.8968783"><ele>318.59999999999997</ele><time>2026-04-19T08:26:35.603Z</time></trkpt><trkpt lat="42.1953233" lon="11.8968933"><ele>324.0</ele><time>2026-04-19T08:26:36.603Z</time></trkpt><trkpt lat="42.1952133" lon="11.89688"><ele>324.0</ele><time>2026-04-19T08:26:38.603Z</time></trkpt><trkpt lat="42.19515" lon="11.8968767"><ele>324.0</ele><time>2026-04-19T08:26:39.604Z</time></trkpt><trkpt lat="42.195035" lon="11.896895"><ele>324.0</ele><time>2026-04-19T08:26:41.603Z</time></trkpt><trkpt lat="42.1949217" lon="11.896905"><ele>324.0</ele><time>2026-04-19T08:26:43.603Z</time></trkpt><trkpt lat="42.1948133" lon="11.8969167"><ele>324.0</ele><time>2026-04-19T08:26:45.603Z</time></trkpt><trkpt lat="42.194695" lon="11.89693"><ele>324.8333333333333</ele><time>2026-04-19T08:26:47.603Z</time></trkpt><trkpt lat="42.1946317" lon="11.8969467"><ele>325.6666666666667</ele><time>2026-04-19T08:26:48.603Z</time></trkpt><trkpt lat="42.1945567" lon="11.8969683"><ele>326.5</ele><time>2026-04-19T08:26:49.604Z</time></trkpt><trkpt lat="42.194475" lon="11.8969883"><ele>327.33333333333337</ele><time>2026-04-19T08:26:50.603Z</time></trkpt><trkpt lat="42.1943933" lon="11.8970117"><ele>328.1666666666667</ele><time>2026-04-19T08:26:51.604Z</time></trkpt><trkpt lat="42.19431" lon="11.8970317"><ele>329.0</ele><time>2026-04-19T08:26:52.603Z</time></trkpt><trkpt lat="42.1942267" lon="11.8970633"><ele>329.0</ele><time>2026-04-19T08:26:53.603Z</time></trkpt><trkpt lat="42.1941533" lon="11.8971067"><ele>329.0</ele><time>2026-04-19T08:26:54.603Z</time></trkpt><trkpt lat="42.19408" lon="11.8971383"><ele>329.0</ele><time>2026-04-19T08:26:55.603Z</time></trkpt><trkpt lat="42.194" lon="11.89717"><ele>329.0</ele><time>2026-04-19T08:26:56.604Z</time></trkpt><trkpt lat="42.1939117" lon="11.8972083"><ele>329.0</ele><time>2026-04-19T08:26:57.604Z</time></trkpt><trkpt lat="42.1938217" lon="11.8972617"><ele>329.0</ele><time>2026-04-19T08:26:58.603Z</time></trkpt><trkpt lat="42.193735" lon="11.8973117"><ele>328.6666666666667</ele><time>2026-04-19T08:26:59.604Z</time></trkpt><trkpt lat="42.1936533" lon="11.8973617"><ele>328.33333333333337</ele><time>2026-04-19T08:27:00.603Z</time></trkpt><trkpt lat="42.1935817" lon="11.897425"><ele>328.0</ele><time>2026-04-19T08:27:01.603Z</time></trkpt><trkpt lat="42.1934983" lon="11.8974817"><ele>327.6666666666667</ele><time>2026-04-19T08:27:02.604Z</time></trkpt><trkpt lat="42.1934133" lon="11.8975283"><ele>327.3333333333333</ele><time>2026-04-19T08:27:03.603Z</time></trkpt><trkpt lat="42.193335" lon="11.8975583"><ele>327.0</ele><time>2026-04-19T08:27:04.603Z</time></trkpt><trkpt lat="42.1932633" lon="11.8975783"><ele>327.8333333333333</ele><time>2026-04-19T08:27:05.603Z</time></trkpt><trkpt lat="42.1931933" lon="11.89759"><ele>328.6666666666667</ele><time>2026-04-19T08:27:06.604Z</time></trkpt><trkpt lat="42.193125" lon="11.8975917"><ele>329.5</ele><time>2026-04-19T08:27:07.603Z</time></trkpt><trkpt lat="42.19305" lon="11.8975733"><ele>330.33333333333337</ele><time>2026-04-19T08:27:08.603Z</time></trkpt><trkpt lat="42.1929683" lon="11.8975533"><ele>331.1666666666667</ele><time>2026-04-19T08:27:09.604Z</time></trkpt><trkpt lat="42.1928833" lon="11.8975167"><ele>332.0</ele><time>2026-04-19T08:27:10.603Z</time></trkpt><trkpt lat="42.1927983" lon="11.89748"><ele>332.0</ele><time>2026-04-19T08:27:11.603Z</time></trkpt><trkpt lat="42.1927083" lon="11.8974317"><ele>332.0</ele><time>2026-04-19T08:27:12.603Z</time></trkpt><trkpt lat="42.19262" lon="11.8973933"><ele>332.0</ele><time>2026-04-19T08:27:13.604Z</time></trkpt><trkpt lat="42.19253" lon="11.8973667"><ele>332.0</ele><time>2026-04-19T08:27:14.603Z</time></trkpt><trkpt lat="42.1924517" lon="11.8973567"><ele>332.0</ele><time>2026-04-19T08:27:15.603Z</time></trkpt><trkpt lat="42.19238" lon="11.897365"><ele>332.0</ele><time>2026-04-19T08:27:16.603Z</time></trkpt><trkpt lat="42.19231" lon="11.897405"><ele>332.33333333333337</ele><time>2026-04-19T08:27:17.603Z</time></trkpt><trkpt lat="42.19225" lon="11.8974717"><ele>332.6666666666667</ele><time>2026-04-19T08:27:18.603Z</time></trkpt><trkpt lat="42.1921967" lon="11.897555"><ele>333.0</ele><time>2026-04-19T08:27:19.603Z</time></trkpt><trkpt lat="42.19215" lon="11.8976483"><ele>333.3333333333333</ele><time>2026-04-19T08:27:20.604Z</time></trkpt><trkpt lat="42.1921117" lon="11.8977417"><ele>333.66666666666663</ele><time>2026-04-19T08:27:21.603Z</time></trkpt><trkpt lat="42.1920783" lon="11.89783"><ele>334.0</ele><time>2026-04-19T08:27:22.604Z</time></trkpt><trkpt lat="42.1920467" lon="11.89792"><ele>334.0</ele><time>2026-04-19T08:27:23.603Z</time></trkpt><trkpt lat="42.192015" lon="11.89801"><ele>334.0</ele><time>2026-04-19T08:27:24.603Z</time></trkpt><trkpt lat="42.1919717" lon="11.898105"><ele>334.0</ele><time>2026-04-19T08:27:25.603Z</time></trkpt><trkpt lat="42.1919317" lon="11.898195"><ele>334.0</ele><time>2026-04-19T08:27:26.604Z</time></trkpt><trkpt lat="42.191895" lon="11.8982767"><ele>334.0</ele><time>2026-04-19T08:27:27.603Z</time></trkpt><trkpt lat="42.1918517" lon="11.8983567"><ele>334.0</ele><time>2026-04-19T08:27:28.603Z</time></trkpt><trkpt lat="42.1918083" lon="11.8984517"><ele>336.0</ele><time>2026-04-19T08:27:29.603Z</time></trkpt><trkpt lat="42.1917683" lon="11.8985433"><ele>338.0</ele><time>2026-04-19T08:27:30.603Z</time></trkpt><trkpt lat="42.1917267" lon="11.8986267"><ele>340.0</ele><time>2026-04-19T08:27:31.603Z</time></trkpt><trkpt lat="42.19168" lon="11.8987233"><ele>342.0</ele><time>2026-04-19T08:27:32.603Z</time></trkpt><trkpt lat="42.191635" lon="11.89882"><ele>344.0</ele><time>2026-04-19T08:27:33.603Z</time></trkpt><trkpt lat="42.1915883" lon="11.8989283"><ele>346.0</ele><time>2026-04-19T08:27:34.603Z</time></trkpt><trkpt lat="42.191535" lon="11.899045"><ele>343.8</ele><time>2026-04-19T08:27:35.603Z</time></trkpt><trkpt lat="42.1914767" lon="11.89916"><ele>341.6</ele><time>2026-04-19T08:27:36.603Z</time></trkpt><trkpt lat="42.19142" lon="11.899265"><ele>339.4</ele><time>2026-04-19T08:27:37.604Z</time></trkpt><trkpt lat="42.1913583" lon="11.8993783"><ele>337.2</ele><time>2026-04-19T08:27:38.603Z</time></trkpt><trkpt lat="42.1913033" lon="11.8994867"><ele>335.0</ele><time>2026-04-19T08:27:39.603Z</time></trkpt><trkpt lat="42.19126" lon="11.8996"><ele>335.0</ele><time>2026-04-19T08:27:40.603Z</time></trkpt><trkpt lat="42.1912133" lon="11.8997"><ele>335.0</ele><time>2026-04-19T08:27:41.604Z</time></trkpt><trkpt lat="42.191185" lon="11.8998083"><ele>335.0</ele><time>2026-04-19T08:27:42.603Z</time></trkpt><trkpt lat="42.19116" lon="11.899925"><ele>335.0</ele><time>2026-04-19T08:27:43.603Z</time></trkpt><trkpt lat="42.191145" lon="11.9000417"><ele>335.0</ele><time>2026-04-19T08:27:44.604Z</time></trkpt><trkpt lat="42.1911417" lon="11.9001817"><ele>334.8</ele><time>2026-04-19T08:27:45.604Z</time></trkpt><trkpt lat="42.19114" lon="11.9003217"><ele>334.6</ele><time>2026-04-19T08:27:46.603Z</time></trkpt><trkpt lat="42.191125" lon="11.9004617"><ele>334.4</ele><time>2026-04-19T08:27:47.603Z</time></trkpt><trkpt lat="42.1911167" lon="11.900595"><ele>334.2</ele><time>2026-04-19T08:27:48.603Z</time></trkpt><trkpt lat="42.1911133" lon="11.9007217"><ele>334.0</ele><time>2026-04-19T08:27:49.604Z</time></trkpt><trkpt lat="42.1911017" lon="11.9008483"><ele>334.8333333333333</ele><time>2026-04-19T08:27:50.603Z</time></trkpt><trkpt lat="42.19109" lon="11.9009617"><ele>335.66666666666663</ele><time>2026-04-19T08:27:51.604Z</time></trkpt><trkpt lat="42.1910717" lon="11.9010733"><ele>336.5</ele><time>2026-04-19T08:27:52.603Z</time></trkpt><trkpt lat="42.191055" lon="11.9011717"><ele>337.3333333333333</ele><time>2026-04-19T08:27:53.603Z</time></trkpt><trkpt lat="42.1910417" lon="11.901285"><ele>338.1666666666667</ele><time>2026-04-19T08:27:54.603Z</time></trkpt><trkpt lat="42.19102" lon="11.9013967"><ele>339.0</ele><time>2026-04-19T08:27:55.603Z</time></trkpt><trkpt lat="42.1909933" lon="11.9014833"><ele>339.0</ele><time>2026-04-19T08:27:56.603Z</time></trkpt><trkpt lat="42.190955" lon="11.9015683"><ele>339.0</ele><time>2026-04-19T08:27:57.604Z</time></trkpt><trkpt lat="42.19091" lon="11.9016467"><ele>339.0</ele><time>2026-04-19T08:27:58.603Z</time></trkpt><trkpt lat="42.1908667" lon="11.901715"><ele>339.0</ele><time>2026-04-19T08:27:59.603Z</time></trkpt><trkpt lat="42.1908283" lon="11.9017833"><ele>339.0</ele><time>2026-04-19T08:28:00.603Z</time></trkpt><trkpt lat="42.1908" lon="11.901925"><ele>339.0</ele><time>2026-04-19T08:28:02.604Z</time></trkpt><trkpt lat="42.1907817" lon="11.9020117"><ele>340.0</ele><time>2026-04-19T08:28:03.603Z</time></trkpt><trkpt lat="42.1907567" lon="11.902125"><ele>341.0</ele><time>2026-04-19T08:28:04.603Z</time></trkpt><trkpt lat="42.1907367" lon="11.90225"><ele>342.0</ele><time>2026-04-19T08:28:05.603Z</time></trkpt><trkpt lat="42.19071" lon="11.9023933"><ele>343.0</ele><time>2026-04-19T08:28:06.603Z</time></trkpt><trkpt lat="42.190685" lon="11.9025533"><ele>344.0</ele><time>2026-04-19T08:28:07.603Z</time></trkpt><trkpt lat="42.1906683" lon="11.90272"><ele>347.75</ele><time>2026-04-19T08:28:08.603Z</time></trkpt><trkpt lat="42.1906317" lon="11.9028933"><ele>351.5</ele><time>2026-04-19T08:28:09.603Z</time></trkpt><trkpt lat="42.1906" lon="11.90308"><ele>355.25</ele><time>2026-04-19T08:28:10.603Z</time></trkpt><trkpt lat="42.1905667" lon="11.90327"><ele>359.0</ele><time>2026-04-19T08:28:11.603Z</time></trkpt><trkpt lat="42.1905233" lon="11.9034583"><ele>361.75</ele><time>2026-04-19T08:28:12.603Z</time></trkpt><trkpt lat="42.190495" lon="11.9036417"><ele>364.5</ele><time>2026-04-19T08:28:13.604Z</time></trkpt><trkpt lat="42.1904667" lon="11.9038267"><ele>367.25</ele><time>2026-04-19T08:28:14.604Z</time></trkpt><trkpt lat="42.1904467" lon="11.9039967"><ele>370.0</ele><time>2026-04-19T08:28:15.603Z</time></trkpt><trkpt lat="42.1904267" lon="11.90416"><ele>369.25</ele><time>2026-04-19T08:28:16.603Z</time></trkpt><trkpt lat="42.190415" lon="11.9043133"><ele>368.5</ele><time>2026-04-19T08:28:17.603Z</time></trkpt><trkpt lat="42.1903933" lon="11.9044533"><ele>367.75</ele><time>2026-04-19T08:28:18.603Z</time></trkpt><trkpt lat="42.1903533" lon="11.9046033"><ele>367.0</ele><time>2026-04-19T08:28:19.603Z</time></trkpt><trkpt lat="42.190305" lon="11.90475"><ele>367.0</ele><time>2026-04-19T08:28:20.603Z</time></trkpt><trkpt lat="42.1902383" lon="11.904865"><ele>367.0</ele><time>2026-04-19T08:28:21.603Z</time></trkpt><trkpt lat="42.190165" lon="11.90498"><ele>367.0</ele><time>2026-04-19T08:28:22.603Z</time></trkpt><trkpt lat="42.19008" lon="11.9050967"><ele>367.0</ele><time>2026-04-19T08:28:23.604Z</time></trkpt><trkpt lat="42.190015" lon="11.9052233"><ele>366.5</ele><time>2026-04-19T08:28:24.603Z</time></trkpt><trkpt lat="42.1899667" lon="11.905355"><ele>366.0</ele><time>2026-04-19T08:28:25.603Z</time></trkpt><trkpt lat="42.1899267" lon="11.905495"><ele>365.5</ele><time>2026-04-19T08:28:26.603Z</time></trkpt><trkpt lat="42.1898967" lon="11.9056383"><ele>365.0</ele><time>2026-04-19T08:28:27.604Z</time></trkpt><trkpt lat="42.1898733" lon="11.9057967"><ele>364.75</ele><time>2026-04-19T08:28:28.603Z</time></trkpt><trkpt lat="42.18986" lon="11.9059533"><ele>364.5</ele><time>2026-04-19T08:28:29.603Z</time></trkpt><trkpt lat="42.1898383" lon="11.9061267"><ele>364.25</ele><time>2026-04-19T08:28:30.603Z</time></trkpt><trkpt lat="42.18982" lon="11.906275"><ele>364.0</ele><time>2026-04-19T08:28:31.603Z</time></trkpt><trkpt lat="42.189805" lon="11.9064133"><ele>375.0</ele><time>2026-04-19T08:28:32.604Z</time></trkpt><trkpt lat="42.1897717" lon="11.90655"><ele>386.0</ele><time>2026-04-19T08:28:33.603Z</time></trkpt><trkpt lat="42.1897267" lon="11.9066867"><ele>397.0</ele><time>2026-04-19T08:28:34.603Z</time></trkpt><trkpt lat="42.1896783" lon="11.9068433"><ele>408.0</ele><time>2026-04-19T08:28:35.603Z</time></trkpt><trkpt lat="42.18964" lon="11.9069983"><ele>408.0</ele><time>2026-04-19T08:28:36.604Z</time></trkpt><trkpt lat="42.1896217" lon="11.907155"><ele>408.0</ele><time>2026-04-19T08:28:37.603Z</time></trkpt><trkpt lat="42.1896117" lon="11.9072783"><ele>408.0</ele><time>2026-04-19T08:28:38.603Z</time></trkpt><trkpt lat="42.18959" lon="11.9073917"><ele>408.0</ele><time>2026-04-19T08:28:39.604Z</time></trkpt><trkpt lat="42.1895617" lon="11.9075067"><ele>408.0</ele><time>2026-04-19T08:28:40.603Z</time></trkpt><trkpt lat="42.18952" lon="11.907635"><ele>405.25</ele><time>2026-04-19T08:28:41.603Z</time></trkpt><trkpt lat="42.1894783" lon="11.9077683"><ele>402.5</ele><time>2026-04-19T08:28:42.603Z</time></trkpt><trkpt lat="42.1894283" lon="11.90792"><ele>399.75</ele><time>2026-04-19T08:28:43.603Z</time></trkpt><trkpt lat="42.1893767" lon="11.9080717"><ele>397.0</ele><time>2026-04-19T08:28:44.604Z</time></trkpt><trkpt lat="42.1893317" lon="11.9082033"><ele>397.0</ele><time>2026-04-19T08:28:45.603Z</time></trkpt><trkpt lat="42.1893" lon="11.90833"><ele>397.0</ele><time>2026-04-19T08:28:46.603Z</time></trkpt><trkpt lat="42.189255" lon="11.9084433"><ele>397.0</ele><time>2026-04-19T08:28:47.603Z</time></trkpt><trkpt lat="42.1891917" lon="11.90856"><ele>397.0</ele><time>2026-04-19T08:28:48.603Z</time></trkpt><trkpt lat="42.189125" lon="11.9086717"><ele>397.0</ele><time>2026-04-19T08:28:49.603Z</time></trkpt><trkpt lat="42.1890583" lon="11.9087883"><ele>400.0</ele><time>2026-04-19T08:28:50.603Z</time></trkpt><trkpt lat="42.1889917" lon="11.9088917"><ele>403.0</ele><time>2026-04-19T08:28:51.603Z</time></trkpt><trkpt lat="42.188935" lon="11.9089917"><ele>406.0</ele><time>2026-04-19T08:28:52.603Z</time></trkpt><trkpt lat="42.188885" lon="11.9091183"><ele>409.0</ele><time>2026-04-19T08:28:53.603Z</time></trkpt><trkpt lat="42.188845" lon="11.9092683"><ele>412.0</ele><time>2026-04-19T08:28:54.604Z</time></trkpt><trkpt lat="42.1888183" lon="11.9094383"><ele>412.0</ele><time>2026-04-19T08:28:55.603Z</time></trkpt><trkpt lat="42.1888017" lon="11.909625"><ele>412.0</ele><time>2026-04-19T08:28:56.603Z</time></trkpt><trkpt lat="42.18878" lon="11.9098017"><ele>412.0</ele><time>2026-04-19T08:28:57.604Z</time></trkpt><trkpt lat="42.1887517" lon="11.9099483"><ele>412.0</ele><time>2026-04-19T08:28:58.603Z</time></trkpt><trkpt lat="42.188745" lon="11.91008"><ele>412.0</ele><time>2026-04-19T08:28:59.603Z</time></trkpt><trkpt lat="42.1887583" lon="11.91022"><ele>412.0</ele><time>2026-04-19T08:29:00.603Z</time></trkpt><trkpt lat="42.1887733" lon="11.9103617"><ele>412.0</ele><time>2026-04-19T08:29:01.603Z</time></trkpt><trkpt lat="42.18878" lon="11.9104967"><ele>412.0</ele><time>2026-04-19T08:29:02.604Z</time></trkpt><trkpt lat="42.1887867" lon="11.9106067"><ele>412.0</ele><time>2026-04-19T08:29:03.603Z</time></trkpt><trkpt lat="42.1887817" lon="11.910715"><ele>412.0</ele><time>2026-04-19T08:29:04.603Z</time></trkpt><trkpt lat="42.1887617" lon="11.9108267"><ele>412.0</ele><time>2026-04-19T08:29:05.603Z</time></trkpt><trkpt lat="42.1887267" lon="11.91095"><ele>412.0</ele><time>2026-04-19T08:29:06.603Z</time></trkpt><trkpt lat="42.1886867" lon="11.91107"><ele>412.0</ele><time>2026-04-19T08:29:07.603Z</time></trkpt><trkpt lat="42.188655" lon="11.9111867"><ele>412.0</ele><time>2026-04-19T08:29:08.603Z</time></trkpt><trkpt lat="42.188635" lon="11.9113117"><ele>411.6</ele><time>2026-04-19T08:29:09.603Z</time></trkpt><trkpt lat="42.1886367" lon="11.9114517"><ele>411.20000000000005</ele><time>2026-04-19T08:29:10.603Z</time></trkpt><trkpt lat="42.1886483" lon="11.9116117"><ele>410.8</ele><time>2026-04-19T08:29:11.604Z</time></trkpt><trkpt lat="42.18867" lon="11.9117617"><ele>410.4</ele><time>2026-04-19T08:29:12.603Z</time></trkpt><trkpt lat="42.1886817" lon="11.9118883"><ele>410.0</ele><time>2026-04-19T08:29:13.603Z</time></trkpt><trkpt lat="42.1886833" lon="11.91201"><ele>409.8</ele><time>2026-04-19T08:29:14.603Z</time></trkpt><trkpt lat="42.1886683" lon="11.9121433"><ele>409.6</ele><time>2026-04-19T08:29:15.603Z</time></trkpt><trkpt lat="42.188625" lon="11.9122767"><ele>409.4</ele><time>2026-04-19T08:29:16.603Z</time></trkpt><trkpt lat="42.1885583" lon="11.912395"><ele>409.2</ele><time>2026-04-19T08:29:17.603Z</time></trkpt><trkpt lat="42.1884883" lon="11.9125167"><ele>409.0</ele><time>2026-04-19T08:29:18.603Z</time></trkpt><trkpt lat="42.188405" lon="11.912645"><ele>406.79999999999995</ele><time>2026-04-19T08:29:19.603Z</time></trkpt><trkpt lat="42.18831" lon="11.912745"><ele>404.59999999999997</ele><time>2026-04-19T08:29:20.603Z</time></trkpt><trkpt lat="42.1882183" lon="11.9128267"><ele>402.4</ele><time>2026-04-19T08:29:21.604Z</time></trkpt><trkpt lat="42.1881333" lon="11.9129033"><ele>400.2</ele><time>2026-04-19T08:29:22.602Z</time></trkpt><trkpt lat="42.1880433" lon="11.9129717"><ele>398.0</ele><time>2026-04-19T08:29:23.603Z</time></trkpt><trkpt lat="42.1879533" lon="11.91303"><ele>402.3333333333333</ele><time>2026-04-19T08:29:24.602Z</time></trkpt><trkpt lat="42.1878683" lon="11.913075"><ele>406.66666666666663</ele><time>2026-04-19T08:29:25.602Z</time></trkpt><trkpt lat="42.1877917" lon="11.91312"><ele>411.0</ele><time>2026-04-19T08:29:26.602Z</time></trkpt><trkpt lat="42.1877233" lon="11.9131783"><ele>415.33333333333337</ele><time>2026-04-19T08:29:27.603Z</time></trkpt><trkpt lat="42.1876583" lon="11.9132467"><ele>419.6666666666667</ele><time>2026-04-19T08:29:28.602Z</time></trkpt><trkpt lat="42.1876017" lon="11.91335"><ele>424.0</ele><time>2026-04-19T08:29:29.602Z</time></trkpt><trkpt lat="42.1875567" lon="11.9134467"><ele>424.0</ele><time>2026-04-19T08:29:30.603Z</time></trkpt><trkpt lat="42.1875333" lon="11.913575"><ele>424.0</ele><time>2026-04-19T08:29:31.602Z</time></trkpt><trkpt lat="42.187525" lon="11.913715"><ele>424.0</ele><time>2026-04-19T08:29:32.602Z</time></trkpt><trkpt lat="42.1875367" lon="11.91385"><ele>424.0</ele><time>2026-04-19T08:29:33.602Z</time></trkpt><trkpt lat="42.18754" lon="11.9139917"><ele>424.0</ele><time>2026-04-19T08:29:34.602Z</time></trkpt><trkpt lat="42.187565" lon="11.9141483"><ele>424.25</ele><time>2026-04-19T08:29:35.602Z</time></trkpt><trkpt lat="42.1876067" lon="11.9142867"><ele>424.5</ele><time>2026-04-19T08:29:36.602Z</time></trkpt><trkpt lat="42.18765" lon="11.9144333"><ele>424.75</ele><time>2026-04-19T08:29:37.603Z</time></trkpt><trkpt lat="42.1876967" lon="11.914575"><ele>425.0</ele><time>2026-04-19T08:29:38.602Z</time></trkpt><trkpt lat="42.1877433" lon="11.914735"><ele>425.0</ele><time>2026-04-19T08:29:39.602Z</time></trkpt><trkpt lat="42.187775" lon="11.9148983"><ele>425.0</ele><time>2026-04-19T08:29:40.602Z</time></trkpt><trkpt lat="42.1878133" lon="11.9150667"><ele>425.0</ele><time>2026-04-19T08:29:41.602Z</time></trkpt><trkpt lat="42.187845" lon="11.9152"><ele>425.0</ele><time>2026-04-19T08:29:42.602Z</time></trkpt><trkpt lat="42.18786" lon="11.91532"><ele>425.0</ele><time>2026-04-19T08:29:43.602Z</time></trkpt><trkpt lat="42.1878517" lon="11.9154217"><ele>424.0</ele><time>2026-04-19T08:29:44.602Z</time></trkpt><trkpt lat="42.187795" lon="11.9155733"><ele>423.0</ele><time>2026-04-19T08:29:46.602Z</time></trkpt><trkpt lat="42.1876917" lon="11.9156883"><ele>422.0</ele><time>2026-04-19T08:29:48.602Z</time></trkpt><trkpt lat="42.1876217" lon="11.9157283"><ele>421.0</ele><time>2026-04-19T08:29:49.602Z</time></trkpt><trkpt lat="42.1875367" lon="11.9157617"><ele>420.0</ele><time>2026-04-19T08:29:50.602Z</time></trkpt><trkpt lat="42.1874533" lon="11.91579"><ele>420.0</ele><time>2026-04-19T08:29:51.602Z</time></trkpt><trkpt lat="42.187365" lon="11.915815"><ele>420.0</ele><time>2026-04-19T08:29:52.602Z</time></trkpt><trkpt lat="42.1872683" lon="11.9158633"><ele>420.0</ele><time>2026-04-19T08:29:53.602Z</time></trkpt><trkpt lat="42.1871717" lon="11.9159217"><ele>420.0</ele><time>2026-04-19T08:29:54.602Z</time></trkpt><trkpt lat="42.1870667" lon="11.916"><ele>420.0</ele><time>2026-04-19T08:29:55.602Z</time></trkpt><trkpt lat="42.18695" lon="11.9160733"><ele>419.5</ele><time>2026-04-19T08:29:56.603Z</time></trkpt><trkpt lat="42.1868183" lon="11.9161633"><ele>419.0</ele><time>2026-04-19T08:29:57.602Z</time></trkpt><trkpt lat="42.186685" lon="11.91625"><ele>418.5</ele><time>2026-04-19T08:29:58.602Z</time></trkpt><trkpt lat="42.1865683" lon="11.9163217"><ele>418.0</ele><time>2026-04-19T08:29:59.602Z</time></trkpt><trkpt lat="42.18646" lon="11.9163967"><ele>418.0</ele><time>2026-04-19T08:30:00.603Z</time></trkpt><trkpt lat="42.1863533" lon="11.91648"><ele>418.0</ele><time>2026-04-19T08:30:01.603Z</time></trkpt><trkpt lat="42.18626" lon="11.9165783"><ele>418.0</ele><time>2026-04-19T08:30:02.602Z</time></trkpt><trkpt lat="42.1861567" lon="11.9166967"><ele>418.0</ele><time>2026-04-19T08:30:03.603Z</time></trkpt><trkpt lat="42.1860283" lon="11.91686"><ele>416.33333333333337</ele><time>2026-04-19T08:30:04.602Z</time></trkpt><trkpt lat="42.185905" lon="11.9170467"><ele>414.66666666666663</ele><time>2026-04-19T08:30:05.602Z</time></trkpt><trkpt lat="42.18579" lon="11.9172133"><ele>413.0</ele><time>2026-04-19T08:30:06.603Z</time></trkpt><trkpt lat="42.185685" lon="11.91736"><ele>413.25</ele><time>2026-04-19T08:30:07.602Z</time></trkpt><trkpt lat="42.1855933" lon="11.9174933"><ele>413.5</ele><time>2026-04-19T08:30:08.602Z</time></trkpt><trkpt lat="42.18551" lon="11.91763"><ele>413.75</ele><time>2026-04-19T08:30:09.602Z</time></trkpt><trkpt lat="42.1854333" lon="11.9177633"><ele>414.0</ele><time>2026-04-19T08:30:10.602Z</time></trkpt><trkpt lat="42.18536" lon="11.9178933"><ele>414.79999999999995</ele><time>2026-04-19T08:30:11.603Z</time></trkpt><trkpt lat="42.185295" lon="11.9180217"><ele>415.59999999999997</ele><time>2026-04-19T08:30:12.602Z</time></trkpt><trkpt lat="42.185245" lon="11.9181233"><ele>416.4</ele><time>2026-04-19T08:30:13.602Z</time></trkpt><trkpt lat="42.1851917" lon="11.9182033"><ele>417.2</ele><time>2026-04-19T08:30:14.602Z</time></trkpt><trkpt lat="42.1850783" lon="11.9182867"><ele>418.0</ele><time>2026-04-19T08:30:16.602Z</time></trkpt><trkpt lat="42.185005" lon="11.9182967"><ele>418.0</ele><time>2026-04-19T08:30:17.603Z</time></trkpt><trkpt lat="42.1849083" lon="11.9182933"><ele>418.0</ele><time>2026-04-19T08:30:18.602Z</time></trkpt><trkpt lat="42.18479" lon="11.91825"><ele>418.0</ele><time>2026-04-19T08:30:19.602Z</time></trkpt><trkpt lat="42.1846217" lon="11.9181733"><ele>418.0</ele><time>2026-04-19T08:30:20.602Z</time></trkpt><trkpt lat="42.1844617" lon="11.91812"><ele>419.75</ele><time>2026-04-19T08:30:21.602Z</time></trkpt><trkpt lat="42.1843" lon="11.9180917"><ele>421.5</ele><time>2026-04-19T08:30:22.602Z</time></trkpt><trkpt lat="42.184165" lon="11.9180717"><ele>423.25</ele><time>2026-04-19T08:30:23.602Z</time></trkpt><trkpt lat="42.1840367" lon="11.918045"><ele>425.0</ele><time>2026-04-19T08:30:24.603Z</time></trkpt><trkpt lat="42.1839217" lon="11.9180317"><ele>426.66666666666663</ele><time>2026-04-19T08:30:25.602Z</time></trkpt><trkpt lat="42.1838217" lon="11.91803"><ele>428.3333333333333</ele><time>2026-04-19T08:30:26.602Z</time></trkpt><trkpt lat="42.1837317" lon="11.9180417"><ele>430.0</ele><time>2026-04-19T08:30:27.602Z</time></trkpt><trkpt lat="42.1836467" lon="11.9180667"><ele>431.66666666666663</ele><time>2026-04-19T08:30:28.602Z</time></trkpt><trkpt lat="42.1835667" lon="11.9180933"><ele>433.3333333333333</ele><time>2026-04-19T08:30:29.603Z</time></trkpt><trkpt lat="42.183485" lon="11.9181233"><ele>435.0</ele><time>2026-04-19T08:30:30.603Z</time></trkpt><trkpt lat="42.1834" lon="11.918165"><ele>435.0</ele><time>2026-04-19T08:30:31.602Z</time></trkpt><trkpt lat="42.1833017" lon="11.91822"><ele>435.0</ele><time>2026-04-19T08:30:32.602Z</time></trkpt><trkpt lat="42.183185" lon="11.9182933"><ele>435.0</ele><time>2026-04-19T08:30:33.602Z</time></trkpt><trkpt lat="42.1830567" lon="11.918355"><ele>435.0</ele><time>2026-04-19T08:30:34.602Z</time></trkpt><trkpt lat="42.182945" lon="11.918395"><ele>437.4</ele><time>2026-04-19T08:30:35.603Z</time></trkpt><trkpt lat="42.1828483" lon="11.9184083"><ele>439.8</ele><time>2026-04-19T08:30:36.603Z</time></trkpt><trkpt lat="42.1827617" lon="11.9183817"><ele>442.20000000000005</ele><time>2026-04-19T08:30:37.603Z</time></trkpt><trkpt lat="42.1826833" lon="11.9183233"><ele>444.6</ele><time>2026-04-19T08:30:38.602Z</time></trkpt><trkpt lat="42.1826183" lon="11.91823"><ele>447.0</ele><time>2026-04-19T08:30:39.602Z</time></trkpt><trkpt lat="42.1825533" lon="11.91814"><ele>447.0</ele><time>2026-04-19T08:30:40.602Z</time></trkpt><trkpt lat="42.1824933" lon="11.9180717"><ele>447.0</ele><time>2026-04-19T08:30:41.602Z</time></trkpt><trkpt lat="42.1824283" lon="11.9180167"><ele>447.0</ele><time>2026-04-19T08:30:42.602Z</time></trkpt><trkpt lat="42.1823667" lon="11.9179917"><ele>447.0</ele><time>2026-04-19T08:30:43.602Z</time></trkpt><trkpt lat="42.1822967" lon="11.9180117"><ele>447.0</ele><time>2026-04-19T08:30:44.602Z</time></trkpt><trkpt lat="42.1821967" lon="11.918085"><ele>447.0</ele><time>2026-04-19T08:30:45.602Z</time></trkpt><trkpt lat="42.182085" lon="11.9181617"><ele>448.0</ele><time>2026-04-19T08:30:46.602Z</time></trkpt><trkpt lat="42.18196" lon="11.918245"><ele>449.0</ele><time>2026-04-19T08:30:47.602Z</time></trkpt><trkpt lat="42.1818417" lon="11.9183133"><ele>450.0</ele><time>2026-04-19T08:30:48.602Z</time></trkpt><trkpt lat="42.1817267" lon="11.9183917"><ele>451.0</ele><time>2026-04-19T08:30:49.602Z</time></trkpt><trkpt lat="42.18162" lon="11.9184667"><ele>451.0</ele><time>2026-04-19T08:30:50.602Z</time></trkpt><trkpt lat="42.18153" lon="11.9185167"><ele>451.0</ele><time>2026-04-19T08:30:51.602Z</time></trkpt><trkpt lat="42.1814483" lon="11.9185433"><ele>451.0</ele><time>2026-04-19T08:30:52.602Z</time></trkpt><trkpt lat="42.1813433" lon="11.9185517"><ele>451.0</ele><time>2026-04-19T08:30:53.603Z</time></trkpt><trkpt lat="42.1812067" lon="11.9185283"><ele>451.0</ele><time>2026-04-19T08:30:54.602Z</time></trkpt><trkpt lat="42.1810567" lon="11.9185"><ele>448.75</ele><time>2026-04-19T08:30:55.602Z</time></trkpt><trkpt lat="42.1809083" lon="11.9184733"><ele>446.5</ele><time>2026-04-19T08:30:56.603Z</time></trkpt><trkpt lat="42.1807683" lon="11.9184383"><ele>444.25</ele><time>2026-04-19T08:30:57.603Z</time></trkpt><trkpt lat="42.1806433" lon="11.918415"><ele>442.0</ele><time>2026-04-19T08:30:58.602Z</time></trkpt><trkpt lat="42.180525" lon="11.9183867"><ele>441.75</ele><time>2026-04-19T08:30:59.602Z</time></trkpt><trkpt lat="42.1804167" lon="11.9183583"><ele>441.5</ele><time>2026-04-19T08:31:00.602Z</time></trkpt><trkpt lat="42.1803133" lon="11.9183167"><ele>441.25</ele><time>2026-04-19T08:31:01.603Z</time></trkpt><trkpt lat="42.1802033" lon="11.9182733"><ele>441.0</ele><time>2026-04-19T08:31:02.602Z</time></trkpt><trkpt lat="42.1800917" lon="11.9182233"><ele>441.0</ele><time>2026-04-19T08:31:03.602Z</time></trkpt><trkpt lat="42.179975" lon="11.9181767"><ele>441.0</ele><time>2026-04-19T08:31:04.602Z</time></trkpt><trkpt lat="42.179855" lon="11.9181367"><ele>441.0</ele><time>2026-04-19T08:31:05.602Z</time></trkpt><trkpt lat="42.1797233" lon="11.9180933"><ele>441.0</ele><time>2026-04-19T08:31:06.603Z</time></trkpt><trkpt lat="42.1795883" lon="11.91806"><ele>440.75</ele><time>2026-04-19T08:31:07.602Z</time></trkpt><trkpt lat="42.179465" lon="11.9180283"><ele>440.5</ele><time>2026-04-19T08:31:08.602Z</time></trkpt><trkpt lat="42.17935" lon="11.9180383"><ele>440.25</ele><time>2026-04-19T08:31:09.602Z</time></trkpt><trkpt lat="42.1792417" lon="11.9180733"><ele>440.0</ele><time>2026-04-19T08:31:10.602Z</time></trkpt><trkpt lat="42.1791417" lon="11.9181483"><ele>440.0</ele><time>2026-04-19T08:31:11.602Z</time></trkpt><trkpt lat="42.1790383" lon="11.91826"><ele>440.0</ele><time>2026-04-19T08:31:12.602Z</time></trkpt><trkpt lat="42.17893" lon="11.9184067"><ele>440.0</ele><time>2026-04-19T08:31:13.602Z</time></trkpt><trkpt lat="42.1788217" lon="11.9185467"><ele>440.0</ele><time>2026-04-19T08:31:14.603Z</time></trkpt><trkpt lat="42.178715" lon="11.9186767"><ele>441.25</ele><time>2026-04-19T08:31:15.602Z</time></trkpt><trkpt lat="42.1786217" lon="11.91879"><ele>442.5</ele><time>2026-04-19T08:31:16.602Z</time></trkpt><trkpt lat="42.178535" lon="11.9188967"><ele>443.75</ele><time>2026-04-19T08:31:17.602Z</time></trkpt><trkpt lat="42.1784267" lon="11.918985"><ele>445.0</ele><time>2026-04-19T08:31:18.602Z</time></trkpt><trkpt lat="42.1783117" lon="11.9190567"><ele>445.0</ele><time>2026-04-19T08:31:19.602Z</time></trkpt><trkpt lat="42.1781883" lon="11.9191233"><ele>445.0</ele><time>2026-04-19T08:31:20.602Z</time></trkpt><trkpt lat="42.1780583" lon="11.9191883"><ele>445.0</ele><time>2026-04-19T08:31:21.603Z</time></trkpt><trkpt lat="42.17793" lon="11.9192633"><ele>445.0</ele><time>2026-04-19T08:31:22.602Z</time></trkpt><trkpt lat="42.1777983" lon="11.9193383"><ele>445.0</ele><time>2026-04-19T08:31:23.602Z</time></trkpt><trkpt lat="42.17768" lon="11.91942"><ele>445.0</ele><time>2026-04-19T08:31:24.602Z</time></trkpt><trkpt lat="42.1775533" lon="11.919495"><ele>445.0</ele><time>2026-04-19T08:31:25.602Z</time></trkpt><trkpt lat="42.17742" lon="11.9195667"><ele>445.0</ele><time>2026-04-19T08:31:26.602Z</time></trkpt><trkpt lat="42.1772917" lon="11.919635"><ele>445.0</ele><time>2026-04-19T08:31:27.602Z</time></trkpt><trkpt lat="42.1771567" lon="11.9197267"><ele>445.0</ele><time>2026-04-19T08:31:28.602Z</time></trkpt><trkpt lat="42.1770183" lon="11.9198533"><ele>445.0</ele><time>2026-04-19T08:31:29.602Z</time></trkpt><trkpt lat="42.176885" lon="11.91999"><ele>444.0</ele><time>2026-04-19T08:31:30.602Z</time></trkpt><trkpt lat="42.176765" lon="11.9201167"><ele>443.0</ele><time>2026-04-19T08:31:31.602Z</time></trkpt><trkpt lat="42.1766467" lon="11.9202183"><ele>442.0</ele><time>2026-04-19T08:31:32.602Z</time></trkpt><trkpt lat="42.1765283" lon="11.9203067"><ele>441.0</ele><time>2026-04-19T08:31:33.602Z</time></trkpt><trkpt lat="42.1764083" lon="11.920385"><ele>441.0</ele><time>2026-04-19T08:31:34.602Z</time></trkpt><trkpt lat="42.1762883" lon="11.9204417"><ele>441.0</ele><time>2026-04-19T08:31:35.603Z</time></trkpt><trkpt lat="42.176165" lon="11.9204917"><ele>441.0</ele><time>2026-04-19T08:31:36.603Z</time></trkpt><trkpt lat="42.17605" lon="11.9205483"><ele>441.0</ele><time>2026-04-19T08:31:37.602Z</time></trkpt><trkpt lat="42.1759383" lon="11.92062"><ele>441.0</ele><time>2026-04-19T08:31:38.602Z</time></trkpt><trkpt lat="42.175835" lon="11.9207067"><ele>441.0</ele><time>2026-04-19T08:31:39.602Z</time></trkpt><trkpt lat="42.17574" lon="11.920825"><ele>441.0</ele><time>2026-04-19T08:31:40.603Z</time></trkpt><trkpt lat="42.175645" lon="11.92096"><ele>441.0</ele><time>2026-04-19T08:31:41.602Z</time></trkpt><trkpt lat="42.1755683" lon="11.92108"><ele>440.25</ele><time>2026-04-19T08:31:42.602Z</time></trkpt><trkpt lat="42.1754983" lon="11.9211883"><ele>439.5</ele><time>2026-04-19T08:31:43.602Z</time></trkpt><trkpt lat="42.175415" lon="11.92129"><ele>438.75</ele><time>2026-04-19T08:31:44.602Z</time></trkpt><trkpt lat="42.175305" lon="11.9214083"><ele>438.0</ele><time>2026-04-19T08:31:45.602Z</time></trkpt><trkpt lat="42.1751933" lon="11.9215067"><ele>438.0</ele><time>2026-04-19T08:31:46.602Z</time></trkpt><trkpt lat="42.17508" lon="11.921615"><ele>438.0</ele><time>2026-04-19T08:31:47.602Z</time></trkpt><trkpt lat="42.1749617" lon="11.9217383"><ele>438.0</ele><time>2026-04-19T08:31:48.602Z</time></trkpt><trkpt lat="42.1748383" lon="11.9218583"><ele>438.0</ele><time>2026-04-19T08:31:49.602Z</time></trkpt><trkpt lat="42.1747117" lon="11.9219633"><ele>436.75</ele><time>2026-04-19T08:31:50.602Z</time></trkpt><trkpt lat="42.1745867" lon="11.9220483"><ele>435.5</ele><time>2026-04-19T08:31:51.602Z</time></trkpt><trkpt lat="42.1744567" lon="11.9221217"><ele>434.25</ele><time>2026-04-19T08:31:52.602Z</time></trkpt><trkpt lat="42.17433" lon="11.9221733"><ele>433.0</ele><time>2026-04-19T08:31:53.602Z</time></trkpt><trkpt lat="42.1741967" lon="11.9222333"><ele>433.0</ele><time>2026-04-19T08:31:54.602Z</time></trkpt><trkpt lat="42.1740583" lon="11.922305"><ele>433.0</ele><time>2026-04-19T08:31:55.602Z</time></trkpt><trkpt lat="42.1739233" lon="11.9224033"><ele>433.0</ele><time>2026-04-19T08:31:56.602Z</time></trkpt><trkpt lat="42.1737783" lon="11.92252"><ele>433.0</ele><time>2026-04-19T08:31:57.602Z</time></trkpt><trkpt lat="42.1736317" lon="11.9226417"><ele>433.0</ele><time>2026-04-19T08:31:58.602Z</time></trkpt><trkpt lat="42.1734867" lon="11.9227483"><ele>433.0</ele><time>2026-04-19T08:31:59.602Z</time></trkpt><trkpt lat="42.1733483" lon="11.92284"><ele>433.0</ele><time>2026-04-19T08:32:00.603Z</time></trkpt><trkpt lat="42.17322" lon="11.922935"><ele>433.0</ele><time>2026-04-19T08:32:01.602Z</time></trkpt><trkpt lat="42.1731" lon="11.9230233"><ele>433.0</ele><time>2026-04-19T08:32:02.602Z</time></trkpt><trkpt lat="42.1730017" lon="11.92309"><ele>433.0</ele><time>2026-04-19T08:32:03.602Z</time></trkpt><trkpt lat="42.172915" lon="11.9231517"><ele>432.50000000000006</ele><time>2026-04-19T08:32:04.602Z</time></trkpt><trkpt lat="42.1728433" lon="11.923225"><ele>432.0</ele><time>2026-04-19T08:32:05.602Z</time></trkpt><trkpt lat="42.1727933" lon="11.9232983"><ele>431.5</ele><time>2026-04-19T08:32:06.603Z</time></trkpt><trkpt lat="42.172765" lon="11.923385"><ele>431.0</ele><time>2026-04-19T08:32:07.603Z</time></trkpt><trkpt lat="42.1727367" lon="11.9234633"><ele>430.50000000000006</ele><time>2026-04-19T08:32:08.602Z</time></trkpt><trkpt lat="42.1726967" lon="11.92357"><ele>430.0</ele><time>2026-04-19T08:32:10.603Z</time></trkpt><trkpt lat="42.1726683" lon="11.9236483"><ele>430.00000000000006</ele><time>2026-04-19T08:32:12.602Z</time></trkpt><trkpt lat="42.17268" lon="11.9237717"><ele>430.0</ele><time>2026-04-19T08:32:37.602Z</time></trkpt><trkpt lat="42.172705" lon="11.92389"><ele>430.0</ele><time>2026-04-19T08:32:39.603Z</time></trkpt><trkpt lat="42.1727133" lon="11.923975"><ele>430.0</ele><time>2026-04-19T08:32:40.602Z</time></trkpt><trkpt lat="42.1727233" lon="11.9240617"><ele>430.00000000000006</ele><time>2026-04-19T08:32:41.602Z</time></trkpt><trkpt lat="42.172765" lon="11.92421"><ele>430.0</ele><time>2026-04-19T08:32:43.602Z</time></trkpt><trkpt lat="42.1728217" lon="11.9243467"><ele>430.0</ele><time>2026-04-19T08:32:45.603Z</time></trkpt><trkpt lat="42.17288" lon="11.9244783"><ele>430.0</ele><time>2026-04-19T08:32:47.602Z</time></trkpt><trkpt lat="42.1729167" lon="11.9245567"><ele>430.0</ele><time>2026-04-19T08:32:48.602Z</time></trkpt><trkpt lat="42.1729717" lon="11.924665"><ele>430.0</ele><time>2026-04-19T08:32:49.602Z</time></trkpt><trkpt lat="42.17303" lon="11.9247633"><ele>430.0</ele><time>2026-04-19T08:32:50.601Z</time></trkpt><trkpt lat="42.1730933" lon="11.9248483"><ele>430.00000000000006</ele><time>2026-04-19T08:32:51.601Z</time></trkpt><trkpt lat="42.1731617" lon="11.92492"><ele>430.0</ele><time>2026-04-19T08:32:52.601Z</time></trkpt><trkpt lat="42.173225" lon="11.9249983"><ele>430.0</ele><time>2026-04-19T08:32:53.601Z</time></trkpt><trkpt lat="42.1732717" lon="11.9250717"><ele>430.0</ele><time>2026-04-19T08:32:54.602Z</time></trkpt><trkpt lat="42.1733033" lon="11.9251567"><ele>430.00000000000006</ele><time>2026-04-19T08:32:55.602Z</time></trkpt><trkpt lat="42.1733267" lon="11.92524"><ele>430.0</ele><time>2026-04-19T08:32:56.601Z</time></trkpt><trkpt lat="42.1733433" lon="11.9253333"><ele>431.6</ele><time>2026-04-19T08:32:57.601Z</time></trkpt><trkpt lat="42.173375" lon="11.925465"><ele>433.2</ele><time>2026-04-19T08:32:58.602Z</time></trkpt><trkpt lat="42.1733883" lon="11.92563"><ele>434.79999999999995</ele><time>2026-04-19T08:32:59.601Z</time></trkpt><trkpt lat="42.1733983" lon="11.9257867"><ele>436.4</ele><time>2026-04-19T08:33:00.601Z</time></trkpt><trkpt lat="42.1733983" lon="11.9259283"><ele>438.0</ele><time>2026-04-19T08:33:01.601Z</time></trkpt><trkpt lat="42.1733967" lon="11.9260567"><ele>438.0</ele><time>2026-04-19T08:33:02.601Z</time></trkpt><trkpt lat="42.1733883" lon="11.926175"><ele>438.0</ele><time>2026-04-19T08:33:03.601Z</time></trkpt><trkpt lat="42.1733717" lon="11.9262817"><ele>438.0</ele><time>2026-04-19T08:33:04.601Z</time></trkpt><trkpt lat="42.173355" lon="11.9263817"><ele>438.0</ele><time>2026-04-19T08:33:05.601Z</time></trkpt><trkpt lat="42.1733483" lon="11.9265033"><ele>438.0</ele><time>2026-04-19T08:33:06.602Z</time></trkpt><trkpt lat="42.1733583" lon="11.9266233"><ele>438.0</ele><time>2026-04-19T08:33:07.601Z</time></trkpt><trkpt lat="42.1733867" lon="11.92676"><ele>437.1666666666667</ele><time>2026-04-19T08:33:08.601Z</time></trkpt><trkpt lat="42.1734233" lon="11.9268983"><ele>436.33333333333337</ele><time>2026-04-19T08:33:09.601Z</time></trkpt><trkpt lat="42.1734483" lon="11.9270117"><ele>435.5</ele><time>2026-04-19T08:33:10.601Z</time></trkpt><trkpt lat="42.1734633" lon="11.92712"><ele>434.6666666666667</ele><time>2026-04-19T08:33:11.601Z</time></trkpt><trkpt lat="42.1734633" lon="11.9272133"><ele>433.83333333333337</ele><time>2026-04-19T08:33:12.601Z</time></trkpt><trkpt lat="42.1734733" lon="11.9272983"><ele>433.0</ele><time>2026-04-19T08:33:13.602Z</time></trkpt><trkpt lat="42.1734967" lon="11.927385"><ele>433.00000000000006</ele><time>2026-04-19T08:33:14.601Z</time></trkpt><trkpt lat="42.1735383" lon="11.9274533"><ele>433.0</ele><time>2026-04-19T08:33:15.601Z</time></trkpt><trkpt lat="42.1735917" lon="11.927505"><ele>433.0</ele><time>2026-04-19T08:33:16.601Z</time></trkpt><trkpt lat="42.173655" lon="11.927505"><ele>433.0</ele><time>2026-04-19T08:33:17.601Z</time></trkpt><trkpt lat="42.1737733" lon="11.92752"><ele>433.00000000000006</ele><time>2026-04-19T08:33:19.602Z</time></trkpt><trkpt lat="42.173835" lon="11.9275683"><ele>433.0</ele><time>2026-04-19T08:33:20.601Z</time></trkpt><trkpt lat="42.1738933" lon="11.9276317"><ele>431.1666666666667</ele><time>2026-04-19T08:33:21.601Z</time></trkpt><trkpt lat="42.1739617" lon="11.92772"><ele>429.33333333333337</ele><time>2026-04-19T08:33:22.601Z</time></trkpt><trkpt lat="42.1740267" lon="11.92783"><ele>427.5</ele><time>2026-04-19T08:33:23.601Z</time></trkpt><trkpt lat="42.1740867" lon="11.92792"><ele>425.66666666666663</ele><time>2026-04-19T08:33:24.601Z</time></trkpt><trkpt lat="42.1741267" lon="11.927995"><ele>423.8333333333333</ele><time>2026-04-19T08:33:25.601Z</time></trkpt><trkpt lat="42.17417" lon="11.92808"><ele>422.0</ele><time>2026-04-19T08:33:27.601Z</time></trkpt><trkpt lat="42.1742367" lon="11.92817"><ele>422.0</ele><time>2026-04-19T08:33:29.601Z</time></trkpt><trkpt lat="42.1743517" lon="11.928285"><ele>422.0</ele><time>2026-04-19T08:33:31.601Z</time></trkpt><trkpt lat="42.1744183" lon="11.9283567"><ele>422.0</ele><time>2026-04-19T08:33:32.601Z</time></trkpt><trkpt lat="42.1744767" lon="11.9284467"><ele>422.0</ele><time>2026-04-19T08:33:33.601Z</time></trkpt><trkpt lat="42.174525" lon="11.928545"><ele>422.0</ele><time>2026-04-19T08:33:34.602Z</time></trkpt><trkpt lat="42.1745683" lon="11.92864"><ele>421.3333333333333</ele><time>2026-04-19T08:33:35.601Z</time></trkpt><trkpt lat="42.1746133" lon="11.9287483"><ele>420.66666666666663</ele><time>2026-04-19T08:33:36.601Z</time></trkpt><trkpt lat="42.17466" lon="11.9288583"><ele>420.0</ele><time>2026-04-19T08:33:37.601Z</time></trkpt><trkpt lat="42.174705" lon="11.92894"><ele>419.33333333333337</ele><time>2026-04-19T08:33:38.601Z</time></trkpt><trkpt lat="42.17474" lon="11.9290117"><ele>418.6666666666667</ele><time>2026-04-19T08:33:39.601Z</time></trkpt><trkpt lat="42.174775" lon="11.9291067"><ele>418.0</ele><time>2026-04-19T08:33:41.601Z</time></trkpt><trkpt lat="42.1747958" lon="11.9291903"><ele>416.33333333333337</ele><time>2026-04-19T08:33:43.601Z</time></trkpt><trkpt lat="42.1748084" lon="11.9293106"><ele>414.6666666666667</ele><time>2026-04-19T08:33:46.601Z</time></trkpt><trkpt lat="42.1748032" lon="11.9294448"><ele>413.0</ele><time>2026-04-19T08:33:50.62Z</time></trkpt><trkpt lat="42.174855" lon="11.9295733"><ele>411.33333333333337</ele><time>2026-04-19T08:33:52.601Z</time></trkpt><trkpt lat="42.1749167" lon="11.9295917"><ele>409.6666666666667</ele><time>2026-04-19T08:33:53.602Z</time></trkpt><trkpt lat="42.1749833" lon="11.929595"><ele>408.0</ele><time>2026-04-19T08:33:54.601Z</time></trkpt><trkpt lat="42.1750517" lon="11.9295983"><ele>407.4</ele><time>2026-04-19T08:33:55.601Z</time></trkpt><trkpt lat="42.1751617" lon="11.9296267"><ele>406.79999999999995</ele><time>2026-04-19T08:33:57.602Z</time></trkpt><trkpt lat="42.17524" lon="11.9296583"><ele>406.2</ele><time>2026-04-19T08:33:59.602Z</time></trkpt><trkpt lat="42.175305" lon="11.9296683"><ele>405.6</ele><time>2026-04-19T08:34:01.601Z</time></trkpt><trkpt lat="42.1754033" lon="11.92962"><ele>405.0</ele><time>2026-04-19T08:34:03.601Z</time></trkpt><trkpt lat="42.17548" lon="11.92954"><ele>405.0</ele><time>2026-04-19T08:34:05.601Z</time></trkpt><trkpt lat="42.17554" lon="11.9294333"><ele>405.0</ele><time>2026-04-19T08:34:07.601Z</time></trkpt><trkpt lat="42.1755933" lon="11.9292883"><ele>405.0</ele><time>2026-04-19T08:34:09.601Z</time></trkpt><trkpt lat="42.1756333" lon="11.9291567"><ele>405.0</ele><time>2026-04-19T08:34:11.601Z</time></trkpt><trkpt lat="42.17568" lon="11.929055"><ele>405.0</ele><time>2026-04-19T08:34:13.602Z</time></trkpt><trkpt lat="42.1757417" lon="11.9289767"><ele>402.6666666666667</ele><time>2026-04-19T08:34:15.601Z</time></trkpt><trkpt lat="42.1758017" lon="11.9289117"><ele>400.33333333333337</ele><time>2026-04-19T08:34:19.601Z</time></trkpt><trkpt lat="42.17588" lon="11.9288033"><ele>398.0</ele><time>2026-04-19T08:34:32.601Z</time></trkpt><trkpt lat="42.1759483" lon="11.9287817"><ele>395.6666666666667</ele><time>2026-04-19T08:35:04.601Z</time></trkpt><trkpt lat="42.1760067" lon="11.92871"><ele>393.33333333333337</ele><time>2026-04-19T08:35:06.601Z</time></trkpt><trkpt lat="42.1761017" lon="11.9286567"><ele>391.0</ele><time>2026-04-19T08:35:08.601Z</time></trkpt><trkpt lat="42.1761983" lon="11.9287033"><ele>391.0</ele><time>2026-04-19T08:35:11.601Z</time></trkpt><trkpt lat="42.1762617" lon="11.9287433"><ele>391.0</ele><time>2026-04-19T08:35:13.602Z</time></trkpt><trkpt lat="42.1763633" lon="11.9287767"><ele>391.0</ele><time>2026-04-19T08:35:15.601Z</time></trkpt><trkpt lat="42.1764417" lon="11.9287233"><ele>391.0</ele><time>2026-04-19T08:35:17.601Z</time></trkpt><trkpt lat="42.17656" lon="11.9286567"><ele>391.0</ele><time>2026-04-19T08:35:19.601Z</time></trkpt><trkpt lat="42.1766333" lon="11.928615"><ele>391.4</ele><time>2026-04-19T08:35:20.601Z</time></trkpt><trkpt lat="42.1766983" lon="11.9285833"><ele>391.8</ele><time>2026-04-19T08:35:21.601Z</time></trkpt><trkpt lat="42.1767917" lon="11.9285483"><ele>392.2</ele><time>2026-04-19T08:35:22.601Z</time></trkpt><trkpt lat="42.1768667" lon="11.928535"><ele>392.59999999999997</ele><time>2026-04-19T08:35:24.601Z</time></trkpt><trkpt lat="42.17695" lon="11.9285017"><ele>393.0</ele><time>2026-04-19T08:35:26.601Z</time></trkpt><trkpt lat="42.1770633" lon="11.928435"><ele>392.6666666666667</ele><time>2026-04-19T08:35:28.601Z</time></trkpt><trkpt lat="42.1771233" lon="11.928365"><ele>392.33333333333337</ele><time>2026-04-19T08:35:29.601Z</time></trkpt><trkpt lat="42.1771717" lon="11.928295"><ele>392.0</ele><time>2026-04-19T08:35:30.601Z</time></trkpt><trkpt lat="42.1772333" lon="11.928205"><ele>391.6666666666667</ele><time>2026-04-19T08:35:31.601Z</time></trkpt><trkpt lat="42.1772833" lon="11.9281217"><ele>391.33333333333337</ele><time>2026-04-19T08:35:32.601Z</time></trkpt><trkpt lat="42.177335" lon="11.9280417"><ele>391.0</ele><time>2026-04-19T08:35:33.602Z</time></trkpt><trkpt lat="42.1773883" lon="11.927975"><ele>393.4</ele><time>2026-04-19T08:35:34.601Z</time></trkpt><trkpt lat="42.1774717" lon="11.9278733"><ele>395.8</ele><time>2026-04-19T08:35:36.601Z</time></trkpt><trkpt lat="42.177525" lon="11.9278167"><ele>398.2</ele><time>2026-04-19T08:35:38.601Z</time></trkpt><trkpt lat="42.1776" lon="11.92774"><ele>400.59999999999997</ele><time>2026-04-19T08:35:54.601Z</time></trkpt><trkpt lat="42.17769" lon="11.927645"><ele>403.0</ele><time>2026-04-19T08:35:56.601Z</time></trkpt><trkpt lat="42.17776" lon="11.927585"><ele>403.0</ele><time>2026-04-19T08:35:57.601Z</time></trkpt><trkpt lat="42.1778333" lon="11.927535"><ele>403.0</ele><time>2026-04-19T08:35:58.601Z</time></trkpt><trkpt lat="42.1779133" lon="11.9275067"><ele>403.0</ele><time>2026-04-19T08:35:59.601Z</time></trkpt><trkpt lat="42.1780317" lon="11.9275333"><ele>403.0</ele><time>2026-04-19T08:36:01.602Z</time></trkpt><trkpt lat="42.178135" lon="11.9276217"><ele>403.0</ele><time>2026-04-19T08:36:03.601Z</time></trkpt><trkpt lat="42.17818" lon="11.9277017"><ele>404.00000000000006</ele><time>2026-04-19T08:36:04.601Z</time></trkpt><trkpt lat="42.1782267" lon="11.9277833"><ele>405.0</ele><time>2026-04-19T08:36:05.601Z</time></trkpt><trkpt lat="42.17827" lon="11.927875"><ele>406.0</ele><time>2026-04-19T08:36:06.602Z</time></trkpt><trkpt lat="42.1783217" lon="11.92795"><ele>407.0</ele><time>2026-04-19T08:36:07.601Z</time></trkpt><trkpt lat="42.1783683" lon="11.928015"><ele>408.00000000000006</ele><time>2026-04-19T08:36:08.601Z</time></trkpt><trkpt lat="42.1784367" lon="11.9281233"><ele>409.0</ele><time>2026-04-19T08:36:10.601Z</time></trkpt><trkpt lat="42.1784617" lon="11.9282183"><ele>409.00000000000006</ele><time>2026-04-19T08:36:11.601Z</time></trkpt><trkpt lat="42.1784917" lon="11.9282933"><ele>409.0</ele><time>2026-04-19T08:36:13.6Z</time></trkpt><trkpt lat="42.1785717" lon="11.92826"><ele>409.0</ele><time>2026-04-19T08:36:16.6Z</time></trkpt><trkpt lat="42.17867" lon="11.92823"><ele>409.0</ele><time>2026-04-19T08:36:18.6Z</time></trkpt><trkpt lat="42.1787667" lon="11.92825"><ele>409.00000000000006</ele><time>2026-04-19T08:36:20.6Z</time></trkpt><trkpt lat="42.178835" lon="11.9282733"><ele>409.0</ele><time>2026-04-19T08:36:21.6Z</time></trkpt><trkpt lat="42.1789217" lon="11.9283267"><ele>410.2</ele><time>2026-04-19T08:36:22.6Z</time></trkpt><trkpt lat="42.1790183" lon="11.928395"><ele>411.4</ele><time>2026-04-19T08:36:23.6Z</time></trkpt><trkpt lat="42.1791133" lon="11.92844"><ele>412.6</ele><time>2026-04-19T08:36:24.6Z</time></trkpt><trkpt lat="42.179195" lon="11.9284783"><ele>413.8</ele><time>2026-04-19T08:36:25.6Z</time></trkpt><trkpt lat="42.17929" lon="11.9285533"><ele>415.0</ele><time>2026-04-19T08:36:27.6Z</time></trkpt><trkpt lat="42.1793517" lon="11.9286717"><ele>415.0</ele><time>2026-04-19T08:36:29.6Z</time></trkpt><trkpt lat="42.1793983" lon="11.9288967"><ele>415.0</ele><time>2026-04-19T08:36:31.6Z</time></trkpt><trkpt lat="42.1794283" lon="11.9290417"><ele>415.0</ele><time>2026-04-19T08:36:32.6Z</time></trkpt><trkpt lat="42.1794667" lon="11.929175"><ele>415.0</ele><time>2026-04-19T08:36:33.6Z</time></trkpt><trkpt lat="42.1794883" lon="11.9292933"><ele>415.14285714285717</ele><time>2026-04-19T08:36:34.6Z</time></trkpt><trkpt lat="42.179505" lon="11.92941"><ele>415.28571428571433</ele><time>2026-04-19T08:36:35.6Z</time></trkpt><trkpt lat="42.1795067" lon="11.929515"><ele>415.42857142857144</ele><time>2026-04-19T08:36:36.6Z</time></trkpt><trkpt lat="42.179485" lon="11.9295983"><ele>415.57142857142856</ele><time>2026-04-19T08:36:37.6Z</time></trkpt><trkpt lat="42.1794533" lon="11.92969"><ele>415.7142857142857</ele><time>2026-04-19T08:36:38.601Z</time></trkpt><trkpt lat="42.1794267" lon="11.92977"><ele>415.85714285714283</ele><time>2026-04-19T08:36:39.601Z</time></trkpt><trkpt lat="42.1794017" lon="11.929865"><ele>416.0</ele><time>2026-04-19T08:36:40.6Z</time></trkpt><trkpt lat="42.17938" lon="11.9299617"><ele>416.3333333333333</ele><time>2026-04-19T08:36:41.6Z</time></trkpt><trkpt lat="42.17936" lon="11.9300667"><ele>416.66666666666663</ele><time>2026-04-19T08:36:42.601Z</time></trkpt><trkpt lat="42.1793317" lon="11.9301767"><ele>417.0</ele><time>2026-04-19T08:36:43.6Z</time></trkpt><trkpt lat="42.1793067" lon="11.9302883"><ele>417.33333333333337</ele><time>2026-04-19T08:36:44.601Z</time></trkpt><trkpt lat="42.1792683" lon="11.9304"><ele>417.6666666666667</ele><time>2026-04-19T08:36:45.6Z</time></trkpt><trkpt lat="42.1792083" lon="11.9305"><ele>418.0</ele><time>2026-04-19T08:36:46.601Z</time></trkpt><trkpt lat="42.1791433" lon="11.930605"><ele>418.0</ele><time>2026-04-19T08:36:47.6Z</time></trkpt><trkpt lat="42.1790717" lon="11.930695"><ele>418.0</ele><time>2026-04-19T08:36:48.601Z</time></trkpt><trkpt lat="42.179" lon="11.930785"><ele>418.0</ele><time>2026-04-19T08:36:49.6Z</time></trkpt><trkpt lat="42.1789167" lon="11.9308833"><ele>418.0</ele><time>2026-04-19T08:36:50.6Z</time></trkpt><trkpt lat="42.178845" lon="11.930995"><ele>418.0</ele><time>2026-04-19T08:36:51.601Z</time></trkpt><trkpt lat="42.178805" lon="11.9311"><ele>417.83333333333337</ele><time>2026-04-19T08:36:52.601Z</time></trkpt><trkpt lat="42.1787767" lon="11.9311983"><ele>417.6666666666667</ele><time>2026-04-19T08:36:53.6Z</time></trkpt><trkpt lat="42.17874" lon="11.93129"><ele>417.5</ele><time>2026-04-19T08:36:55.6Z</time></trkpt><trkpt lat="42.178705" lon="11.9314367"><ele>417.33333333333337</ele><time>2026-04-19T08:37:02.6Z</time></trkpt><trkpt lat="42.1786717" lon="11.931535"><ele>417.1666666666667</ele><time>2026-04-19T08:37:03.601Z</time></trkpt><trkpt lat="42.178635" lon="11.93162"><ele>417.0</ele><time>2026-04-19T08:37:04.601Z</time></trkpt><trkpt lat="42.1785833" lon="11.9317033"><ele>416.20000000000005</ele><time>2026-04-19T08:37:05.6Z</time></trkpt><trkpt lat="42.17852" lon="11.9317633"><ele>415.4</ele><time>2026-04-19T08:37:06.601Z</time></trkpt><trkpt lat="42.17845" lon="11.9318317"><ele>414.6</ele><time>2026-04-19T08:37:07.6Z</time></trkpt><trkpt lat="42.1783767" lon="11.9319083"><ele>413.79999999999995</ele><time>2026-04-19T08:37:08.6Z</time></trkpt><trkpt lat="42.1782967" lon="11.932005"><ele>413.0</ele><time>2026-04-19T08:37:09.6Z</time></trkpt><trkpt lat="42.1782067" lon="11.93212"><ele>413.0</ele><time>2026-04-19T08:37:10.601Z</time></trkpt><trkpt lat="42.1781267" lon="11.932225"><ele>413.0</ele><time>2026-04-19T08:37:11.6Z</time></trkpt><trkpt lat="42.1780467" lon="11.9323033"><ele>413.0</ele><time>2026-04-19T08:37:12.601Z</time></trkpt><trkpt lat="42.177965" lon="11.9323633"><ele>413.0</ele><time>2026-04-19T08:37:13.6Z</time></trkpt><trkpt lat="42.177905" lon="11.93244"><ele>413.0</ele><time>2026-04-19T08:37:14.6Z</time></trkpt><trkpt lat="42.1778467" lon="11.9325317"><ele>413.0</ele><time>2026-04-19T08:37:15.6Z</time></trkpt><trkpt lat="42.17779" lon="11.9326283"><ele>413.0</ele><time>2026-04-19T08:37:16.601Z</time></trkpt><trkpt lat="42.17772" lon="11.932725"><ele>413.0</ele><time>2026-04-19T08:37:17.601Z</time></trkpt><trkpt lat="42.17764" lon="11.932825"><ele>413.0</ele><time>2026-04-19T08:37:18.6Z</time></trkpt><trkpt lat="42.1775717" lon="11.932925"><ele>413.0</ele><time>2026-04-19T08:37:19.6Z</time></trkpt><trkpt lat="42.17751" lon="11.9330283"><ele>413.0</ele><time>2026-04-19T08:37:20.6Z</time></trkpt><trkpt lat="42.1774467" lon="11.9331367"><ele>413.0</ele><time>2026-04-19T08:37:21.601Z</time></trkpt><trkpt lat="42.1773767" lon="11.9332483"><ele>413.0</ele><time>2026-04-19T08:37:22.6Z</time></trkpt><trkpt lat="42.1773167" lon="11.9333667"><ele>413.0</ele><time>2026-04-19T08:37:23.6Z</time></trkpt><trkpt lat="42.1772883" lon="11.9334967"><ele>413.0</ele><time>2026-04-19T08:37:24.6Z</time></trkpt><trkpt lat="42.1772883" lon="11.9336467"><ele>413.8333333333333</ele><time>2026-04-19T08:37:25.6Z</time></trkpt><trkpt lat="42.1772983" lon="11.93377"><ele>414.66666666666663</ele><time>2026-04-19T08:37:26.6Z</time></trkpt><trkpt lat="42.1773133" lon="11.93386"><ele>415.5</ele><time>2026-04-19T08:37:27.6Z</time></trkpt><trkpt lat="42.1773433" lon="11.9339833"><ele>416.33333333333337</ele><time>2026-04-19T08:37:29.6Z</time></trkpt><trkpt lat="42.177375" lon="11.934075"><ele>417.1666666666667</ele><time>2026-04-19T08:37:58.6Z</time></trkpt><trkpt lat="42.1774067" lon="11.9341883"><ele>418.0</ele><time>2026-04-19T08:38:00.6Z</time></trkpt><trkpt lat="42.1774133" lon="11.934285"><ele>416.0</ele><time>2026-04-19T08:38:01.6Z</time></trkpt><trkpt lat="42.17743" lon="11.93438"><ele>414.0</ele><time>2026-04-19T08:38:02.6Z</time></trkpt><trkpt lat="42.177465" lon="11.9344617"><ele>412.0</ele><time>2026-04-19T08:38:03.6Z</time></trkpt><trkpt lat="42.1775117" lon="11.9345467"><ele>410.0</ele><time>2026-04-19T08:38:04.6Z</time></trkpt><trkpt lat="42.1775633" lon="11.9346233"><ele>408.0</ele><time>2026-04-19T08:38:05.6Z</time></trkpt><trkpt lat="42.1776117" lon="11.93468"><ele>406.0</ele><time>2026-04-19T08:38:06.6Z</time></trkpt><trkpt lat="42.1776667" lon="11.9347333"><ele>404.0</ele><time>2026-04-19T08:38:07.601Z</time></trkpt><trkpt lat="42.1777283" lon="11.934785"><ele>404.0</ele><time>2026-04-19T08:38:08.6Z</time></trkpt><trkpt lat="42.1777917" lon="11.9348217"><ele>404.0</ele><time>2026-04-19T08:38:09.6Z</time></trkpt><trkpt lat="42.17786" lon="11.934885"><ele>404.0</ele><time>2026-04-19T08:38:10.601Z</time></trkpt><trkpt lat="42.1779283" lon="11.935055"><ele>404.0</ele><time>2026-04-19T08:38:12.6Z</time></trkpt><trkpt lat="42.17795" lon="11.935185"><ele>404.0</ele><time>2026-04-19T08:38:13.601Z</time></trkpt><trkpt lat="42.1779833" lon="11.9353167"><ele>402.6</ele><time>2026-04-19T08:38:14.601Z</time></trkpt><trkpt lat="42.1780283" lon="11.9354717"><ele>401.2</ele><time>2026-04-19T08:38:15.6Z</time></trkpt><trkpt lat="42.17807" lon="11.9356067"><ele>399.8</ele><time>2026-04-19T08:38:16.6Z</time></trkpt><trkpt lat="42.1781133" lon="11.93574"><ele>398.40000000000003</ele><time>2026-04-19T08:38:17.601Z</time></trkpt><trkpt lat="42.1781483" lon="11.935855"><ele>397.0</ele><time>2026-04-19T08:38:18.6Z</time></trkpt><trkpt lat="42.1781667" lon="11.9359533"><ele>397.00000000000006</ele><time>2026-04-19T08:38:19.6Z</time></trkpt><trkpt lat="42.1781583" lon="11.9360383"><ele>397.0</ele><time>2026-04-19T08:38:20.6Z</time></trkpt><trkpt lat="42.1781567" lon="11.9361617"><ele>397.0</ele><time>2026-04-19T08:38:22.6Z</time></trkpt><trkpt lat="42.1781583" lon="11.9362933"><ele>397.0</ele><time>2026-04-19T08:38:24.6Z</time></trkpt><trkpt lat="42.1781517" lon="11.9363783"><ele>397.00000000000006</ele><time>2026-04-19T08:38:25.6Z</time></trkpt><trkpt lat="42.1781417" lon="11.9364683"><ele>397.0</ele><time>2026-04-19T08:38:26.601Z</time></trkpt><trkpt lat="42.1781233" lon="11.93656"><ele>397.0</ele><time>2026-04-19T08:38:27.6Z</time></trkpt><trkpt lat="42.1781133" lon="11.9366617"><ele>397.0</ele><time>2026-04-19T08:38:28.6Z</time></trkpt><trkpt lat="42.17814" lon="11.93683"><ele>397.0</ele><time>2026-04-19T08:38:30.6Z</time></trkpt><trkpt lat="42.1781683" lon="11.9369817"><ele>397.0</ele><time>2026-04-19T08:38:32.6Z</time></trkpt><trkpt lat="42.1781083" lon="11.9371283"><ele>397.0</ele><time>2026-04-19T08:38:34.6Z</time></trkpt><trkpt lat="42.1780383" lon="11.93724"><ele>399.20000000000005</ele><time>2026-04-19T08:38:35.6Z</time></trkpt><trkpt lat="42.177955" lon="11.937355"><ele>401.4</ele><time>2026-04-19T08:38:36.6Z</time></trkpt><trkpt lat="42.1778683" lon="11.93747"><ele>403.6</ele><time>2026-04-19T08:38:37.6Z</time></trkpt><trkpt lat="42.1778083" lon="11.9375583"><ele>405.79999999999995</ele><time>2026-04-19T08:38:38.6Z</time></trkpt><trkpt lat="42.1777617" lon="11.9376467"><ele>408.0</ele><time>2026-04-19T08:38:39.601Z</time></trkpt><trkpt lat="42.1777233" lon="11.9377317"><ele>408.3333333333333</ele><time>2026-04-19T08:38:40.6Z</time></trkpt><trkpt lat="42.1777" lon="11.9378233"><ele>408.66666666666663</ele><time>2026-04-19T08:38:41.6Z</time></trkpt><trkpt lat="42.1776883" lon="11.9379217"><ele>409.0</ele><time>2026-04-19T08:38:42.6Z</time></trkpt><trkpt lat="42.1776833" lon="11.9380217"><ele>409.3333333333333</ele><time>2026-04-19T08:38:43.6Z</time></trkpt><trkpt lat="42.177685" lon="11.93813"><ele>409.66666666666663</ele><time>2026-04-19T08:38:44.6Z</time></trkpt><trkpt lat="42.1776917" lon="11.9382467"><ele>410.0</ele><time>2026-04-19T08:38:45.6Z</time></trkpt><trkpt lat="42.1776983" lon="11.938385"><ele>409.99999999999994</ele><time>2026-04-19T08:38:46.601Z</time></trkpt><trkpt lat="42.1777" lon="11.938515"><ele>410.0</ele><time>2026-04-19T08:38:47.601Z</time></trkpt><trkpt lat="42.177705" lon="11.9386383"><ele>410.0</ele><time>2026-04-19T08:38:48.6Z</time></trkpt><trkpt lat="42.1777167" lon="11.9387467"><ele>410.0</ele><time>2026-04-19T08:38:49.6Z</time></trkpt><trkpt lat="42.1777233" lon="11.9388483"><ele>409.99999999999994</ele><time>2026-04-19T08:38:50.6Z</time></trkpt><trkpt lat="42.1777317" lon="11.9389483"><ele>410.0</ele><time>2026-04-19T08:38:51.6Z</time></trkpt><trkpt lat="42.1777367" lon="11.9390733"><ele>410.0</ele><time>2026-04-19T08:38:52.6Z</time></trkpt><trkpt lat="42.1777217" lon="11.9392133"><ele>410.0</ele><time>2026-04-19T08:38:53.6Z</time></trkpt><trkpt lat="42.1776967" lon="11.9393333"><ele>410.0</ele><time>2026-04-19T08:38:54.601Z</time></trkpt><trkpt lat="42.177665" lon="11.9394183"><ele>410.0</ele><time>2026-04-19T08:38:55.601Z</time></trkpt><trkpt lat="42.17759" lon="11.9395283"><ele>410.0</ele><time>2026-04-19T08:38:57.6Z</time></trkpt><trkpt lat="42.1775317" lon="11.9396"><ele>409.8333333333333</ele><time>2026-04-19T08:38:58.6Z</time></trkpt><trkpt lat="42.1774633" lon="11.9396933"><ele>409.66666666666663</ele><time>2026-04-19T08:38:59.601Z</time></trkpt><trkpt lat="42.1774" lon="11.9397867"><ele>409.5</ele><time>2026-04-19T08:39:00.6Z</time></trkpt><trkpt lat="42.1773467" lon="11.9398767"><ele>409.33333333333337</ele><time>2026-04-19T08:39:01.601Z</time></trkpt><trkpt lat="42.177305" lon="11.9399683"><ele>409.1666666666667</ele><time>2026-04-19T08:39:02.6Z</time></trkpt><trkpt lat="42.1772817" lon="11.940055"><ele>409.0</ele><time>2026-04-19T08:39:03.6Z</time></trkpt><trkpt lat="42.1772567" lon="11.94015"><ele>408.4</ele><time>2026-04-19T08:39:04.6Z</time></trkpt><trkpt lat="42.177215" lon="11.94025"><ele>407.79999999999995</ele><time>2026-04-19T08:39:05.6Z</time></trkpt><trkpt lat="42.1771567" lon="11.940385"><ele>407.20000000000005</ele><time>2026-04-19T08:39:06.6Z</time></trkpt><trkpt lat="42.177095" lon="11.940525"><ele>406.6</ele><time>2026-04-19T08:39:07.601Z</time></trkpt><trkpt lat="42.1770317" lon="11.9406217"><ele>406.0</ele><time>2026-04-19T08:39:08.6Z</time></trkpt><trkpt lat="42.1769933" lon="11.9407083"><ele>406.0</ele><time>2026-04-19T08:39:09.6Z</time></trkpt><trkpt lat="42.1769667" lon="11.940805"><ele>406.0</ele><time>2026-04-19T08:39:10.601Z</time></trkpt><trkpt lat="42.176955" lon="11.940915"><ele>406.0</ele><time>2026-04-19T08:39:11.6Z</time></trkpt><trkpt lat="42.1769517" lon="11.94105"><ele>406.0</ele><time>2026-04-19T08:39:12.6Z</time></trkpt><trkpt lat="42.1769517" lon="11.9412133"><ele>406.0</ele><time>2026-04-19T08:39:13.6Z</time></trkpt><trkpt lat="42.17694" lon="11.9414083"><ele>405.8</ele><time>2026-04-19T08:39:14.6Z</time></trkpt><trkpt lat="42.1769167" lon="11.94159"><ele>405.6</ele><time>2026-04-19T08:39:15.6Z</time></trkpt><trkpt lat="42.1769033" lon="11.9417283"><ele>405.4</ele><time>2026-04-19T08:39:16.6Z</time></trkpt><trkpt lat="42.1768883" lon="11.9418267"><ele>405.2</ele><time>2026-04-19T08:39:17.6Z</time></trkpt><trkpt lat="42.1768667" lon="11.9419417"><ele>405.0</ele><time>2026-04-19T08:39:40.599Z</time></trkpt><trkpt lat="42.17678" lon="11.941955"><ele>404.25</ele><time>2026-04-19T08:40:03.599Z</time></trkpt><trkpt lat="42.1767" lon="11.9419733"><ele>403.5</ele><time>2026-04-19T08:40:04.599Z</time></trkpt><trkpt lat="42.1765917" lon="11.941995"><ele>402.75</ele><time>2026-04-19T08:40:05.599Z</time></trkpt><trkpt lat="42.1764667" lon="11.942035"><ele>402.0</ele><time>2026-04-19T08:40:06.599Z</time></trkpt><trkpt lat="42.1763333" lon="11.9421133"><ele>402.0</ele><time>2026-04-19T08:40:07.599Z</time></trkpt><trkpt lat="42.1762067" lon="11.942215"><ele>402.0</ele><time>2026-04-19T08:40:08.599Z</time></trkpt><trkpt lat="42.1760983" lon="11.9423283"><ele>402.0</ele><time>2026-04-19T08:40:09.599Z</time></trkpt><trkpt lat="42.1760117" lon="11.9424317"><ele>402.0</ele><time>2026-04-19T08:40:10.599Z</time></trkpt><trkpt lat="42.1759383" lon="11.9425417"><ele>402.0</ele><time>2026-04-19T08:40:11.599Z</time></trkpt><trkpt lat="42.1758867" lon="11.9426633"><ele>402.0</ele><time>2026-04-19T08:40:12.599Z</time></trkpt><trkpt lat="42.1758433" lon="11.9427967"><ele>402.0</ele><time>2026-04-19T08:40:13.599Z</time></trkpt><trkpt lat="42.1758067" lon="11.94293"><ele>402.0</ele><time>2026-04-19T08:40:14.599Z</time></trkpt><trkpt lat="42.1757967" lon="11.94308"><ele>402.0</ele><time>2026-04-19T08:40:15.599Z</time></trkpt><trkpt lat="42.1758" lon="11.9432583"><ele>401.0</ele><time>2026-04-19T08:40:16.599Z</time></trkpt><trkpt lat="42.1758217" lon="11.9434417"><ele>400.0</ele><time>2026-04-19T08:40:17.599Z</time></trkpt><trkpt lat="42.17586" lon="11.9436017"><ele>399.0</ele><time>2026-04-19T08:40:18.599Z</time></trkpt><trkpt lat="42.17591" lon="11.9437317"><ele>398.0</ele><time>2026-04-19T08:40:19.599Z</time></trkpt><trkpt lat="42.17595" lon="11.9438433"><ele>397.99999999999994</ele><time>2026-04-19T08:40:20.599Z</time></trkpt><trkpt lat="42.1759833" lon="11.943935"><ele>398.0</ele><time>2026-04-19T08:40:21.599Z</time></trkpt><trkpt lat="42.176015" lon="11.94402"><ele>398.0</ele><time>2026-04-19T08:40:22.599Z</time></trkpt><trkpt lat="42.17605" lon="11.9441017"><ele>398.0</ele><time>2026-04-19T08:40:23.6Z</time></trkpt><trkpt lat="42.1760817" lon="11.94418"><ele>398.0</ele><time>2026-04-19T08:40:24.599Z</time></trkpt><trkpt lat="42.1761183" lon="11.9442667"><ele>397.99999999999994</ele><time>2026-04-19T08:40:25.599Z</time></trkpt><trkpt lat="42.1761567" lon="11.9443683"><ele>398.0</ele><time>2026-04-19T08:40:26.599Z</time></trkpt><trkpt lat="42.176185" lon="11.944485"><ele>397.0</ele><time>2026-04-19T08:40:27.599Z</time></trkpt><trkpt lat="42.1761983" lon="11.9446017"><ele>396.0</ele><time>2026-04-19T08:40:28.599Z</time></trkpt><trkpt lat="42.1761867" lon="11.9447133"><ele>395.0</ele><time>2026-04-19T08:40:29.599Z</time></trkpt><trkpt lat="42.1761633" lon="11.9448217"><ele>394.0</ele><time>2026-04-19T08:40:30.599Z</time></trkpt><trkpt lat="42.1761217" lon="11.9449317"><ele>393.0</ele><time>2026-04-19T08:40:31.599Z</time></trkpt><trkpt lat="42.176025" lon="11.9450617"><ele>391.5</ele><time>2026-04-19T08:40:32.599Z</time></trkpt><trkpt lat="42.1759233" lon="11.945195"><ele>390.0</ele><time>2026-04-19T08:40:33.599Z</time></trkpt><trkpt lat="42.1758367" lon="11.9453133"><ele>388.5</ele><time>2026-04-19T08:40:34.6Z</time></trkpt><trkpt lat="42.1757617" lon="11.9454133"><ele>387.0</ele><time>2026-04-19T08:40:35.599Z</time></trkpt><trkpt lat="42.175685" lon="11.9454967"><ele>385.0</ele><time>2026-04-19T08:40:36.599Z</time></trkpt><trkpt lat="42.1756" lon="11.9455517"><ele>383.0</ele><time>2026-04-19T08:40:37.6Z</time></trkpt><trkpt lat="42.1755167" lon="11.9456033"><ele>381.0</ele><time>2026-04-19T08:40:38.599Z</time></trkpt><trkpt lat="42.175445" lon="11.94566"><ele>379.0</ele><time>2026-04-19T08:40:39.599Z</time></trkpt><trkpt lat="42.1753817" lon="11.9457267"><ele>377.0</ele><time>2026-04-19T08:40:40.599Z</time></trkpt><trkpt lat="42.17532" lon="11.9458317"><ele>375.0</ele><time>2026-04-19T08:40:41.599Z</time></trkpt><trkpt lat="42.175275" lon="11.9459517"><ele>375.0</ele><time>2026-04-19T08:40:42.599Z</time></trkpt><trkpt lat="42.17523" lon="11.9460667"><ele>375.0</ele><time>2026-04-19T08:40:43.599Z</time></trkpt><trkpt lat="42.1751817" lon="11.94616"><ele>375.0</ele><time>2026-04-19T08:40:44.599Z</time></trkpt><trkpt lat="42.1751267" lon="11.9462417"><ele>375.0</ele><time>2026-04-19T08:40:45.6Z</time></trkpt><trkpt lat="42.17507" lon="11.9463033"><ele>375.0</ele><time>2026-04-19T08:40:46.6Z</time></trkpt><trkpt lat="42.1749583" lon="11.946315"><ele>375.0</ele><time>2026-04-19T08:40:48.6Z</time></trkpt><trkpt lat="42.1748717" lon="11.9461717"><ele>371.8</ele><time>2026-04-19T08:40:50.599Z</time></trkpt><trkpt lat="42.174835" lon="11.9460467"><ele>368.6</ele><time>2026-04-19T08:40:51.599Z</time></trkpt><trkpt lat="42.1747767" lon="11.9459217"><ele>365.4</ele><time>2026-04-19T08:40:52.6Z</time></trkpt><trkpt lat="42.1746983" lon="11.9458317"><ele>362.2</ele><time>2026-04-19T08:40:53.599Z</time></trkpt><trkpt lat="42.1746083" lon="11.945755"><ele>359.0</ele><time>2026-04-19T08:40:54.6Z</time></trkpt><trkpt lat="42.1745067" lon="11.9456817"><ele>358.0</ele><time>2026-04-19T08:40:55.599Z</time></trkpt><trkpt lat="42.1743933" lon="11.9456183"><ele>357.0</ele><time>2026-04-19T08:40:56.6Z</time></trkpt><trkpt lat="42.174265" lon="11.9455567"><ele>356.0</ele><time>2026-04-19T08:40:57.599Z</time></trkpt><trkpt lat="42.1741133" lon="11.9454833"><ele>355.0</ele><time>2026-04-19T08:40:58.599Z</time></trkpt><trkpt lat="42.1739617" lon="11.9454133"><ele>350.0</ele><time>2026-04-19T08:40:59.599Z</time></trkpt><trkpt lat="42.1738017" lon="11.9453683"><ele>345.0</ele><time>2026-04-19T08:41:00.599Z</time></trkpt><trkpt lat="42.1736683" lon="11.94531"><ele>340.0</ele><time>2026-04-19T08:41:01.599Z</time></trkpt><trkpt lat="42.1735283" lon="11.94526"><ele>335.0</ele><time>2026-04-19T08:41:02.599Z</time></trkpt><trkpt lat="42.17339" lon="11.945215"><ele>335.0</ele><time>2026-04-19T08:41:03.6Z</time></trkpt><trkpt lat="42.1732683" lon="11.9451783"><ele>335.0</ele><time>2026-04-19T08:41:04.599Z</time></trkpt><trkpt lat="42.1731667" lon="11.945125"><ele>335.0</ele><time>2026-04-19T08:41:05.599Z</time></trkpt><trkpt lat="42.173075" lon="11.94504"><ele>335.0</ele><time>2026-04-19T08:41:06.599Z</time></trkpt><trkpt lat="42.1729933" lon="11.944935"><ele>333.0</ele><time>2026-04-19T08:41:07.599Z</time></trkpt><trkpt lat="42.1729317" lon="11.9448067"><ele>331.0</ele><time>2026-04-19T08:41:08.599Z</time></trkpt><trkpt lat="42.1728767" lon="11.9446833"><ele>329.0</ele><time>2026-04-19T08:41:09.599Z</time></trkpt><trkpt lat="42.1728383" lon="11.94457"><ele>327.0</ele><time>2026-04-19T08:41:10.599Z</time></trkpt><trkpt lat="42.1727967" lon="11.94448"><ele>325.0</ele><time>2026-04-19T08:41:11.599Z</time></trkpt><trkpt lat="42.1727533" lon="11.9444133"><ele>325.0</ele><time>2026-04-19T08:41:12.599Z</time></trkpt><trkpt lat="42.1726617" lon="11.9444"><ele>325.0</ele><time>2026-04-19T08:41:14.599Z</time></trkpt><trkpt lat="42.1725967" lon="11.94449"><ele>325.0</ele><time>2026-04-19T08:41:16.599Z</time></trkpt><trkpt lat="42.1725883" lon="11.94458"><ele>325.0</ele><time>2026-04-19T08:41:17.599Z</time></trkpt><trkpt lat="42.1725883" lon="11.9446817"><ele>325.0</ele><time>2026-04-19T08:41:18.599Z</time></trkpt><trkpt lat="42.1725917" lon="11.9447817"><ele>325.0</ele><time>2026-04-19T08:41:19.6Z</time></trkpt><trkpt lat="42.1725967" lon="11.944875"><ele>325.0</ele><time>2026-04-19T08:41:20.599Z</time></trkpt><trkpt lat="42.1726267" lon="11.945025"><ele>325.0</ele><time>2026-04-19T08:41:22.6Z</time></trkpt><trkpt lat="42.17267" lon="11.945145"><ele>325.0</ele><time>2026-04-19T08:41:24.599Z</time></trkpt><trkpt lat="42.172695" lon="11.9452533"><ele>325.0</ele><time>2026-04-19T08:41:26.6Z</time></trkpt><trkpt lat="42.1726283" lon="11.94526"><ele>325.0</ele><time>2026-04-19T08:41:29.599Z</time></trkpt><trkpt lat="42.1725333" lon="11.9450817"><ele>325.0</ele><time>2026-04-19T08:41:31.599Z</time></trkpt><trkpt lat="42.1724617" lon="11.9449267"><ele>325.0</ele><time>2026-04-19T08:41:32.599Z</time></trkpt><trkpt lat="42.172365" lon="11.9447433"><ele>325.0</ele><time>2026-04-19T08:41:33.599Z</time></trkpt><trkpt lat="42.1722433" lon="11.9445567"><ele>321.66666666666663</ele><time>2026-04-19T08:41:34.599Z</time></trkpt><trkpt lat="42.1721017" lon="11.9443667"><ele>318.3333333333333</ele><time>2026-04-19T08:41:35.6Z</time></trkpt><trkpt lat="42.17198" lon="11.94419"><ele>315.0</ele><time>2026-04-19T08:41:36.599Z</time></trkpt><trkpt lat="42.1718883" lon="11.9440217"><ele>314.25</ele><time>2026-04-19T08:41:37.599Z</time></trkpt><trkpt lat="42.1718183" lon="11.9438583"><ele>313.5</ele><time>2026-04-19T08:41:38.6Z</time></trkpt><trkpt lat="42.1717233" lon="11.94371"><ele>312.75</ele><time>2026-04-19T08:41:39.599Z</time></trkpt><trkpt lat="42.171615" lon="11.94358"><ele>312.0</ele><time>2026-04-19T08:41:40.599Z</time></trkpt><trkpt lat="42.1714967" lon="11.94347"><ele>313.0</ele><time>2026-04-19T08:41:41.599Z</time></trkpt><trkpt lat="42.1713733" lon="11.9433867"><ele>314.0</ele><time>2026-04-19T08:41:42.599Z</time></trkpt><trkpt lat="42.1712683" lon="11.9433233"><ele>315.0</ele><time>2026-04-19T08:41:43.599Z</time></trkpt><trkpt lat="42.1711617" lon="11.9432367"><ele>316.0</ele><time>2026-04-19T08:41:44.6Z</time></trkpt><trkpt lat="42.1710483" lon="11.9431233"><ele>316.0</ele><time>2026-04-19T08:41:45.599Z</time></trkpt><trkpt lat="42.1709383" lon="11.9429917"><ele>316.0</ele><time>2026-04-19T08:41:46.6Z</time></trkpt><trkpt lat="42.1708133" lon="11.9428817"><ele>316.0</ele><time>2026-04-19T08:41:47.599Z</time></trkpt><trkpt lat="42.1707" lon="11.9427767"><ele>316.0</ele><time>2026-04-19T08:41:48.599Z</time></trkpt><trkpt lat="42.1705867" lon="11.942705"><ele>314.75</ele><time>2026-04-19T08:41:49.599Z</time></trkpt><trkpt lat="42.1704683" lon="11.942655"><ele>313.5</ele><time>2026-04-19T08:41:50.6Z</time></trkpt><trkpt lat="42.1703467" lon="11.9425983"><ele>312.25</ele><time>2026-04-19T08:41:51.599Z</time></trkpt><trkpt lat="42.17024" lon="11.9425233"><ele>311.0</ele><time>2026-04-19T08:41:52.599Z</time></trkpt><trkpt lat="42.170155" lon="11.9424467"><ele>311.0</ele><time>2026-04-19T08:41:53.599Z</time></trkpt><trkpt lat="42.1700883" lon="11.94239"><ele>311.0</ele><time>2026-04-19T08:41:54.599Z</time></trkpt><trkpt lat="42.17002" lon="11.9423483"><ele>311.0</ele><time>2026-04-19T08:41:55.599Z</time></trkpt><trkpt lat="42.1699417" lon="11.9423383"><ele>311.0</ele><time>2026-04-19T08:41:56.599Z</time></trkpt><trkpt lat="42.1698717" lon="11.9423417"><ele>311.0</ele><time>2026-04-19T08:41:57.599Z</time></trkpt><trkpt lat="42.1697583" lon="11.9422667"><ele>311.0</ele><time>2026-04-19T08:41:59.599Z</time></trkpt><trkpt lat="42.1697067" lon="11.9421767"><ele>313.0</ele><time>2026-04-19T08:42:00.599Z</time></trkpt><trkpt lat="42.1696583" lon="11.9420517"><ele>315.0</ele><time>2026-04-19T08:42:01.599Z</time></trkpt><trkpt lat="42.1695867" lon="11.9418967"><ele>317.0</ele><time>2026-04-19T08:42:02.599Z</time></trkpt><trkpt lat="42.1694717" lon="11.9417167"><ele>319.0</ele><time>2026-04-19T08:42:03.6Z</time></trkpt><trkpt lat="42.1693233" lon="11.9415417"><ele>319.0</ele><time>2026-04-19T08:42:04.6Z</time></trkpt><trkpt lat="42.1691767" lon="11.9413983"><ele>319.0</ele><time>2026-04-19T08:42:05.6Z</time></trkpt><trkpt lat="42.16904" lon="11.9412917"><ele>319.0</ele><time>2026-04-19T08:42:06.599Z</time></trkpt><trkpt lat="42.1689017" lon="11.9412033"><ele>324.66666666666663</ele><time>2026-04-19T08:42:07.599Z</time></trkpt><trkpt lat="42.1687567" lon="11.9411617"><ele>330.3333333333333</ele><time>2026-04-19T08:42:08.599Z</time></trkpt><trkpt lat="42.1685983" lon="11.9411383"><ele>336.0</ele><time>2026-04-19T08:42:09.599Z</time></trkpt><trkpt lat="42.1684467" lon="11.94115"><ele>336.0</ele><time>2026-04-19T08:42:10.6Z</time></trkpt><trkpt lat="42.16829" lon="11.9411817"><ele>336.0</ele><time>2026-04-19T08:42:11.599Z</time></trkpt><trkpt lat="42.16814" lon="11.9412217"><ele>336.0</ele><time>2026-04-19T08:42:12.6Z</time></trkpt><trkpt lat="42.1679567" lon="11.9412083"><ele>339.0</ele><time>2026-04-19T08:42:13.599Z</time></trkpt><trkpt lat="42.1677633" lon="11.9411717"><ele>342.0</ele><time>2026-04-19T08:42:14.599Z</time></trkpt><trkpt lat="42.16758" lon="11.9411333"><ele>345.0</ele><time>2026-04-19T08:42:15.599Z</time></trkpt><trkpt lat="42.1674083" lon="11.9410917"><ele>345.5</ele><time>2026-04-19T08:42:16.6Z</time></trkpt><trkpt lat="42.1672533" lon="11.9410667"><ele>346.0</ele><time>2026-04-19T08:42:17.599Z</time></trkpt><trkpt lat="42.16711" lon="11.941055"><ele>346.5</ele><time>2026-04-19T08:42:18.6Z</time></trkpt><trkpt lat="42.1669633" lon="11.9410567"><ele>347.0</ele><time>2026-04-19T08:42:19.6Z</time></trkpt><trkpt lat="42.1668133" lon="11.941075"><ele>347.0</ele><time>2026-04-19T08:42:20.599Z</time></trkpt><trkpt lat="42.166665" lon="11.9411233"><ele>347.0</ele><time>2026-04-19T08:42:21.599Z</time></trkpt><trkpt lat="42.1665233" lon="11.9411867"><ele>347.0</ele><time>2026-04-19T08:42:22.599Z</time></trkpt><trkpt lat="42.1663867" lon="11.94125"><ele>347.0</ele><time>2026-04-19T08:42:23.6Z</time></trkpt><trkpt lat="42.1662417" lon="11.941325"><ele>345.6666666666667</ele><time>2026-04-19T08:42:24.599Z</time></trkpt><trkpt lat="42.1660883" lon="11.9413933"><ele>344.3333333333333</ele><time>2026-04-19T08:42:25.599Z</time></trkpt><trkpt lat="42.1659317" lon="11.9414367"><ele>343.0</ele><time>2026-04-19T08:42:26.599Z</time></trkpt><trkpt lat="42.1657783" lon="11.941465"><ele>342.75</ele><time>2026-04-19T08:42:27.599Z</time></trkpt><trkpt lat="42.16563" lon="11.9414917"><ele>342.5</ele><time>2026-04-19T08:42:28.599Z</time></trkpt><trkpt lat="42.1654933" lon="11.94155"><ele>342.25</ele><time>2026-04-19T08:42:29.599Z</time></trkpt><trkpt lat="42.1653517" lon="11.9416133"><ele>342.0</ele><time>2026-04-19T08:42:30.599Z</time></trkpt><trkpt lat="42.1651967" lon="11.9416933"><ele>344.0</ele><time>2026-04-19T08:42:31.6Z</time></trkpt><trkpt lat="42.1650467" lon="11.9417767"><ele>346.0</ele><time>2026-04-19T08:42:32.599Z</time></trkpt><trkpt lat="42.1649" lon="11.9418517"><ele>348.0</ele><time>2026-04-19T08:42:33.599Z</time></trkpt><trkpt lat="42.1647533" lon="11.9419033"><ele>349.6666666666667</ele><time>2026-04-19T08:42:34.6Z</time></trkpt><trkpt lat="42.1646017" lon="11.94189"><ele>351.33333333333337</ele><time>2026-04-19T08:42:35.599Z</time></trkpt><trkpt lat="42.1644333" lon="11.9418567"><ele>353.0</ele><time>2026-04-19T08:42:36.599Z</time></trkpt><trkpt lat="42.1642817" lon="11.941805"><ele>353.0</ele><time>2026-04-19T08:42:37.6Z</time></trkpt><trkpt lat="42.1641367" lon="11.9417317"><ele>353.0</ele><time>2026-04-19T08:42:38.599Z</time></trkpt><trkpt lat="42.1640133" lon="11.9416567"><ele>353.0</ele><time>2026-04-19T08:42:39.6Z</time></trkpt><trkpt lat="42.16389" lon="11.9416"><ele>353.0</ele><time>2026-04-19T08:42:40.599Z</time></trkpt><trkpt lat="42.1637883" lon="11.9415717"><ele>353.59999999999997</ele><time>2026-04-19T08:42:41.599Z</time></trkpt><trkpt lat="42.1636933" lon="11.9415667"><ele>354.2</ele><time>2026-04-19T08:42:42.599Z</time></trkpt><trkpt lat="42.1636067" lon="11.9415717"><ele>354.8</ele><time>2026-04-19T08:42:43.6Z</time></trkpt><trkpt lat="42.1635217" lon="11.94159"><ele>355.4</ele><time>2026-04-19T08:42:44.599Z</time></trkpt><trkpt lat="42.163435" lon="11.9416183"><ele>356.0</ele><time>2026-04-19T08:42:45.6Z</time></trkpt><trkpt lat="42.163345" lon="11.94166"><ele>358.0</ele><time>2026-04-19T08:42:46.599Z</time></trkpt><trkpt lat="42.1632483" lon="11.9417233"><ele>360.0</ele><time>2026-04-19T08:42:47.599Z</time></trkpt><trkpt lat="42.1631567" lon="11.9418083"><ele>362.0</ele><time>2026-04-19T08:42:48.598Z</time></trkpt><trkpt lat="42.1630617" lon="11.9419067"><ele>364.0</ele><time>2026-04-19T08:42:49.598Z</time></trkpt><trkpt lat="42.1629717" lon="11.942005"><ele>364.0</ele><time>2026-04-19T08:42:50.598Z</time></trkpt><trkpt lat="42.162875" lon="11.9420867"><ele>364.0</ele><time>2026-04-19T08:42:51.598Z</time></trkpt><trkpt lat="42.1627717" lon="11.9421417"><ele>364.0</ele><time>2026-04-19T08:42:52.598Z</time></trkpt><trkpt lat="42.1626633" lon="11.9421783"><ele>364.0</ele><time>2026-04-19T08:42:53.598Z</time></trkpt><trkpt lat="42.162575" lon="11.942195"><ele>364.0</ele><time>2026-04-19T08:42:54.598Z</time></trkpt><trkpt lat="42.1624767" lon="11.94221"><ele>364.0</ele><time>2026-04-19T08:42:56.598Z</time></trkpt><trkpt lat="42.1624117" lon="11.9421483"><ele>364.0</ele><time>2026-04-19T08:42:59.598Z</time></trkpt><trkpt lat="42.1623833" lon="11.9419617"><ele>364.0</ele><time>2026-04-19T08:43:01.599Z</time></trkpt><trkpt lat="42.162365" lon="11.941845"><ele>364.0</ele><time>2026-04-19T08:43:02.598Z</time></trkpt><trkpt lat="42.1623317" lon="11.9417183"><ele>364.0</ele><time>2026-04-19T08:43:03.598Z</time></trkpt><trkpt lat="42.1622917" lon="11.94158"><ele>369.0</ele><time>2026-04-19T08:43:04.598Z</time></trkpt><trkpt lat="42.162245" lon="11.94145"><ele>374.0</ele><time>2026-04-19T08:43:05.598Z</time></trkpt><trkpt lat="42.1621833" lon="11.94132"><ele>379.0</ele><time>2026-04-19T08:43:06.598Z</time></trkpt><trkpt lat="42.162125" lon="11.9411833"><ele>384.0</ele><time>2026-04-19T08:43:07.598Z</time></trkpt><trkpt lat="42.1620717" lon="11.9410617"><ele>389.0</ele><time>2026-04-19T08:43:08.599Z</time></trkpt><trkpt lat="42.1620333" lon="11.940965"><ele>389.79999999999995</ele><time>2026-04-19T08:43:09.598Z</time></trkpt><trkpt lat="42.1619867" lon="11.9408433"><ele>390.59999999999997</ele><time>2026-04-19T08:43:11.599Z</time></trkpt><trkpt lat="42.1619417" lon="11.9407517"><ele>391.4</ele><time>2026-04-19T08:43:25.598Z</time></trkpt><trkpt lat="42.1618883" lon="11.9406633"><ele>392.2</ele><time>2026-04-19T08:43:26.598Z</time></trkpt><trkpt lat="42.16183" lon="11.9405467"><ele>393.0</ele><time>2026-04-19T08:43:27.598Z</time></trkpt><trkpt lat="42.1617667" lon="11.9404117"><ele>393.0</ele><time>2026-04-19T08:43:28.598Z</time></trkpt><trkpt lat="42.1617" lon="11.940255"><ele>393.0</ele><time>2026-04-19T08:43:29.598Z</time></trkpt><trkpt lat="42.161625" lon="11.940115"><ele>393.0</ele><time>2026-04-19T08:43:30.598Z</time></trkpt><trkpt lat="42.16155" lon="11.9400167"><ele>393.0</ele><time>2026-04-19T08:43:31.598Z</time></trkpt><trkpt lat="42.16146" lon="11.9399433"><ele>390.25</ele><time>2026-04-19T08:43:32.598Z</time></trkpt><trkpt lat="42.1613367" lon="11.939925"><ele>387.5</ele><time>2026-04-19T08:43:33.598Z</time></trkpt><trkpt lat="42.1612017" lon="11.9399317"><ele>384.75</ele><time>2026-04-19T08:43:34.598Z</time></trkpt><trkpt lat="42.1610533" lon="11.9399517"><ele>382.0</ele><time>2026-04-19T08:43:35.599Z</time></trkpt><trkpt lat="42.1609067" lon="11.9399733"><ele>382.0</ele><time>2026-04-19T08:43:36.598Z</time></trkpt><trkpt lat="42.1607683" lon="11.94"><ele>382.0</ele><time>2026-04-19T08:43:37.598Z</time></trkpt><trkpt lat="42.160635" lon="11.9400417"><ele>382.0</ele><time>2026-04-19T08:43:38.599Z</time></trkpt><trkpt lat="42.1605167" lon="11.94011"><ele>382.0</ele><time>2026-04-19T08:43:39.599Z</time></trkpt><trkpt lat="42.1604183" lon="11.9402267"><ele>384.75</ele><time>2026-04-19T08:43:40.598Z</time></trkpt><trkpt lat="42.1603433" lon="11.9403767"><ele>387.5</ele><time>2026-04-19T08:43:41.598Z</time></trkpt><trkpt lat="42.160285" lon="11.9405367"><ele>390.25</ele><time>2026-04-19T08:43:42.598Z</time></trkpt><trkpt lat="42.1602433" lon="11.9406967"><ele>393.0</ele><time>2026-04-19T08:43:43.598Z</time></trkpt><trkpt lat="42.1602167" lon="11.94087"><ele>393.75</ele><time>2026-04-19T08:43:44.598Z</time></trkpt><trkpt lat="42.1601817" lon="11.9410333"><ele>394.5</ele><time>2026-04-19T08:43:45.599Z</time></trkpt><trkpt lat="42.16013" lon="11.94123"><ele>395.25</ele><time>2026-04-19T08:43:46.598Z</time></trkpt><trkpt lat="42.1600767" lon="11.9414067"><ele>396.0</ele><time>2026-04-19T08:43:47.598Z</time></trkpt><trkpt lat="42.1600083" lon="11.9415683"><ele>396.5</ele><time>2026-04-19T08:43:48.598Z</time></trkpt><trkpt lat="42.1599183" lon="11.9417183"><ele>397.0</ele><time>2026-04-19T08:43:49.598Z</time></trkpt><trkpt lat="42.1598167" lon="11.941855"><ele>397.5</ele><time>2026-04-19T08:43:50.598Z</time></trkpt><trkpt lat="42.159705" lon="11.9419883"><ele>398.0</ele><time>2026-04-19T08:43:51.598Z</time></trkpt><trkpt lat="42.15958" lon="11.9421083"><ele>398.0</ele><time>2026-04-19T08:43:52.598Z</time></trkpt><trkpt lat="42.159455" lon="11.9422083"><ele>398.0</ele><time>2026-04-19T08:43:53.599Z</time></trkpt><trkpt lat="42.1593317" lon="11.9422733"><ele>398.0</ele><time>2026-04-19T08:43:54.598Z</time></trkpt><trkpt lat="42.159215" lon="11.9422967"><ele>398.0</ele><time>2026-04-19T08:43:55.598Z</time></trkpt><trkpt lat="42.1591017" lon="11.9422667"><ele>398.75</ele><time>2026-04-19T08:43:56.598Z</time></trkpt><trkpt lat="42.1590033" lon="11.942185"><ele>399.5</ele><time>2026-04-19T08:43:57.598Z</time></trkpt><trkpt lat="42.1589017" lon="11.9420667"><ele>400.25</ele><time>2026-04-19T08:43:58.599Z</time></trkpt><trkpt lat="42.158805" lon="11.9419383"><ele>401.0</ele><time>2026-04-19T08:43:59.598Z</time></trkpt><trkpt lat="42.1586917" lon="11.9418133"><ele>405.25</ele><time>2026-04-19T08:44:00.599Z</time></trkpt><trkpt lat="42.1585733" lon="11.9417133"><ele>409.5</ele><time>2026-04-19T08:44:01.598Z</time></trkpt><trkpt lat="42.158445" lon="11.941655"><ele>413.75</ele><time>2026-04-19T08:44:02.599Z</time></trkpt><trkpt lat="42.1583133" lon="11.9416367"><ele>418.0</ele><time>2026-04-19T08:44:03.598Z</time></trkpt><trkpt lat="42.1581783" lon="11.94167"><ele>420.0</ele><time>2026-04-19T08:44:04.598Z</time></trkpt><trkpt lat="42.1580367" lon="11.9417317"><ele>422.0</ele><time>2026-04-19T08:44:05.598Z</time></trkpt><trkpt lat="42.157905" lon="11.9417867"><ele>424.0</ele><time>2026-04-19T08:44:06.598Z</time></trkpt><trkpt lat="42.1577667" lon="11.9418717"><ele>426.0</ele><time>2026-04-19T08:44:07.599Z</time></trkpt><trkpt lat="42.1576383" lon="11.9419367"><ele>426.0</ele><time>2026-04-19T08:44:08.599Z</time></trkpt><trkpt lat="42.1575083" lon="11.9420217"><ele>426.0</ele><time>2026-04-19T08:44:09.598Z</time></trkpt><trkpt lat="42.1573933" lon="11.9421567"><ele>426.0</ele><time>2026-04-19T08:44:10.598Z</time></trkpt><trkpt lat="42.1572883" lon="11.9423217"><ele>423.5</ele><time>2026-04-19T08:44:11.598Z</time></trkpt><trkpt lat="42.1571983" lon="11.9424733"><ele>421.0</ele><time>2026-04-19T08:44:12.598Z</time></trkpt><trkpt lat="42.1571133" lon="11.9425983"><ele>418.5</ele><time>2026-04-19T08:44:13.598Z</time></trkpt><trkpt lat="42.1570067" lon="11.9427133"><ele>416.0</ele><time>2026-04-19T08:44:14.598Z</time></trkpt><trkpt lat="42.15689" lon="11.9428017"><ele>416.0</ele><time>2026-04-19T08:44:15.598Z</time></trkpt><trkpt lat="42.15676" lon="11.942875"><ele>416.0</ele><time>2026-04-19T08:44:16.598Z</time></trkpt><trkpt lat="42.1566283" lon="11.9429117"><ele>416.0</ele><time>2026-04-19T08:44:17.599Z</time></trkpt><trkpt lat="42.1565" lon="11.9429133"><ele>416.0</ele><time>2026-04-19T08:44:18.598Z</time></trkpt><trkpt lat="42.1563683" lon="11.942885"><ele>412.0</ele><time>2026-04-19T08:44:19.598Z</time></trkpt><trkpt lat="42.1562317" lon="11.9428133"><ele>408.0</ele><time>2026-04-19T08:44:20.598Z</time></trkpt><trkpt lat="42.1561133" lon="11.9426733"><ele>404.0</ele><time>2026-04-19T08:44:21.598Z</time></trkpt><trkpt lat="42.15601" lon="11.94253"><ele>409.5</ele><time>2026-04-19T08:44:22.598Z</time></trkpt><trkpt lat="42.1559217" lon="11.94237"><ele>415.0</ele><time>2026-04-19T08:44:23.598Z</time></trkpt><trkpt lat="42.1558467" lon="11.94221"><ele>420.5</ele><time>2026-04-19T08:44:24.598Z</time></trkpt><trkpt lat="42.1557583" lon="11.9420567"><ele>426.0</ele><time>2026-04-19T08:44:25.598Z</time></trkpt><trkpt lat="42.1556417" lon="11.94192"><ele>426.0</ele><time>2026-04-19T08:44:26.599Z</time></trkpt><trkpt lat="42.1555283" lon="11.941785"><ele>426.0</ele><time>2026-04-19T08:44:27.598Z</time></trkpt><trkpt lat="42.15542" lon="11.941645"><ele>426.0</ele><time>2026-04-19T08:44:28.598Z</time></trkpt><trkpt lat="42.155315" lon="11.941505"><ele>426.0</ele><time>2026-04-19T08:44:29.599Z</time></trkpt><trkpt lat="42.1552067" lon="11.9413667"><ele>428.0</ele><time>2026-04-19T08:44:30.599Z</time></trkpt><trkpt lat="42.1551033" lon="11.94122"><ele>430.0</ele><time>2026-04-19T08:44:31.599Z</time></trkpt><trkpt lat="42.155015" lon="11.94107"><ele>432.0</ele><time>2026-04-19T08:44:32.598Z</time></trkpt><trkpt lat="42.1549383" lon="11.9409267"><ele>434.0</ele><time>2026-04-19T08:44:33.598Z</time></trkpt><trkpt lat="42.154865" lon="11.94079"><ele>436.5</ele><time>2026-04-19T08:44:34.599Z</time></trkpt><trkpt lat="42.1547967" lon="11.94065"><ele>439.0</ele><time>2026-04-19T08:44:35.598Z</time></trkpt><trkpt lat="42.1547417" lon="11.9404967"><ele>441.5</ele><time>2026-04-19T08:44:36.598Z</time></trkpt><trkpt lat="42.1547017" lon="11.9403433"><ele>444.0</ele><time>2026-04-19T08:44:37.598Z</time></trkpt><trkpt lat="42.1546717" lon="11.9401983"><ele>444.0</ele><time>2026-04-19T08:44:38.598Z</time></trkpt><trkpt lat="42.1546517" lon="11.940055"><ele>444.0</ele><time>2026-04-19T08:44:39.598Z</time></trkpt><trkpt lat="42.1546333" lon="11.939925"><ele>444.0</ele><time>2026-04-19T08:44:40.598Z</time></trkpt><trkpt lat="42.154615" lon="11.9398067"><ele>444.0</ele><time>2026-04-19T08:44:41.598Z</time></trkpt><trkpt lat="42.1545883" lon="11.939685"><ele>444.0</ele><time>2026-04-19T08:44:42.598Z</time></trkpt><trkpt lat="42.1545517" lon="11.93956"><ele>445.2</ele><time>2026-04-19T08:44:43.598Z</time></trkpt><trkpt lat="42.1544783" lon="11.9394617"><ele>446.4</ele><time>2026-04-19T08:44:44.598Z</time></trkpt><trkpt lat="42.1543867" lon="11.939385"><ele>447.6</ele><time>2026-04-19T08:44:45.598Z</time></trkpt><trkpt lat="42.1542883" lon="11.9393433"><ele>448.8</ele><time>2026-04-19T08:44:46.598Z</time></trkpt><trkpt lat="42.1541733" lon="11.939325"><ele>450.0</ele><time>2026-04-19T08:44:47.599Z</time></trkpt><trkpt lat="42.15406" lon="11.93933"><ele>453.8</ele><time>2026-04-19T08:44:48.599Z</time></trkpt><trkpt lat="42.1539467" lon="11.939345"><ele>457.6</ele><time>2026-04-19T08:44:49.598Z</time></trkpt><trkpt lat="42.15384" lon="11.9393567"><ele>461.4</ele><time>2026-04-19T08:44:50.598Z</time></trkpt><trkpt lat="42.1537467" lon="11.9393767"><ele>465.2</ele><time>2026-04-19T08:44:51.599Z</time></trkpt><trkpt lat="42.1536633" lon="11.93939"><ele>469.0</ele><time>2026-04-19T08:44:52.598Z</time></trkpt><trkpt lat="42.153585" lon="11.9394067"><ele>469.0</ele><time>2026-04-19T08:44:53.598Z</time></trkpt><trkpt lat="42.1535" lon="11.9394383"><ele>469.0</ele><time>2026-04-19T08:44:54.598Z</time></trkpt><trkpt lat="42.1534267" lon="11.9395133"><ele>469.0</ele><time>2026-04-19T08:44:55.598Z</time></trkpt><trkpt lat="42.15338" lon="11.9396233"><ele>469.0</ele><time>2026-04-19T08:44:56.598Z</time></trkpt><trkpt lat="42.153375" lon="11.9397583"><ele>469.0</ele><time>2026-04-19T08:44:57.598Z</time></trkpt><trkpt lat="42.1534033" lon="11.9399217"><ele>469.5</ele><time>2026-04-19T08:44:58.598Z</time></trkpt><trkpt lat="42.1534433" lon="11.9401033"><ele>470.0</ele><time>2026-04-19T08:44:59.599Z</time></trkpt><trkpt lat="42.1534783" lon="11.94027"><ele>470.5</ele><time>2026-04-19T08:45:00.598Z</time></trkpt><trkpt lat="42.153515" lon="11.940435"><ele>471.0</ele><time>2026-04-19T08:45:01.598Z</time></trkpt><trkpt lat="42.1535467" lon="11.9405983"><ele>471.0</ele><time>2026-04-19T08:45:02.598Z</time></trkpt><trkpt lat="42.1535667" lon="11.9407467"><ele>471.0</ele><time>2026-04-19T08:45:03.598Z</time></trkpt><trkpt lat="42.1535467" lon="11.9408817"><ele>471.0</ele><time>2026-04-19T08:45:04.598Z</time></trkpt><trkpt lat="42.15351" lon="11.9409933"><ele>471.0</ele><time>2026-04-19T08:45:05.598Z</time></trkpt><trkpt lat="42.1534567" lon="11.9410883"><ele>471.0</ele><time>2026-04-19T08:45:06.598Z</time></trkpt><trkpt lat="42.15339" lon="11.94117"><ele>471.20000000000005</ele><time>2026-04-19T08:45:07.598Z</time></trkpt><trkpt lat="42.15332" lon="11.9412483"><ele>471.40000000000003</ele><time>2026-04-19T08:45:08.598Z</time></trkpt><trkpt lat="42.1532417" lon="11.9413283"><ele>471.6</ele><time>2026-04-19T08:45:09.599Z</time></trkpt><trkpt lat="42.1531683" lon="11.941395"><ele>471.8</ele><time>2026-04-19T08:45:10.598Z</time></trkpt><trkpt lat="42.1530983" lon="11.9414517"><ele>472.0</ele><time>2026-04-19T08:45:11.598Z</time></trkpt><trkpt lat="42.1529683" lon="11.9414417"><ele>473.2857142857143</ele><time>2026-04-19T08:45:13.598Z</time></trkpt><trkpt lat="42.1529033" lon="11.9413867"><ele>474.57142857142856</ele><time>2026-04-19T08:45:14.598Z</time></trkpt><trkpt lat="42.1528533" lon="11.9413167"><ele>475.85714285714283</ele><time>2026-04-19T08:45:15.598Z</time></trkpt><trkpt lat="42.1527883" lon="11.9412617"><ele>477.1428571428571</ele><time>2026-04-19T08:45:16.598Z</time></trkpt><trkpt lat="42.1527267" lon="11.94123"><ele>478.42857142857144</ele><time>2026-04-19T08:45:17.598Z</time></trkpt><trkpt lat="42.1526633" lon="11.941185"><ele>479.71428571428567</ele><time>2026-04-19T08:45:18.599Z</time></trkpt><trkpt lat="42.1526133" lon="11.9411167"><ele>480.99999999999994</ele><time>2026-04-19T08:45:19.599Z</time></trkpt><trkpt lat="42.1525433" lon="11.9409633"><ele>480.99999999999994</ele><time>2026-04-19T08:45:21.598Z</time></trkpt><trkpt lat="42.1525033" lon="11.9408917"><ele>481.0</ele><time>2026-04-19T08:45:22.598Z</time></trkpt><trkpt lat="42.1524467" lon="11.9408283"><ele>480.99999999999994</ele><time>2026-04-19T08:45:23.599Z</time></trkpt><trkpt lat="42.152385" lon="11.9407733"><ele>480.99999999999994</ele><time>2026-04-19T08:45:24.599Z</time></trkpt><trkpt lat="42.152325" lon="11.94072"><ele>481.0</ele><time>2026-04-19T08:45:25.598Z</time></trkpt><trkpt lat="42.1522633" lon="11.94067"><ele>480.99999999999994</ele><time>2026-04-19T08:45:26.598Z</time></trkpt><trkpt lat="42.1522017" lon="11.9406133"><ele>480.99999999999994</ele><time>2026-04-19T08:45:27.599Z</time></trkpt><trkpt lat="42.1521367" lon="11.94056"><ele>478.5714285714285</ele><time>2026-04-19T08:45:28.599Z</time></trkpt><trkpt lat="42.1520767" lon="11.9405117"><ele>476.1428571428571</ele><time>2026-04-19T08:45:29.598Z</time></trkpt><trkpt lat="42.1520183" lon="11.9404667"><ele>473.7142857142857</ele><time>2026-04-19T08:45:30.598Z</time></trkpt><trkpt lat="42.151965" lon="11.94042"><ele>471.2857142857143</ele><time>2026-04-19T08:45:31.598Z</time></trkpt><trkpt lat="42.151915" lon="11.9403683"><ele>468.8571428571429</ele><time>2026-04-19T08:45:32.599Z</time></trkpt><trkpt lat="42.1518583" lon="11.94031"><ele>466.4285714285715</ele><time>2026-04-19T08:45:33.598Z</time></trkpt><trkpt lat="42.151805" lon="11.9402317"><ele>464.00000000000006</ele><time>2026-04-19T08:45:34.598Z</time></trkpt><trkpt lat="42.1517567" lon="11.9401683"><ele>464.0</ele><time>2026-04-19T08:45:35.598Z</time></trkpt><trkpt lat="42.15166" lon="11.9400683"><ele>464.0</ele><time>2026-04-19T08:45:37.598Z</time></trkpt><trkpt lat="42.1515783" lon="11.9399683"><ele>464.0</ele><time>2026-04-19T08:45:39.598Z</time></trkpt><trkpt lat="42.151505" lon="11.9399017"><ele>464.0</ele><time>2026-04-19T08:45:41.598Z</time></trkpt><trkpt lat="42.1514167" lon="11.9398317"><ele>464.0</ele><time>2026-04-19T08:45:43.598Z</time></trkpt><trkpt lat="42.1513333" lon="11.9397433"><ele>463.2</ele><time>2026-04-19T08:45:45.598Z</time></trkpt><trkpt lat="42.1512617" lon="11.9396633"><ele>462.4</ele><time>2026-04-19T08:45:47.599Z</time></trkpt><trkpt lat="42.1511767" lon="11.93959"><ele>461.6</ele><time>2026-04-19T08:45:49.598Z</time></trkpt><trkpt lat="42.1510833" lon="11.9394967"><ele>460.8</ele><time>2026-04-19T08:45:51.598Z</time></trkpt><trkpt lat="42.1510267" lon="11.9394533"><ele>460.0</ele><time>2026-04-19T08:45:52.598Z</time></trkpt><trkpt lat="42.1509133" lon="11.939375"><ele>460.0</ele><time>2026-04-19T08:45:54.598Z</time></trkpt><trkpt lat="42.1508117" lon="11.9392867"><ele>460.0</ele><time>2026-04-19T08:45:56.598Z</time></trkpt><trkpt lat="42.1507517" lon="11.9392467"><ele>460.0</ele><time>2026-04-19T08:45:57.598Z</time></trkpt><trkpt lat="42.15069" lon="11.9392067"><ele>460.0</ele><time>2026-04-19T08:45:58.598Z</time></trkpt><trkpt lat="42.1505767" lon="11.9391417"><ele>460.0</ele><time>2026-04-19T08:46:00.599Z</time></trkpt><trkpt lat="42.1504883" lon="11.9390667"><ele>463.0</ele><time>2026-04-19T08:46:02.597Z</time></trkpt><trkpt lat="42.1504117" lon="11.9390033"><ele>466.0</ele><time>2026-04-19T08:46:04.597Z</time></trkpt><trkpt lat="42.1503233" lon="11.9389233"><ele>469.0</ele><time>2026-04-19T08:46:06.597Z</time></trkpt><trkpt lat="42.150265" lon="11.9388133"><ele>472.0</ele><time>2026-04-19T08:46:08.597Z</time></trkpt><trkpt lat="42.150195" lon="11.9387283"><ele>475.0</ele><time>2026-04-19T08:46:10.597Z</time></trkpt><trkpt lat="42.1501533" lon="11.9386267"><ele>475.00000000000006</ele><time>2026-04-19T08:46:12.597Z</time></trkpt><trkpt lat="42.150115" lon="11.9385133"><ele>475.0</ele><time>2026-04-19T08:46:14.598Z</time></trkpt><trkpt lat="42.1501233" lon="11.93837"><ele>475.0</ele><time>2026-04-19T08:46:16.597Z</time></trkpt><trkpt lat="42.15015" lon="11.9382867"><ele>475.0</ele><time>2026-04-19T08:46:17.597Z</time></trkpt><trkpt lat="42.1501567" lon="11.9381967"><ele>475.00000000000006</ele><time>2026-04-19T08:46:18.597Z</time></trkpt><trkpt lat="42.1501617" lon="11.9380917"><ele>475.0</ele><time>2026-04-19T08:46:19.597Z</time></trkpt><trkpt lat="42.150175" lon="11.9379633"><ele>477.25</ele><time>2026-04-19T08:46:20.597Z</time></trkpt><trkpt lat="42.1501867" lon="11.9377983"><ele>479.5</ele><time>2026-04-19T08:46:21.597Z</time></trkpt><trkpt lat="42.1502067" lon="11.9376433"><ele>481.75</ele><time>2026-04-19T08:46:22.597Z</time></trkpt><trkpt lat="42.1502083" lon="11.93748"><ele>484.0</ele><time>2026-04-19T08:46:23.597Z</time></trkpt><trkpt lat="42.1502083" lon="11.93734"><ele>484.4</ele><time>2026-04-19T08:46:24.598Z</time></trkpt><trkpt lat="42.1502133" lon="11.9372183"><ele>484.79999999999995</ele><time>2026-04-19T08:46:25.597Z</time></trkpt><trkpt lat="42.1502267" lon="11.9371083"><ele>485.20000000000005</ele><time>2026-04-19T08:46:26.597Z</time></trkpt><trkpt lat="42.150235" lon="11.9370117"><ele>485.6</ele><time>2026-04-19T08:46:27.597Z</time></trkpt><trkpt lat="42.1502167" lon="11.9368733"><ele>486.0</ele><time>2026-04-19T08:46:29.597Z</time></trkpt><trkpt lat="42.1501867" lon="11.93674"><ele>485.8333333333333</ele><time>2026-04-19T08:46:31.597Z</time></trkpt><trkpt lat="42.15019" lon="11.9366483"><ele>485.66666666666663</ele><time>2026-04-19T08:46:32.597Z</time></trkpt><trkpt lat="42.1501933" lon="11.9365317"><ele>485.5</ele><time>2026-04-19T08:46:33.597Z</time></trkpt><trkpt lat="42.1502" lon="11.936425"><ele>485.3333333333333</ele><time>2026-04-19T08:46:34.597Z</time></trkpt><trkpt lat="42.1502133" lon="11.9363217"><ele>485.16666666666663</ele><time>2026-04-19T08:46:35.597Z</time></trkpt><trkpt lat="42.1502183" lon="11.9361983"><ele>485.0</ele><time>2026-04-19T08:46:36.598Z</time></trkpt><trkpt lat="42.1502117" lon="11.9360333"><ele>485.2</ele><time>2026-04-19T08:46:37.598Z</time></trkpt><trkpt lat="42.1501967" lon="11.935885"><ele>485.4</ele><time>2026-04-19T08:46:38.597Z</time></trkpt><trkpt lat="42.1501883" lon="11.93575"><ele>485.6</ele><time>2026-04-19T08:46:39.597Z</time></trkpt><trkpt lat="42.1501783" lon="11.9356367"><ele>485.8</ele><time>2026-04-19T08:46:40.597Z</time></trkpt><trkpt lat="42.1501717" lon="11.9355133"><ele>486.0</ele><time>2026-04-19T08:46:41.597Z</time></trkpt><trkpt lat="42.1501717" lon="11.935395"><ele>486.0</ele><time>2026-04-19T08:46:42.597Z</time></trkpt><trkpt lat="42.1501733" lon="11.935285"><ele>486.0</ele><time>2026-04-19T08:46:43.597Z</time></trkpt><trkpt lat="42.15018" lon="11.9351767"><ele>486.0</ele><time>2026-04-19T08:46:44.597Z</time></trkpt><trkpt lat="42.150175" lon="11.9350567"><ele>486.0</ele><time>2026-04-19T08:46:45.598Z</time></trkpt><trkpt lat="42.1501683" lon="11.93493"><ele>486.0</ele><time>2026-04-19T08:46:46.597Z</time></trkpt><trkpt lat="42.1501567" lon="11.9348017"><ele>486.0</ele><time>2026-04-19T08:46:47.597Z</time></trkpt><trkpt lat="42.15015" lon="11.9346483"><ele>486.20000000000005</ele><time>2026-04-19T08:46:48.597Z</time></trkpt><trkpt lat="42.15014" lon="11.9344983"><ele>486.40000000000003</ele><time>2026-04-19T08:46:49.597Z</time></trkpt><trkpt lat="42.15011" lon="11.9343467"><ele>486.6</ele><time>2026-04-19T08:46:50.598Z</time></trkpt><trkpt lat="42.1500633" lon="11.9342283"><ele>486.8</ele><time>2026-04-19T08:46:51.597Z</time></trkpt><trkpt lat="42.15001" lon="11.9341133"><ele>487.0</ele><time>2026-04-19T08:46:52.597Z</time></trkpt><trkpt lat="42.149955" lon="11.933985"><ele>488.5</ele><time>2026-04-19T08:46:53.597Z</time></trkpt><trkpt lat="42.14989" lon="11.93385"><ele>490.0</ele><time>2026-04-19T08:46:54.597Z</time></trkpt><trkpt lat="42.149815" lon="11.9337217"><ele>491.5</ele><time>2026-04-19T08:46:55.597Z</time></trkpt><trkpt lat="42.149745" lon="11.9335917"><ele>493.0</ele><time>2026-04-19T08:46:56.597Z</time></trkpt><trkpt lat="42.1496717" lon="11.93347"><ele>490.4</ele><time>2026-04-19T08:46:57.597Z</time></trkpt><trkpt lat="42.1496117" lon="11.933335"><ele>487.79999999999995</ele><time>2026-04-19T08:46:58.597Z</time></trkpt><trkpt lat="42.14955" lon="11.9332117"><ele>485.2</ele><time>2026-04-19T08:46:59.597Z</time></trkpt><trkpt lat="42.1494933" lon="11.9330817"><ele>482.6</ele><time>2026-04-19T08:47:00.597Z</time></trkpt><trkpt lat="42.149445" lon="11.9329517"><ele>480.0</ele><time>2026-04-19T08:47:01.597Z</time></trkpt><trkpt lat="42.1494" lon="11.9328117"><ele>480.0</ele><time>2026-04-19T08:47:02.597Z</time></trkpt><trkpt lat="42.1493667" lon="11.9326833"><ele>480.0</ele><time>2026-04-19T08:47:03.597Z</time></trkpt><trkpt lat="42.1493367" lon="11.93255"><ele>480.0</ele><time>2026-04-19T08:47:04.598Z</time></trkpt><trkpt lat="42.1493267" lon="11.9324133"><ele>480.0</ele><time>2026-04-19T08:47:05.597Z</time></trkpt><trkpt lat="42.14932" lon="11.93228"><ele>480.0</ele><time>2026-04-19T08:47:06.597Z</time></trkpt><trkpt lat="42.1493267" lon="11.93215"><ele>483.5</ele><time>2026-04-19T08:47:07.597Z</time></trkpt><trkpt lat="42.149345" lon="11.93201"><ele>487.0</ele><time>2026-04-19T08:47:08.597Z</time></trkpt><trkpt lat="42.1493767" lon="11.9318617"><ele>490.5</ele><time>2026-04-19T08:47:09.597Z</time></trkpt><trkpt lat="42.1494183" lon="11.9317217"><ele>494.0</ele><time>2026-04-19T08:47:10.597Z</time></trkpt><trkpt lat="42.1494683" lon="11.931575"><ele>494.5</ele><time>2026-04-19T08:47:11.597Z</time></trkpt><trkpt lat="42.1495283" lon="11.9314167"><ele>495.0</ele><time>2026-04-19T08:47:12.597Z</time></trkpt><trkpt lat="42.1495983" lon="11.9312667"><ele>495.5</ele><time>2026-04-19T08:47:13.598Z</time></trkpt><trkpt lat="42.1496517" lon="11.9311233"><ele>496.0</ele><time>2026-04-19T08:47:14.597Z</time></trkpt><trkpt lat="42.14969" lon="11.9309883"><ele>494.25</ele><time>2026-04-19T08:47:15.598Z</time></trkpt><trkpt lat="42.1497333" lon="11.9308417"><ele>492.5</ele><time>2026-04-19T08:47:16.598Z</time></trkpt><trkpt lat="42.1497833" lon="11.9306717"><ele>490.75</ele><time>2026-04-19T08:47:17.597Z</time></trkpt><trkpt lat="42.1498367" lon="11.9305"><ele>489.0</ele><time>2026-04-19T08:47:18.598Z</time></trkpt><trkpt lat="42.149885" lon="11.930335"><ele>492.6</ele><time>2026-04-19T08:47:19.598Z</time></trkpt><trkpt lat="42.1499217" lon="11.9301883"><ele>496.2</ele><time>2026-04-19T08:47:20.597Z</time></trkpt><trkpt lat="42.1499517" lon="11.9300483"><ele>499.80000000000007</ele><time>2026-04-19T08:47:21.598Z</time></trkpt><trkpt lat="42.149995" lon="11.929925"><ele>503.40000000000003</ele><time>2026-04-19T08:47:22.597Z</time></trkpt><trkpt lat="42.1500367" lon="11.9298033"><ele>507.0</ele><time>2026-04-19T08:47:23.597Z</time></trkpt><trkpt lat="42.15009" lon="11.929675"><ele>507.0</ele><time>2026-04-19T08:47:24.597Z</time></trkpt><trkpt lat="42.1501483" lon="11.9295467"><ele>507.00000000000006</ele><time>2026-04-19T08:47:25.597Z</time></trkpt><trkpt lat="42.150205" lon="11.929435"><ele>507.00000000000006</ele><time>2026-04-19T08:47:26.597Z</time></trkpt><trkpt lat="42.15027" lon="11.9293533"><ele>507.0</ele><time>2026-04-19T08:47:27.597Z</time></trkpt><trkpt lat="42.1503333" lon="11.92929"><ele>507.0</ele><time>2026-04-19T08:47:28.597Z</time></trkpt><trkpt lat="42.1503867" lon="11.929205"><ele>508.0</ele><time>2026-04-19T08:47:29.597Z</time></trkpt><trkpt lat="42.1504283" lon="11.9290917"><ele>509.0</ele><time>2026-04-19T08:47:30.597Z</time></trkpt><trkpt lat="42.1504667" lon="11.92896"><ele>510.0</ele><time>2026-04-19T08:47:31.597Z</time></trkpt><trkpt lat="42.1505017" lon="11.9287833"><ele>511.0</ele><time>2026-04-19T08:47:32.598Z</time></trkpt><trkpt lat="42.1505367" lon="11.9286017"><ele>511.0</ele><time>2026-04-19T08:47:33.597Z</time></trkpt><trkpt lat="42.1505567" lon="11.9284467"><ele>511.0</ele><time>2026-04-19T08:47:34.597Z</time></trkpt><trkpt lat="42.1505833" lon="11.9282983"><ele>511.0</ele><time>2026-04-19T08:47:35.597Z</time></trkpt><trkpt lat="42.150615" lon="11.9281583"><ele>511.0</ele><time>2026-04-19T08:47:36.597Z</time></trkpt><trkpt lat="42.1506433" lon="11.9280333"><ele>511.0</ele><time>2026-04-19T08:47:37.598Z</time></trkpt><trkpt lat="42.1506667" lon="11.927915"><ele>511.8</ele><time>2026-04-19T08:47:38.597Z</time></trkpt><trkpt lat="42.1506917" lon="11.927795"><ele>512.6</ele><time>2026-04-19T08:47:39.597Z</time></trkpt><trkpt lat="42.1507133" lon="11.9276633"><ele>513.4</ele><time>2026-04-19T08:47:40.597Z</time></trkpt><trkpt lat="42.1507283" lon="11.9275017"><ele>514.2</ele><time>2026-04-19T08:47:41.597Z</time></trkpt><trkpt lat="42.1507433" lon="11.9273217"><ele>515.0</ele><time>2026-04-19T08:47:42.597Z</time></trkpt><trkpt lat="42.1507633" lon="11.9271233"><ele>518.0</ele><time>2026-04-19T08:47:43.598Z</time></trkpt><trkpt lat="42.1507883" lon="11.926925"><ele>521.0</ele><time>2026-04-19T08:47:44.597Z</time></trkpt><trkpt lat="42.1508083" lon="11.92673"><ele>524.0</ele><time>2026-04-19T08:47:45.597Z</time></trkpt><trkpt lat="42.1508317" lon="11.9265383"><ele>527.0</ele><time>2026-04-19T08:47:46.598Z</time></trkpt><trkpt lat="42.15085" lon="11.9263517"><ele>528.25</ele><time>2026-04-19T08:47:47.597Z</time></trkpt><trkpt lat="42.1508817" lon="11.9261517"><ele>529.5</ele><time>2026-04-19T08:47:48.598Z</time></trkpt><trkpt lat="42.150905" lon="11.9259667"><ele>530.75</ele><time>2026-04-19T08:47:49.597Z</time></trkpt><trkpt lat="42.1509267" lon="11.9257917"><ele>532.0</ele><time>2026-04-19T08:47:50.597Z</time></trkpt><trkpt lat="42.150955" lon="11.925615"><ele>532.5</ele><time>2026-04-19T08:47:51.597Z</time></trkpt><trkpt lat="42.1509767" lon="11.92545"><ele>533.0</ele><time>2026-04-19T08:47:52.598Z</time></trkpt><trkpt lat="42.151005" lon="11.9252883"><ele>533.5</ele><time>2026-04-19T08:47:53.597Z</time></trkpt><trkpt lat="42.1510383" lon="11.9251283"><ele>534.0</ele><time>2026-04-19T08:47:54.597Z</time></trkpt><trkpt lat="42.1510717" lon="11.9249633"><ele>535.0</ele><time>2026-04-19T08:47:55.597Z</time></trkpt><trkpt lat="42.151115" lon="11.9248233"><ele>536.0</ele><time>2026-04-19T08:47:56.597Z</time></trkpt><trkpt lat="42.1511767" lon="11.9246967"><ele>537.0</ele><time>2026-04-19T08:47:57.598Z</time></trkpt><trkpt lat="42.15125" lon="11.9245917"><ele>538.0</ele><time>2026-04-19T08:47:58.597Z</time></trkpt><trkpt lat="42.1513383" lon="11.924505"><ele>539.0</ele><time>2026-04-19T08:47:59.597Z</time></trkpt><trkpt lat="42.1514283" lon="11.9244033"><ele>539.0</ele><time>2026-04-19T08:48:00.597Z</time></trkpt><trkpt lat="42.15151" lon="11.9242983"><ele>539.0</ele><time>2026-04-19T08:48:01.597Z</time></trkpt><trkpt lat="42.1515767" lon="11.9241833"><ele>539.0</ele><time>2026-04-19T08:48:02.598Z</time></trkpt><trkpt lat="42.1516183" lon="11.924045"><ele>539.0</ele><time>2026-04-19T08:48:03.598Z</time></trkpt><trkpt lat="42.15162" lon="11.9238917"><ele>539.0</ele><time>2026-04-19T08:48:04.597Z</time></trkpt><trkpt lat="42.1516133" lon="11.9237317"><ele>536.75</ele><time>2026-04-19T08:48:05.597Z</time></trkpt><trkpt lat="42.1516117" lon="11.92357"><ele>534.5</ele><time>2026-04-19T08:48:06.597Z</time></trkpt><trkpt lat="42.1516033" lon="11.92339"><ele>532.25</ele><time>2026-04-19T08:48:07.597Z</time></trkpt><trkpt lat="42.15159" lon="11.9232167"><ele>530.0</ele><time>2026-04-19T08:48:08.598Z</time></trkpt><trkpt lat="42.15159" lon="11.9230383"><ele>530.0</ele><time>2026-04-19T08:48:09.597Z</time></trkpt><trkpt lat="42.1515817" lon="11.922855"><ele>530.0</ele><time>2026-04-19T08:48:10.597Z</time></trkpt><trkpt lat="42.151565" lon="11.92268"><ele>530.0</ele><time>2026-04-19T08:48:11.597Z</time></trkpt><trkpt lat="42.1515517" lon="11.9225133"><ele>530.0</ele><time>2026-04-19T08:48:12.597Z</time></trkpt><trkpt lat="42.151535" lon="11.92235"><ele>529.2</ele><time>2026-04-19T08:48:13.597Z</time></trkpt><trkpt lat="42.1515083" lon="11.922205"><ele>528.4</ele><time>2026-04-19T08:48:14.597Z</time></trkpt><trkpt lat="42.1514667" lon="11.9220783"><ele>527.6</ele><time>2026-04-19T08:48:15.597Z</time></trkpt><trkpt lat="42.151415" lon="11.9219683"><ele>526.8</ele><time>2026-04-19T08:48:16.597Z</time></trkpt><trkpt lat="42.15136" lon="11.9218617"><ele>526.0</ele><time>2026-04-19T08:48:17.597Z</time></trkpt><trkpt lat="42.1512967" lon="11.92177"><ele>525.0</ele><time>2026-04-19T08:48:18.597Z</time></trkpt><trkpt lat="42.1512433" lon="11.92167"><ele>524.0</ele><time>2026-04-19T08:48:19.597Z</time></trkpt><trkpt lat="42.1511683" lon="11.9215433"><ele>523.0</ele><time>2026-04-19T08:48:20.597Z</time></trkpt><trkpt lat="42.151115" lon="11.9214383"><ele>522.0</ele><time>2026-04-19T08:48:21.597Z</time></trkpt><trkpt lat="42.1510533" lon="11.9213233"><ele>521.0</ele><time>2026-04-19T08:48:22.597Z</time></trkpt><trkpt lat="42.1509867" lon="11.9212017"><ele>521.0</ele><time>2026-04-19T08:48:23.597Z</time></trkpt><trkpt lat="42.1509133" lon="11.9210817"><ele>521.0</ele><time>2026-04-19T08:48:24.598Z</time></trkpt><trkpt lat="42.1508433" lon="11.9209517"><ele>521.0</ele><time>2026-04-19T08:48:25.597Z</time></trkpt><trkpt lat="42.1507717" lon="11.92083"><ele>521.0</ele><time>2026-04-19T08:48:26.598Z</time></trkpt><trkpt lat="42.1506983" lon="11.920695"><ele>518.0</ele><time>2026-04-19T08:48:27.597Z</time></trkpt><trkpt lat="42.1506317" lon="11.92057"><ele>515.0</ele><time>2026-04-19T08:48:28.597Z</time></trkpt><trkpt lat="42.1505783" lon="11.9204667"><ele>512.0</ele><time>2026-04-19T08:48:29.597Z</time></trkpt><trkpt lat="42.15052" lon="11.9203"><ele>509.0</ele><time>2026-04-19T08:48:30.597Z</time></trkpt><trkpt lat="42.1504483" lon="11.9202017"><ele>506.0</ele><time>2026-04-19T08:48:31.597Z</time></trkpt><trkpt lat="42.1503517" lon="11.9201167"><ele>506.0</ele><time>2026-04-19T08:48:33.598Z</time></trkpt><trkpt lat="42.1502767" lon="11.9200917"><ele>506.0</ele><time>2026-04-19T08:48:34.597Z</time></trkpt><trkpt lat="42.15019" lon="11.9200883"><ele>506.0</ele><time>2026-04-19T08:48:35.597Z</time></trkpt><trkpt lat="42.1500833" lon="11.9200817"><ele>506.0</ele><time>2026-04-19T08:48:36.597Z</time></trkpt><trkpt lat="42.1499717" lon="11.9200833"><ele>506.0</ele><time>2026-04-19T08:48:37.597Z</time></trkpt><trkpt lat="42.1498833" lon="11.9201033"><ele>504.8571428571429</ele><time>2026-04-19T08:48:38.597Z</time></trkpt><trkpt lat="42.1498133" lon="11.9201433"><ele>503.7142857142857</ele><time>2026-04-19T08:48:39.597Z</time></trkpt><trkpt lat="42.1497617" lon="11.9202"><ele>502.57142857142856</ele><time>2026-04-19T08:48:40.597Z</time></trkpt><trkpt lat="42.1497233" lon="11.920275"><ele>501.42857142857144</ele><time>2026-04-19T08:48:41.598Z</time></trkpt><trkpt lat="42.1497117" lon="11.9203667"><ele>500.2857142857142</ele><time>2026-04-19T08:48:42.597Z</time></trkpt><trkpt lat="42.1496983" lon="11.920475"><ele>499.1428571428571</ele><time>2026-04-19T08:48:43.597Z</time></trkpt><trkpt lat="42.14968" lon="11.9205917"><ele>498.0</ele><time>2026-04-19T08:48:44.598Z</time></trkpt><trkpt lat="42.1496517" lon="11.920715"><ele>498.0</ele><time>2026-04-19T08:48:45.597Z</time></trkpt><trkpt lat="42.1496067" lon="11.9208183"><ele>498.0</ele><time>2026-04-19T08:48:46.597Z</time></trkpt><trkpt lat="42.1495517" lon="11.9209083"><ele>498.0</ele><time>2026-04-19T08:48:47.597Z</time></trkpt><trkpt lat="42.149495" lon="11.9209783"><ele>498.0</ele><time>2026-04-19T08:48:48.597Z</time></trkpt><trkpt lat="42.14942" lon="11.9210417"><ele>498.0</ele><time>2026-04-19T08:48:49.597Z</time></trkpt><trkpt lat="42.1493417" lon="11.921095"><ele>498.0</ele><time>2026-04-19T08:48:50.597Z</time></trkpt><trkpt lat="42.1492483" lon="11.921125"><ele>495.5</ele><time>2026-04-19T08:48:51.597Z</time></trkpt><trkpt lat="42.1491433" lon="11.9211417"><ele>493.0</ele><time>2026-04-19T08:48:52.597Z</time></trkpt><trkpt lat="42.1490267" lon="11.9211533"><ele>490.5</ele><time>2026-04-19T08:48:53.598Z</time></trkpt><trkpt lat="42.1489117" lon="11.9211833"><ele>488.0</ele><time>2026-04-19T08:48:54.597Z</time></trkpt><trkpt lat="42.1488" lon="11.921195"><ele>486.4</ele><time>2026-04-19T08:48:55.597Z</time></trkpt><trkpt lat="42.1486883" lon="11.9212183"><ele>484.79999999999995</ele><time>2026-04-19T08:48:56.598Z</time></trkpt><trkpt lat="42.1485817" lon="11.921225"><ele>483.2</ele><time>2026-04-19T08:48:57.597Z</time></trkpt><trkpt lat="42.1484817" lon="11.921235"><ele>481.6</ele><time>2026-04-19T08:48:58.597Z</time></trkpt><trkpt lat="42.1483783" lon="11.9212383"><ele>480.0</ele><time>2026-04-19T08:48:59.597Z</time></trkpt><trkpt lat="42.1483017" lon="11.92123"><ele>480.0</ele><time>2026-04-19T08:49:00.597Z</time></trkpt><trkpt lat="42.1482417" lon="11.9211983"><ele>480.0</ele><time>2026-04-19T08:49:01.597Z</time></trkpt><trkpt lat="42.1481233" lon="11.9211433"><ele>480.0</ele><time>2026-04-19T08:49:03.597Z</time></trkpt><trkpt lat="42.1480683" lon="11.9210967"><ele>480.0</ele><time>2026-04-19T08:49:04.598Z</time></trkpt><trkpt lat="42.148025" lon="11.9210183"><ele>480.0</ele><time>2026-04-19T08:49:05.597Z</time></trkpt><trkpt lat="42.1479917" lon="11.920925"><ele>480.0</ele><time>2026-04-19T08:49:06.597Z</time></trkpt><trkpt lat="42.1500833" lon="11.9200817"><ele>483.0</ele><time>2026-04-19T08:48:36.597Z</time></trkpt><trkpt lat="42.1499717" lon="11.9200833"><ele>486.0</ele><time>2026-04-19T08:48:37.597Z</time></trkpt><trkpt lat="42.1498833" lon="11.9201033"><ele>489.0</ele><time>2026-04-19T08:48:38.597Z</time></trkpt><trkpt lat="42.1498133" lon="11.9201433"><ele>492.0</ele><time>2026-04-19T08:48:39.597Z</time></trkpt><trkpt lat="42.1497617" lon="11.9202"><ele>495.0</ele><time>2026-04-19T08:48:40.597Z</time></trkpt><trkpt lat="42.1497233" lon="11.920275"><ele>498.0</ele><time>2026-04-19T08:48:41.598Z</time></trkpt><trkpt lat="42.1497117" lon="11.9203667"><ele>498.0</ele><time>2026-04-19T08:48:42.597Z</time></trkpt><trkpt lat="42.1496983" lon="11.920475"><ele>498.0</ele><time>2026-04-19T08:48:43.597Z</time></trkpt><trkpt lat="42.14968" lon="11.9205917"><ele>498.0</ele><time>2026-04-19T08:48:44.598Z</time></trkpt><trkpt lat="42.1496517" lon="11.920715"><ele>498.0</ele><time>2026-04-19T08:48:45.597Z</time></trkpt><trkpt lat="42.1496067" lon="11.9208183"><ele>498.0</ele><time>2026-04-19T08:48:46.597Z</time></trkpt><trkpt lat="42.1495517" lon="11.9209083"><ele>498.0</ele><time>2026-04-19T08:48:47.597Z</time></trkpt><trkpt lat="42.149495" lon="11.9209783"><ele>496.0</ele><time>2026-04-19T08:48:48.597Z</time></trkpt><trkpt lat="42.14942" lon="11.9210417"><ele>493.99999999999994</ele><time>2026-04-19T08:48:49.597Z</time></trkpt><trkpt lat="42.1493417" lon="11.921095"><ele>491.99999999999994</ele><time>2026-04-19T08:48:50.597Z</time></trkpt><trkpt lat="42.1492483" lon="11.921125"><ele>490.0</ele><time>2026-04-19T08:48:51.597Z</time></trkpt><trkpt lat="42.1491433" lon="11.9211417"><ele>488.0</ele><time>2026-04-19T08:48:52.597Z</time></trkpt><trkpt lat="42.1490267" lon="11.9211533"><ele>486.4</ele><time>2026-04-19T08:48:53.598Z</time></trkpt><trkpt lat="42.1489117" lon="11.9211833"><ele>484.79999999999995</ele><time>2026-04-19T08:48:54.597Z</time></trkpt><trkpt lat="42.1488" lon="11.921195"><ele>483.2</ele><time>2026-04-19T08:48:55.597Z</time></trkpt><trkpt lat="42.1486883" lon="11.9212183"><ele>481.6</ele><time>2026-04-19T08:48:56.598Z</time></trkpt><trkpt lat="42.1485817" lon="11.921225"><ele>480.0</ele><time>2026-04-19T08:48:57.597Z</time></trkpt><trkpt lat="42.1484817" lon="11.921235"><ele>480.0</ele><time>2026-04-19T08:48:58.597Z</time></trkpt><trkpt lat="42.1483783" lon="11.9212383"><ele>480.0</ele><time>2026-04-19T08:48:59.597Z</time></trkpt><trkpt lat="42.1483017" lon="11.92123"><ele>480.0</ele><time>2026-04-19T08:49:00.597Z</time></trkpt><trkpt lat="42.1482417" lon="11.9211983"><ele>480.0</ele><time>2026-04-19T08:49:01.597Z</time></trkpt><trkpt lat="42.1481233" lon="11.9211433"><ele>480.0</ele><time>2026-04-19T08:49:03.597Z</time></trkpt><trkpt lat="42.1480683" lon="11.9210967"><ele>480.0</ele><time>2026-04-19T08:49:04.598Z</time></trkpt><trkpt lat="42.148025" lon="11.9210183"><ele>478.0</ele><time>2026-04-19T08:49:05.597Z</time></trkpt><trkpt lat="42.1479917" lon="11.920925"><ele>476.0</ele><time>2026-04-19T08:49:06.597Z</time></trkpt><trkpt lat="42.1479617" lon="11.9208017"><ele>474.0</ele><time>2026-04-19T08:49:07.597Z</time></trkpt><trkpt lat="42.1479383" lon="11.92069"><ele>472.0</ele><time>2026-04-19T08:49:08.597Z</time></trkpt><trkpt lat="42.1479067" lon="11.9205733"><ele>470.0</ele><time>2026-04-19T08:49:09.597Z</time></trkpt><trkpt lat="42.1478933" lon="11.92046"><ele>468.0</ele><time>2026-04-19T08:49:10.597Z</time></trkpt><trkpt lat="42.1478717" lon="11.9203583"><ele>468.0</ele><time>2026-04-19T08:49:11.597Z</time></trkpt><trkpt lat="42.1478633" lon="11.9202517"><ele>468.0</ele><time>2026-04-19T08:49:12.597Z</time></trkpt><trkpt lat="42.14786" lon="11.92014"><ele>468.0</ele><time>2026-04-19T08:49:13.597Z</time></trkpt><trkpt lat="42.1478817" lon="11.920035"><ele>468.0</ele><time>2026-04-19T08:49:14.597Z</time></trkpt><trkpt lat="42.1478967" lon="11.91993"><ele>468.0</ele><time>2026-04-19T08:49:15.598Z</time></trkpt><trkpt lat="42.1479" lon="11.919845"><ele>468.0</ele><time>2026-04-19T08:49:16.596Z</time></trkpt><trkpt lat="42.1478733" lon="11.91976"><ele>468.59999999999997</ele><time>2026-04-19T08:49:17.597Z</time></trkpt><trkpt lat="42.1478233" lon="11.91967"><ele>469.19999999999993</ele><time>2026-04-19T08:49:18.596Z</time></trkpt><trkpt lat="42.14775" lon="11.9195767"><ele>469.8</ele><time>2026-04-19T08:49:19.596Z</time></trkpt><trkpt lat="42.14767" lon="11.91948"><ele>470.4</ele><time>2026-04-19T08:49:20.597Z</time></trkpt><trkpt lat="42.1475967" lon="11.9193933"><ele>471.0</ele><time>2026-04-19T08:49:21.596Z</time></trkpt><trkpt lat="42.1474967" lon="11.919315"><ele>471.0</ele><time>2026-04-19T08:49:22.596Z</time></trkpt><trkpt lat="42.1473917" lon="11.91924"><ele>471.0</ele><time>2026-04-19T08:49:23.596Z</time></trkpt><trkpt lat="42.1472667" lon="11.9191633"><ele>471.0</ele><time>2026-04-19T08:49:24.597Z</time></trkpt><trkpt lat="42.1471533" lon="11.9191"><ele>471.0</ele><time>2026-04-19T08:49:25.596Z</time></trkpt><trkpt lat="42.1470433" lon="11.9190467"><ele>468.25</ele><time>2026-04-19T08:49:26.596Z</time></trkpt><trkpt lat="42.1469083" lon="11.91899"><ele>465.5</ele><time>2026-04-19T08:49:27.596Z</time></trkpt><trkpt lat="42.1468017" lon="11.918925"><ele>462.75</ele><time>2026-04-19T08:49:28.596Z</time></trkpt><trkpt lat="42.1466983" lon="11.91889"><ele>460.0</ele><time>2026-04-19T08:49:29.596Z</time></trkpt><trkpt lat="42.1466117" lon="11.9188883"><ele>458.0</ele><time>2026-04-19T08:49:30.596Z</time></trkpt><trkpt lat="42.1465283" lon="11.9188933"><ele>456.0</ele><time>2026-04-19T08:49:31.597Z</time></trkpt><trkpt lat="42.1464367" lon="11.9189283"><ele>454.0</ele><time>2026-04-19T08:49:32.596Z</time></trkpt><trkpt lat="42.14634" lon="11.9189617"><ele>452.0</ele><time>2026-04-19T08:49:33.596Z</time></trkpt><trkpt lat="42.1462433" lon="11.9189733"><ele>450.0</ele><time>2026-04-19T08:49:34.597Z</time></trkpt><trkpt lat="42.1461533" lon="11.9189517"><ele>450.0</ele><time>2026-04-19T08:49:35.596Z</time></trkpt><trkpt lat="42.14606" lon="11.91891"><ele>450.0</ele><time>2026-04-19T08:49:36.596Z</time></trkpt><trkpt lat="42.14596" lon="11.9188367"><ele>450.0</ele><time>2026-04-19T08:49:37.597Z</time></trkpt><trkpt lat="42.14587" lon="11.91873"><ele>450.0</ele><time>2026-04-19T08:49:38.596Z</time></trkpt><trkpt lat="42.145785" lon="11.9186017"><ele>445.75</ele><time>2026-04-19T08:49:39.596Z</time></trkpt><trkpt lat="42.1456983" lon="11.9184867"><ele>441.5</ele><time>2026-04-19T08:49:40.596Z</time></trkpt><trkpt lat="42.145615" lon="11.9183717"><ele>437.25</ele><time>2026-04-19T08:49:41.596Z</time></trkpt><trkpt lat="42.145525" lon="11.9182433"><ele>433.0</ele><time>2026-04-19T08:49:42.596Z</time></trkpt><trkpt lat="42.1454433" lon="11.9181167"><ele>433.0</ele><time>2026-04-19T08:49:43.596Z</time></trkpt><trkpt lat="42.1453583" lon="11.9179767"><ele>433.0</ele><time>2026-04-19T08:49:44.596Z</time></trkpt><trkpt lat="42.145285" lon="11.9178267"><ele>433.0</ele><time>2026-04-19T08:49:45.596Z</time></trkpt><trkpt lat="42.14522" lon="11.917675"><ele>433.0</ele><time>2026-04-19T08:49:46.596Z</time></trkpt><trkpt lat="42.14516" lon="11.9175417"><ele>432.33333333333337</ele><time>2026-04-19T08:49:47.596Z</time></trkpt><trkpt lat="42.1451083" lon="11.9174267"><ele>431.6666666666667</ele><time>2026-04-19T08:49:48.596Z</time></trkpt><trkpt lat="42.1450533" lon="11.91733"><ele>431.0</ele><time>2026-04-19T08:49:49.596Z</time></trkpt><trkpt lat="42.1450067" lon="11.91727"><ele>430.33333333333337</ele><time>2026-04-19T08:49:50.596Z</time></trkpt><trkpt lat="42.1449367" lon="11.917235"><ele>429.6666666666667</ele><time>2026-04-19T08:49:51.596Z</time></trkpt><trkpt lat="42.144855" lon="11.9172233"><ele>429.0</ele><time>2026-04-19T08:49:52.596Z</time></trkpt><trkpt lat="42.1447617" lon="11.9172317"><ele>429.0</ele><time>2026-04-19T08:49:53.596Z</time></trkpt><trkpt lat="42.14469" lon="11.9172583"><ele>429.0</ele><time>2026-04-19T08:49:54.597Z</time></trkpt><trkpt lat="42.1446033" lon="11.9173533"><ele>429.0</ele><time>2026-04-19T08:49:56.596Z</time></trkpt><trkpt lat="42.1446033" lon="11.9175433"><ele>429.0</ele><time>2026-04-19T08:49:58.596Z</time></trkpt><trkpt lat="42.144615" lon="11.9176583"><ele>429.0</ele><time>2026-04-19T08:49:59.596Z</time></trkpt><trkpt lat="42.1446267" lon="11.917785"><ele>426.5</ele><time>2026-04-19T08:50:00.596Z</time></trkpt><trkpt lat="42.144635" lon="11.917915"><ele>424.0</ele><time>2026-04-19T08:50:01.597Z</time></trkpt><trkpt lat="42.1446433" lon="11.9180367"><ele>421.5</ele><time>2026-04-19T08:50:02.596Z</time></trkpt><trkpt lat="42.1446667" lon="11.918135"><ele>419.0</ele><time>2026-04-19T08:50:03.596Z</time></trkpt><trkpt lat="42.1446917" lon="11.9182133"><ele>416.5</ele><time>2026-04-19T08:50:04.596Z</time></trkpt><trkpt lat="42.1447283" lon="11.9182917"><ele>414.0</ele><time>2026-04-19T08:50:05.596Z</time></trkpt><trkpt lat="42.1447733" lon="11.9183717"><ele>411.4</ele><time>2026-04-19T08:50:06.596Z</time></trkpt><trkpt lat="42.1448217" lon="11.9184467"><ele>408.79999999999995</ele><time>2026-04-19T08:50:07.597Z</time></trkpt><trkpt lat="42.14486" lon="11.918515"><ele>406.20000000000005</ele><time>2026-04-19T08:50:08.596Z</time></trkpt><trkpt lat="42.14492" lon="11.9186617"><ele>403.6</ele><time>2026-04-19T08:50:10.597Z</time></trkpt><trkpt lat="42.1449383" lon="11.9188317"><ele>401.0</ele><time>2026-04-19T08:50:12.596Z</time></trkpt><trkpt lat="42.14494" lon="11.9189283"><ele>403.49999999999994</ele><time>2026-04-19T08:50:13.596Z</time></trkpt><trkpt lat="42.1449383" lon="11.9190183"><ele>406.0</ele><time>2026-04-19T08:50:14.596Z</time></trkpt><trkpt lat="42.1449283" lon="11.91912"><ele>408.5</ele><time>2026-04-19T08:50:15.596Z</time></trkpt><trkpt lat="42.14492" lon="11.9192217"><ele>411.0</ele><time>2026-04-19T08:50:16.596Z</time></trkpt><trkpt lat="42.1449083" lon="11.91931"><ele>413.49999999999994</ele><time>2026-04-19T08:50:17.597Z</time></trkpt><trkpt lat="42.1449" lon="11.9194033"><ele>416.0</ele><time>2026-04-19T08:50:18.597Z</time></trkpt><trkpt lat="42.1449033" lon="11.9195683"><ele>415.99999999999994</ele><time>2026-04-19T08:50:20.596Z</time></trkpt><trkpt lat="42.1449133" lon="11.9196617"><ele>416.0</ele><time>2026-04-19T08:50:21.597Z</time></trkpt><trkpt lat="42.1449283" lon="11.9197533"><ele>416.0</ele><time>2026-04-19T08:50:22.596Z</time></trkpt><trkpt lat="42.14495" lon="11.9198333"><ele>416.0</ele><time>2026-04-19T08:50:23.596Z</time></trkpt><trkpt lat="42.1450283" lon="11.9199517"><ele>415.99999999999994</ele><time>2026-04-19T08:50:25.596Z</time></trkpt><trkpt lat="42.1451017" lon="11.9200133"><ele>416.0</ele><time>2026-04-19T08:50:27.596Z</time></trkpt><trkpt lat="42.1450917" lon="11.9200983"><ele>416.0</ele><time>2026-04-19T08:50:31.596Z</time></trkpt><trkpt lat="42.1449517" lon="11.9200483"><ele>416.0</ele><time>2026-04-19T08:50:33.596Z</time></trkpt><trkpt lat="42.1448467" lon="11.9199867"><ele>416.0</ele><time>2026-04-19T08:50:34.596Z</time></trkpt><trkpt lat="42.1447333" lon="11.9199333"><ele>416.0</ele><time>2026-04-19T08:50:35.596Z</time></trkpt><trkpt lat="42.1446383" lon="11.9198867"><ele>411.8</ele><time>2026-04-19T08:50:36.597Z</time></trkpt><trkpt lat="42.1445383" lon="11.9198367"><ele>407.6</ele><time>2026-04-19T08:50:37.596Z</time></trkpt><trkpt lat="42.1444567" lon="11.9197817"><ele>403.4</ele><time>2026-04-19T08:50:38.596Z</time></trkpt><trkpt lat="42.1443783" lon="11.9197267"><ele>399.2</ele><time>2026-04-19T08:50:39.596Z</time></trkpt><trkpt lat="42.1443" lon="11.9196783"><ele>395.0</ele><time>2026-04-19T08:50:40.596Z</time></trkpt><trkpt lat="42.1442283" lon="11.9196317"><ele>395.0</ele><time>2026-04-19T08:50:41.596Z</time></trkpt><trkpt lat="42.1441283" lon="11.9195883"><ele>395.0</ele><time>2026-04-19T08:50:43.596Z</time></trkpt><trkpt lat="42.1440583" lon="11.9195117"><ele>395.0</ele><time>2026-04-19T08:50:45.596Z</time></trkpt><trkpt lat="42.14403" lon="11.9194067"><ele>395.0</ele><time>2026-04-19T08:50:47.596Z</time></trkpt><trkpt lat="42.1439917" lon="11.9192417"><ele>395.0</ele><time>2026-04-19T08:50:49.597Z</time></trkpt><trkpt lat="42.1439267" lon="11.9191117"><ele>392.0</ele><time>2026-04-19T08:50:51.596Z</time></trkpt><trkpt lat="42.1438583" lon="11.9190017"><ele>389.0</ele><time>2026-04-19T08:50:53.596Z</time></trkpt><trkpt lat="42.14378" lon="11.9189033"><ele>386.0</ele><time>2026-04-19T08:50:55.596Z</time></trkpt><trkpt lat="42.1436867" lon="11.91884"><ele>383.0</ele><time>2026-04-19T08:50:57.596Z</time></trkpt><trkpt lat="42.1435883" lon="11.9188683"><ele>380.0</ele><time>2026-04-19T08:50:59.596Z</time></trkpt><trkpt lat="42.1435233" lon="11.9188717"><ele>380.0</ele><time>2026-04-19T08:51:00.596Z</time></trkpt><trkpt lat="42.1434583" lon="11.9188533"><ele>380.0</ele><time>2026-04-19T08:51:01.596Z</time></trkpt><trkpt lat="42.1433983" lon="11.9188117"><ele>380.0</ele><time>2026-04-19T08:51:02.597Z</time></trkpt><trkpt lat="42.14333" lon="11.918745"><ele>380.0</ele><time>2026-04-19T08:51:03.597Z</time></trkpt><trkpt lat="42.143265" lon="11.9186733"><ele>380.0</ele><time>2026-04-19T08:51:04.597Z</time></trkpt><trkpt lat="42.1432067" lon="11.9186017"><ele>380.0</ele><time>2026-04-19T08:51:05.596Z</time></trkpt><trkpt lat="42.14316" lon="11.918505"><ele>380.0</ele><time>2026-04-19T08:51:06.596Z</time></trkpt><trkpt lat="42.1431167" lon="11.9184083"><ele>380.0</ele><time>2026-04-19T08:51:07.597Z</time></trkpt><trkpt lat="42.14308" lon="11.9183083"><ele>380.0</ele><time>2026-04-19T08:51:08.596Z</time></trkpt><trkpt lat="42.143045" lon="11.9182133"><ele>380.0</ele><time>2026-04-19T08:51:09.596Z</time></trkpt><trkpt lat="42.1430117" lon="11.9181083"><ele>380.0</ele><time>2026-04-19T08:51:10.597Z</time></trkpt><trkpt lat="42.1429933" lon="11.918"><ele>380.0</ele><time>2026-04-19T08:51:11.597Z</time></trkpt><trkpt lat="42.1429517" lon="11.9178767"><ele>380.0</ele><time>2026-04-19T08:51:12.596Z</time></trkpt><trkpt lat="42.1429233" lon="11.917755"><ele>380.0</ele><time>2026-04-19T08:51:13.596Z</time></trkpt><trkpt lat="42.14289" lon="11.9176183"><ele>380.0</ele><time>2026-04-19T08:51:14.596Z</time></trkpt><trkpt lat="42.14286" lon="11.9174933"><ele>380.0</ele><time>2026-04-19T08:51:15.596Z</time></trkpt><trkpt lat="42.1428317" lon="11.9173683"><ele>380.0</ele><time>2026-04-19T08:51:16.596Z</time></trkpt><trkpt lat="42.142815" lon="11.9172417"><ele>380.2</ele><time>2026-04-19T08:51:17.596Z</time></trkpt><trkpt lat="42.142805" lon="11.9171067"><ele>380.4</ele><time>2026-04-19T08:51:18.596Z</time></trkpt><trkpt lat="42.1428183" lon="11.9169667"><ele>380.6</ele><time>2026-04-19T08:51:19.596Z</time></trkpt><trkpt lat="42.14285" lon="11.91681"><ele>380.8</ele><time>2026-04-19T08:51:20.596Z</time></trkpt><trkpt lat="42.1429033" lon="11.9166767"><ele>381.0</ele><time>2026-04-19T08:51:21.596Z</time></trkpt><trkpt lat="42.142965" lon="11.9165533"><ele>381.4</ele><time>2026-04-19T08:51:22.597Z</time></trkpt><trkpt lat="42.1430217" lon="11.9164467"><ele>381.8</ele><time>2026-04-19T08:51:23.596Z</time></trkpt><trkpt lat="42.1430833" lon="11.9163367"><ele>382.2</ele><time>2026-04-19T08:51:24.597Z</time></trkpt><trkpt lat="42.14315" lon="11.9162183"><ele>382.59999999999997</ele><time>2026-04-19T08:51:25.596Z</time></trkpt><trkpt lat="42.1432267" lon="11.9161267"><ele>383.0</ele><time>2026-04-19T08:51:26.596Z</time></trkpt><trkpt lat="42.1433083" lon="11.9160567"><ele>384.6666666666667</ele><time>2026-04-19T08:51:27.596Z</time></trkpt><trkpt lat="42.1433567" lon="11.9160017"><ele>386.33333333333337</ele><time>2026-04-19T08:51:28.597Z</time></trkpt><trkpt lat="42.1433467" lon="11.9159117"><ele>388.0</ele><time>2026-04-19T08:51:29.596Z</time></trkpt><trkpt lat="42.1433633" lon="11.9157917"><ele>389.6666666666667</ele><time>2026-04-19T08:51:30.596Z</time></trkpt><trkpt lat="42.1433717" lon="11.9156567"><ele>391.3333333333333</ele><time>2026-04-19T08:51:31.596Z</time></trkpt><trkpt lat="42.143405" lon="11.915535"><ele>393.0</ele><time>2026-04-19T08:51:32.596Z</time></trkpt><trkpt lat="42.1434317" lon="11.9154517"><ele>393.0</ele><time>2026-04-19T08:51:33.597Z</time></trkpt><trkpt lat="42.1434617" lon="11.9153233"><ele>393.0</ele><time>2026-04-19T08:51:35.597Z</time></trkpt><trkpt lat="42.1434783" lon="11.9152167"><ele>393.0</ele><time>2026-04-19T08:51:37.596Z</time></trkpt><trkpt lat="42.14353" lon="11.91514"><ele>393.0</ele><time>2026-04-19T08:51:39.596Z</time></trkpt><trkpt lat="42.1436367" lon="11.91504"><ele>393.0</ele><time>2026-04-19T08:51:41.597Z</time></trkpt><trkpt lat="42.1437117" lon="11.91498"><ele>392.0</ele><time>2026-04-19T08:51:42.596Z</time></trkpt><trkpt lat="42.1438067" lon="11.91492"><ele>391.0</ele><time>2026-04-19T08:51:43.596Z</time></trkpt><trkpt lat="42.143925" lon="11.9148617"><ele>390.0</ele><time>2026-04-19T08:51:44.596Z</time></trkpt><trkpt lat="42.144045" lon="11.914825"><ele>389.0</ele><time>2026-04-19T08:51:45.596Z</time></trkpt><trkpt lat="42.1441683" lon="11.9148133"><ele>393.4</ele><time>2026-04-19T08:51:46.596Z</time></trkpt><trkpt lat="42.1442817" lon="11.9148367"><ele>397.79999999999995</ele><time>2026-04-19T08:51:47.597Z</time></trkpt><trkpt lat="42.1443767" lon="11.9148567"><ele>402.20000000000005</ele><time>2026-04-19T08:51:48.597Z</time></trkpt><trkpt lat="42.1444533" lon="11.9148733"><ele>406.6</ele><time>2026-04-19T08:51:49.596Z</time></trkpt><trkpt lat="42.1445383" lon="11.9149"><ele>411.0</ele><time>2026-04-19T08:51:51.596Z</time></trkpt><trkpt lat="42.1445883" lon="11.91481"><ele>411.0</ele><time>2026-04-19T08:51:53.596Z</time></trkpt><trkpt lat="42.1445183" lon="11.9146667"><ele>411.0</ele><time>2026-04-19T08:51:55.596Z</time></trkpt><trkpt lat="42.1444017" lon="11.91455"><ele>411.0</ele><time>2026-04-19T08:51:56.596Z</time></trkpt><trkpt lat="42.1442783" lon="11.9144233"><ele>411.0</ele><time>2026-04-19T08:51:57.596Z</time></trkpt><trkpt lat="42.1441717" lon="11.9142983"><ele>408.25</ele><time>2026-04-19T08:51:58.596Z</time></trkpt><trkpt lat="42.1440917" lon="11.9141633"><ele>405.5</ele><time>2026-04-19T08:51:59.596Z</time></trkpt><trkpt lat="42.1440383" lon="11.9140383"><ele>402.75</ele><time>2026-04-19T08:52:00.596Z</time></trkpt><trkpt lat="42.14402" lon="11.91391"><ele>400.0</ele><time>2026-04-19T08:52:01.597Z</time></trkpt><trkpt lat="42.1440483" lon="11.9137517"><ele>400.0</ele><time>2026-04-19T08:52:02.596Z</time></trkpt><trkpt lat="42.1440933" lon="11.91356"><ele>400.0</ele><time>2026-04-19T08:52:03.596Z</time></trkpt><trkpt lat="42.1441733" lon="11.913315"><ele>400.0</ele><time>2026-04-19T08:52:04.596Z</time></trkpt><trkpt lat="42.144245" lon="11.91307"><ele>401.0</ele><time>2026-04-19T08:52:05.596Z</time></trkpt><trkpt lat="42.1443133" lon="11.912845"><ele>402.0</ele><time>2026-04-19T08:52:06.597Z</time></trkpt><trkpt lat="42.1443867" lon="11.9126267"><ele>403.0</ele><time>2026-04-19T08:52:07.596Z</time></trkpt><trkpt lat="42.1444633" lon="11.9124167"><ele>403.59999999999997</ele><time>2026-04-19T08:52:08.596Z</time></trkpt><trkpt lat="42.144515" lon="11.9122783"><ele>404.2</ele><time>2026-04-19T08:52:09.596Z</time></trkpt><trkpt lat="42.1445917" lon="11.91216"><ele>404.8</ele><time>2026-04-19T08:52:10.596Z</time></trkpt><trkpt lat="42.14466" lon="11.9120867"><ele>405.4</ele><time>2026-04-19T08:52:11.597Z</time></trkpt><trkpt lat="42.1447533" lon="11.9120717"><ele>406.0</ele><time>2026-04-19T08:52:12.596Z</time></trkpt><trkpt lat="42.14486" lon="11.91206"><ele>410.20000000000005</ele><time>2026-04-19T08:52:13.596Z</time></trkpt><trkpt lat="42.14499" lon="11.912065"><ele>414.40000000000003</ele><time>2026-04-19T08:52:14.596Z</time></trkpt><trkpt lat="42.145115" lon="11.9120683"><ele>418.6</ele><time>2026-04-19T08:52:15.596Z</time></trkpt><trkpt lat="42.1452183" lon="11.9120417"><ele>422.8</ele><time>2026-04-19T08:52:16.596Z</time></trkpt><trkpt lat="42.1453" lon="11.9120133"><ele>427.0</ele><time>2026-04-19T08:52:17.596Z</time></trkpt><trkpt lat="42.1453767" lon="11.911955"><ele>427.0</ele><time>2026-04-19T08:52:19.596Z</time></trkpt><trkpt lat="42.1453567" lon="11.911865"><ele>427.00000000000006</ele><time>2026-04-19T08:52:22.597Z</time></trkpt><trkpt lat="42.14526" lon="11.9118167"><ele>427.00000000000006</ele><time>2026-04-19T08:52:24.596Z</time></trkpt><trkpt lat="42.1451533" lon="11.9117767"><ele>427.0</ele><time>2026-04-19T08:52:26.597Z</time></trkpt><trkpt lat="42.1450533" lon="11.9117183"><ele>427.0</ele><time>2026-04-19T08:52:28.596Z</time></trkpt><trkpt lat="42.14496" lon="11.9116533"><ele>425.8</ele><time>2026-04-19T08:52:30.596Z</time></trkpt><trkpt lat="42.144905" lon="11.9115583"><ele>424.6</ele><time>2026-04-19T08:52:32.595Z</time></trkpt><trkpt lat="42.14489" lon="11.91139"><ele>423.40000000000003</ele><time>2026-04-19T08:52:34.595Z</time></trkpt><trkpt lat="42.1448883" lon="11.9112783"><ele>422.20000000000005</ele><time>2026-04-19T08:52:35.595Z</time></trkpt><trkpt lat="42.1448817" lon="11.9111583"><ele>421.0</ele><time>2026-04-19T08:52:36.596Z</time></trkpt><trkpt lat="42.144895" lon="11.9109967"><ele>420.33333333333337</ele><time>2026-04-19T08:52:38.595Z</time></trkpt><trkpt lat="42.1449017" lon="11.9108533"><ele>419.6666666666667</ele><time>2026-04-19T08:52:40.596Z</time></trkpt><trkpt lat="42.144875" lon="11.9107717"><ele>419.0</ele><time>2026-04-19T08:52:42.595Z</time></trkpt><trkpt lat="42.1448183" lon="11.91072"><ele>418.33333333333337</ele><time>2026-04-19T08:52:45.595Z</time></trkpt><trkpt lat="42.14476" lon="11.9106533"><ele>417.6666666666667</ele><time>2026-04-19T08:52:47.595Z</time></trkpt><trkpt lat="42.1447267" lon="11.910575"><ele>417.0</ele><time>2026-04-19T08:52:49.595Z</time></trkpt><trkpt lat="42.1447033" lon="11.9104117"><ele>417.0</ele><time>2026-04-19T08:53:03.595Z</time></trkpt><trkpt lat="42.1447167" lon="11.9103267"><ele>417.0</ele><time>2026-04-19T08:53:05.595Z</time></trkpt><trkpt lat="42.144775" lon="11.910185"><ele>417.0</ele><time>2026-04-19T08:53:07.596Z</time></trkpt><trkpt lat="42.1448117" lon="11.91007"><ele>417.0</ele><time>2026-04-19T08:53:08.595Z</time></trkpt><trkpt lat="42.1448317" lon="11.9099433"><ele>417.0</ele><time>2026-04-19T08:53:09.595Z</time></trkpt><trkpt lat="42.1448567" lon="11.9098083"><ele>417.8</ele><time>2026-04-19T08:53:10.596Z</time></trkpt><trkpt lat="42.144865" lon="11.909625"><ele>418.6</ele><time>2026-04-19T08:53:11.595Z</time></trkpt><trkpt lat="42.144875" lon="11.9094617"><ele>419.40000000000003</ele><time>2026-04-19T08:53:12.595Z</time></trkpt><trkpt lat="42.1448967" lon="11.9093267"><ele>420.20000000000005</ele><time>2026-04-19T08:53:13.595Z</time></trkpt><trkpt lat="42.14494" lon="11.9092217"><ele>421.0</ele><time>2026-04-19T08:53:14.596Z</time></trkpt><trkpt lat="42.144985" lon="11.9091167"><ele>423.50000000000006</ele><time>2026-04-19T08:53:15.595Z</time></trkpt><trkpt lat="42.145025" lon="11.90901"><ele>426.0</ele><time>2026-04-19T08:53:16.595Z</time></trkpt><trkpt lat="42.14506" lon="11.908895"><ele>428.5</ele><time>2026-04-19T08:53:17.596Z</time></trkpt><trkpt lat="42.145095" lon="11.9087917"><ele>431.0</ele><time>2026-04-19T08:53:18.595Z</time></trkpt><trkpt lat="42.1451283" lon="11.9086783"><ele>433.50000000000006</ele><time>2026-04-19T08:53:19.595Z</time></trkpt><trkpt lat="42.1451617" lon="11.9085717"><ele>436.0</ele><time>2026-04-19T08:53:20.595Z</time></trkpt><trkpt lat="42.1451767" lon="11.9084533"><ele>436.00000000000006</ele><time>2026-04-19T08:53:21.596Z</time></trkpt><trkpt lat="42.1451867" lon="11.9083417"><ele>436.0</ele><time>2026-04-19T08:53:22.596Z</time></trkpt><trkpt lat="42.145185" lon="11.9082567"><ele>436.0</ele><time>2026-04-19T08:53:23.595Z</time></trkpt><trkpt lat="42.145095" lon="11.9083417"><ele>436.0</ele><time>2026-04-19T08:53:25.595Z</time></trkpt><trkpt lat="42.1450417" lon="11.908405"><ele>436.00000000000006</ele><time>2026-04-19T08:53:26.595Z</time></trkpt><trkpt lat="42.1449717" lon="11.9084917"><ele>436.0</ele><time>2026-04-19T08:53:27.595Z</time></trkpt><trkpt lat="42.14489" lon="11.9085883"><ele>434.20000000000005</ele><time>2026-04-19T08:53:28.595Z</time></trkpt><trkpt lat="42.1447867" lon="11.9086983"><ele>432.40000000000003</ele><time>2026-04-19T08:53:29.595Z</time></trkpt><trkpt lat="42.1446933" lon="11.9087767"><ele>430.6</ele><time>2026-04-19T08:53:30.595Z</time></trkpt><trkpt lat="42.144615" lon="11.9087983"><ele>428.8</ele><time>2026-04-19T08:53:31.595Z</time></trkpt><trkpt lat="42.1445433" lon="11.9087783"><ele>427.0</ele><time>2026-04-19T08:53:32.596Z</time></trkpt><trkpt lat="42.1444683" lon="11.9087"><ele>427.0</ele><time>2026-04-19T08:53:33.595Z</time></trkpt><trkpt lat="42.1444083" lon="11.90859"><ele>427.0</ele><time>2026-04-19T08:53:34.596Z</time></trkpt><trkpt lat="42.144365" lon="11.9084417"><ele>427.0</ele><time>2026-04-19T08:53:35.595Z</time></trkpt><trkpt lat="42.1443383" lon="11.9082483"><ele>427.0</ele><time>2026-04-19T08:53:36.595Z</time></trkpt><trkpt lat="42.14432" lon="11.9080417"><ele>428.5</ele><time>2026-04-19T08:53:37.595Z</time></trkpt><trkpt lat="42.144315" lon="11.907845"><ele>430.0</ele><time>2026-04-19T08:53:38.595Z</time></trkpt><trkpt lat="42.1443217" lon="11.9076917"><ele>431.5</ele><time>2026-04-19T08:53:39.595Z</time></trkpt><trkpt lat="42.1443583" lon="11.9075517"><ele>433.0</ele><time>2026-04-19T08:53:40.596Z</time></trkpt><trkpt lat="42.144405" lon="11.9073967"><ele>434.4</ele><time>2026-04-19T08:53:41.595Z</time></trkpt><trkpt lat="42.1444233" lon="11.9072233"><ele>435.79999999999995</ele><time>2026-04-19T08:53:42.595Z</time></trkpt><trkpt lat="42.1444533" lon="11.9070467"><ele>437.2</ele><time>2026-04-19T08:53:43.595Z</time></trkpt><trkpt lat="42.1444817" lon="11.9069383"><ele>438.6</ele><time>2026-04-19T08:53:44.595Z</time></trkpt><trkpt lat="42.144485" lon="11.9068367"><ele>440.0</ele><time>2026-04-19T08:53:45.595Z</time></trkpt><trkpt lat="42.1444917" lon="11.9067517"><ele>439.66666666666663</ele><time>2026-04-19T08:53:46.596Z</time></trkpt><trkpt lat="42.1445667" lon="11.9066583"><ele>439.3333333333333</ele><time>2026-04-19T08:53:48.595Z</time></trkpt><trkpt lat="42.1446267" lon="11.9065183"><ele>439.0</ele><time>2026-04-19T08:53:50.595Z</time></trkpt><trkpt lat="42.14468" lon="11.90646"><ele>438.66666666666663</ele><time>2026-04-19T08:53:51.596Z</time></trkpt><trkpt lat="42.144735" lon="11.9063733"><ele>438.3333333333333</ele><time>2026-04-19T08:53:52.596Z</time></trkpt><trkpt lat="42.1447867" lon="11.9063033"><ele>438.0</ele><time>2026-04-19T08:53:53.596Z</time></trkpt><trkpt lat="42.144845" lon="11.90623"><ele>442.0</ele><time>2026-04-19T08:53:54.595Z</time></trkpt><trkpt lat="42.1449017" lon="11.906165"><ele>446.0</ele><time>2026-04-19T08:53:55.595Z</time></trkpt><trkpt lat="42.1449817" lon="11.9061217"><ele>450.0</ele><time>2026-04-19T08:53:57.595Z</time></trkpt><trkpt lat="42.145065" lon="11.906125"><ele>454.0</ele><time>2026-04-19T08:53:59.595Z</time></trkpt><trkpt lat="42.145175" lon="11.9061083"><ele>458.0</ele><time>2026-04-19T08:54:01.595Z</time></trkpt><trkpt lat="42.1452617" lon="11.9060667"><ele>462.0</ele><time>2026-04-19T08:54:03.595Z</time></trkpt><trkpt lat="42.1452983" lon="11.90599"><ele>460.6</ele><time>2026-04-19T08:54:05.595Z</time></trkpt><trkpt lat="42.14535" lon="11.905865"><ele>459.20000000000005</ele><time>2026-04-19T08:54:07.595Z</time></trkpt><trkpt lat="42.14539" lon="11.9057767"><ele>457.8</ele><time>2026-04-19T08:54:08.596Z</time></trkpt><trkpt lat="42.145435" lon="11.9056967"><ele>456.4</ele><time>2026-04-19T08:54:09.596Z</time></trkpt><trkpt lat="42.145495" lon="11.9055417"><ele>455.0</ele><time>2026-04-19T08:54:11.595Z</time></trkpt><trkpt lat="42.1455283" lon="11.9054167"><ele>454.99999999999994</ele><time>2026-04-19T08:54:12.595Z</time></trkpt><trkpt lat="42.145555" lon="11.90531"><ele>455.0</ele><time>2026-04-19T08:54:13.595Z</time></trkpt><trkpt lat="42.1455783" lon="11.9051983"><ele>455.0</ele><time>2026-04-19T08:54:14.595Z</time></trkpt><trkpt lat="42.1456067" lon="11.9051"><ele>455.0</ele><time>2026-04-19T08:54:15.595Z</time></trkpt><trkpt lat="42.1456467" lon="11.9049917"><ele>454.99999999999994</ele><time>2026-04-19T08:54:16.595Z</time></trkpt><trkpt lat="42.14571" lon="11.9048933"><ele>455.0</ele><time>2026-04-19T08:54:17.595Z</time></trkpt><trkpt lat="42.1457967" lon="11.9048033"><ele>457.0</ele><time>2026-04-19T08:54:18.596Z</time></trkpt><trkpt lat="42.145895" lon="11.9047317"><ele>459.0</ele><time>2026-04-19T08:54:19.595Z</time></trkpt><trkpt lat="42.1459833" lon="11.9046583"><ele>461.0</ele><time>2026-04-19T08:54:20.595Z</time></trkpt><trkpt lat="42.14606" lon="11.9045883"><ele>463.0</ele><time>2026-04-19T08:54:21.595Z</time></trkpt><trkpt lat="42.1461333" lon="11.9045317"><ele>465.0</ele><time>2026-04-19T08:54:22.595Z</time></trkpt><trkpt lat="42.14621" lon="11.9044867"><ele>465.0</ele><time>2026-04-19T08:54:23.596Z</time></trkpt><trkpt lat="42.1462917" lon="11.9044533"><ele>465.0</ele><time>2026-04-19T08:54:24.595Z</time></trkpt><trkpt lat="42.1463767" lon="11.9044417"><ele>465.0</ele><time>2026-04-19T08:54:25.596Z</time></trkpt><trkpt lat="42.1464733" lon="11.9044467"><ele>465.0</ele><time>2026-04-19T08:54:26.595Z</time></trkpt><trkpt lat="42.1465683" lon="11.9044283"><ele>465.0</ele><time>2026-04-19T08:54:27.595Z</time></trkpt><trkpt lat="42.1466567" lon="11.9043817"><ele>466.6</ele><time>2026-04-19T08:54:28.595Z</time></trkpt><trkpt lat="42.1467283" lon="11.904315"><ele>468.2</ele><time>2026-04-19T08:54:29.595Z</time></trkpt><trkpt lat="42.146745" lon="11.90419"><ele>469.79999999999995</ele><time>2026-04-19T08:54:30.595Z</time></trkpt><trkpt lat="42.146755" lon="11.9040533"><ele>471.4</ele><time>2026-04-19T08:54:31.595Z</time></trkpt><trkpt lat="42.146775" lon="11.903925"><ele>473.0</ele><time>2026-04-19T08:54:32.596Z</time></trkpt><trkpt lat="42.1468117" lon="11.9038217"><ele>473.0</ele><time>2026-04-19T08:54:33.596Z</time></trkpt><trkpt lat="42.146875" lon="11.9037767"><ele>473.0</ele><time>2026-04-19T08:54:34.595Z</time></trkpt><trkpt lat="42.1469417" lon="11.9037533"><ele>473.0</ele><time>2026-04-19T08:54:35.595Z</time></trkpt><trkpt lat="42.147015" lon="11.9037367"><ele>473.0</ele><time>2026-04-19T08:54:36.595Z</time></trkpt><trkpt lat="42.1470883" lon="11.903715"><ele>473.0</ele><time>2026-04-19T08:54:38.595Z</time></trkpt><trkpt lat="42.1470883" lon="11.9036167"><ele>473.0</ele><time>2026-04-19T08:54:41.595Z</time></trkpt><trkpt lat="42.1470483" lon="11.9035367"><ele>473.0</ele><time>2026-04-19T08:54:43.595Z</time></trkpt><trkpt lat="42.146975" lon="11.9034433"><ele>472.59999999999997</ele><time>2026-04-19T08:54:45.595Z</time></trkpt><trkpt lat="42.1469433" lon="11.9033583"><ele>472.19999999999993</ele><time>2026-04-19T08:54:46.596Z</time></trkpt><trkpt lat="42.1469033" lon="11.9032467"><ele>471.8</ele><time>2026-04-19T08:54:47.595Z</time></trkpt><trkpt lat="42.1468533" lon="11.9031033"><ele>471.4</ele><time>2026-04-19T08:54:48.595Z</time></trkpt><trkpt lat="42.1468267" lon="11.9029733"><ele>471.0</ele><time>2026-04-19T08:54:49.595Z</time></trkpt><trkpt lat="42.1468067" lon="11.9028183"><ele>471.0</ele><time>2026-04-19T08:54:50.596Z</time></trkpt><trkpt lat="42.1468" lon="11.9026933"><ele>471.0</ele><time>2026-04-19T08:54:51.595Z</time></trkpt><trkpt lat="42.1468083" lon="11.9025967"><ele>471.0</ele><time>2026-04-19T08:54:52.595Z</time></trkpt><trkpt lat="42.1468467" lon="11.90247"><ele>471.0</ele><time>2026-04-19T08:54:54.595Z</time></trkpt><trkpt lat="42.1469133" lon="11.902335"><ele>471.0</ele><time>2026-04-19T08:54:56.595Z</time></trkpt><trkpt lat="42.1469917" lon="11.9022133"><ele>471.3333333333333</ele><time>2026-04-19T08:54:58.596Z</time></trkpt><trkpt lat="42.147045" lon="11.9021633"><ele>471.66666666666663</ele><time>2026-04-19T08:54:59.595Z</time></trkpt><trkpt lat="42.14714" lon="11.9020583"><ele>472.0</ele><time>2026-04-19T08:55:01.595Z</time></trkpt><trkpt lat="42.1471933" lon="11.9020067"><ele>472.3333333333333</ele><time>2026-04-19T08:55:02.595Z</time></trkpt><trkpt lat="42.1472467" lon="11.901955"><ele>472.66666666666663</ele><time>2026-04-19T08:55:03.595Z</time></trkpt><trkpt lat="42.147295" lon="11.9019"><ele>473.0</ele><time>2026-04-19T08:55:04.595Z</time></trkpt><trkpt lat="42.1473517" lon="11.9018433"><ele>475.2</ele><time>2026-04-19T08:55:05.596Z</time></trkpt><trkpt lat="42.1474383" lon="11.901775"><ele>477.4</ele><time>2026-04-19T08:55:07.595Z</time></trkpt><trkpt lat="42.14751" lon="11.90171"><ele>479.59999999999997</ele><time>2026-04-19T08:55:09.596Z</time></trkpt><trkpt lat="42.1475967" lon="11.9016433"><ele>481.79999999999995</ele><time>2026-04-19T08:55:11.595Z</time></trkpt><trkpt lat="42.14768" lon="11.9015683"><ele>484.0</ele><time>2026-04-19T08:55:13.595Z</time></trkpt><trkpt lat="42.1478017" lon="11.9014917"><ele>484.0</ele><time>2026-04-19T08:55:15.595Z</time></trkpt><trkpt lat="42.14787" lon="11.9014367"><ele>484.0</ele><time>2026-04-19T08:55:16.595Z</time></trkpt><trkpt lat="42.1479217" lon="11.9013833"><ele>484.0</ele><time>2026-04-19T08:55:17.595Z</time></trkpt><trkpt lat="42.1479017" lon="11.90122"><ele>484.0</ele><time>2026-04-19T08:55:19.595Z</time></trkpt><trkpt lat="42.1478783" lon="11.9010917"><ele>484.0</ele><time>2026-04-19T08:55:20.595Z</time></trkpt><trkpt lat="42.1478517" lon="11.900955"><ele>483.1666666666667</ele><time>2026-04-19T08:55:21.595Z</time></trkpt><trkpt lat="42.14784" lon="11.9008267"><ele>482.33333333333337</ele><time>2026-04-19T08:55:22.595Z</time></trkpt><trkpt lat="42.1478583" lon="11.9007033"><ele>481.5</ele><time>2026-04-19T08:55:23.595Z</time></trkpt><trkpt lat="42.1478783" lon="11.9005883"><ele>480.66666666666663</ele><time>2026-04-19T08:55:24.595Z</time></trkpt><trkpt lat="42.1478933" lon="11.900485"><ele>479.8333333333333</ele><time>2026-04-19T08:55:25.595Z</time></trkpt><trkpt lat="42.147875" lon="11.9003917"><ele>479.0</ele><time>2026-04-19T08:55:26.596Z</time></trkpt><trkpt lat="42.1478033" lon="11.9003383"><ele>478.99999999999994</ele><time>2026-04-19T08:55:27.595Z</time></trkpt><trkpt lat="42.14773" lon="11.9003083"><ele>479.0</ele><time>2026-04-19T08:55:28.595Z</time></trkpt><trkpt lat="42.1476567" lon="11.900275"><ele>479.0</ele><time>2026-04-19T08:55:29.595Z</time></trkpt><trkpt lat="42.1475717" lon="11.90014"><ele>479.0</ele><time>2026-04-19T08:55:31.595Z</time></trkpt><trkpt lat="42.1475567" lon="11.9000367"><ele>478.99999999999994</ele><time>2026-04-19T08:55:32.595Z</time></trkpt><trkpt lat="42.14756" lon="11.89993"><ele>479.0</ele><time>2026-04-19T08:55:33.595Z</time></trkpt><trkpt lat="42.147575" lon="11.8998183"><ele>480.3333333333333</ele><time>2026-04-19T08:55:34.596Z</time></trkpt><trkpt lat="42.1476033" lon="11.89973"><ele>481.66666666666663</ele><time>2026-04-19T08:55:35.595Z</time></trkpt><trkpt lat="42.1476517" lon="11.8996683"><ele>483.0</ele><time>2026-04-19T08:55:36.596Z</time></trkpt><trkpt lat="42.14773" lon="11.8996433"><ele>484.33333333333337</ele><time>2026-04-19T08:55:38.595Z</time></trkpt><trkpt lat="42.1478083" lon="11.8996117"><ele>485.6666666666667</ele><time>2026-04-19T08:56:43.594Z</time></trkpt><trkpt lat="42.14787" lon="11.8996483"><ele>487.0</ele><time>2026-04-19T08:56:44.594Z</time></trkpt><trkpt lat="42.1479533" lon="11.89967"><ele>487.0</ele><time>2026-04-19T08:56:45.595Z</time></trkpt><trkpt lat="42.14803" lon="11.8996717"><ele>487.00000000000006</ele><time>2026-04-19T08:56:46.594Z</time></trkpt><trkpt lat="42.14811" lon="11.899655"><ele>487.00000000000006</ele><time>2026-04-19T08:56:47.595Z</time></trkpt><trkpt lat="42.148185" lon="11.899595"><ele>487.0</ele><time>2026-04-19T08:56:48.594Z</time></trkpt><trkpt lat="42.1482717" lon="11.899525"><ele>487.0</ele><time>2026-04-19T08:56:49.594Z</time></trkpt><trkpt lat="42.148375" lon="11.8994567"><ele>486.75</ele><time>2026-04-19T08:56:50.594Z</time></trkpt><trkpt lat="42.1484883" lon="11.899385"><ele>486.5</ele><time>2026-04-19T08:56:51.594Z</time></trkpt><trkpt lat="42.148605" lon="11.8993067"><ele>486.25</ele><time>2026-04-19T08:56:52.594Z</time></trkpt><trkpt lat="42.1487183" lon="11.8992267"><ele>486.0</ele><time>2026-04-19T08:56:53.594Z</time></trkpt><trkpt lat="42.148835" lon="11.899145"><ele>486.0</ele><time>2026-04-19T08:56:54.594Z</time></trkpt><trkpt lat="42.1489483" lon="11.8990683"><ele>486.0</ele><time>2026-04-19T08:56:55.594Z</time></trkpt><trkpt lat="42.1490667" lon="11.899015"><ele>486.0</ele><time>2026-04-19T08:56:56.594Z</time></trkpt><trkpt lat="42.14918" lon="11.898975"><ele>486.0</ele><time>2026-04-19T08:56:57.595Z</time></trkpt><trkpt lat="42.1492967" lon="11.89899"><ele>485.8</ele><time>2026-04-19T08:56:58.594Z</time></trkpt><trkpt lat="42.1493983" lon="11.89905"><ele>485.6</ele><time>2026-04-19T08:56:59.594Z</time></trkpt><trkpt lat="42.1494867" lon="11.8991383"><ele>485.4</ele><time>2026-04-19T08:57:00.595Z</time></trkpt><trkpt lat="42.1495733" lon="11.8992433"><ele>485.2</ele><time>2026-04-19T08:57:01.594Z</time></trkpt><trkpt lat="42.1496617" lon="11.8993283"><ele>485.0</ele><time>2026-04-19T08:57:02.594Z</time></trkpt><trkpt lat="42.14975" lon="11.8994167"><ele>489.25</ele><time>2026-04-19T08:57:03.594Z</time></trkpt><trkpt lat="42.1498433" lon="11.8995017"><ele>493.5</ele><time>2026-04-19T08:57:04.595Z</time></trkpt><trkpt lat="42.14995" lon="11.8995767"><ele>497.75</ele><time>2026-04-19T08:57:05.594Z</time></trkpt><trkpt lat="42.1500683" lon="11.8996117"><ele>502.0</ele><time>2026-04-19T08:57:06.594Z</time></trkpt><trkpt lat="42.1501833" lon="11.8996183"><ele>502.0</ele><time>2026-04-19T08:57:07.594Z</time></trkpt><trkpt lat="42.1503017" lon="11.8995967"><ele>502.00000000000006</ele><time>2026-04-19T08:57:08.594Z</time></trkpt><trkpt lat="42.1504067" lon="11.8995767"><ele>502.00000000000006</ele><time>2026-04-19T08:57:09.594Z</time></trkpt><trkpt lat="42.150495" lon="11.8995317"><ele>502.0</ele><time>2026-04-19T08:57:10.595Z</time></trkpt><trkpt lat="42.1505667" lon="11.8994583"><ele>502.0</ele><time>2026-04-19T08:57:11.594Z</time></trkpt><trkpt lat="42.1506167" lon="11.89937"><ele>502.00000000000006</ele><time>2026-04-19T08:57:12.594Z</time></trkpt><trkpt lat="42.1506383" lon="11.8992767"><ele>502.0</ele><time>2026-04-19T08:57:13.594Z</time></trkpt><trkpt lat="42.1506483" lon="11.89919"><ele>502.0</ele><time>2026-04-19T08:57:14.595Z</time></trkpt><trkpt lat="42.1506917" lon="11.8990367"><ele>502.0</ele><time>2026-04-19T08:57:16.594Z</time></trkpt><trkpt lat="42.1507417" lon="11.8989717"><ele>502.00000000000006</ele><time>2026-04-19T08:57:17.595Z</time></trkpt><trkpt lat="42.1508117" lon="11.8989067"><ele>502.0</ele><time>2026-04-19T08:57:18.595Z</time></trkpt><trkpt lat="42.1509" lon="11.8988433"><ele>499.6</ele><time>2026-04-19T08:57:19.595Z</time></trkpt><trkpt lat="42.1509917" lon="11.8987783"><ele>497.20000000000005</ele><time>2026-04-19T08:57:20.594Z</time></trkpt><trkpt lat="42.15109" lon="11.89871"><ele>494.8</ele><time>2026-04-19T08:57:21.594Z</time></trkpt><trkpt lat="42.1511867" lon="11.898635"><ele>492.4</ele><time>2026-04-19T08:57:22.594Z</time></trkpt><trkpt lat="42.1512767" lon="11.8985617"><ele>490.0</ele><time>2026-04-19T08:57:23.595Z</time></trkpt><trkpt lat="42.1513767" lon="11.8985083"><ele>490.0</ele><time>2026-04-19T08:57:24.594Z</time></trkpt><trkpt lat="42.1514783" lon="11.8984833"><ele>490.0</ele><time>2026-04-19T08:57:25.594Z</time></trkpt><trkpt lat="42.1515883" lon="11.89849"><ele>490.0</ele><time>2026-04-19T08:57:26.595Z</time></trkpt><trkpt lat="42.1517" lon="11.8985467"><ele>490.0</ele><time>2026-04-19T08:57:27.594Z</time></trkpt><trkpt lat="42.1518083" lon="11.8986467"><ele>495.0</ele><time>2026-04-19T08:57:28.594Z</time></trkpt><trkpt lat="42.1519283" lon="11.8987983"><ele>500.0</ele><time>2026-04-19T08:57:29.595Z</time></trkpt><trkpt lat="42.1520283" lon="11.8989683"><ele>505.0</ele><time>2026-04-19T08:57:30.594Z</time></trkpt><trkpt lat="42.15213" lon="11.8991383"><ele>504.6666666666667</ele><time>2026-04-19T08:57:31.594Z</time></trkpt><trkpt lat="42.15224" lon="11.8993183"><ele>504.33333333333337</ele><time>2026-04-19T08:57:32.595Z</time></trkpt><trkpt lat="42.1523533" lon="11.8995083"><ele>504.0</ele><time>2026-04-19T08:57:33.594Z</time></trkpt><trkpt lat="42.1524817" lon="11.8996767"><ele>504.0</ele><time>2026-04-19T08:57:34.594Z</time></trkpt><trkpt lat="42.1525967" lon="11.899845"><ele>504.0</ele><time>2026-04-19T08:57:35.594Z</time></trkpt><trkpt lat="42.152715" lon="11.8999783"><ele>504.0</ele><time>2026-04-19T08:57:36.595Z</time></trkpt><trkpt lat="42.1528367" lon="11.90011"><ele>515.6666666666666</ele><time>2026-04-19T08:57:37.594Z</time></trkpt><trkpt lat="42.1529567" lon="11.90024"><ele>527.3333333333333</ele><time>2026-04-19T08:57:38.594Z</time></trkpt><trkpt lat="42.1530717" lon="11.9003767"><ele>539.0</ele><time>2026-04-19T08:57:39.594Z</time></trkpt><trkpt lat="42.1531833" lon="11.9005317"><ele>533.75</ele><time>2026-04-19T08:57:40.594Z</time></trkpt><trkpt lat="42.1532917" lon="11.9006783"><ele>528.5</ele><time>2026-04-19T08:57:41.595Z</time></trkpt><trkpt lat="42.153385" lon="11.9008317"><ele>523.25</ele><time>2026-04-19T08:57:42.594Z</time></trkpt><trkpt lat="42.1534717" lon="11.9009683"><ele>518.0</ele><time>2026-04-19T08:57:43.595Z</time></trkpt><trkpt lat="42.1535367" lon="11.9011133"><ele>518.0</ele><time>2026-04-19T08:57:44.594Z</time></trkpt><trkpt lat="42.153595" lon="11.9012567"><ele>518.0</ele><time>2026-04-19T08:57:45.594Z</time></trkpt><trkpt lat="42.1536417" lon="11.90141"><ele>518.0</ele><time>2026-04-19T08:57:46.594Z</time></trkpt><trkpt lat="42.1536783" lon="11.9015483"><ele>518.0</ele><time>2026-04-19T08:57:47.594Z</time></trkpt><trkpt lat="42.153705" lon="11.9016683"><ele>518.0</ele><time>2026-04-19T08:57:48.594Z</time></trkpt><trkpt lat="42.153725" lon="11.9017833"><ele>519.4</ele><time>2026-04-19T08:57:49.594Z</time></trkpt><trkpt lat="42.15374" lon="11.9019033"><ele>520.8</ele><time>2026-04-19T08:57:50.594Z</time></trkpt><trkpt lat="42.1537467" lon="11.9020333"><ele>522.2</ele><time>2026-04-19T08:57:51.594Z</time></trkpt><trkpt lat="42.1537467" lon="11.9021783"><ele>523.6</ele><time>2026-04-19T08:57:52.594Z</time></trkpt><trkpt lat="42.1537433" lon="11.9023333"><ele>525.0</ele><time>2026-04-19T08:57:53.594Z</time></trkpt><trkpt lat="42.1537367" lon="11.9025033"><ele>524.0</ele><time>2026-04-19T08:57:54.594Z</time></trkpt><trkpt lat="42.1537233" lon="11.9027"><ele>523.0</ele><time>2026-04-19T08:57:55.594Z</time></trkpt><trkpt lat="42.1536983" lon="11.902915"><ele>522.0</ele><time>2026-04-19T08:57:56.594Z</time></trkpt><trkpt lat="42.1536683" lon="11.90314"><ele>522.0</ele><time>2026-04-19T08:57:57.594Z</time></trkpt><trkpt lat="42.15364" lon="11.9033633"><ele>522.0</ele><time>2026-04-19T08:57:58.594Z</time></trkpt><trkpt lat="42.15361" lon="11.9035767"><ele>522.0</ele><time>2026-04-19T08:57:59.595Z</time></trkpt><trkpt lat="42.1535817" lon="11.903775"><ele>520.0</ele><time>2026-04-19T08:58:00.594Z</time></trkpt><trkpt lat="42.1535467" lon="11.9039617"><ele>518.0</ele><time>2026-04-19T08:58:01.594Z</time></trkpt><trkpt lat="42.1535067" lon="11.9041383"><ele>516.0</ele><time>2026-04-19T08:58:02.594Z</time></trkpt><trkpt lat="42.1534533" lon="11.9043033"><ele>514.0</ele><time>2026-04-19T08:58:03.594Z</time></trkpt><trkpt lat="42.15337" lon="11.904465"><ele>509.6666666666667</ele><time>2026-04-19T08:58:04.594Z</time></trkpt><trkpt lat="42.1532717" lon="11.9046267"><ele>505.33333333333337</ele><time>2026-04-19T08:58:05.594Z</time></trkpt><trkpt lat="42.1531717" lon="11.9047833"><ele>501.0</ele><time>2026-04-19T08:58:06.594Z</time></trkpt><trkpt lat="42.1530783" lon="11.9049483"><ele>511.66666666666663</ele><time>2026-04-19T08:58:07.594Z</time></trkpt><trkpt lat="42.1529933" lon="11.9051267"><ele>522.3333333333333</ele><time>2026-04-19T08:58:08.594Z</time></trkpt><trkpt lat="42.1529233" lon="11.90533"><ele>533.0</ele><time>2026-04-19T08:58:09.594Z</time></trkpt><trkpt lat="42.1528767" lon="11.90555"><ele>533.0</ele><time>2026-04-19T08:58:10.594Z</time></trkpt><trkpt lat="42.1528733" lon="11.9057967"><ele>533.0</ele><time>2026-04-19T08:58:11.594Z</time></trkpt><trkpt lat="42.1528683" lon="11.9060333"><ele>533.0</ele><time>2026-04-19T08:58:12.594Z</time></trkpt><trkpt lat="42.1528683" lon="11.9062467"><ele>535.5</ele><time>2026-04-19T08:58:13.594Z</time></trkpt><trkpt lat="42.15287" lon="11.9064533"><ele>538.0</ele><time>2026-04-19T08:58:14.594Z</time></trkpt><trkpt lat="42.1528783" lon="11.9066383"><ele>540.5</ele><time>2026-04-19T08:58:15.594Z</time></trkpt><trkpt lat="42.1528917" lon="11.90681"><ele>543.0</ele><time>2026-04-19T08:58:16.594Z</time></trkpt><trkpt lat="42.15295" lon="11.90696"><ele>544.4</ele><time>2026-04-19T08:58:17.594Z</time></trkpt><trkpt lat="42.153015" lon="11.9070833"><ele>545.8</ele><time>2026-04-19T08:58:18.594Z</time></trkpt><trkpt lat="42.1530967" lon="11.9071833"><ele>547.2</ele><time>2026-04-19T08:58:19.594Z</time></trkpt><trkpt lat="42.1531883" lon="11.9072467"><ele>548.6</ele><time>2026-04-19T08:58:20.595Z</time></trkpt><trkpt lat="42.1533017" lon="11.90729"><ele>550.0</ele><time>2026-04-19T08:58:21.594Z</time></trkpt><trkpt lat="42.15342" lon="11.9072883"><ele>544.75</ele><time>2026-04-19T08:58:22.594Z</time></trkpt><trkpt lat="42.15354" lon="11.907245"><ele>539.5</ele><time>2026-04-19T08:58:23.595Z</time></trkpt><trkpt lat="42.153665" lon="11.9071533"><ele>534.25</ele><time>2026-04-19T08:58:24.594Z</time></trkpt><trkpt lat="42.1537783" lon="11.9070233"><ele>529.0</ele><time>2026-04-19T08:58:25.594Z</time></trkpt><trkpt lat="42.1538867" lon="11.9069"><ele>529.0</ele><time>2026-04-19T08:58:26.594Z</time></trkpt><trkpt lat="42.1540083" lon="11.9067633"><ele>529.0</ele><time>2026-04-19T08:58:27.594Z</time></trkpt><trkpt lat="42.154145" lon="11.9066467"><ele>529.0</ele><time>2026-04-19T08:58:28.594Z</time></trkpt><trkpt lat="42.1542967" lon="11.90655"><ele>524.3333333333334</ele><time>2026-04-19T08:58:29.594Z</time></trkpt><trkpt lat="42.1544467" lon="11.9064867"><ele>519.6666666666666</ele><time>2026-04-19T08:58:30.594Z</time></trkpt><trkpt lat="42.1546067" lon="11.9064467"><ele>515.0</ele><time>2026-04-19T08:58:31.594Z</time></trkpt><trkpt lat="42.1547633" lon="11.9064267"><ele>517.0</ele><time>2026-04-19T08:58:32.595Z</time></trkpt><trkpt lat="42.154905" lon="11.9064517"><ele>519.0</ele><time>2026-04-19T08:58:33.594Z</time></trkpt><trkpt lat="42.1550417" lon="11.9064867"><ele>521.0</ele><time>2026-04-19T08:58:34.594Z</time></trkpt><trkpt lat="42.1551783" lon="11.9065533"><ele>523.0</ele><time>2026-04-19T08:58:35.594Z</time></trkpt><trkpt lat="42.15531" lon="11.90664"><ele>523.0</ele><time>2026-04-19T08:58:36.594Z</time></trkpt><trkpt lat="42.1554367" lon="11.9067283"><ele>523.0</ele><time>2026-04-19T08:58:37.595Z</time></trkpt><trkpt lat="42.1555533" lon="11.9068283"><ele>523.0</ele><time>2026-04-19T08:58:38.594Z</time></trkpt><trkpt lat="42.1556617" lon="11.90693"><ele>523.0</ele><time>2026-04-19T08:58:39.594Z</time></trkpt><trkpt lat="42.1557667" lon="11.9070283"><ele>528.0</ele><time>2026-04-19T08:58:40.594Z</time></trkpt><trkpt lat="42.1558783" lon="11.90712"><ele>533.0</ele><time>2026-04-19T08:58:41.594Z</time></trkpt><trkpt lat="42.155995" lon="11.9072"><ele>538.0</ele><time>2026-04-19T08:58:42.594Z</time></trkpt><trkpt lat="42.156125" lon="11.9072567"><ele>543.0</ele><time>2026-04-19T08:58:43.594Z</time></trkpt><trkpt lat="42.1562567" lon="11.9072833"><ele>543.0</ele><time>2026-04-19T08:58:44.595Z</time></trkpt><trkpt lat="42.1563917" lon="11.9072833"><ele>543.0</ele><time>2026-04-19T08:58:45.594Z</time></trkpt><trkpt lat="42.156525" lon="11.90726"><ele>543.0</ele><time>2026-04-19T08:58:46.594Z</time></trkpt><trkpt lat="42.156645" lon="11.9072183"><ele>543.0</ele><time>2026-04-19T08:58:47.594Z</time></trkpt><trkpt lat="42.15677" lon="11.9071833"><ele>540.75</ele><time>2026-04-19T08:58:48.594Z</time></trkpt><trkpt lat="42.156895" lon="11.9071567"><ele>538.5</ele><time>2026-04-19T08:58:49.594Z</time></trkpt><trkpt lat="42.1570317" lon="11.9071533"><ele>536.25</ele><time>2026-04-19T08:58:50.595Z</time></trkpt><trkpt lat="42.1571617" lon="11.9071683"><ele>534.0</ele><time>2026-04-19T08:58:51.594Z</time></trkpt><trkpt lat="42.157295" lon="11.90721"><ele>532.5</ele><time>2026-04-19T08:58:52.594Z</time></trkpt><trkpt lat="42.157415" lon="11.9072867"><ele>531.0</ele><time>2026-04-19T08:58:53.595Z</time></trkpt><trkpt lat="42.1575233" lon="11.9073733"><ele>529.5</ele><time>2026-04-19T08:58:54.594Z</time></trkpt><trkpt lat="42.1576033" lon="11.9074533"><ele>528.0</ele><time>2026-04-19T08:58:55.594Z</time></trkpt><trkpt lat="42.1576733" lon="11.9075367"><ele>528.0</ele><time>2026-04-19T08:58:56.594Z</time></trkpt><trkpt lat="42.1577233" lon="11.9076117"><ele>528.0</ele><time>2026-04-19T08:58:57.594Z</time></trkpt><trkpt lat="42.15776" lon="11.9076817"><ele>528.0</ele><time>2026-04-19T08:58:58.594Z</time></trkpt><trkpt lat="42.1578267" lon="11.907755"><ele>528.0</ele><time>2026-04-19T08:59:00.594Z</time></trkpt><trkpt lat="42.1578733" lon="11.9076533"><ele>528.0</ele><time>2026-04-19T08:59:03.594Z</time></trkpt><trkpt lat="42.157875" lon="11.90753"><ele>528.0</ele><time>2026-04-19T08:59:06.594Z</time></trkpt><trkpt lat="42.1578683" lon="11.9074133"><ele>528.0</ele><time>2026-04-19T08:59:08.594Z</time></trkpt><trkpt lat="42.1578517" lon="11.907255"><ele>528.0</ele><time>2026-04-19T08:59:10.594Z</time></trkpt><trkpt lat="42.1578467" lon="11.90717"><ele>528.0</ele><time>2026-04-19T08:59:11.594Z</time></trkpt><trkpt lat="42.1578367" lon="11.9070767"><ele>528.0</ele><time>2026-04-19T08:59:12.594Z</time></trkpt><trkpt lat="42.15782" lon="11.9069767"><ele>528.0</ele><time>2026-04-19T08:59:13.594Z</time></trkpt><trkpt lat="42.15781" lon="11.906875"><ele>528.0</ele><time>2026-04-19T08:59:14.594Z</time></trkpt><trkpt lat="42.1577933" lon="11.9067617"><ele>526.8</ele><time>2026-04-19T08:59:15.594Z</time></trkpt><trkpt lat="42.1577767" lon="11.9066383"><ele>525.5999999999999</ele><time>2026-04-19T08:59:16.593Z</time></trkpt><trkpt lat="42.1577633" lon="11.90652"><ele>524.4000000000001</ele><time>2026-04-19T08:59:17.593Z</time></trkpt><trkpt lat="42.15774" lon="11.90639"><ele>523.2</ele><time>2026-04-19T08:59:18.593Z</time></trkpt><trkpt lat="42.1577033" lon="11.9062783"><ele>522.0</ele><time>2026-04-19T08:59:19.593Z</time></trkpt><trkpt lat="42.1576717" lon="11.9060933"><ele>521.0</ele><time>2026-04-19T08:59:20.593Z</time></trkpt><trkpt lat="42.1576133" lon="11.9059033"><ele>520.0</ele><time>2026-04-19T08:59:21.594Z</time></trkpt><trkpt lat="42.157545" lon="11.9057017"><ele>519.0</ele><time>2026-04-19T08:59:22.593Z</time></trkpt><trkpt lat="42.157475" lon="11.9055133"><ele>519.0</ele><time>2026-04-19T08:59:23.593Z</time></trkpt><trkpt lat="42.1574" lon="11.905315"><ele>519.0</ele><time>2026-04-19T08:59:24.594Z</time></trkpt><trkpt lat="42.1573167" lon="11.9051233"><ele>519.0</ele><time>2026-04-19T08:59:25.593Z</time></trkpt><trkpt lat="42.1572483" lon="11.9049283"><ele>514.25</ele><time>2026-04-19T08:59:26.594Z</time></trkpt><trkpt lat="42.157185" lon="11.9047683"><ele>509.5</ele><time>2026-04-19T08:59:27.593Z</time></trkpt><trkpt lat="42.1571283" lon="11.904615"><ele>504.75</ele><time>2026-04-19T08:59:28.593Z</time></trkpt><trkpt lat="42.1570767" lon="11.904465"><ele>500.0</ele><time>2026-04-19T08:59:29.593Z</time></trkpt><trkpt lat="42.15703" lon="11.9043267"><ele>500.2</ele><time>2026-04-19T08:59:30.593Z</time></trkpt><trkpt lat="42.1569717" lon="11.90419"><ele>500.4</ele><time>2026-04-19T08:59:31.593Z</time></trkpt><trkpt lat="42.1569233" lon="11.904055"><ele>500.6</ele><time>2026-04-19T08:59:32.593Z</time></trkpt><trkpt lat="42.1568867" lon="11.9039117"><ele>500.8</ele><time>2026-04-19T08:59:33.593Z</time></trkpt><trkpt lat="42.156845" lon="11.903785"><ele>501.0</ele><time>2026-04-19T08:59:34.594Z</time></trkpt><trkpt lat="42.1568233" lon="11.9036567"><ele>501.0</ele><time>2026-04-19T08:59:35.593Z</time></trkpt><trkpt lat="42.1568283" lon="11.9035433"><ele>501.0</ele><time>2026-04-19T08:59:36.594Z</time></trkpt><trkpt lat="42.1568633" lon="11.9034583"><ele>501.0</ele><time>2026-04-19T08:59:37.593Z</time></trkpt><trkpt lat="42.1569167" lon="11.903365"><ele>501.0</ele><time>2026-04-19T08:59:38.593Z</time></trkpt><trkpt lat="42.1570017" lon="11.903275"><ele>501.0</ele><time>2026-04-19T08:59:39.594Z</time></trkpt><trkpt lat="42.1570633" lon="11.903185"><ele>501.0</ele><time>2026-04-19T08:59:40.593Z</time></trkpt><trkpt lat="42.1571033" lon="11.9030833"><ele>500.4</ele><time>2026-04-19T08:59:41.593Z</time></trkpt><trkpt lat="42.1570917" lon="11.9029783"><ele>499.8</ele><time>2026-04-19T08:59:42.593Z</time></trkpt><trkpt lat="42.1570483" lon="11.9028417"><ele>499.19999999999993</ele><time>2026-04-19T08:59:43.593Z</time></trkpt><trkpt lat="42.1570167" lon="11.9027033"><ele>498.59999999999997</ele><time>2026-04-19T08:59:44.593Z</time></trkpt><trkpt lat="42.1569867" lon="11.9025833"><ele>498.0</ele><time>2026-04-19T08:59:45.593Z</time></trkpt><trkpt lat="42.1569567" lon="11.9024883"><ele>497.3333333333333</ele><time>2026-04-19T08:59:46.593Z</time></trkpt><trkpt lat="42.1569283" lon="11.902395"><ele>496.66666666666663</ele><time>2026-04-19T08:59:47.594Z</time></trkpt><trkpt lat="42.15688" lon="11.9023217"><ele>496.0</ele><time>2026-04-19T08:59:48.593Z</time></trkpt><trkpt lat="42.1568233" lon="11.9022633"><ele>495.3333333333333</ele><time>2026-04-19T08:59:49.593Z</time></trkpt><trkpt lat="42.1567733" lon="11.9022067"><ele>494.66666666666663</ele><time>2026-04-19T08:59:50.594Z</time></trkpt><trkpt lat="42.156685" lon="11.9020967"><ele>494.0</ele><time>2026-04-19T08:59:52.593Z</time></trkpt><trkpt lat="42.156615" lon="11.9019933"><ele>494.0</ele><time>2026-04-19T08:59:54.593Z</time></trkpt><trkpt lat="42.1565383" lon="11.90191"><ele>494.0</ele><time>2026-04-19T08:59:56.594Z</time></trkpt><trkpt lat="42.156465" lon="11.9017817"><ele>494.0</ele><time>2026-04-19T08:59:58.594Z</time></trkpt><trkpt lat="42.1564167" lon="11.901665"><ele>494.0</ele><time>2026-04-19T09:00:00.594Z</time></trkpt><trkpt lat="42.156385" lon="11.901575"><ele>494.0</ele><time>2026-04-19T09:00:03.593Z</time></trkpt><trkpt lat="42.156305" lon="11.9015017"><ele>493.3333333333333</ele><time>2026-04-19T09:00:15.593Z</time></trkpt><trkpt lat="42.1562183" lon="11.9014017"><ele>492.66666666666663</ele><time>2026-04-19T09:00:17.594Z</time></trkpt><trkpt lat="42.1561517" lon="11.9013067"><ele>492.0</ele><time>2026-04-19T09:00:19.594Z</time></trkpt><trkpt lat="42.1560867" lon="11.9012733"><ele>491.33333333333337</ele><time>2026-04-19T09:00:22.593Z</time></trkpt><trkpt lat="42.156055" lon="11.90137"><ele>490.6666666666667</ele><time>2026-04-19T09:00:24.593Z</time></trkpt><trkpt lat="42.1559983" lon="11.9014133"><ele>490.0</ele><time>2026-04-19T09:00:26.593Z</time></trkpt><trkpt lat="42.1559183" lon="11.90145"><ele>490.00000000000006</ele><time>2026-04-19T09:00:28.594Z</time></trkpt><trkpt lat="42.15582" lon="11.901475"><ele>490.0</ele><time>2026-04-19T09:00:30.593Z</time></trkpt><trkpt lat="42.1557267" lon="11.9014717"><ele>490.0</ele><time>2026-04-19T09:00:32.593Z</time></trkpt><trkpt lat="42.1556433" lon="11.901465"><ele>490.0</ele><time>2026-04-19T09:00:34.593Z</time></trkpt><trkpt lat="42.1555767" lon="11.901425"><ele>490.00000000000006</ele><time>2026-04-19T09:00:36.594Z</time></trkpt><trkpt lat="42.1555317" lon="11.90136"><ele>490.0</ele><time>2026-04-19T09:00:38.593Z</time></trkpt><trkpt lat="42.1555083" lon="11.9012583"><ele>484.6</ele><time>2026-04-19T09:00:40.594Z</time></trkpt><trkpt lat="42.1554667" lon="11.901125"><ele>479.2</ele><time>2026-04-19T09:00:42.593Z</time></trkpt><trkpt lat="42.1554633" lon="11.90104"><ele>473.79999999999995</ele><time>2026-04-19T09:00:43.593Z</time></trkpt><trkpt lat="42.1554717" lon="11.9009083"><ele>468.4</ele><time>2026-04-19T09:00:45.593Z</time></trkpt><trkpt lat="42.155415" lon="11.900825"><ele>463.0</ele><time>2026-04-19T09:00:47.593Z</time></trkpt><trkpt lat="42.1553283" lon="11.9007617"><ele>461.79999999999995</ele><time>2026-04-19T09:00:49.594Z</time></trkpt><trkpt lat="42.1553867" lon="11.9006167"><ele>460.59999999999997</ele><time>2026-04-19T09:00:51.594Z</time></trkpt><trkpt lat="42.1554533" lon="11.9005533"><ele>459.40000000000003</ele><time>2026-04-19T09:00:52.593Z</time></trkpt><trkpt lat="42.1555383" lon="11.9005017"><ele>458.20000000000005</ele><time>2026-04-19T09:00:53.593Z</time></trkpt><trkpt lat="42.1556267" lon="11.90044"><ele>457.0</ele><time>2026-04-19T09:00:54.593Z</time></trkpt><trkpt lat="42.1556917" lon="11.900335"><ele>458.40000000000003</ele><time>2026-04-19T09:00:55.593Z</time></trkpt><trkpt lat="42.1557417" lon="11.9002133"><ele>459.80000000000007</ele><time>2026-04-19T09:00:56.593Z</time></trkpt><trkpt lat="42.1557867" lon="11.9000817"><ele>461.2</ele><time>2026-04-19T09:00:57.593Z</time></trkpt><trkpt lat="42.1558117" lon="11.89995"><ele>462.6</ele><time>2026-04-19T09:00:58.593Z</time></trkpt><trkpt lat="42.1558317" lon="11.8998133"><ele>464.0</ele><time>2026-04-19T09:00:59.594Z</time></trkpt><trkpt lat="42.15586" lon="11.8996833"><ele>463.99999999999994</ele><time>2026-04-19T09:01:00.593Z</time></trkpt><trkpt lat="42.1558933" lon="11.89958"><ele>464.0</ele><time>2026-04-19T09:01:01.593Z</time></trkpt><trkpt lat="42.15592" lon="11.8994833"><ele>464.0</ele><time>2026-04-19T09:01:02.594Z</time></trkpt><trkpt lat="42.1559333" lon="11.8993633"><ele>464.0</ele><time>2026-04-19T09:01:04.593Z</time></trkpt><trkpt lat="42.15587" lon="11.89937"><ele>463.99999999999994</ele><time>2026-04-19T09:01:09.594Z</time></trkpt><trkpt lat="42.1558183" lon="11.899505"><ele>464.0</ele><time>2026-04-19T09:01:11.593Z</time></trkpt><trkpt lat="42.1557617" lon="11.8996183"><ele>460.2</ele><time>2026-04-19T09:01:13.593Z</time></trkpt><trkpt lat="42.1557" lon="11.8997"><ele>456.4</ele><time>2026-04-19T09:01:15.593Z</time></trkpt><trkpt lat="42.155605" lon="11.8997633"><ele>452.6</ele><time>2026-04-19T09:01:17.593Z</time></trkpt><trkpt lat="42.1555033" lon="11.8997433"><ele>448.8</ele><time>2026-04-19T09:01:19.593Z</time></trkpt><trkpt lat="42.1554067" lon="11.8996683"><ele>445.0</ele><time>2026-04-19T09:01:21.593Z</time></trkpt><trkpt lat="42.155305" lon="11.8995767"><ele>445.0</ele><time>2026-04-19T09:01:23.593Z</time></trkpt><trkpt lat="42.1552" lon="11.8995383"><ele>445.0</ele><time>2026-04-19T09:01:25.593Z</time></trkpt><trkpt lat="42.15511" lon="11.89952"><ele>445.0</ele><time>2026-04-19T09:01:27.594Z</time></trkpt><trkpt lat="42.1550583" lon="11.899415"><ele>445.0</ele><time>2026-04-19T09:01:29.593Z</time></trkpt><trkpt lat="42.1550633" lon="11.89926"><ele>445.0</ele><time>2026-04-19T09:01:31.593Z</time></trkpt><trkpt lat="42.1551283" lon="11.8991717"><ele>441.75</ele><time>2026-04-19T09:01:34.593Z</time></trkpt><trkpt lat="42.1552083" lon="11.8990767"><ele>438.5</ele><time>2026-04-19T09:01:36.594Z</time></trkpt><trkpt lat="42.1552867" lon="11.8989717"><ele>435.25</ele><time>2026-04-19T09:01:38.594Z</time></trkpt><trkpt lat="42.1551867" lon="11.8990933"><ele>432.0</ele><time>2026-04-19T09:01:52.593Z</time></trkpt><trkpt lat="42.1551183" lon="11.8991933"><ele>432.0</ele><time>2026-04-19T09:01:54.594Z</time></trkpt><trkpt lat="42.1550533" lon="11.89909"><ele>432.00000000000006</ele><time>2026-04-19T09:01:57.594Z</time></trkpt><trkpt lat="42.1550233" lon="11.8989567"><ele>432.00000000000006</ele><time>2026-04-19T09:01:59.594Z</time></trkpt><trkpt lat="42.1550133" lon="11.8988333"><ele>432.0</ele><time>2026-04-19T09:02:01.594Z</time></trkpt><trkpt lat="42.1550567" lon="11.8986767"><ele>432.0</ele><time>2026-04-19T09:02:03.593Z</time></trkpt><trkpt lat="42.1550917" lon="11.8985867"><ele>432.0</ele><time>2026-04-19T09:02:04.594Z</time></trkpt><trkpt lat="42.1551283" lon="11.8985067"><ele>432.0</ele><time>2026-04-19T09:02:05.594Z</time></trkpt><trkpt lat="42.155175" lon="11.8984033"><ele>432.0</ele><time>2026-04-19T09:02:07.593Z</time></trkpt><trkpt lat="42.1551533" lon="11.8982967"><ele>432.0</ele><time>2026-04-19T09:02:10.594Z</time></trkpt><trkpt lat="42.1550233" lon="11.898265"><ele>432.0</ele><time>2026-04-19T09:02:12.593Z</time></trkpt><trkpt lat="42.1549567" lon="11.8982517"><ele>432.0</ele><time>2026-04-19T09:02:13.593Z</time></trkpt><trkpt lat="42.154885" lon="11.89826"><ele>431.5</ele><time>2026-04-19T09:02:14.593Z</time></trkpt><trkpt lat="42.15481" lon="11.898295"><ele>431.0</ele><time>2026-04-19T09:02:15.594Z</time></trkpt><trkpt lat="42.1547367" lon="11.8983533"><ele>430.5</ele><time>2026-04-19T09:02:16.593Z</time></trkpt><trkpt lat="42.15466" lon="11.898405"><ele>430.0</ele><time>2026-04-19T09:02:17.593Z</time></trkpt><trkpt lat="42.1545783" lon="11.8984483"><ele>429.5</ele><time>2026-04-19T09:02:18.593Z</time></trkpt><trkpt lat="42.1545017" lon="11.89847"><ele>429.0</ele><time>2026-04-19T09:02:19.593Z</time></trkpt><trkpt lat="42.1544383" lon="11.89849"><ele>429.0</ele><time>2026-04-19T09:02:20.593Z</time></trkpt><trkpt lat="42.1543717" lon="11.8985133"><ele>429.0</ele><time>2026-04-19T09:02:21.593Z</time></trkpt><trkpt lat="42.1543067" lon="11.89854"><ele>429.0</ele><time>2026-04-19T09:02:22.593Z</time></trkpt><trkpt lat="42.1542433" lon="11.8985567"><ele>429.0</ele><time>2026-04-19T09:02:23.593Z</time></trkpt><trkpt lat="42.1541383" lon="11.8985017"><ele>429.0</ele><time>2026-04-19T09:02:25.594Z</time></trkpt><trkpt lat="42.154105" lon="11.8984083"><ele>429.0</ele><time>2026-04-19T09:02:26.594Z</time></trkpt><trkpt lat="42.1540733" lon="11.8982983"><ele>429.4</ele><time>2026-04-19T09:02:27.593Z</time></trkpt><trkpt lat="42.1540533" lon="11.8981883"><ele>429.79999999999995</ele><time>2026-04-19T09:02:28.593Z</time></trkpt><trkpt lat="42.1540367" lon="11.8980583"><ele>430.20000000000005</ele><time>2026-04-19T09:02:29.594Z</time></trkpt><trkpt lat="42.1540167" lon="11.89792"><ele>430.6</ele><time>2026-04-19T09:02:30.593Z</time></trkpt><trkpt lat="42.1540067" lon="11.897775"><ele>431.0</ele><time>2026-04-19T09:02:31.594Z</time></trkpt><trkpt lat="42.1540033" lon="11.897635"><ele>428.20000000000005</ele><time>2026-04-19T09:02:32.594Z</time></trkpt><trkpt lat="42.1540117" lon="11.89749"><ele>425.40000000000003</ele><time>2026-04-19T09:02:33.594Z</time></trkpt><trkpt lat="42.154025" lon="11.897365"><ele>422.6</ele><time>2026-04-19T09:02:34.593Z</time></trkpt><trkpt lat="42.1540533" lon="11.8972433"><ele>419.8</ele><time>2026-04-19T09:02:35.593Z</time></trkpt><trkpt lat="42.1540783" lon="11.89713"><ele>417.0</ele><time>2026-04-19T09:02:36.593Z</time></trkpt><trkpt lat="42.1540833" lon="11.897"><ele>413.40000000000003</ele><time>2026-04-19T09:02:37.592Z</time></trkpt><trkpt lat="42.1540767" lon="11.89685"><ele>409.8</ele><time>2026-04-19T09:02:38.592Z</time></trkpt><trkpt lat="42.1540683" lon="11.8967133"><ele>406.2</ele><time>2026-04-19T09:02:39.593Z</time></trkpt><trkpt lat="42.1540583" lon="11.8965733"><ele>402.6</ele><time>2026-04-19T09:02:40.592Z</time></trkpt><trkpt lat="42.1540633" lon="11.8964667"><ele>399.0</ele><time>2026-04-19T09:02:41.592Z</time></trkpt><trkpt lat="42.1540683" lon="11.8963767"><ele>399.6666666666667</ele><time>2026-04-19T09:02:42.593Z</time></trkpt><trkpt lat="42.154055" lon="11.89626"><ele>400.33333333333337</ele><time>2026-04-19T09:02:44.592Z</time></trkpt><trkpt lat="42.1539917" lon="11.8962117"><ele>401.0</ele><time>2026-04-19T09:02:47.592Z</time></trkpt><trkpt lat="42.153885" lon="11.8962833"><ele>401.6666666666667</ele><time>2026-04-19T09:02:49.592Z</time></trkpt><trkpt lat="42.1538183" lon="11.8963033"><ele>402.33333333333337</ele><time>2026-04-19T09:02:50.592Z</time></trkpt><trkpt lat="42.1537517" lon="11.896305"><ele>403.0</ele><time>2026-04-19T09:02:51.592Z</time></trkpt><trkpt lat="42.1536817" lon="11.8962933"><ele>403.0</ele><time>2026-04-19T09:02:52.592Z</time></trkpt><trkpt lat="42.1536067" lon="11.8962867"><ele>403.0</ele><time>2026-04-19T09:02:53.592Z</time></trkpt><trkpt lat="42.1535283" lon="11.8962833"><ele>403.0</ele><time>2026-04-19T09:02:54.592Z</time></trkpt><trkpt lat="42.153455" lon="11.8962717"><ele>403.0</ele><time>2026-04-19T09:02:55.592Z</time></trkpt><trkpt lat="42.1533967" lon="11.8962283"><ele>403.0</ele><time>2026-04-19T09:02:56.592Z</time></trkpt><trkpt lat="42.1533567" lon="11.8961567"><ele>403.0</ele><time>2026-04-19T09:02:57.592Z</time></trkpt><trkpt lat="42.1533183" lon="11.8960733"><ele>403.0</ele><time>2026-04-19T09:02:58.592Z</time></trkpt><trkpt lat="42.153265" lon="11.8959983"><ele>404.4</ele><time>2026-04-19T09:02:59.592Z</time></trkpt><trkpt lat="42.1531983" lon="11.8959683"><ele>405.79999999999995</ele><time>2026-04-19T09:03:00.592Z</time></trkpt><trkpt lat="42.1531033" lon="11.8960417"><ele>407.2</ele><time>2026-04-19T09:03:02.592Z</time></trkpt><trkpt lat="42.1530967" lon="11.8961983"><ele>408.6</ele><time>2026-04-19T09:03:04.592Z</time></trkpt><trkpt lat="42.153125" lon="11.8963167"><ele>410.0</ele><time>2026-04-19T09:03:05.592Z</time></trkpt><trkpt lat="42.1531567" lon="11.8964167"><ele>410.0</ele><time>2026-04-19T09:03:06.592Z</time></trkpt><trkpt lat="42.1531967" lon="11.8965317"><ele>410.0</ele><time>2026-04-19T09:03:08.593Z</time></trkpt><trkpt lat="42.1531083" lon="11.8965083"><ele>410.0</ele><time>2026-04-19T09:03:11.592Z</time></trkpt><trkpt lat="42.153045" lon="11.8964417"><ele>410.0</ele><time>2026-04-19T09:03:12.592Z</time></trkpt><trkpt lat="42.1529617" lon="11.896365"><ele>410.0</ele><time>2026-04-19T09:03:13.592Z</time></trkpt><trkpt lat="42.1528833" lon="11.8963117"><ele>410.0</ele><time>2026-04-19T09:03:14.593Z</time></trkpt><trkpt lat="42.1528167" lon="11.896295"><ele>410.0</ele><time>2026-04-19T09:03:15.592Z</time></trkpt><trkpt lat="42.1527017" lon="11.8963767"><ele>410.0</ele><time>2026-04-19T09:03:17.592Z</time></trkpt><trkpt lat="42.1526417" lon="11.8964633"><ele>410.0</ele><time>2026-04-19T09:03:18.592Z</time></trkpt><trkpt lat="42.152575" lon="11.8965483"><ele>410.0</ele><time>2026-04-19T09:03:19.592Z</time></trkpt><trkpt lat="42.152495" lon="11.896615"><ele>409.99999999999994</ele><time>2026-04-19T09:03:20.592Z</time></trkpt><trkpt lat="42.1524183" lon="11.896665"><ele>410.0</ele><time>2026-04-19T09:03:21.592Z</time></trkpt><trkpt lat="42.1523433" lon="11.8967183"><ele>410.0</ele><time>2026-04-19T09:03:22.592Z</time></trkpt><trkpt lat="42.1522817" lon="11.8967633"><ele>410.0</ele><time>2026-04-19T09:03:23.592Z</time></trkpt><trkpt lat="42.15221" lon="11.8968067"><ele>409.99999999999994</ele><time>2026-04-19T09:03:25.592Z</time></trkpt><trkpt lat="42.15213" lon="11.89681"><ele>410.0</ele><time>2026-04-19T09:03:27.592Z</time></trkpt><trkpt lat="42.1520683" lon="11.8967583"><ele>411.6</ele><time>2026-04-19T09:03:28.592Z</time></trkpt><trkpt lat="42.1520017" lon="11.8966967"><ele>413.2</ele><time>2026-04-19T09:03:29.593Z</time></trkpt><trkpt lat="42.151915" lon="11.8966533"><ele>414.79999999999995</ele><time>2026-04-19T09:03:30.592Z</time></trkpt><trkpt lat="42.1518267" lon="11.896605"><ele>416.4</ele><time>2026-04-19T09:03:31.592Z</time></trkpt><trkpt lat="42.151745" lon="11.8965483"><ele>418.0</ele><time>2026-04-19T09:03:32.592Z</time></trkpt><trkpt lat="42.151675" lon="11.89647"><ele>418.00000000000006</ele><time>2026-04-19T09:03:33.592Z</time></trkpt><trkpt lat="42.1516317" lon="11.8963767"><ele>418.0</ele><time>2026-04-19T09:03:34.592Z</time></trkpt><trkpt lat="42.1516" lon="11.8962933"><ele>418.0</ele><time>2026-04-19T09:03:35.592Z</time></trkpt><trkpt lat="42.1515733" lon="11.8962133"><ele>418.0</ele><time>2026-04-19T09:03:36.592Z</time></trkpt><trkpt lat="42.1515117" lon="11.896065"><ele>418.00000000000006</ele><time>2026-04-19T09:03:38.592Z</time></trkpt><trkpt lat="42.1514433" lon="11.8959983"><ele>418.0</ele><time>2026-04-19T09:03:39.592Z</time></trkpt><trkpt lat="42.1513667" lon="11.895925"><ele>414.0</ele><time>2026-04-19T09:03:40.592Z</time></trkpt><trkpt lat="42.151275" lon="11.8958667"><ele>410.0</ele><time>2026-04-19T09:03:41.592Z</time></trkpt><trkpt lat="42.1511667" lon="11.89578"><ele>406.0</ele><time>2026-04-19T09:03:42.592Z</time></trkpt><trkpt lat="42.1510283" lon="11.89571"><ele>402.0</ele><time>2026-04-19T09:03:43.593Z</time></trkpt><trkpt lat="42.1509083" lon="11.8955867"><ele>402.0</ele><time>2026-04-19T09:03:44.592Z</time></trkpt><trkpt lat="42.150785" lon="11.89547"><ele>402.0</ele><time>2026-04-19T09:03:45.593Z</time></trkpt><trkpt lat="42.1506717" lon="11.8953667"><ele>402.0</ele><time>2026-04-19T09:03:46.592Z</time></trkpt><trkpt lat="42.150555" lon="11.895265"><ele>402.0</ele><time>2026-04-19T09:03:47.593Z</time></trkpt><trkpt lat="42.1504517" lon="11.8951717"><ele>402.25</ele><time>2026-04-19T09:03:48.592Z</time></trkpt><trkpt lat="42.15034" lon="11.8950883"><ele>402.5</ele><time>2026-04-19T09:03:49.592Z</time></trkpt><trkpt lat="42.1502417" lon="11.894985"><ele>402.75</ele><time>2026-04-19T09:03:50.592Z</time></trkpt><trkpt lat="42.1501367" lon="11.894895"><ele>403.0</ele><time>2026-04-19T09:03:51.592Z</time></trkpt><trkpt lat="42.1500317" lon="11.8948183"><ele>404.59999999999997</ele><time>2026-04-19T09:03:52.592Z</time></trkpt><trkpt lat="42.1499317" lon="11.89475"><ele>406.2</ele><time>2026-04-19T09:03:53.592Z</time></trkpt><trkpt lat="42.149835" lon="11.894695"><ele>407.8</ele><time>2026-04-19T09:03:54.592Z</time></trkpt><trkpt lat="42.1497383" lon="11.8946367"><ele>409.4</ele><time>2026-04-19T09:03:55.592Z</time></trkpt><trkpt lat="42.14964" lon="11.8945867"><ele>411.0</ele><time>2026-04-19T09:03:56.592Z</time></trkpt><trkpt lat="42.1495433" lon="11.8945267"><ele>411.0</ele><time>2026-04-19T09:03:57.593Z</time></trkpt><trkpt lat="42.149455" lon="11.8944267"><ele>411.0</ele><time>2026-04-19T09:03:58.592Z</time></trkpt><trkpt lat="42.14938" lon="11.89431"><ele>411.0</ele><time>2026-04-19T09:03:59.593Z</time></trkpt><trkpt lat="42.149315" lon="11.8941867"><ele>411.0</ele><time>2026-04-19T09:04:00.592Z</time></trkpt><trkpt lat="42.1492417" lon="11.89405"><ele>411.75</ele><time>2026-04-19T09:04:01.592Z</time></trkpt><trkpt lat="42.1491767" lon="11.8939083"><ele>412.5</ele><time>2026-04-19T09:04:02.592Z</time></trkpt><trkpt lat="42.1491083" lon="11.8937667"><ele>413.25</ele><time>2026-04-19T09:04:03.592Z</time></trkpt><trkpt lat="42.1490367" lon="11.8936317"><ele>414.0</ele><time>2026-04-19T09:04:04.592Z</time></trkpt><trkpt lat="42.148965" lon="11.8935017"><ele>410.79999999999995</ele><time>2026-04-19T09:04:05.593Z</time></trkpt><trkpt lat="42.1488917" lon="11.893385"><ele>407.59999999999997</ele><time>2026-04-19T09:04:06.592Z</time></trkpt><trkpt lat="42.1488083" lon="11.8932883"><ele>404.4</ele><time>2026-04-19T09:04:07.592Z</time></trkpt><trkpt lat="42.1487167" lon="11.8932283"><ele>401.2</ele><time>2026-04-19T09:04:08.592Z</time></trkpt><trkpt lat="42.148615" lon="11.8931933"><ele>398.0</ele><time>2026-04-19T09:04:09.592Z</time></trkpt><trkpt lat="42.1485017" lon="11.8931983"><ele>398.0</ele><time>2026-04-19T09:04:10.592Z</time></trkpt><trkpt lat="42.148385" lon="11.8932233"><ele>398.0</ele><time>2026-04-19T09:04:11.592Z</time></trkpt><trkpt lat="42.1482867" lon="11.8932767"><ele>398.0</ele><time>2026-04-19T09:04:12.593Z</time></trkpt><trkpt lat="42.1481967" lon="11.8933383"><ele>398.0</ele><time>2026-04-19T09:04:13.592Z</time></trkpt><trkpt lat="42.1481033" lon="11.8934117"><ele>398.0</ele><time>2026-04-19T09:04:14.592Z</time></trkpt><trkpt lat="42.1480167" lon="11.893455"><ele>398.4</ele><time>2026-04-19T09:04:15.592Z</time></trkpt><trkpt lat="42.1479367" lon="11.8934433"><ele>398.79999999999995</ele><time>2026-04-19T09:04:16.593Z</time></trkpt><trkpt lat="42.1478633" lon="11.8933933"><ele>399.2</ele><time>2026-04-19T09:04:17.592Z</time></trkpt><trkpt lat="42.147785" lon="11.8933017"><ele>399.6</ele><time>2026-04-19T09:04:18.592Z</time></trkpt><trkpt lat="42.1477017" lon="11.8931933"><ele>400.0</ele><time>2026-04-19T09:04:19.592Z</time></trkpt><trkpt lat="42.1476267" lon="11.8931217"><ele>400.0</ele><time>2026-04-19T09:04:20.592Z</time></trkpt><trkpt lat="42.1475417" lon="11.8931033"><ele>400.0</ele><time>2026-04-19T09:04:21.592Z</time></trkpt><trkpt lat="42.1474483" lon="11.8931183"><ele>400.0</ele><time>2026-04-19T09:04:22.592Z</time></trkpt><trkpt lat="42.147345" lon="11.8931817"><ele>400.0</ele><time>2026-04-19T09:04:23.592Z</time></trkpt><trkpt lat="42.1472283" lon="11.8932667"><ele>400.0</ele><time>2026-04-19T09:04:24.592Z</time></trkpt><trkpt lat="42.1471083" lon="11.8933333"><ele>399.8</ele><time>2026-04-19T09:04:25.592Z</time></trkpt><trkpt lat="42.147005" lon="11.89337"><ele>399.6</ele><time>2026-04-19T09:04:26.593Z</time></trkpt><trkpt lat="42.1469067" lon="11.893385"><ele>399.4</ele><time>2026-04-19T09:04:27.592Z</time></trkpt><trkpt lat="42.1468117" lon="11.8933667"><ele>399.2</ele><time>2026-04-19T09:04:28.592Z</time></trkpt><trkpt lat="42.1467133" lon="11.8933417"><ele>399.0</ele><time>2026-04-19T09:04:29.592Z</time></trkpt><trkpt lat="42.146615" lon="11.8933067"><ele>401.0</ele><time>2026-04-19T09:04:30.593Z</time></trkpt><trkpt lat="42.1465233" lon="11.893255"><ele>403.0</ele><time>2026-04-19T09:04:31.592Z</time></trkpt><trkpt lat="42.1464367" lon="11.8932017"><ele>405.0</ele><time>2026-04-19T09:04:32.592Z</time></trkpt><trkpt lat="42.146355" lon="11.8931483"><ele>407.0</ele><time>2026-04-19T09:04:33.592Z</time></trkpt><trkpt lat="42.146285" lon="11.8930933"><ele>409.0</ele><time>2026-04-19T09:04:34.592Z</time></trkpt><trkpt lat="42.146235" lon="11.8930233"><ele>411.0</ele><time>2026-04-19T09:04:35.592Z</time></trkpt><trkpt lat="42.1461917" lon="11.892935"><ele>411.0</ele><time>2026-04-19T09:04:36.592Z</time></trkpt><trkpt lat="42.1461633" lon="11.892835"><ele>411.0</ele><time>2026-04-19T09:04:37.592Z</time></trkpt><trkpt lat="42.14615" lon="11.8927133"><ele>411.0</ele><time>2026-04-19T09:04:38.592Z</time></trkpt><trkpt lat="42.1461433" lon="11.8925633"><ele>411.0</ele><time>2026-04-19T09:04:39.592Z</time></trkpt><trkpt lat="42.1461267" lon="11.8924167"><ele>411.0</ele><time>2026-04-19T09:04:40.592Z</time></trkpt><trkpt lat="42.1461217" lon="11.892275"><ele>411.1666666666667</ele><time>2026-04-19T09:04:41.592Z</time></trkpt><trkpt lat="42.1461383" lon="11.8921417"><ele>411.33333333333337</ele><time>2026-04-19T09:04:42.592Z</time></trkpt><trkpt lat="42.1461583" lon="11.8920183"><ele>411.5</ele><time>2026-04-19T09:04:43.592Z</time></trkpt><trkpt lat="42.1461683" lon="11.8919033"><ele>411.6666666666667</ele><time>2026-04-19T09:04:44.593Z</time></trkpt><trkpt lat="42.14617" lon="11.8917933"><ele>411.83333333333337</ele><time>2026-04-19T09:04:45.592Z</time></trkpt><trkpt lat="42.1461467" lon="11.8916867"><ele>412.0</ele><time>2026-04-19T09:04:46.592Z</time></trkpt><trkpt lat="42.146115" lon="11.8915833"><ele>413.00000000000006</ele><time>2026-04-19T09:04:47.592Z</time></trkpt><trkpt lat="42.1460833" lon="11.8914917"><ele>414.0</ele><time>2026-04-19T09:04:48.592Z</time></trkpt><trkpt lat="42.1460483" lon="11.8914067"><ele>415.0</ele><time>2026-04-19T09:04:49.592Z</time></trkpt><trkpt lat="42.1460083" lon="11.891325"><ele>416.0</ele><time>2026-04-19T09:04:50.592Z</time></trkpt><trkpt lat="42.1459717" lon="11.8912317"><ele>417.00000000000006</ele><time>2026-04-19T09:04:51.592Z</time></trkpt><trkpt lat="42.145945" lon="11.89114"><ele>418.0</ele><time>2026-04-19T09:04:52.592Z</time></trkpt><trkpt lat="42.14592" lon="11.8909633"><ele>417.59999999999997</ele><time>2026-04-19T09:04:54.593Z</time></trkpt><trkpt lat="42.1459183" lon="11.8908667"><ele>417.2</ele><time>2026-04-19T09:04:55.592Z</time></trkpt><trkpt lat="42.14592" lon="11.890745"><ele>416.8</ele><time>2026-04-19T09:04:56.592Z</time></trkpt><trkpt lat="42.1459333" lon="11.890585"><ele>416.4</ele><time>2026-04-19T09:04:57.593Z</time></trkpt><trkpt lat="42.1459233" lon="11.8904483"><ele>416.0</ele><time>2026-04-19T09:04:58.593Z</time></trkpt><trkpt lat="42.1459283" lon="11.8903267"><ele>416.0</ele><time>2026-04-19T09:04:59.593Z</time></trkpt><trkpt lat="42.1459433" lon="11.8902117"><ele>416.0</ele><time>2026-04-19T09:05:00.592Z</time></trkpt><trkpt lat="42.145955" lon="11.8900817"><ele>416.0</ele><time>2026-04-19T09:05:01.592Z</time></trkpt><trkpt lat="42.1459633" lon="11.8899467"><ele>416.0</ele><time>2026-04-19T09:05:02.592Z</time></trkpt><trkpt lat="42.1459783" lon="11.8898"><ele>416.0</ele><time>2026-04-19T09:05:03.592Z</time></trkpt><trkpt lat="42.1459667" lon="11.8896333"><ele>416.0</ele><time>2026-04-19T09:05:04.592Z</time></trkpt><trkpt lat="42.14596" lon="11.8894483"><ele>416.0</ele><time>2026-04-19T09:05:05.592Z</time></trkpt><trkpt lat="42.14594" lon="11.88925"><ele>416.0</ele><time>2026-04-19T09:05:06.592Z</time></trkpt><trkpt lat="42.1459067" lon="11.8890483"><ele>416.0</ele><time>2026-04-19T09:05:07.592Z</time></trkpt><trkpt lat="42.14588" lon="11.8888617"><ele>415.4</ele><time>2026-04-19T09:05:08.592Z</time></trkpt><trkpt lat="42.1458517" lon="11.88867"><ele>414.8</ele><time>2026-04-19T09:05:09.592Z</time></trkpt><trkpt lat="42.1458283" lon="11.8885233"><ele>414.2</ele><time>2026-04-19T09:05:10.592Z</time></trkpt><trkpt lat="42.1458117" lon="11.8884017"><ele>413.59999999999997</ele><time>2026-04-19T09:05:11.592Z</time></trkpt><trkpt lat="42.1458017" lon="11.888275"><ele>413.0</ele><time>2026-04-19T09:05:12.592Z</time></trkpt><trkpt lat="42.1457883" lon="11.888155"><ele>411.99999999999994</ele><time>2026-04-19T09:05:13.593Z</time></trkpt><trkpt lat="42.1457633" lon="11.8880517"><ele>411.0</ele><time>2026-04-19T09:05:14.592Z</time></trkpt><trkpt lat="42.1457233" lon="11.8879733"><ele>410.0</ele><time>2026-04-19T09:05:15.592Z</time></trkpt><trkpt lat="42.1456467" lon="11.8879667"><ele>409.0</ele><time>2026-04-19T09:05:16.592Z</time></trkpt><trkpt lat="42.1455617" lon="11.88795"><ele>407.99999999999994</ele><time>2026-04-19T09:05:17.593Z</time></trkpt><trkpt lat="42.14545" lon="11.8879483"><ele>407.0</ele><time>2026-04-19T09:05:18.592Z</time></trkpt><trkpt lat="42.145325" lon="11.887945"><ele>411.20000000000005</ele><time>2026-04-19T09:05:19.593Z</time></trkpt><trkpt lat="42.1451967" lon="11.8879683"><ele>415.4</ele><time>2026-04-19T09:05:20.592Z</time></trkpt><trkpt lat="42.1450833" lon="11.8879867"><ele>419.59999999999997</ele><time>2026-04-19T09:05:21.592Z</time></trkpt><trkpt lat="42.1449767" lon="11.8879967"><ele>423.79999999999995</ele><time>2026-04-19T09:05:22.592Z</time></trkpt><trkpt lat="42.14489" lon="11.887995"><ele>428.0</ele><time>2026-04-19T09:05:23.592Z</time></trkpt><trkpt lat="42.1448267" lon="11.88798"><ele>429.4</ele><time>2026-04-19T09:05:24.592Z</time></trkpt><trkpt lat="42.1447633" lon="11.8878967"><ele>430.79999999999995</ele><time>2026-04-19T09:05:26.592Z</time></trkpt><trkpt lat="42.1447567" lon="11.8878083"><ele>432.2</ele><time>2026-04-19T09:05:27.592Z</time></trkpt><trkpt lat="42.1447583" lon="11.8877067"><ele>433.6</ele><time>2026-04-19T09:05:28.592Z</time></trkpt><trkpt lat="42.1447717" lon="11.8875783"><ele>435.0</ele><time>2026-04-19T09:05:29.592Z</time></trkpt><trkpt lat="42.1447583" lon="11.88741"><ele>435.0</ele><time>2026-04-19T09:05:30.593Z</time></trkpt><trkpt lat="42.1447267" lon="11.8872617"><ele>435.0</ele><time>2026-04-19T09:05:31.592Z</time></trkpt><trkpt lat="42.1446733" lon="11.88713"><ele>435.0</ele><time>2026-04-19T09:05:32.592Z</time></trkpt><trkpt lat="42.1446" lon="11.8870367"><ele>435.0</ele><time>2026-04-19T09:05:33.593Z</time></trkpt><trkpt lat="42.144495" lon="11.8870067"><ele>435.0</ele><time>2026-04-19T09:05:34.592Z</time></trkpt><trkpt lat="42.1444017" lon="11.88698"><ele>435.0</ele><time>2026-04-19T09:05:35.592Z</time></trkpt><trkpt lat="42.1443267" lon="11.886955"><ele>435.0</ele><time>2026-04-19T09:05:36.593Z</time></trkpt><trkpt lat="42.14423" lon="11.8869217"><ele>435.0</ele><time>2026-04-19T09:05:38.592Z</time></trkpt><trkpt lat="42.1441517" lon="11.8868617"><ele>435.0</ele><time>2026-04-19T09:05:47.592Z</time></trkpt><trkpt lat="42.1440583" lon="11.886815"><ele>435.0</ele><time>2026-04-19T09:06:14.591Z</time></trkpt><trkpt lat="42.1439917" lon="11.88679"><ele>435.0</ele><time>2026-04-19T09:06:20.591Z</time></trkpt><trkpt lat="42.1439317" lon="11.8868433"><ele>435.1666666666667</ele><time>2026-04-19T09:06:22.592Z</time></trkpt><trkpt lat="42.143845" lon="11.8867967"><ele>435.33333333333337</ele><time>2026-04-19T09:06:24.591Z</time></trkpt><trkpt lat="42.1438117" lon="11.886715"><ele>435.5</ele><time>2026-04-19T09:06:25.592Z</time></trkpt><trkpt lat="42.1437783" lon="11.8866067"><ele>435.6666666666667</ele><time>2026-04-19T09:06:26.591Z</time></trkpt><trkpt lat="42.1437367" lon="11.8865033"><ele>435.83333333333337</ele><time>2026-04-19T09:06:27.592Z</time></trkpt><trkpt lat="42.1436783" lon="11.8863967"><ele>436.0</ele><time>2026-04-19T09:06:28.591Z</time></trkpt><trkpt lat="42.1436033" lon="11.8862817"><ele>436.0</ele><time>2026-04-19T09:06:29.591Z</time></trkpt><trkpt lat="42.1435167" lon="11.8861633"><ele>436.0</ele><time>2026-04-19T09:06:30.591Z</time></trkpt><trkpt lat="42.143455" lon="11.8860483"><ele>436.0</ele><time>2026-04-19T09:06:31.592Z</time></trkpt><trkpt lat="42.14341" lon="11.8859533"><ele>436.0</ele><time>2026-04-19T09:06:32.591Z</time></trkpt><trkpt lat="42.1433767" lon="11.8858533"><ele>436.0</ele><time>2026-04-19T09:06:34.591Z</time></trkpt><trkpt lat="42.1432933" lon="11.8858617"><ele>434.0</ele><time>2026-04-19T09:06:37.591Z</time></trkpt><trkpt lat="42.1432117" lon="11.8859167"><ele>432.0</ele><time>2026-04-19T09:06:40.591Z</time></trkpt><trkpt lat="42.143095" lon="11.8859283"><ele>430.0</ele><time>2026-04-19T09:06:42.592Z</time></trkpt><trkpt lat="42.14301" lon="11.8859417"><ele>428.0</ele><time>2026-04-19T09:06:43.591Z</time></trkpt><trkpt lat="42.1429317" lon="11.88596"><ele>426.0</ele><time>2026-04-19T09:06:44.592Z</time></trkpt><trkpt lat="42.1428167" lon="11.8859667"><ele>428.20000000000005</ele><time>2026-04-19T09:06:46.591Z</time></trkpt><trkpt lat="42.1427383" lon="11.8859533"><ele>430.40000000000003</ele><time>2026-04-19T09:06:47.592Z</time></trkpt><trkpt lat="42.1426517" lon="11.88597"><ele>432.6</ele><time>2026-04-19T09:06:48.591Z</time></trkpt><trkpt lat="42.142555" lon="11.8860067"><ele>434.8</ele><time>2026-04-19T09:06:49.591Z</time></trkpt><trkpt lat="42.142445" lon="11.8860667"><ele>437.0</ele><time>2026-04-19T09:06:50.591Z</time></trkpt><trkpt lat="42.1423433" lon="11.8861183"><ele>437.0</ele><time>2026-04-19T09:06:51.591Z</time></trkpt><trkpt lat="42.1422317" lon="11.8861833"><ele>437.00000000000006</ele><time>2026-04-19T09:06:52.591Z</time></trkpt><trkpt lat="42.1421267" lon="11.8862317"><ele>437.00000000000006</ele><time>2026-04-19T09:06:53.592Z</time></trkpt><trkpt lat="42.1420333" lon="11.8862767"><ele>437.0</ele><time>2026-04-19T09:06:54.591Z</time></trkpt><trkpt lat="42.141955" lon="11.8863083"><ele>437.0</ele><time>2026-04-19T09:06:55.591Z</time></trkpt><trkpt lat="42.1418717" lon="11.8863317"><ele>437.0</ele><time>2026-04-19T09:06:56.592Z</time></trkpt><trkpt lat="42.1417883" lon="11.886325"><ele>437.0</ele><time>2026-04-19T09:06:57.591Z</time></trkpt><trkpt lat="42.1417117" lon="11.8863083"><ele>437.0</ele><time>2026-04-19T09:06:58.592Z</time></trkpt><trkpt lat="42.1416483" lon="11.8862917"><ele>437.0</ele><time>2026-04-19T09:06:59.591Z</time></trkpt><trkpt lat="42.141585" lon="11.8862833"><ele>437.0</ele><time>2026-04-19T09:07:00.591Z</time></trkpt><trkpt lat="42.1415133" lon="11.88629"><ele>437.0</ele><time>2026-04-19T09:07:01.592Z</time></trkpt><trkpt lat="42.1414383" lon="11.886305"><ele>437.0</ele><time>2026-04-19T09:07:02.591Z</time></trkpt><trkpt lat="42.1413583" lon="11.8863267"><ele>433.49999999999994</ele><time>2026-04-19T09:07:03.591Z</time></trkpt><trkpt lat="42.14128" lon="11.8863583"><ele>430.0</ele><time>2026-04-19T09:07:04.591Z</time></trkpt><trkpt lat="42.1412017" lon="11.8863967"><ele>426.5</ele><time>2026-04-19T09:07:05.591Z</time></trkpt><trkpt lat="42.1411333" lon="11.8864367"><ele>423.0</ele><time>2026-04-19T09:07:06.591Z</time></trkpt><trkpt lat="42.1410317" lon="11.8864867"><ele>419.49999999999994</ele><time>2026-04-19T09:07:08.591Z</time></trkpt><trkpt lat="42.140985" lon="11.88658"><ele>416.0</ele><time>2026-04-19T09:07:10.591Z</time></trkpt><trkpt lat="42.1409883" lon="11.8866817"><ele>414.3333333333333</ele><time>2026-04-19T09:07:11.591Z</time></trkpt><trkpt lat="42.141015" lon="11.8868"><ele>412.66666666666663</ele><time>2026-04-19T09:07:12.591Z</time></trkpt><trkpt lat="42.1410383" lon="11.8869183"><ele>411.0</ele><time>2026-04-19T09:07:13.591Z</time></trkpt><trkpt lat="42.1410617" lon="11.8870283"><ele>409.33333333333337</ele><time>2026-04-19T09:07:14.591Z</time></trkpt><trkpt lat="42.1410917" lon="11.88712"><ele>407.6666666666667</ele><time>2026-04-19T09:07:15.591Z</time></trkpt><trkpt lat="42.141125" lon="11.8872067"><ele>406.0</ele><time>2026-04-19T09:07:16.591Z</time></trkpt><trkpt lat="42.1411583" lon="11.8872867"><ele>406.0</ele><time>2026-04-19T09:07:17.591Z</time></trkpt><trkpt lat="42.141215" lon="11.8874117"><ele>406.0</ele><time>2026-04-19T09:07:19.591Z</time></trkpt><trkpt lat="42.1412483" lon="11.887555"><ele>406.0</ele><time>2026-04-19T09:07:21.591Z</time></trkpt><trkpt lat="42.1412567" lon="11.8877083"><ele>406.0</ele><time>2026-04-19T09:07:23.591Z</time></trkpt><trkpt lat="42.1412233" lon="11.8878483"><ele>406.0</ele><time>2026-04-19T09:07:25.592Z</time></trkpt><trkpt lat="42.1411433" lon="11.8879783"><ele>406.33333333333337</ele><time>2026-04-19T09:07:27.591Z</time></trkpt><trkpt lat="42.1410917" lon="11.8880733"><ele>406.6666666666667</ele><time>2026-04-19T09:07:28.591Z</time></trkpt><trkpt lat="42.1410467" lon="11.8881567"><ele>407.0</ele><time>2026-04-19T09:07:29.592Z</time></trkpt><trkpt lat="42.14101" lon="11.8882467"><ele>407.33333333333337</ele><time>2026-04-19T09:07:30.592Z</time></trkpt><trkpt lat="42.1409667" lon="11.88835"><ele>407.6666666666667</ele><time>2026-04-19T09:07:31.591Z</time></trkpt><trkpt lat="42.140935" lon="11.8884467"><ele>408.0</ele><time>2026-04-19T09:07:32.591Z</time></trkpt><trkpt lat="42.140895" lon="11.8885433"><ele>407.6666666666667</ele><time>2026-04-19T09:07:33.591Z</time></trkpt><trkpt lat="42.1408483" lon="11.8886233"><ele>407.33333333333337</ele><time>2026-04-19T09:07:34.592Z</time></trkpt><trkpt lat="42.1407967" lon="11.8886933"><ele>407.0</ele><time>2026-04-19T09:07:35.591Z</time></trkpt><trkpt lat="42.1407383" lon="11.8887567"><ele>406.6666666666667</ele><time>2026-04-19T09:07:36.592Z</time></trkpt><trkpt lat="42.14067" lon="11.8888117"><ele>406.33333333333337</ele><time>2026-04-19T09:07:37.591Z</time></trkpt><trkpt lat="42.1405983" lon="11.8888667"><ele>406.0</ele><time>2026-04-19T09:07:38.591Z</time></trkpt><trkpt lat="42.1405317" lon="11.888905"><ele>406.00000000000006</ele><time>2026-04-19T09:07:39.591Z</time></trkpt><trkpt lat="42.14047" lon="11.8889467"><ele>406.0</ele><time>2026-04-19T09:07:40.591Z</time></trkpt><trkpt lat="42.140415" lon="11.8890067"><ele>406.0</ele><time>2026-04-19T09:07:41.591Z</time></trkpt><trkpt lat="42.140355" lon="11.8890933"><ele>406.0</ele><time>2026-04-19T09:07:42.591Z</time></trkpt><trkpt lat="42.1402917" lon="11.889175"><ele>406.00000000000006</ele><time>2026-04-19T09:07:43.592Z</time></trkpt><trkpt lat="42.1402233" lon="11.8892517"><ele>406.0</ele><time>2026-04-19T09:07:44.591Z</time></trkpt><trkpt lat="42.140155" lon="11.8893083"><ele>410.1666666666667</ele><time>2026-04-19T09:07:45.591Z</time></trkpt><trkpt lat="42.1400833" lon="11.8893617"><ele>414.33333333333337</ele><time>2026-04-19T09:07:46.591Z</time></trkpt><trkpt lat="42.1400017" lon="11.8893983"><ele>418.5</ele><time>2026-04-19T09:07:47.591Z</time></trkpt><trkpt lat="42.1399233" lon="11.8894083"><ele>422.66666666666663</ele><time>2026-04-19T09:07:48.592Z</time></trkpt><trkpt lat="42.1398333" lon="11.8894067"><ele>426.8333333333333</ele><time>2026-04-19T09:07:49.591Z</time></trkpt><trkpt lat="42.1397267" lon="11.88939"><ele>431.0</ele><time>2026-04-19T09:07:50.592Z</time></trkpt><trkpt lat="42.1396283" lon="11.88936"><ele>430.99999999999994</ele><time>2026-04-19T09:07:51.591Z</time></trkpt><trkpt lat="42.1395467" lon="11.889335"><ele>431.0</ele><time>2026-04-19T09:07:52.591Z</time></trkpt><trkpt lat="42.139475" lon="11.8893167"><ele>431.0</ele><time>2026-04-19T09:07:53.591Z</time></trkpt><trkpt lat="42.1394033" lon="11.8893117"><ele>431.0</ele><time>2026-04-19T09:07:54.591Z</time></trkpt><trkpt lat="42.1393383" lon="11.8893233"><ele>430.99999999999994</ele><time>2026-04-19T09:07:55.591Z</time></trkpt><trkpt lat="42.1392583" lon="11.8893333"><ele>431.0</ele><time>2026-04-19T09:07:56.591Z</time></trkpt><trkpt lat="42.13917" lon="11.8893567"><ele>430.99999999999994</ele><time>2026-04-19T09:07:57.591Z</time></trkpt><trkpt lat="42.1390833" lon="11.889365"><ele>431.0</ele><time>2026-04-19T09:07:58.591Z</time></trkpt><trkpt lat="42.1389967" lon="11.889385"><ele>431.0</ele><time>2026-04-19T09:07:59.591Z</time></trkpt><trkpt lat="42.1389133" lon="11.8893983"><ele>431.0</ele><time>2026-04-19T09:08:01.591Z</time></trkpt><trkpt lat="42.13884" lon="11.8894433"><ele>430.99999999999994</ele><time>2026-04-19T09:08:24.591Z</time></trkpt><trkpt lat="42.1387867" lon="11.88951"><ele>431.0</ele><time>2026-04-19T09:08:26.591Z</time></trkpt><trkpt lat="42.1387383" lon="11.8895783"><ele>430.99999999999994</ele><time>2026-04-19T09:08:27.591Z</time></trkpt><trkpt lat="42.1386617" lon="11.8896683"><ele>431.0</ele><time>2026-04-19T09:08:29.591Z</time></trkpt><trkpt lat="42.138745" lon="11.8895767"><ele>431.0</ele><time>2026-04-19T09:08:37.591Z</time></trkpt><trkpt lat="42.1387983" lon="11.88949"><ele>431.0</ele><time>2026-04-19T09:08:38.591Z</time></trkpt><trkpt lat="42.1388583" lon="11.88941"><ele>430.99999999999994</ele><time>2026-04-19T09:08:39.591Z</time></trkpt><trkpt lat="42.13892" lon="11.8893733"><ele>431.0</ele><time>2026-04-19T09:08:40.591Z</time></trkpt><trkpt lat="42.1390633" lon="11.8893633"><ele>431.0</ele><time>2026-04-19T09:08:42.591Z</time></trkpt><trkpt lat="42.1391533" lon="11.8893717"><ele>431.0</ele><time>2026-04-19T09:08:43.591Z</time></trkpt><trkpt lat="42.1392333" lon="11.8893617"><ele>431.0</ele><time>2026-04-19T09:08:44.591Z</time></trkpt><trkpt lat="42.139295" lon="11.8893383"><ele>431.0</ele><time>2026-04-19T09:08:45.592Z</time></trkpt><trkpt lat="42.13936" lon="11.8893133"><ele>431.0</ele><time>2026-04-19T09:08:46.592Z</time></trkpt><trkpt lat="42.1394267" lon="11.8893083"><ele>431.0</ele><time>2026-04-19T09:08:47.592Z</time></trkpt><trkpt lat="42.139495" lon="11.8893083"><ele>431.0</ele><time>2026-04-19T09:08:48.591Z</time></trkpt><trkpt lat="42.1395733" lon="11.8893267"><ele>431.0</ele><time>2026-04-19T09:08:49.591Z</time></trkpt><trkpt lat="42.13965" lon="11.88935"><ele>431.0</ele><time>2026-04-19T09:08:50.591Z</time></trkpt><trkpt lat="42.1397283" lon="11.889375"><ele>431.0</ele><time>2026-04-19T09:08:51.592Z</time></trkpt><trkpt lat="42.139805" lon="11.8893917"><ele>431.0</ele><time>2026-04-19T09:08:52.592Z</time></trkpt><trkpt lat="42.139875" lon="11.8894"><ele>431.0</ele><time>2026-04-19T09:08:53.591Z</time></trkpt><trkpt lat="42.1399433" lon="11.88941"><ele>431.0</ele><time>2026-04-19T09:08:54.591Z</time></trkpt><trkpt lat="42.1400083" lon="11.8894"><ele>431.0</ele><time>2026-04-19T09:08:55.591Z</time></trkpt><trkpt lat="42.1400767" lon="11.8893733"><ele>432.0</ele><time>2026-04-19T09:08:56.591Z</time></trkpt><trkpt lat="42.1401417" lon="11.8893233"><ele>433.0</ele><time>2026-04-19T09:08:57.591Z</time></trkpt><trkpt lat="42.1401967" lon="11.8892733"><ele>434.0</ele><time>2026-04-19T09:08:58.591Z</time></trkpt><trkpt lat="42.1402567" lon="11.8892183"><ele>435.0</ele><time>2026-04-19T09:08:59.591Z</time></trkpt><trkpt lat="42.1403117" lon="11.88915"><ele>436.0</ele><time>2026-04-19T09:09:00.592Z</time></trkpt><trkpt lat="42.140365" lon="11.8890767"><ele>437.0</ele><time>2026-04-19T09:09:01.591Z</time></trkpt><trkpt lat="42.1404217" lon="11.889005"><ele>438.0</ele><time>2026-04-19T09:09:02.59Z</time></trkpt><trkpt lat="42.140485" lon="11.8889383"><ele>436.0</ele><time>2026-04-19T09:09:03.591Z</time></trkpt><trkpt lat="42.1405567" lon="11.88888"><ele>434.0</ele><time>2026-04-19T09:09:04.59Z</time></trkpt><trkpt lat="42.14063" lon="11.8888367"><ele>432.0</ele><time>2026-04-19T09:09:05.591Z</time></trkpt><trkpt lat="42.1406967" lon="11.8887917"><ele>430.0</ele><time>2026-04-19T09:09:06.59Z</time></trkpt><trkpt lat="42.1407617" lon="11.88874"><ele>428.0</ele><time>2026-04-19T09:09:07.591Z</time></trkpt><trkpt lat="42.1408133" lon="11.8886767"><ele>426.0</ele><time>2026-04-19T09:09:08.591Z</time></trkpt><trkpt lat="42.1408617" lon="11.888605"><ele>426.0</ele><time>2026-04-19T09:09:09.59Z</time></trkpt><trkpt lat="42.140905" lon="11.8885183"><ele>426.0</ele><time>2026-04-19T09:09:10.59Z</time></trkpt><trkpt lat="42.1409433" lon="11.8883983"><ele>426.0</ele><time>2026-04-19T09:09:11.59Z</time></trkpt><trkpt lat="42.14098" lon="11.8882683"><ele>426.0</ele><time>2026-04-19T09:09:12.59Z</time></trkpt><trkpt lat="42.1410217" lon="11.8881517"><ele>426.0</ele><time>2026-04-19T09:09:13.59Z</time></trkpt><trkpt lat="42.1410667" lon="11.8880567"><ele>423.0</ele><time>2026-04-19T09:09:14.59Z</time></trkpt><trkpt lat="42.1411183" lon="11.8879717"><ele>420.0</ele><time>2026-04-19T09:09:15.59Z</time></trkpt><trkpt lat="42.141165" lon="11.8878967"><ele>417.0</ele><time>2026-04-19T09:09:16.59Z</time></trkpt><trkpt lat="42.1412033" lon="11.8878267"><ele>414.0</ele><time>2026-04-19T09:09:17.59Z</time></trkpt><trkpt lat="42.1412433" lon="11.8876883"><ele>411.0</ele><time>2026-04-19T09:09:19.591Z</time></trkpt><trkpt lat="42.1412483" lon="11.8875983"><ele>408.0</ele><time>2026-04-19T09:09:20.59Z</time></trkpt><trkpt lat="42.14124" lon="11.8874883"><ele>407.59999999999997</ele><time>2026-04-19T09:09:21.59Z</time></trkpt><trkpt lat="42.1412017" lon="11.88738"><ele>407.2</ele><time>2026-04-19T09:09:22.59Z</time></trkpt><trkpt lat="42.1411483" lon="11.887245"><ele>406.8</ele><time>2026-04-19T09:09:23.59Z</time></trkpt><trkpt lat="42.14111" lon="11.8871183"><ele>406.4</ele><time>2026-04-19T09:09:24.59Z</time></trkpt><trkpt lat="42.1410767" lon="11.8869983"><ele>406.0</ele><time>2026-04-19T09:09:25.591Z</time></trkpt><trkpt lat="42.1410417" lon="11.8868783"><ele>406.0</ele><time>2026-04-19T09:09:26.59Z</time></trkpt><trkpt lat="42.141015" lon="11.8867633"><ele>406.0</ele><time>2026-04-19T09:09:27.59Z</time></trkpt><trkpt lat="42.1409917" lon="11.8866417"><ele>406.0</ele><time>2026-04-19T09:09:28.59Z</time></trkpt><trkpt lat="42.140985" lon="11.886535"><ele>406.0</ele><time>2026-04-19T09:09:29.59Z</time></trkpt><trkpt lat="42.1410583" lon="11.8864317"><ele>406.0</ele><time>2026-04-19T09:09:31.59Z</time></trkpt><trkpt lat="42.1411667" lon="11.886375"><ele>407.6666666666667</ele><time>2026-04-19T09:09:33.59Z</time></trkpt><trkpt lat="42.1412317" lon="11.886355"><ele>409.33333333333337</ele><time>2026-04-19T09:09:34.59Z</time></trkpt><trkpt lat="42.1413133" lon="11.8863217"><ele>411.0</ele><time>2026-04-19T09:09:35.59Z</time></trkpt><trkpt lat="42.14141" lon="11.8862983"><ele>412.66666666666663</ele><time>2026-04-19T09:09:36.59Z</time></trkpt><trkpt lat="42.1415067" lon="11.88629"><ele>414.3333333333333</ele><time>2026-04-19T09:09:37.59Z</time></trkpt><trkpt lat="42.1415917" lon="11.8862767"><ele>416.0</ele><time>2026-04-19T09:09:38.59Z</time></trkpt><trkpt lat="42.1416667" lon="11.88628"><ele>420.20000000000005</ele><time>2026-04-19T09:09:39.59Z</time></trkpt><trkpt lat="42.1417517" lon="11.8863017"><ele>424.40000000000003</ele><time>2026-04-19T09:09:40.591Z</time></trkpt><trkpt lat="42.1418517" lon="11.88631"><ele>428.6</ele><time>2026-04-19T09:09:41.59Z</time></trkpt><trkpt lat="42.14195" lon="11.8862983"><ele>432.8</ele><time>2026-04-19T09:09:42.59Z</time></trkpt><trkpt lat="42.1420333" lon="11.88626"><ele>437.0</ele><time>2026-04-19T09:09:43.59Z</time></trkpt><trkpt lat="42.1421117" lon="11.886215"><ele>436.99999999999994</ele><time>2026-04-19T09:09:44.59Z</time></trkpt><trkpt lat="42.1421933" lon="11.886175"><ele>437.0</ele><time>2026-04-19T09:09:45.59Z</time></trkpt><trkpt lat="42.142275" lon="11.8861383"><ele>437.0</ele><time>2026-04-19T09:09:46.59Z</time></trkpt><trkpt lat="42.14235" lon="11.8861067"><ele>437.0</ele><time>2026-04-19T09:09:47.59Z</time></trkpt><trkpt lat="42.1424217" lon="11.8860733"><ele>436.99999999999994</ele><time>2026-04-19T09:09:48.59Z</time></trkpt><trkpt lat="42.142495" lon="11.8860367"><ele>437.0</ele><time>2026-04-19T09:09:49.59Z</time></trkpt><trkpt lat="42.14257" lon="11.8860033"><ele>438.2857142857143</ele><time>2026-04-19T09:09:50.59Z</time></trkpt><trkpt lat="42.1426417" lon="11.8859767"><ele>439.5714285714286</ele><time>2026-04-19T09:09:51.59Z</time></trkpt><trkpt lat="42.1427183" lon="11.88596"><ele>440.8571428571429</ele><time>2026-04-19T09:09:52.591Z</time></trkpt><trkpt lat="42.1427933" lon="11.8859517"><ele>442.1428571428571</ele><time>2026-04-19T09:09:53.59Z</time></trkpt><trkpt lat="42.1428633" lon="11.8859567"><ele>443.42857142857144</ele><time>2026-04-19T09:09:54.59Z</time></trkpt><trkpt lat="42.142935" lon="11.885955"><ele>444.7142857142857</ele><time>2026-04-19T09:09:55.59Z</time></trkpt><trkpt lat="42.1430133" lon="11.8859433"><ele>446.0</ele><time>2026-04-19T09:09:56.59Z</time></trkpt><trkpt lat="42.14308" lon="11.88594"><ele>444.3333333333333</ele><time>2026-04-19T09:09:57.59Z</time></trkpt><trkpt lat="42.143145" lon="11.8859283"><ele>442.66666666666663</ele><time>2026-04-19T09:09:58.591Z</time></trkpt><trkpt lat="42.14325" lon="11.8859067"><ele>441.0</ele><time>2026-04-19T09:10:00.591Z</time></trkpt><trkpt lat="42.1432933" lon="11.8859967"><ele>439.33333333333337</ele><time>2026-04-19T09:10:03.59Z</time></trkpt><trkpt lat="42.143275" lon="11.886105"><ele>437.6666666666667</ele><time>2026-04-19T09:10:05.59Z</time></trkpt><trkpt lat="42.1432717" lon="11.88623"><ele>436.0</ele><time>2026-04-19T09:10:07.59Z</time></trkpt><trkpt lat="42.1432767" lon="11.8863167"><ele>436.00000000000006</ele><time>2026-04-19T09:10:08.59Z</time></trkpt><trkpt lat="42.143275" lon="11.88641"><ele>436.0</ele><time>2026-04-19T09:10:09.591Z</time></trkpt><trkpt lat="42.1432783" lon="11.8865317"><ele>436.0</ele><time>2026-04-19T09:10:10.59Z</time></trkpt><trkpt lat="42.1432817" lon="11.8866583"><ele>436.0</ele><time>2026-04-19T09:10:11.59Z</time></trkpt><trkpt lat="42.143285" lon="11.8867717"><ele>436.00000000000006</ele><time>2026-04-19T09:10:12.59Z</time></trkpt><trkpt lat="42.1433083" lon="11.886885"><ele>436.0</ele><time>2026-04-19T09:10:13.59Z</time></trkpt><trkpt lat="42.1433283" lon="11.88702"><ele>438.6</ele><time>2026-04-19T09:10:14.59Z</time></trkpt><trkpt lat="42.1433583" lon="11.8871483"><ele>441.20000000000005</ele><time>2026-04-19T09:10:15.591Z</time></trkpt><trkpt lat="42.1434017" lon="11.8872717"><ele>443.79999999999995</ele><time>2026-04-19T09:10:16.59Z</time></trkpt><trkpt lat="42.1434467" lon="11.8873833"><ele>446.4</ele><time>2026-04-19T09:10:17.59Z</time></trkpt><trkpt lat="42.14349" lon="11.8874767"><ele>449.0</ele><time>2026-04-19T09:10:18.59Z</time></trkpt><trkpt lat="42.1435283" lon="11.8875633"><ele>449.8333333333333</ele><time>2026-04-19T09:10:19.59Z</time></trkpt><trkpt lat="42.1435517" lon="11.887665"><ele>450.66666666666663</ele><time>2026-04-19T09:10:20.59Z</time></trkpt><trkpt lat="42.14357" lon="11.8877617"><ele>451.5</ele><time>2026-04-19T09:10:21.59Z</time></trkpt><trkpt lat="42.1435783" lon="11.887865"><ele>452.33333333333337</ele><time>2026-04-19T09:10:22.59Z</time></trkpt><trkpt lat="42.143585" lon="11.8879717"><ele>453.1666666666667</ele><time>2026-04-19T09:10:23.59Z</time></trkpt><trkpt lat="42.143585" lon="11.8880983"><ele>454.0</ele><time>2026-04-19T09:10:24.59Z</time></trkpt><trkpt lat="42.14357" lon="11.888255"><ele>454.79999999999995</ele><time>2026-04-19T09:10:25.591Z</time></trkpt><trkpt lat="42.1435517" lon="11.8884267"><ele>455.59999999999997</ele><time>2026-04-19T09:10:26.59Z</time></trkpt><trkpt lat="42.1435383" lon="11.8885783"><ele>456.4</ele><time>2026-04-19T09:10:27.59Z</time></trkpt><trkpt lat="42.14353" lon="11.888695"><ele>457.2</ele><time>2026-04-19T09:10:28.59Z</time></trkpt><trkpt lat="42.143535" lon="11.8887867"><ele>458.0</ele><time>2026-04-19T09:10:29.59Z</time></trkpt><trkpt lat="42.1436" lon="11.8888833"><ele>457.99999999999994</ele><time>2026-04-19T09:10:31.59Z</time></trkpt><trkpt lat="42.1436717" lon="11.8889017"><ele>458.0</ele><time>2026-04-19T09:10:32.591Z</time></trkpt><trkpt lat="42.143755" lon="11.8889033"><ele>458.0</ele><time>2026-04-19T09:10:33.59Z</time></trkpt><trkpt lat="42.14384" lon="11.8889067"><ele>458.0</ele><time>2026-04-19T09:10:34.59Z</time></trkpt><trkpt lat="42.14393" lon="11.8888983"><ele>457.99999999999994</ele><time>2026-04-19T09:10:35.591Z</time></trkpt><trkpt lat="42.144015" lon="11.8888983"><ele>458.0</ele><time>2026-04-19T09:10:36.59Z</time></trkpt><trkpt lat="42.144085" lon="11.888915"><ele>456.59999999999997</ele><time>2026-04-19T09:10:37.59Z</time></trkpt><trkpt lat="42.144145" lon="11.8889467"><ele>455.19999999999993</ele><time>2026-04-19T09:10:38.59Z</time></trkpt><trkpt lat="42.1442467" lon="11.8890367"><ele>453.8</ele><time>2026-04-19T09:10:40.591Z</time></trkpt><trkpt lat="42.1443333" lon="11.8891133"><ele>452.4</ele><time>2026-04-19T09:10:42.59Z</time></trkpt><trkpt lat="42.1444333" lon="11.8891533"><ele>451.0</ele><time>2026-04-19T09:10:44.59Z</time></trkpt><trkpt lat="42.1445683" lon="11.8891617"><ele>451.0</ele><time>2026-04-19T09:10:46.59Z</time></trkpt><trkpt lat="42.1446333" lon="11.88918"><ele>451.0</ele><time>2026-04-19T09:10:47.59Z</time></trkpt><trkpt lat="42.144695" lon="11.88921"><ele>451.0</ele><time>2026-04-19T09:10:48.59Z</time></trkpt><trkpt lat="42.1447583" lon="11.8892767"><ele>451.0</ele><time>2026-04-19T09:10:49.591Z</time></trkpt><trkpt lat="42.1448033" lon="11.88935"><ele>451.0</ele><time>2026-04-19T09:10:50.59Z</time></trkpt><trkpt lat="42.14486" lon="11.88943"><ele>451.0</ele><time>2026-04-19T09:10:51.59Z</time></trkpt><trkpt lat="42.1449133" lon="11.889495"><ele>451.0</ele><time>2026-04-19T09:10:52.591Z</time></trkpt><trkpt lat="42.1449617" lon="11.8895683"><ele>451.20000000000005</ele><time>2026-04-19T09:10:53.591Z</time></trkpt><trkpt lat="42.1450017" lon="11.8896483"><ele>451.40000000000003</ele><time>2026-04-19T09:10:54.59Z</time></trkpt><trkpt lat="42.1450217" lon="11.8897533"><ele>451.6</ele><time>2026-04-19T09:10:55.59Z</time></trkpt><trkpt lat="42.1450067" lon="11.8898833"><ele>451.8</ele><time>2026-04-19T09:10:56.59Z</time></trkpt><trkpt lat="42.1449883" lon="11.8900117"><ele>452.0</ele><time>2026-04-19T09:10:57.591Z</time></trkpt><trkpt lat="42.1449533" lon="11.8901583"><ele>451.20000000000005</ele><time>2026-04-19T09:10:58.59Z</time></trkpt><trkpt lat="42.144905" lon="11.8903067"><ele>450.40000000000003</ele><time>2026-04-19T09:10:59.59Z</time></trkpt><trkpt lat="42.14487" lon="11.8904417"><ele>449.59999999999997</ele><time>2026-04-19T09:11:00.59Z</time></trkpt><trkpt lat="42.1448383" lon="11.8905567"><ele>448.79999999999995</ele><time>2026-04-19T09:11:01.59Z</time></trkpt><trkpt lat="42.1448" lon="11.8906517"><ele>448.0</ele><time>2026-04-19T09:11:02.59Z</time></trkpt><trkpt lat="42.1447633" lon="11.8907917"><ele>453.1666666666667</ele><time>2026-04-19T09:11:04.591Z</time></trkpt><trkpt lat="42.14472" lon="11.8908983"><ele>458.33333333333337</ele><time>2026-04-19T09:11:06.59Z</time></trkpt><trkpt lat="42.144655" lon="11.8909883"><ele>463.5</ele><time>2026-04-19T09:11:08.59Z</time></trkpt><trkpt lat="42.1446067" lon="11.8910467"><ele>468.66666666666663</ele><time>2026-04-19T09:11:10.591Z</time></trkpt><trkpt lat="42.1446367" lon="11.891155"><ele>473.8333333333333</ele><time>2026-04-19T09:11:30.59Z</time></trkpt><trkpt lat="42.1445967" lon="11.8912833"><ele>479.0</ele><time>2026-04-19T09:11:32.59Z</time></trkpt><trkpt lat="42.1445667" lon="11.8914533"><ele>480.0</ele><time>2026-04-19T09:11:34.59Z</time></trkpt><trkpt lat="42.14455" lon="11.8915733"><ele>481.0</ele><time>2026-04-19T09:11:35.59Z</time></trkpt><trkpt lat="42.1445317" lon="11.891705"><ele>482.0</ele><time>2026-04-19T09:11:36.59Z</time></trkpt><trkpt lat="42.144505" lon="11.8918317"><ele>483.0</ele><time>2026-04-19T09:11:37.59Z</time></trkpt><trkpt lat="42.1444783" lon="11.8919567"><ele>484.0</ele><time>2026-04-19T09:11:38.59Z</time></trkpt><trkpt lat="42.1444467" lon="11.8920817"><ele>484.0</ele><time>2026-04-19T09:11:39.59Z</time></trkpt><trkpt lat="42.1444167" lon="11.892215"><ele>484.0</ele><time>2026-04-19T09:11:40.59Z</time></trkpt><trkpt lat="42.14439" lon="11.8923533"><ele>484.0</ele><time>2026-04-19T09:11:41.59Z</time></trkpt><trkpt lat="42.1443567" lon="11.8924817"><ele>484.0</ele><time>2026-04-19T09:11:42.59Z</time></trkpt><trkpt lat="42.1443217" lon="11.892625"><ele>484.0</ele><time>2026-04-19T09:11:43.59Z</time></trkpt><trkpt lat="42.1442883" lon="11.8927733"><ele>483.00000000000006</ele><time>2026-04-19T09:11:44.591Z</time></trkpt><trkpt lat="42.1442717" lon="11.8928983"><ele>482.0</ele><time>2026-04-19T09:11:45.59Z</time></trkpt><trkpt lat="42.1442517" lon="11.89299"><ele>481.0</ele><time>2026-04-19T09:11:46.591Z</time></trkpt><trkpt lat="42.1442267" lon="11.89308"><ele>480.0</ele><time>2026-04-19T09:11:47.591Z</time></trkpt><trkpt lat="42.1441967" lon="11.8931567"><ele>479.00000000000006</ele><time>2026-04-19T09:11:48.59Z</time></trkpt><trkpt lat="42.1441717" lon="11.8932567"><ele>478.0</ele><time>2026-04-19T09:11:50.591Z</time></trkpt><trkpt lat="42.1441417" lon="11.8934167"><ele>475.25</ele><time>2026-04-19T09:11:52.59Z</time></trkpt><trkpt lat="42.144115" lon="11.8935317"><ele>472.5</ele><time>2026-04-19T09:11:53.59Z</time></trkpt><trkpt lat="42.14407" lon="11.8936767"><ele>469.75</ele><time>2026-04-19T09:11:54.59Z</time></trkpt><trkpt lat="42.1440133" lon="11.8938383"><ele>467.0</ele><time>2026-04-19T09:11:55.59Z</time></trkpt><trkpt lat="42.1439583" lon="11.8939933"><ele>471.0</ele><time>2026-04-19T09:11:56.59Z</time></trkpt><trkpt lat="42.14391" lon="11.894135"><ele>475.00000000000006</ele><time>2026-04-19T09:11:57.59Z</time></trkpt><trkpt lat="42.1438667" lon="11.8942533"><ele>479.00000000000006</ele><time>2026-04-19T09:11:58.59Z</time></trkpt><trkpt lat="42.143825" lon="11.89436"><ele>483.0</ele><time>2026-04-19T09:11:59.59Z</time></trkpt><trkpt lat="42.1437817" lon="11.8944517"><ele>487.0</ele><time>2026-04-19T09:12:00.59Z</time></trkpt><trkpt lat="42.1437467" lon="11.8945617"><ele>487.0</ele><time>2026-04-19T09:12:01.59Z</time></trkpt><trkpt lat="42.1437183" lon="11.8946633"><ele>487.00000000000006</ele><time>2026-04-19T09:12:02.59Z</time></trkpt><trkpt lat="42.143695" lon="11.8947683"><ele>487.00000000000006</ele><time>2026-04-19T09:12:03.59Z</time></trkpt><trkpt lat="42.1436783" lon="11.8949383"><ele>487.0</ele><time>2026-04-19T09:12:05.59Z</time></trkpt><trkpt lat="42.1436117" lon="11.8950833"><ele>487.0</ele><time>2026-04-19T09:12:07.59Z</time></trkpt><trkpt lat="42.1435633" lon="11.8951417"><ele>486.6</ele><time>2026-04-19T09:12:08.59Z</time></trkpt><trkpt lat="42.14349" lon="11.8952667"><ele>486.20000000000005</ele><time>2026-04-19T09:12:10.589Z</time></trkpt><trkpt lat="42.1434567" lon="11.8954033"><ele>485.8</ele><time>2026-04-19T09:12:12.589Z</time></trkpt><trkpt lat="42.1434533" lon="11.8955233"><ele>485.4</ele><time>2026-04-19T09:12:15.589Z</time></trkpt><trkpt lat="42.14346" lon="11.89563"><ele>485.0</ele><time>2026-04-19T09:12:17.589Z</time></trkpt><trkpt lat="42.1434867" lon="11.895755"><ele>484.99999999999994</ele><time>2026-04-19T09:12:19.59Z</time></trkpt><trkpt lat="42.143495" lon="11.895845"><ele>485.0</ele><time>2026-04-19T09:12:21.589Z</time></trkpt><trkpt lat="42.143545" lon="11.8959433"><ele>485.0</ele><time>2026-04-19T09:12:24.59Z</time></trkpt><trkpt lat="42.1436367" lon="11.8959883"><ele>485.0</ele><time>2026-04-19T09:12:26.59Z</time></trkpt><trkpt lat="42.1437" lon="11.8960117"><ele>484.99999999999994</ele><time>2026-04-19T09:12:27.59Z</time></trkpt><trkpt lat="42.1437733" lon="11.8960267"><ele>485.0</ele><time>2026-04-19T09:12:28.589Z</time></trkpt><trkpt lat="42.1438417" lon="11.8960267"><ele>485.8333333333333</ele><time>2026-04-19T09:12:29.589Z</time></trkpt><trkpt lat="42.1439067" lon="11.89603"><ele>486.66666666666663</ele><time>2026-04-19T09:12:30.589Z</time></trkpt><trkpt lat="42.14402" lon="11.8960667"><ele>487.5</ele><time>2026-04-19T09:12:32.589Z</time></trkpt><trkpt lat="42.1440867" lon="11.89611"><ele>488.33333333333337</ele><time>2026-04-19T09:12:33.589Z</time></trkpt><trkpt lat="42.1441617" lon="11.896165"><ele>489.1666666666667</ele><time>2026-04-19T09:12:34.59Z</time></trkpt><trkpt lat="42.1442433" lon="11.8962133"><ele>490.0</ele><time>2026-04-19T09:12:35.589Z</time></trkpt><trkpt lat="42.1443233" lon="11.8962717"><ele>490.00000000000006</ele><time>2026-04-19T09:12:36.589Z</time></trkpt><trkpt lat="42.1444067" lon="11.89634"><ele>490.0</ele><time>2026-04-19T09:12:37.589Z</time></trkpt><trkpt lat="42.1444767" lon="11.89642"><ele>490.0</ele><time>2026-04-19T09:12:38.589Z</time></trkpt><trkpt lat="42.1445283" lon="11.8964883"><ele>490.0</ele><time>2026-04-19T09:12:39.589Z</time></trkpt><trkpt lat="42.1445783" lon="11.896555"><ele>490.00000000000006</ele><time>2026-04-19T09:12:40.589Z</time></trkpt><trkpt lat="42.1446333" lon="11.896625"><ele>490.0</ele><time>2026-04-19T09:12:41.589Z</time></trkpt><trkpt lat="42.144675" lon="11.8966967"><ele>490.8</ele><time>2026-04-19T09:12:42.589Z</time></trkpt><trkpt lat="42.1446983" lon="11.8967867"><ele>491.6</ele><time>2026-04-19T09:12:43.589Z</time></trkpt><trkpt lat="42.1447117" lon="11.896875"><ele>492.4</ele><time>2026-04-19T09:12:44.589Z</time></trkpt><trkpt lat="42.1447017" lon="11.8970233"><ele>493.2</ele><time>2026-04-19T09:12:46.589Z</time></trkpt><trkpt lat="42.144635" lon="11.89715"><ele>494.0</ele><time>2026-04-19T09:12:48.589Z</time></trkpt><trkpt lat="42.1445283" lon="11.89724"><ele>493.99999999999994</ele><time>2026-04-19T09:12:50.59Z</time></trkpt><trkpt lat="42.144465" lon="11.8972867"><ele>494.0</ele><time>2026-04-19T09:12:51.589Z</time></trkpt><trkpt lat="42.1443617" lon="11.89738"><ele>494.0</ele><time>2026-04-19T09:12:53.589Z</time></trkpt><trkpt lat="42.14431" lon="11.897505"><ele>494.0</ele><time>2026-04-19T09:12:55.589Z</time></trkpt><trkpt lat="42.1443083" lon="11.8975933"><ele>493.99999999999994</ele><time>2026-04-19T09:12:56.589Z</time></trkpt><trkpt lat="42.1443267" lon="11.8976967"><ele>494.0</ele><time>2026-04-19T09:12:57.59Z</time></trkpt><trkpt lat="42.1443583" lon="11.89782"><ele>494.6</ele><time>2026-04-19T09:12:58.589Z</time></trkpt><trkpt lat="42.144385" lon="11.8979467"><ele>495.2</ele><time>2026-04-19T09:12:59.59Z</time></trkpt><trkpt lat="42.1444117" lon="11.89804"><ele>495.80000000000007</ele><time>2026-04-19T09:13:00.59Z</time></trkpt><trkpt lat="42.14446" lon="11.8981517"><ele>496.40000000000003</ele><time>2026-04-19T09:13:02.589Z</time></trkpt><trkpt lat="42.14451" lon="11.898255"><ele>497.0</ele><time>2026-04-19T09:13:04.59Z</time></trkpt><trkpt lat="42.1444033" lon="11.8982767"><ele>496.99999999999994</ele><time>2026-04-19T09:13:08.589Z</time></trkpt><trkpt lat="42.1443233" lon="11.89823"><ele>497.0</ele><time>2026-04-19T09:13:09.59Z</time></trkpt><trkpt lat="42.1442533" lon="11.8981833"><ele>497.0</ele><time>2026-04-19T09:13:10.589Z</time></trkpt><trkpt lat="42.1441867" lon="11.89814"><ele>497.0</ele><time>2026-04-19T09:13:11.589Z</time></trkpt><trkpt lat="42.1441117" lon="11.8980733"><ele>496.99999999999994</ele><time>2026-04-19T09:13:12.589Z</time></trkpt><trkpt lat="42.1440417" lon="11.8980067"><ele>497.0</ele><time>2026-04-19T09:13:13.589Z</time></trkpt><trkpt lat="42.1439733" lon="11.8979417"><ele>497.6</ele><time>2026-04-19T09:13:14.589Z</time></trkpt><trkpt lat="42.143895" lon="11.897875"><ele>498.20000000000005</ele><time>2026-04-19T09:13:15.589Z</time></trkpt><trkpt lat="42.14381" lon="11.8977967"><ele>498.8</ele><time>2026-04-19T09:13:16.589Z</time></trkpt><trkpt lat="42.1437217" lon="11.8977333"><ele>499.4</ele><time>2026-04-19T09:13:17.589Z</time></trkpt><trkpt lat="42.1436367" lon="11.8976833"><ele>500.0</ele><time>2026-04-19T09:13:18.589Z</time></trkpt><trkpt lat="42.14355" lon="11.8976333"><ele>500.0</ele><time>2026-04-19T09:13:19.589Z</time></trkpt><trkpt lat="42.1434517" lon="11.8976117"><ele>500.0</ele><time>2026-04-19T09:13:20.59Z</time></trkpt><trkpt lat="42.1433517" lon="11.8976083"><ele>500.0</ele><time>2026-04-19T09:13:21.589Z</time></trkpt><trkpt lat="42.1432667" lon="11.897625"><ele>500.0</ele><time>2026-04-19T09:13:22.589Z</time></trkpt><trkpt lat="42.1431833" lon="11.8976667"><ele>500.0</ele><time>2026-04-19T09:13:23.589Z</time></trkpt><trkpt lat="42.143105" lon="11.89771"><ele>498.4</ele><time>2026-04-19T09:13:24.589Z</time></trkpt><trkpt lat="42.1430317" lon="11.8977633"><ele>496.8</ele><time>2026-04-19T09:13:25.589Z</time></trkpt><trkpt lat="42.1429533" lon="11.897835"><ele>495.20000000000005</ele><time>2026-04-19T09:13:26.589Z</time></trkpt><trkpt lat="42.142885" lon="11.8979483"><ele>493.6</ele><time>2026-04-19T09:13:27.589Z</time></trkpt><trkpt lat="42.1428083" lon="11.8980667"><ele>492.0</ele><time>2026-04-19T09:13:28.59Z</time></trkpt><trkpt lat="42.1427283" lon="11.898185"><ele>492.0</ele><time>2026-04-19T09:13:29.589Z</time></trkpt><trkpt lat="42.1426667" lon="11.8983183"><ele>492.0</ele><time>2026-04-19T09:13:30.589Z</time></trkpt><trkpt lat="42.1426283" lon="11.89846"><ele>492.0</ele><time>2026-04-19T09:13:31.589Z</time></trkpt><trkpt lat="42.1426133" lon="11.8986167"><ele>492.0</ele><time>2026-04-19T09:13:32.589Z</time></trkpt><trkpt lat="42.1426267" lon="11.89878"><ele>490.75</ele><time>2026-04-19T09:13:33.589Z</time></trkpt><trkpt lat="42.1426617" lon="11.8989517"><ele>489.5</ele><time>2026-04-19T09:13:34.589Z</time></trkpt><trkpt lat="42.1426917" lon="11.8991233"><ele>488.25</ele><time>2026-04-19T09:13:35.589Z</time></trkpt><trkpt lat="42.14272" lon="11.8992883"><ele>487.0</ele><time>2026-04-19T09:13:36.589Z</time></trkpt><trkpt lat="42.1427417" lon="11.89945"><ele>485.6</ele><time>2026-04-19T09:13:37.59Z</time></trkpt><trkpt lat="42.1427517" lon="11.8995917"><ele>484.20000000000005</ele><time>2026-04-19T09:13:38.589Z</time></trkpt><trkpt lat="42.1427417" lon="11.8997217"><ele>482.8</ele><time>2026-04-19T09:13:39.59Z</time></trkpt><trkpt lat="42.14271" lon="11.899825"><ele>481.4</ele><time>2026-04-19T09:13:40.589Z</time></trkpt><trkpt lat="42.1426383" lon="11.8999083"><ele>480.0</ele><time>2026-04-19T09:13:41.589Z</time></trkpt><trkpt lat="42.1425267" lon="11.8999767"><ele>480.0</ele><time>2026-04-19T09:13:42.589Z</time></trkpt><trkpt lat="42.1424083" lon="11.9000217"><ele>480.0</ele><time>2026-04-19T09:13:43.589Z</time></trkpt><trkpt lat="42.14228" lon="11.9000767"><ele>480.0</ele><time>2026-04-19T09:13:44.589Z</time></trkpt><trkpt lat="42.1421733" lon="11.900135"><ele>480.0</ele><time>2026-04-19T09:13:45.589Z</time></trkpt><trkpt lat="42.1420767" lon="11.90022"><ele>476.5</ele><time>2026-04-19T09:13:46.589Z</time></trkpt><trkpt lat="42.141995" lon="11.9003167"><ele>473.0</ele><time>2026-04-19T09:13:47.589Z</time></trkpt><trkpt lat="42.1419183" lon="11.9004367"><ele>469.5</ele><time>2026-04-19T09:13:48.59Z</time></trkpt><trkpt lat="42.1418417" lon="11.9006"><ele>466.0</ele><time>2026-04-19T09:13:49.59Z</time></trkpt><trkpt lat="42.141775" lon="11.9007733"><ele>466.0</ele><time>2026-04-19T09:13:50.589Z</time></trkpt><trkpt lat="42.1417067" lon="11.900915"><ele>466.0</ele><time>2026-04-19T09:13:51.589Z</time></trkpt><trkpt lat="42.1416267" lon="11.901025"><ele>466.0</ele><time>2026-04-19T09:13:52.589Z</time></trkpt><trkpt lat="42.141535" lon="11.9010917"><ele>466.0</ele><time>2026-04-19T09:13:53.589Z</time></trkpt><trkpt lat="42.1414367" lon="11.9011017"><ele>466.0</ele><time>2026-04-19T09:13:54.589Z</time></trkpt><trkpt lat="42.1413533" lon="11.9010633"><ele>466.8</ele><time>2026-04-19T09:13:55.589Z</time></trkpt><trkpt lat="42.1412717" lon="11.9009883"><ele>467.6</ele><time>2026-04-19T09:13:56.589Z</time></trkpt><trkpt lat="42.1411867" lon="11.9009217"><ele>468.4</ele><time>2026-04-19T09:13:57.589Z</time></trkpt><trkpt lat="42.1410933" lon="11.9008633"><ele>469.2</ele><time>2026-04-19T09:13:58.589Z</time></trkpt><trkpt lat="42.1409867" lon="11.90084"><ele>470.0</ele><time>2026-04-19T09:13:59.589Z</time></trkpt><trkpt lat="42.1408833" lon="11.9008367"><ele>470.0</ele><time>2026-04-19T09:14:00.589Z</time></trkpt><trkpt lat="42.140765" lon="11.90081"><ele>470.0</ele><time>2026-04-19T09:14:01.589Z</time></trkpt><trkpt lat="42.1406583" lon="11.9007433"><ele>470.0</ele><time>2026-04-19T09:14:02.589Z</time></trkpt><trkpt lat="42.140545" lon="11.90069"><ele>470.0</ele><time>2026-04-19T09:14:03.589Z</time></trkpt><trkpt lat="42.14043" lon="11.90067"><ele>470.5</ele><time>2026-04-19T09:14:04.589Z</time></trkpt><trkpt lat="42.1403017" lon="11.9006767"><ele>471.0</ele><time>2026-04-19T09:14:05.589Z</time></trkpt><trkpt lat="42.1401517" lon="11.900655"><ele>471.5</ele><time>2026-04-19T09:14:06.589Z</time></trkpt><trkpt lat="42.139985" lon="11.9006683"><ele>472.0</ele><time>2026-04-19T09:14:07.589Z</time></trkpt><trkpt lat="42.1398217" lon="11.9006683"><ele>470.75</ele><time>2026-04-19T09:14:08.589Z</time></trkpt><trkpt lat="42.1396733" lon="11.90067"><ele>469.5</ele><time>2026-04-19T09:14:09.59Z</time></trkpt><trkpt lat="42.1395333" lon="11.90066"><ele>468.25</ele><time>2026-04-19T09:14:10.589Z</time></trkpt><trkpt lat="42.1393917" lon="11.9006183"><ele>467.0</ele><time>2026-04-19T09:14:11.589Z</time></trkpt><trkpt lat="42.1392567" lon="11.9005583"><ele>467.0</ele><time>2026-04-19T09:14:12.59Z</time></trkpt><trkpt lat="42.139145" lon="11.900505"><ele>467.0</ele><time>2026-04-19T09:14:13.589Z</time></trkpt><trkpt lat="42.139035" lon="11.90047"><ele>467.0</ele><time>2026-04-19T09:14:14.589Z</time></trkpt><trkpt lat="42.13892" lon="11.9004617"><ele>467.0</ele><time>2026-04-19T09:14:15.589Z</time></trkpt><trkpt lat="42.1388117" lon="11.9004983"><ele>467.20000000000005</ele><time>2026-04-19T09:14:16.59Z</time></trkpt><trkpt lat="42.1387083" lon="11.900565"><ele>467.40000000000003</ele><time>2026-04-19T09:14:17.589Z</time></trkpt><trkpt lat="42.1386267" lon="11.9006383"><ele>467.59999999999997</ele><time>2026-04-19T09:14:18.589Z</time></trkpt><trkpt lat="42.13855" lon="11.90074"><ele>467.79999999999995</ele><time>2026-04-19T09:14:19.59Z</time></trkpt><trkpt lat="42.13851" lon="11.9008683"><ele>468.0</ele><time>2026-04-19T09:14:20.589Z</time></trkpt><trkpt lat="42.1384717" lon="11.9010117"><ele>468.0</ele><time>2026-04-19T09:14:21.589Z</time></trkpt><trkpt lat="42.1384083" lon="11.90114"><ele>468.0</ele><time>2026-04-19T09:14:22.589Z</time></trkpt><trkpt lat="42.138335" lon="11.9012617"><ele>468.0</ele><time>2026-04-19T09:14:23.59Z</time></trkpt><trkpt lat="42.1382683" lon="11.9013917"><ele>468.0</ele><time>2026-04-19T09:14:24.59Z</time></trkpt><trkpt lat="42.138215" lon="11.9015183"><ele>468.79999999999995</ele><time>2026-04-19T09:14:25.589Z</time></trkpt><trkpt lat="42.1381883" lon="11.9016583"><ele>469.59999999999997</ele><time>2026-04-19T09:14:26.589Z</time></trkpt><trkpt lat="42.1381433" lon="11.9017867"><ele>470.40000000000003</ele><time>2026-04-19T09:14:27.59Z</time></trkpt><trkpt lat="42.1380767" lon="11.9018867"><ele>471.20000000000005</ele><time>2026-04-19T09:14:28.589Z</time></trkpt><trkpt lat="42.1379967" lon="11.9019433"><ele>472.0</ele><time>2026-04-19T09:14:29.589Z</time></trkpt><trkpt lat="42.1379167" lon="11.9019667"><ele>472.0</ele><time>2026-04-19T09:14:30.589Z</time></trkpt><trkpt lat="42.1378367" lon="11.9019633"><ele>472.00000000000006</ele><time>2026-04-19T09:14:31.589Z</time></trkpt><trkpt lat="42.1377517" lon="11.9019333"><ele>472.00000000000006</ele><time>2026-04-19T09:14:32.589Z</time></trkpt><trkpt lat="42.13766" lon="11.901905"><ele>472.0</ele><time>2026-04-19T09:14:33.59Z</time></trkpt><trkpt lat="42.1375617" lon="11.90192"><ele>472.0</ele><time>2026-04-19T09:14:34.589Z</time></trkpt><trkpt lat="42.1374617" lon="11.9019633"><ele>470.25</ele><time>2026-04-19T09:14:35.589Z</time></trkpt><trkpt lat="42.1373617" lon="11.9020217"><ele>468.5</ele><time>2026-04-19T09:14:36.59Z</time></trkpt><trkpt lat="42.13725" lon="11.9020917"><ele>466.75</ele><time>2026-04-19T09:14:37.589Z</time></trkpt><trkpt lat="42.137135" lon="11.9021667"><ele>465.0</ele><time>2026-04-19T09:14:38.59Z</time></trkpt><trkpt lat="42.1370033" lon="11.90222"><ele>465.0</ele><time>2026-04-19T09:14:39.589Z</time></trkpt><trkpt lat="42.136885" lon="11.9022333"><ele>465.0</ele><time>2026-04-19T09:14:40.589Z</time></trkpt><trkpt lat="42.1367683" lon="11.9022133"><ele>465.0</ele><time>2026-04-19T09:14:41.589Z</time></trkpt><trkpt lat="42.1366483" lon="11.90223"><ele>465.0</ele><time>2026-04-19T09:14:42.589Z</time></trkpt><trkpt lat="42.136515" lon="11.9022667"><ele>467.25</ele><time>2026-04-19T09:14:43.59Z</time></trkpt><trkpt lat="42.13638" lon="11.9023233"><ele>469.5</ele><time>2026-04-19T09:14:44.59Z</time></trkpt><trkpt lat="42.1362533" lon="11.9023967"><ele>471.75</ele><time>2026-04-19T09:14:45.589Z</time></trkpt><trkpt lat="42.13615" lon="11.902495"><ele>474.0</ele><time>2026-04-19T09:14:46.589Z</time></trkpt><trkpt lat="42.1360467" lon="11.902645"><ele>474.0</ele><time>2026-04-19T09:14:47.589Z</time></trkpt><trkpt lat="42.1359517" lon="11.9028417"><ele>474.0</ele><time>2026-04-19T09:14:48.59Z</time></trkpt><trkpt lat="42.135875" lon="11.903065"><ele>474.0</ele><time>2026-04-19T09:14:49.589Z</time></trkpt><trkpt lat="42.1358167" lon="11.9032533"><ele>474.0</ele><time>2026-04-19T09:14:50.589Z</time></trkpt><trkpt lat="42.1357617" lon="11.9033817"><ele>474.0</ele><time>2026-04-19T09:14:51.589Z</time></trkpt><trkpt lat="42.13568" lon="11.9034867"><ele>474.0</ele><time>2026-04-19T09:14:52.589Z</time></trkpt><trkpt lat="42.1356033" lon="11.9035433"><ele>474.0</ele><time>2026-04-19T09:14:53.589Z</time></trkpt><trkpt lat="42.1355067" lon="11.903555"><ele>474.0</ele><time>2026-04-19T09:14:54.589Z</time></trkpt><trkpt lat="42.135395" lon="11.9035"><ele>476.66666666666663</ele><time>2026-04-19T09:14:55.589Z</time></trkpt><trkpt lat="42.1352683" lon="11.9034233"><ele>479.3333333333333</ele><time>2026-04-19T09:14:56.589Z</time></trkpt><trkpt lat="42.1351133" lon="11.9033333"><ele>482.0</ele><time>2026-04-19T09:14:57.589Z</time></trkpt><trkpt lat="42.1349417" lon="11.9032733"><ele>480.0</ele><time>2026-04-19T09:14:58.589Z</time></trkpt><trkpt lat="42.13477" lon="11.9032083"><ele>478.0</ele><time>2026-04-19T09:14:59.59Z</time></trkpt><trkpt lat="42.1345983" lon="11.9031117"><ele>476.0</ele><time>2026-04-19T09:15:00.589Z</time></trkpt><trkpt lat="42.1344633" lon="11.9030017"><ele>476.0</ele><time>2026-04-19T09:15:01.589Z</time></trkpt><trkpt lat="42.134345" lon="11.902905"><ele>476.0</ele><time>2026-04-19T09:15:02.589Z</time></trkpt><trkpt lat="42.1342467" lon="11.902825"><ele>476.0</ele><time>2026-04-19T09:15:03.589Z</time></trkpt><trkpt lat="42.13416" lon="11.9027617"><ele>476.0</ele><time>2026-04-19T09:15:04.589Z</time></trkpt><trkpt lat="42.134085" lon="11.9027167"><ele>476.0</ele><time>2026-04-19T09:15:05.589Z</time></trkpt><trkpt lat="42.1340017" lon="11.902695"><ele>477.5</ele><time>2026-04-19T09:15:06.589Z</time></trkpt><trkpt lat="42.1338933" lon="11.9027333"><ele>479.0</ele><time>2026-04-19T09:15:07.588Z</time></trkpt><trkpt lat="42.1337917" lon="11.9028033"><ele>480.5</ele><time>2026-04-19T09:15:08.588Z</time></trkpt><trkpt lat="42.1336783" lon="11.9029017"><ele>482.0</ele><time>2026-04-19T09:15:09.588Z</time></trkpt><trkpt lat="42.1335667" lon="11.9029867"><ele>482.0</ele><time>2026-04-19T09:15:10.588Z</time></trkpt><trkpt lat="42.1334567" lon="11.9030767"><ele>482.0</ele><time>2026-04-19T09:15:11.588Z</time></trkpt><trkpt lat="42.1333483" lon="11.9031683"><ele>482.0</ele><time>2026-04-19T09:15:12.588Z</time></trkpt><trkpt lat="42.1332383" lon="11.9032483"><ele>482.0</ele><time>2026-04-19T09:15:13.589Z</time></trkpt><trkpt lat="42.133125" lon="11.903305"><ele>484.25</ele><time>2026-04-19T09:15:14.588Z</time></trkpt><trkpt lat="42.1330117" lon="11.9033333"><ele>486.5</ele><time>2026-04-19T09:15:15.588Z</time></trkpt><trkpt lat="42.1328917" lon="11.9033433"><ele>488.75</ele><time>2026-04-19T09:15:16.588Z</time></trkpt><trkpt lat="42.132765" lon="11.903325"><ele>491.0</ele><time>2026-04-19T09:15:17.588Z</time></trkpt><trkpt lat="42.13264" lon="11.903305"><ele>491.0</ele><time>2026-04-19T09:15:18.588Z</time></trkpt><trkpt lat="42.1325033" lon="11.9033033"><ele>491.0</ele><time>2026-04-19T09:15:19.588Z</time></trkpt><trkpt lat="42.132355" lon="11.9033"><ele>491.0</ele><time>2026-04-19T09:15:20.588Z</time></trkpt><trkpt lat="42.1322033" lon="11.9032967"><ele>491.0</ele><time>2026-04-19T09:15:21.588Z</time></trkpt><trkpt lat="42.132055" lon="11.903275"><ele>491.75</ele><time>2026-04-19T09:15:22.588Z</time></trkpt><trkpt lat="42.1319083" lon="11.9032683"><ele>492.5</ele><time>2026-04-19T09:15:23.588Z</time></trkpt><trkpt lat="42.13177" lon="11.9032883"><ele>493.25</ele><time>2026-04-19T09:15:24.588Z</time></trkpt><trkpt lat="42.1316383" lon="11.9033617"><ele>494.0</ele><time>2026-04-19T09:15:25.588Z</time></trkpt><trkpt lat="42.1315217" lon="11.9034817"><ele>494.25</ele><time>2026-04-19T09:15:26.588Z</time></trkpt><trkpt lat="42.13144" lon="11.9036283"><ele>494.5</ele><time>2026-04-19T09:15:27.588Z</time></trkpt><trkpt lat="42.131355" lon="11.90376"><ele>494.75</ele><time>2026-04-19T09:15:28.588Z</time></trkpt><trkpt lat="42.131265" lon="11.90386"><ele>495.0</ele><time>2026-04-19T09:15:29.588Z</time></trkpt><trkpt lat="42.1311583" lon="11.9039333"><ele>495.0</ele><time>2026-04-19T09:15:30.588Z</time></trkpt><trkpt lat="42.1310217" lon="11.9040033"><ele>495.0</ele><time>2026-04-19T09:15:31.589Z</time></trkpt><trkpt lat="42.1308783" lon="11.90406"><ele>495.0</ele><time>2026-04-19T09:15:32.588Z</time></trkpt><trkpt lat="42.1307033" lon="11.90413"><ele>492.66666666666663</ele><time>2026-04-19T09:15:33.588Z</time></trkpt><trkpt lat="42.1305067" lon="11.9041933"><ele>490.3333333333333</ele><time>2026-04-19T09:15:34.588Z</time></trkpt><trkpt lat="42.13033" lon="11.90425"><ele>488.0</ele><time>2026-04-19T09:15:35.588Z</time></trkpt><trkpt lat="42.13016" lon="11.9043283"><ele>486.66666666666663</ele><time>2026-04-19T09:15:36.588Z</time></trkpt><trkpt lat="42.1299967" lon="11.9043967"><ele>485.33333333333337</ele><time>2026-04-19T09:15:37.588Z</time></trkpt><trkpt lat="42.1298433" lon="11.9044633"><ele>484.0</ele><time>2026-04-19T09:15:38.588Z</time></trkpt><trkpt lat="42.1297" lon="11.9045217"><ele>484.0</ele><time>2026-04-19T09:15:39.588Z</time></trkpt><trkpt lat="42.1295667" lon="11.9045833"><ele>484.0</ele><time>2026-04-19T09:15:40.588Z</time></trkpt><trkpt lat="42.129435" lon="11.9046317"><ele>484.0</ele><time>2026-04-19T09:15:41.588Z</time></trkpt><trkpt lat="42.1293" lon="11.904675"><ele>484.0</ele><time>2026-04-19T09:15:42.588Z</time></trkpt><trkpt lat="42.1291717" lon="11.90472"><ele>484.5</ele><time>2026-04-19T09:15:43.588Z</time></trkpt><trkpt lat="42.1290567" lon="11.9047717"><ele>485.0</ele><time>2026-04-19T09:15:44.588Z</time></trkpt><trkpt lat="42.1289417" lon="11.9048533"><ele>485.5</ele><time>2026-04-19T09:15:45.588Z</time></trkpt><trkpt lat="42.1288467" lon="11.9049817"><ele>486.0</ele><time>2026-04-19T09:15:46.588Z</time></trkpt><trkpt lat="42.1287733" lon="11.90513"><ele>486.4</ele><time>2026-04-19T09:15:47.588Z</time></trkpt><trkpt lat="42.128715" lon="11.9052733"><ele>486.8</ele><time>2026-04-19T09:15:48.588Z</time></trkpt><trkpt lat="42.1286617" lon="11.9054083"><ele>487.19999999999993</ele><time>2026-04-19T09:15:49.588Z</time></trkpt><trkpt lat="42.1286267" lon="11.905555"><ele>487.59999999999997</ele><time>2026-04-19T09:15:50.589Z</time></trkpt><trkpt lat="42.1286183" lon="11.9056867"><ele>488.0</ele><time>2026-04-19T09:15:51.588Z</time></trkpt><trkpt lat="42.1286417" lon="11.90582"><ele>490.0</ele><time>2026-04-19T09:15:52.588Z</time></trkpt><trkpt lat="42.12869" lon="11.905975"><ele>492.0</ele><time>2026-04-19T09:15:53.588Z</time></trkpt><trkpt lat="42.1287567" lon="11.9061267"><ele>494.0</ele><time>2026-04-19T09:15:54.588Z</time></trkpt><trkpt lat="42.1288183" lon="11.906265"><ele>496.0</ele><time>2026-04-19T09:15:55.588Z</time></trkpt><trkpt lat="42.12884" lon="11.9064117"><ele>496.0</ele><time>2026-04-19T09:15:56.589Z</time></trkpt><trkpt lat="42.1288417" lon="11.9065767"><ele>496.0</ele><time>2026-04-19T09:15:57.588Z</time></trkpt><trkpt lat="42.128825" lon="11.9067617"><ele>496.0</ele><time>2026-04-19T09:15:58.588Z</time></trkpt><trkpt lat="42.12881" lon="11.9069617"><ele>496.0</ele><time>2026-04-19T09:15:59.588Z</time></trkpt><trkpt lat="42.1288" lon="11.9071783"><ele>493.6666666666667</ele><time>2026-04-19T09:16:00.588Z</time></trkpt><trkpt lat="42.12879" lon="11.9074033"><ele>491.33333333333337</ele><time>2026-04-19T09:16:01.588Z</time></trkpt><trkpt lat="42.1287867" lon="11.90764"><ele>489.0</ele><time>2026-04-19T09:16:02.588Z</time></trkpt><trkpt lat="42.12878" lon="11.9078694"><ele>484.66666666666663</ele><time>2026-04-19T09:16:03.588Z</time></trkpt><trkpt lat="42.1287771" lon="11.9080927"><ele>480.3333333333333</ele><time>2026-04-19T09:16:04.589Z</time></trkpt><trkpt lat="42.1287706" lon="11.908307"><ele>476.0</ele><time>2026-04-19T09:16:05.589Z</time></trkpt><trkpt lat="42.1287658" lon="11.9085116"><ele>474.0</ele><time>2026-04-19T09:16:06.588Z</time></trkpt><trkpt lat="42.1287622" lon="11.9087106"><ele>472.0</ele><time>2026-04-19T09:16:07.588Z</time></trkpt><trkpt lat="42.1287571" lon="11.9089054"><ele>470.0</ele><time>2026-04-19T09:16:08.589Z</time></trkpt><trkpt lat="42.1287556" lon="11.9090995"><ele>468.0</ele><time>2026-04-19T09:16:09.589Z</time></trkpt><trkpt lat="42.1287514" lon="11.909293"><ele>467.5</ele><time>2026-04-19T09:16:10.588Z</time></trkpt><trkpt lat="42.1287481" lon="11.9094751"><ele>467.0</ele><time>2026-04-19T09:16:11.588Z</time></trkpt><trkpt lat="42.1287398" lon="11.9096534"><ele>466.5</ele><time>2026-04-19T09:16:12.588Z</time></trkpt><trkpt lat="42.1287241" lon="11.9098235"><ele>466.0</ele><time>2026-04-19T09:16:13.588Z</time></trkpt><trkpt lat="42.1286971" lon="11.9099899"><ele>467.33333333333337</ele><time>2026-04-19T09:16:14.588Z</time></trkpt><trkpt lat="42.128655" lon="11.9101658"><ele>468.66666666666663</ele><time>2026-04-19T09:16:15.588Z</time></trkpt><trkpt lat="42.1285904" lon="11.9103535"><ele>470.0</ele><time>2026-04-19T09:16:16.588Z</time></trkpt><trkpt lat="42.1285039" lon="11.9105335"><ele>470.0</ele><time>2026-04-19T09:16:17.588Z</time></trkpt><trkpt lat="42.1284118" lon="11.9106949"><ele>470.0</ele><time>2026-04-19T09:16:18.588Z</time></trkpt><trkpt lat="42.1283252" lon="11.9108444"><ele>470.0</ele><time>2026-04-19T09:16:19.589Z</time></trkpt><trkpt lat="42.1282454" lon="11.910998"><ele>470.0</ele><time>2026-04-19T09:16:20.588Z</time></trkpt><trkpt lat="42.1281784" lon="11.9111507"><ele>465.75</ele><time>2026-04-19T09:16:21.588Z</time></trkpt><trkpt lat="42.1281197" lon="11.9112907"><ele>461.5</ele><time>2026-04-19T09:16:22.588Z</time></trkpt><trkpt lat="42.1280616" lon="11.9114393"><ele>457.25</ele><time>2026-04-19T09:16:23.588Z</time></trkpt><trkpt lat="42.1279983" lon="11.911582"><ele>453.0</ele><time>2026-04-19T09:16:24.588Z</time></trkpt><trkpt lat="42.1279338" lon="11.9117221"><ele>455.0</ele><time>2026-04-19T09:16:25.588Z</time></trkpt><trkpt lat="42.127866" lon="11.9118587"><ele>457.0</ele><time>2026-04-19T09:16:26.588Z</time></trkpt><trkpt lat="42.1277951" lon="11.9120002"><ele>459.0</ele><time>2026-04-19T09:16:27.588Z</time></trkpt><trkpt lat="42.1277186" lon="11.9121346"><ele>461.0</ele><time>2026-04-19T09:16:28.589Z</time></trkpt><trkpt lat="42.1276379" lon="11.9122712"><ele>461.0</ele><time>2026-04-19T09:16:29.589Z</time></trkpt><trkpt lat="42.1275526" lon="11.9124109"><ele>461.0</ele><time>2026-04-19T09:16:30.588Z</time></trkpt><trkpt lat="42.1274712" lon="11.9125529"><ele>461.0</ele><time>2026-04-19T09:16:31.588Z</time></trkpt><trkpt lat="42.1273882" lon="11.9127034"><ele>461.0</ele><time>2026-04-19T09:16:32.588Z</time></trkpt><trkpt lat="42.1273079" lon="11.9128494"><ele>464.66666666666663</ele><time>2026-04-19T09:16:33.588Z</time></trkpt><trkpt lat="42.1272225" lon="11.9130007"><ele>468.33333333333337</ele><time>2026-04-19T09:16:34.588Z</time></trkpt><trkpt lat="42.1271271" lon="11.9131585"><ele>472.0</ele><time>2026-04-19T09:16:35.589Z</time></trkpt><trkpt lat="42.12702" lon="11.9133217"><ele>471.5</ele><time>2026-04-19T09:16:36.588Z</time></trkpt><trkpt lat="42.1269133" lon="11.9134783"><ele>471.0</ele><time>2026-04-19T09:16:37.588Z</time></trkpt><trkpt lat="42.1268117" lon="11.9136217"><ele>470.5</ele><time>2026-04-19T09:16:38.589Z</time></trkpt><trkpt lat="42.12671" lon="11.913745"><ele>470.0</ele><time>2026-04-19T09:16:39.589Z</time></trkpt><trkpt lat="42.1266267" lon="11.9138467"><ele>470.4</ele><time>2026-04-19T09:16:40.588Z</time></trkpt><trkpt lat="42.12655" lon="11.913945"><ele>470.8</ele><time>2026-04-19T09:16:41.588Z</time></trkpt><trkpt lat="42.1265117" lon="11.9140667"><ele>471.20000000000005</ele><time>2026-04-19T09:16:42.589Z</time></trkpt><trkpt lat="42.126525" lon="11.914185"><ele>471.6</ele><time>2026-04-19T09:16:43.589Z</time></trkpt><trkpt lat="42.1265433" lon="11.9142967"><ele>472.0</ele><time>2026-04-19T09:16:44.588Z</time></trkpt><trkpt lat="42.1266133" lon="11.914415"><ele>472.0</ele><time>2026-04-19T09:16:45.588Z</time></trkpt><trkpt lat="42.126695" lon="11.91452"><ele>472.00000000000006</ele><time>2026-04-19T09:16:46.588Z</time></trkpt><trkpt lat="42.126775" lon="11.9146417"><ele>472.00000000000006</ele><time>2026-04-19T09:16:47.588Z</time></trkpt><trkpt lat="42.1268167" lon="11.9147683"><ele>472.0</ele><time>2026-04-19T09:16:48.589Z</time></trkpt><trkpt lat="42.126825" lon="11.91491"><ele>472.0</ele><time>2026-04-19T09:16:49.588Z</time></trkpt><trkpt lat="42.1267933" lon="11.915045"><ele>470.5</ele><time>2026-04-19T09:16:50.588Z</time></trkpt><trkpt lat="42.1267383" lon="11.91515"><ele>469.0</ele><time>2026-04-19T09:16:51.588Z</time></trkpt><trkpt lat="42.1266533" lon="11.9152567"><ele>467.5</ele><time>2026-04-19T09:16:52.588Z</time></trkpt><trkpt lat="42.12656" lon="11.915365"><ele>466.0</ele><time>2026-04-19T09:16:53.588Z</time></trkpt><trkpt lat="42.1264817" lon="11.9154983"><ele>466.5</ele><time>2026-04-19T09:16:54.589Z</time></trkpt><trkpt lat="42.1264017" lon="11.915635"><ele>467.0</ele><time>2026-04-19T09:16:55.588Z</time></trkpt><trkpt lat="42.1263283" lon="11.91578"><ele>467.5</ele><time>2026-04-19T09:16:56.588Z</time></trkpt><trkpt lat="42.126255" lon="11.915915"><ele>468.0</ele><time>2026-04-19T09:16:57.588Z</time></trkpt><trkpt lat="42.1261867" lon="11.9160583"><ele>468.0</ele><time>2026-04-19T09:16:58.588Z</time></trkpt><trkpt lat="42.1261117" lon="11.91619"><ele>467.99999999999994</ele><time>2026-04-19T09:16:59.588Z</time></trkpt><trkpt lat="42.1260417" lon="11.9163217"><ele>467.99999999999994</ele><time>2026-04-19T09:17:00.588Z</time></trkpt><trkpt lat="42.12601" lon="11.91646"><ele>468.0</ele><time>2026-04-19T09:17:01.588Z</time></trkpt><trkpt lat="42.1259867" lon="11.9165883"><ele>468.0</ele><time>2026-04-19T09:17:02.588Z</time></trkpt><trkpt lat="42.1259767" lon="11.9167383"><ele>466.75</ele><time>2026-04-19T09:17:03.588Z</time></trkpt><trkpt lat="42.125975" lon="11.9168933"><ele>465.5</ele><time>2026-04-19T09:17:04.589Z</time></trkpt><trkpt lat="42.125975" lon="11.9170533"><ele>464.25</ele><time>2026-04-19T09:17:05.588Z</time></trkpt><trkpt lat="42.1259767" lon="11.9172117"><ele>463.0</ele><time>2026-04-19T09:17:06.588Z</time></trkpt><trkpt lat="42.1259917" lon="11.9173517"><ele>463.0</ele><time>2026-04-19T09:17:07.588Z</time></trkpt><trkpt lat="42.126005" lon="11.9174767"><ele>462.99999999999994</ele><time>2026-04-19T09:17:08.589Z</time></trkpt><trkpt lat="42.1260167" lon="11.9176"><ele>462.99999999999994</ele><time>2026-04-19T09:17:09.588Z</time></trkpt><trkpt lat="42.1260183" lon="11.91772"><ele>463.0</ele><time>2026-04-19T09:17:10.588Z</time></trkpt><trkpt lat="42.126015" lon="11.9178433"><ele>463.0</ele><time>2026-04-19T09:17:11.588Z</time></trkpt><trkpt lat="42.1260133" lon="11.9179733"><ele>463.0</ele><time>2026-04-19T09:17:12.588Z</time></trkpt><trkpt lat="42.1260033" lon="11.9181033"><ele>463.0</ele><time>2026-04-19T09:17:13.589Z</time></trkpt><trkpt lat="42.125975" lon="11.918245"><ele>463.0</ele><time>2026-04-19T09:17:14.589Z</time></trkpt><trkpt lat="42.12593" lon="11.91839"><ele>463.0</ele><time>2026-04-19T09:17:15.588Z</time></trkpt><trkpt lat="42.1258567" lon="11.918555"><ele>463.33333333333337</ele><time>2026-04-19T09:17:16.588Z</time></trkpt><trkpt lat="42.1257483" lon="11.918735"><ele>463.66666666666663</ele><time>2026-04-19T09:17:17.588Z</time></trkpt><trkpt lat="42.1256183" lon="11.9189433"><ele>464.0</ele><time>2026-04-19T09:17:18.588Z</time></trkpt><trkpt lat="42.1254733" lon="11.919145"><ele>460.3333333333333</ele><time>2026-04-19T09:17:19.588Z</time></trkpt><trkpt lat="42.12534" lon="11.9193333"><ele>456.66666666666663</ele><time>2026-04-19T09:17:20.589Z</time></trkpt><trkpt lat="42.1252117" lon="11.9195183"><ele>453.0</ele><time>2026-04-19T09:17:21.588Z</time></trkpt><trkpt lat="42.125085" lon="11.9196933"><ele>453.0</ele><time>2026-04-19T09:17:22.588Z</time></trkpt><trkpt lat="42.1249683" lon="11.9198567"><ele>453.0</ele><time>2026-04-19T09:17:23.588Z</time></trkpt><trkpt lat="42.12486" lon="11.9200167"><ele>453.0</ele><time>2026-04-19T09:17:24.588Z</time></trkpt><trkpt lat="42.1247633" lon="11.9201667"><ele>456.0</ele><time>2026-04-19T09:17:25.588Z</time></trkpt><trkpt lat="42.12469" lon="11.9203033"><ele>459.0</ele><time>2026-04-19T09:17:26.588Z</time></trkpt><trkpt lat="42.1246383" lon="11.92045"><ele>462.0</ele><time>2026-04-19T09:17:27.589Z</time></trkpt><trkpt lat="42.1246083" lon="11.9206033"><ele>465.0</ele><time>2026-04-19T09:17:28.588Z</time></trkpt><trkpt lat="42.1245933" lon="11.9208"><ele>465.0</ele><time>2026-04-19T09:17:29.589Z</time></trkpt><trkpt lat="42.1245783" lon="11.921015"><ele>465.0</ele><time>2026-04-19T09:17:30.588Z</time></trkpt><trkpt lat="42.1245467" lon="11.921225"><ele>465.0</ele><time>2026-04-19T09:17:31.588Z</time></trkpt><trkpt lat="42.1244883" lon="11.9214233"><ele>465.0</ele><time>2026-04-19T09:17:32.589Z</time></trkpt><trkpt lat="42.1244117" lon="11.921605"><ele>465.0</ele><time>2026-04-19T09:17:33.589Z</time></trkpt><trkpt lat="42.1243283" lon="11.9217633"><ele>465.0</ele><time>2026-04-19T09:17:34.589Z</time></trkpt><trkpt lat="42.1242583" lon="11.9219067"><ele>465.0</ele><time>2026-04-19T09:17:35.588Z</time></trkpt><trkpt lat="42.1241883" lon="11.922025"><ele>463.0</ele><time>2026-04-19T09:17:36.588Z</time></trkpt><trkpt lat="42.1240867" lon="11.9221167"><ele>461.0</ele><time>2026-04-19T09:17:37.589Z</time></trkpt><trkpt lat="42.1239667" lon="11.9221967"><ele>459.0</ele><time>2026-04-19T09:17:38.588Z</time></trkpt><trkpt lat="42.1238667" lon="11.9223"><ele>457.0</ele><time>2026-04-19T09:17:39.588Z</time></trkpt><trkpt lat="42.123785" lon="11.9224267"><ele>457.0</ele><time>2026-04-19T09:17:40.589Z</time></trkpt><trkpt lat="42.1237267" lon="11.9225617"><ele>457.00000000000006</ele><time>2026-04-19T09:17:41.588Z</time></trkpt><trkpt lat="42.12369" lon="11.9226817"><ele>457.00000000000006</ele><time>2026-04-19T09:17:42.589Z</time></trkpt><trkpt lat="42.12364" lon="11.9227867"><ele>457.0</ele><time>2026-04-19T09:17:43.589Z</time></trkpt><trkpt lat="42.1235717" lon="11.9228667"><ele>457.0</ele><time>2026-04-19T09:17:44.589Z</time></trkpt><trkpt lat="42.1234783" lon="11.9229167"><ele>453.8</ele><time>2026-04-19T09:17:45.588Z</time></trkpt><trkpt lat="42.123365" lon="11.922945"><ele>450.6</ele><time>2026-04-19T09:17:46.588Z</time></trkpt><trkpt lat="42.1232633" lon="11.9229833"><ele>447.40000000000003</ele><time>2026-04-19T09:17:47.588Z</time></trkpt><trkpt lat="42.1231667" lon="11.9230267"><ele>444.20000000000005</ele><time>2026-04-19T09:17:48.588Z</time></trkpt><trkpt lat="42.1230617" lon="11.92307"><ele>441.0</ele><time>2026-04-19T09:17:49.588Z</time></trkpt><trkpt lat="42.1229467" lon="11.9231317"><ele>440.75</ele><time>2026-04-19T09:17:50.589Z</time></trkpt><trkpt lat="42.12285" lon="11.9231933"><ele>440.5</ele><time>2026-04-19T09:17:51.588Z</time></trkpt><trkpt lat="42.1227517" lon="11.9232667"><ele>440.25</ele><time>2026-04-19T09:17:52.588Z</time></trkpt><trkpt lat="42.122645" lon="11.923335"><ele>440.0</ele><time>2026-04-19T09:17:53.588Z</time></trkpt><trkpt lat="42.12254" lon="11.9233967"><ele>438.5</ele><time>2026-04-19T09:17:54.588Z</time></trkpt><trkpt lat="42.1224367" lon="11.9234683"><ele>437.0</ele><time>2026-04-19T09:17:55.588Z</time></trkpt><trkpt lat="42.1223167" lon="11.9235517"><ele>435.5</ele><time>2026-04-19T09:17:56.588Z</time></trkpt><trkpt lat="42.12219" lon="11.9236417"><ele>434.0</ele><time>2026-04-19T09:17:57.588Z</time></trkpt><trkpt lat="42.1220333" lon="11.92373"><ele>434.0</ele><time>2026-04-19T09:17:58.589Z</time></trkpt><trkpt lat="42.1218767" lon="11.9238017"><ele>434.0</ele><time>2026-04-19T09:17:59.588Z</time></trkpt><trkpt lat="42.1217117" lon="11.923855"><ele>434.0</ele><time>2026-04-19T09:18:00.588Z</time></trkpt><trkpt lat="42.1215517" lon="11.923915"><ele>434.5</ele><time>2026-04-19T09:18:01.588Z</time></trkpt><trkpt lat="42.1214133" lon="11.9239683"><ele>435.0</ele><time>2026-04-19T09:18:02.589Z</time></trkpt><trkpt lat="42.121285" lon="11.9240283"><ele>435.5</ele><time>2026-04-19T09:18:03.588Z</time></trkpt><trkpt lat="42.1211567" lon="11.924095"><ele>436.0</ele><time>2026-04-19T09:18:04.588Z</time></trkpt><trkpt lat="42.1210283" lon="11.9241883"><ele>438.0</ele><time>2026-04-19T09:18:05.589Z</time></trkpt><trkpt lat="42.1209033" lon="11.9243017"><ele>440.0</ele><time>2026-04-19T09:18:06.588Z</time></trkpt><trkpt lat="42.1207767" lon="11.92443"><ele>442.0</ele><time>2026-04-19T09:18:07.588Z</time></trkpt><trkpt lat="42.12065" lon="11.9245683"><ele>442.0</ele><time>2026-04-19T09:18:08.588Z</time></trkpt><trkpt lat="42.1205217" lon="11.924705"><ele>442.0</ele><time>2026-04-19T09:18:09.589Z</time></trkpt><trkpt lat="42.1203983" lon="11.9248483"><ele>442.0</ele><time>2026-04-19T09:18:10.588Z</time></trkpt><trkpt lat="42.1202817" lon="11.9249833"><ele>443.50000000000006</ele><time>2026-04-19T09:18:11.589Z</time></trkpt><trkpt lat="42.120185" lon="11.9250967"><ele>445.0</ele><time>2026-04-19T09:18:12.589Z</time></trkpt><trkpt lat="42.12011" lon="11.9251983"><ele>446.5</ele><time>2026-04-19T09:18:13.587Z</time></trkpt><trkpt lat="42.1200583" lon="11.9252733"><ele>448.0</ele><time>2026-04-19T09:18:14.587Z</time></trkpt><trkpt lat="42.1200367" lon="11.9253617"><ele>449.50000000000006</ele><time>2026-04-19T09:18:16.587Z</time></trkpt><trkpt lat="42.1200883" lon="11.92542"><ele>451.0</ele><time>2026-04-19T09:18:20.587Z</time></trkpt><trkpt lat="42.1201456" lon="11.9254832"><ele>451.0</ele><time>2026-04-19T09:18:49.718Z</time></trkpt><trkpt lat="42.1202454" lon="11.92569"><ele>451.0</ele><time>2026-04-19T09:19:23.587Z</time></trkpt><trkpt lat="42.1202955" lon="11.9257958"><ele>451.0</ele><time>2026-04-19T09:19:24.587Z</time></trkpt><trkpt lat="42.1203567" lon="11.9259417"><ele>451.0</ele><time>2026-04-19T09:19:25.587Z</time></trkpt><trkpt lat="42.1204117" lon="11.92608"><ele>452.5</ele><time>2026-04-19T09:19:26.587Z</time></trkpt><trkpt lat="42.1204617" lon="11.92625"><ele>454.0</ele><time>2026-04-19T09:19:27.587Z</time></trkpt><trkpt lat="42.1205067" lon="11.9264217"><ele>455.5</ele><time>2026-04-19T09:19:28.587Z</time></trkpt><trkpt lat="42.12054" lon="11.926555"><ele>457.0</ele><time>2026-04-19T09:19:29.587Z</time></trkpt><trkpt lat="42.1205667" lon="11.9266517"><ele>457.83333333333337</ele><time>2026-04-19T09:19:30.587Z</time></trkpt><trkpt lat="42.1205867" lon="11.92674"><ele>458.6666666666667</ele><time>2026-04-19T09:19:31.588Z</time></trkpt><trkpt lat="42.1206033" lon="11.9268317"><ele>459.5</ele><time>2026-04-19T09:19:32.587Z</time></trkpt><trkpt lat="42.12063" lon="11.92692"><ele>460.33333333333337</ele><time>2026-04-19T09:19:33.588Z</time></trkpt><trkpt lat="42.1206417" lon="11.9270233"><ele>461.1666666666667</ele><time>2026-04-19T09:19:34.587Z</time></trkpt><trkpt lat="42.1206567" lon="11.92713"><ele>462.0</ele><time>2026-04-19T09:19:35.587Z</time></trkpt><trkpt lat="42.1206733" lon="11.927245"><ele>462.0</ele><time>2026-04-19T09:19:36.587Z</time></trkpt><trkpt lat="42.1206817" lon="11.9273483"><ele>462.0</ele><time>2026-04-19T09:19:37.587Z</time></trkpt><trkpt lat="42.1206733" lon="11.92744"><ele>462.0</ele><time>2026-04-19T09:19:38.588Z</time></trkpt><trkpt lat="42.1206483" lon="11.9275333"><ele>462.0</ele><time>2026-04-19T09:19:39.588Z</time></trkpt><trkpt lat="42.1206217" lon="11.927635"><ele>462.0</ele><time>2026-04-19T09:19:40.587Z</time></trkpt><trkpt lat="42.12059" lon="11.92776"><ele>462.0</ele><time>2026-04-19T09:19:41.587Z</time></trkpt><trkpt lat="42.1205583" lon="11.92788"><ele>461.3333333333333</ele><time>2026-04-19T09:19:42.587Z</time></trkpt><trkpt lat="42.1205317" lon="11.92798"><ele>460.66666666666663</ele><time>2026-04-19T09:19:43.587Z</time></trkpt><trkpt lat="42.12052" lon="11.9280683"><ele>460.0</ele><time>2026-04-19T09:19:44.587Z</time></trkpt><trkpt lat="42.1205567" lon="11.9281533"><ele>459.3333333333333</ele><time>2026-04-19T09:19:46.587Z</time></trkpt><trkpt lat="42.1206317" lon="11.9281317"><ele>458.66666666666663</ele><time>2026-04-19T09:19:48.587Z</time></trkpt><trkpt lat="42.1206967" lon="11.9280867"><ele>458.0</ele><time>2026-04-19T09:19:49.587Z</time></trkpt><trkpt lat="42.1207933" lon="11.928035"><ele>456.25</ele><time>2026-04-19T09:19:50.587Z</time></trkpt><trkpt lat="42.1208983" lon="11.9279817"><ele>454.5</ele><time>2026-04-19T09:19:51.587Z</time></trkpt><trkpt lat="42.1210017" lon="11.927925"><ele>452.75</ele><time>2026-04-19T09:19:52.587Z</time></trkpt><trkpt lat="42.1211067" lon="11.9278533"><ele>451.0</ele><time>2026-04-19T09:19:53.587Z</time></trkpt><trkpt lat="42.1212067" lon="11.9277433"><ele>451.0</ele><time>2026-04-19T09:19:54.587Z</time></trkpt><trkpt lat="42.1212883" lon="11.9276217"><ele>451.0</ele><time>2026-04-19T09:19:55.587Z</time></trkpt><trkpt lat="42.1213817" lon="11.9274967"><ele>451.0</ele><time>2026-04-19T09:19:56.587Z</time></trkpt><trkpt lat="42.12148" lon="11.9273883"><ele>451.0</ele><time>2026-04-19T09:19:57.588Z</time></trkpt><trkpt lat="42.1215583" lon="11.9272833"><ele>451.0</ele><time>2026-04-19T09:19:58.587Z</time></trkpt><trkpt lat="42.1216317" lon="11.9271783"><ele>451.0</ele><time>2026-04-19T09:19:59.588Z</time></trkpt><trkpt lat="42.1217" lon="11.927095"><ele>451.0</ele><time>2026-04-19T09:20:00.587Z</time></trkpt><trkpt lat="42.1217783" lon="11.9270067"><ele>451.0</ele><time>2026-04-19T09:20:01.588Z</time></trkpt><trkpt lat="42.121865" lon="11.9269317"><ele>451.0</ele><time>2026-04-19T09:20:02.587Z</time></trkpt><trkpt lat="42.1219517" lon="11.9268617"><ele>451.0</ele><time>2026-04-19T09:20:03.587Z</time></trkpt><trkpt lat="42.1220233" lon="11.9268083"><ele>451.0</ele><time>2026-04-19T09:20:04.587Z</time></trkpt><trkpt lat="42.12209" lon="11.926775"><ele>451.0</ele><time>2026-04-19T09:20:05.587Z</time></trkpt><trkpt lat="42.1221517" lon="11.926755"><ele>451.0</ele><time>2026-04-19T09:20:06.588Z</time></trkpt><trkpt lat="42.12222" lon="11.9267267"><ele>451.0</ele><time>2026-04-19T09:20:07.587Z</time></trkpt><trkpt lat="42.122285" lon="11.926685"><ele>451.0</ele><time>2026-04-19T09:20:08.587Z</time></trkpt><trkpt lat="42.1223483" lon="11.9266433"><ele>451.0</ele><time>2026-04-19T09:20:09.587Z</time></trkpt><trkpt lat="42.1224567" lon="11.9266217"><ele>453.20000000000005</ele><time>2026-04-19T09:20:11.587Z</time></trkpt><trkpt lat="42.122565" lon="11.9267117"><ele>455.40000000000003</ele><time>2026-04-19T09:20:13.587Z</time></trkpt><trkpt lat="42.1226383" lon="11.9267467"><ele>457.6</ele><time>2026-04-19T09:20:14.587Z</time></trkpt><trkpt lat="42.1227317" lon="11.9267533"><ele>459.8</ele><time>2026-04-19T09:20:15.587Z</time></trkpt><trkpt lat="42.12284" lon="11.926745"><ele>462.0</ele><time>2026-04-19T09:20:16.588Z</time></trkpt><trkpt lat="42.1229633" lon="11.9267317"><ele>462.0</ele><time>2026-04-19T09:20:17.587Z</time></trkpt><trkpt lat="42.1230683" lon="11.92673"><ele>462.0</ele><time>2026-04-19T09:20:18.588Z</time></trkpt><trkpt lat="42.1231567" lon="11.9267417"><ele>462.0</ele><time>2026-04-19T09:20:19.588Z</time></trkpt><trkpt lat="42.1232317" lon="11.926805"><ele>462.0</ele><time>2026-04-19T09:20:20.587Z</time></trkpt><trkpt lat="42.1232917" lon="11.9268783"><ele>462.0</ele><time>2026-04-19T09:20:21.588Z</time></trkpt><trkpt lat="42.123335" lon="11.92697"><ele>462.0</ele><time>2026-04-19T09:20:22.587Z</time></trkpt><trkpt lat="42.12335" lon="11.927075"><ele>460.1428571428571</ele><time>2026-04-19T09:20:23.587Z</time></trkpt><trkpt lat="42.1233533" lon="11.927185"><ele>458.2857142857143</ele><time>2026-04-19T09:20:24.587Z</time></trkpt><trkpt lat="42.1233517" lon="11.9272933"><ele>456.42857142857144</ele><time>2026-04-19T09:20:25.587Z</time></trkpt><trkpt lat="42.1233683" lon="11.9273767"><ele>454.57142857142856</ele><time>2026-04-19T09:20:26.587Z</time></trkpt><trkpt lat="42.123405" lon="11.9274483"><ele>452.71428571428567</ele><time>2026-04-19T09:20:27.588Z</time></trkpt><trkpt lat="42.1234517" lon="11.92752"><ele>450.85714285714283</ele><time>2026-04-19T09:20:28.587Z</time></trkpt><trkpt lat="42.12352" lon="11.92758"><ele>449.0</ele><time>2026-04-19T09:20:29.588Z</time></trkpt><trkpt lat="42.1236133" lon="11.927625"><ele>449.0</ele><time>2026-04-19T09:20:30.587Z</time></trkpt><trkpt lat="42.1236983" lon="11.92768"><ele>449.0</ele><time>2026-04-19T09:20:31.587Z</time></trkpt><trkpt lat="42.1237867" lon="11.9277133"><ele>449.0</ele><time>2026-04-19T09:20:32.587Z</time></trkpt><trkpt lat="42.1238533" lon="11.9277467"><ele>449.0</ele><time>2026-04-19T09:20:33.587Z</time></trkpt><trkpt lat="42.12396" lon="11.9278"><ele>449.0</ele><time>2026-04-19T09:20:35.587Z</time></trkpt><trkpt lat="42.124065" lon="11.9277917"><ele>446.79999999999995</ele><time>2026-04-19T09:20:37.587Z</time></trkpt><trkpt lat="42.1241783" lon="11.9277217"><ele>444.59999999999997</ele><time>2026-04-19T09:20:39.587Z</time></trkpt><trkpt lat="42.124255" lon="11.927655"><ele>442.4</ele><time>2026-04-19T09:20:40.587Z</time></trkpt><trkpt lat="42.1243433" lon="11.9275833"><ele>440.2</ele><time>2026-04-19T09:20:41.587Z</time></trkpt><trkpt lat="42.1244233" lon="11.927525"><ele>438.0</ele><time>2026-04-19T09:20:42.588Z</time></trkpt><trkpt lat="42.1245" lon="11.92748"><ele>435.1666666666667</ele><time>2026-04-19T09:20:43.587Z</time></trkpt><trkpt lat="42.1245667" lon="11.9274433"><ele>432.33333333333337</ele><time>2026-04-19T09:20:44.587Z</time></trkpt><trkpt lat="42.1246383" lon="11.927415"><ele>429.5</ele><time>2026-04-19T09:20:45.587Z</time></trkpt><trkpt lat="42.124715" lon="11.9274"><ele>426.6666666666667</ele><time>2026-04-19T09:20:46.587Z</time></trkpt><trkpt lat="42.124785" lon="11.92739"><ele>423.83333333333337</ele><time>2026-04-19T09:20:47.587Z</time></trkpt><trkpt lat="42.1248483" lon="11.9273917"><ele>421.0</ele><time>2026-04-19T09:20:48.588Z</time></trkpt><trkpt lat="42.12494" lon="11.92747"><ele>422.75</ele><time>2026-04-19T09:20:50.587Z</time></trkpt><trkpt lat="42.1249933" lon="11.9276067"><ele>424.5</ele><time>2026-04-19T09:20:52.587Z</time></trkpt><trkpt lat="42.125015" lon="11.9277667"><ele>426.25</ele><time>2026-04-19T09:20:54.587Z</time></trkpt><trkpt lat="42.1250683" lon="11.9279067"><ele>428.0</ele><time>2026-04-19T09:20:56.587Z</time></trkpt><trkpt lat="42.1251667" lon="11.9280133"><ele>428.0</ele><time>2026-04-19T09:20:58.587Z</time></trkpt><trkpt lat="42.1252483" lon="11.9280733"><ele>427.99999999999994</ele><time>2026-04-19T09:20:59.588Z</time></trkpt><trkpt lat="42.12531" lon="11.9281333"><ele>427.99999999999994</ele><time>2026-04-19T09:21:00.587Z</time></trkpt><trkpt lat="42.1253683" lon="11.9282017"><ele>428.0</ele><time>2026-04-19T09:21:01.587Z</time></trkpt><trkpt lat="42.1254067" lon="11.92835"><ele>428.0</ele><time>2026-04-19T09:21:03.587Z</time></trkpt><trkpt lat="42.1254033" lon="11.92851"><ele>429.16666666666663</ele><time>2026-04-19T09:21:05.587Z</time></trkpt><trkpt lat="42.1254083" lon="11.928605"><ele>430.3333333333333</ele><time>2026-04-19T09:21:06.587Z</time></trkpt><trkpt lat="42.1254033" lon="11.9287033"><ele>431.5</ele><time>2026-04-19T09:21:07.587Z</time></trkpt><trkpt lat="42.1254267" lon="11.9288583"><ele>432.66666666666663</ele><time>2026-04-19T09:21:09.588Z</time></trkpt><trkpt lat="42.1254717" lon="11.92894"><ele>433.8333333333333</ele><time>2026-04-19T09:21:10.587Z</time></trkpt><trkpt lat="42.125535" lon="11.929015"><ele>435.0</ele><time>2026-04-19T09:21:11.588Z</time></trkpt><trkpt lat="42.1256067" lon="11.9290967"><ele>435.0</ele><time>2026-04-19T09:21:12.587Z</time></trkpt><trkpt lat="42.1256717" lon="11.9291817"><ele>435.0</ele><time>2026-04-19T09:21:13.587Z</time></trkpt><trkpt lat="42.1256983" lon="11.9292717"><ele>435.0</ele><time>2026-04-19T09:21:14.587Z</time></trkpt><trkpt lat="42.1257" lon="11.92937"><ele>435.0</ele><time>2026-04-19T09:21:15.587Z</time></trkpt><trkpt lat="42.1256983" lon="11.9294633"><ele>435.0</ele><time>2026-04-19T09:21:16.587Z</time></trkpt><trkpt lat="42.1256917" lon="11.9295733"><ele>435.0</ele><time>2026-04-19T09:21:17.587Z</time></trkpt><trkpt lat="42.125675" lon="11.92968"><ele>434.0</ele><time>2026-04-19T09:21:18.587Z</time></trkpt><trkpt lat="42.1256717" lon="11.9297917"><ele>433.0</ele><time>2026-04-19T09:21:19.588Z</time></trkpt><trkpt lat="42.1256733" lon="11.9299033"><ele>432.0</ele><time>2026-04-19T09:21:20.587Z</time></trkpt><trkpt lat="42.1256717" lon="11.930015"><ele>431.0</ele><time>2026-04-19T09:21:21.587Z</time></trkpt><trkpt lat="42.125665" lon="11.930115"><ele>430.0</ele><time>2026-04-19T09:21:22.587Z</time></trkpt><trkpt lat="42.1256383" lon="11.9302067"><ele>429.0</ele><time>2026-04-19T09:21:23.586Z</time></trkpt><trkpt lat="42.1255517" lon="11.930345"><ele>426.6</ele><time>2026-04-19T09:21:25.586Z</time></trkpt><trkpt lat="42.125505" lon="11.9304433"><ele>424.2</ele><time>2026-04-19T09:21:26.587Z</time></trkpt><trkpt lat="42.1254533" lon="11.9305667"><ele>421.8</ele><time>2026-04-19T09:21:27.586Z</time></trkpt><trkpt lat="42.1254083" lon="11.9306817"><ele>419.40000000000003</ele><time>2026-04-19T09:21:28.586Z</time></trkpt><trkpt lat="42.1253717" lon="11.9307967"><ele>417.0</ele><time>2026-04-19T09:21:29.587Z</time></trkpt><trkpt lat="42.125365" lon="11.93092"><ele>415.8333333333333</ele><time>2026-04-19T09:21:30.586Z</time></trkpt><trkpt lat="42.1253783" lon="11.9310333"><ele>414.66666666666663</ele><time>2026-04-19T09:21:31.587Z</time></trkpt><trkpt lat="42.1253967" lon="11.9311333"><ele>413.5</ele><time>2026-04-19T09:21:32.586Z</time></trkpt><trkpt lat="42.125395" lon="11.93122"><ele>412.3333333333333</ele><time>2026-04-19T09:21:33.586Z</time></trkpt><trkpt lat="42.1253633" lon="11.9313883"><ele>411.16666666666663</ele><time>2026-04-19T09:21:35.587Z</time></trkpt><trkpt lat="42.125325" lon="11.9314917"><ele>410.0</ele><time>2026-04-19T09:21:36.587Z</time></trkpt><trkpt lat="42.1252867" lon="11.93163"><ele>409.3333333333333</ele><time>2026-04-19T09:21:37.586Z</time></trkpt><trkpt lat="42.1252667" lon="11.9317667"><ele>408.66666666666663</ele><time>2026-04-19T09:21:38.586Z</time></trkpt><trkpt lat="42.1252367" lon="11.93187"><ele>408.0</ele><time>2026-04-19T09:21:39.586Z</time></trkpt><trkpt lat="42.1252033" lon="11.9319533"><ele>407.33333333333337</ele><time>2026-04-19T09:21:40.587Z</time></trkpt><trkpt lat="42.1251617" lon="11.9320333"><ele>406.6666666666667</ele><time>2026-04-19T09:21:41.587Z</time></trkpt><trkpt lat="42.1251133" lon="11.93213"><ele>406.0</ele><time>2026-04-19T09:21:42.586Z</time></trkpt><trkpt lat="42.12507" lon="11.932225"><ele>406.00000000000006</ele><time>2026-04-19T09:21:43.587Z</time></trkpt><trkpt lat="42.1250283" lon="11.9323583"><ele>406.0</ele><time>2026-04-19T09:21:45.586Z</time></trkpt><trkpt lat="42.1250683" lon="11.9324667"><ele>406.0</ele><time>2026-04-19T09:21:48.587Z</time></trkpt><trkpt lat="42.1251417" lon="11.932555"><ele>406.0</ele><time>2026-04-19T09:21:50.586Z</time></trkpt><trkpt lat="42.125195" lon="11.9326067"><ele>406.00000000000006</ele><time>2026-04-19T09:21:51.586Z</time></trkpt><trkpt lat="42.1252317" lon="11.9326767"><ele>406.0</ele><time>2026-04-19T09:21:52.586Z</time></trkpt><trkpt lat="42.12527" lon="11.9327717"><ele>406.83333333333337</ele><time>2026-04-19T09:21:54.586Z</time></trkpt><trkpt lat="42.125305" lon="11.9328583"><ele>407.6666666666667</ele><time>2026-04-19T09:21:57.586Z</time></trkpt><trkpt lat="42.125355" lon="11.9329633"><ele>408.5</ele><time>2026-04-19T09:22:02.587Z</time></trkpt><trkpt lat="42.1253933" lon="11.9330383"><ele>409.33333333333337</ele><time>2026-04-19T09:22:03.586Z</time></trkpt><trkpt lat="42.1254367" lon="11.9331433"><ele>410.1666666666667</ele><time>2026-04-19T09:22:04.586Z</time></trkpt><trkpt lat="42.12548" lon="11.9332617"><ele>411.0</ele><time>2026-04-19T09:22:05.586Z</time></trkpt><trkpt lat="42.1255333" lon="11.9333867"><ele>411.8333333333333</ele><time>2026-04-19T09:22:06.586Z</time></trkpt><trkpt lat="42.125575" lon="11.9335133"><ele>412.66666666666663</ele><time>2026-04-19T09:22:07.586Z</time></trkpt><trkpt lat="42.1256017" lon="11.9336283"><ele>413.5</ele><time>2026-04-19T09:22:08.586Z</time></trkpt><trkpt lat="42.1256233" lon="11.933735"><ele>414.3333333333333</ele><time>2026-04-19T09:22:09.586Z</time></trkpt><trkpt lat="42.1256317" lon="11.933825"><ele>415.16666666666663</ele><time>2026-04-19T09:22:10.586Z</time></trkpt><trkpt lat="42.1256183" lon="11.9339083"><ele>416.0</ele><time>2026-04-19T09:22:11.586Z</time></trkpt><trkpt lat="42.1255667" lon="11.9340117"><ele>415.99999999999994</ele><time>2026-04-19T09:22:12.587Z</time></trkpt><trkpt lat="42.125505" lon="11.934095"><ele>416.0</ele><time>2026-04-19T09:22:13.586Z</time></trkpt><trkpt lat="42.125445" lon="11.9341617"><ele>416.0</ele><time>2026-04-19T09:22:14.586Z</time></trkpt><trkpt lat="42.1253933" lon="11.93422"><ele>416.0</ele><time>2026-04-19T09:22:15.586Z</time></trkpt><trkpt lat="42.12538" lon="11.9343417"><ele>415.99999999999994</ele><time>2026-04-19T09:22:17.586Z</time></trkpt><trkpt lat="42.12541" lon="11.9344933"><ele>416.0</ele><time>2026-04-19T09:22:19.586Z</time></trkpt><trkpt lat="42.1254967" lon="11.93459"><ele>418.75</ele><time>2026-04-19T09:22:20.586Z</time></trkpt><trkpt lat="42.12558" lon="11.934705"><ele>421.5</ele><time>2026-04-19T09:22:21.586Z</time></trkpt><trkpt lat="42.1256517" lon="11.93484"><ele>424.25</ele><time>2026-04-19T09:22:22.586Z</time></trkpt><trkpt lat="42.125695" lon="11.9349817"><ele>427.0</ele><time>2026-04-19T09:22:23.586Z</time></trkpt><trkpt lat="42.1257217" lon="11.9351183"><ele>421.8</ele><time>2026-04-19T09:22:24.586Z</time></trkpt><trkpt lat="42.12575" lon="11.93526"><ele>416.6</ele><time>2026-04-19T09:22:25.587Z</time></trkpt><trkpt lat="42.1257717" lon="11.9353933"><ele>411.40000000000003</ele><time>2026-04-19T09:22:26.587Z</time></trkpt><trkpt lat="42.12579" lon="11.93552"><ele>406.20000000000005</ele><time>2026-04-19T09:22:27.586Z</time></trkpt><trkpt lat="42.1257883" lon="11.9356483"><ele>401.0</ele><time>2026-04-19T09:22:28.586Z</time></trkpt><trkpt lat="42.1257617" lon="11.93577"><ele>404.7142857142857</ele><time>2026-04-19T09:22:29.587Z</time></trkpt><trkpt lat="42.125725" lon="11.9358717"><ele>408.42857142857144</ele><time>2026-04-19T09:22:30.586Z</time></trkpt><trkpt lat="42.12567" lon="11.9359383"><ele>412.1428571428571</ele><time>2026-04-19T09:22:31.587Z</time></trkpt><trkpt lat="42.125615" lon="11.9359917"><ele>415.8571428571429</ele><time>2026-04-19T09:22:32.587Z</time></trkpt><trkpt lat="42.1255533" lon="11.93603"><ele>419.57142857142856</ele><time>2026-04-19T09:22:33.587Z</time></trkpt><trkpt lat="42.1255" lon="11.9360783"><ele>423.2857142857143</ele><time>2026-04-19T09:22:34.586Z</time></trkpt><trkpt lat="42.125455" lon="11.9361767"><ele>427.0</ele><time>2026-04-19T09:22:35.586Z</time></trkpt><trkpt lat="42.12543" lon="11.9362967"><ele>427.0</ele><time>2026-04-19T09:22:36.586Z</time></trkpt><trkpt lat="42.125395" lon="11.9364417"><ele>427.00000000000006</ele><time>2026-04-19T09:22:37.586Z</time></trkpt><trkpt lat="42.1253867" lon="11.9366"><ele>427.00000000000006</ele><time>2026-04-19T09:22:38.586Z</time></trkpt><trkpt lat="42.12538" lon="11.93674"><ele>427.0</ele><time>2026-04-19T09:22:39.586Z</time></trkpt><trkpt lat="42.1253533" lon="11.93688"><ele>427.0</ele><time>2026-04-19T09:22:40.586Z</time></trkpt><trkpt lat="42.1253167" lon="11.9370483"><ele>423.5</ele><time>2026-04-19T09:22:41.586Z</time></trkpt><trkpt lat="42.125265" lon="11.9372067"><ele>420.0</ele><time>2026-04-19T09:22:42.586Z</time></trkpt><trkpt lat="42.12521" lon="11.937355"><ele>416.5</ele><time>2026-04-19T09:22:43.586Z</time></trkpt><trkpt lat="42.1251683" lon="11.937475"><ele>413.0</ele><time>2026-04-19T09:22:44.587Z</time></trkpt><trkpt lat="42.12513" lon="11.9376033"><ele>411.99999999999994</ele><time>2026-04-19T09:22:45.586Z</time></trkpt><trkpt lat="42.1250933" lon="11.9377017"><ele>411.0</ele><time>2026-04-19T09:22:46.586Z</time></trkpt><trkpt lat="42.1250517" lon="11.937785"><ele>410.0</ele><time>2026-04-19T09:22:47.586Z</time></trkpt><trkpt lat="42.1249867" lon="11.93786"><ele>409.0</ele><time>2026-04-19T09:22:48.586Z</time></trkpt><trkpt lat="42.124925" lon="11.937935"><ele>407.99999999999994</ele><time>2026-04-19T09:22:49.586Z</time></trkpt><trkpt lat="42.1248783" lon="11.9380233"><ele>407.0</ele><time>2026-04-19T09:22:50.586Z</time></trkpt><trkpt lat="42.124855" lon="11.9381233"><ele>407.0</ele><time>2026-04-19T09:22:51.587Z</time></trkpt><trkpt lat="42.1248467" lon="11.9382183"><ele>407.0</ele><time>2026-04-19T09:22:52.586Z</time></trkpt><trkpt lat="42.1249233" lon="11.938295"><ele>407.0</ele><time>2026-04-19T09:22:53.586Z</time></trkpt><trkpt lat="42.1249833" lon="11.938385"><ele>407.0</ele><time>2026-04-19T09:22:54.586Z</time></trkpt><trkpt lat="42.1250617" lon="11.9384883"><ele>407.0</ele><time>2026-04-19T09:22:55.586Z</time></trkpt><trkpt lat="42.1251783" lon="11.9385733"><ele>408.0</ele><time>2026-04-19T09:22:56.586Z</time></trkpt><trkpt lat="42.1252733" lon="11.93867"><ele>409.0</ele><time>2026-04-19T09:22:57.586Z</time></trkpt><trkpt lat="42.1253483" lon="11.9387667"><ele>410.0</ele><time>2026-04-19T09:22:58.586Z</time></trkpt><trkpt lat="42.1254133" lon="11.9388567"><ele>411.0</ele><time>2026-04-19T09:22:59.586Z</time></trkpt><trkpt lat="42.1254567" lon="11.938945"><ele>412.0</ele><time>2026-04-19T09:23:00.586Z</time></trkpt><trkpt lat="42.1254767" lon="11.9390367"><ele>412.0</ele><time>2026-04-19T09:23:01.586Z</time></trkpt><trkpt lat="42.125455" lon="11.9391417"><ele>412.0</ele><time>2026-04-19T09:23:02.586Z</time></trkpt><trkpt lat="42.1254" lon="11.9392617"><ele>412.0</ele><time>2026-04-19T09:23:03.586Z</time></trkpt><trkpt lat="42.1253417" lon="11.9393833"><ele>412.0</ele><time>2026-04-19T09:23:04.586Z</time></trkpt><trkpt lat="42.1252967" lon="11.9394883"><ele>412.0</ele><time>2026-04-19T09:23:05.586Z</time></trkpt><trkpt lat="42.12526" lon="11.9395967"><ele>411.83333333333337</ele><time>2026-04-19T09:23:06.587Z</time></trkpt><trkpt lat="42.1252567" lon="11.939715"><ele>411.6666666666667</ele><time>2026-04-19T09:23:07.587Z</time></trkpt><trkpt lat="42.1252467" lon="11.9398017"><ele>411.5</ele><time>2026-04-19T09:23:08.586Z</time></trkpt><trkpt lat="42.125235" lon="11.9399083"><ele>411.33333333333337</ele><time>2026-04-19T09:23:09.586Z</time></trkpt><trkpt lat="42.1252" lon="11.9400167"><ele>411.1666666666667</ele><time>2026-04-19T09:23:10.586Z</time></trkpt><trkpt lat="42.1251667" lon="11.9401233"><ele>411.0</ele><time>2026-04-19T09:23:11.586Z</time></trkpt><trkpt lat="42.1251467" lon="11.9402417"><ele>409.5</ele><time>2026-04-19T09:23:12.586Z</time></trkpt><trkpt lat="42.1251283" lon="11.9403633"><ele>408.0</ele><time>2026-04-19T09:23:13.586Z</time></trkpt><trkpt lat="42.1251117" lon="11.9404883"><ele>406.5</ele><time>2026-04-19T09:23:14.586Z</time></trkpt><trkpt lat="42.1250967" lon="11.94058"><ele>405.0</ele><time>2026-04-19T09:23:15.586Z</time></trkpt><trkpt lat="42.1250967" lon="11.9407167"><ele>403.5</ele><time>2026-04-19T09:23:17.586Z</time></trkpt><trkpt lat="42.125085" lon="11.9408117"><ele>402.0</ele><time>2026-04-19T09:23:18.586Z</time></trkpt><trkpt lat="42.125085" lon="11.9409383"><ele>401.0</ele><time>2026-04-19T09:23:19.587Z</time></trkpt><trkpt lat="42.12509" lon="11.9410733"><ele>400.0</ele><time>2026-04-19T09:23:20.586Z</time></trkpt><trkpt lat="42.1250933" lon="11.941175"><ele>399.0</ele><time>2026-04-19T09:23:21.586Z</time></trkpt><trkpt lat="42.1250033" lon="11.94127"><ele>398.0</ele><time>2026-04-19T09:23:23.586Z</time></trkpt><trkpt lat="42.12493" lon="11.94127"><ele>397.0</ele><time>2026-04-19T09:23:24.586Z</time></trkpt><trkpt lat="42.1248283" lon="11.9412417"><ele>397.0</ele><time>2026-04-19T09:23:25.586Z</time></trkpt><trkpt lat="42.1246983" lon="11.9411867"><ele>397.0</ele><time>2026-04-19T09:23:26.587Z</time></trkpt><trkpt lat="42.1245567" lon="11.9411267"><ele>397.0</ele><time>2026-04-19T09:23:27.587Z</time></trkpt><trkpt lat="42.124425" lon="11.9410983"><ele>397.0</ele><time>2026-04-19T09:23:28.586Z</time></trkpt><trkpt lat="42.12432" lon="11.9410933"><ele>397.0</ele><time>2026-04-19T09:23:29.587Z</time></trkpt><trkpt lat="42.1242467" lon="11.94111"><ele>397.0</ele><time>2026-04-19T09:23:30.587Z</time></trkpt><trkpt lat="42.1241417" lon="11.9411733"><ele>397.0</ele><time>2026-04-19T09:23:32.587Z</time></trkpt><trkpt lat="42.1240817" lon="11.9412333"><ele>397.0</ele><time>2026-04-19T09:23:33.586Z</time></trkpt><trkpt lat="42.124015" lon="11.9413067"><ele>397.0</ele><time>2026-04-19T09:23:34.586Z</time></trkpt><trkpt lat="42.1239483" lon="11.9414533"><ele>401.8</ele><time>2026-04-19T09:23:36.586Z</time></trkpt><trkpt lat="42.1239383" lon="11.9415517"><ele>406.6</ele><time>2026-04-19T09:23:37.586Z</time></trkpt><trkpt lat="42.1239067" lon="11.9416433"><ele>411.40000000000003</ele><time>2026-04-19T09:23:38.586Z</time></trkpt><trkpt lat="42.1237967" lon="11.9417533"><ele>416.20000000000005</ele><time>2026-04-19T09:23:40.587Z</time></trkpt><trkpt lat="42.12373" lon="11.9418317"><ele>421.0</ele><time>2026-04-19T09:23:41.586Z</time></trkpt><trkpt lat="42.123675" lon="11.9419367"><ele>421.00000000000006</ele><time>2026-04-19T09:23:42.586Z</time></trkpt><trkpt lat="42.123635" lon="11.94202"><ele>421.0</ele><time>2026-04-19T09:23:43.586Z</time></trkpt><trkpt lat="42.12365" lon="11.9421183"><ele>421.0</ele><time>2026-04-19T09:23:44.587Z</time></trkpt><trkpt lat="42.1236633" lon="11.942225"><ele>421.0</ele><time>2026-04-19T09:23:45.586Z</time></trkpt><trkpt lat="42.123695" lon="11.942325"><ele>421.00000000000006</ele><time>2026-04-19T09:23:46.587Z</time></trkpt><trkpt lat="42.1237433" lon="11.9424067"><ele>421.0</ele><time>2026-04-19T09:23:47.586Z</time></trkpt><trkpt lat="42.1238033" lon="11.94251"><ele>418.33333333333337</ele><time>2026-04-19T09:23:48.586Z</time></trkpt><trkpt lat="42.1238583" lon="11.94262"><ele>415.6666666666667</ele><time>2026-04-19T09:23:49.586Z</time></trkpt><trkpt lat="42.1238817" lon="11.942735"><ele>413.0</ele><time>2026-04-19T09:23:50.587Z</time></trkpt><trkpt lat="42.123875" lon="11.9428233"><ele>410.33333333333337</ele><time>2026-04-19T09:23:51.586Z</time></trkpt><trkpt lat="42.1238317" lon="11.9429033"><ele>407.6666666666667</ele><time>2026-04-19T09:23:52.587Z</time></trkpt><trkpt lat="42.1237517" lon="11.94299"><ele>405.0</ele><time>2026-04-19T09:23:53.586Z</time></trkpt><trkpt lat="42.1236583" lon="11.9430667"><ele>405.0</ele><time>2026-04-19T09:23:54.587Z</time></trkpt><trkpt lat="42.1235583" lon="11.9431467"><ele>405.0</ele><time>2026-04-19T09:23:55.587Z</time></trkpt><trkpt lat="42.123465" lon="11.9432183"><ele>405.0</ele><time>2026-04-19T09:23:56.586Z</time></trkpt><trkpt lat="42.1233717" lon="11.9432783"><ele>405.0</ele><time>2026-04-19T09:23:57.587Z</time></trkpt><trkpt lat="42.1232933" lon="11.9433217"><ele>405.0</ele><time>2026-04-19T09:23:58.586Z</time></trkpt><trkpt lat="42.1232367" lon="11.943375"><ele>408.8</ele><time>2026-04-19T09:23:59.586Z</time></trkpt><trkpt lat="42.1231533" lon="11.9434633"><ele>412.6</ele><time>2026-04-19T09:24:01.586Z</time></trkpt><trkpt lat="42.1231217" lon="11.9435783"><ele>416.4</ele><time>2026-04-19T09:24:03.586Z</time></trkpt><trkpt lat="42.1231217" lon="11.94375"><ele>420.2</ele><time>2026-04-19T09:24:05.586Z</time></trkpt><trkpt lat="42.12315" lon="11.94389"><ele>424.0</ele><time>2026-04-19T09:24:06.586Z</time></trkpt><trkpt lat="42.1231733" lon="11.9440517"><ele>421.75</ele><time>2026-04-19T09:24:07.586Z</time></trkpt><trkpt lat="42.1231867" lon="11.9442167"><ele>419.5</ele><time>2026-04-19T09:24:08.586Z</time></trkpt><trkpt lat="42.1232017" lon="11.94437"><ele>417.25</ele><time>2026-04-19T09:24:09.586Z</time></trkpt><trkpt lat="42.1232283" lon="11.944525"><ele>415.0</ele><time>2026-04-19T09:24:10.586Z</time></trkpt><trkpt lat="42.1232617" lon="11.9446583"><ele>415.00000000000006</ele><time>2026-04-19T09:24:11.586Z</time></trkpt><trkpt lat="42.1232967" lon="11.944755"><ele>415.0</ele><time>2026-04-19T09:24:12.586Z</time></trkpt><trkpt lat="42.12334" lon="11.9448333"><ele>415.0</ele><time>2026-04-19T09:24:13.586Z</time></trkpt><trkpt lat="42.1233183" lon="11.9449433"><ele>415.0</ele><time>2026-04-19T09:24:15.586Z</time></trkpt><trkpt lat="42.12323" lon="11.9450033"><ele>415.00000000000006</ele><time>2026-04-19T09:24:17.586Z</time></trkpt><trkpt lat="42.1231167" lon="11.945005"><ele>415.0</ele><time>2026-04-19T09:24:19.586Z</time></trkpt><trkpt lat="42.123045" lon="11.945015"><ele>415.0</ele><time>2026-04-19T09:24:20.586Z</time></trkpt><trkpt lat="42.1229783" lon="11.9450333"><ele>415.0</ele><time>2026-04-19T09:24:21.586Z</time></trkpt><trkpt lat="42.1228633" lon="11.945065"><ele>415.0</ele><time>2026-04-19T09:24:23.586Z</time></trkpt><trkpt lat="42.1227617" lon="11.94524"><ele>415.0</ele><time>2026-04-19T09:24:25.586Z</time></trkpt><trkpt lat="42.12271" lon="11.9454083"><ele>409.33333333333337</ele><time>2026-04-19T09:24:26.586Z</time></trkpt><trkpt lat="42.12265" lon="11.945595"><ele>403.66666666666663</ele><time>2026-04-19T09:24:27.587Z</time></trkpt><trkpt lat="42.122605" lon="11.9457883"><ele>398.0</ele><time>2026-04-19T09:24:28.586Z</time></trkpt><trkpt lat="42.1225667" lon="11.945995"><ele>394.79999999999995</ele><time>2026-04-19T09:24:29.586Z</time></trkpt><trkpt lat="42.1225467" lon="11.946175"><ele>391.6</ele><time>2026-04-19T09:24:30.587Z</time></trkpt><trkpt lat="42.1225267" lon="11.9463317"><ele>388.4</ele><time>2026-04-19T09:24:31.586Z</time></trkpt><trkpt lat="42.1224967" lon="11.9464617"><ele>385.20000000000005</ele><time>2026-04-19T09:24:32.586Z</time></trkpt><trkpt lat="42.122465" lon="11.9465633"><ele>382.0</ele><time>2026-04-19T09:24:33.586Z</time></trkpt><trkpt lat="42.1224133" lon="11.9466617"><ele>384.0</ele><time>2026-04-19T09:24:34.587Z</time></trkpt><trkpt lat="42.1223333" lon="11.94676"><ele>386.0</ele><time>2026-04-19T09:24:35.586Z</time></trkpt><trkpt lat="42.1222567" lon="11.9468583"><ele>388.0</ele><time>2026-04-19T09:24:36.586Z</time></trkpt><trkpt lat="42.1221883" lon="11.9469633"><ele>390.0</ele><time>2026-04-19T09:24:37.586Z</time></trkpt><trkpt lat="42.122125" lon="11.94705"><ele>392.0</ele><time>2026-04-19T09:24:38.586Z</time></trkpt><trkpt lat="42.1220633" lon="11.9471383"><ele>392.0</ele><time>2026-04-19T09:24:39.586Z</time></trkpt><trkpt lat="42.1219967" lon="11.9472167"><ele>392.0</ele><time>2026-04-19T09:24:40.586Z</time></trkpt><trkpt lat="42.1219483" lon="11.9472717"><ele>392.0</ele><time>2026-04-19T09:24:41.585Z</time></trkpt><trkpt lat="42.1218933" lon="11.9473583"><ele>392.0</ele><time>2026-04-19T09:24:43.585Z</time></trkpt><trkpt lat="42.1218683" lon="11.9474633"><ele>392.0</ele><time>2026-04-19T09:24:46.586Z</time></trkpt><trkpt lat="42.1218617" lon="11.947645"><ele>392.0</ele><time>2026-04-19T09:24:48.585Z</time></trkpt><trkpt lat="42.1218667" lon="11.9477633"><ele>392.0</ele><time>2026-04-19T09:24:49.586Z</time></trkpt><trkpt lat="42.1218833" lon="11.9478817"><ele>392.0</ele><time>2026-04-19T09:24:50.585Z</time></trkpt><trkpt lat="42.1219183" lon="11.948015"><ele>392.0</ele><time>2026-04-19T09:24:51.585Z</time></trkpt><trkpt lat="42.1219733" lon="11.9481467"><ele>392.0</ele><time>2026-04-19T09:24:52.585Z</time></trkpt><trkpt lat="42.12203" lon="11.9482783"><ele>393.6</ele><time>2026-04-19T09:24:53.585Z</time></trkpt><trkpt lat="42.1220817" lon="11.9484067"><ele>395.20000000000005</ele><time>2026-04-19T09:24:54.585Z</time></trkpt><trkpt lat="42.122125" lon="11.94853"><ele>396.8</ele><time>2026-04-19T09:24:55.585Z</time></trkpt><trkpt lat="42.1221567" lon="11.9486383"><ele>398.4</ele><time>2026-04-19T09:24:56.585Z</time></trkpt><trkpt lat="42.1221883" lon="11.9487433"><ele>400.0</ele><time>2026-04-19T09:24:57.585Z</time></trkpt><trkpt lat="42.1222233" lon="11.9488517"><ele>400.0</ele><time>2026-04-19T09:24:58.585Z</time></trkpt><trkpt lat="42.1222617" lon="11.94898"><ele>400.0</ele><time>2026-04-19T09:24:59.585Z</time></trkpt><trkpt lat="42.12231" lon="11.94912"><ele>400.0</ele><time>2026-04-19T09:25:00.585Z</time></trkpt><trkpt lat="42.1223467" lon="11.9492383"><ele>400.0</ele><time>2026-04-19T09:25:01.586Z</time></trkpt><trkpt lat="42.1223833" lon="11.9493417"><ele>400.0</ele><time>2026-04-19T09:25:02.585Z</time></trkpt><trkpt lat="42.1224333" lon="11.9494283"><ele>397.1666666666667</ele><time>2026-04-19T09:25:03.585Z</time></trkpt><trkpt lat="42.1225167" lon="11.9494717"><ele>394.33333333333337</ele><time>2026-04-19T09:25:04.586Z</time></trkpt><trkpt lat="42.1226117" lon="11.949495"><ele>391.5</ele><time>2026-04-19T09:25:05.585Z</time></trkpt><trkpt lat="42.12269" lon="11.94953"><ele>388.6666666666667</ele><time>2026-04-19T09:25:06.586Z</time></trkpt><trkpt lat="42.1227683" lon="11.9495833"><ele>385.83333333333337</ele><time>2026-04-19T09:25:07.585Z</time></trkpt><trkpt lat="42.1228283" lon="11.949675"><ele>383.0</ele><time>2026-04-19T09:25:08.585Z</time></trkpt><trkpt lat="42.122865" lon="11.9497983"><ele>383.0</ele><time>2026-04-19T09:25:09.585Z</time></trkpt><trkpt lat="42.1228783" lon="11.9499233"><ele>383.0</ele><time>2026-04-19T09:25:10.586Z</time></trkpt><trkpt lat="42.1229117" lon="11.9500133"><ele>383.0</ele><time>2026-04-19T09:25:11.585Z</time></trkpt><trkpt lat="42.122955" lon="11.9500817"><ele>383.0</ele><time>2026-04-19T09:25:12.586Z</time></trkpt><trkpt lat="42.1230283" lon="11.9501233"><ele>383.0</ele><time>2026-04-19T09:25:13.585Z</time></trkpt><trkpt lat="42.1231033" lon="11.9501467"><ele>383.0</ele><time>2026-04-19T09:25:14.585Z</time></trkpt><trkpt lat="42.1231683" lon="11.950175"><ele>384.59999999999997</ele><time>2026-04-19T09:25:15.585Z</time></trkpt><trkpt lat="42.123215" lon="11.950245"><ele>386.2</ele><time>2026-04-19T09:25:16.585Z</time></trkpt><trkpt lat="42.1232383" lon="11.950345"><ele>387.8</ele><time>2026-04-19T09:25:17.585Z</time></trkpt><trkpt lat="42.123245" lon="11.9504833"><ele>389.4</ele><time>2026-04-19T09:25:18.585Z</time></trkpt><trkpt lat="42.1232533" lon="11.9506417"><ele>391.0</ele><time>2026-04-19T09:25:19.585Z</time></trkpt><trkpt lat="42.123265" lon="11.9508117"><ele>388.6666666666667</ele><time>2026-04-19T09:25:20.585Z</time></trkpt><trkpt lat="42.1232683" lon="11.9509467"><ele>386.33333333333337</ele><time>2026-04-19T09:25:21.585Z</time></trkpt><trkpt lat="42.123275" lon="11.95105"><ele>384.0</ele><time>2026-04-19T09:25:22.586Z</time></trkpt><trkpt lat="42.1233167" lon="11.95113"><ele>381.6666666666667</ele><time>2026-04-19T09:25:23.585Z</time></trkpt><trkpt lat="42.12337" lon="11.951195"><ele>379.33333333333337</ele><time>2026-04-19T09:25:24.585Z</time></trkpt><trkpt lat="42.1234367" lon="11.9512467"><ele>377.0</ele><time>2026-04-19T09:25:25.585Z</time></trkpt><trkpt lat="42.12352" lon="11.951255"><ele>377.0</ele><time>2026-04-19T09:25:26.585Z</time></trkpt><trkpt lat="42.1235967" lon="11.9512817"><ele>377.0</ele><time>2026-04-19T09:25:27.585Z</time></trkpt><trkpt lat="42.123685" lon="11.9513417"><ele>377.0</ele><time>2026-04-19T09:25:28.585Z</time></trkpt><trkpt lat="42.1237733" lon="11.95142"><ele>377.0</ele><time>2026-04-19T09:25:29.585Z</time></trkpt><trkpt lat="42.1238433" lon="11.951495"><ele>377.0</ele><time>2026-04-19T09:25:30.586Z</time></trkpt><trkpt lat="42.1238917" lon="11.9515783"><ele>377.0</ele><time>2026-04-19T09:25:31.585Z</time></trkpt><trkpt lat="42.1239233" lon="11.9516867"><ele>377.0</ele><time>2026-04-19T09:25:32.586Z</time></trkpt><trkpt lat="42.1239317" lon="11.9518317"><ele>377.0</ele><time>2026-04-19T09:25:33.585Z</time></trkpt><trkpt lat="42.1239267" lon="11.9519817"><ele>377.0</ele><time>2026-04-19T09:25:34.585Z</time></trkpt><trkpt lat="42.1239" lon="11.9521567"><ele>377.0</ele><time>2026-04-19T09:25:35.585Z</time></trkpt><trkpt lat="42.1238733" lon="11.95232"><ele>377.0</ele><time>2026-04-19T09:25:36.585Z</time></trkpt><trkpt lat="42.1238383" lon="11.9524733"><ele>377.0</ele><time>2026-04-19T09:25:37.585Z</time></trkpt><trkpt lat="42.1238083" lon="11.95261"><ele>377.0</ele><time>2026-04-19T09:25:38.585Z</time></trkpt><trkpt lat="42.1237833" lon="11.9527433"><ele>377.0</ele><time>2026-04-19T09:25:39.585Z</time></trkpt><trkpt lat="42.12376" lon="11.95286"><ele>377.0</ele><time>2026-04-19T09:25:40.585Z</time></trkpt><trkpt lat="42.1237333" lon="11.9529683"><ele>375.40000000000003</ele><time>2026-04-19T09:25:41.585Z</time></trkpt><trkpt lat="42.1237017" lon="11.9530717"><ele>373.8</ele><time>2026-04-19T09:25:42.585Z</time></trkpt><trkpt lat="42.1236617" lon="11.9531883"><ele>372.2</ele><time>2026-04-19T09:25:43.585Z</time></trkpt><trkpt lat="42.123625" lon="11.9533183"><ele>370.6</ele><time>2026-04-19T09:25:44.585Z</time></trkpt><trkpt lat="42.1236017" lon="11.9534833"><ele>369.0</ele><time>2026-04-19T09:25:45.585Z</time></trkpt><trkpt lat="42.12359" lon="11.9536567"><ele>367.25</ele><time>2026-04-19T09:25:46.586Z</time></trkpt><trkpt lat="42.1235767" lon="11.95382"><ele>365.5</ele><time>2026-04-19T09:25:47.585Z</time></trkpt><trkpt lat="42.1235583" lon="11.9539833"><ele>363.75</ele><time>2026-04-19T09:25:48.586Z</time></trkpt><trkpt lat="42.1235583" lon="11.954145"><ele>362.0</ele><time>2026-04-19T09:25:49.585Z</time></trkpt><trkpt lat="42.123585" lon="11.9543183"><ele>360.33333333333337</ele><time>2026-04-19T09:25:50.585Z</time></trkpt><trkpt lat="42.1235967" lon="11.9544683"><ele>358.6666666666667</ele><time>2026-04-19T09:25:51.585Z</time></trkpt><trkpt lat="42.123595" lon="11.9545683"><ele>357.0</ele><time>2026-04-19T09:25:52.585Z</time></trkpt><trkpt lat="42.1235717" lon="11.954665"><ele>355.3333333333333</ele><time>2026-04-19T09:25:53.585Z</time></trkpt><trkpt lat="42.1235283" lon="11.9547633"><ele>353.66666666666663</ele><time>2026-04-19T09:25:54.585Z</time></trkpt><trkpt lat="42.1234817" lon="11.9548667"><ele>352.0</ele><time>2026-04-19T09:25:55.585Z</time></trkpt><trkpt lat="42.123425" lon="11.9549667"><ele>350.66666666666663</ele><time>2026-04-19T09:25:56.585Z</time></trkpt><trkpt lat="42.12335" lon="11.95504"><ele>349.3333333333333</ele><time>2026-04-19T09:25:57.585Z</time></trkpt><trkpt lat="42.1232617" lon="11.95508"><ele>348.0</ele><time>2026-04-19T09:25:58.585Z</time></trkpt><trkpt lat="42.123175" lon="11.9550833"><ele>346.6666666666667</ele><time>2026-04-19T09:25:59.585Z</time></trkpt><trkpt lat="42.1231" lon="11.9550667"><ele>345.33333333333337</ele><time>2026-04-19T09:26:00.585Z</time></trkpt><trkpt lat="42.1230367" lon="11.95504"><ele>344.0</ele><time>2026-04-19T09:26:01.586Z</time></trkpt><trkpt lat="42.1229433" lon="11.95496"><ele>344.0</ele><time>2026-04-19T09:26:03.585Z</time></trkpt><trkpt lat="42.1228817" lon="11.954915"><ele>344.0</ele><time>2026-04-19T09:26:04.585Z</time></trkpt><trkpt lat="42.122805" lon="11.9548533"><ele>344.0</ele><time>2026-04-19T09:26:05.585Z</time></trkpt><trkpt lat="42.122735" lon="11.9547867"><ele>344.0</ele><time>2026-04-19T09:26:06.585Z</time></trkpt><trkpt lat="42.1226583" lon="11.9547267"><ele>344.0</ele><time>2026-04-19T09:26:07.585Z</time></trkpt><trkpt lat="42.122575" lon="11.9546933"><ele>344.0</ele><time>2026-04-19T09:26:08.585Z</time></trkpt><trkpt lat="42.1224817" lon="11.9546667"><ele>344.0</ele><time>2026-04-19T09:26:09.585Z</time></trkpt><trkpt lat="42.1224" lon="11.9546483"><ele>344.0</ele><time>2026-04-19T09:26:10.585Z</time></trkpt><trkpt lat="42.1223183" lon="11.9546417"><ele>344.0</ele><time>2026-04-19T09:26:11.585Z</time></trkpt><trkpt lat="42.1222383" lon="11.9546417"><ele>344.0</ele><time>2026-04-19T09:26:12.586Z</time></trkpt><trkpt lat="42.122165" lon="11.9546417"><ele>344.0</ele><time>2026-04-19T09:26:13.585Z</time></trkpt><trkpt lat="42.1220917" lon="11.9546417"><ele>344.0</ele><time>2026-04-19T09:26:14.585Z</time></trkpt><trkpt lat="42.12201" lon="11.9546333"><ele>343.0</ele><time>2026-04-19T09:26:15.585Z</time></trkpt><trkpt lat="42.12191" lon="11.9546167"><ele>342.0</ele><time>2026-04-19T09:26:16.585Z</time></trkpt><trkpt lat="42.121815" lon="11.9546183"><ele>341.0</ele><time>2026-04-19T09:26:17.585Z</time></trkpt><trkpt lat="42.121725" lon="11.95461"><ele>340.0</ele><time>2026-04-19T09:26:18.586Z</time></trkpt><trkpt lat="42.12164" lon="11.9546"><ele>339.0</ele><time>2026-04-19T09:26:19.585Z</time></trkpt><trkpt lat="42.1215617" lon="11.9545967"><ele>341.0</ele><time>2026-04-19T09:26:20.585Z</time></trkpt><trkpt lat="42.1214867" lon="11.9546033"><ele>343.0</ele><time>2026-04-19T09:26:21.585Z</time></trkpt><trkpt lat="42.1214133" lon="11.95466"><ele>345.0</ele><time>2026-04-19T09:26:22.586Z</time></trkpt><trkpt lat="42.121345" lon="11.9547183"><ele>347.0</ele><time>2026-04-19T09:26:23.586Z</time></trkpt><trkpt lat="42.1212883" lon="11.954855"><ele>349.0</ele><time>2026-04-19T09:26:24.585Z</time></trkpt><trkpt lat="42.1212267" lon="11.9549867"><ele>346.6</ele><time>2026-04-19T09:26:25.585Z</time></trkpt><trkpt lat="42.1211717" lon="11.955105"><ele>344.2</ele><time>2026-04-19T09:26:26.585Z</time></trkpt><trkpt lat="42.1211117" lon="11.95523"><ele>341.8</ele><time>2026-04-19T09:26:27.586Z</time></trkpt><trkpt lat="42.121055" lon="11.9553683"><ele>339.40000000000003</ele><time>2026-04-19T09:26:28.586Z</time></trkpt><trkpt lat="42.1210067" lon="11.9555117"><ele>337.0</ele><time>2026-04-19T09:26:29.586Z</time></trkpt><trkpt lat="42.12097" lon="11.9556233"><ele>337.0</ele><time>2026-04-19T09:26:30.586Z</time></trkpt><trkpt lat="42.1209417" lon="11.9557133"><ele>337.0</ele><time>2026-04-19T09:26:31.585Z</time></trkpt><trkpt lat="42.1208883" lon="11.9558683"><ele>337.0</ele><time>2026-04-19T09:26:33.585Z</time></trkpt><trkpt lat="42.120815" lon="11.9560033"><ele>337.0</ele><time>2026-04-19T09:26:35.585Z</time></trkpt><trkpt lat="42.1207383" lon="11.9561517"><ele>337.16666666666663</ele><time>2026-04-19T09:26:37.585Z</time></trkpt><trkpt lat="42.1207083" lon="11.9562267"><ele>337.3333333333333</ele><time>2026-04-19T09:26:38.585Z</time></trkpt><trkpt lat="42.1206717" lon="11.956385"><ele>337.5</ele><time>2026-04-19T09:26:40.585Z</time></trkpt><trkpt lat="42.1206517" lon="11.9564667"><ele>337.6666666666667</ele><time>2026-04-19T09:26:41.585Z</time></trkpt><trkpt lat="42.1206267" lon="11.956555"><ele>337.83333333333337</ele><time>2026-04-19T09:26:42.585Z</time></trkpt><trkpt lat="42.12059" lon="11.9566883"><ele>338.0</ele><time>2026-04-19T09:26:44.585Z</time></trkpt><trkpt lat="42.12061" lon="11.9568683"><ele>337.5</ele><time>2026-04-19T09:29:43.584Z</time></trkpt><trkpt lat="42.1205783" lon="11.9569517"><ele>337.0</ele><time>2026-04-19T09:29:46.584Z</time></trkpt><trkpt lat="42.1205417" lon="11.9570767"><ele>336.5</ele><time>2026-04-19T09:29:49.584Z</time></trkpt><trkpt lat="42.120505" lon="11.9571633"><ele>336.0</ele><time>2026-04-19T09:29:51.584Z</time></trkpt><trkpt lat="42.1204967" lon="11.957255"><ele>335.5</ele><time>2026-04-19T09:29:53.585Z</time></trkpt><trkpt lat="42.1204983" lon="11.95736"><ele>335.0</ele><time>2026-04-19T09:29:55.584Z</time></trkpt><trkpt lat="42.1204767" lon="11.957545"><ele>335.0</ele><time>2026-04-19T09:30:04.584Z</time></trkpt><trkpt lat="42.12047" lon="11.9576833"><ele>335.0</ele><time>2026-04-19T09:30:05.584Z</time></trkpt><trkpt lat="42.120455" lon="11.957845"><ele>335.0</ele><time>2026-04-19T09:30:06.584Z</time></trkpt><trkpt lat="42.12044" lon="11.95801"><ele>335.0</ele><time>2026-04-19T09:30:07.584Z</time></trkpt><trkpt lat="42.120425" lon="11.958165"><ele>335.0</ele><time>2026-04-19T09:30:08.584Z</time></trkpt><trkpt lat="42.1204117" lon="11.9583217"><ele>335.0</ele><time>2026-04-19T09:30:09.584Z</time></trkpt><trkpt lat="42.12041" lon="11.9584617"><ele>335.0</ele><time>2026-04-19T09:30:10.585Z</time></trkpt><trkpt lat="42.1204183" lon="11.9586017"><ele>335.0</ele><time>2026-04-19T09:30:11.584Z</time></trkpt><trkpt lat="42.1204567" lon="11.9587483"><ele>335.0</ele><time>2026-04-19T09:30:12.584Z</time></trkpt><trkpt lat="42.1205233" lon="11.9588833"><ele>336.2</ele><time>2026-04-19T09:30:13.584Z</time></trkpt><trkpt lat="42.12058" lon="11.9590133"><ele>337.4</ele><time>2026-04-19T09:30:14.585Z</time></trkpt><trkpt lat="42.1206333" lon="11.9591367"><ele>338.6</ele><time>2026-04-19T09:30:15.584Z</time></trkpt><trkpt lat="42.1206667" lon="11.9592683"><ele>339.8</ele><time>2026-04-19T09:30:16.584Z</time></trkpt><trkpt lat="42.120675" lon="11.959415"><ele>341.0</ele><time>2026-04-19T09:30:17.584Z</time></trkpt><trkpt lat="42.1206517" lon="11.95955"><ele>341.4</ele><time>2026-04-19T09:30:18.584Z</time></trkpt><trkpt lat="42.1206133" lon="11.9596833"><ele>341.8</ele><time>2026-04-19T09:30:19.584Z</time></trkpt><trkpt lat="42.120565" lon="11.9598117"><ele>342.2</ele><time>2026-04-19T09:30:20.584Z</time></trkpt><trkpt lat="42.1205117" lon="11.9599383"><ele>342.59999999999997</ele><time>2026-04-19T09:30:21.584Z</time></trkpt><trkpt lat="42.1204733" lon="11.96007"><ele>343.0</ele><time>2026-04-19T09:30:22.584Z</time></trkpt><trkpt lat="42.1204683" lon="11.9601933"><ele>341.2</ele><time>2026-04-19T09:30:23.585Z</time></trkpt><trkpt lat="42.1204867" lon="11.960325"><ele>339.4</ele><time>2026-04-19T09:30:24.584Z</time></trkpt><trkpt lat="42.1205183" lon="11.9604533"><ele>337.59999999999997</ele><time>2026-04-19T09:30:25.584Z</time></trkpt><trkpt lat="42.1205567" lon="11.9605783"><ele>335.79999999999995</ele><time>2026-04-19T09:30:26.584Z</time></trkpt><trkpt lat="42.1205767" lon="11.960705"><ele>334.0</ele><time>2026-04-19T09:30:27.584Z</time></trkpt><trkpt lat="42.1205733" lon="11.96083"><ele>332.8333333333333</ele><time>2026-04-19T09:30:28.584Z</time></trkpt><trkpt lat="42.1205533" lon="11.9609333"><ele>331.66666666666663</ele><time>2026-04-19T09:30:29.584Z</time></trkpt><trkpt lat="42.1205083" lon="11.9610067"><ele>330.5</ele><time>2026-04-19T09:30:30.585Z</time></trkpt><trkpt lat="42.1204317" lon="11.9610667"><ele>329.3333333333333</ele><time>2026-04-19T09:30:31.584Z</time></trkpt><trkpt lat="42.1203433" lon="11.96111"><ele>328.1666666666667</ele><time>2026-04-19T09:30:32.584Z</time></trkpt><trkpt lat="42.1202417" lon="11.9611367"><ele>327.0</ele><time>2026-04-19T09:30:33.584Z</time></trkpt><trkpt lat="42.1201467" lon="11.961165"><ele>327.0</ele><time>2026-04-19T09:30:34.584Z</time></trkpt><trkpt lat="42.1200617" lon="11.961215"><ele>327.0</ele><time>2026-04-19T09:30:35.584Z</time></trkpt><trkpt lat="42.1199883" lon="11.961305"><ele>327.0</ele><time>2026-04-19T09:30:36.585Z</time></trkpt><trkpt lat="42.1199483" lon="11.9614317"><ele>327.0</ele><time>2026-04-19T09:30:37.584Z</time></trkpt><trkpt lat="42.1199367" lon="11.96156"><ele>327.0</ele><time>2026-04-19T09:30:38.584Z</time></trkpt><trkpt lat="42.119945" lon="11.961705"><ele>326.40000000000003</ele><time>2026-04-19T09:30:39.584Z</time></trkpt><trkpt lat="42.11998" lon="11.961835"><ele>325.8</ele><time>2026-04-19T09:30:40.584Z</time></trkpt><trkpt lat="42.120025" lon="11.96196"><ele>325.2</ele><time>2026-04-19T09:30:41.585Z</time></trkpt><trkpt lat="42.1200367" lon="11.96209"><ele>324.6</ele><time>2026-04-19T09:30:42.584Z</time></trkpt><trkpt lat="42.120015" lon="11.96221"><ele>324.0</ele><time>2026-04-19T09:30:43.584Z</time></trkpt><trkpt lat="42.1199567" lon="11.9623067"><ele>324.0</ele><time>2026-04-19T09:30:44.584Z</time></trkpt><trkpt lat="42.1199017" lon="11.96239"><ele>324.0</ele><time>2026-04-19T09:30:45.584Z</time></trkpt><trkpt lat="42.1198283" lon="11.9624517"><ele>324.0</ele><time>2026-04-19T09:30:46.584Z</time></trkpt><trkpt lat="42.1197483" lon="11.9625"><ele>324.0</ele><time>2026-04-19T09:30:47.584Z</time></trkpt><trkpt lat="42.1196617" lon="11.96261"><ele>324.0</ele><time>2026-04-19T09:30:48.584Z</time></trkpt><trkpt lat="42.1195783" lon="11.9627433"><ele>328.25</ele><time>2026-04-19T09:30:49.584Z</time></trkpt><trkpt lat="42.1195283" lon="11.9628833"><ele>332.5</ele><time>2026-04-19T09:30:50.584Z</time></trkpt><trkpt lat="42.119495" lon="11.9630417"><ele>336.75</ele><time>2026-04-19T09:30:51.584Z</time></trkpt><trkpt lat="42.1194867" lon="11.963235"><ele>341.0</ele><time>2026-04-19T09:30:52.585Z</time></trkpt><trkpt lat="42.1195" lon="11.963445"><ele>343.33333333333337</ele><time>2026-04-19T09:30:53.584Z</time></trkpt><trkpt lat="42.1195433" lon="11.9636533"><ele>345.6666666666667</ele><time>2026-04-19T09:30:54.585Z</time></trkpt><trkpt lat="42.119595" lon="11.9638483"><ele>348.0</ele><time>2026-04-19T09:30:55.585Z</time></trkpt><trkpt lat="42.1196567" lon="11.9640433"><ele>346.75</ele><time>2026-04-19T09:30:56.585Z</time></trkpt><trkpt lat="42.119715" lon="11.964225"><ele>345.5</ele><time>2026-04-19T09:30:57.584Z</time></trkpt><trkpt lat="42.119785" lon="11.9643967"><ele>344.25</ele><time>2026-04-19T09:30:58.584Z</time></trkpt><trkpt lat="42.1198583" lon="11.964555"><ele>343.0</ele><time>2026-04-19T09:30:59.584Z</time></trkpt><trkpt lat="42.1199383" lon="11.9647067"><ele>343.0</ele><time>2026-04-19T09:31:00.584Z</time></trkpt><trkpt lat="42.1200267" lon="11.9648583"><ele>343.0</ele><time>2026-04-19T09:31:01.584Z</time></trkpt><trkpt lat="42.1201" lon="11.96501"><ele>343.0</ele><time>2026-04-19T09:31:02.585Z</time></trkpt><trkpt lat="42.12015" lon="11.9651683"><ele>343.0</ele><time>2026-04-19T09:31:03.584Z</time></trkpt><trkpt lat="42.120175" lon="11.965335"><ele>346.0</ele><time>2026-04-19T09:31:04.584Z</time></trkpt><trkpt lat="42.12017" lon="11.9654983"><ele>349.0</ele><time>2026-04-19T09:31:05.584Z</time></trkpt><trkpt lat="42.12016" lon="11.9656567"><ele>352.0</ele><time>2026-04-19T09:31:06.584Z</time></trkpt><trkpt lat="42.12017" lon="11.9658183"><ele>355.0</ele><time>2026-04-19T09:31:07.584Z</time></trkpt><trkpt lat="42.1202033" lon="11.965975"><ele>358.0</ele><time>2026-04-19T09:31:08.585Z</time></trkpt><trkpt lat="42.1202683" lon="11.9661167"><ele>361.0</ele><time>2026-04-19T09:31:09.583Z</time></trkpt><trkpt lat="42.1203817" lon="11.9662783"><ele>364.0</ele><time>2026-04-19T09:31:10.583Z</time></trkpt><trkpt lat="42.1204767" lon="11.9664467"><ele>367.0</ele><time>2026-04-19T09:31:11.583Z</time></trkpt><trkpt lat="42.1205683" lon="11.9666117"><ele>368.5</ele><time>2026-04-19T09:31:12.583Z</time></trkpt><trkpt lat="42.1206483" lon="11.9667633"><ele>370.0</ele><time>2026-04-19T09:31:13.583Z</time></trkpt><trkpt lat="42.1207083" lon="11.9669"><ele>371.5</ele><time>2026-04-19T09:31:14.584Z</time></trkpt><trkpt lat="42.1207467" lon="11.9670333"><ele>373.0</ele><time>2026-04-19T09:31:15.583Z</time></trkpt><trkpt lat="42.12077" lon="11.9671667"><ele>368.0</ele><time>2026-04-19T09:31:16.583Z</time></trkpt><trkpt lat="42.1207783" lon="11.9673033"><ele>363.0</ele><time>2026-04-19T09:31:17.584Z</time></trkpt><trkpt lat="42.1207817" lon="11.9674483"><ele>358.0</ele><time>2026-04-19T09:31:18.583Z</time></trkpt><trkpt lat="42.1207883" lon="11.967605"><ele>353.0</ele><time>2026-04-19T09:31:19.583Z</time></trkpt><trkpt lat="42.12079" lon="11.9677583"><ele>348.0</ele><time>2026-04-19T09:31:20.583Z</time></trkpt><trkpt lat="42.12079" lon="11.9679117"><ele>347.59999999999997</ele><time>2026-04-19T09:31:21.583Z</time></trkpt><trkpt lat="42.1207917" lon="11.96805"><ele>347.2</ele><time>2026-04-19T09:31:22.583Z</time></trkpt><trkpt lat="42.1207817" lon="11.968185"><ele>346.8</ele><time>2026-04-19T09:31:23.583Z</time></trkpt><trkpt lat="42.120765" lon="11.968315"><ele>346.4</ele><time>2026-04-19T09:31:24.583Z</time></trkpt><trkpt lat="42.12072" lon="11.9684433"><ele>346.0</ele><time>2026-04-19T09:31:25.583Z</time></trkpt><trkpt lat="42.120655" lon="11.9685633"><ele>347.0</ele><time>2026-04-19T09:31:26.583Z</time></trkpt><trkpt lat="42.1205833" lon="11.9686667"><ele>348.0</ele><time>2026-04-19T09:31:27.583Z</time></trkpt><trkpt lat="42.12048" lon="11.968785"><ele>349.0</ele><time>2026-04-19T09:31:28.583Z</time></trkpt><trkpt lat="42.1203667" lon="11.9688967"><ele>350.0</ele><time>2026-04-19T09:31:29.584Z</time></trkpt><trkpt lat="42.120265" lon="11.96901"><ele>350.0</ele><time>2026-04-19T09:31:30.583Z</time></trkpt><trkpt lat="42.12015" lon="11.9691183"><ele>350.0</ele><time>2026-04-19T09:31:31.583Z</time></trkpt><trkpt lat="42.1200233" lon="11.9692417"><ele>350.0</ele><time>2026-04-19T09:31:32.583Z</time></trkpt><trkpt lat="42.1198867" lon="11.9693933"><ele>349.33333333333337</ele><time>2026-04-19T09:31:33.584Z</time></trkpt><trkpt lat="42.1197583" lon="11.9695467"><ele>348.6666666666667</ele><time>2026-04-19T09:31:34.583Z</time></trkpt><trkpt lat="42.1196483" lon="11.9697017"><ele>348.0</ele><time>2026-04-19T09:31:35.583Z</time></trkpt><trkpt lat="42.1195517" lon="11.9698717"><ele>345.3333333333333</ele><time>2026-04-19T09:31:36.583Z</time></trkpt><trkpt lat="42.119465" lon="11.9700517"><ele>342.66666666666663</ele><time>2026-04-19T09:31:37.583Z</time></trkpt><trkpt lat="42.119395" lon="11.9702617"><ele>340.0</ele><time>2026-04-19T09:31:38.583Z</time></trkpt><trkpt lat="42.1193167" lon="11.9704817"><ele>340.0</ele><time>2026-04-19T09:31:39.583Z</time></trkpt><trkpt lat="42.1192367" lon="11.9706767"><ele>340.0</ele><time>2026-04-19T09:31:40.583Z</time></trkpt><trkpt lat="42.119145" lon="11.970835"><ele>340.0</ele><time>2026-04-19T09:31:41.583Z</time></trkpt><trkpt lat="42.1190467" lon="11.97097"><ele>339.5</ele><time>2026-04-19T09:31:42.584Z</time></trkpt><trkpt lat="42.118675" lon="11.9712483"><ele>339.0</ele><time>2026-04-19T09:31:45.584Z</time></trkpt><trkpt lat="42.1185267" lon="11.97131"><ele>339.0</ele><time>2026-04-19T09:31:46.583Z</time></trkpt><trkpt lat="42.1183783" lon="11.9713533"><ele>339.0</ele><time>2026-04-19T09:31:47.583Z</time></trkpt><trkpt lat="42.1182283" lon="11.971395"><ele>339.0</ele><time>2026-04-19T09:31:48.583Z</time></trkpt><trkpt lat="42.1180783" lon="11.9714667"><ele>339.3333333333333</ele><time>2026-04-19T09:31:49.583Z</time></trkpt><trkpt lat="42.1179333" lon="11.9715683"><ele>339.66666666666663</ele><time>2026-04-19T09:31:50.584Z</time></trkpt><trkpt lat="42.1177883" lon="11.971695"><ele>340.0</ele><time>2026-04-19T09:31:51.583Z</time></trkpt><trkpt lat="42.117645" lon="11.9718433"><ele>340.0</ele><time>2026-04-19T09:31:52.583Z</time></trkpt><trkpt lat="42.1174933" lon="11.9719933"><ele>340.0</ele><time>2026-04-19T09:31:53.584Z</time></trkpt><trkpt lat="42.117345" lon="11.9721317"><ele>340.0</ele><time>2026-04-19T09:31:54.584Z</time></trkpt><trkpt lat="42.1171867" lon="11.9722683"><ele>340.0</ele><time>2026-04-19T09:31:55.583Z</time></trkpt><trkpt lat="42.1170117" lon="11.9724083"><ele>340.0</ele><time>2026-04-19T09:31:56.583Z</time></trkpt><trkpt lat="42.1168317" lon="11.9725567"><ele>340.0</ele><time>2026-04-19T09:31:57.583Z</time></trkpt><trkpt lat="42.1166583" lon="11.972705"><ele>344.0</ele><time>2026-04-19T09:31:58.583Z</time></trkpt><trkpt lat="42.1165033" lon="11.9728533"><ele>348.0</ele><time>2026-04-19T09:31:59.584Z</time></trkpt><trkpt lat="42.1163833" lon="11.973045"><ele>352.0</ele><time>2026-04-19T09:32:00.583Z</time></trkpt><trkpt lat="42.1162917" lon="11.97324"><ele>350.75</ele><time>2026-04-19T09:32:01.583Z</time></trkpt><trkpt lat="42.1162167" lon="11.97342"><ele>349.5</ele><time>2026-04-19T09:32:02.583Z</time></trkpt><trkpt lat="42.1161483" lon="11.9735783"><ele>348.25</ele><time>2026-04-19T09:32:03.583Z</time></trkpt><trkpt lat="42.116085" lon="11.9737117"><ele>347.0</ele><time>2026-04-19T09:32:04.583Z</time></trkpt><trkpt lat="42.116035" lon="11.9738267"><ele>347.0</ele><time>2026-04-19T09:32:05.584Z</time></trkpt><trkpt lat="42.1159783" lon="11.973915"><ele>347.0</ele><time>2026-04-19T09:32:06.583Z</time></trkpt><trkpt lat="42.11594" lon="11.9739883"><ele>347.0</ele><time>2026-04-19T09:32:07.583Z</time></trkpt><trkpt lat="42.1159067" lon="11.9741083"><ele>347.0</ele><time>2026-04-19T09:32:09.583Z</time></trkpt><trkpt lat="42.1159317" lon="11.9742067"><ele>347.0</ele><time>2026-04-19T09:32:11.583Z</time></trkpt><trkpt lat="42.11594" lon="11.9743117"><ele>347.0</ele><time>2026-04-19T09:32:13.583Z</time></trkpt><trkpt lat="42.115865" lon="11.9744117"><ele>343.0</ele><time>2026-04-19T09:32:15.583Z</time></trkpt><trkpt lat="42.1157967" lon="11.9744517"><ele>343.0</ele><time>2026-04-19T09:32:17.583Z</time></trkpt></trkseg><trkseg><trkpt lat="42.1156775" lon="11.9746713"><ele>348.66666666666663</ele><time>2026-04-19T11:00:07.632Z</time></trkpt><trkpt lat="42.1157411" lon="11.9745816"><ele>348.3333333333333</ele><time>2026-04-19T11:00:19.605Z</time></trkpt><trkpt lat="42.1158073" lon="11.9745309"><ele>348.0</ele><time>2026-04-19T11:01:37.618Z</time></trkpt><trkpt lat="42.1158612" lon="11.974466"><ele>347.6666666666667</ele><time>2026-04-19T11:01:41.68Z</time></trkpt><trkpt lat="42.1159124" lon="11.9743818"><ele>347.33333333333337</ele><time>2026-04-19T11:01:44.673Z</time></trkpt><trkpt lat="42.1159398" lon="11.9742979"><ele>347.0</ele><time>2026-04-19T11:01:46.703Z</time></trkpt><trkpt lat="42.1159279" lon="11.9741848"><ele>347.0</ele><time>2026-04-19T11:01:49.606Z</time></trkpt><trkpt lat="42.115865" lon="11.9741733"><ele>347.0</ele><time>2026-04-19T11:01:51.605Z</time></trkpt><trkpt lat="42.115775" lon="11.97421"><ele>347.0</ele><time>2026-04-19T11:01:53.605Z</time></trkpt><trkpt lat="42.1157167" lon="11.9742867"><ele>347.0</ele><time>2026-04-19T11:01:54.605Z</time></trkpt><trkpt lat="42.115645" lon="11.97438"><ele>347.0</ele><time>2026-04-19T11:01:55.605Z</time></trkpt><trkpt lat="42.11557" lon="11.9744817"><ele>347.0</ele><time>2026-04-19T11:01:56.605Z</time></trkpt><trkpt lat="42.1154983" lon="11.9745783"><ele>346.83333333333337</ele><time>2026-04-19T11:01:57.606Z</time></trkpt><trkpt lat="42.11543" lon="11.9746667"><ele>346.6666666666667</ele><time>2026-04-19T11:01:58.604Z</time></trkpt><trkpt lat="42.11537" lon="11.9747433"><ele>346.5</ele><time>2026-04-19T11:01:59.604Z</time></trkpt><trkpt lat="42.11532" lon="11.9748133"><ele>346.3333333333333</ele><time>2026-04-19T11:02:00.604Z</time></trkpt><trkpt lat="42.1152633" lon="11.97495"><ele>346.16666666666663</ele><time>2026-04-19T11:02:02.604Z</time></trkpt><trkpt lat="42.11526" lon="11.975045"><ele>346.0</ele><time>2026-04-19T11:02:03.604Z</time></trkpt><trkpt lat="42.115285" lon="11.97515"><ele>346.0</ele><time>2026-04-19T11:02:04.604Z</time></trkpt><trkpt lat="42.1153317" lon="11.97526"><ele>346.0</ele><time>2026-04-19T11:02:05.605Z</time></trkpt><trkpt lat="42.1154" lon="11.97536"><ele>346.0</ele><time>2026-04-19T11:02:06.604Z</time></trkpt><trkpt lat="42.1154683" lon="11.9754617"><ele>346.0</ele><time>2026-04-19T11:02:07.604Z</time></trkpt><trkpt lat="42.1155217" lon="11.9755733"><ele>346.0</ele><time>2026-04-19T11:02:08.604Z</time></trkpt><trkpt lat="42.11556" lon="11.9757"><ele>346.0</ele><time>2026-04-19T11:02:09.604Z</time></trkpt><trkpt lat="42.11558" lon="11.975835"><ele>346.0</ele><time>2026-04-19T11:02:10.604Z</time></trkpt><trkpt lat="42.115575" lon="11.97597"><ele>346.0</ele><time>2026-04-19T11:02:11.604Z</time></trkpt><trkpt lat="42.11555" lon="11.9761083"><ele>346.0</ele><time>2026-04-19T11:02:12.605Z</time></trkpt><trkpt lat="42.1155083" lon="11.97624"><ele>346.0</ele><time>2026-04-19T11:02:13.604Z</time></trkpt><trkpt lat="42.1154417" lon="11.9763617"><ele>344.0</ele><time>2026-04-19T11:02:14.604Z</time></trkpt><trkpt lat="42.115375" lon="11.9764867"><ele>342.0</ele><time>2026-04-19T11:02:15.605Z</time></trkpt><trkpt lat="42.1153067" lon="11.97662"><ele>340.0</ele><time>2026-04-19T11:02:16.604Z</time></trkpt><trkpt lat="42.1152367" lon="11.9767467"><ele>338.0</ele><time>2026-04-19T11:02:17.605Z</time></trkpt><trkpt lat="42.1151683" lon="11.9768717"><ele>336.75</ele><time>2026-04-19T11:02:18.604Z</time></trkpt><trkpt lat="42.1150983" lon="11.9770067"><ele>335.5</ele><time>2026-04-19T11:02:19.605Z</time></trkpt><trkpt lat="42.1150267" lon="11.9771517"><ele>334.25</ele><time>2026-04-19T11:02:20.604Z</time></trkpt><trkpt lat="42.1149533" lon="11.9772867"><ele>333.0</ele><time>2026-04-19T11:02:21.604Z</time></trkpt><trkpt lat="42.1148817" lon="11.977425"><ele>332.0</ele><time>2026-04-19T11:02:22.605Z</time></trkpt><trkpt lat="42.1148117" lon="11.9775617"><ele>331.0</ele><time>2026-04-19T11:02:23.604Z</time></trkpt><trkpt lat="42.1147367" lon="11.9777067"><ele>330.0</ele><time>2026-04-19T11:02:24.604Z</time></trkpt><trkpt lat="42.1146633" lon="11.97784"><ele>329.0</ele><time>2026-04-19T11:02:25.605Z</time></trkpt><trkpt lat="42.1145967" lon="11.9779683"><ele>329.0</ele><time>2026-04-19T11:02:26.604Z</time></trkpt><trkpt lat="42.1145317" lon="11.9780917"><ele>329.0</ele><time>2026-04-19T11:02:27.604Z</time></trkpt><trkpt lat="42.1144667" lon="11.9782083"><ele>329.0</ele><time>2026-04-19T11:02:28.604Z</time></trkpt><trkpt lat="42.1144133" lon="11.9783217"><ele>329.0</ele><time>2026-04-19T11:02:29.604Z</time></trkpt><trkpt lat="42.1143533" lon="11.978435"><ele>329.0</ele><time>2026-04-19T11:02:30.604Z</time></trkpt><trkpt lat="42.1142917" lon="11.9785333"><ele>328.0</ele><time>2026-04-19T11:02:31.604Z</time></trkpt><trkpt lat="42.1142367" lon="11.9786367"><ele>327.0</ele><time>2026-04-19T11:02:32.605Z</time></trkpt><trkpt lat="42.1141767" lon="11.9787383"><ele>326.0</ele><time>2026-04-19T11:02:33.604Z</time></trkpt><trkpt lat="42.1141183" lon="11.978845"><ele>325.0</ele><time>2026-04-19T11:02:34.604Z</time></trkpt><trkpt lat="42.1140583" lon="11.97895"><ele>324.0</ele><time>2026-04-19T11:02:35.604Z</time></trkpt><trkpt lat="42.114005" lon="11.9790567"><ele>326.6666666666667</ele><time>2026-04-19T11:02:36.605Z</time></trkpt><trkpt lat="42.1139583" lon="11.9791783"><ele>329.3333333333333</ele><time>2026-04-19T11:02:37.605Z</time></trkpt><trkpt lat="42.11392" lon="11.9792767"><ele>332.0</ele><time>2026-04-19T11:02:38.604Z</time></trkpt><trkpt lat="42.11389" lon="11.9793717"><ele>334.66666666666663</ele><time>2026-04-19T11:02:39.604Z</time></trkpt><trkpt lat="42.113875" lon="11.9794717"><ele>337.3333333333333</ele><time>2026-04-19T11:02:40.605Z</time></trkpt><trkpt lat="42.1138733" lon="11.9795767"><ele>340.0</ele><time>2026-04-19T11:02:41.605Z</time></trkpt><trkpt lat="42.1138817" lon="11.9796683"><ele>340.0</ele><time>2026-04-19T11:02:42.604Z</time></trkpt><trkpt lat="42.1138833" lon="11.9797583"><ele>340.0</ele><time>2026-04-19T11:02:43.604Z</time></trkpt><trkpt lat="42.1138967" lon="11.9798717"><ele>340.0</ele><time>2026-04-19T11:02:44.604Z</time></trkpt><trkpt lat="42.113915" lon="11.9799917"><ele>340.0</ele><time>2026-04-19T11:02:45.605Z</time></trkpt><trkpt lat="42.1139433" lon="11.9801267"><ele>340.0</ele><time>2026-04-19T11:02:46.604Z</time></trkpt><trkpt lat="42.1139833" lon="11.9802783"><ele>340.0</ele><time>2026-04-19T11:02:47.604Z</time></trkpt><trkpt lat="42.1140133" lon="11.980435"><ele>340.0</ele><time>2026-04-19T11:02:48.604Z</time></trkpt><trkpt lat="42.1140383" lon="11.9805833"><ele>340.0</ele><time>2026-04-19T11:02:49.604Z</time></trkpt><trkpt lat="42.1140517" lon="11.980735"><ele>340.0</ele><time>2026-04-19T11:02:50.604Z</time></trkpt><trkpt lat="42.1140467" lon="11.9809033"><ele>339.0</ele><time>2026-04-19T11:02:51.604Z</time></trkpt><trkpt lat="42.114005" lon="11.98107"><ele>338.0</ele><time>2026-04-19T11:02:52.604Z</time></trkpt><trkpt lat="42.1139533" lon="11.9812117"><ele>337.0</ele><time>2026-04-19T11:02:53.604Z</time></trkpt><trkpt lat="42.11391" lon="11.9813183"><ele>336.0</ele><time>2026-04-19T11:02:54.604Z</time></trkpt><trkpt lat="42.11386" lon="11.981445"><ele>335.0</ele><time>2026-04-19T11:02:56.605Z</time></trkpt><trkpt lat="42.11387" lon="11.9815533"><ele>335.0</ele><time>2026-04-19T11:02:58.605Z</time></trkpt><trkpt lat="42.1139667" lon="11.9815717"><ele>335.0</ele><time>2026-04-19T11:03:00.604Z</time></trkpt><trkpt lat="42.114035" lon="11.9815433"><ele>335.0</ele><time>2026-04-19T11:03:01.604Z</time></trkpt><trkpt lat="42.1141" lon="11.9814833"><ele>335.0</ele><time>2026-04-19T11:03:02.604Z</time></trkpt><trkpt lat="42.1141717" lon="11.9814033"><ele>335.0</ele><time>2026-04-19T11:03:03.604Z</time></trkpt><trkpt lat="42.114235" lon="11.9813167"><ele>335.0</ele><time>2026-04-19T11:03:04.604Z</time></trkpt><trkpt lat="42.1142967" lon="11.9812333"><ele>333.33333333333337</ele><time>2026-04-19T11:03:05.604Z</time></trkpt><trkpt lat="42.114365" lon="11.98115"><ele>331.6666666666667</ele><time>2026-04-19T11:03:06.605Z</time></trkpt><trkpt lat="42.1144367" lon="11.9810667"><ele>330.0</ele><time>2026-04-19T11:03:07.604Z</time></trkpt><trkpt lat="42.114505" lon="11.980995"><ele>328.3333333333333</ele><time>2026-04-19T11:03:08.604Z</time></trkpt><trkpt lat="42.1145567" lon="11.98092"><ele>326.66666666666663</ele><time>2026-04-19T11:03:09.604Z</time></trkpt><trkpt lat="42.1146" lon="11.9808383"><ele>325.0</ele><time>2026-04-19T11:03:10.604Z</time></trkpt><trkpt lat="42.1146283" lon="11.9806783"><ele>325.0</ele><time>2026-04-19T11:03:12.604Z</time></trkpt><trkpt lat="42.114615" lon="11.98059"><ele>325.0</ele><time>2026-04-19T11:03:13.604Z</time></trkpt><trkpt lat="42.1146" lon="11.9804883"><ele>325.0</ele><time>2026-04-19T11:03:14.604Z</time></trkpt><trkpt lat="42.114585" lon="11.9803683"><ele>325.0</ele><time>2026-04-19T11:03:15.604Z</time></trkpt><trkpt lat="42.1145833" lon="11.9802567"><ele>325.0</ele><time>2026-04-19T11:03:16.605Z</time></trkpt><trkpt lat="42.1145833" lon="11.98014"><ele>325.0</ele><time>2026-04-19T11:03:17.604Z</time></trkpt><trkpt lat="42.1145767" lon="11.9800183"><ele>324.5</ele><time>2026-04-19T11:03:18.604Z</time></trkpt><trkpt lat="42.114585" lon="11.97991"><ele>324.0</ele><time>2026-04-19T11:03:19.605Z</time></trkpt><trkpt lat="42.1145967" lon="11.979805"><ele>323.5</ele><time>2026-04-19T11:03:20.604Z</time></trkpt><trkpt lat="42.114615" lon="11.979695"><ele>323.0</ele><time>2026-04-19T11:03:21.604Z</time></trkpt><trkpt lat="42.1146567" lon="11.979585"><ele>322.5</ele><time>2026-04-19T11:03:22.604Z</time></trkpt><trkpt lat="42.1147067" lon="11.9794867"><ele>322.0</ele><time>2026-04-19T11:03:23.604Z</time></trkpt><trkpt lat="42.114775" lon="11.9794083"><ele>322.0</ele><time>2026-04-19T11:03:24.604Z</time></trkpt><trkpt lat="42.1148533" lon="11.9793617"><ele>322.0</ele><time>2026-04-19T11:03:25.604Z</time></trkpt><trkpt lat="42.114935" lon="11.9793267"><ele>322.0</ele><time>2026-04-19T11:03:26.604Z</time></trkpt><trkpt lat="42.1150267" lon="11.9793233"><ele>322.0</ele><time>2026-04-19T11:03:27.604Z</time></trkpt><trkpt lat="42.1151167" lon="11.9793233"><ele>322.0</ele><time>2026-04-19T11:03:28.604Z</time></trkpt><trkpt lat="42.1151967" lon="11.9793517"><ele>322.0</ele><time>2026-04-19T11:03:29.604Z</time></trkpt><trkpt lat="42.115285" lon="11.9794"><ele>320.3333333333333</ele><time>2026-04-19T11:03:30.604Z</time></trkpt><trkpt lat="42.115375" lon="11.9794533"><ele>318.66666666666663</ele><time>2026-04-19T11:03:31.604Z</time></trkpt><trkpt lat="42.1154567" lon="11.9794817"><ele>317.0</ele><time>2026-04-19T11:03:32.604Z</time></trkpt><trkpt lat="42.115525" lon="11.9794867"><ele>315.3333333333333</ele><time>2026-04-19T11:03:33.604Z</time></trkpt><trkpt lat="42.1156067" lon="11.9794533"><ele>313.6666666666667</ele><time>2026-04-19T11:03:34.604Z</time></trkpt><trkpt lat="42.1156917" lon="11.9793883"><ele>312.0</ele><time>2026-04-19T11:03:35.604Z</time></trkpt><trkpt lat="42.115775" lon="11.9793117"><ele>311.75</ele><time>2026-04-19T11:03:36.604Z</time></trkpt><trkpt lat="42.1158683" lon="11.9792267"><ele>311.5</ele><time>2026-04-19T11:03:37.604Z</time></trkpt><trkpt lat="42.1159783" lon="11.9791317"><ele>311.25</ele><time>2026-04-19T11:03:38.605Z</time></trkpt><trkpt lat="42.1160767" lon="11.9790533"><ele>311.0</ele><time>2026-04-19T11:03:39.604Z</time></trkpt><trkpt lat="42.1161733" lon="11.978985"><ele>311.0</ele><time>2026-04-19T11:03:40.604Z</time></trkpt><trkpt lat="42.1162617" lon="11.978925"><ele>311.0</ele><time>2026-04-19T11:03:41.604Z</time></trkpt><trkpt lat="42.116355" lon="11.9788733"><ele>311.0</ele><time>2026-04-19T11:03:42.604Z</time></trkpt><trkpt lat="42.1164383" lon="11.9788233"><ele>311.0</ele><time>2026-04-19T11:03:43.604Z</time></trkpt><trkpt lat="42.11653" lon="11.97878"><ele>311.0</ele><time>2026-04-19T11:03:44.604Z</time></trkpt><trkpt lat="42.116635" lon="11.9787217"><ele>309.2</ele><time>2026-04-19T11:03:45.604Z</time></trkpt><trkpt lat="42.11674" lon="11.978665"><ele>307.40000000000003</ele><time>2026-04-19T11:03:46.604Z</time></trkpt><trkpt lat="42.1168367" lon="11.978615"><ele>305.6</ele><time>2026-04-19T11:03:47.604Z</time></trkpt><trkpt lat="42.1169283" lon="11.9785583"><ele>303.8</ele><time>2026-04-19T11:03:48.604Z</time></trkpt><trkpt lat="42.1170017" lon="11.9785067"><ele>302.0</ele><time>2026-04-19T11:03:49.604Z</time></trkpt><trkpt lat="42.1170883" lon="11.9784633"><ele>302.0</ele><time>2026-04-19T11:03:50.604Z</time></trkpt><trkpt lat="42.1171733" lon="11.9784133"><ele>302.0</ele><time>2026-04-19T11:03:51.605Z</time></trkpt><trkpt lat="42.11726" lon="11.9783667"><ele>302.0</ele><time>2026-04-19T11:03:52.604Z</time></trkpt><trkpt lat="42.1173433" lon="11.978325"><ele>302.0</ele><time>2026-04-19T11:03:53.604Z</time></trkpt><trkpt lat="42.117425" lon="11.9783017"><ele>302.0</ele><time>2026-04-19T11:03:54.604Z</time></trkpt><trkpt lat="42.1175217" lon="11.978285"><ele>301.8</ele><time>2026-04-19T11:03:55.604Z</time></trkpt><trkpt lat="42.1176167" lon="11.978285"><ele>301.6</ele><time>2026-04-19T11:03:56.604Z</time></trkpt><trkpt lat="42.1177117" lon="11.9782833"><ele>301.40000000000003</ele><time>2026-04-19T11:03:57.604Z</time></trkpt><trkpt lat="42.1178083" lon="11.9782817"><ele>301.2</ele><time>2026-04-19T11:03:58.604Z</time></trkpt><trkpt lat="42.1179" lon="11.9782767"><ele>301.0</ele><time>2026-04-19T11:03:59.604Z</time></trkpt><trkpt lat="42.1179917" lon="11.9782633"><ele>301.0</ele><time>2026-04-19T11:04:00.605Z</time></trkpt><trkpt lat="42.1180833" lon="11.9782167"><ele>301.0</ele><time>2026-04-19T11:04:01.604Z</time></trkpt><trkpt lat="42.1181683" lon="11.9781367"><ele>301.0</ele><time>2026-04-19T11:04:02.604Z</time></trkpt><trkpt lat="42.1182667" lon="11.978035"><ele>301.0</ele><time>2026-04-19T11:04:03.604Z</time></trkpt><trkpt lat="42.1183683" lon="11.97793"><ele>298.5</ele><time>2026-04-19T11:04:04.604Z</time></trkpt><trkpt lat="42.1184717" lon="11.97783"><ele>296.0</ele><time>2026-04-19T11:04:05.604Z</time></trkpt><trkpt lat="42.11857" lon="11.977735"><ele>293.5</ele><time>2026-04-19T11:04:06.604Z</time></trkpt><trkpt lat="42.1186567" lon="11.9776483"><ele>291.0</ele><time>2026-04-19T11:04:07.604Z</time></trkpt><trkpt lat="42.118735" lon="11.977565"><ele>291.3333333333333</ele><time>2026-04-19T11:04:08.605Z</time></trkpt><trkpt lat="42.1187967" lon="11.9774883"><ele>291.6666666666667</ele><time>2026-04-19T11:04:09.604Z</time></trkpt><trkpt lat="42.118845" lon="11.977395"><ele>292.0</ele><time>2026-04-19T11:04:10.604Z</time></trkpt><trkpt lat="42.1188733" lon="11.9772917"><ele>292.33333333333337</ele><time>2026-04-19T11:04:11.604Z</time></trkpt><trkpt lat="42.1188883" lon="11.97718"><ele>292.6666666666667</ele><time>2026-04-19T11:04:12.604Z</time></trkpt><trkpt lat="42.1188917" lon="11.9770667"><ele>293.0</ele><time>2026-04-19T11:04:13.604Z</time></trkpt><trkpt lat="42.1188883" lon="11.976945"><ele>293.0</ele><time>2026-04-19T11:04:14.604Z</time></trkpt><trkpt lat="42.1188933" lon="11.976835"><ele>293.0</ele><time>2026-04-19T11:04:15.605Z</time></trkpt><trkpt lat="42.11891" lon="11.9767317"><ele>293.0</ele><time>2026-04-19T11:04:16.604Z</time></trkpt><trkpt lat="42.1189383" lon="11.9766333"><ele>293.0</ele><time>2026-04-19T11:04:17.604Z</time></trkpt><trkpt lat="42.11898" lon="11.976535"><ele>293.0</ele><time>2026-04-19T11:04:18.605Z</time></trkpt><trkpt lat="42.11902" lon="11.9764533"><ele>293.0</ele><time>2026-04-19T11:04:19.604Z</time></trkpt><trkpt lat="42.1190667" lon="11.976365"><ele>291.2</ele><time>2026-04-19T11:04:20.604Z</time></trkpt><trkpt lat="42.1191317" lon="11.9762983"><ele>289.4</ele><time>2026-04-19T11:04:21.604Z</time></trkpt><trkpt lat="42.1192117" lon="11.9762467"><ele>287.59999999999997</ele><time>2026-04-19T11:04:22.604Z</time></trkpt><trkpt lat="42.1193067" lon="11.9762033"><ele>285.8</ele><time>2026-04-19T11:04:23.604Z</time></trkpt><trkpt lat="42.1193967" lon="11.9761733"><ele>284.0</ele><time>2026-04-19T11:04:24.604Z</time></trkpt><trkpt lat="42.1194833" lon="11.9761217"><ele>284.0</ele><time>2026-04-19T11:04:25.605Z</time></trkpt><trkpt lat="42.1195633" lon="11.9760767"><ele>284.0</ele><time>2026-04-19T11:04:26.605Z</time></trkpt><trkpt lat="42.1196383" lon="11.9760283"><ele>284.0</ele><time>2026-04-19T11:04:27.604Z</time></trkpt><trkpt lat="42.1197096" lon="11.97598"><ele>284.0</ele><time>2026-04-19T11:04:28.604Z</time></trkpt><trkpt lat="42.1197941" lon="11.9759303"><ele>284.0</ele><time>2026-04-19T11:04:29.604Z</time></trkpt><trkpt lat="42.1198849" lon="11.9758872"><ele>284.0</ele><time>2026-04-19T11:04:30.604Z</time></trkpt><trkpt lat="42.1199743" lon="11.9758608"><ele>283.2</ele><time>2026-04-19T11:04:31.604Z</time></trkpt><trkpt lat="42.1200713" lon="11.9758431"><ele>282.4</ele><time>2026-04-19T11:04:32.605Z</time></trkpt><trkpt lat="42.1201738" lon="11.9758325"><ele>281.6</ele><time>2026-04-19T11:04:33.604Z</time></trkpt><trkpt lat="42.1202832" lon="11.9758393"><ele>280.8</ele><time>2026-04-19T11:04:34.604Z</time></trkpt><trkpt lat="42.1203971" lon="11.9758421"><ele>280.0</ele><time>2026-04-19T11:04:35.604Z</time></trkpt><trkpt lat="42.1205121" lon="11.9758363"><ele>280.0</ele><time>2026-04-19T11:04:36.604Z</time></trkpt><trkpt lat="42.120627" lon="11.9758355"><ele>280.0</ele><time>2026-04-19T11:04:37.604Z</time></trkpt><trkpt lat="42.1207319" lon="11.9758494"><ele>280.0</ele><time>2026-04-19T11:04:38.604Z</time></trkpt><trkpt lat="42.1208329" lon="11.9758733"><ele>280.0</ele><time>2026-04-19T11:04:39.604Z</time></trkpt><trkpt lat="42.1209272" lon="11.9759077"><ele>280.0</ele><time>2026-04-19T11:04:40.604Z</time></trkpt><trkpt lat="42.1210136" lon="11.9759469"><ele>277.3333333333333</ele><time>2026-04-19T11:04:41.605Z</time></trkpt><trkpt lat="42.1211006" lon="11.975985"><ele>274.66666666666663</ele><time>2026-04-19T11:04:42.604Z</time></trkpt><trkpt lat="42.1211796" lon="11.9760185"><ele>272.0</ele><time>2026-04-19T11:04:43.604Z</time></trkpt><trkpt lat="42.1212532" lon="11.976047"><ele>269.3333333333333</ele><time>2026-04-19T11:04:44.604Z</time></trkpt><trkpt lat="42.121328" lon="11.9760727"><ele>266.6666666666667</ele><time>2026-04-19T11:04:45.605Z</time></trkpt><trkpt lat="42.1214035" lon="11.9760982"><ele>264.0</ele><time>2026-04-19T11:04:46.605Z</time></trkpt><trkpt lat="42.1214714" lon="11.9761133"><ele>264.0</ele><time>2026-04-19T11:04:47.604Z</time></trkpt><trkpt lat="42.1215359" lon="11.9761115"><ele>264.0</ele><time>2026-04-19T11:04:48.604Z</time></trkpt><trkpt lat="42.1216115" lon="11.9761135"><ele>264.0</ele><time>2026-04-19T11:04:49.604Z</time></trkpt><trkpt lat="42.1216852" lon="11.976106"><ele>264.0</ele><time>2026-04-19T11:04:50.604Z</time></trkpt><trkpt lat="42.1217577" lon="11.9760872"><ele>264.0</ele><time>2026-04-19T11:04:51.604Z</time></trkpt><trkpt lat="42.1218361" lon="11.9760572"><ele>264.0</ele><time>2026-04-19T11:04:52.604Z</time></trkpt><trkpt lat="42.1219186" lon="11.9760226"><ele>263.59999999999997</ele><time>2026-04-19T11:04:53.605Z</time></trkpt><trkpt lat="42.1220093" lon="11.9759894"><ele>263.2</ele><time>2026-04-19T11:04:54.604Z</time></trkpt><trkpt lat="42.1221022" lon="11.975963"><ele>262.79999999999995</ele><time>2026-04-19T11:04:55.605Z</time></trkpt><trkpt lat="42.1221933" lon="11.9759311"><ele>262.4</ele><time>2026-04-19T11:04:56.604Z</time></trkpt><trkpt lat="42.1222779" lon="11.9758952"><ele>262.0</ele><time>2026-04-19T11:04:57.604Z</time></trkpt><trkpt lat="42.122366" lon="11.9758536"><ele>261.6</ele><time>2026-04-19T11:04:58.604Z</time></trkpt><trkpt lat="42.1224492" lon="11.9758202"><ele>261.2</ele><time>2026-04-19T11:04:59.604Z</time></trkpt><trkpt lat="42.122535" lon="11.975786"><ele>260.8</ele><time>2026-04-19T11:05:00.605Z</time></trkpt><trkpt lat="42.1226236" lon="11.9757545"><ele>260.4</ele><time>2026-04-19T11:05:01.604Z</time></trkpt><trkpt lat="42.1227139" lon="11.9757234"><ele>260.0</ele><time>2026-04-19T11:05:02.604Z</time></trkpt><trkpt lat="42.1228053" lon="11.9756919"><ele>260.0</ele><time>2026-04-19T11:05:03.604Z</time></trkpt><trkpt lat="42.1228956" lon="11.9756612"><ele>260.0</ele><time>2026-04-19T11:05:04.604Z</time></trkpt><trkpt lat="42.1229914" lon="11.9756331"><ele>260.0</ele><time>2026-04-19T11:05:05.604Z</time></trkpt><trkpt lat="42.1230924" lon="11.975598"><ele>260.0</ele><time>2026-04-19T11:05:06.604Z</time></trkpt><trkpt lat="42.1231909" lon="11.9755671"><ele>260.0</ele><time>2026-04-19T11:05:07.604Z</time></trkpt><trkpt lat="42.1232859" lon="11.9755303"><ele>258.4</ele><time>2026-04-19T11:05:08.604Z</time></trkpt><trkpt lat="42.1233843" lon="11.9754992"><ele>256.8</ele><time>2026-04-19T11:05:09.604Z</time></trkpt><trkpt lat="42.1234905" lon="11.9754646"><ele>255.2</ele><time>2026-04-19T11:05:10.604Z</time></trkpt><trkpt lat="42.1236041" lon="11.9754322"><ele>253.6</ele><time>2026-04-19T11:05:11.604Z</time></trkpt><trkpt lat="42.1237245" lon="11.9754079"><ele>252.0</ele><time>2026-04-19T11:05:12.604Z</time></trkpt><trkpt lat="42.1238416" lon="11.9754003"><ele>252.0</ele><time>2026-04-19T11:05:13.603Z</time></trkpt><trkpt lat="42.1239551" lon="11.9753854"><ele>252.0</ele><time>2026-04-19T11:05:14.604Z</time></trkpt><trkpt lat="42.1240507" lon="11.9753814"><ele>252.0</ele><time>2026-04-19T11:05:15.603Z</time></trkpt><trkpt lat="42.1241404" lon="11.975378"><ele>252.0</ele><time>2026-04-19T11:05:16.603Z</time></trkpt><trkpt lat="42.1242272" lon="11.9753639"><ele>252.0</ele><time>2026-04-19T11:05:17.603Z</time></trkpt><trkpt lat="42.1243081" lon="11.9753589"><ele>251.66666666666666</ele><time>2026-04-19T11:05:18.603Z</time></trkpt><trkpt lat="42.1243845" lon="11.9753551"><ele>251.33333333333331</ele><time>2026-04-19T11:05:19.603Z</time></trkpt><trkpt lat="42.1244539" lon="11.9753244"><ele>251.0</ele><time>2026-04-19T11:05:20.603Z</time></trkpt><trkpt lat="42.1245283" lon="11.9752583"><ele>250.66666666666666</ele><time>2026-04-19T11:05:21.603Z</time></trkpt><trkpt lat="42.1246017" lon="11.9751733"><ele>250.33333333333331</ele><time>2026-04-19T11:05:22.603Z</time></trkpt><trkpt lat="42.12467" lon="11.97509"><ele>250.0</ele><time>2026-04-19T11:05:23.603Z</time></trkpt><trkpt lat="42.1247283" lon="11.9750067"><ele>249.99999999999997</ele><time>2026-04-19T11:05:24.603Z</time></trkpt><trkpt lat="42.1247833" lon="11.9749267"><ele>250.0</ele><time>2026-04-19T11:05:25.603Z</time></trkpt><trkpt lat="42.1248383" lon="11.9748533"><ele>250.0</ele><time>2026-04-19T11:05:26.603Z</time></trkpt><trkpt lat="42.1248967" lon="11.97479"><ele>250.0</ele><time>2026-04-19T11:05:27.603Z</time></trkpt><trkpt lat="42.1249583" lon="11.974745"><ele>249.99999999999997</ele><time>2026-04-19T11:05:28.603Z</time></trkpt><trkpt lat="42.1250317" lon="11.9747067"><ele>250.0</ele><time>2026-04-19T11:05:29.603Z</time></trkpt><trkpt lat="42.1251167" lon="11.9746867"><ele>248.49999999999997</ele><time>2026-04-19T11:05:30.603Z</time></trkpt><trkpt lat="42.1251983" lon="11.9746783"><ele>247.0</ele><time>2026-04-19T11:05:31.604Z</time></trkpt><trkpt lat="42.1252783" lon="11.9746633"><ele>245.5</ele><time>2026-04-19T11:05:32.603Z</time></trkpt><trkpt lat="42.12536" lon="11.9746417"><ele>244.0</ele><time>2026-04-19T11:05:33.603Z</time></trkpt><trkpt lat="42.1254533" lon="11.9746183"><ele>242.49999999999997</ele><time>2026-04-19T11:05:34.604Z</time></trkpt><trkpt lat="42.125535" lon="11.974575"><ele>241.0</ele><time>2026-04-19T11:05:35.603Z</time></trkpt><trkpt lat="42.12562" lon="11.9745617"><ele>240.99999999999997</ele><time>2026-04-19T11:05:36.603Z</time></trkpt><trkpt lat="42.1257" lon="11.9745433"><ele>241.0</ele><time>2026-04-19T11:05:37.603Z</time></trkpt><trkpt lat="42.1257867" lon="11.9745233"><ele>241.0</ele><time>2026-04-19T11:05:38.603Z</time></trkpt><trkpt lat="42.1258617" lon="11.9745033"><ele>241.0</ele><time>2026-04-19T11:05:39.603Z</time></trkpt><trkpt lat="42.1259533" lon="11.974495"><ele>240.99999999999997</ele><time>2026-04-19T11:05:40.604Z</time></trkpt><trkpt lat="42.1260467" lon="11.9745217"><ele>241.0</ele><time>2026-04-19T11:05:41.604Z</time></trkpt><trkpt lat="42.12613" lon="11.9745667"><ele>239.4</ele><time>2026-04-19T11:05:42.603Z</time></trkpt><trkpt lat="42.1262133" lon="11.97461"><ele>237.8</ele><time>2026-04-19T11:05:43.603Z</time></trkpt><trkpt lat="42.1262983" lon="11.97466"><ele>236.20000000000002</ele><time>2026-04-19T11:05:44.603Z</time></trkpt><trkpt lat="42.1263883" lon="11.97471"><ele>234.60000000000002</ele><time>2026-04-19T11:05:45.603Z</time></trkpt><trkpt lat="42.1264783" lon="11.9747533"><ele>233.0</ele><time>2026-04-19T11:05:46.603Z</time></trkpt><trkpt lat="42.1265717" lon="11.9747967"><ele>231.50000000000003</ele><time>2026-04-19T11:05:47.604Z</time></trkpt><trkpt lat="42.1266633" lon="11.974835"><ele>230.0</ele><time>2026-04-19T11:05:48.603Z</time></trkpt><trkpt lat="42.1267483" lon="11.97487"><ele>228.5</ele><time>2026-04-19T11:05:49.603Z</time></trkpt><trkpt lat="42.12683" lon="11.9749117"><ele>227.0</ele><time>2026-04-19T11:05:50.603Z</time></trkpt><trkpt lat="42.1269167" lon="11.9749517"><ele>225.50000000000003</ele><time>2026-04-19T11:05:51.604Z</time></trkpt><trkpt lat="42.1269967" lon="11.9749933"><ele>224.0</ele><time>2026-04-19T11:05:52.603Z</time></trkpt><trkpt lat="42.127085" lon="11.9750433"><ele>222.83333333333334</ele><time>2026-04-19T11:05:53.604Z</time></trkpt><trkpt lat="42.1271717" lon="11.9750917"><ele>221.66666666666669</ele><time>2026-04-19T11:05:54.603Z</time></trkpt><trkpt lat="42.1272517" lon="11.9751317"><ele>220.5</ele><time>2026-04-19T11:05:55.603Z</time></trkpt><trkpt lat="42.1273267" lon="11.97516"><ele>219.33333333333331</ele><time>2026-04-19T11:05:56.603Z</time></trkpt><trkpt lat="42.1274017" lon="11.9751883"><ele>218.16666666666666</ele><time>2026-04-19T11:05:57.603Z</time></trkpt><trkpt lat="42.1274717" lon="11.97522"><ele>217.0</ele><time>2026-04-19T11:05:58.603Z</time></trkpt><trkpt lat="42.1275783" lon="11.9752667"><ele>216.39999999999998</ele><time>2026-04-19T11:06:00.604Z</time></trkpt><trkpt lat="42.1276483" lon="11.97525"><ele>215.79999999999998</ele><time>2026-04-19T11:06:02.603Z</time></trkpt><trkpt lat="42.1276733" lon="11.9751533"><ele>215.2</ele><time>2026-04-19T11:06:04.603Z</time></trkpt><trkpt lat="42.1276533" lon="11.9750117"><ele>214.6</ele><time>2026-04-19T11:06:06.603Z</time></trkpt><trkpt lat="42.12762" lon="11.9748633"><ele>214.0</ele><time>2026-04-19T11:06:08.603Z</time></trkpt><trkpt lat="42.1275867" lon="11.9747317"><ele>213.99999999999997</ele><time>2026-04-19T11:06:10.603Z</time></trkpt><trkpt lat="42.127595" lon="11.97462"><ele>214.0</ele><time>2026-04-19T11:06:12.603Z</time></trkpt><trkpt lat="42.1276567" lon="11.9745167"><ele>214.0</ele><time>2026-04-19T11:06:14.603Z</time></trkpt><trkpt lat="42.1277183" lon="11.9744833"><ele>214.0</ele><time>2026-04-19T11:06:15.603Z</time></trkpt><trkpt lat="42.1277867" lon="11.9744583"><ele>213.99999999999997</ele><time>2026-04-19T11:06:16.604Z</time></trkpt><trkpt lat="42.1278683" lon="11.97443"><ele>214.0</ele><time>2026-04-19T11:06:17.604Z</time></trkpt><trkpt lat="42.1279533" lon="11.9744"><ele>214.0</ele><time>2026-04-19T11:06:18.604Z</time></trkpt><trkpt lat="42.128035" lon="11.974355"><ele>213.99999999999997</ele><time>2026-04-19T11:06:19.603Z</time></trkpt><trkpt lat="42.128125" lon="11.9743033"><ele>213.99999999999997</ele><time>2026-04-19T11:06:20.604Z</time></trkpt><trkpt lat="42.1282117" lon="11.97424"><ele>214.0</ele><time>2026-04-19T11:06:21.603Z</time></trkpt><trkpt lat="42.12828" lon="11.9741683"><ele>214.0</ele><time>2026-04-19T11:06:22.603Z</time></trkpt><trkpt lat="42.128355" lon="11.97409"><ele>211.39999999999998</ele><time>2026-04-19T11:06:23.603Z</time></trkpt><trkpt lat="42.1284317" lon="11.9740133"><ele>208.79999999999998</ele><time>2026-04-19T11:06:24.604Z</time></trkpt><trkpt lat="42.1285033" lon="11.9739383"><ele>206.2</ele><time>2026-04-19T11:06:25.604Z</time></trkpt><trkpt lat="42.1285767" lon="11.9738633"><ele>203.60000000000002</ele><time>2026-04-19T11:06:26.603Z</time></trkpt><trkpt lat="42.128655" lon="11.97379"><ele>201.0</ele><time>2026-04-19T11:06:27.604Z</time></trkpt><trkpt lat="42.128725" lon="11.9737217"><ele>201.0</ele><time>2026-04-19T11:06:28.603Z</time></trkpt><trkpt lat="42.1288083" lon="11.9736617"><ele>201.0</ele><time>2026-04-19T11:06:29.603Z</time></trkpt><trkpt lat="42.1288767" lon="11.973605"><ele>201.0</ele><time>2026-04-19T11:06:30.604Z</time></trkpt><trkpt lat="42.12896" lon="11.9735417"><ele>201.0</ele><time>2026-04-19T11:06:31.603Z</time></trkpt><trkpt lat="42.1290433" lon="11.9734633"><ele>201.0</ele><time>2026-04-19T11:06:32.604Z</time></trkpt><trkpt lat="42.1291233" lon="11.9733833"><ele>198.4</ele><time>2026-04-19T11:06:33.603Z</time></trkpt><trkpt lat="42.129205" lon="11.9733083"><ele>195.8</ele><time>2026-04-19T11:06:34.604Z</time></trkpt><trkpt lat="42.1292833" lon="11.9732283"><ele>193.20000000000002</ele><time>2026-04-19T11:06:35.603Z</time></trkpt><trkpt lat="42.1293617" lon="11.9731417"><ele>190.60000000000002</ele><time>2026-04-19T11:06:36.603Z</time></trkpt><trkpt lat="42.1294417" lon="11.9730617"><ele>188.0</ele><time>2026-04-19T11:06:37.603Z</time></trkpt><trkpt lat="42.129525" lon="11.972985"><ele>188.0</ele><time>2026-04-19T11:06:38.604Z</time></trkpt><trkpt lat="42.1296067" lon="11.972915"><ele>188.0</ele><time>2026-04-19T11:06:39.603Z</time></trkpt><trkpt lat="42.12968" lon="11.9728467"><ele>188.0</ele><time>2026-04-19T11:06:40.603Z</time></trkpt><trkpt lat="42.129755" lon="11.9727717"><ele>188.0</ele><time>2026-04-19T11:06:41.603Z</time></trkpt><trkpt lat="42.1298233" lon="11.97269"><ele>188.0</ele><time>2026-04-19T11:06:42.603Z</time></trkpt><trkpt lat="42.129885" lon="11.9726083"><ele>185.8</ele><time>2026-04-19T11:06:43.603Z</time></trkpt><trkpt lat="42.129935" lon="11.97253"><ele>183.60000000000002</ele><time>2026-04-19T11:06:44.603Z</time></trkpt><trkpt lat="42.1299817" lon="11.97246"><ele>181.39999999999998</ele><time>2026-04-19T11:06:45.603Z</time></trkpt><trkpt lat="42.13003" lon="11.972395"><ele>179.2</ele><time>2026-04-19T11:06:46.603Z</time></trkpt><trkpt lat="42.1301333" lon="11.9723533"><ele>177.0</ele><time>2026-04-19T11:06:48.603Z</time></trkpt><trkpt lat="42.1302283" lon="11.9724767"><ele>177.0</ele><time>2026-04-19T11:06:50.603Z</time></trkpt><trkpt lat="42.1302617" lon="11.9725567"><ele>177.0</ele><time>2026-04-19T11:06:51.603Z</time></trkpt><trkpt lat="42.1302933" lon="11.9726417"><ele>177.0</ele><time>2026-04-19T11:06:52.603Z</time></trkpt><trkpt lat="42.13033" lon="11.9727833"><ele>177.0</ele><time>2026-04-19T11:06:54.603Z</time></trkpt><trkpt lat="42.1303983" lon="11.972915"><ele>177.0</ele><time>2026-04-19T11:06:56.603Z</time></trkpt><trkpt lat="42.1305033" lon="11.9730117"><ele>177.0</ele><time>2026-04-19T11:06:58.603Z</time></trkpt><trkpt lat="42.13057" lon="11.973045"><ele>177.0</ele><time>2026-04-19T11:06:59.603Z</time></trkpt><trkpt lat="42.1306367" lon="11.9730683"><ele>177.0</ele><time>2026-04-19T11:07:00.604Z</time></trkpt><trkpt lat="42.1307067" lon="11.9730867"><ele>177.0</ele><time>2026-04-19T11:07:01.604Z</time></trkpt><trkpt lat="42.1307817" lon="11.9730917"><ele>177.0</ele><time>2026-04-19T11:07:02.603Z</time></trkpt><trkpt lat="42.1308617" lon="11.9731067"><ele>177.0</ele><time>2026-04-19T11:07:03.604Z</time></trkpt><trkpt lat="42.1309367" lon="11.9731267"><ele>177.0</ele><time>2026-04-19T11:07:04.604Z</time></trkpt><trkpt lat="42.13101" lon="11.9731467"><ele>175.0</ele><time>2026-04-19T11:07:05.603Z</time></trkpt><trkpt lat="42.13109" lon="11.9731717"><ele>173.0</ele><time>2026-04-19T11:07:06.603Z</time></trkpt><trkpt lat="42.13117" lon="11.973195"><ele>171.0</ele><time>2026-04-19T11:07:07.604Z</time></trkpt><trkpt lat="42.1312667" lon="11.973225"><ele>169.0</ele><time>2026-04-19T11:07:08.604Z</time></trkpt><trkpt lat="42.1313767" lon="11.9732483"><ele>167.0</ele><time>2026-04-19T11:07:09.604Z</time></trkpt><trkpt lat="42.13148" lon="11.9732783"><ele>165.4</ele><time>2026-04-19T11:07:10.603Z</time></trkpt><trkpt lat="42.1315833" lon="11.97331"><ele>163.79999999999998</ele><time>2026-04-19T11:07:11.603Z</time></trkpt><trkpt lat="42.1316933" lon="11.97336"><ele>162.2</ele><time>2026-04-19T11:07:12.603Z</time></trkpt><trkpt lat="42.1318017" lon="11.9733967"><ele>160.6</ele><time>2026-04-19T11:07:13.603Z</time></trkpt><trkpt lat="42.1319017" lon="11.97343"><ele>159.0</ele><time>2026-04-19T11:07:14.604Z</time></trkpt><trkpt lat="42.1319917" lon="11.97346"><ele>159.0</ele><time>2026-04-19T11:07:15.603Z</time></trkpt><trkpt lat="42.1320733" lon="11.9734783"><ele>159.0</ele><time>2026-04-19T11:07:16.603Z</time></trkpt><trkpt lat="42.1321467" lon="11.9734933"><ele>159.0</ele><time>2026-04-19T11:07:17.603Z</time></trkpt><trkpt lat="42.1322317" lon="11.9735017"><ele>159.0</ele><time>2026-04-19T11:07:19.603Z</time></trkpt><trkpt lat="42.1322917" lon="11.973435"><ele>159.0</ele><time>2026-04-19T11:07:23.603Z</time></trkpt><trkpt lat="42.1323367" lon="11.9733683"><ele>159.0</ele><time>2026-04-19T11:07:29.604Z</time></trkpt><trkpt lat="42.13239" lon="11.973265"><ele>157.6</ele><time>2026-04-19T11:07:33.603Z</time></trkpt><trkpt lat="42.13244" lon="11.9731783"><ele>156.2</ele><time>2026-04-19T11:07:35.603Z</time></trkpt><trkpt lat="42.1325283" lon="11.9730383"><ele>154.79999999999998</ele><time>2026-04-19T11:07:37.603Z</time></trkpt><trkpt lat="42.1325933" lon="11.97294"><ele>153.4</ele><time>2026-04-19T11:07:38.603Z</time></trkpt><trkpt lat="42.1326733" lon="11.9728317"><ele>152.0</ele><time>2026-04-19T11:07:39.603Z</time></trkpt><trkpt lat="42.13276" lon="11.9727183"><ele>152.0</ele><time>2026-04-19T11:07:40.603Z</time></trkpt><trkpt lat="42.1328367" lon="11.9726067"><ele>152.0</ele><time>2026-04-19T11:07:41.603Z</time></trkpt><trkpt lat="42.132915" lon="11.9724983"><ele>152.0</ele><time>2026-04-19T11:07:42.603Z</time></trkpt><trkpt lat="42.1329967" lon="11.9724"><ele>152.0</ele><time>2026-04-19T11:07:43.604Z</time></trkpt><trkpt lat="42.1330667" lon="11.9722933"><ele>152.0</ele><time>2026-04-19T11:07:44.603Z</time></trkpt><trkpt lat="42.1331333" lon="11.9721917"><ele>152.0</ele><time>2026-04-19T11:07:45.603Z</time></trkpt><trkpt lat="42.133195" lon="11.9721"><ele>152.0</ele><time>2026-04-19T11:07:46.603Z</time></trkpt><trkpt lat="42.1332533" lon="11.9720183"><ele>152.0</ele><time>2026-04-19T11:07:47.603Z</time></trkpt><trkpt lat="42.1333033" lon="11.9719433"><ele>152.0</ele><time>2026-04-19T11:07:48.603Z</time></trkpt><trkpt lat="42.133365" lon="11.9718133"><ele>152.0</ele><time>2026-04-19T11:07:50.603Z</time></trkpt><trkpt lat="42.13334" lon="11.9716567"><ele>151.33333333333331</ele><time>2026-04-19T11:07:52.603Z</time></trkpt><trkpt lat="42.1333267" lon="11.971555"><ele>150.66666666666666</ele><time>2026-04-19T11:07:53.603Z</time></trkpt><trkpt lat="42.1333167" lon="11.9714633"><ele>150.0</ele><time>2026-04-19T11:07:54.603Z</time></trkpt><trkpt lat="42.133345" lon="11.9713283"><ele>149.33333333333334</ele><time>2026-04-19T11:07:56.603Z</time></trkpt><trkpt lat="42.1334067" lon="11.9712333"><ele>148.66666666666669</ele><time>2026-04-19T11:07:58.603Z</time></trkpt><trkpt lat="42.133465" lon="11.9711133"><ele>148.0</ele><time>2026-04-19T11:08:00.603Z</time></trkpt><trkpt lat="42.13349" lon="11.9709783"><ele>148.4</ele><time>2026-04-19T11:08:02.604Z</time></trkpt><trkpt lat="42.13354" lon="11.9708533"><ele>148.8</ele><time>2026-04-19T11:08:04.603Z</time></trkpt><trkpt lat="42.1335917" lon="11.9707867"><ele>149.2</ele><time>2026-04-19T11:08:05.603Z</time></trkpt><trkpt lat="42.1336717" lon="11.9707"><ele>149.6</ele><time>2026-04-19T11:08:06.603Z</time></trkpt><trkpt lat="42.1337617" lon="11.97059"><ele>150.0</ele><time>2026-04-19T11:08:07.603Z</time></trkpt><trkpt lat="42.1338717" lon="11.9704583"><ele>150.0</ele><time>2026-04-19T11:08:08.603Z</time></trkpt><trkpt lat="42.13397" lon="11.9703367"><ele>150.0</ele><time>2026-04-19T11:08:09.603Z</time></trkpt><trkpt lat="42.1340683" lon="11.9702333"><ele>150.0</ele><time>2026-04-19T11:08:10.603Z</time></trkpt><trkpt lat="42.1341417" lon="11.9701367"><ele>150.0</ele><time>2026-04-19T11:08:11.604Z</time></trkpt><trkpt lat="42.1342017" lon="11.970025"><ele>151.8</ele><time>2026-04-19T11:08:12.603Z</time></trkpt><trkpt lat="42.134245" lon="11.9698983"><ele>153.6</ele><time>2026-04-19T11:08:13.603Z</time></trkpt><trkpt lat="42.1342867" lon="11.9697633"><ele>155.4</ele><time>2026-04-19T11:08:14.603Z</time></trkpt><trkpt lat="42.1343233" lon="11.9696267"><ele>157.2</ele><time>2026-04-19T11:08:15.603Z</time></trkpt><trkpt lat="42.1343633" lon="11.969495"><ele>159.0</ele><time>2026-04-19T11:08:16.603Z</time></trkpt><trkpt lat="42.1344067" lon="11.969365"><ele>159.0</ele><time>2026-04-19T11:08:17.603Z</time></trkpt><trkpt lat="42.13445" lon="11.969255"><ele>159.0</ele><time>2026-04-19T11:08:18.603Z</time></trkpt><trkpt lat="42.1344967" lon="11.969145"><ele>159.0</ele><time>2026-04-19T11:08:19.603Z</time></trkpt><trkpt lat="42.13455" lon="11.969065"><ele>159.0</ele><time>2026-04-19T11:08:20.604Z</time></trkpt><trkpt lat="42.13461" lon="11.9690183"><ele>159.0</ele><time>2026-04-19T11:08:21.602Z</time></trkpt><trkpt lat="42.1346833" lon="11.9689933"><ele>159.0</ele><time>2026-04-19T11:08:22.603Z</time></trkpt><trkpt lat="42.1347733" lon="11.9689833"><ele>160.0</ele><time>2026-04-19T11:08:23.603Z</time></trkpt><trkpt lat="42.1348683" lon="11.9689967"><ele>161.0</ele><time>2026-04-19T11:08:24.603Z</time></trkpt><trkpt lat="42.1349583" lon="11.96903"><ele>162.0</ele><time>2026-04-19T11:08:25.602Z</time></trkpt><trkpt lat="42.13504" lon="11.969075"><ele>163.0</ele><time>2026-04-19T11:08:26.602Z</time></trkpt><trkpt lat="42.1351217" lon="11.9691567"><ele>164.0</ele><time>2026-04-19T11:08:27.602Z</time></trkpt><trkpt lat="42.1352167" lon="11.969245"><ele>165.6</ele><time>2026-04-19T11:08:28.602Z</time></trkpt><trkpt lat="42.1353083" lon="11.9693367"><ele>167.2</ele><time>2026-04-19T11:08:29.602Z</time></trkpt><trkpt lat="42.13537" lon="11.9694017"><ele>168.79999999999998</ele><time>2026-04-19T11:08:30.602Z</time></trkpt><trkpt lat="42.1354733" lon="11.969425"><ele>170.39999999999998</ele><time>2026-04-19T11:08:32.602Z</time></trkpt><trkpt lat="42.1355217" lon="11.96932"><ele>172.0</ele><time>2026-04-19T11:08:34.602Z</time></trkpt><trkpt lat="42.1355367" lon="11.9692367"><ele>173.2</ele><time>2026-04-19T11:08:35.602Z</time></trkpt><trkpt lat="42.1355533" lon="11.96913"><ele>174.39999999999998</ele><time>2026-04-19T11:08:36.602Z</time></trkpt><trkpt lat="42.1355733" lon="11.96902"><ele>175.60000000000002</ele><time>2026-04-19T11:08:37.603Z</time></trkpt><trkpt lat="42.1355967" lon="11.968895"><ele>176.8</ele><time>2026-04-19T11:08:38.602Z</time></trkpt><trkpt lat="42.1356267" lon="11.96875"><ele>178.0</ele><time>2026-04-19T11:08:39.602Z</time></trkpt><trkpt lat="42.1356583" lon="11.96859"><ele>178.0</ele><time>2026-04-19T11:08:40.603Z</time></trkpt><trkpt lat="42.1356883" lon="11.9684333"><ele>178.0</ele><time>2026-04-19T11:08:41.602Z</time></trkpt><trkpt lat="42.1357" lon="11.968275"><ele>178.0</ele><time>2026-04-19T11:08:42.602Z</time></trkpt><trkpt lat="42.135705" lon="11.9681133"><ele>178.0</ele><time>2026-04-19T11:08:43.602Z</time></trkpt><trkpt lat="42.1357" lon="11.9679617"><ele>179.33333333333334</ele><time>2026-04-19T11:08:44.602Z</time></trkpt><trkpt lat="42.1356983" lon="11.9678267"><ele>180.66666666666669</ele><time>2026-04-19T11:08:45.602Z</time></trkpt><trkpt lat="42.1357133" lon="11.9677183"><ele>182.0</ele><time>2026-04-19T11:08:46.602Z</time></trkpt><trkpt lat="42.1357383" lon="11.9676367"><ele>183.33333333333334</ele><time>2026-04-19T11:08:47.602Z</time></trkpt><trkpt lat="42.13578" lon="11.9675717"><ele>184.66666666666666</ele><time>2026-04-19T11:08:48.602Z</time></trkpt><trkpt lat="42.135875" lon="11.9674933"><ele>186.0</ele><time>2026-04-19T11:08:50.602Z</time></trkpt><trkpt lat="42.1359933" lon="11.9674483"><ele>190.20000000000002</ele><time>2026-04-19T11:08:52.602Z</time></trkpt><trkpt lat="42.1360983" lon="11.96738"><ele>194.4</ele><time>2026-04-19T11:08:54.602Z</time></trkpt><trkpt lat="42.1362117" lon="11.9673217"><ele>198.6</ele><time>2026-04-19T11:08:56.602Z</time></trkpt><trkpt lat="42.1363233" lon="11.967275"><ele>202.8</ele><time>2026-04-19T11:08:58.603Z</time></trkpt><trkpt lat="42.1363883" lon="11.9672433"><ele>207.0</ele><time>2026-04-19T11:08:59.602Z</time></trkpt><trkpt lat="42.1364567" lon="11.9672133"><ele>207.00000000000003</ele><time>2026-04-19T11:09:00.602Z</time></trkpt><trkpt lat="42.1365217" lon="11.9671867"><ele>207.0</ele><time>2026-04-19T11:09:01.602Z</time></trkpt><trkpt lat="42.1365917" lon="11.9671667"><ele>207.0</ele><time>2026-04-19T11:09:02.602Z</time></trkpt><trkpt lat="42.1366583" lon="11.9671433"><ele>207.0</ele><time>2026-04-19T11:09:03.602Z</time></trkpt><trkpt lat="42.13672" lon="11.9671233"><ele>207.0</ele><time>2026-04-19T11:09:04.602Z</time></trkpt><trkpt lat="42.1367917" lon="11.967095"><ele>207.00000000000003</ele><time>2026-04-19T11:09:05.602Z</time></trkpt><trkpt lat="42.13687" lon="11.9670817"><ele>207.0</ele><time>2026-04-19T11:09:06.602Z</time></trkpt><trkpt lat="42.1369583" lon="11.96707"><ele>209.5</ele><time>2026-04-19T11:09:07.602Z</time></trkpt><trkpt lat="42.1370567" lon="11.9670483"><ele>212.0</ele><time>2026-04-19T11:09:08.602Z</time></trkpt><trkpt lat="42.1371683" lon="11.9670333"><ele>214.5</ele><time>2026-04-19T11:09:09.602Z</time></trkpt><trkpt lat="42.1372883" lon="11.9670033"><ele>217.0</ele><time>2026-04-19T11:09:10.602Z</time></trkpt><trkpt lat="42.13741" lon="11.9669683"><ele>218.75</ele><time>2026-04-19T11:09:11.603Z</time></trkpt><trkpt lat="42.1375267" lon="11.9669317"><ele>220.5</ele><time>2026-04-19T11:09:12.602Z</time></trkpt><trkpt lat="42.1376433" lon="11.9668833"><ele>222.25</ele><time>2026-04-19T11:09:13.602Z</time></trkpt><trkpt lat="42.13775" lon="11.9668383"><ele>224.0</ele><time>2026-04-19T11:09:14.602Z</time></trkpt><trkpt lat="42.1378617" lon="11.9667967"><ele>224.0</ele><time>2026-04-19T11:09:15.603Z</time></trkpt><trkpt lat="42.13798" lon="11.9667633"><ele>223.99999999999997</ele><time>2026-04-19T11:09:16.602Z</time></trkpt><trkpt lat="42.13809" lon="11.966745"><ele>223.99999999999997</ele><time>2026-04-19T11:09:17.602Z</time></trkpt><trkpt lat="42.1381967" lon="11.966735"><ele>224.0</ele><time>2026-04-19T11:09:18.602Z</time></trkpt><trkpt lat="42.1383" lon="11.9667217"><ele>224.0</ele><time>2026-04-19T11:09:19.603Z</time></trkpt><trkpt lat="42.1384067" lon="11.9666933"><ele>221.2</ele><time>2026-04-19T11:09:20.602Z</time></trkpt><trkpt lat="42.1384917" lon="11.9666433"><ele>218.39999999999998</ele><time>2026-04-19T11:09:21.603Z</time></trkpt><trkpt lat="42.138565" lon="11.966565"><ele>215.6</ele><time>2026-04-19T11:09:22.602Z</time></trkpt><trkpt lat="42.1386283" lon="11.9664533"><ele>212.8</ele><time>2026-04-19T11:09:23.602Z</time></trkpt><trkpt lat="42.1386967" lon="11.966345"><ele>210.0</ele><time>2026-04-19T11:09:24.602Z</time></trkpt><trkpt lat="42.13877" lon="11.9662283"><ele>210.0</ele><time>2026-04-19T11:09:25.603Z</time></trkpt><trkpt lat="42.1388367" lon="11.966125"><ele>210.0</ele><time>2026-04-19T11:09:26.602Z</time></trkpt><trkpt lat="42.1389" lon="11.966005"><ele>210.0</ele><time>2026-04-19T11:09:27.602Z</time></trkpt><trkpt lat="42.138955" lon="11.9658733"><ele>210.0</ele><time>2026-04-19T11:09:28.603Z</time></trkpt><trkpt lat="42.1390017" lon="11.9657417"><ele>210.0</ele><time>2026-04-19T11:09:29.602Z</time></trkpt><trkpt lat="42.13904" lon="11.96563"><ele>211.16666666666666</ele><time>2026-04-19T11:09:30.602Z</time></trkpt><trkpt lat="42.1390783" lon="11.96553"><ele>212.33333333333331</ele><time>2026-04-19T11:09:31.602Z</time></trkpt><trkpt lat="42.1391267" lon="11.9654517"><ele>213.5</ele><time>2026-04-19T11:09:32.603Z</time></trkpt><trkpt lat="42.139195" lon="11.9653983"><ele>214.66666666666666</ele><time>2026-04-19T11:09:33.603Z</time></trkpt><trkpt lat="42.1392767" lon="11.9653483"><ele>215.83333333333331</ele><time>2026-04-19T11:09:34.602Z</time></trkpt><trkpt lat="42.139375" lon="11.9653133"><ele>217.0</ele><time>2026-04-19T11:09:35.603Z</time></trkpt><trkpt lat="42.1394717" lon="11.9652717"><ele>217.0</ele><time>2026-04-19T11:09:36.602Z</time></trkpt><trkpt lat="42.13956" lon="11.9652217"><ele>217.0</ele><time>2026-04-19T11:09:37.602Z</time></trkpt><trkpt lat="42.1396333" lon="11.9651633"><ele>217.0</ele><time>2026-04-19T11:09:38.603Z</time></trkpt><trkpt lat="42.139715" lon="11.9651183"><ele>217.0</ele><time>2026-04-19T11:09:39.602Z</time></trkpt><trkpt lat="42.1398033" lon="11.9650717"><ele>217.0</ele><time>2026-04-19T11:09:40.602Z</time></trkpt><trkpt lat="42.1399" lon="11.9650167"><ele>216.39999999999998</ele><time>2026-04-19T11:09:41.603Z</time></trkpt><trkpt lat="42.1399933" lon="11.9649367"><ele>215.79999999999998</ele><time>2026-04-19T11:09:42.603Z</time></trkpt><trkpt lat="42.1400733" lon="11.964835"><ele>215.2</ele><time>2026-04-19T11:09:43.603Z</time></trkpt><trkpt lat="42.1401567" lon="11.964735"><ele>214.6</ele><time>2026-04-19T11:09:44.602Z</time></trkpt><trkpt lat="42.1402417" lon="11.9646533"><ele>214.0</ele><time>2026-04-19T11:09:45.603Z</time></trkpt><trkpt lat="42.140345" lon="11.9645767"><ele>214.0</ele><time>2026-04-19T11:09:46.603Z</time></trkpt><trkpt lat="42.1404617" lon="11.9645033"><ele>214.0</ele><time>2026-04-19T11:09:47.602Z</time></trkpt><trkpt lat="42.140575" lon="11.964415"><ele>214.0</ele><time>2026-04-19T11:09:48.602Z</time></trkpt><trkpt lat="42.1406733" lon="11.9643217"><ele>214.0</ele><time>2026-04-19T11:09:49.602Z</time></trkpt><trkpt lat="42.140775" lon="11.9642467"><ele>212.5</ele><time>2026-04-19T11:09:50.602Z</time></trkpt><trkpt lat="42.1408767" lon="11.964185"><ele>211.0</ele><time>2026-04-19T11:09:51.603Z</time></trkpt><trkpt lat="42.1409867" lon="11.9641383"><ele>209.5</ele><time>2026-04-19T11:09:52.602Z</time></trkpt><trkpt lat="42.141095" lon="11.9640933"><ele>208.0</ele><time>2026-04-19T11:09:53.603Z</time></trkpt><trkpt lat="42.1412" lon="11.9640433"><ele>208.0</ele><time>2026-04-19T11:09:54.602Z</time></trkpt><trkpt lat="42.1413033" lon="11.96396"><ele>208.0</ele><time>2026-04-19T11:09:55.602Z</time></trkpt><trkpt lat="42.1413883" lon="11.9638583"><ele>208.0</ele><time>2026-04-19T11:09:56.603Z</time></trkpt><trkpt lat="42.1414817" lon="11.9637567"><ele>208.0</ele><time>2026-04-19T11:09:57.602Z</time></trkpt><trkpt lat="42.141565" lon="11.9636783"><ele>208.33333333333331</ele><time>2026-04-19T11:09:58.603Z</time></trkpt><trkpt lat="42.14163" lon="11.96362"><ele>208.66666666666666</ele><time>2026-04-19T11:09:59.602Z</time></trkpt><trkpt lat="42.1417017" lon="11.9635217"><ele>209.0</ele><time>2026-04-19T11:10:01.602Z</time></trkpt><trkpt lat="42.14169" lon="11.9634283"><ele>209.33333333333331</ele><time>2026-04-19T11:10:57.602Z</time></trkpt><trkpt lat="42.1416517" lon="11.9633317"><ele>209.66666666666666</ele><time>2026-04-19T11:10:59.602Z</time></trkpt><trkpt lat="42.1416283" lon="11.96325"><ele>210.0</ele><time>2026-04-19T11:11:00.602Z</time></trkpt><trkpt lat="42.1416033" lon="11.9631717"><ele>210.0</ele><time>2026-04-19T11:11:01.603Z</time></trkpt><trkpt lat="42.1415767" lon="11.9630817"><ele>210.0</ele><time>2026-04-19T11:11:02.602Z</time></trkpt><trkpt lat="42.1415483" lon="11.9629817"><ele>210.0</ele><time>2026-04-19T11:11:03.602Z</time></trkpt><trkpt lat="42.1415117" lon="11.9628733"><ele>210.0</ele><time>2026-04-19T11:11:04.602Z</time></trkpt><trkpt lat="42.14146" lon="11.9627583"><ele>210.0</ele><time>2026-04-19T11:11:05.603Z</time></trkpt><trkpt lat="42.1414017" lon="11.9626317"><ele>208.0</ele><time>2026-04-19T11:11:06.602Z</time></trkpt><trkpt lat="42.1413333" lon="11.9624983"><ele>206.0</ele><time>2026-04-19T11:11:07.602Z</time></trkpt><trkpt lat="42.1412683" lon="11.9623833"><ele>204.0</ele><time>2026-04-19T11:11:08.602Z</time></trkpt><trkpt lat="42.1412133" lon="11.96227"><ele>202.0</ele><time>2026-04-19T11:11:09.602Z</time></trkpt><trkpt lat="42.14115" lon="11.962155"><ele>200.0</ele><time>2026-04-19T11:11:10.602Z</time></trkpt><trkpt lat="42.1410967" lon="11.9620433"><ele>200.0</ele><time>2026-04-19T11:11:11.602Z</time></trkpt><trkpt lat="42.141045" lon="11.961935"><ele>200.0</ele><time>2026-04-19T11:11:12.602Z</time></trkpt><trkpt lat="42.1409983" lon="11.9618233"><ele>200.0</ele><time>2026-04-19T11:11:13.603Z</time></trkpt><trkpt lat="42.1409567" lon="11.9617117"><ele>200.0</ele><time>2026-04-19T11:11:14.603Z</time></trkpt><trkpt lat="42.140915" lon="11.9616"><ele>200.0</ele><time>2026-04-19T11:11:15.603Z</time></trkpt><trkpt lat="42.1408867" lon="11.961475"><ele>201.75</ele><time>2026-04-19T11:11:16.602Z</time></trkpt><trkpt lat="42.140865" lon="11.961315"><ele>203.5</ele><time>2026-04-19T11:11:17.603Z</time></trkpt><trkpt lat="42.1408383" lon="11.9611433"><ele>205.25</ele><time>2026-04-19T11:11:18.603Z</time></trkpt><trkpt lat="42.1408233" lon="11.96098"><ele>207.0</ele><time>2026-04-19T11:11:19.602Z</time></trkpt><trkpt lat="42.1408117" lon="11.96083"><ele>206.39999999999998</ele><time>2026-04-19T11:11:20.601Z</time></trkpt><trkpt lat="42.1407983" lon="11.96069"><ele>205.79999999999998</ele><time>2026-04-19T11:11:21.601Z</time></trkpt><trkpt lat="42.1407833" lon="11.9605633"><ele>205.2</ele><time>2026-04-19T11:11:22.601Z</time></trkpt><trkpt lat="42.1407533" lon="11.9604217"><ele>204.6</ele><time>2026-04-19T11:11:23.601Z</time></trkpt><trkpt lat="42.1407233" lon="11.9602767"><ele>204.0</ele><time>2026-04-19T11:11:24.601Z</time></trkpt><trkpt lat="42.1407017" lon="11.96013"><ele>205.79999999999998</ele><time>2026-04-19T11:11:25.601Z</time></trkpt><trkpt lat="42.140685" lon="11.9599933"><ele>207.6</ele><time>2026-04-19T11:11:26.601Z</time></trkpt><trkpt lat="42.1406583" lon="11.95985"><ele>209.4</ele><time>2026-04-19T11:11:27.601Z</time></trkpt><trkpt lat="42.1406267" lon="11.95971"><ele>211.2</ele><time>2026-04-19T11:11:28.601Z</time></trkpt><trkpt lat="42.140605" lon="11.9595633"><ele>213.0</ele><time>2026-04-19T11:11:29.601Z</time></trkpt><trkpt lat="42.1405883" lon="11.9594333"><ele>213.0</ele><time>2026-04-19T11:11:30.602Z</time></trkpt><trkpt lat="42.140565" lon="11.9593"><ele>213.0</ele><time>2026-04-19T11:11:31.601Z</time></trkpt><trkpt lat="42.14055" lon="11.95917"><ele>213.0</ele><time>2026-04-19T11:11:32.601Z</time></trkpt><trkpt lat="42.1405383" lon="11.9590483"><ele>213.0</ele><time>2026-04-19T11:11:33.601Z</time></trkpt><trkpt lat="42.1405283" lon="11.9589267"><ele>213.0</ele><time>2026-04-19T11:11:34.601Z</time></trkpt><trkpt lat="42.1405133" lon="11.958805"><ele>214.8</ele><time>2026-04-19T11:11:35.601Z</time></trkpt><trkpt lat="42.1404983" lon="11.958655"><ele>216.60000000000002</ele><time>2026-04-19T11:11:36.601Z</time></trkpt><trkpt lat="42.1404833" lon="11.958495"><ele>218.39999999999998</ele><time>2026-04-19T11:11:37.601Z</time></trkpt><trkpt lat="42.1404667" lon="11.9583483"><ele>220.2</ele><time>2026-04-19T11:11:38.601Z</time></trkpt><trkpt lat="42.140445" lon="11.9582067"><ele>222.0</ele><time>2026-04-19T11:11:39.601Z</time></trkpt><trkpt lat="42.1404333" lon="11.9580867"><ele>222.8</ele><time>2026-04-19T11:11:40.601Z</time></trkpt><trkpt lat="42.1404217" lon="11.958"><ele>223.6</ele><time>2026-04-19T11:11:41.602Z</time></trkpt><trkpt lat="42.1404433" lon="11.957855"><ele>224.40000000000003</ele><time>2026-04-19T11:11:43.601Z</time></trkpt><trkpt lat="42.140545" lon="11.95776"><ele>225.20000000000002</ele><time>2026-04-19T11:11:45.601Z</time></trkpt><trkpt lat="42.1406167" lon="11.9577167"><ele>226.0</ele><time>2026-04-19T11:11:46.601Z</time></trkpt><trkpt lat="42.140685" lon="11.9576767"><ele>226.71428571428572</ele><time>2026-04-19T11:11:47.601Z</time></trkpt><trkpt lat="42.140755" lon="11.9576383"><ele>227.42857142857142</ele><time>2026-04-19T11:11:48.601Z</time></trkpt><trkpt lat="42.14082" lon="11.957605"><ele>228.14285714285714</ele><time>2026-04-19T11:11:49.601Z</time></trkpt><trkpt lat="42.1408783" lon="11.9575717"><ele>228.85714285714286</ele><time>2026-04-19T11:11:50.601Z</time></trkpt><trkpt lat="42.14094" lon="11.95754"><ele>229.57142857142856</ele><time>2026-04-19T11:11:51.601Z</time></trkpt><trkpt lat="42.14101" lon="11.9574983"><ele>230.28571428571428</ele><time>2026-04-19T11:11:52.601Z</time></trkpt><trkpt lat="42.1410983" lon="11.957455"><ele>231.0</ele><time>2026-04-19T11:11:53.601Z</time></trkpt><trkpt lat="42.1412033" lon="11.9574117"><ele>232.0</ele><time>2026-04-19T11:11:54.601Z</time></trkpt><trkpt lat="42.1413183" lon="11.9573633"><ele>233.00000000000003</ele><time>2026-04-19T11:11:55.601Z</time></trkpt><trkpt lat="42.1414217" lon="11.957325"><ele>234.00000000000003</ele><time>2026-04-19T11:11:56.601Z</time></trkpt><trkpt lat="42.1414917" lon="11.9573"><ele>235.0</ele><time>2026-04-19T11:11:57.601Z</time></trkpt><trkpt lat="42.141555" lon="11.9572983"><ele>236.0</ele><time>2026-04-19T11:11:58.601Z</time></trkpt><trkpt lat="42.1416733" lon="11.95739"><ele>237.66666666666669</ele><time>2026-04-19T11:12:00.601Z</time></trkpt><trkpt lat="42.1417317" lon="11.9574967"><ele>239.33333333333334</ele><time>2026-04-19T11:12:01.602Z</time></trkpt><trkpt lat="42.14179" lon="11.957625"><ele>241.0</ele><time>2026-04-19T11:12:02.601Z</time></trkpt><trkpt lat="42.14184" lon="11.9577183"><ele>242.66666666666669</ele><time>2026-04-19T11:12:03.601Z</time></trkpt><trkpt lat="42.1418967" lon="11.95777"><ele>244.33333333333334</ele><time>2026-04-19T11:12:04.601Z</time></trkpt><trkpt lat="42.14196" lon="11.9577667"><ele>246.0</ele><time>2026-04-19T11:12:05.602Z</time></trkpt><trkpt lat="42.14202" lon="11.9577067"><ele>246.0</ele><time>2026-04-19T11:12:06.601Z</time></trkpt><trkpt lat="42.1420767" lon="11.9576033"><ele>246.0</ele><time>2026-04-19T11:12:07.601Z</time></trkpt><trkpt lat="42.1421583" lon="11.9574817"><ele>246.0</ele><time>2026-04-19T11:12:08.601Z</time></trkpt><trkpt lat="42.1422583" lon="11.95739"><ele>246.0</ele><time>2026-04-19T11:12:09.601Z</time></trkpt><trkpt lat="42.14236" lon="11.9573217"><ele>250.0</ele><time>2026-04-19T11:12:10.601Z</time></trkpt><trkpt lat="42.1424533" lon="11.9572667"><ele>254.00000000000003</ele><time>2026-04-19T11:12:11.602Z</time></trkpt><trkpt lat="42.1425567" lon="11.95721"><ele>258.0</ele><time>2026-04-19T11:12:12.601Z</time></trkpt><trkpt lat="42.1426583" lon="11.9571467"><ele>262.0</ele><time>2026-04-19T11:12:13.602Z</time></trkpt><trkpt lat="42.1427517" lon="11.9570867"><ele>266.0</ele><time>2026-04-19T11:12:14.601Z</time></trkpt><trkpt lat="42.1428517" lon="11.95703"><ele>266.0</ele><time>2026-04-19T11:12:15.601Z</time></trkpt><trkpt lat="42.142965" lon="11.95696"><ele>266.0</ele><time>2026-04-19T11:12:16.601Z</time></trkpt><trkpt lat="42.1430817" lon="11.9568817"><ele>266.0</ele><time>2026-04-19T11:12:17.602Z</time></trkpt><trkpt lat="42.1432117" lon="11.9567983"><ele>266.0</ele><time>2026-04-19T11:12:18.602Z</time></trkpt><trkpt lat="42.143325" lon="11.9567183"><ele>266.75</ele><time>2026-04-19T11:12:19.601Z</time></trkpt><trkpt lat="42.1434483" lon="11.9566233"><ele>267.5</ele><time>2026-04-19T11:12:20.601Z</time></trkpt><trkpt lat="42.1435667" lon="11.9565317"><ele>268.25</ele><time>2026-04-19T11:12:21.602Z</time></trkpt><trkpt lat="42.143675" lon="11.9564567"><ele>269.0</ele><time>2026-04-19T11:12:22.601Z</time></trkpt><trkpt lat="42.1437833" lon="11.95638"><ele>269.0</ele><time>2026-04-19T11:12:23.601Z</time></trkpt><trkpt lat="42.1438783" lon="11.9563133"><ele>269.0</ele><time>2026-04-19T11:12:24.601Z</time></trkpt><trkpt lat="42.143975" lon="11.956245"><ele>269.0</ele><time>2026-04-19T11:12:25.602Z</time></trkpt><trkpt lat="42.1440717" lon="11.9561683"><ele>269.0</ele><time>2026-04-19T11:12:26.601Z</time></trkpt><trkpt lat="42.14417" lon="11.956085"><ele>269.0</ele><time>2026-04-19T11:12:27.601Z</time></trkpt><trkpt lat="42.14427" lon="11.9559917"><ele>269.25</ele><time>2026-04-19T11:12:28.601Z</time></trkpt><trkpt lat="42.1443767" lon="11.955895"><ele>269.5</ele><time>2026-04-19T11:12:29.601Z</time></trkpt><trkpt lat="42.1444867" lon="11.9558017"><ele>269.75</ele><time>2026-04-19T11:12:30.602Z</time></trkpt><trkpt lat="42.1445883" lon="11.9557167"><ele>270.0</ele><time>2026-04-19T11:12:31.601Z</time></trkpt><trkpt lat="42.1446933" lon="11.955635"><ele>270.0</ele><time>2026-04-19T11:12:32.601Z</time></trkpt><trkpt lat="42.1448" lon="11.9555467"><ele>270.0</ele><time>2026-04-19T11:12:33.601Z</time></trkpt><trkpt lat="42.14491" lon="11.9554467"><ele>270.0</ele><time>2026-04-19T11:12:34.602Z</time></trkpt><trkpt lat="42.14502" lon="11.955335"><ele>270.0</ele><time>2026-04-19T11:12:35.602Z</time></trkpt><trkpt lat="42.145135" lon="11.9552317"><ele>267.5</ele><time>2026-04-19T11:12:36.601Z</time></trkpt><trkpt lat="42.1452467" lon="11.9551367"><ele>265.0</ele><time>2026-04-19T11:12:37.601Z</time></trkpt><trkpt lat="42.1453717" lon="11.9550417"><ele>262.5</ele><time>2026-04-19T11:12:38.602Z</time></trkpt><trkpt lat="42.14548" lon="11.95495"><ele>260.0</ele><time>2026-04-19T11:12:39.601Z</time></trkpt><trkpt lat="42.145575" lon="11.95486"><ele>259.75</ele><time>2026-04-19T11:12:40.602Z</time></trkpt><trkpt lat="42.1456717" lon="11.9547767"><ele>259.5</ele><time>2026-04-19T11:12:41.601Z</time></trkpt><trkpt lat="42.1457733" lon="11.9546817"><ele>259.25</ele><time>2026-04-19T11:12:42.601Z</time></trkpt><trkpt lat="42.1458817" lon="11.9545833"><ele>259.0</ele><time>2026-04-19T11:12:43.601Z</time></trkpt><trkpt lat="42.1459967" lon="11.9544733"><ele>259.0</ele><time>2026-04-19T11:12:44.601Z</time></trkpt><trkpt lat="42.1461083" lon="11.9543683"><ele>259.0</ele><time>2026-04-19T11:12:45.601Z</time></trkpt><trkpt lat="42.1462183" lon="11.954265"><ele>259.0</ele><time>2026-04-19T11:12:46.602Z</time></trkpt><trkpt lat="42.1463217" lon="11.9541683"><ele>259.0</ele><time>2026-04-19T11:12:47.602Z</time></trkpt><trkpt lat="42.1464233" lon="11.9540717"><ele>258.25</ele><time>2026-04-19T11:12:48.601Z</time></trkpt><trkpt lat="42.1465217" lon="11.9539567"><ele>257.5</ele><time>2026-04-19T11:12:49.601Z</time></trkpt><trkpt lat="42.1466283" lon="11.953825"><ele>256.75</ele><time>2026-04-19T11:12:50.601Z</time></trkpt><trkpt lat="42.1467333" lon="11.9536883"><ele>256.0</ele><time>2026-04-19T11:12:51.601Z</time></trkpt><trkpt lat="42.1468267" lon="11.9535617"><ele>255.75</ele><time>2026-04-19T11:12:52.601Z</time></trkpt><trkpt lat="42.1469167" lon="11.95344"><ele>255.5</ele><time>2026-04-19T11:12:53.601Z</time></trkpt><trkpt lat="42.14701" lon="11.9533133"><ele>255.25</ele><time>2026-04-19T11:12:54.601Z</time></trkpt><trkpt lat="42.1471017" lon="11.9531933"><ele>255.0</ele><time>2026-04-19T11:12:55.601Z</time></trkpt><trkpt lat="42.1471767" lon="11.953085"><ele>255.33333333333334</ele><time>2026-04-19T11:12:56.601Z</time></trkpt><trkpt lat="42.147245" lon="11.9529867"><ele>255.66666666666669</ele><time>2026-04-19T11:12:57.601Z</time></trkpt><trkpt lat="42.1473" lon="11.9528883"><ele>256.0</ele><time>2026-04-19T11:12:58.601Z</time></trkpt><trkpt lat="42.1473533" lon="11.9527917"><ele>256.33333333333337</ele><time>2026-04-19T11:12:59.601Z</time></trkpt><trkpt lat="42.1474067" lon="11.9527117"><ele>256.6666666666667</ele><time>2026-04-19T11:13:00.601Z</time></trkpt><trkpt lat="42.147465" lon="11.9526617"><ele>257.0</ele><time>2026-04-19T11:13:01.601Z</time></trkpt><trkpt lat="42.14758" lon="11.9526567"><ele>257.2</ele><time>2026-04-19T11:13:03.601Z</time></trkpt><trkpt lat="42.1477117" lon="11.9527283"><ele>257.4</ele><time>2026-04-19T11:13:05.601Z</time></trkpt><trkpt lat="42.1477983" lon="11.9527633"><ele>257.6</ele><time>2026-04-19T11:13:06.601Z</time></trkpt><trkpt lat="42.147895" lon="11.9527867"><ele>257.8</ele><time>2026-04-19T11:13:07.601Z</time></trkpt><trkpt lat="42.147995" lon="11.9527933"><ele>258.0</ele><time>2026-04-19T11:13:08.601Z</time></trkpt><trkpt lat="42.148095" lon="11.9527833"><ele>258.0</ele><time>2026-04-19T11:13:09.601Z</time></trkpt><trkpt lat="42.1481967" lon="11.95276"><ele>258.0</ele><time>2026-04-19T11:13:10.601Z</time></trkpt><trkpt lat="42.1483" lon="11.95272"><ele>258.0</ele><time>2026-04-19T11:13:11.601Z</time></trkpt><trkpt lat="42.148395" lon="11.95268"><ele>258.0</ele><time>2026-04-19T11:13:12.601Z</time></trkpt><trkpt lat="42.1484817" lon="11.9526317"><ele>258.0</ele><time>2026-04-19T11:13:13.601Z</time></trkpt><trkpt lat="42.148565" lon="11.9525633"><ele>261.2</ele><time>2026-04-19T11:13:14.601Z</time></trkpt><trkpt lat="42.14865" lon="11.95249"><ele>264.4</ele><time>2026-04-19T11:13:15.602Z</time></trkpt><trkpt lat="42.1487367" lon="11.9524167"><ele>267.59999999999997</ele><time>2026-04-19T11:13:16.601Z</time></trkpt><trkpt lat="42.1488283" lon="11.95235"><ele>270.8</ele><time>2026-04-19T11:13:17.601Z</time></trkpt><trkpt lat="42.1489233" lon="11.9522783"><ele>274.0</ele><time>2026-04-19T11:13:18.601Z</time></trkpt><trkpt lat="42.149015" lon="11.9522083"><ele>275.59999999999997</ele><time>2026-04-19T11:13:19.601Z</time></trkpt><trkpt lat="42.1491017" lon="11.952155"><ele>277.2</ele><time>2026-04-19T11:13:20.601Z</time></trkpt><trkpt lat="42.14919" lon="11.952125"><ele>278.79999999999995</ele><time>2026-04-19T11:13:21.601Z</time></trkpt><trkpt lat="42.149285" lon="11.9521217"><ele>280.4</ele><time>2026-04-19T11:13:22.601Z</time></trkpt><trkpt lat="42.1493767" lon="11.95213"><ele>282.0</ele><time>2026-04-19T11:13:23.601Z</time></trkpt><trkpt lat="42.1494617" lon="11.9521283"><ele>282.0</ele><time>2026-04-19T11:13:24.601Z</time></trkpt><trkpt lat="42.149545" lon="11.952115"><ele>282.0</ele><time>2026-04-19T11:13:25.601Z</time></trkpt><trkpt lat="42.149635" lon="11.9520867"><ele>282.0</ele><time>2026-04-19T11:13:26.601Z</time></trkpt><trkpt lat="42.1497383" lon="11.9520383"><ele>282.0</ele><time>2026-04-19T11:13:27.601Z</time></trkpt><trkpt lat="42.1498383" lon="11.9519667"><ele>282.0</ele><time>2026-04-19T11:13:28.601Z</time></trkpt><trkpt lat="42.1499517" lon="11.9518967"><ele>280.75</ele><time>2026-04-19T11:13:29.601Z</time></trkpt><trkpt lat="42.150065" lon="11.9518333"><ele>279.5</ele><time>2026-04-19T11:13:30.601Z</time></trkpt><trkpt lat="42.1501767" lon="11.9517717"><ele>278.25</ele><time>2026-04-19T11:13:31.601Z</time></trkpt><trkpt lat="42.1502967" lon="11.9517167"><ele>277.0</ele><time>2026-04-19T11:13:32.601Z</time></trkpt><trkpt lat="42.1504117" lon="11.95167"><ele>279.75</ele><time>2026-04-19T11:13:33.601Z</time></trkpt><trkpt lat="42.150535" lon="11.9516233"><ele>282.5</ele><time>2026-04-19T11:13:34.601Z</time></trkpt><trkpt lat="42.1506667" lon="11.9515617"><ele>285.25</ele><time>2026-04-19T11:13:35.601Z</time></trkpt><trkpt lat="42.1507817" lon="11.9514983"><ele>288.0</ele><time>2026-04-19T11:13:36.601Z</time></trkpt><trkpt lat="42.1508883" lon="11.9514583"><ele>288.0</ele><time>2026-04-19T11:13:37.601Z</time></trkpt><trkpt lat="42.15099" lon="11.951415"><ele>288.0</ele><time>2026-04-19T11:13:38.601Z</time></trkpt><trkpt lat="42.151095" lon="11.951355"><ele>288.0</ele><time>2026-04-19T11:13:39.601Z</time></trkpt><trkpt lat="42.1512017" lon="11.95128"><ele>288.0</ele><time>2026-04-19T11:13:40.601Z</time></trkpt><trkpt lat="42.1513" lon="11.9512017"><ele>288.0</ele><time>2026-04-19T11:13:41.601Z</time></trkpt><trkpt lat="42.1513883" lon="11.951125"><ele>288.0</ele><time>2026-04-19T11:13:42.601Z</time></trkpt><trkpt lat="42.151475" lon="11.9510467"><ele>288.0</ele><time>2026-04-19T11:13:43.601Z</time></trkpt><trkpt lat="42.1515583" lon="11.95099"><ele>288.0</ele><time>2026-04-19T11:13:44.601Z</time></trkpt><trkpt lat="42.151645" lon="11.9509667"><ele>288.0</ele><time>2026-04-19T11:13:45.601Z</time></trkpt><trkpt lat="42.1517267" lon="11.9509583"><ele>287.6666666666667</ele><time>2026-04-19T11:13:46.601Z</time></trkpt><trkpt lat="42.1518083" lon="11.9509433"><ele>287.3333333333333</ele><time>2026-04-19T11:13:47.602Z</time></trkpt><trkpt lat="42.1518783" lon="11.9509033"><ele>287.0</ele><time>2026-04-19T11:13:48.601Z</time></trkpt><trkpt lat="42.15195" lon="11.950845"><ele>286.66666666666663</ele><time>2026-04-19T11:13:49.601Z</time></trkpt><trkpt lat="42.1520233" lon="11.9507767"><ele>286.3333333333333</ele><time>2026-04-19T11:13:50.601Z</time></trkpt><trkpt lat="42.1521067" lon="11.9507267"><ele>286.0</ele><time>2026-04-19T11:13:51.601Z</time></trkpt><trkpt lat="42.1521967" lon="11.9506933"><ele>288.3333333333333</ele><time>2026-04-19T11:13:52.601Z</time></trkpt><trkpt lat="42.1522883" lon="11.9506983"><ele>290.66666666666663</ele><time>2026-04-19T11:13:53.602Z</time></trkpt><trkpt lat="42.1523767" lon="11.9507283"><ele>293.0</ele><time>2026-04-19T11:13:54.602Z</time></trkpt><trkpt lat="42.152462" lon="11.9507664"><ele>295.3333333333333</ele><time>2026-04-19T11:13:55.601Z</time></trkpt><trkpt lat="42.1525422" lon="11.9507938"><ele>297.6666666666667</ele><time>2026-04-19T11:13:56.601Z</time></trkpt><trkpt lat="42.1526135" lon="11.9507832"><ele>300.0</ele><time>2026-04-19T11:13:57.601Z</time></trkpt><trkpt lat="42.1526771" lon="11.9507393"><ele>300.0</ele><time>2026-04-19T11:13:58.601Z</time></trkpt><trkpt lat="42.1527409" lon="11.9506755"><ele>300.0</ele><time>2026-04-19T11:13:59.601Z</time></trkpt><trkpt lat="42.1528091" lon="11.9506057"><ele>300.0</ele><time>2026-04-19T11:14:00.601Z</time></trkpt><trkpt lat="42.1528844" lon="11.9505406"><ele>300.0</ele><time>2026-04-19T11:14:01.601Z</time></trkpt><trkpt lat="42.152961" lon="11.9504797"><ele>300.0</ele><time>2026-04-19T11:14:02.602Z</time></trkpt><trkpt lat="42.1530452" lon="11.9504088"><ele>300.0</ele><time>2026-04-19T11:14:03.602Z</time></trkpt><trkpt lat="42.1531348" lon="11.9503348"><ele>299.25</ele><time>2026-04-19T11:14:04.601Z</time></trkpt><trkpt lat="42.1532299" lon="11.9502646"><ele>298.5</ele><time>2026-04-19T11:14:05.602Z</time></trkpt><trkpt lat="42.153336" lon="11.9502021"><ele>297.75</ele><time>2026-04-19T11:14:06.601Z</time></trkpt><trkpt lat="42.153464" lon="11.9501461"><ele>297.0</ele><time>2026-04-19T11:14:07.602Z</time></trkpt><trkpt lat="42.15359" lon="11.9500925"><ele>300.75</ele><time>2026-04-19T11:14:08.6Z</time></trkpt><trkpt lat="42.15372" lon="11.9500326"><ele>304.5</ele><time>2026-04-19T11:14:09.6Z</time></trkpt><trkpt lat="42.1538324" lon="11.9499637"><ele>308.25</ele><time>2026-04-19T11:14:10.6Z</time></trkpt><trkpt lat="42.1539307" lon="11.9499064"><ele>312.0</ele><time>2026-04-19T11:14:11.6Z</time></trkpt><trkpt lat="42.1540255" lon="11.9498682"><ele>311.6666666666667</ele><time>2026-04-19T11:14:12.601Z</time></trkpt><trkpt lat="42.1541174" lon="11.9498661"><ele>311.3333333333333</ele><time>2026-04-19T11:14:13.6Z</time></trkpt><trkpt lat="42.1542009" lon="11.9498822"><ele>311.0</ele><time>2026-04-19T11:14:14.6Z</time></trkpt><trkpt lat="42.1542695" lon="11.9498992"><ele>310.66666666666663</ele><time>2026-04-19T11:14:15.6Z</time></trkpt><trkpt lat="42.1543671" lon="11.9499176"><ele>310.3333333333333</ele><time>2026-04-19T11:14:17.601Z</time></trkpt><trkpt lat="42.1544572" lon="11.9499242"><ele>310.0</ele><time>2026-04-19T11:14:19.6Z</time></trkpt><trkpt lat="42.1545546" lon="11.9498857"><ele>310.0</ele><time>2026-04-19T11:14:21.6Z</time></trkpt><trkpt lat="42.1546464" lon="11.9498839"><ele>310.0</ele><time>2026-04-19T11:14:23.6Z</time></trkpt><trkpt lat="42.1547108" lon="11.949891"><ele>310.0</ele><time>2026-04-19T11:14:24.601Z</time></trkpt><trkpt lat="42.1547889" lon="11.9498871"><ele>310.0</ele><time>2026-04-19T11:14:25.601Z</time></trkpt><trkpt lat="42.154864" lon="11.9498597"><ele>310.0</ele><time>2026-04-19T11:14:26.6Z</time></trkpt><trkpt lat="42.1549334" lon="11.9498226"><ele>310.0</ele><time>2026-04-19T11:14:27.6Z</time></trkpt><trkpt lat="42.1550017" lon="11.94977"><ele>311.0</ele><time>2026-04-19T11:14:28.6Z</time></trkpt><trkpt lat="42.15506" lon="11.9497317"><ele>312.0</ele><time>2026-04-19T11:14:29.6Z</time></trkpt><trkpt lat="42.155125" lon="11.949705"><ele>313.0</ele><time>2026-04-19T11:14:30.6Z</time></trkpt><trkpt lat="42.1552317" lon="11.9496183"><ele>314.0</ele><time>2026-04-19T11:14:32.601Z</time></trkpt><trkpt lat="42.1553033" lon="11.9495083"><ele>315.0</ele><time>2026-04-19T11:14:34.6Z</time></trkpt><trkpt lat="42.155375" lon="11.949375"><ele>315.0</ele><time>2026-04-19T11:14:36.601Z</time></trkpt><trkpt lat="42.1554217" lon="11.9492733"><ele>315.0</ele><time>2026-04-19T11:14:38.6Z</time></trkpt><trkpt lat="42.1554867" lon="11.9492317"><ele>315.0</ele><time>2026-04-19T11:14:40.6Z</time></trkpt><trkpt lat="42.1556067" lon="11.9492267"><ele>315.0</ele><time>2026-04-19T11:14:42.6Z</time></trkpt><trkpt lat="42.1556817" lon="11.9492183"><ele>315.0</ele><time>2026-04-19T11:14:43.6Z</time></trkpt><trkpt lat="42.1557967" lon="11.9491983"><ele>316.6</ele><time>2026-04-19T11:14:44.6Z</time></trkpt><trkpt lat="42.1559017" lon="11.9491667"><ele>318.2</ele><time>2026-04-19T11:14:45.6Z</time></trkpt><trkpt lat="42.1560017" lon="11.9491283"><ele>319.79999999999995</ele><time>2026-04-19T11:14:46.6Z</time></trkpt><trkpt lat="42.156095" lon="11.949095"><ele>321.4</ele><time>2026-04-19T11:14:47.601Z</time></trkpt><trkpt lat="42.15619" lon="11.9490633"><ele>323.0</ele><time>2026-04-19T11:14:48.6Z</time></trkpt><trkpt lat="42.15628" lon="11.9490117"><ele>323.0</ele><time>2026-04-19T11:14:49.6Z</time></trkpt><trkpt lat="42.156355" lon="11.948945"><ele>323.0</ele><time>2026-04-19T11:14:50.601Z</time></trkpt><trkpt lat="42.1564067" lon="11.948875"><ele>323.0</ele><time>2026-04-19T11:14:51.6Z</time></trkpt><trkpt lat="42.1564367" lon="11.9487917"><ele>323.0</ele><time>2026-04-19T11:14:52.6Z</time></trkpt><trkpt lat="42.1564483" lon="11.94868"><ele>323.0</ele><time>2026-04-19T11:14:53.6Z</time></trkpt><trkpt lat="42.15648" lon="11.9485583"><ele>323.0</ele><time>2026-04-19T11:14:54.6Z</time></trkpt><trkpt lat="42.1565317" lon="11.94844"><ele>325.79999999999995</ele><time>2026-04-19T11:14:55.601Z</time></trkpt><trkpt lat="42.1565867" lon="11.948325"><ele>328.6</ele><time>2026-04-19T11:14:56.601Z</time></trkpt><trkpt lat="42.1566483" lon="11.9481917"><ele>331.4</ele><time>2026-04-19T11:14:57.6Z</time></trkpt><trkpt lat="42.1566967" lon="11.948055"><ele>334.20000000000005</ele><time>2026-04-19T11:14:58.6Z</time></trkpt><trkpt lat="42.1567317" lon="11.9479333"><ele>337.0</ele><time>2026-04-19T11:14:59.6Z</time></trkpt><trkpt lat="42.15675" lon="11.9478133"><ele>337.0</ele><time>2026-04-19T11:15:00.6Z</time></trkpt><trkpt lat="42.15676" lon="11.9476883"><ele>337.0</ele><time>2026-04-19T11:15:01.601Z</time></trkpt><trkpt lat="42.1567617" lon="11.9475767"><ele>337.0</ele><time>2026-04-19T11:15:02.6Z</time></trkpt><trkpt lat="42.1567567" lon="11.9474683"><ele>337.0</ele><time>2026-04-19T11:15:03.6Z</time></trkpt><trkpt lat="42.1567417" lon="11.9473467"><ele>337.0</ele><time>2026-04-19T11:15:04.6Z</time></trkpt><trkpt lat="42.1567283" lon="11.947215"><ele>337.0</ele><time>2026-04-19T11:15:05.601Z</time></trkpt><trkpt lat="42.156695" lon="11.9470717"><ele>338.20000000000005</ele><time>2026-04-19T11:15:06.6Z</time></trkpt><trkpt lat="42.1566633" lon="11.9469133"><ele>339.4</ele><time>2026-04-19T11:15:07.6Z</time></trkpt><trkpt lat="42.1566367" lon="11.9467583"><ele>340.6</ele><time>2026-04-19T11:15:08.6Z</time></trkpt><trkpt lat="42.156615" lon="11.9466183"><ele>341.79999999999995</ele><time>2026-04-19T11:15:09.601Z</time></trkpt><trkpt lat="42.1566" lon="11.94648"><ele>343.0</ele><time>2026-04-19T11:15:10.601Z</time></trkpt><trkpt lat="42.1566133" lon="11.9463367"><ele>344.3333333333333</ele><time>2026-04-19T11:15:11.601Z</time></trkpt><trkpt lat="42.1566317" lon="11.94622"><ele>345.66666666666663</ele><time>2026-04-19T11:15:12.601Z</time></trkpt><trkpt lat="42.1566333" lon="11.9460967"><ele>347.0</ele><time>2026-04-19T11:15:13.6Z</time></trkpt><trkpt lat="42.1566133" lon="11.945985"><ele>348.3333333333333</ele><time>2026-04-19T11:15:14.6Z</time></trkpt><trkpt lat="42.15659" lon="11.9458717"><ele>349.6666666666667</ele><time>2026-04-19T11:15:15.601Z</time></trkpt><trkpt lat="42.1565667" lon="11.9457583"><ele>351.0</ele><time>2026-04-19T11:15:16.6Z</time></trkpt><trkpt lat="42.1565567" lon="11.9456467"><ele>353.8</ele><time>2026-04-19T11:15:17.6Z</time></trkpt><trkpt lat="42.1565567" lon="11.9455383"><ele>356.6</ele><time>2026-04-19T11:15:18.6Z</time></trkpt><trkpt lat="42.1565633" lon="11.9454217"><ele>359.4</ele><time>2026-04-19T11:15:19.601Z</time></trkpt><trkpt lat="42.1565683" lon="11.945285"><ele>362.2</ele><time>2026-04-19T11:15:20.6Z</time></trkpt><trkpt lat="42.1565617" lon="11.94515"><ele>365.0</ele><time>2026-04-19T11:15:21.6Z</time></trkpt><trkpt lat="42.156545" lon="11.9450167"><ele>367.2</ele><time>2026-04-19T11:15:22.601Z</time></trkpt><trkpt lat="42.156525" lon="11.9448867"><ele>369.4</ele><time>2026-04-19T11:15:23.6Z</time></trkpt><trkpt lat="42.1564983" lon="11.944755"><ele>371.6</ele><time>2026-04-19T11:15:24.6Z</time></trkpt><trkpt lat="42.1564817" lon="11.9446217"><ele>373.8</ele><time>2026-04-19T11:15:25.6Z</time></trkpt><trkpt lat="42.1564617" lon="11.9444833"><ele>376.0</ele><time>2026-04-19T11:15:26.6Z</time></trkpt><trkpt lat="42.1564333" lon="11.9443367"><ele>378.6</ele><time>2026-04-19T11:15:27.6Z</time></trkpt><trkpt lat="42.156405" lon="11.9441817"><ele>381.20000000000005</ele><time>2026-04-19T11:15:28.6Z</time></trkpt><trkpt lat="42.15638" lon="11.9440283"><ele>383.79999999999995</ele><time>2026-04-19T11:15:29.6Z</time></trkpt><trkpt lat="42.1563533" lon="11.9438917"><ele>386.4</ele><time>2026-04-19T11:15:30.6Z</time></trkpt><trkpt lat="42.1563133" lon="11.9437733"><ele>389.0</ele><time>2026-04-19T11:15:31.6Z</time></trkpt><trkpt lat="42.1562667" lon="11.9436933"><ele>388.99999999999994</ele><time>2026-04-19T11:15:32.6Z</time></trkpt><trkpt lat="42.156215" lon="11.9436283"><ele>389.0</ele><time>2026-04-19T11:15:33.6Z</time></trkpt><trkpt lat="42.1561417" lon="11.9435767"><ele>389.0</ele><time>2026-04-19T11:15:34.6Z</time></trkpt><trkpt lat="42.156055" lon="11.943525"><ele>389.0</ele><time>2026-04-19T11:15:35.6Z</time></trkpt><trkpt lat="42.1559683" lon="11.9434633"><ele>388.99999999999994</ele><time>2026-04-19T11:15:36.6Z</time></trkpt><trkpt lat="42.155915" lon="11.9433633"><ele>389.0</ele><time>2026-04-19T11:15:37.6Z</time></trkpt><trkpt lat="42.155875" lon="11.943235"><ele>392.75</ele><time>2026-04-19T11:15:38.6Z</time></trkpt><trkpt lat="42.15584" lon="11.943085"><ele>396.5</ele><time>2026-04-19T11:15:39.601Z</time></trkpt><trkpt lat="42.1557983" lon="11.942925"><ele>400.25</ele><time>2026-04-19T11:15:40.601Z</time></trkpt><trkpt lat="42.1557467" lon="11.942765"><ele>404.0</ele><time>2026-04-19T11:15:41.601Z</time></trkpt><trkpt lat="42.1556817" lon="11.94262"><ele>408.4</ele><time>2026-04-19T11:15:42.6Z</time></trkpt><trkpt lat="42.1556167" lon="11.9424983"><ele>412.79999999999995</ele><time>2026-04-19T11:15:43.6Z</time></trkpt><trkpt lat="42.1555433" lon="11.9424017"><ele>417.20000000000005</ele><time>2026-04-19T11:15:44.6Z</time></trkpt><trkpt lat="42.155465" lon="11.9423117"><ele>421.6</ele><time>2026-04-19T11:15:45.6Z</time></trkpt><trkpt lat="42.1553817" lon="11.9422133"><ele>426.0</ele><time>2026-04-19T11:15:46.6Z</time></trkpt><trkpt lat="42.1553017" lon="11.9421217"><ele>426.0</ele><time>2026-04-19T11:15:47.6Z</time></trkpt><trkpt lat="42.1552067" lon="11.94202"><ele>426.0</ele><time>2026-04-19T11:15:48.6Z</time></trkpt><trkpt lat="42.1551117" lon="11.9419183"><ele>426.0</ele><time>2026-04-19T11:15:49.6Z</time></trkpt><trkpt lat="42.155025" lon="11.941815"><ele>426.0</ele><time>2026-04-19T11:15:50.6Z</time></trkpt><trkpt lat="42.15495" lon="11.9417217"><ele>427.6</ele><time>2026-04-19T11:15:51.6Z</time></trkpt><trkpt lat="42.1548867" lon="11.9416283"><ele>429.20000000000005</ele><time>2026-04-19T11:15:52.601Z</time></trkpt><trkpt lat="42.154825" lon="11.9415217"><ele>430.79999999999995</ele><time>2026-04-19T11:15:53.601Z</time></trkpt><trkpt lat="42.1547617" lon="11.9413983"><ele>432.4</ele><time>2026-04-19T11:15:54.6Z</time></trkpt><trkpt lat="42.1546983" lon="11.9412717"><ele>434.0</ele><time>2026-04-19T11:15:55.601Z</time></trkpt><trkpt lat="42.15463" lon="11.941165"><ele>435.49999999999994</ele><time>2026-04-19T11:15:56.6Z</time></trkpt><trkpt lat="42.15457" lon="11.9410783"><ele>437.0</ele><time>2026-04-19T11:15:57.601Z</time></trkpt><trkpt lat="42.15452" lon="11.941015"><ele>438.5</ele><time>2026-04-19T11:15:58.6Z</time></trkpt><trkpt lat="42.154465" lon="11.9409333"><ele>440.0</ele><time>2026-04-19T11:16:00.601Z</time></trkpt><trkpt lat="42.1545283" lon="11.9408617"><ele>441.49999999999994</ele><time>2026-04-19T11:16:03.6Z</time></trkpt><trkpt lat="42.1546367" lon="11.94087"><ele>443.0</ele><time>2026-04-19T11:16:05.601Z</time></trkpt><trkpt lat="42.1546983" lon="11.9408933"><ele>443.0</ele><time>2026-04-19T11:16:06.6Z</time></trkpt><trkpt lat="42.1547633" lon="11.940925"><ele>442.99999999999994</ele><time>2026-04-19T11:16:07.6Z</time></trkpt><trkpt lat="42.1548683" lon="11.9409767"><ele>442.99999999999994</ele><time>2026-04-19T11:16:09.6Z</time></trkpt><trkpt lat="42.15495" lon="11.941095"><ele>443.0</ele><time>2026-04-19T11:16:11.6Z</time></trkpt><trkpt lat="42.155" lon="11.94118"><ele>443.0</ele><time>2026-04-19T11:16:12.6Z</time></trkpt><trkpt lat="42.1550583" lon="11.941295"><ele>440.75</ele><time>2026-04-19T11:16:13.6Z</time></trkpt><trkpt lat="42.1551417" lon="11.9414317"><ele>438.5</ele><time>2026-04-19T11:16:14.6Z</time></trkpt><trkpt lat="42.1552367" lon="11.9415717"><ele>436.25</ele><time>2026-04-19T11:16:15.601Z</time></trkpt><trkpt lat="42.1553267" lon="11.9416967"><ele>434.0</ele><time>2026-04-19T11:16:16.6Z</time></trkpt><trkpt lat="42.15542" lon="11.9418117"><ele>433.0</ele><time>2026-04-19T11:16:17.6Z</time></trkpt><trkpt lat="42.155505" lon="11.9419117"><ele>432.0</ele><time>2026-04-19T11:16:18.6Z</time></trkpt><trkpt lat="42.1555817" lon="11.9420067"><ele>431.0</ele><time>2026-04-19T11:16:19.6Z</time></trkpt><trkpt lat="42.1556667" lon="11.9420983"><ele>430.0</ele><time>2026-04-19T11:16:20.6Z</time></trkpt><trkpt lat="42.1557533" lon="11.9421933"><ele>429.0</ele><time>2026-04-19T11:16:21.6Z</time></trkpt><trkpt lat="42.1558317" lon="11.9423017"><ele>429.0</ele><time>2026-04-19T11:16:22.601Z</time></trkpt><trkpt lat="42.1558983" lon="11.9424417"><ele>429.0</ele><time>2026-04-19T11:16:23.6Z</time></trkpt><trkpt lat="42.15597" lon="11.9425967"><ele>429.0</ele><time>2026-04-19T11:16:24.6Z</time></trkpt><trkpt lat="42.156065" lon="11.94274"><ele>429.0</ele><time>2026-04-19T11:16:25.6Z</time></trkpt><trkpt lat="42.1561717" lon="11.942865"><ele>425.75</ele><time>2026-04-19T11:16:26.6Z</time></trkpt><trkpt lat="42.15628" lon="11.9429667"><ele>422.5</ele><time>2026-04-19T11:16:27.601Z</time></trkpt><trkpt lat="42.1564117" lon="11.9430117"><ele>419.25</ele><time>2026-04-19T11:16:28.6Z</time></trkpt><trkpt lat="42.1565483" lon="11.9430383"><ele>416.0</ele><time>2026-04-19T11:16:29.601Z</time></trkpt><trkpt lat="42.1567" lon="11.9430033"><ele>416.0</ele><time>2026-04-19T11:16:30.6Z</time></trkpt><trkpt lat="42.1568383" lon="11.9429467"><ele>416.0</ele><time>2026-04-19T11:16:31.6Z</time></trkpt><trkpt lat="42.1569733" lon="11.94286"><ele>416.0</ele><time>2026-04-19T11:16:32.6Z</time></trkpt><trkpt lat="42.1570867" lon="11.94274"><ele>416.0</ele><time>2026-04-19T11:16:33.6Z</time></trkpt><trkpt lat="42.1571717" lon="11.9425933"><ele>418.5</ele><time>2026-04-19T11:16:34.601Z</time></trkpt><trkpt lat="42.1572483" lon="11.9424633"><ele>421.0</ele><time>2026-04-19T11:16:35.601Z</time></trkpt><trkpt lat="42.15732" lon="11.942305"><ele>423.5</ele><time>2026-04-19T11:16:36.6Z</time></trkpt><trkpt lat="42.1574133" lon="11.9421817"><ele>426.0</ele><time>2026-04-19T11:16:37.6Z</time></trkpt><trkpt lat="42.1575117" lon="11.9420783"><ele>426.0</ele><time>2026-04-19T11:16:38.6Z</time></trkpt><trkpt lat="42.15763" lon="11.942005"><ele>426.0</ele><time>2026-04-19T11:16:39.601Z</time></trkpt><trkpt lat="42.157755" lon="11.94194"><ele>426.0</ele><time>2026-04-19T11:16:40.601Z</time></trkpt><trkpt lat="42.157885" lon="11.9418767"><ele>426.0</ele><time>2026-04-19T11:16:41.6Z</time></trkpt><trkpt lat="42.1580133" lon="11.9418217"><ele>426.0</ele><time>2026-04-19T11:16:42.6Z</time></trkpt><trkpt lat="42.158135" lon="11.9417733"><ele>426.0</ele><time>2026-04-19T11:16:43.6Z</time></trkpt><trkpt lat="42.15826" lon="11.9417317"><ele>426.0</ele><time>2026-04-19T11:16:44.6Z</time></trkpt><trkpt lat="42.1583867" lon="11.9417233"><ele>426.0</ele><time>2026-04-19T11:16:45.6Z</time></trkpt><trkpt lat="42.158515" lon="11.94176"><ele>419.75</ele><time>2026-04-19T11:16:46.6Z</time></trkpt><trkpt lat="42.158645" lon="11.94184"><ele>413.5</ele><time>2026-04-19T11:16:47.601Z</time></trkpt><trkpt lat="42.1587567" lon="11.9419483"><ele>407.25</ele><time>2026-04-19T11:16:48.6Z</time></trkpt><trkpt lat="42.1588583" lon="11.94206"><ele>401.0</ele><time>2026-04-19T11:16:49.6Z</time></trkpt><trkpt lat="42.158935" lon="11.942165"><ele>401.0</ele><time>2026-04-19T11:16:50.601Z</time></trkpt><trkpt lat="42.1590167" lon="11.9422617"><ele>401.0</ele><time>2026-04-19T11:16:51.6Z</time></trkpt><trkpt lat="42.1591067" lon="11.9423067"><ele>401.0</ele><time>2026-04-19T11:16:52.6Z</time></trkpt><trkpt lat="42.159205" lon="11.9423217"><ele>401.0</ele><time>2026-04-19T11:16:53.6Z</time></trkpt><trkpt lat="42.1592967" lon="11.9423133"><ele>401.0</ele><time>2026-04-19T11:16:54.6Z</time></trkpt><trkpt lat="42.1593983" lon="11.94228"><ele>400.25</ele><time>2026-04-19T11:16:55.601Z</time></trkpt><trkpt lat="42.1595" lon="11.9422033"><ele>399.5</ele><time>2026-04-19T11:16:56.6Z</time></trkpt><trkpt lat="42.1596033" lon="11.9421067"><ele>398.75</ele><time>2026-04-19T11:16:57.6Z</time></trkpt><trkpt lat="42.1597067" lon="11.9420017"><ele>398.0</ele><time>2026-04-19T11:16:58.6Z</time></trkpt><trkpt lat="42.1598017" lon="11.94189"><ele>397.5</ele><time>2026-04-19T11:16:59.599Z</time></trkpt><trkpt lat="42.15989" lon="11.9417767"><ele>397.0</ele><time>2026-04-19T11:17:00.599Z</time></trkpt><trkpt lat="42.159965" lon="11.9416583"><ele>396.5</ele><time>2026-04-19T11:17:01.599Z</time></trkpt><trkpt lat="42.1600333" lon="11.941525"><ele>396.0</ele><time>2026-04-19T11:17:02.599Z</time></trkpt><trkpt lat="42.1600933" lon="11.9413867"><ele>396.0</ele><time>2026-04-19T11:17:03.599Z</time></trkpt><trkpt lat="42.1601483" lon="11.9412183"><ele>396.0</ele><time>2026-04-19T11:17:04.599Z</time></trkpt><trkpt lat="42.1601967" lon="11.9410433"><ele>396.0</ele><time>2026-04-19T11:17:05.6Z</time></trkpt><trkpt lat="42.16024" lon="11.940875"><ele>396.0</ele><time>2026-04-19T11:17:06.599Z</time></trkpt><trkpt lat="42.160275" lon="11.9407083"><ele>395.25</ele><time>2026-04-19T11:17:07.6Z</time></trkpt><trkpt lat="42.1603133" lon="11.9405517"><ele>394.5</ele><time>2026-04-19T11:17:08.599Z</time></trkpt><trkpt lat="42.1603683" lon="11.9403983"><ele>393.75</ele><time>2026-04-19T11:17:09.599Z</time></trkpt><trkpt lat="42.1604333" lon="11.940265"><ele>393.0</ele><time>2026-04-19T11:17:10.6Z</time></trkpt><trkpt lat="42.160515" lon="11.9401717"><ele>393.0</ele><time>2026-04-19T11:17:11.599Z</time></trkpt><trkpt lat="42.1606083" lon="11.94011"><ele>393.0</ele><time>2026-04-19T11:17:12.599Z</time></trkpt><trkpt lat="42.160725" lon="11.9400667"><ele>393.0</ele><time>2026-04-19T11:17:13.599Z</time></trkpt><trkpt lat="42.1608483" lon="11.9400283"><ele>393.0</ele><time>2026-04-19T11:17:14.6Z</time></trkpt><trkpt lat="42.1609867" lon="11.940005"><ele>390.79999999999995</ele><time>2026-04-19T11:17:15.599Z</time></trkpt><trkpt lat="42.1611133" lon="11.9399867"><ele>388.6</ele><time>2026-04-19T11:17:16.599Z</time></trkpt><trkpt lat="42.161225" lon="11.93997"><ele>386.4</ele><time>2026-04-19T11:17:17.599Z</time></trkpt><trkpt lat="42.1613267" lon="11.93995"><ele>384.20000000000005</ele><time>2026-04-19T11:17:18.599Z</time></trkpt><trkpt lat="42.161415" lon="11.9399483"><ele>382.0</ele><time>2026-04-19T11:17:19.599Z</time></trkpt><trkpt lat="42.1615033" lon="11.939975"><ele>384.20000000000005</ele><time>2026-04-19T11:17:20.599Z</time></trkpt><trkpt lat="42.16158" lon="11.94005"><ele>386.4</ele><time>2026-04-19T11:17:21.599Z</time></trkpt><trkpt lat="42.1616417" lon="11.9401567"><ele>388.6</ele><time>2026-04-19T11:17:22.599Z</time></trkpt><trkpt lat="42.1616917" lon="11.94029"><ele>390.79999999999995</ele><time>2026-04-19T11:17:23.599Z</time></trkpt><trkpt lat="42.1617367" lon="11.94043"><ele>393.0</ele><time>2026-04-19T11:17:24.6Z</time></trkpt><trkpt lat="42.1617867" lon="11.940575"><ele>393.0</ele><time>2026-04-19T11:17:25.599Z</time></trkpt><trkpt lat="42.1618433" lon="11.9407167"><ele>393.0</ele><time>2026-04-19T11:17:26.599Z</time></trkpt><trkpt lat="42.16191" lon="11.94085"><ele>393.0</ele><time>2026-04-19T11:17:27.6Z</time></trkpt><trkpt lat="42.1620067" lon="11.9409833"><ele>393.0</ele><time>2026-04-19T11:17:28.599Z</time></trkpt><trkpt lat="42.16209" lon="11.9411233"><ele>392.2</ele><time>2026-04-19T11:17:29.599Z</time></trkpt><trkpt lat="42.16215" lon="11.9412617"><ele>391.4</ele><time>2026-04-19T11:17:30.599Z</time></trkpt><trkpt lat="42.1622033" lon="11.941385"><ele>390.59999999999997</ele><time>2026-04-19T11:17:31.599Z</time></trkpt><trkpt lat="42.1622483" lon="11.9415"><ele>389.79999999999995</ele><time>2026-04-19T11:17:32.599Z</time></trkpt><trkpt lat="42.1622833" lon="11.9416033"><ele>389.0</ele><time>2026-04-19T11:17:33.599Z</time></trkpt><trkpt lat="42.162325" lon="11.9417083"><ele>385.79999999999995</ele><time>2026-04-19T11:17:34.599Z</time></trkpt><trkpt lat="42.16235" lon="11.9418117"><ele>382.59999999999997</ele><time>2026-04-19T11:17:35.599Z</time></trkpt><trkpt lat="42.162375" lon="11.9419167"><ele>379.4</ele><time>2026-04-19T11:17:36.599Z</time></trkpt><trkpt lat="42.162385" lon="11.942085"><ele>376.2</ele><time>2026-04-19T11:17:38.599Z</time></trkpt><trkpt lat="42.1624133" lon="11.9421917"><ele>373.0</ele><time>2026-04-19T11:17:40.6Z</time></trkpt><trkpt lat="42.162505" lon="11.9422183"><ele>371.2</ele><time>2026-04-19T11:17:42.599Z</time></trkpt><trkpt lat="42.1625917" lon="11.9422033"><ele>369.4</ele><time>2026-04-19T11:17:43.599Z</time></trkpt><trkpt lat="42.1626917" lon="11.9421717"><ele>367.59999999999997</ele><time>2026-04-19T11:17:44.599Z</time></trkpt><trkpt lat="42.1628" lon="11.9421217"><ele>365.79999999999995</ele><time>2026-04-19T11:17:45.599Z</time></trkpt><trkpt lat="42.1629067" lon="11.9420433"><ele>364.0</ele><time>2026-04-19T11:17:46.6Z</time></trkpt><trkpt lat="42.1630167" lon="11.9419483"><ele>364.0</ele><time>2026-04-19T11:17:47.6Z</time></trkpt><trkpt lat="42.1631117" lon="11.9418533"><ele>364.0</ele><time>2026-04-19T11:17:48.599Z</time></trkpt><trkpt lat="42.1632067" lon="11.9417633"><ele>364.0</ele><time>2026-04-19T11:17:49.6Z</time></trkpt><trkpt lat="42.1633117" lon="11.9416817"><ele>364.0</ele><time>2026-04-19T11:17:50.599Z</time></trkpt><trkpt lat="42.163415" lon="11.9416217"><ele>362.4</ele><time>2026-04-19T11:17:51.599Z</time></trkpt><trkpt lat="42.1635167" lon="11.9415933"><ele>360.79999999999995</ele><time>2026-04-19T11:17:52.599Z</time></trkpt><trkpt lat="42.163625" lon="11.9415933"><ele>359.20000000000005</ele><time>2026-04-19T11:17:53.599Z</time></trkpt><trkpt lat="42.1637333" lon="11.9415983"><ele>357.6</ele><time>2026-04-19T11:17:54.599Z</time></trkpt><trkpt lat="42.1638367" lon="11.9416083"><ele>356.0</ele><time>2026-04-19T11:17:55.599Z</time></trkpt><trkpt lat="42.1639467" lon="11.9416467"><ele>355.25</ele><time>2026-04-19T11:17:56.599Z</time></trkpt><trkpt lat="42.164055" lon="11.9417117"><ele>354.5</ele><time>2026-04-19T11:17:57.599Z</time></trkpt><trkpt lat="42.1641633" lon="11.941775"><ele>353.75</ele><time>2026-04-19T11:17:58.6Z</time></trkpt><trkpt lat="42.164275" lon="11.94182"><ele>353.0</ele><time>2026-04-19T11:17:59.6Z</time></trkpt><trkpt lat="42.1643917" lon="11.9418483"><ele>353.0</ele><time>2026-04-19T11:18:00.599Z</time></trkpt><trkpt lat="42.16451" lon="11.94188"><ele>353.0</ele><time>2026-04-19T11:18:01.6Z</time></trkpt><trkpt lat="42.1646283" lon="11.9419133"><ele>353.0</ele><time>2026-04-19T11:18:02.599Z</time></trkpt><trkpt lat="42.1647383" lon="11.9419233"><ele>353.0</ele><time>2026-04-19T11:18:03.599Z</time></trkpt><trkpt lat="42.16485" lon="11.9419033"><ele>351.75</ele><time>2026-04-19T11:18:04.599Z</time></trkpt><trkpt lat="42.1649733" lon="11.9418533"><ele>350.5</ele><time>2026-04-19T11:18:05.6Z</time></trkpt><trkpt lat="42.1650983" lon="11.94178"><ele>349.25</ele><time>2026-04-19T11:18:06.599Z</time></trkpt><trkpt lat="42.16525" lon="11.9416933"><ele>348.0</ele><time>2026-04-19T11:18:07.599Z</time></trkpt><trkpt lat="42.1653983" lon="11.9416083"><ele>346.75</ele><time>2026-04-19T11:18:08.6Z</time></trkpt><trkpt lat="42.1655383" lon="11.9415417"><ele>345.5</ele><time>2026-04-19T11:18:09.599Z</time></trkpt><trkpt lat="42.16568" lon="11.9414933"><ele>344.25</ele><time>2026-04-19T11:18:10.599Z</time></trkpt><trkpt lat="42.1658067" lon="11.9414667"><ele>343.0</ele><time>2026-04-19T11:18:11.599Z</time></trkpt><trkpt lat="42.1659333" lon="11.9414483"><ele>343.0</ele><time>2026-04-19T11:18:12.6Z</time></trkpt><trkpt lat="42.1660533" lon="11.941425"><ele>343.0</ele><time>2026-04-19T11:18:13.599Z</time></trkpt><trkpt lat="42.16616" lon="11.9413833"><ele>343.0</ele><time>2026-04-19T11:18:14.599Z</time></trkpt><trkpt lat="42.166265" lon="11.94134"><ele>343.0</ele><time>2026-04-19T11:18:15.599Z</time></trkpt><trkpt lat="42.1663717" lon="11.941295"><ele>343.0</ele><time>2026-04-19T11:18:16.599Z</time></trkpt><trkpt lat="42.1664817" lon="11.94124"><ele>343.0</ele><time>2026-04-19T11:18:17.6Z</time></trkpt><trkpt lat="42.1666" lon="11.941185"><ele>343.0</ele><time>2026-04-19T11:18:18.599Z</time></trkpt><trkpt lat="42.1667217" lon="11.9411333"><ele>343.0</ele><time>2026-04-19T11:18:19.599Z</time></trkpt><trkpt lat="42.1668333" lon="11.9410983"><ele>344.0</ele><time>2026-04-19T11:18:20.599Z</time></trkpt><trkpt lat="42.166945" lon="11.9410817"><ele>345.0</ele><time>2026-04-19T11:18:21.599Z</time></trkpt><trkpt lat="42.1670567" lon="11.94107"><ele>346.0</ele><time>2026-04-19T11:18:22.599Z</time></trkpt><trkpt lat="42.167175" lon="11.941075"><ele>347.0</ele><time>2026-04-19T11:18:23.6Z</time></trkpt><trkpt lat="42.1672933" lon="11.9410917"><ele>346.5</ele><time>2026-04-19T11:18:24.599Z</time></trkpt><trkpt lat="42.1674117" lon="11.941115"><ele>346.0</ele><time>2026-04-19T11:18:25.599Z</time></trkpt><trkpt lat="42.16753" lon="11.9411567"><ele>345.5</ele><time>2026-04-19T11:18:26.599Z</time></trkpt><trkpt lat="42.1676533" lon="11.9411917"><ele>345.0</ele><time>2026-04-19T11:18:27.599Z</time></trkpt><trkpt lat="42.1677883" lon="11.9412183"><ele>345.0</ele><time>2026-04-19T11:18:28.6Z</time></trkpt><trkpt lat="42.167935" lon="11.9412417"><ele>345.0</ele><time>2026-04-19T11:18:29.599Z</time></trkpt><trkpt lat="42.16808" lon="11.9412483"><ele>345.0</ele><time>2026-04-19T11:18:30.599Z</time></trkpt><trkpt lat="42.16822" lon="11.9412283"><ele>345.0</ele><time>2026-04-19T11:18:31.599Z</time></trkpt><trkpt lat="42.1683667" lon="11.9411917"><ele>342.75</ele><time>2026-04-19T11:18:32.599Z</time></trkpt><trkpt lat="42.1685" lon="11.9411533"><ele>340.5</ele><time>2026-04-19T11:18:33.599Z</time></trkpt><trkpt lat="42.1686217" lon="11.9411267"><ele>338.25</ele><time>2026-04-19T11:18:34.6Z</time></trkpt><trkpt lat="42.1687433" lon="11.94114"><ele>336.0</ele><time>2026-04-19T11:18:35.599Z</time></trkpt><trkpt lat="42.1688733" lon="11.9411867"><ele>336.0</ele><time>2026-04-19T11:18:36.6Z</time></trkpt><trkpt lat="42.1689983" lon="11.9412533"><ele>336.0</ele><time>2026-04-19T11:18:37.599Z</time></trkpt><trkpt lat="42.1691233" lon="11.9413383"><ele>336.0</ele><time>2026-04-19T11:18:38.599Z</time></trkpt><trkpt lat="42.16925" lon="11.9414267"><ele>336.0</ele><time>2026-04-19T11:18:39.599Z</time></trkpt><trkpt lat="42.1693533" lon="11.941515"><ele>337.0</ele><time>2026-04-19T11:18:40.599Z</time></trkpt><trkpt lat="42.16946" lon="11.9416183"><ele>338.0</ele><time>2026-04-19T11:18:41.6Z</time></trkpt><trkpt lat="42.1695633" lon="11.9417517"><ele>339.0</ele><time>2026-04-19T11:18:42.6Z</time></trkpt><trkpt lat="42.1696483" lon="11.9418967"><ele>340.0</ele><time>2026-04-19T11:18:43.6Z</time></trkpt><trkpt lat="42.1697083" lon="11.942045"><ele>340.0</ele><time>2026-04-19T11:18:44.599Z</time></trkpt><trkpt lat="42.169745" lon="11.9421683"><ele>340.0</ele><time>2026-04-19T11:18:45.6Z</time></trkpt><trkpt lat="42.16977" lon="11.9422667"><ele>340.0</ele><time>2026-04-19T11:18:46.599Z</time></trkpt><trkpt lat="42.1698133" lon="11.9423567"><ele>340.0</ele><time>2026-04-19T11:18:48.599Z</time></trkpt><trkpt lat="42.1698517" lon="11.9424483"><ele>340.0</ele><time>2026-04-19T11:19:08.599Z</time></trkpt><trkpt lat="42.1698567" lon="11.9425417"><ele>340.0</ele><time>2026-04-19T11:19:10.599Z</time></trkpt><trkpt lat="42.1698683" lon="11.94264"><ele>340.0</ele><time>2026-04-19T11:19:12.599Z</time></trkpt><trkpt lat="42.1699" lon="11.9427317"><ele>340.0</ele><time>2026-04-19T11:19:14.599Z</time></trkpt><trkpt lat="42.1699533" lon="11.9428267"><ele>340.0</ele><time>2026-04-19T11:19:17.599Z</time></trkpt><trkpt lat="42.1698967" lon="11.9427867"><ele>340.0</ele><time>2026-04-19T11:19:53.598Z</time></trkpt><trkpt lat="42.1698667" lon="11.9427067"><ele>340.0</ele><time>2026-04-19T11:19:56.599Z</time></trkpt><trkpt lat="42.1698433" lon="11.94261"><ele>340.0</ele><time>2026-04-19T11:19:58.598Z</time></trkpt><trkpt lat="42.1698567" lon="11.9424933"><ele>337.8</ele><time>2026-04-19T11:20:00.598Z</time></trkpt><trkpt lat="42.1699383" lon="11.942425"><ele>335.6</ele><time>2026-04-19T11:20:02.598Z</time></trkpt><trkpt lat="42.1700167" lon="11.942445"><ele>333.4</ele><time>2026-04-19T11:20:03.598Z</time></trkpt><trkpt lat="42.170085" lon="11.9424883"><ele>331.2</ele><time>2026-04-19T11:20:04.599Z</time></trkpt><trkpt lat="42.1701617" lon="11.9425533"><ele>329.0</ele><time>2026-04-19T11:20:05.599Z</time></trkpt><trkpt lat="42.1702633" lon="11.9426283"><ele>329.0</ele><time>2026-04-19T11:20:06.598Z</time></trkpt><trkpt lat="42.1704" lon="11.94271"><ele>329.0</ele><time>2026-04-19T11:20:07.598Z</time></trkpt><trkpt lat="42.1705467" lon="11.9427783"><ele>329.0</ele><time>2026-04-19T11:20:08.598Z</time></trkpt><trkpt lat="42.1706983" lon="11.9428367"><ele>324.6666666666667</ele><time>2026-04-19T11:20:09.599Z</time></trkpt><trkpt lat="42.1708483" lon="11.94293"><ele>320.3333333333333</ele><time>2026-04-19T11:20:10.598Z</time></trkpt><trkpt lat="42.1709783" lon="11.9430817"><ele>316.0</ele><time>2026-04-19T11:20:11.598Z</time></trkpt><trkpt lat="42.171095" lon="11.9432167"><ele>316.0</ele><time>2026-04-19T11:20:12.598Z</time></trkpt><trkpt lat="42.1712183" lon="11.9433317"><ele>316.0</ele><time>2026-04-19T11:20:13.598Z</time></trkpt><trkpt lat="42.171335" lon="11.9434183"><ele>316.0</ele><time>2026-04-19T11:20:14.598Z</time></trkpt><trkpt lat="42.1714283" lon="11.94349"><ele>316.0</ele><time>2026-04-19T11:20:15.598Z</time></trkpt><trkpt lat="42.171525" lon="11.9435717"><ele>315.0</ele><time>2026-04-19T11:20:16.598Z</time></trkpt><trkpt lat="42.17163" lon="11.9436683"><ele>314.0</ele><time>2026-04-19T11:20:17.599Z</time></trkpt><trkpt lat="42.1717467" lon="11.9437833"><ele>313.0</ele><time>2026-04-19T11:20:18.598Z</time></trkpt><trkpt lat="42.1718333" lon="11.943935"><ele>312.0</ele><time>2026-04-19T11:20:19.598Z</time></trkpt><trkpt lat="42.171905" lon="11.9440883"><ele>313.0</ele><time>2026-04-19T11:20:20.598Z</time></trkpt><trkpt lat="42.17199" lon="11.9442433"><ele>314.0</ele><time>2026-04-19T11:20:21.598Z</time></trkpt><trkpt lat="42.172095" lon="11.9444"><ele>315.0</ele><time>2026-04-19T11:20:22.598Z</time></trkpt><trkpt lat="42.1722067" lon="11.944545"><ele>315.0</ele><time>2026-04-19T11:20:23.598Z</time></trkpt><trkpt lat="42.1723067" lon="11.9447033"><ele>315.0</ele><time>2026-04-19T11:20:24.598Z</time></trkpt><trkpt lat="42.1723833" lon="11.9448417"><ele>315.0</ele><time>2026-04-19T11:20:25.598Z</time></trkpt><trkpt lat="42.1724383" lon="11.94496"><ele>315.0</ele><time>2026-04-19T11:20:26.598Z</time></trkpt><trkpt lat="42.17248" lon="11.94506"><ele>314.8333333333333</ele><time>2026-04-19T11:20:27.598Z</time></trkpt><trkpt lat="42.1725167" lon="11.9451433"><ele>314.6666666666667</ele><time>2026-04-19T11:20:28.598Z</time></trkpt><trkpt lat="42.1725517" lon="11.9452217"><ele>314.5</ele><time>2026-04-19T11:20:29.598Z</time></trkpt><trkpt lat="42.172615" lon="11.945345"><ele>314.33333333333337</ele><time>2026-04-19T11:20:31.599Z</time></trkpt><trkpt lat="42.1726883" lon="11.9453733"><ele>314.1666666666667</ele><time>2026-04-19T11:20:34.598Z</time></trkpt><trkpt lat="42.1727" lon="11.9452333"><ele>314.0</ele><time>2026-04-19T11:20:37.598Z</time></trkpt><trkpt lat="42.172685" lon="11.94515"><ele>316.75</ele><time>2026-04-19T11:20:38.599Z</time></trkpt><trkpt lat="42.172655" lon="11.9450283"><ele>319.5</ele><time>2026-04-19T11:20:39.599Z</time></trkpt><trkpt lat="42.1726183" lon="11.9448533"><ele>322.25</ele><time>2026-04-19T11:20:40.599Z</time></trkpt><trkpt lat="42.17259" lon="11.9446783"><ele>325.0</ele><time>2026-04-19T11:20:41.599Z</time></trkpt><trkpt lat="42.1725867" lon="11.9445483"><ele>325.0</ele><time>2026-04-19T11:20:42.598Z</time></trkpt><trkpt lat="42.17263" lon="11.9444367"><ele>325.0</ele><time>2026-04-19T11:20:44.598Z</time></trkpt><trkpt lat="42.1727317" lon="11.94443"><ele>325.0</ele><time>2026-04-19T11:20:46.599Z</time></trkpt><trkpt lat="42.1727983" lon="11.944475"><ele>325.0</ele><time>2026-04-19T11:20:47.598Z</time></trkpt><trkpt lat="42.1728567" lon="11.9445517"><ele>325.0</ele><time>2026-04-19T11:20:48.598Z</time></trkpt><trkpt lat="42.1729067" lon="11.9446733"><ele>325.0</ele><time>2026-04-19T11:20:49.598Z</time></trkpt><trkpt lat="42.17295" lon="11.9448283"><ele>325.0</ele><time>2026-04-19T11:20:50.598Z</time></trkpt><trkpt lat="42.173005" lon="11.944965"><ele>325.0</ele><time>2026-04-19T11:20:51.598Z</time></trkpt><trkpt lat="42.173075" lon="11.9450717"><ele>325.0</ele><time>2026-04-19T11:20:52.598Z</time></trkpt><trkpt lat="42.17315" lon="11.94514"><ele>325.0</ele><time>2026-04-19T11:20:53.599Z</time></trkpt><trkpt lat="42.1732283" lon="11.9451867"><ele>327.5</ele><time>2026-04-19T11:20:54.598Z</time></trkpt><trkpt lat="42.1733217" lon="11.9452267"><ele>330.0</ele><time>2026-04-19T11:20:55.598Z</time></trkpt><trkpt lat="42.1734333" lon="11.9452633"><ele>332.5</ele><time>2026-04-19T11:20:56.598Z</time></trkpt><trkpt lat="42.1735733" lon="11.9453117"><ele>335.0</ele><time>2026-04-19T11:20:57.599Z</time></trkpt><trkpt lat="42.1737367" lon="11.9453633"><ele>335.0</ele><time>2026-04-19T11:20:58.598Z</time></trkpt><trkpt lat="42.1739017" lon="11.9454183"><ele>335.0</ele><time>2026-04-19T11:20:59.599Z</time></trkpt><trkpt lat="42.17407" lon="11.9454917"><ele>335.0</ele><time>2026-04-19T11:21:00.598Z</time></trkpt><trkpt lat="42.1742333" lon="11.945565"><ele>341.6666666666667</ele><time>2026-04-19T11:21:01.599Z</time></trkpt><trkpt lat="42.17439" lon="11.9456467"><ele>348.3333333333333</ele><time>2026-04-19T11:21:02.598Z</time></trkpt><trkpt lat="42.17453" lon="11.94573"><ele>355.0</ele><time>2026-04-19T11:21:03.599Z</time></trkpt><trkpt lat="42.1746483" lon="11.945825"><ele>355.8</ele><time>2026-04-19T11:21:04.599Z</time></trkpt><trkpt lat="42.1747417" lon="11.9459217"><ele>356.6</ele><time>2026-04-19T11:21:05.598Z</time></trkpt><trkpt lat="42.1748233" lon="11.94602"><ele>357.4</ele><time>2026-04-19T11:21:06.598Z</time></trkpt><trkpt lat="42.1748767" lon="11.94614"><ele>358.2</ele><time>2026-04-19T11:21:07.599Z</time></trkpt><trkpt lat="42.1749183" lon="11.9462367"><ele>359.0</ele><time>2026-04-19T11:21:08.598Z</time></trkpt><trkpt lat="42.174965" lon="11.9463017"><ele>363.0</ele><time>2026-04-19T11:21:09.598Z</time></trkpt><trkpt lat="42.1750567" lon="11.9462967"><ele>367.0</ele><time>2026-04-19T11:21:11.598Z</time></trkpt><trkpt lat="42.175155" lon="11.9461867"><ele>371.0</ele><time>2026-04-19T11:21:13.599Z</time></trkpt><trkpt lat="42.175215" lon="11.9460733"><ele>375.0</ele><time>2026-04-19T11:21:14.598Z</time></trkpt><trkpt lat="42.175285" lon="11.94593"><ele>374.2</ele><time>2026-04-19T11:21:15.598Z</time></trkpt><trkpt lat="42.17535" lon="11.9457733"><ele>373.4</ele><time>2026-04-19T11:21:16.598Z</time></trkpt><trkpt lat="42.175415" lon="11.9456717"><ele>372.6</ele><time>2026-04-19T11:21:17.599Z</time></trkpt><trkpt lat="42.1754867" lon="11.9456083"><ele>371.8</ele><time>2026-04-19T11:21:18.598Z</time></trkpt><trkpt lat="42.1755733" lon="11.9455467"><ele>371.0</ele><time>2026-04-19T11:21:19.598Z</time></trkpt><trkpt lat="42.175675" lon="11.945475"><ele>375.0</ele><time>2026-04-19T11:21:20.598Z</time></trkpt><trkpt lat="42.17578" lon="11.9453783"><ele>379.0</ele><time>2026-04-19T11:21:21.598Z</time></trkpt><trkpt lat="42.175875" lon="11.945255"><ele>383.0</ele><time>2026-04-19T11:21:22.598Z</time></trkpt><trkpt lat="42.17598" lon="11.94511"><ele>387.0</ele><time>2026-04-19T11:21:23.598Z</time></trkpt><trkpt lat="42.1760617" lon="11.94498"><ele>388.20000000000005</ele><time>2026-04-19T11:21:24.598Z</time></trkpt><trkpt lat="42.1761267" lon="11.94487"><ele>389.4</ele><time>2026-04-19T11:21:25.598Z</time></trkpt><trkpt lat="42.1761767" lon="11.94476"><ele>390.6</ele><time>2026-04-19T11:21:26.599Z</time></trkpt><trkpt lat="42.1762017" lon="11.9446383"><ele>391.79999999999995</ele><time>2026-04-19T11:21:27.598Z</time></trkpt><trkpt lat="42.1761883" lon="11.9444967"><ele>393.0</ele><time>2026-04-19T11:21:28.598Z</time></trkpt><trkpt lat="42.17616" lon="11.9443367"><ele>394.66666666666663</ele><time>2026-04-19T11:21:29.598Z</time></trkpt><trkpt lat="42.176085" lon="11.94416"><ele>396.3333333333333</ele><time>2026-04-19T11:21:30.598Z</time></trkpt><trkpt lat="42.176" lon="11.94396"><ele>398.0</ele><time>2026-04-19T11:21:31.598Z</time></trkpt><trkpt lat="42.1759083" lon="11.9437333"><ele>398.0</ele><time>2026-04-19T11:21:32.598Z</time></trkpt><trkpt lat="42.1758483" lon="11.9435067"><ele>398.0</ele><time>2026-04-19T11:21:33.598Z</time></trkpt><trkpt lat="42.17581" lon="11.9433083"><ele>398.0</ele><time>2026-04-19T11:21:34.598Z</time></trkpt><trkpt lat="42.1758033" lon="11.9431267"><ele>399.0</ele><time>2026-04-19T11:21:35.598Z</time></trkpt><trkpt lat="42.17581" lon="11.9429483"><ele>400.0</ele><time>2026-04-19T11:21:36.599Z</time></trkpt><trkpt lat="42.17586" lon="11.9427833"><ele>401.0</ele><time>2026-04-19T11:21:37.598Z</time></trkpt><trkpt lat="42.17591" lon="11.9426283"><ele>402.0</ele><time>2026-04-19T11:21:38.598Z</time></trkpt><trkpt lat="42.175995" lon="11.9424867"><ele>402.0</ele><time>2026-04-19T11:21:39.598Z</time></trkpt><trkpt lat="42.1760967" lon="11.9423467"><ele>402.0</ele><time>2026-04-19T11:21:40.598Z</time></trkpt><trkpt lat="42.1762133" lon="11.9422267"><ele>402.0</ele><time>2026-04-19T11:21:41.598Z</time></trkpt><trkpt lat="42.176345" lon="11.9421183"><ele>402.0</ele><time>2026-04-19T11:21:42.598Z</time></trkpt><trkpt lat="42.1765083" lon="11.9420417"><ele>404.0</ele><time>2026-04-19T11:21:43.599Z</time></trkpt><trkpt lat="42.1766767" lon="11.94199"><ele>406.0</ele><time>2026-04-19T11:21:44.598Z</time></trkpt><trkpt lat="42.1768133" lon="11.941975"><ele>408.0</ele><time>2026-04-19T11:21:45.598Z</time></trkpt><trkpt lat="42.176935" lon="11.941975"><ele>410.0</ele><time>2026-04-19T11:21:46.598Z</time></trkpt><trkpt lat="42.177045" lon="11.9419783"><ele>410.0</ele><time>2026-04-19T11:21:47.598Z</time></trkpt><trkpt lat="42.1771533" lon="11.9419867"><ele>410.0</ele><time>2026-04-19T11:21:48.598Z</time></trkpt><trkpt lat="42.1772633" lon="11.94201"><ele>410.0</ele><time>2026-04-19T11:21:49.598Z</time></trkpt><trkpt lat="42.1773867" lon="11.9420333"><ele>410.0</ele><time>2026-04-19T11:21:50.599Z</time></trkpt><trkpt lat="42.1775183" lon="11.9420583"><ele>409.75</ele><time>2026-04-19T11:21:51.598Z</time></trkpt><trkpt lat="42.1776617" lon="11.94208"><ele>409.5</ele><time>2026-04-19T11:21:52.599Z</time></trkpt><trkpt lat="42.1777883" lon="11.9420983"><ele>409.25</ele><time>2026-04-19T11:21:53.599Z</time></trkpt><trkpt lat="42.177915" lon="11.9421167"><ele>409.0</ele><time>2026-04-19T11:21:54.598Z</time></trkpt><trkpt lat="42.1780333" lon="11.94214"><ele>409.0</ele><time>2026-04-19T11:21:55.598Z</time></trkpt><trkpt lat="42.1781383" lon="11.9421517"><ele>409.0</ele><time>2026-04-19T11:21:56.598Z</time></trkpt><trkpt lat="42.17823" lon="11.94216"><ele>409.0</ele><time>2026-04-19T11:21:57.598Z</time></trkpt><trkpt lat="42.1783183" lon="11.94217"><ele>409.0</ele><time>2026-04-19T11:21:58.598Z</time></trkpt><trkpt lat="42.1784067" lon="11.9421733"><ele>409.0</ele><time>2026-04-19T11:21:59.598Z</time></trkpt><trkpt lat="42.178495" lon="11.9421733"><ele>410.4</ele><time>2026-04-19T11:22:00.598Z</time></trkpt><trkpt lat="42.1785867" lon="11.9421783"><ele>411.79999999999995</ele><time>2026-04-19T11:22:01.598Z</time></trkpt><trkpt lat="42.1786717" lon="11.9421767"><ele>413.20000000000005</ele><time>2026-04-19T11:22:02.598Z</time></trkpt><trkpt lat="42.1787633" lon="11.9421783"><ele>414.6</ele><time>2026-04-19T11:22:03.599Z</time></trkpt><trkpt lat="42.1788533" lon="11.94218"><ele>416.0</ele><time>2026-04-19T11:22:04.598Z</time></trkpt><trkpt lat="42.1789583" lon="11.9421733"><ele>417.4</ele><time>2026-04-19T11:22:05.598Z</time></trkpt><trkpt lat="42.1790667" lon="11.9421717"><ele>418.8</ele><time>2026-04-19T11:22:06.598Z</time></trkpt><trkpt lat="42.17916" lon="11.9421733"><ele>420.2</ele><time>2026-04-19T11:22:07.598Z</time></trkpt><trkpt lat="42.17926" lon="11.9421733"><ele>421.59999999999997</ele><time>2026-04-19T11:22:08.598Z</time></trkpt><trkpt lat="42.17937" lon="11.9421783"><ele>423.0</ele><time>2026-04-19T11:22:09.598Z</time></trkpt><trkpt lat="42.17948" lon="11.9421967"><ele>423.0</ele><time>2026-04-19T11:22:10.598Z</time></trkpt><trkpt lat="42.179605" lon="11.9422067"><ele>423.0</ele><time>2026-04-19T11:22:11.598Z</time></trkpt><trkpt lat="42.1797333" lon="11.9421983"><ele>423.0</ele><time>2026-04-19T11:22:12.599Z</time></trkpt><trkpt lat="42.179875" lon="11.942185"><ele>423.0</ele><time>2026-04-19T11:22:13.598Z</time></trkpt><trkpt lat="42.1800233" lon="11.94216"><ele>425.5</ele><time>2026-04-19T11:22:14.598Z</time></trkpt><trkpt lat="42.18016" lon="11.9421267"><ele>428.0</ele><time>2026-04-19T11:22:15.598Z</time></trkpt><trkpt lat="42.1802883" lon="11.942095"><ele>430.5</ele><time>2026-04-19T11:22:16.598Z</time></trkpt><trkpt lat="42.180415" lon="11.9420667"><ele>433.0</ele><time>2026-04-19T11:22:17.598Z</time></trkpt><trkpt lat="42.1805483" lon="11.9420333"><ele>433.0</ele><time>2026-04-19T11:22:18.598Z</time></trkpt><trkpt lat="42.1806733" lon="11.942"><ele>433.0</ele><time>2026-04-19T11:22:19.599Z</time></trkpt><trkpt lat="42.1807917" lon="11.941965"><ele>433.0</ele><time>2026-04-19T11:22:20.598Z</time></trkpt><trkpt lat="42.1809017" lon="11.9419233"><ele>433.0</ele><time>2026-04-19T11:22:21.598Z</time></trkpt><trkpt lat="42.1809967" lon="11.9418917"><ele>435.0</ele><time>2026-04-19T11:22:22.598Z</time></trkpt><trkpt lat="42.1810883" lon="11.94186"><ele>436.99999999999994</ele><time>2026-04-19T11:22:23.598Z</time></trkpt><trkpt lat="42.18117" lon="11.9418367"><ele>438.99999999999994</ele><time>2026-04-19T11:22:24.598Z</time></trkpt><trkpt lat="42.1812767" lon="11.9417967"><ele>441.0</ele><time>2026-04-19T11:22:26.599Z</time></trkpt><trkpt lat="42.1813517" lon="11.9417483"><ele>443.0</ele><time>2026-04-19T11:22:28.598Z</time></trkpt><trkpt lat="42.181435" lon="11.94172"><ele>444.59999999999997</ele><time>2026-04-19T11:22:30.598Z</time></trkpt><trkpt lat="42.1815317" lon="11.9417167"><ele>446.19999999999993</ele><time>2026-04-19T11:22:32.598Z</time></trkpt><trkpt lat="42.181625" lon="11.9417433"><ele>447.8</ele><time>2026-04-19T11:22:34.598Z</time></trkpt><trkpt lat="42.18172" lon="11.9417683"><ele>449.4</ele><time>2026-04-19T11:22:36.598Z</time></trkpt><trkpt lat="42.1818067" lon="11.9417917"><ele>451.0</ele><time>2026-04-19T11:22:38.599Z</time></trkpt><trkpt lat="42.181885" lon="11.94181"><ele>451.0</ele><time>2026-04-19T11:22:40.598Z</time></trkpt><trkpt lat="42.1819767" lon="11.9418433"><ele>451.0</ele><time>2026-04-19T11:22:42.598Z</time></trkpt><trkpt lat="42.1820433" lon="11.9419017"><ele>451.0</ele><time>2026-04-19T11:22:45.598Z</time></trkpt><trkpt lat="42.18193" lon="11.9418533"><ele>451.0</ele><time>2026-04-19T11:22:57.598Z</time></trkpt><trkpt lat="42.181845" lon="11.94181"><ele>451.0</ele><time>2026-04-19T11:22:58.597Z</time></trkpt><trkpt lat="42.1817467" lon="11.9417783"><ele>451.0</ele><time>2026-04-19T11:22:59.597Z</time></trkpt><trkpt lat="42.1816383" lon="11.9417433"><ele>451.0</ele><time>2026-04-19T11:23:00.597Z</time></trkpt><trkpt lat="42.1815533" lon="11.94173"><ele>451.0</ele><time>2026-04-19T11:23:01.597Z</time></trkpt><trkpt lat="42.1814567" lon="11.941745"><ele>451.0</ele><time>2026-04-19T11:23:02.597Z</time></trkpt><trkpt lat="42.1813517" lon="11.9417733"><ele>451.0</ele><time>2026-04-19T11:23:03.597Z</time></trkpt><trkpt lat="42.1812633" lon="11.9418033"><ele>449.6666666666667</ele><time>2026-04-19T11:23:04.597Z</time></trkpt><trkpt lat="42.181195" lon="11.9418233"><ele>448.33333333333337</ele><time>2026-04-19T11:23:05.597Z</time></trkpt><trkpt lat="42.18111" lon="11.941825"><ele>447.0</ele><time>2026-04-19T11:23:07.598Z</time></trkpt><trkpt lat="42.1811533" lon="11.941705"><ele>445.66666666666663</ele><time>2026-04-19T11:23:10.598Z</time></trkpt><trkpt lat="42.1812133" lon="11.941675"><ele>444.3333333333333</ele><time>2026-04-19T11:23:11.597Z</time></trkpt><trkpt lat="42.1812917" lon="11.9416533"><ele>443.0</ele><time>2026-04-19T11:23:12.597Z</time></trkpt><trkpt lat="42.18138" lon="11.941625"><ele>442.3333333333333</ele><time>2026-04-19T11:23:13.598Z</time></trkpt><trkpt lat="42.18147" lon="11.941605"><ele>441.66666666666663</ele><time>2026-04-19T11:23:14.598Z</time></trkpt><trkpt lat="42.1815517" lon="11.9415983"><ele>441.0</ele><time>2026-04-19T11:23:15.598Z</time></trkpt><trkpt lat="42.1816267" lon="11.9415867"><ele>440.33333333333337</ele><time>2026-04-19T11:23:16.597Z</time></trkpt><trkpt lat="42.1817" lon="11.94157"><ele>439.6666666666667</ele><time>2026-04-19T11:23:17.597Z</time></trkpt><trkpt lat="42.181775" lon="11.94153"><ele>439.0</ele><time>2026-04-19T11:23:18.598Z</time></trkpt><trkpt lat="42.1818517" lon="11.9414667"><ele>439.0</ele><time>2026-04-19T11:23:19.597Z</time></trkpt><trkpt lat="42.1819433" lon="11.9413833"><ele>439.0</ele><time>2026-04-19T11:23:20.597Z</time></trkpt><trkpt lat="42.1820417" lon="11.9412983"><ele>439.0</ele><time>2026-04-19T11:23:21.597Z</time></trkpt><trkpt lat="42.1821317" lon="11.9412233"><ele>439.0</ele><time>2026-04-19T11:23:22.597Z</time></trkpt><trkpt lat="42.182235" lon="11.941145"><ele>439.0</ele><time>2026-04-19T11:23:23.597Z</time></trkpt><trkpt lat="42.1823467" lon="11.941075"><ele>439.0</ele><time>2026-04-19T11:23:24.597Z</time></trkpt><trkpt lat="42.1824433" lon="11.9410183"><ele>439.0</ele><time>2026-04-19T11:23:25.598Z</time></trkpt><trkpt lat="42.1825383" lon="11.9409633"><ele>439.0</ele><time>2026-04-19T11:23:26.598Z</time></trkpt><trkpt lat="42.1826217" lon="11.9409183"><ele>439.0</ele><time>2026-04-19T11:23:27.597Z</time></trkpt><trkpt lat="42.1827" lon="11.94086"><ele>438.0</ele><time>2026-04-19T11:23:28.597Z</time></trkpt><trkpt lat="42.18278" lon="11.9407933"><ele>437.0</ele><time>2026-04-19T11:23:29.597Z</time></trkpt><trkpt lat="42.18286" lon="11.94071"><ele>436.0</ele><time>2026-04-19T11:23:30.598Z</time></trkpt><trkpt lat="42.182945" lon="11.9406317"><ele>435.0</ele><time>2026-04-19T11:23:31.598Z</time></trkpt><trkpt lat="42.183045" lon="11.94057"><ele>434.0</ele><time>2026-04-19T11:23:32.597Z</time></trkpt><trkpt lat="42.1831383" lon="11.9405183"><ele>431.66666666666663</ele><time>2026-04-19T11:23:33.597Z</time></trkpt><trkpt lat="42.1832267" lon="11.940495"><ele>429.3333333333333</ele><time>2026-04-19T11:23:34.597Z</time></trkpt><trkpt lat="42.183305" lon="11.9404983"><ele>427.0</ele><time>2026-04-19T11:23:35.597Z</time></trkpt><trkpt lat="42.18337" lon="11.9405333"><ele>424.66666666666663</ele><time>2026-04-19T11:23:36.597Z</time></trkpt><trkpt lat="42.1834467" lon="11.9405867"><ele>422.3333333333333</ele><time>2026-04-19T11:23:37.597Z</time></trkpt><trkpt lat="42.18352" lon="11.940605"><ele>420.0</ele><time>2026-04-19T11:23:38.598Z</time></trkpt><trkpt lat="42.1836" lon="11.94061"><ele>420.0</ele><time>2026-04-19T11:23:39.597Z</time></trkpt><trkpt lat="42.18368" lon="11.9406033"><ele>420.0</ele><time>2026-04-19T11:23:40.598Z</time></trkpt><trkpt lat="42.1837617" lon="11.9405817"><ele>420.0</ele><time>2026-04-19T11:23:41.597Z</time></trkpt><trkpt lat="42.183845" lon="11.9405417"><ele>420.0</ele><time>2026-04-19T11:23:42.597Z</time></trkpt><trkpt lat="42.1839317" lon="11.940505"><ele>420.0</ele><time>2026-04-19T11:23:43.598Z</time></trkpt><trkpt lat="42.1840083" lon="11.940475"><ele>420.0</ele><time>2026-04-19T11:23:44.598Z</time></trkpt><trkpt lat="42.1840867" lon="11.9404417"><ele>418.0</ele><time>2026-04-19T11:23:45.598Z</time></trkpt><trkpt lat="42.1841633" lon="11.9404017"><ele>416.0</ele><time>2026-04-19T11:23:46.598Z</time></trkpt><trkpt lat="42.1842367" lon="11.9403567"><ele>414.0</ele><time>2026-04-19T11:23:47.598Z</time></trkpt><trkpt lat="42.1843067" lon="11.9403083"><ele>412.0</ele><time>2026-04-19T11:23:48.597Z</time></trkpt><trkpt lat="42.184375" lon="11.9402617"><ele>410.0</ele><time>2026-04-19T11:23:49.597Z</time></trkpt><trkpt lat="42.184445" lon="11.940225"><ele>408.0</ele><time>2026-04-19T11:23:50.597Z</time></trkpt><trkpt lat="42.184525" lon="11.94018"><ele>408.0</ele><time>2026-04-19T11:23:51.597Z</time></trkpt><trkpt lat="42.1845967" lon="11.940145"><ele>408.0</ele><time>2026-04-19T11:23:52.597Z</time></trkpt><trkpt lat="42.18465" lon="11.9400917"><ele>408.0</ele><time>2026-04-19T11:23:53.597Z</time></trkpt><trkpt lat="42.184695" lon="11.9400217"><ele>408.0</ele><time>2026-04-19T11:23:54.597Z</time></trkpt><trkpt lat="42.1847383" lon="11.93993"><ele>408.0</ele><time>2026-04-19T11:23:55.597Z</time></trkpt><trkpt lat="42.1847683" lon="11.9398217"><ele>408.0</ele><time>2026-04-19T11:23:56.597Z</time></trkpt><trkpt lat="42.1847967" lon="11.939715"><ele>411.6666666666667</ele><time>2026-04-19T11:23:57.597Z</time></trkpt><trkpt lat="42.1848133" lon="11.9395967"><ele>415.33333333333337</ele><time>2026-04-19T11:23:58.597Z</time></trkpt><trkpt lat="42.18481" lon="11.9394983"><ele>419.0</ele><time>2026-04-19T11:23:59.597Z</time></trkpt><trkpt lat="42.1848133" lon="11.93939"><ele>422.6666666666667</ele><time>2026-04-19T11:24:00.597Z</time></trkpt><trkpt lat="42.184805" lon="11.93929"><ele>426.33333333333337</ele><time>2026-04-19T11:24:01.597Z</time></trkpt><trkpt lat="42.1847917" lon="11.9391983"><ele>430.0</ele><time>2026-04-19T11:24:02.597Z</time></trkpt><trkpt lat="42.1847617" lon="11.9390483"><ele>432.4</ele><time>2026-04-19T11:24:04.598Z</time></trkpt><trkpt lat="42.1847617" lon="11.93889"><ele>434.8</ele><time>2026-04-19T11:24:06.597Z</time></trkpt><trkpt lat="42.184795" lon="11.9387783"><ele>437.20000000000005</ele><time>2026-04-19T11:24:08.598Z</time></trkpt><trkpt lat="42.18488" lon="11.9386883"><ele>439.6</ele><time>2026-04-19T11:24:10.597Z</time></trkpt><trkpt lat="42.184955" lon="11.93867"><ele>442.0</ele><time>2026-04-19T11:24:11.597Z</time></trkpt><trkpt lat="42.185045" lon="11.9386867"><ele>434.6</ele><time>2026-04-19T11:24:12.597Z</time></trkpt><trkpt lat="42.185135" lon="11.9387017"><ele>427.20000000000005</ele><time>2026-04-19T11:24:13.597Z</time></trkpt><trkpt lat="42.1852333" lon="11.93871"><ele>419.8</ele><time>2026-04-19T11:24:14.597Z</time></trkpt><trkpt lat="42.1853267" lon="11.9386967"><ele>412.4</ele><time>2026-04-19T11:24:15.597Z</time></trkpt><trkpt lat="42.1854267" lon="11.9386617"><ele>405.0</ele><time>2026-04-19T11:24:16.597Z</time></trkpt><trkpt lat="42.185525" lon="11.938605"><ele>405.0</ele><time>2026-04-19T11:24:17.597Z</time></trkpt><trkpt lat="42.1856167" lon="11.938535"><ele>405.0</ele><time>2026-04-19T11:24:18.597Z</time></trkpt><trkpt lat="42.18569" lon="11.9385"><ele>405.0</ele><time>2026-04-19T11:24:19.598Z</time></trkpt><trkpt lat="42.1857717" lon="11.9384717"><ele>405.0</ele><time>2026-04-19T11:24:20.597Z</time></trkpt><trkpt lat="42.1858517" lon="11.9384483"><ele>405.0</ele><time>2026-04-19T11:24:21.597Z</time></trkpt><trkpt lat="42.1859333" lon="11.9384267"><ele>405.0</ele><time>2026-04-19T11:24:22.597Z</time></trkpt><trkpt lat="42.1860117" lon="11.93843"><ele>403.1666666666667</ele><time>2026-04-19T11:24:23.597Z</time></trkpt><trkpt lat="42.1861033" lon="11.93845"><ele>401.33333333333337</ele><time>2026-04-19T11:24:24.598Z</time></trkpt><trkpt lat="42.18618" lon="11.9384917"><ele>399.5</ele><time>2026-04-19T11:24:25.597Z</time></trkpt><trkpt lat="42.1862133" lon="11.9385767"><ele>397.6666666666667</ele><time>2026-04-19T11:24:26.597Z</time></trkpt><trkpt lat="42.186245" lon="11.9386867"><ele>395.83333333333337</ele><time>2026-04-19T11:24:27.597Z</time></trkpt><trkpt lat="42.1862817" lon="11.9388333"><ele>394.0</ele><time>2026-04-19T11:24:28.598Z</time></trkpt><trkpt lat="42.18634" lon="11.9389817"><ele>394.0</ele><time>2026-04-19T11:24:29.597Z</time></trkpt><trkpt lat="42.1863983" lon="11.939115"><ele>394.0</ele><time>2026-04-19T11:24:30.597Z</time></trkpt><trkpt lat="42.1864533" lon="11.93925"><ele>394.0</ele><time>2026-04-19T11:24:31.598Z</time></trkpt><trkpt lat="42.1865083" lon="11.9393533"><ele>394.0</ele><time>2026-04-19T11:24:32.598Z</time></trkpt><trkpt lat="42.1865483" lon="11.939425"><ele>394.0</ele><time>2026-04-19T11:24:33.597Z</time></trkpt><trkpt lat="42.1866033" lon="11.9394767"><ele>392.50000000000006</ele><time>2026-04-19T11:24:34.598Z</time></trkpt><trkpt lat="42.1866633" lon="11.939515"><ele>391.0</ele><time>2026-04-19T11:24:35.597Z</time></trkpt><trkpt lat="42.1867417" lon="11.9395483"><ele>389.5</ele><time>2026-04-19T11:24:36.597Z</time></trkpt><trkpt lat="42.1868333" lon="11.9395733"><ele>388.0</ele><time>2026-04-19T11:24:37.597Z</time></trkpt><trkpt lat="42.186925" lon="11.939595"><ele>386.50000000000006</ele><time>2026-04-19T11:24:38.597Z</time></trkpt><trkpt lat="42.1870067" lon="11.93959"><ele>385.0</ele><time>2026-04-19T11:24:39.597Z</time></trkpt><trkpt lat="42.18707" lon="11.9395617"><ele>385.00000000000006</ele><time>2026-04-19T11:24:40.597Z</time></trkpt><trkpt lat="42.1871617" lon="11.9394983"><ele>385.0</ele><time>2026-04-19T11:24:42.597Z</time></trkpt><trkpt lat="42.18721" lon="11.9394133"><ele>385.0</ele><time>2026-04-19T11:24:44.597Z</time></trkpt><trkpt lat="42.1872417" lon="11.939285"><ele>385.0</ele><time>2026-04-19T11:24:46.597Z</time></trkpt><trkpt lat="42.1872517" lon="11.9391833"><ele>385.00000000000006</ele><time>2026-04-19T11:24:47.597Z</time></trkpt><trkpt lat="42.1872533" lon="11.9390717"><ele>385.0</ele><time>2026-04-19T11:24:48.597Z</time></trkpt><trkpt lat="42.1872533" lon="11.9389433"><ele>388.1666666666667</ele><time>2026-04-19T11:24:49.597Z</time></trkpt><trkpt lat="42.187255" lon="11.9388267"><ele>391.33333333333337</ele><time>2026-04-19T11:24:50.597Z</time></trkpt><trkpt lat="42.1872567" lon="11.9387017"><ele>394.5</ele><time>2026-04-19T11:24:51.597Z</time></trkpt><trkpt lat="42.1872633" lon="11.938585"><ele>397.66666666666663</ele><time>2026-04-19T11:24:52.597Z</time></trkpt><trkpt lat="42.18728" lon="11.9384617"><ele>400.8333333333333</ele><time>2026-04-19T11:24:53.598Z</time></trkpt><trkpt lat="42.1872883" lon="11.93834"><ele>404.0</ele><time>2026-04-19T11:24:54.597Z</time></trkpt><trkpt lat="42.18728" lon="11.938215"><ele>404.7142857142857</ele><time>2026-04-19T11:24:55.597Z</time></trkpt><trkpt lat="42.18729" lon="11.9381083"><ele>405.42857142857144</ele><time>2026-04-19T11:24:56.597Z</time></trkpt><trkpt lat="42.1872883" lon="11.9380117"><ele>406.1428571428571</ele><time>2026-04-19T11:24:57.597Z</time></trkpt><trkpt lat="42.1872833" lon="11.9379167"><ele>406.8571428571429</ele><time>2026-04-19T11:24:58.597Z</time></trkpt><trkpt lat="42.1872683" lon="11.9378267"><ele>407.5714285714286</ele><time>2026-04-19T11:24:59.597Z</time></trkpt><trkpt lat="42.1872433" lon="11.9377467"><ele>408.2857142857143</ele><time>2026-04-19T11:25:00.597Z</time></trkpt><trkpt lat="42.1871983" lon="11.9376683"><ele>409.0</ele><time>2026-04-19T11:25:01.597Z</time></trkpt><trkpt lat="42.1871433" lon="11.9376017"><ele>408.0</ele><time>2026-04-19T11:25:02.598Z</time></trkpt><trkpt lat="42.18709" lon="11.9375467"><ele>407.0</ele><time>2026-04-19T11:25:03.598Z</time></trkpt><trkpt lat="42.18703" lon="11.9374983"><ele>406.0</ele><time>2026-04-19T11:25:04.597Z</time></trkpt><trkpt lat="42.1869667" lon="11.9374517"><ele>405.0</ele><time>2026-04-19T11:25:05.598Z</time></trkpt><trkpt lat="42.1869083" lon="11.9374017"><ele>404.0</ele><time>2026-04-19T11:25:06.597Z</time></trkpt><trkpt lat="42.1868483" lon="11.937345"><ele>403.0</ele><time>2026-04-19T11:25:07.597Z</time></trkpt><trkpt lat="42.1868083" lon="11.937275"><ele>402.0</ele><time>2026-04-19T11:25:08.597Z</time></trkpt><trkpt lat="42.18678" lon="11.937185"><ele>402.0</ele><time>2026-04-19T11:25:09.598Z</time></trkpt><trkpt lat="42.186765" lon="11.9370733"><ele>402.0</ele><time>2026-04-19T11:25:10.597Z</time></trkpt><trkpt lat="42.186765" lon="11.9369417"><ele>402.0</ele><time>2026-04-19T11:25:11.598Z</time></trkpt><trkpt lat="42.1867983" lon="11.9368133"><ele>402.0</ele><time>2026-04-19T11:25:12.598Z</time></trkpt><trkpt lat="42.186855" lon="11.9366733"><ele>402.0</ele><time>2026-04-19T11:25:13.597Z</time></trkpt><trkpt lat="42.1869167" lon="11.936575"><ele>401.6</ele><time>2026-04-19T11:25:14.597Z</time></trkpt><trkpt lat="42.1869883" lon="11.936475"><ele>401.20000000000005</ele><time>2026-04-19T11:25:15.597Z</time></trkpt><trkpt lat="42.187065" lon="11.9363717"><ele>400.8</ele><time>2026-04-19T11:25:16.597Z</time></trkpt><trkpt lat="42.1871483" lon="11.9362783"><ele>400.4</ele><time>2026-04-19T11:25:17.597Z</time></trkpt><trkpt lat="42.18721" lon="11.9361933"><ele>400.0</ele><time>2026-04-19T11:25:18.597Z</time></trkpt><trkpt lat="42.1872683" lon="11.9361083"><ele>400.00000000000006</ele><time>2026-04-19T11:25:19.598Z</time></trkpt><trkpt lat="42.18732" lon="11.9360367"><ele>400.0</ele><time>2026-04-19T11:25:20.598Z</time></trkpt><trkpt lat="42.1874133" lon="11.9359633"><ele>400.0</ele><time>2026-04-19T11:25:22.598Z</time></trkpt><trkpt lat="42.1874817" lon="11.9359517"><ele>400.0</ele><time>2026-04-19T11:25:23.597Z</time></trkpt><trkpt lat="42.1876033" lon="11.935965"><ele>400.00000000000006</ele><time>2026-04-19T11:25:25.597Z</time></trkpt><trkpt lat="42.1876667" lon="11.9359733"><ele>400.0</ele><time>2026-04-19T11:25:26.598Z</time></trkpt><trkpt lat="42.1877367" lon="11.9359833"><ele>395.33333333333337</ele><time>2026-04-19T11:25:27.597Z</time></trkpt><trkpt lat="42.1878033" lon="11.936"><ele>390.6666666666667</ele><time>2026-04-19T11:25:28.597Z</time></trkpt><trkpt lat="42.1878767" lon="11.93602"><ele>386.0</ele><time>2026-04-19T11:25:29.598Z</time></trkpt><trkpt lat="42.1879433" lon="11.93603"><ele>381.33333333333337</ele><time>2026-04-19T11:25:30.597Z</time></trkpt><trkpt lat="42.1880083" lon="11.936035"><ele>376.6666666666667</ele><time>2026-04-19T11:25:31.597Z</time></trkpt><trkpt lat="42.1880833" lon="11.9360383"><ele>372.0</ele><time>2026-04-19T11:25:32.598Z</time></trkpt><trkpt lat="42.1881917" lon="11.93606"><ele>371.40000000000003</ele><time>2026-04-19T11:25:34.597Z</time></trkpt><trkpt lat="42.1882783" lon="11.9360133"><ele>370.8</ele><time>2026-04-19T11:25:36.597Z</time></trkpt><trkpt lat="42.1883283" lon="11.9359033"><ele>370.2</ele><time>2026-04-19T11:25:38.598Z</time></trkpt><trkpt lat="42.1883433" lon="11.9357883"><ele>369.6</ele><time>2026-04-19T11:25:40.597Z</time></trkpt><trkpt lat="42.188345" lon="11.9356583"><ele>369.0</ele><time>2026-04-19T11:25:42.597Z</time></trkpt><trkpt lat="42.1883317" lon="11.9354883"><ele>369.0</ele><time>2026-04-19T11:25:44.596Z</time></trkpt><trkpt lat="42.1883167" lon="11.93537"><ele>369.0</ele><time>2026-04-19T11:25:45.596Z</time></trkpt><trkpt lat="42.1882967" lon="11.935245"><ele>369.0</ele><time>2026-04-19T11:25:46.596Z</time></trkpt><trkpt lat="42.1882717" lon="11.9351133"><ele>369.0</ele><time>2026-04-19T11:25:47.596Z</time></trkpt><trkpt lat="42.18825" lon="11.9349683"><ele>369.0</ele><time>2026-04-19T11:25:48.596Z</time></trkpt><trkpt lat="42.1882517" lon="11.9348183"><ele>368.0</ele><time>2026-04-19T11:25:49.596Z</time></trkpt><trkpt lat="42.188245" lon="11.93467"><ele>367.0</ele><time>2026-04-19T11:25:50.596Z</time></trkpt><trkpt lat="42.1882483" lon="11.9345567"><ele>366.0</ele><time>2026-04-19T11:25:51.596Z</time></trkpt><trkpt lat="42.1882533" lon="11.93446"><ele>365.0</ele><time>2026-04-19T11:25:52.596Z</time></trkpt><trkpt lat="42.188245" lon="11.9343717"><ele>364.0</ele><time>2026-04-19T11:25:53.596Z</time></trkpt><trkpt lat="42.1882333" lon="11.93428"><ele>363.0</ele><time>2026-04-19T11:25:54.597Z</time></trkpt><trkpt lat="42.188215" lon="11.93414"><ele>361.8333333333333</ele><time>2026-04-19T11:25:56.596Z</time></trkpt><trkpt lat="42.1882183" lon="11.9340533"><ele>360.6666666666667</ele><time>2026-04-19T11:25:57.596Z</time></trkpt><trkpt lat="42.1882217" lon="11.9339683"><ele>359.5</ele><time>2026-04-19T11:25:58.597Z</time></trkpt><trkpt lat="42.188235" lon="11.9338767"><ele>358.33333333333337</ele><time>2026-04-19T11:25:59.596Z</time></trkpt><trkpt lat="42.1882433" lon="11.9337917"><ele>357.1666666666667</ele><time>2026-04-19T11:26:00.596Z</time></trkpt><trkpt lat="42.18826" lon="11.93365"><ele>356.0</ele><time>2026-04-19T11:26:02.596Z</time></trkpt><trkpt lat="42.1883217" lon="11.9335733"><ele>356.0</ele><time>2026-04-19T11:26:04.596Z</time></trkpt><trkpt lat="42.18841" lon="11.9335667"><ele>356.0</ele><time>2026-04-19T11:26:06.596Z</time></trkpt><trkpt lat="42.1885117" lon="11.9336483"><ele>356.0</ele><time>2026-04-19T11:26:08.596Z</time></trkpt><trkpt lat="42.18857" lon="11.9336933"><ele>356.0</ele><time>2026-04-19T11:26:09.596Z</time></trkpt><trkpt lat="42.188675" lon="11.9337567"><ele>356.0</ele><time>2026-04-19T11:26:11.596Z</time></trkpt><trkpt lat="42.1888" lon="11.9337867"><ele>356.0</ele><time>2026-04-19T11:26:13.596Z</time></trkpt><trkpt lat="42.1888833" lon="11.9338067"><ele>356.0</ele><time>2026-04-19T11:26:14.596Z</time></trkpt><trkpt lat="42.18896" lon="11.93382"><ele>356.0</ele><time>2026-04-19T11:26:15.597Z</time></trkpt><trkpt lat="42.1890483" lon="11.93382"><ele>356.0</ele><time>2026-04-19T11:26:16.596Z</time></trkpt><trkpt lat="42.189125" lon="11.9338133"><ele>356.0</ele><time>2026-04-19T11:26:17.596Z</time></trkpt><trkpt lat="42.1891933" lon="11.9337917"><ele>356.0</ele><time>2026-04-19T11:26:18.596Z</time></trkpt><trkpt lat="42.1892617" lon="11.9337733"><ele>355.5</ele><time>2026-04-19T11:26:19.596Z</time></trkpt><trkpt lat="42.18933" lon="11.93374"><ele>355.0</ele><time>2026-04-19T11:26:20.596Z</time></trkpt><trkpt lat="42.1894217" lon="11.9336467"><ele>354.5</ele><time>2026-04-19T11:26:22.596Z</time></trkpt><trkpt lat="42.18946" lon="11.9335783"><ele>354.0</ele><time>2026-04-19T11:26:23.596Z</time></trkpt><trkpt lat="42.1894967" lon="11.9334983"><ele>353.5</ele><time>2026-04-19T11:26:24.596Z</time></trkpt><trkpt lat="42.1895167" lon="11.9334133"><ele>353.0</ele><time>2026-04-19T11:26:25.597Z</time></trkpt><trkpt lat="42.1895733" lon="11.9333317"><ele>353.0</ele><time>2026-04-19T11:26:27.596Z</time></trkpt><trkpt lat="42.1896633" lon="11.9333783"><ele>353.0</ele><time>2026-04-19T11:26:29.596Z</time></trkpt><trkpt lat="42.1897283" lon="11.93347"><ele>353.0</ele><time>2026-04-19T11:26:30.596Z</time></trkpt><trkpt lat="42.1897967" lon="11.9335533"><ele>353.0</ele><time>2026-04-19T11:26:31.596Z</time></trkpt><trkpt lat="42.1898667" lon="11.9336233"><ele>353.0</ele><time>2026-04-19T11:26:32.597Z</time></trkpt><trkpt lat="42.189945" lon="11.933665"><ele>350.0</ele><time>2026-04-19T11:26:33.596Z</time></trkpt><trkpt lat="42.19001" lon="11.9336783"><ele>347.0</ele><time>2026-04-19T11:26:34.596Z</time></trkpt><trkpt lat="42.190145" lon="11.9336717"><ele>344.0</ele><time>2026-04-19T11:26:36.596Z</time></trkpt><trkpt lat="42.1902167" lon="11.9336583"><ele>341.0</ele><time>2026-04-19T11:26:37.596Z</time></trkpt><trkpt lat="42.1902867" lon="11.9336433"><ele>338.0</ele><time>2026-04-19T11:26:38.597Z</time></trkpt><trkpt lat="42.1903583" lon="11.933635"><ele>335.0</ele><time>2026-04-19T11:26:39.596Z</time></trkpt><trkpt lat="42.190435" lon="11.93364"><ele>335.0</ele><time>2026-04-19T11:26:40.597Z</time></trkpt><trkpt lat="42.1905033" lon="11.93366"><ele>335.0</ele><time>2026-04-19T11:26:41.596Z</time></trkpt><trkpt lat="42.190575" lon="11.933685"><ele>335.0</ele><time>2026-04-19T11:26:42.596Z</time></trkpt><trkpt lat="42.1906383" lon="11.933745"><ele>335.0</ele><time>2026-04-19T11:26:43.597Z</time></trkpt><trkpt lat="42.190715" lon="11.9338017"><ele>335.0</ele><time>2026-04-19T11:26:44.597Z</time></trkpt><trkpt lat="42.1907833" lon="11.9338517"><ele>335.0</ele><time>2026-04-19T11:26:45.596Z</time></trkpt><trkpt lat="42.190855" lon="11.9339233"><ele>335.6</ele><time>2026-04-19T11:26:46.596Z</time></trkpt><trkpt lat="42.1909167" lon="11.9339917"><ele>336.2</ele><time>2026-04-19T11:26:47.596Z</time></trkpt><trkpt lat="42.190975" lon="11.9340533"><ele>336.79999999999995</ele><time>2026-04-19T11:26:48.596Z</time></trkpt><trkpt lat="42.1910333" lon="11.9341033"><ele>337.4</ele><time>2026-04-19T11:26:49.596Z</time></trkpt><trkpt lat="42.19113" lon="11.9341133"><ele>338.0</ele><time>2026-04-19T11:26:51.596Z</time></trkpt><trkpt lat="42.19124" lon="11.9340067"><ele>338.0</ele><time>2026-04-19T11:26:53.596Z</time></trkpt><trkpt lat="42.191295" lon="11.9339133"><ele>338.0</ele><time>2026-04-19T11:26:54.596Z</time></trkpt><trkpt lat="42.191345" lon="11.93381"><ele>338.0</ele><time>2026-04-19T11:26:55.596Z</time></trkpt><trkpt lat="42.1913783" lon="11.9336967"><ele>338.0</ele><time>2026-04-19T11:26:56.596Z</time></trkpt><trkpt lat="42.1913983" lon="11.9335717"><ele>338.0</ele><time>2026-04-19T11:26:57.596Z</time></trkpt><trkpt lat="42.1914033" lon="11.933455"><ele>340.5</ele><time>2026-04-19T11:26:58.596Z</time></trkpt><trkpt lat="42.1913933" lon="11.9333283"><ele>343.0</ele><time>2026-04-19T11:26:59.597Z</time></trkpt><trkpt lat="42.1913817" lon="11.93321"><ele>345.5</ele><time>2026-04-19T11:27:00.596Z</time></trkpt><trkpt lat="42.191365" lon="11.93311"><ele>348.0</ele><time>2026-04-19T11:27:01.596Z</time></trkpt><trkpt lat="42.191355" lon="11.9330133"><ele>350.5</ele><time>2026-04-19T11:27:02.596Z</time></trkpt><trkpt lat="42.1913183" lon="11.9328633"><ele>353.0</ele><time>2026-04-19T11:27:04.596Z</time></trkpt><trkpt lat="42.1913033" lon="11.9327383"><ele>353.0</ele><time>2026-04-19T11:27:06.596Z</time></trkpt><trkpt lat="42.1912983" lon="11.9326117"><ele>353.0</ele><time>2026-04-19T11:27:08.596Z</time></trkpt><trkpt lat="42.1913" lon="11.9325117"><ele>353.0</ele><time>2026-04-19T11:27:10.596Z</time></trkpt><trkpt lat="42.1913083" lon="11.9324117"><ele>353.0</ele><time>2026-04-19T11:27:13.596Z</time></trkpt><trkpt lat="42.1914" lon="11.9324367"><ele>353.0</ele><time>2026-04-19T11:27:16.596Z</time></trkpt><trkpt lat="42.1914683" lon="11.9324733"><ele>353.0</ele><time>2026-04-19T11:27:17.596Z</time></trkpt><trkpt lat="42.1915483" lon="11.93252"><ele>351.6666666666667</ele><time>2026-04-19T11:27:18.596Z</time></trkpt><trkpt lat="42.1916283" lon="11.9325717"><ele>350.33333333333337</ele><time>2026-04-19T11:27:19.596Z</time></trkpt><trkpt lat="42.1917017" lon="11.9326167"><ele>349.0</ele><time>2026-04-19T11:27:20.596Z</time></trkpt><trkpt lat="42.191775" lon="11.9326633"><ele>347.6666666666667</ele><time>2026-04-19T11:27:21.596Z</time></trkpt><trkpt lat="42.1918433" lon="11.93272"><ele>346.3333333333333</ele><time>2026-04-19T11:27:22.596Z</time></trkpt><trkpt lat="42.191895" lon="11.9327717"><ele>345.0</ele><time>2026-04-19T11:27:23.596Z</time></trkpt><trkpt lat="42.191955" lon="11.932845"><ele>345.0</ele><time>2026-04-19T11:27:25.596Z</time></trkpt><trkpt lat="42.1919683" lon="11.9329333"><ele>345.0</ele><time>2026-04-19T11:27:28.596Z</time></trkpt><trkpt lat="42.1920017" lon="11.9330617"><ele>345.0</ele><time>2026-04-19T11:27:30.596Z</time></trkpt><trkpt lat="42.1920367" lon="11.9331567"><ele>345.0</ele><time>2026-04-19T11:27:31.596Z</time></trkpt><trkpt lat="42.192075" lon="11.93325"><ele>345.0</ele><time>2026-04-19T11:27:32.596Z</time></trkpt><trkpt lat="42.1921133" lon="11.9333633"><ele>345.0</ele><time>2026-04-19T11:27:33.596Z</time></trkpt><trkpt lat="42.1921417" lon="11.9334883"><ele>344.3333333333333</ele><time>2026-04-19T11:27:34.596Z</time></trkpt><trkpt lat="42.1921633" lon="11.9336083"><ele>343.6666666666667</ele><time>2026-04-19T11:27:35.596Z</time></trkpt><trkpt lat="42.1921733" lon="11.933715"><ele>343.0</ele><time>2026-04-19T11:27:36.596Z</time></trkpt><trkpt lat="42.1921933" lon="11.9338217"><ele>342.33333333333337</ele><time>2026-04-19T11:27:37.596Z</time></trkpt><trkpt lat="42.1922167" lon="11.9339367"><ele>341.6666666666667</ele><time>2026-04-19T11:27:38.596Z</time></trkpt><trkpt lat="42.1922433" lon="11.9340417"><ele>341.0</ele><time>2026-04-19T11:27:39.597Z</time></trkpt><trkpt lat="42.1922683" lon="11.93413"><ele>341.0</ele><time>2026-04-19T11:27:40.596Z</time></trkpt><trkpt lat="42.1922983" lon="11.934205"><ele>341.0</ele><time>2026-04-19T11:27:41.596Z</time></trkpt><trkpt lat="42.1923733" lon="11.9342967"><ele>341.0</ele><time>2026-04-19T11:27:43.596Z</time></trkpt><trkpt lat="42.192445" lon="11.934325"><ele>341.0</ele><time>2026-04-19T11:27:45.597Z</time></trkpt><trkpt lat="42.1925417" lon="11.93423"><ele>341.0</ele><time>2026-04-19T11:31:43.595Z</time></trkpt><trkpt lat="42.19258" lon="11.9341167"><ele>344.1666666666667</ele><time>2026-04-19T11:31:45.595Z</time></trkpt><trkpt lat="42.1925967" lon="11.9340183"><ele>347.33333333333337</ele><time>2026-04-19T11:31:47.594Z</time></trkpt><trkpt lat="42.1926233" lon="11.933875"><ele>350.5</ele><time>2026-04-19T11:31:49.594Z</time></trkpt><trkpt lat="42.192645" lon="11.9337667"><ele>353.6666666666667</ele><time>2026-04-19T11:31:51.595Z</time></trkpt><trkpt lat="42.19266" lon="11.933675"><ele>356.8333333333333</ele><time>2026-04-19T11:31:53.594Z</time></trkpt><trkpt lat="42.19269" lon="11.9335583"><ele>360.0</ele><time>2026-04-19T11:31:55.594Z</time></trkpt><trkpt lat="42.1927483" lon="11.93344"><ele>360.4</ele><time>2026-04-19T11:31:57.594Z</time></trkpt><trkpt lat="42.1928167" lon="11.93332"><ele>360.8</ele><time>2026-04-19T11:31:59.594Z</time></trkpt><trkpt lat="42.1928933" lon="11.933185"><ele>361.20000000000005</ele><time>2026-04-19T11:32:01.594Z</time></trkpt><trkpt lat="42.1929317" lon="11.9330817"><ele>361.6</ele><time>2026-04-19T11:32:02.594Z</time></trkpt><trkpt lat="42.1929867" lon="11.9329333"><ele>362.0</ele><time>2026-04-19T11:32:03.594Z</time></trkpt><trkpt lat="42.19302" lon="11.9328283"><ele>362.0</ele><time>2026-04-19T11:32:04.594Z</time></trkpt><trkpt lat="42.1930511" lon="11.9326962"><ele>362.0</ele><time>2026-04-19T11:32:06.595Z</time></trkpt><trkpt lat="42.1930102" lon="11.9325851"><ele>362.0</ele><time>2026-04-19T11:32:08.594Z</time></trkpt><trkpt lat="42.192924" lon="11.9324351"><ele>362.0</ele><time>2026-04-19T11:32:10.594Z</time></trkpt><trkpt lat="42.1928799" lon="11.9323335"><ele>362.0</ele><time>2026-04-19T11:32:11.594Z</time></trkpt><trkpt lat="42.1928457" lon="11.9322354"><ele>362.57142857142856</ele><time>2026-04-19T11:32:12.594Z</time></trkpt><trkpt lat="42.192825" lon="11.9321358"><ele>363.1428571428571</ele><time>2026-04-19T11:32:13.594Z</time></trkpt><trkpt lat="42.1928137" lon="11.932032"><ele>363.7142857142857</ele><time>2026-04-19T11:32:14.594Z</time></trkpt><trkpt lat="42.1928078" lon="11.9319338"><ele>364.2857142857143</ele><time>2026-04-19T11:32:15.594Z</time></trkpt><trkpt lat="42.1928036" lon="11.9318448"><ele>364.8571428571429</ele><time>2026-04-19T11:32:16.594Z</time></trkpt><trkpt lat="42.1927906" lon="11.9317543"><ele>365.42857142857144</ele><time>2026-04-19T11:32:17.594Z</time></trkpt><trkpt lat="42.1927668" lon="11.9316653"><ele>366.0</ele><time>2026-04-19T11:32:18.595Z</time></trkpt><trkpt lat="42.1927349" lon="11.9315917"><ele>368.0</ele><time>2026-04-19T11:32:19.594Z</time></trkpt><trkpt lat="42.1926557" lon="11.9314773"><ele>370.0</ele><time>2026-04-19T11:32:21.595Z</time></trkpt><trkpt lat="42.1925552" lon="11.9313708"><ele>372.0</ele><time>2026-04-19T11:32:23.594Z</time></trkpt><trkpt lat="42.1924626" lon="11.931264"><ele>374.0</ele><time>2026-04-19T11:32:25.595Z</time></trkpt><trkpt lat="42.1924064" lon="11.9312021"><ele>376.0</ele><time>2026-04-19T11:32:26.594Z</time></trkpt><trkpt lat="42.1923441" lon="11.931149"><ele>376.8333333333333</ele><time>2026-04-19T11:32:27.594Z</time></trkpt><trkpt lat="42.1922715" lon="11.9310915"><ele>377.66666666666663</ele><time>2026-04-19T11:32:28.594Z</time></trkpt><trkpt lat="42.1921956" lon="11.9310357"><ele>378.5</ele><time>2026-04-19T11:32:29.594Z</time></trkpt><trkpt lat="42.19212" lon="11.9309855"><ele>379.3333333333333</ele><time>2026-04-19T11:32:30.594Z</time></trkpt><trkpt lat="42.192044" lon="11.9309376"><ele>380.1666666666667</ele><time>2026-04-19T11:32:31.595Z</time></trkpt><trkpt lat="42.1919668" lon="11.9308802"><ele>381.0</ele><time>2026-04-19T11:32:32.594Z</time></trkpt><trkpt lat="42.191896" lon="11.9308141"><ele>381.0</ele><time>2026-04-19T11:32:33.595Z</time></trkpt><trkpt lat="42.1918365" lon="11.930741"><ele>381.0</ele><time>2026-04-19T11:32:34.594Z</time></trkpt><trkpt lat="42.1917735" lon="11.9306581"><ele>381.0</ele><time>2026-04-19T11:32:35.594Z</time></trkpt><trkpt lat="42.191702" lon="11.9305886"><ele>381.0</ele><time>2026-04-19T11:32:36.594Z</time></trkpt><trkpt lat="42.1916301" lon="11.930521"><ele>381.0</ele><time>2026-04-19T11:32:37.594Z</time></trkpt><trkpt lat="42.1915517" lon="11.9304717"><ele>381.0</ele><time>2026-04-19T11:32:38.594Z</time></trkpt><trkpt lat="42.191475" lon="11.93042"><ele>381.1666666666667</ele><time>2026-04-19T11:32:39.594Z</time></trkpt><trkpt lat="42.1913933" lon="11.9303683"><ele>381.3333333333333</ele><time>2026-04-19T11:32:40.594Z</time></trkpt><trkpt lat="42.1913183" lon="11.9302983"><ele>381.5</ele><time>2026-04-19T11:32:41.594Z</time></trkpt><trkpt lat="42.1912717" lon="11.93022"><ele>381.66666666666663</ele><time>2026-04-19T11:32:42.594Z</time></trkpt><trkpt lat="42.1912133" lon="11.9301383"><ele>381.8333333333333</ele><time>2026-04-19T11:32:43.594Z</time></trkpt><trkpt lat="42.19116" lon="11.93005"><ele>382.0</ele><time>2026-04-19T11:32:44.594Z</time></trkpt><trkpt lat="42.1910933" lon="11.9299783"><ele>382.0</ele><time>2026-04-19T11:32:45.594Z</time></trkpt><trkpt lat="42.1910417" lon="11.929875"><ele>382.0</ele><time>2026-04-19T11:32:47.594Z</time></trkpt><trkpt lat="42.1909967" lon="11.9297383"><ele>382.0</ele><time>2026-04-19T11:32:49.594Z</time></trkpt><trkpt lat="42.19097" lon="11.9295917"><ele>382.0</ele><time>2026-04-19T11:32:51.594Z</time></trkpt><trkpt lat="42.1909467" lon="11.9294167"><ele>382.0</ele><time>2026-04-19T11:32:53.594Z</time></trkpt><trkpt lat="42.1909417" lon="11.9293117"><ele>383.6</ele><time>2026-04-19T11:32:54.594Z</time></trkpt><trkpt lat="42.1909333" lon="11.9291933"><ele>385.20000000000005</ele><time>2026-04-19T11:32:55.594Z</time></trkpt><trkpt lat="42.1909083" lon="11.9290717"><ele>386.8</ele><time>2026-04-19T11:32:56.594Z</time></trkpt><trkpt lat="42.1909033" lon="11.928955"><ele>388.4</ele><time>2026-04-19T11:32:57.595Z</time></trkpt><trkpt lat="42.190895" lon="11.9288283"><ele>390.0</ele><time>2026-04-19T11:32:58.594Z</time></trkpt><trkpt lat="42.1908983" lon="11.9287017"><ele>390.0</ele><time>2026-04-19T11:32:59.594Z</time></trkpt><trkpt lat="42.19089" lon="11.9285767"><ele>390.0</ele><time>2026-04-19T11:33:00.594Z</time></trkpt><trkpt lat="42.190885" lon="11.928455"><ele>390.0</ele><time>2026-04-19T11:33:01.595Z</time></trkpt><trkpt lat="42.1908783" lon="11.9283367"><ele>390.0</ele><time>2026-04-19T11:33:02.594Z</time></trkpt><trkpt lat="42.1908767" lon="11.9282117"><ele>390.0</ele><time>2026-04-19T11:33:03.594Z</time></trkpt><trkpt lat="42.1908833" lon="11.92809"><ele>390.2</ele><time>2026-04-19T11:33:04.595Z</time></trkpt><trkpt lat="42.190885" lon="11.9279567"><ele>390.4</ele><time>2026-04-19T11:33:05.594Z</time></trkpt><trkpt lat="42.1908967" lon="11.9278183"><ele>390.6</ele><time>2026-04-19T11:33:06.594Z</time></trkpt><trkpt lat="42.1909217" lon="11.9276883"><ele>390.8</ele><time>2026-04-19T11:33:07.594Z</time></trkpt><trkpt lat="42.1909433" lon="11.9275733"><ele>391.0</ele><time>2026-04-19T11:33:08.594Z</time></trkpt><trkpt lat="42.190965" lon="11.9274683"><ele>391.0</ele><time>2026-04-19T11:33:09.594Z</time></trkpt><trkpt lat="42.1909817" lon="11.9273733"><ele>391.0</ele><time>2026-04-19T11:33:10.595Z</time></trkpt><trkpt lat="42.1909833" lon="11.9272833"><ele>391.0</ele><time>2026-04-19T11:33:11.594Z</time></trkpt><trkpt lat="42.1909733" lon="11.927115"><ele>391.0</ele><time>2026-04-19T11:33:13.594Z</time></trkpt><trkpt lat="42.1909983" lon="11.9269683"><ele>391.0</ele><time>2026-04-19T11:33:15.594Z</time></trkpt><trkpt lat="42.191035" lon="11.926865"><ele>391.00000000000006</ele><time>2026-04-19T11:33:17.594Z</time></trkpt><trkpt lat="42.191035" lon="11.92675"><ele>391.0</ele><time>2026-04-19T11:33:20.594Z</time></trkpt><trkpt lat="42.1909983" lon="11.9266683"><ele>391.0</ele><time>2026-04-19T11:33:22.594Z</time></trkpt><trkpt lat="42.1909533" lon="11.9266017"><ele>391.0</ele><time>2026-04-19T11:33:25.595Z</time></trkpt><trkpt lat="42.19097" lon="11.9265167"><ele>391.00000000000006</ele><time>2026-04-19T11:33:43.594Z</time></trkpt><trkpt lat="42.190915" lon="11.9264233"><ele>391.0</ele><time>2026-04-19T11:33:58.595Z</time></trkpt><trkpt lat="42.19085" lon="11.9259817"><ele>391.50000000000006</ele><time>2026-04-19T11:34:03.595Z</time></trkpt><trkpt lat="42.1908167" lon="11.9258783"><ele>392.0</ele><time>2026-04-19T11:34:04.594Z</time></trkpt><trkpt lat="42.19079" lon="11.9257717"><ele>392.5</ele><time>2026-04-19T11:34:05.595Z</time></trkpt><trkpt lat="42.19078" lon="11.92566"><ele>393.0</ele><time>2026-04-19T11:34:06.595Z</time></trkpt><trkpt lat="42.1907833" lon="11.925535"><ele>393.50000000000006</ele><time>2026-04-19T11:34:07.594Z</time></trkpt><trkpt lat="42.190795" lon="11.9254017"><ele>394.0</ele><time>2026-04-19T11:34:08.594Z</time></trkpt><trkpt lat="42.19081" lon="11.9252683"><ele>394.00000000000006</ele><time>2026-04-19T11:34:09.594Z</time></trkpt><trkpt lat="42.1908333" lon="11.92516"><ele>394.0</ele><time>2026-04-19T11:34:10.594Z</time></trkpt><trkpt lat="42.1908433" lon="11.9250583"><ele>394.0</ele><time>2026-04-19T11:34:11.594Z</time></trkpt><trkpt lat="42.190835" lon="11.9249583"><ele>394.0</ele><time>2026-04-19T11:34:12.594Z</time></trkpt><trkpt lat="42.190815" lon="11.92486"><ele>394.00000000000006</ele><time>2026-04-19T11:34:13.594Z</time></trkpt><trkpt lat="42.190785" lon="11.924765"><ele>394.0</ele><time>2026-04-19T11:34:14.595Z</time></trkpt><trkpt lat="42.19076" lon="11.9246633"><ele>394.33333333333337</ele><time>2026-04-19T11:34:15.594Z</time></trkpt><trkpt lat="42.19074" lon="11.9245717"><ele>394.6666666666667</ele><time>2026-04-19T11:34:16.594Z</time></trkpt><trkpt lat="42.1907017" lon="11.9244883"><ele>395.0</ele><time>2026-04-19T11:34:17.594Z</time></trkpt><trkpt lat="42.1906417" lon="11.924425"><ele>395.33333333333337</ele><time>2026-04-19T11:34:18.595Z</time></trkpt><trkpt lat="42.19058" lon="11.924385"><ele>395.6666666666667</ele><time>2026-04-19T11:34:19.595Z</time></trkpt><trkpt lat="42.1905017" lon="11.9243483"><ele>396.0</ele><time>2026-04-19T11:34:20.594Z</time></trkpt><trkpt lat="42.1904183" lon="11.92432"><ele>396.0</ele><time>2026-04-19T11:34:21.594Z</time></trkpt><trkpt lat="42.190355" lon="11.9243017"><ele>396.0</ele><time>2026-04-19T11:34:22.595Z</time></trkpt><trkpt lat="42.1902883" lon="11.9242783"><ele>396.0</ele><time>2026-04-19T11:34:23.594Z</time></trkpt><trkpt lat="42.1902133" lon="11.9242617"><ele>396.0</ele><time>2026-04-19T11:34:24.594Z</time></trkpt><trkpt lat="42.1901367" lon="11.92425"><ele>396.0</ele><time>2026-04-19T11:34:25.594Z</time></trkpt><trkpt lat="42.1900517" lon="11.92424"><ele>396.0</ele><time>2026-04-19T11:34:26.595Z</time></trkpt><trkpt lat="42.189965" lon="11.9242033"><ele>397.0</ele><time>2026-04-19T11:34:27.595Z</time></trkpt><trkpt lat="42.1898567" lon="11.92416"><ele>398.0</ele><time>2026-04-19T11:34:28.595Z</time></trkpt><trkpt lat="42.189775" lon="11.9241183"><ele>399.0</ele><time>2026-04-19T11:34:29.594Z</time></trkpt><trkpt lat="42.189685" lon="11.92409"><ele>400.0</ele><time>2026-04-19T11:34:30.594Z</time></trkpt><trkpt lat="42.189575" lon="11.9240767"><ele>401.0</ele><time>2026-04-19T11:34:31.594Z</time></trkpt><trkpt lat="42.189475" lon="11.924055"><ele>401.49999999999994</ele><time>2026-04-19T11:34:32.594Z</time></trkpt><trkpt lat="42.1893967" lon="11.92401"><ele>402.0</ele><time>2026-04-19T11:34:33.594Z</time></trkpt><trkpt lat="42.1893167" lon="11.9239583"><ele>402.5</ele><time>2026-04-19T11:34:34.594Z</time></trkpt><trkpt lat="42.1892383" lon="11.923925"><ele>403.0</ele><time>2026-04-19T11:34:35.594Z</time></trkpt><trkpt lat="42.1891583" lon="11.9239067"><ele>403.49999999999994</ele><time>2026-04-19T11:34:36.594Z</time></trkpt><trkpt lat="42.189075" lon="11.9239017"><ele>404.0</ele><time>2026-04-19T11:34:37.594Z</time></trkpt><trkpt lat="42.18899" lon="11.9238917"><ele>405.4</ele><time>2026-04-19T11:34:38.594Z</time></trkpt><trkpt lat="42.188905" lon="11.9238767"><ele>406.79999999999995</ele><time>2026-04-19T11:34:39.594Z</time></trkpt><trkpt lat="42.1888167" lon="11.923855"><ele>408.20000000000005</ele><time>2026-04-19T11:34:40.594Z</time></trkpt><trkpt lat="42.1887183" lon="11.9238367"><ele>409.6</ele><time>2026-04-19T11:34:41.593Z</time></trkpt><trkpt lat="42.18862" lon="11.9238117"><ele>411.0</ele><time>2026-04-19T11:34:42.594Z</time></trkpt><trkpt lat="42.1884967" lon="11.9237933"><ele>411.0</ele><time>2026-04-19T11:34:43.594Z</time></trkpt><trkpt lat="42.1883717" lon="11.9237833"><ele>411.0</ele><time>2026-04-19T11:34:44.593Z</time></trkpt><trkpt lat="42.188235" lon="11.9237817"><ele>411.0</ele><time>2026-04-19T11:34:45.593Z</time></trkpt><trkpt lat="42.1880967" lon="11.923775"><ele>411.0</ele><time>2026-04-19T11:34:46.594Z</time></trkpt><trkpt lat="42.1879733" lon="11.923755"><ele>412.0</ele><time>2026-04-19T11:34:47.593Z</time></trkpt><trkpt lat="42.1878717" lon="11.9237117"><ele>413.0</ele><time>2026-04-19T11:34:48.593Z</time></trkpt><trkpt lat="42.18777" lon="11.9236533"><ele>414.0</ele><time>2026-04-19T11:34:49.593Z</time></trkpt><trkpt lat="42.1876617" lon="11.9236017"><ele>415.0</ele><time>2026-04-19T11:34:50.593Z</time></trkpt><trkpt lat="42.187555" lon="11.92356"><ele>416.0</ele><time>2026-04-19T11:34:51.593Z</time></trkpt><trkpt lat="42.1874583" lon="11.9235367"><ele>415.99999999999994</ele><time>2026-04-19T11:34:52.593Z</time></trkpt><trkpt lat="42.18737" lon="11.92354"><ele>416.0</ele><time>2026-04-19T11:34:53.593Z</time></trkpt><trkpt lat="42.1872933" lon="11.9235367"><ele>416.0</ele><time>2026-04-19T11:34:54.593Z</time></trkpt><trkpt lat="42.1872133" lon="11.9235317"><ele>416.0</ele><time>2026-04-19T11:34:55.593Z</time></trkpt><trkpt lat="42.1871333" lon="11.9235167"><ele>415.99999999999994</ele><time>2026-04-19T11:34:56.593Z</time></trkpt><trkpt lat="42.1870433" lon="11.9234917"><ele>416.0</ele><time>2026-04-19T11:34:57.593Z</time></trkpt><trkpt lat="42.1869483" lon="11.9234533"><ele>417.75</ele><time>2026-04-19T11:34:58.593Z</time></trkpt><trkpt lat="42.1868583" lon="11.9233917"><ele>419.5</ele><time>2026-04-19T11:34:59.593Z</time></trkpt><trkpt lat="42.1867617" lon="11.923315"><ele>421.25</ele><time>2026-04-19T11:35:00.593Z</time></trkpt><trkpt lat="42.1866133" lon="11.9231733"><ele>423.0</ele><time>2026-04-19T11:35:01.593Z</time></trkpt><trkpt lat="42.1864917" lon="11.9230483"><ele>424.25</ele><time>2026-04-19T11:35:02.593Z</time></trkpt><trkpt lat="42.1863833" lon="11.9229367"><ele>425.5</ele><time>2026-04-19T11:35:03.593Z</time></trkpt><trkpt lat="42.1862933" lon="11.9228383"><ele>426.75</ele><time>2026-04-19T11:35:04.593Z</time></trkpt><trkpt lat="42.1862" lon="11.92273"><ele>428.0</ele><time>2026-04-19T11:35:05.593Z</time></trkpt><trkpt lat="42.1861283" lon="11.9226433"><ele>428.0</ele><time>2026-04-19T11:35:06.593Z</time></trkpt><trkpt lat="42.1860767" lon="11.9225883"><ele>427.99999999999994</ele><time>2026-04-19T11:35:07.593Z</time></trkpt><trkpt lat="42.1859617" lon="11.9225567"><ele>427.99999999999994</ele><time>2026-04-19T11:35:31.593Z</time></trkpt><trkpt lat="42.1858667" lon="11.922545"><ele>428.0</ele><time>2026-04-19T11:35:32.593Z</time></trkpt><trkpt lat="42.18575" lon="11.92251"><ele>428.0</ele><time>2026-04-19T11:35:33.594Z</time></trkpt><trkpt lat="42.1856217" lon="11.922465"><ele>429.5</ele><time>2026-04-19T11:35:34.593Z</time></trkpt><trkpt lat="42.1855067" lon="11.9224167"><ele>431.0</ele><time>2026-04-19T11:35:35.593Z</time></trkpt><trkpt lat="42.1853817" lon="11.9223283"><ele>432.5</ele><time>2026-04-19T11:35:36.593Z</time></trkpt><trkpt lat="42.185255" lon="11.922225"><ele>434.0</ele><time>2026-04-19T11:35:37.593Z</time></trkpt><trkpt lat="42.185145" lon="11.922155"><ele>434.0</ele><time>2026-04-19T11:35:38.593Z</time></trkpt><trkpt lat="42.1850417" lon="11.9220967"><ele>434.0</ele><time>2026-04-19T11:35:39.593Z</time></trkpt><trkpt lat="42.184935" lon="11.922045"><ele>434.0</ele><time>2026-04-19T11:35:40.593Z</time></trkpt><trkpt lat="42.184835" lon="11.9220033"><ele>434.0</ele><time>2026-04-19T11:35:41.594Z</time></trkpt><trkpt lat="42.184755" lon="11.9219517"><ele>434.0</ele><time>2026-04-19T11:35:42.593Z</time></trkpt><trkpt lat="42.184695" lon="11.92189"><ele>434.2</ele><time>2026-04-19T11:35:43.593Z</time></trkpt><trkpt lat="42.1846083" lon="11.92176"><ele>434.4</ele><time>2026-04-19T11:35:45.593Z</time></trkpt><trkpt lat="42.184565" lon="11.9216767"><ele>434.6</ele><time>2026-04-19T11:35:46.593Z</time></trkpt><trkpt lat="42.1845317" lon="11.9215933"><ele>434.8</ele><time>2026-04-19T11:35:47.594Z</time></trkpt><trkpt lat="42.1845017" lon="11.9215033"><ele>435.0</ele><time>2026-04-19T11:35:48.593Z</time></trkpt><trkpt lat="42.1844417" lon="11.921315"><ele>435.0</ele><time>2026-04-19T11:35:50.593Z</time></trkpt><trkpt lat="42.1844017" lon="11.9211867"><ele>435.0</ele><time>2026-04-19T11:35:51.594Z</time></trkpt><trkpt lat="42.184345" lon="11.9210567"><ele>435.0</ele><time>2026-04-19T11:35:52.593Z</time></trkpt><trkpt lat="42.18426" lon="11.920955"><ele>435.0</ele><time>2026-04-19T11:35:53.593Z</time></trkpt><trkpt lat="42.1841733" lon="11.9208433"><ele>435.0</ele><time>2026-04-19T11:35:54.593Z</time></trkpt><trkpt lat="42.1840783" lon="11.920725"><ele>438.6</ele><time>2026-04-19T11:35:55.593Z</time></trkpt><trkpt lat="42.1839983" lon="11.9206"><ele>442.2</ele><time>2026-04-19T11:35:56.593Z</time></trkpt><trkpt lat="42.1839317" lon="11.9204733"><ele>445.79999999999995</ele><time>2026-04-19T11:35:57.593Z</time></trkpt><trkpt lat="42.1838817" lon="11.9203483"><ele>449.4</ele><time>2026-04-19T11:35:58.594Z</time></trkpt><trkpt lat="42.1838483" lon="11.9202117"><ele>453.0</ele><time>2026-04-19T11:35:59.593Z</time></trkpt><trkpt lat="42.1838117" lon="11.9200733"><ele>452.4</ele><time>2026-04-19T11:36:00.593Z</time></trkpt><trkpt lat="42.1837717" lon="11.9199317"><ele>451.79999999999995</ele><time>2026-04-19T11:36:01.593Z</time></trkpt><trkpt lat="42.1837167" lon="11.9198067"><ele>451.2</ele><time>2026-04-19T11:36:02.593Z</time></trkpt><trkpt lat="42.183645" lon="11.9197"><ele>450.6</ele><time>2026-04-19T11:36:03.593Z</time></trkpt><trkpt lat="42.183575" lon="11.91959"><ele>450.0</ele><time>2026-04-19T11:36:04.593Z</time></trkpt><trkpt lat="42.1835183" lon="11.9194683"><ele>450.0</ele><time>2026-04-19T11:36:05.593Z</time></trkpt><trkpt lat="42.183475" lon="11.91934"><ele>450.0</ele><time>2026-04-19T11:36:06.593Z</time></trkpt><trkpt lat="42.1834383" lon="11.9192167"><ele>450.0</ele><time>2026-04-19T11:36:07.593Z</time></trkpt><trkpt lat="42.1833983" lon="11.919095"><ele>450.0</ele><time>2026-04-19T11:36:08.593Z</time></trkpt><trkpt lat="42.18334" lon="11.919"><ele>450.0</ele><time>2026-04-19T11:36:09.593Z</time></trkpt><trkpt lat="42.1832817" lon="11.9189167"><ele>450.8333333333333</ele><time>2026-04-19T11:36:10.593Z</time></trkpt><trkpt lat="42.1832183" lon="11.9188433"><ele>451.66666666666663</ele><time>2026-04-19T11:36:11.593Z</time></trkpt><trkpt lat="42.1831583" lon="11.9187933"><ele>452.5</ele><time>2026-04-19T11:36:12.594Z</time></trkpt><trkpt lat="42.1831033" lon="11.9187483"><ele>453.3333333333333</ele><time>2026-04-19T11:36:13.594Z</time></trkpt><trkpt lat="42.1830167" lon="11.9186683"><ele>454.16666666666663</ele><time>2026-04-19T11:36:15.593Z</time></trkpt><trkpt lat="42.1829483" lon="11.9186117"><ele>455.0</ele><time>2026-04-19T11:36:17.593Z</time></trkpt><trkpt lat="42.1829067" lon="11.91853"><ele>454.99999999999994</ele><time>2026-04-19T11:36:21.593Z</time></trkpt><trkpt lat="42.1829433" lon="11.918445"><ele>455.0</ele><time>2026-04-19T11:36:25.593Z</time></trkpt><trkpt lat="42.1830533" lon="11.9183817"><ele>455.0</ele><time>2026-04-19T11:36:27.594Z</time></trkpt><trkpt lat="42.1831217" lon="11.918345"><ele>455.0</ele><time>2026-04-19T11:36:28.593Z</time></trkpt><trkpt lat="42.1831933" lon="11.918295"><ele>454.99999999999994</ele><time>2026-04-19T11:36:29.593Z</time></trkpt><trkpt lat="42.1832783" lon="11.9182467"><ele>455.0</ele><time>2026-04-19T11:36:30.593Z</time></trkpt><trkpt lat="42.1833733" lon="11.9181917"><ele>451.0</ele><time>2026-04-19T11:36:31.593Z</time></trkpt><trkpt lat="42.1834733" lon="11.91813"><ele>447.0</ele><time>2026-04-19T11:36:32.593Z</time></trkpt><trkpt lat="42.1835783" lon="11.918095"><ele>443.0</ele><time>2026-04-19T11:36:33.593Z</time></trkpt><trkpt lat="42.1836833" lon="11.9180667"><ele>439.0</ele><time>2026-04-19T11:36:34.594Z</time></trkpt><trkpt lat="42.1837817" lon="11.9180533"><ele>435.0</ele><time>2026-04-19T11:36:35.593Z</time></trkpt><trkpt lat="42.18388" lon="11.918035"><ele>435.0</ele><time>2026-04-19T11:36:36.593Z</time></trkpt><trkpt lat="42.1839717" lon="11.9180283"><ele>435.0</ele><time>2026-04-19T11:36:37.593Z</time></trkpt><trkpt lat="42.1840633" lon="11.918035"><ele>435.0</ele><time>2026-04-19T11:36:38.593Z</time></trkpt><trkpt lat="42.1841417" lon="11.9180517"><ele>435.0</ele><time>2026-04-19T11:36:39.593Z</time></trkpt><trkpt lat="42.1842217" lon="11.9180617"><ele>435.0</ele><time>2026-04-19T11:36:40.593Z</time></trkpt><trkpt lat="42.1843017" lon="11.9180667"><ele>435.0</ele><time>2026-04-19T11:36:41.593Z</time></trkpt><trkpt lat="42.1843983" lon="11.9180767"><ele>432.5</ele><time>2026-04-19T11:36:42.593Z</time></trkpt><trkpt lat="42.18451" lon="11.9181"><ele>430.0</ele><time>2026-04-19T11:36:43.593Z</time></trkpt><trkpt lat="42.1846183" lon="11.9181383"><ele>427.5</ele><time>2026-04-19T11:36:44.594Z</time></trkpt><trkpt lat="42.1847417" lon="11.918165"><ele>425.0</ele><time>2026-04-19T11:36:45.594Z</time></trkpt><trkpt lat="42.1848567" lon="11.9181967"><ele>423.8333333333333</ele><time>2026-04-19T11:36:46.593Z</time></trkpt><trkpt lat="42.1849533" lon="11.9182367"><ele>422.66666666666663</ele><time>2026-04-19T11:36:47.593Z</time></trkpt><trkpt lat="42.1850333" lon="11.918255"><ele>421.5</ele><time>2026-04-19T11:36:48.593Z</time></trkpt><trkpt lat="42.1851067" lon="11.9182417"><ele>420.33333333333337</ele><time>2026-04-19T11:36:49.594Z</time></trkpt><trkpt lat="42.1851783" lon="11.9182083"><ele>419.1666666666667</ele><time>2026-04-19T11:36:50.593Z</time></trkpt><trkpt lat="42.1852333" lon="11.9181367"><ele>418.0</ele><time>2026-04-19T11:36:51.593Z</time></trkpt><trkpt lat="42.1852883" lon="11.9180333"><ele>418.0</ele><time>2026-04-19T11:36:52.593Z</time></trkpt><trkpt lat="42.1853483" lon="11.9179117"><ele>418.0</ele><time>2026-04-19T11:36:53.593Z</time></trkpt><trkpt lat="42.1854117" lon="11.9177867"><ele>418.0</ele><time>2026-04-19T11:36:54.593Z</time></trkpt><trkpt lat="42.1854867" lon="11.917655"><ele>418.0</ele><time>2026-04-19T11:36:55.593Z</time></trkpt><trkpt lat="42.18557" lon="11.91752"><ele>416.6666666666667</ele><time>2026-04-19T11:36:56.593Z</time></trkpt><trkpt lat="42.18566" lon="11.9173767"><ele>415.33333333333337</ele><time>2026-04-19T11:36:57.593Z</time></trkpt><trkpt lat="42.1857567" lon="11.9172383"><ele>414.0</ele><time>2026-04-19T11:36:58.594Z</time></trkpt><trkpt lat="42.1831217" lon="11.918345"><ele>418.2</ele><time>2026-04-19T11:36:28.593Z</time></trkpt><trkpt lat="42.1831933" lon="11.918295"><ele>422.4</ele><time>2026-04-19T11:36:29.593Z</time></trkpt><trkpt lat="42.1832783" lon="11.9182467"><ele>426.6</ele><time>2026-04-19T11:36:30.593Z</time></trkpt><trkpt lat="42.1833733" lon="11.9181917"><ele>430.8</ele><time>2026-04-19T11:36:31.593Z</time></trkpt><trkpt lat="42.1834733" lon="11.91813"><ele>435.0</ele><time>2026-04-19T11:36:32.593Z</time></trkpt><trkpt lat="42.1835783" lon="11.918095"><ele>435.0</ele><time>2026-04-19T11:36:33.593Z</time></trkpt><trkpt lat="42.1836833" lon="11.9180667"><ele>435.0</ele><time>2026-04-19T11:36:34.594Z</time></trkpt><trkpt lat="42.1837817" lon="11.9180533"><ele>435.0</ele><time>2026-04-19T11:36:35.593Z</time></trkpt><trkpt lat="42.18388" lon="11.918035"><ele>435.0</ele><time>2026-04-19T11:36:36.593Z</time></trkpt><trkpt lat="42.1839717" lon="11.9180283"><ele>435.0</ele><time>2026-04-19T11:36:37.593Z</time></trkpt><trkpt lat="42.1840633" lon="11.918035"><ele>433.0</ele><time>2026-04-19T11:36:38.593Z</time></trkpt><trkpt lat="42.1841417" lon="11.9180517"><ele>431.0</ele><time>2026-04-19T11:36:39.593Z</time></trkpt><trkpt lat="42.1842217" lon="11.9180617"><ele>429.0</ele><time>2026-04-19T11:36:40.593Z</time></trkpt><trkpt lat="42.1843017" lon="11.9180667"><ele>427.0</ele><time>2026-04-19T11:36:41.593Z</time></trkpt><trkpt lat="42.1843983" lon="11.9180767"><ele>425.0</ele><time>2026-04-19T11:36:42.593Z</time></trkpt><trkpt lat="42.18451" lon="11.9181"><ele>425.0</ele><time>2026-04-19T11:36:43.593Z</time></trkpt><trkpt lat="42.1846183" lon="11.9181383"><ele>425.0</ele><time>2026-04-19T11:36:44.594Z</time></trkpt><trkpt lat="42.1847417" lon="11.918165"><ele>425.0</ele><time>2026-04-19T11:36:45.594Z</time></trkpt><trkpt lat="42.1848567" lon="11.9181967"><ele>425.0</ele><time>2026-04-19T11:36:46.593Z</time></trkpt><trkpt lat="42.1849533" lon="11.9182367"><ele>423.8333333333333</ele><time>2026-04-19T11:36:47.593Z</time></trkpt><trkpt lat="42.1850333" lon="11.918255"><ele>422.66666666666663</ele><time>2026-04-19T11:36:48.593Z</time></trkpt><trkpt lat="42.1851067" lon="11.9182417"><ele>421.5</ele><time>2026-04-19T11:36:49.594Z</time></trkpt><trkpt lat="42.1851783" lon="11.9182083"><ele>420.33333333333337</ele><time>2026-04-19T11:36:50.593Z</time></trkpt><trkpt lat="42.1852333" lon="11.9181367"><ele>419.1666666666667</ele><time>2026-04-19T11:36:51.593Z</time></trkpt><trkpt lat="42.1852883" lon="11.9180333"><ele>418.0</ele><time>2026-04-19T11:36:52.593Z</time></trkpt><trkpt lat="42.1853483" lon="11.9179117"><ele>418.0</ele><time>2026-04-19T11:36:53.593Z</time></trkpt><trkpt lat="42.1854117" lon="11.9177867"><ele>418.0</ele><time>2026-04-19T11:36:54.593Z</time></trkpt><trkpt lat="42.1854867" lon="11.917655"><ele>418.0</ele><time>2026-04-19T11:36:55.593Z</time></trkpt><trkpt lat="42.18557" lon="11.91752"><ele>418.0</ele><time>2026-04-19T11:36:56.593Z</time></trkpt><trkpt lat="42.18566" lon="11.9173767"><ele>416.75</ele><time>2026-04-19T11:36:57.593Z</time></trkpt><trkpt lat="42.1857567" lon="11.9172383"><ele>415.5</ele><time>2026-04-19T11:36:58.594Z</time></trkpt><trkpt lat="42.185845" lon="11.9171033"><ele>414.25</ele><time>2026-04-19T11:36:59.593Z</time></trkpt><trkpt lat="42.1859383" lon="11.916975"><ele>413.0</ele><time>2026-04-19T11:37:00.594Z</time></trkpt><trkpt lat="42.1860267" lon="11.9168433"><ele>414.25</ele><time>2026-04-19T11:37:01.593Z</time></trkpt><trkpt lat="42.1861067" lon="11.916725"><ele>415.5</ele><time>2026-04-19T11:37:02.593Z</time></trkpt><trkpt lat="42.18619" lon="11.9166167"><ele>416.75</ele><time>2026-04-19T11:37:03.593Z</time></trkpt><trkpt lat="42.1862783" lon="11.9165217"><ele>418.0</ele><time>2026-04-19T11:37:04.593Z</time></trkpt><trkpt lat="42.186385" lon="11.9164333"><ele>418.0</ele><time>2026-04-19T11:37:05.593Z</time></trkpt><trkpt lat="42.1864833" lon="11.916355"><ele>418.0</ele><time>2026-04-19T11:37:06.593Z</time></trkpt><trkpt lat="42.1865967" lon="11.9162817"><ele>418.0</ele><time>2026-04-19T11:37:07.593Z</time></trkpt><trkpt lat="42.1867217" lon="11.9161917"><ele>418.0</ele><time>2026-04-19T11:37:08.593Z</time></trkpt><trkpt lat="42.1868467" lon="11.916115"><ele>418.5</ele><time>2026-04-19T11:37:09.593Z</time></trkpt><trkpt lat="42.1869717" lon="11.9160333"><ele>419.0</ele><time>2026-04-19T11:37:10.593Z</time></trkpt><trkpt lat="42.18711" lon="11.9159533"><ele>419.5</ele><time>2026-04-19T11:37:11.593Z</time></trkpt><trkpt lat="42.1872433" lon="11.9158833"><ele>420.0</ele><time>2026-04-19T11:37:12.593Z</time></trkpt><trkpt lat="42.18737" lon="11.915835"><ele>420.0</ele><time>2026-04-19T11:37:13.593Z</time></trkpt><trkpt lat="42.1874933" lon="11.9157867"><ele>420.0</ele><time>2026-04-19T11:37:14.594Z</time></trkpt><trkpt lat="42.187615" lon="11.9157333"><ele>420.0</ele><time>2026-04-19T11:37:15.593Z</time></trkpt><trkpt lat="42.1877267" lon="11.915655"><ele>420.0</ele><time>2026-04-19T11:37:16.594Z</time></trkpt><trkpt lat="42.1878133" lon="11.9155567"><ele>420.0</ele><time>2026-04-19T11:37:17.593Z</time></trkpt><trkpt lat="42.187865" lon="11.9154633"><ele>420.0</ele><time>2026-04-19T11:37:18.593Z</time></trkpt><trkpt lat="42.1878867" lon="11.9153833"><ele>420.0</ele><time>2026-04-19T11:37:19.593Z</time></trkpt><trkpt lat="42.187875" lon="11.9152867"><ele>420.0</ele><time>2026-04-19T11:37:20.593Z</time></trkpt><trkpt lat="42.1878533" lon="11.9151667"><ele>420.0</ele><time>2026-04-19T11:37:21.594Z</time></trkpt><trkpt lat="42.1878267" lon="11.9150183"><ele>420.0</ele><time>2026-04-19T11:37:22.593Z</time></trkpt><trkpt lat="42.1877967" lon="11.9148767"><ele>420.8</ele><time>2026-04-19T11:37:23.594Z</time></trkpt><trkpt lat="42.1877683" lon="11.9147483"><ele>421.6</ele><time>2026-04-19T11:37:24.593Z</time></trkpt><trkpt lat="42.1877333" lon="11.914625"><ele>422.4</ele><time>2026-04-19T11:37:25.594Z</time></trkpt><trkpt lat="42.187685" lon="11.9144867"><ele>423.2</ele><time>2026-04-19T11:37:26.593Z</time></trkpt><trkpt lat="42.1876233" lon="11.91435"><ele>424.0</ele><time>2026-04-19T11:37:27.593Z</time></trkpt><trkpt lat="42.1875683" lon="11.914205"><ele>424.0</ele><time>2026-04-19T11:37:28.594Z</time></trkpt><trkpt lat="42.1875283" lon="11.914065"><ele>424.0</ele><time>2026-04-19T11:37:29.592Z</time></trkpt><trkpt lat="42.187495" lon="11.9139467"><ele>424.0</ele><time>2026-04-19T11:37:30.593Z</time></trkpt><trkpt lat="42.1874767" lon="11.913815"><ele>424.0</ele><time>2026-04-19T11:37:31.592Z</time></trkpt><trkpt lat="42.1874983" lon="11.9136933"><ele>424.0</ele><time>2026-04-19T11:37:32.592Z</time></trkpt><trkpt lat="42.1875283" lon="11.91357"><ele>424.0</ele><time>2026-04-19T11:37:33.592Z</time></trkpt><trkpt lat="42.187575" lon="11.9134483"><ele>424.0</ele><time>2026-04-19T11:37:34.592Z</time></trkpt><trkpt lat="42.187645" lon="11.9133333"><ele>424.0</ele><time>2026-04-19T11:37:35.592Z</time></trkpt><trkpt lat="42.187735" lon="11.9132183"><ele>424.0</ele><time>2026-04-19T11:37:36.592Z</time></trkpt><trkpt lat="42.1878517" lon="11.913125"><ele>424.25</ele><time>2026-04-19T11:37:37.592Z</time></trkpt><trkpt lat="42.1879833" lon="11.9130433"><ele>424.5</ele><time>2026-04-19T11:37:38.592Z</time></trkpt><trkpt lat="42.1881183" lon="11.9129583"><ele>424.75</ele><time>2026-04-19T11:37:39.592Z</time></trkpt><trkpt lat="42.1882367" lon="11.9128617"><ele>425.0</ele><time>2026-04-19T11:37:40.592Z</time></trkpt><trkpt lat="42.1883517" lon="11.91276"><ele>421.0</ele><time>2026-04-19T11:37:41.592Z</time></trkpt><trkpt lat="42.1884533" lon="11.91265"><ele>417.0</ele><time>2026-04-19T11:37:42.592Z</time></trkpt><trkpt lat="42.18853" lon="11.912545"><ele>413.0</ele><time>2026-04-19T11:37:43.592Z</time></trkpt><trkpt lat="42.1885867" lon="11.9124267"><ele>409.0</ele><time>2026-04-19T11:37:44.592Z</time></trkpt><trkpt lat="42.1886433" lon="11.91229"><ele>409.0</ele><time>2026-04-19T11:37:45.593Z</time></trkpt><trkpt lat="42.1886767" lon="11.9121533"><ele>409.0</ele><time>2026-04-19T11:37:46.593Z</time></trkpt><trkpt lat="42.1886867" lon="11.9120217"><ele>409.0</ele><time>2026-04-19T11:37:47.592Z</time></trkpt><trkpt lat="42.1886817" lon="11.91191"><ele>409.0</ele><time>2026-04-19T11:37:48.592Z</time></trkpt><trkpt lat="42.1886533" lon="11.911785"><ele>409.0</ele><time>2026-04-19T11:37:49.592Z</time></trkpt><trkpt lat="42.1886267" lon="11.9116483"><ele>409.2</ele><time>2026-04-19T11:37:50.592Z</time></trkpt><trkpt lat="42.1886233" lon="11.9115117"><ele>409.4</ele><time>2026-04-19T11:37:51.593Z</time></trkpt><trkpt lat="42.1886383" lon="11.91139"><ele>409.6</ele><time>2026-04-19T11:37:52.593Z</time></trkpt><trkpt lat="42.1886567" lon="11.9112383"><ele>409.8</ele><time>2026-04-19T11:37:53.593Z</time></trkpt><trkpt lat="42.1886867" lon="11.9110967"><ele>410.0</ele><time>2026-04-19T11:37:54.593Z</time></trkpt><trkpt lat="42.1887233" lon="11.9109733"><ele>410.4</ele><time>2026-04-19T11:37:55.592Z</time></trkpt><trkpt lat="42.1887567" lon="11.9108467"><ele>410.8</ele><time>2026-04-19T11:37:56.592Z</time></trkpt><trkpt lat="42.1887667" lon="11.9107017"><ele>411.20000000000005</ele><time>2026-04-19T11:37:57.592Z</time></trkpt><trkpt lat="42.18877" lon="11.9105617"><ele>411.6</ele><time>2026-04-19T11:37:58.592Z</time></trkpt><trkpt lat="42.1887717" lon="11.910415"><ele>412.0</ele><time>2026-04-19T11:37:59.593Z</time></trkpt><trkpt lat="42.1887717" lon="11.9102783"><ele>412.0</ele><time>2026-04-19T11:38:00.593Z</time></trkpt><trkpt lat="42.1887867" lon="11.9101217"><ele>412.0</ele><time>2026-04-19T11:38:01.592Z</time></trkpt><trkpt lat="42.1888" lon="11.9099333"><ele>412.0</ele><time>2026-04-19T11:38:02.592Z</time></trkpt><trkpt lat="42.1888117" lon="11.9097417"><ele>412.0</ele><time>2026-04-19T11:38:03.592Z</time></trkpt><trkpt lat="42.1888367" lon="11.9095583"><ele>412.0</ele><time>2026-04-19T11:38:04.592Z</time></trkpt><trkpt lat="42.1888717" lon="11.9093917"><ele>412.0</ele><time>2026-04-19T11:38:05.592Z</time></trkpt><trkpt lat="42.1889217" lon="11.9092283"><ele>412.0</ele><time>2026-04-19T11:38:06.592Z</time></trkpt><trkpt lat="42.1889783" lon="11.9090617"><ele>412.0</ele><time>2026-04-19T11:38:07.592Z</time></trkpt><trkpt lat="42.1890533" lon="11.9089017"><ele>408.25</ele><time>2026-04-19T11:38:08.592Z</time></trkpt><trkpt lat="42.18914" lon="11.908755"><ele>404.5</ele><time>2026-04-19T11:38:09.592Z</time></trkpt><trkpt lat="42.1892117" lon="11.9086017"><ele>400.75</ele><time>2026-04-19T11:38:10.592Z</time></trkpt><trkpt lat="42.1892783" lon="11.908445"><ele>397.0</ele><time>2026-04-19T11:38:11.593Z</time></trkpt><trkpt lat="42.18934" lon="11.908265"><ele>397.0</ele><time>2026-04-19T11:38:12.592Z</time></trkpt><trkpt lat="42.189395" lon="11.9080817"><ele>397.0</ele><time>2026-04-19T11:38:13.592Z</time></trkpt><trkpt lat="42.1894517" lon="11.9079133"><ele>397.0</ele><time>2026-04-19T11:38:14.592Z</time></trkpt><trkpt lat="42.189505" lon="11.90774"><ele>397.0</ele><time>2026-04-19T11:38:15.592Z</time></trkpt><trkpt lat="42.1895583" lon="11.9075833"><ele>399.75</ele><time>2026-04-19T11:38:16.592Z</time></trkpt><trkpt lat="42.189605" lon="11.9074417"><ele>402.5</ele><time>2026-04-19T11:38:17.592Z</time></trkpt><trkpt lat="42.1896333" lon="11.9073117"><ele>405.25</ele><time>2026-04-19T11:38:18.592Z</time></trkpt><trkpt lat="42.18965" lon="11.9071517"><ele>408.0</ele><time>2026-04-19T11:38:19.592Z</time></trkpt><trkpt lat="42.189665" lon="11.9069783"><ele>408.0</ele><time>2026-04-19T11:38:20.592Z</time></trkpt><trkpt lat="42.18969" lon="11.9068133"><ele>408.0</ele><time>2026-04-19T11:38:21.592Z</time></trkpt><trkpt lat="42.1897417" lon="11.906645"><ele>408.0</ele><time>2026-04-19T11:38:22.592Z</time></trkpt><trkpt lat="42.1897917" lon="11.9064833"><ele>408.0</ele><time>2026-04-19T11:38:23.592Z</time></trkpt><trkpt lat="42.189825" lon="11.9063033"><ele>397.25</ele><time>2026-04-19T11:38:24.592Z</time></trkpt><trkpt lat="42.189845" lon="11.9061033"><ele>386.5</ele><time>2026-04-19T11:38:25.592Z</time></trkpt><trkpt lat="42.1898583" lon="11.9059"><ele>375.75</ele><time>2026-04-19T11:38:26.592Z</time></trkpt><trkpt lat="42.1898767" lon="11.9057133"><ele>365.0</ele><time>2026-04-19T11:38:27.592Z</time></trkpt><trkpt lat="42.189905" lon="11.905545"><ele>365.0</ele><time>2026-04-19T11:38:28.592Z</time></trkpt><trkpt lat="42.189935" lon="11.9053883"><ele>365.0</ele><time>2026-04-19T11:38:29.592Z</time></trkpt><trkpt lat="42.1899767" lon="11.9052483"><ele>365.0</ele><time>2026-04-19T11:38:30.593Z</time></trkpt><trkpt lat="42.19005" lon="11.9051133"><ele>365.0</ele><time>2026-04-19T11:38:31.592Z</time></trkpt><trkpt lat="42.190145" lon="11.9049917"><ele>365.5</ele><time>2026-04-19T11:38:32.592Z</time></trkpt><trkpt lat="42.19023" lon="11.904875"><ele>366.0</ele><time>2026-04-19T11:38:33.592Z</time></trkpt><trkpt lat="42.1903017" lon="11.9047467"><ele>366.5</ele><time>2026-04-19T11:38:34.592Z</time></trkpt><trkpt lat="42.1903583" lon="11.9046017"><ele>367.0</ele><time>2026-04-19T11:38:35.592Z</time></trkpt><trkpt lat="42.1903967" lon="11.90442"><ele>367.75</ele><time>2026-04-19T11:38:36.593Z</time></trkpt><trkpt lat="42.190415" lon="11.9042217"><ele>368.5</ele><time>2026-04-19T11:38:37.592Z</time></trkpt><trkpt lat="42.190435" lon="11.9040317"><ele>369.25</ele><time>2026-04-19T11:38:38.592Z</time></trkpt><trkpt lat="42.1904517" lon="11.9038633"><ele>370.0</ele><time>2026-04-19T11:38:39.592Z</time></trkpt><trkpt lat="42.19047" lon="11.903705"><ele>370.0</ele><time>2026-04-19T11:38:40.592Z</time></trkpt><trkpt lat="42.1904967" lon="11.9035383"><ele>370.0</ele><time>2026-04-19T11:38:41.592Z</time></trkpt><trkpt lat="42.1905283" lon="11.9033617"><ele>370.0</ele><time>2026-04-19T11:38:42.592Z</time></trkpt><trkpt lat="42.1905567" lon="11.903185"><ele>370.0</ele><time>2026-04-19T11:38:43.592Z</time></trkpt><trkpt lat="42.1905867" lon="11.9030183"><ele>367.25</ele><time>2026-04-19T11:38:44.592Z</time></trkpt><trkpt lat="42.1906267" lon="11.9028517"><ele>364.5</ele><time>2026-04-19T11:38:45.592Z</time></trkpt><trkpt lat="42.1906617" lon="11.9026667"><ele>361.75</ele><time>2026-04-19T11:38:46.593Z</time></trkpt><trkpt lat="42.1906917" lon="11.9024917"><ele>359.0</ele><time>2026-04-19T11:38:47.592Z</time></trkpt><trkpt lat="42.1907133" lon="11.9023033"><ele>355.25</ele><time>2026-04-19T11:38:48.592Z</time></trkpt><trkpt lat="42.1907317" lon="11.902125"><ele>351.5</ele><time>2026-04-19T11:38:49.593Z</time></trkpt><trkpt lat="42.1907583" lon="11.9019683"><ele>347.75</ele><time>2026-04-19T11:38:50.593Z</time></trkpt><trkpt lat="42.1907983" lon="11.9018333"><ele>344.0</ele><time>2026-04-19T11:38:51.593Z</time></trkpt><trkpt lat="42.190855" lon="11.9016983"><ele>342.75</ele><time>2026-04-19T11:38:52.593Z</time></trkpt><trkpt lat="42.1909217" lon="11.9015683"><ele>341.5</ele><time>2026-04-19T11:38:53.592Z</time></trkpt><trkpt lat="42.1909767" lon="11.9014283"><ele>340.25</ele><time>2026-04-19T11:38:54.592Z</time></trkpt><trkpt lat="42.191015" lon="11.9012767"><ele>339.0</ele><time>2026-04-19T11:38:55.592Z</time></trkpt><trkpt lat="42.1910383" lon="11.901105"><ele>337.3333333333333</ele><time>2026-04-19T11:38:56.593Z</time></trkpt><trkpt lat="42.1910583" lon="11.9008983"><ele>335.66666666666663</ele><time>2026-04-19T11:38:57.592Z</time></trkpt><trkpt lat="42.1910717" lon="11.9006917"><ele>334.0</ele><time>2026-04-19T11:38:58.592Z</time></trkpt><trkpt lat="42.1910833" lon="11.9004867"><ele>334.0</ele><time>2026-04-19T11:38:59.592Z</time></trkpt><trkpt lat="42.191105" lon="11.9003033"><ele>334.0</ele><time>2026-04-19T11:39:00.592Z</time></trkpt><trkpt lat="42.1911217" lon="11.9001333"><ele>334.0</ele><time>2026-04-19T11:39:01.593Z</time></trkpt><trkpt lat="42.1911283" lon="11.8999883"><ele>334.0</ele><time>2026-04-19T11:39:02.593Z</time></trkpt><trkpt lat="42.19116" lon="11.8998583"><ele>334.25</ele><time>2026-04-19T11:39:03.592Z</time></trkpt><trkpt lat="42.1912017" lon="11.8997217"><ele>334.5</ele><time>2026-04-19T11:39:04.592Z</time></trkpt><trkpt lat="42.1912667" lon="11.8995817"><ele>334.75</ele><time>2026-04-19T11:39:05.592Z</time></trkpt><trkpt lat="42.19134" lon="11.8994367"><ele>335.0</ele><time>2026-04-19T11:39:06.592Z</time></trkpt><trkpt lat="42.191425" lon="11.8993"><ele>337.75</ele><time>2026-04-19T11:39:07.593Z</time></trkpt><trkpt lat="42.1915083" lon="11.8991667"><ele>340.5</ele><time>2026-04-19T11:39:08.592Z</time></trkpt><trkpt lat="42.1915817" lon="11.8989983"><ele>343.25</ele><time>2026-04-19T11:39:09.592Z</time></trkpt><trkpt lat="42.19165" lon="11.898835"><ele>346.0</ele><time>2026-04-19T11:39:10.592Z</time></trkpt><trkpt lat="42.1917267" lon="11.8986717"><ele>346.0</ele><time>2026-04-19T11:39:11.592Z</time></trkpt><trkpt lat="42.1918" lon="11.8985083"><ele>346.0</ele><time>2026-04-19T11:39:12.592Z</time></trkpt><trkpt lat="42.19187" lon="11.8983483"><ele>346.0</ele><time>2026-04-19T11:39:13.592Z</time></trkpt><trkpt lat="42.1919433" lon="11.8982033"><ele>346.0</ele><time>2026-04-19T11:39:14.592Z</time></trkpt><trkpt lat="42.19201" lon="11.8980617"><ele>343.0</ele><time>2026-04-19T11:39:15.592Z</time></trkpt><trkpt lat="42.192065" lon="11.8979183"><ele>340.0</ele><time>2026-04-19T11:39:16.592Z</time></trkpt><trkpt lat="42.1921133" lon="11.8977617"><ele>337.0</ele><time>2026-04-19T11:39:17.593Z</time></trkpt><trkpt lat="42.1921583" lon="11.89762"><ele>334.0</ele><time>2026-04-19T11:39:18.592Z</time></trkpt><trkpt lat="42.1922233" lon="11.8975067"><ele>333.6</ele><time>2026-04-19T11:39:19.593Z</time></trkpt><trkpt lat="42.1922983" lon="11.897415"><ele>333.2</ele><time>2026-04-19T11:39:20.593Z</time></trkpt><trkpt lat="42.192375" lon="11.897365"><ele>332.8</ele><time>2026-04-19T11:39:21.592Z</time></trkpt><trkpt lat="42.1924567" lon="11.8973483"><ele>332.40000000000003</ele><time>2026-04-19T11:39:22.592Z</time></trkpt><trkpt lat="42.1925533" lon="11.8973517"><ele>332.0</ele><time>2026-04-19T11:39:23.592Z</time></trkpt><trkpt lat="42.1926583" lon="11.8973667"><ele>332.0</ele><time>2026-04-19T11:39:24.593Z</time></trkpt><trkpt lat="42.1927783" lon="11.897415"><ele>332.0</ele><time>2026-04-19T11:39:25.592Z</time></trkpt><trkpt lat="42.19291" lon="11.8974833"><ele>332.0</ele><time>2026-04-19T11:39:26.593Z</time></trkpt><trkpt lat="42.1930283" lon="11.897545"><ele>332.0</ele><time>2026-04-19T11:39:27.592Z</time></trkpt><trkpt lat="42.193135" lon="11.8975683"><ele>330.75</ele><time>2026-04-19T11:39:28.592Z</time></trkpt><trkpt lat="42.1932367" lon="11.897575"><ele>329.5</ele><time>2026-04-19T11:39:29.592Z</time></trkpt><trkpt lat="42.1933483" lon="11.897545"><ele>328.25</ele><time>2026-04-19T11:39:30.592Z</time></trkpt><trkpt lat="42.1934733" lon="11.8974867"><ele>327.0</ele><time>2026-04-19T11:39:31.592Z</time></trkpt><trkpt lat="42.1935967" lon="11.8974017"><ele>327.0</ele><time>2026-04-19T11:39:32.592Z</time></trkpt><trkpt lat="42.19371" lon="11.897315"><ele>327.0</ele><time>2026-04-19T11:39:33.592Z</time></trkpt><trkpt lat="42.1938283" lon="11.8972367"><ele>327.0</ele><time>2026-04-19T11:39:34.593Z</time></trkpt><trkpt lat="42.1939517" lon="11.8971633"><ele>327.0</ele><time>2026-04-19T11:39:35.592Z</time></trkpt><trkpt lat="42.1940783" lon="11.8971017"><ele>327.5</ele><time>2026-04-19T11:39:36.592Z</time></trkpt><trkpt lat="42.1942" lon="11.8970467"><ele>328.0</ele><time>2026-04-19T11:39:37.592Z</time></trkpt><trkpt lat="42.194325" lon="11.8969917"><ele>328.5</ele><time>2026-04-19T11:39:38.592Z</time></trkpt><trkpt lat="42.1944567" lon="11.8969483"><ele>329.0</ele><time>2026-04-19T11:39:39.592Z</time></trkpt><trkpt lat="42.1945883" lon="11.8969183"><ele>329.0</ele><time>2026-04-19T11:39:40.592Z</time></trkpt><trkpt lat="42.19473" lon="11.896895"><ele>329.0</ele><time>2026-04-19T11:39:41.592Z</time></trkpt><trkpt lat="42.1948633" lon="11.8968717"><ele>329.0</ele><time>2026-04-19T11:39:42.593Z</time></trkpt><trkpt lat="42.1949917" lon="11.8968517"><ele>329.0</ele><time>2026-04-19T11:39:43.592Z</time></trkpt><trkpt lat="42.19511" lon="11.8968383"><ele>327.75</ele><time>2026-04-19T11:39:44.592Z</time></trkpt><trkpt lat="42.195215" lon="11.89683"><ele>326.5</ele><time>2026-04-19T11:39:45.592Z</time></trkpt><trkpt lat="42.1953233" lon="11.8968217"><ele>325.25</ele><time>2026-04-19T11:39:46.592Z</time></trkpt><trkpt lat="42.1954483" lon="11.8967967"><ele>324.0</ele><time>2026-04-19T11:39:47.592Z</time></trkpt><trkpt lat="42.195575" lon="11.896755"><ele>317.25</ele><time>2026-04-19T11:39:48.592Z</time></trkpt><trkpt lat="42.1956967" lon="11.8967067"><ele>310.5</ele><time>2026-04-19T11:39:49.592Z</time></trkpt><trkpt lat="42.195815" lon="11.8966533"><ele>303.75</ele><time>2026-04-19T11:39:50.592Z</time></trkpt><trkpt lat="42.1959117" lon="11.8965867"><ele>297.0</ele><time>2026-04-19T11:39:51.592Z</time></trkpt><trkpt lat="42.1959883" lon="11.89651"><ele>297.0</ele><time>2026-04-19T11:39:52.592Z</time></trkpt><trkpt lat="42.19607" lon="11.896425"><ele>297.0</ele><time>2026-04-19T11:39:53.592Z</time></trkpt><trkpt lat="42.19616" lon="11.89631"><ele>297.0</ele><time>2026-04-19T11:39:54.592Z</time></trkpt><trkpt lat="42.19625" lon="11.8962117"><ele>297.0</ele><time>2026-04-19T11:39:55.592Z</time></trkpt><trkpt lat="42.1963383" lon="11.8961333"><ele>297.0</ele><time>2026-04-19T11:39:56.592Z</time></trkpt><trkpt lat="42.1964367" lon="11.8960583"><ele>296.3333333333333</ele><time>2026-04-19T11:39:57.592Z</time></trkpt><trkpt lat="42.19653" lon="11.8960083"><ele>295.6666666666667</ele><time>2026-04-19T11:39:58.592Z</time></trkpt><trkpt lat="42.19661" lon="11.8959667"><ele>295.0</ele><time>2026-04-19T11:39:59.592Z</time></trkpt><trkpt lat="42.1967" lon="11.895945"><ele>294.33333333333337</ele><time>2026-04-19T11:40:00.592Z</time></trkpt><trkpt lat="42.1967817" lon="11.8959433"><ele>293.6666666666667</ele><time>2026-04-19T11:40:01.593Z</time></trkpt><trkpt lat="42.196845" lon="11.8959567"><ele>293.0</ele><time>2026-04-19T11:40:02.592Z</time></trkpt><trkpt lat="42.196925" lon="11.8959817"><ele>293.0</ele><time>2026-04-19T11:40:04.592Z</time></trkpt><trkpt lat="42.1969983" lon="11.89605"><ele>293.0</ele><time>2026-04-19T11:40:07.592Z</time></trkpt><trkpt lat="42.1970717" lon="11.8961233"><ele>293.0</ele><time>2026-04-19T11:40:09.592Z</time></trkpt><trkpt lat="42.197165" lon="11.8961967"><ele>293.0</ele><time>2026-04-19T11:40:11.592Z</time></trkpt><trkpt lat="42.19726" lon="11.8963"><ele>293.0</ele><time>2026-04-19T11:40:13.592Z</time></trkpt><trkpt lat="42.1973133" lon="11.896375"><ele>289.0</ele><time>2026-04-19T11:40:14.592Z</time></trkpt><trkpt lat="42.1973717" lon="11.8964833"><ele>285.0</ele><time>2026-04-19T11:40:15.592Z</time></trkpt><trkpt lat="42.19742" lon="11.8966267"><ele>281.0</ele><time>2026-04-19T11:40:16.592Z</time></trkpt><trkpt lat="42.197475" lon="11.8968117"><ele>277.0</ele><time>2026-04-19T11:40:17.592Z</time></trkpt><trkpt lat="42.1975283" lon="11.8970067"><ele>277.0</ele><time>2026-04-19T11:40:18.593Z</time></trkpt><trkpt lat="42.197585" lon="11.8972133"><ele>277.0</ele><time>2026-04-19T11:40:19.593Z</time></trkpt><trkpt lat="42.1976633" lon="11.8974333"><ele>277.0</ele><time>2026-04-19T11:40:20.592Z</time></trkpt><trkpt lat="42.1977417" lon="11.89763"><ele>278.3333333333333</ele><time>2026-04-19T11:40:21.593Z</time></trkpt><trkpt lat="42.1978117" lon="11.897815"><ele>279.6666666666667</ele><time>2026-04-19T11:40:22.593Z</time></trkpt><trkpt lat="42.1978817" lon="11.89801"><ele>281.0</ele><time>2026-04-19T11:40:23.593Z</time></trkpt><trkpt lat="42.19795" lon="11.8982133"><ele>281.0</ele><time>2026-04-19T11:40:24.592Z</time></trkpt><trkpt lat="42.1980217" lon="11.8984117"><ele>281.0</ele><time>2026-04-19T11:40:25.592Z</time></trkpt><trkpt lat="42.1980967" lon="11.8985883"><ele>281.0</ele><time>2026-04-19T11:40:26.593Z</time></trkpt><trkpt lat="42.1981617" lon="11.8987417"><ele>281.0</ele><time>2026-04-19T11:40:27.591Z</time></trkpt><trkpt lat="42.1982117" lon="11.898905"><ele>275.75</ele><time>2026-04-19T11:40:28.591Z</time></trkpt><trkpt lat="42.1982467" lon="11.899095"><ele>270.5</ele><time>2026-04-19T11:40:29.591Z</time></trkpt><trkpt lat="42.1982967" lon="11.8992917"><ele>265.25</ele><time>2026-04-19T11:40:30.591Z</time></trkpt><trkpt lat="42.1983367" lon="11.8994783"><ele>260.0</ele><time>2026-04-19T11:40:31.591Z</time></trkpt><trkpt lat="42.1983683" lon="11.8996267"><ele>260.0</ele><time>2026-04-19T11:40:32.591Z</time></trkpt><trkpt lat="42.1983933" lon="11.8997533"><ele>260.0</ele><time>2026-04-19T11:40:33.591Z</time></trkpt><trkpt lat="42.1984067" lon="11.8998533"><ele>260.0</ele><time>2026-04-19T11:40:34.591Z</time></trkpt><trkpt lat="42.1984333" lon="11.8999967"><ele>260.0</ele><time>2026-04-19T11:40:36.591Z</time></trkpt><trkpt lat="42.19848" lon="11.9000683"><ele>260.0</ele><time>2026-04-19T11:40:39.592Z</time></trkpt><trkpt lat="42.198575" lon="11.9000467"><ele>260.0</ele><time>2026-04-19T11:41:28.591Z</time></trkpt><trkpt lat="42.1986183" lon="11.8999817"><ele>260.0</ele><time>2026-04-19T11:41:29.592Z</time></trkpt><trkpt lat="42.1986517" lon="11.8998917"><ele>260.0</ele><time>2026-04-19T11:41:30.591Z</time></trkpt><trkpt lat="42.1986733" lon="11.899785"><ele>260.0</ele><time>2026-04-19T11:41:31.591Z</time></trkpt><trkpt lat="42.1986983" lon="11.8996633"><ele>260.0</ele><time>2026-04-19T11:41:32.591Z</time></trkpt><trkpt lat="42.198725" lon="11.8995267"><ele>260.0</ele><time>2026-04-19T11:41:33.591Z</time></trkpt><trkpt lat="42.1987483" lon="11.89939"><ele>260.0</ele><time>2026-04-19T11:41:34.592Z</time></trkpt><trkpt lat="42.19876" lon="11.899255"><ele>260.0</ele><time>2026-04-19T11:41:35.591Z</time></trkpt><trkpt lat="42.1987533" lon="11.8991183"><ele>260.0</ele><time>2026-04-19T11:41:36.592Z</time></trkpt><trkpt lat="42.198745" lon="11.89897"><ele>260.0</ele><time>2026-04-19T11:41:37.591Z</time></trkpt><trkpt lat="42.1987567" lon="11.8988333"><ele>260.0</ele><time>2026-04-19T11:41:38.591Z</time></trkpt><trkpt lat="42.1987767" lon="11.8986967"><ele>260.0</ele><time>2026-04-19T11:41:39.591Z</time></trkpt><trkpt lat="42.1988167" lon="11.8985667"><ele>260.0</ele><time>2026-04-19T11:41:40.591Z</time></trkpt><trkpt lat="42.1988733" lon="11.898445"><ele>260.0</ele><time>2026-04-19T11:41:41.591Z</time></trkpt><trkpt lat="42.198935" lon="11.898325"><ele>260.0</ele><time>2026-04-19T11:41:42.591Z</time></trkpt><trkpt lat="42.1989983" lon="11.8982067"><ele>260.0</ele><time>2026-04-19T11:41:43.591Z</time></trkpt><trkpt lat="42.199055" lon="11.89808"><ele>252.25</ele><time>2026-04-19T11:41:44.592Z</time></trkpt><trkpt lat="42.1991183" lon="11.8979417"><ele>244.5</ele><time>2026-04-19T11:41:45.591Z</time></trkpt><trkpt lat="42.1991767" lon="11.8978017"><ele>236.75</ele><time>2026-04-19T11:41:46.591Z</time></trkpt><trkpt lat="42.1992333" lon="11.89766"><ele>229.0</ele><time>2026-04-19T11:41:47.591Z</time></trkpt><trkpt lat="42.1992983" lon="11.8975167"><ele>228.5</ele><time>2026-04-19T11:41:48.592Z</time></trkpt><trkpt lat="42.1993617" lon="11.89738"><ele>228.0</ele><time>2026-04-19T11:41:49.591Z</time></trkpt><trkpt lat="42.1994217" lon="11.8972317"><ele>227.5</ele><time>2026-04-19T11:41:50.591Z</time></trkpt><trkpt lat="42.1994833" lon="11.8970817"><ele>227.0</ele><time>2026-04-19T11:41:51.591Z</time></trkpt><trkpt lat="42.19955" lon="11.8969367"><ele>227.0</ele><time>2026-04-19T11:41:52.591Z</time></trkpt><trkpt lat="42.1996133" lon="11.8967933"><ele>227.0</ele><time>2026-04-19T11:41:53.592Z</time></trkpt><trkpt lat="42.199675" lon="11.8966567"><ele>227.0</ele><time>2026-04-19T11:41:54.591Z</time></trkpt><trkpt lat="42.19975" lon="11.8965167"><ele>227.0</ele><time>2026-04-19T11:41:55.591Z</time></trkpt><trkpt lat="42.1998283" lon="11.8963733"><ele>223.25</ele><time>2026-04-19T11:41:56.591Z</time></trkpt><trkpt lat="42.1998983" lon="11.8962467"><ele>219.5</ele><time>2026-04-19T11:41:57.592Z</time></trkpt><trkpt lat="42.19996" lon="11.896125"><ele>215.75</ele><time>2026-04-19T11:41:58.591Z</time></trkpt><trkpt lat="42.200025" lon="11.8960033"><ele>212.0</ele><time>2026-04-19T11:41:59.591Z</time></trkpt><trkpt lat="42.20009" lon="11.8958783"><ele>212.0</ele><time>2026-04-19T11:42:00.591Z</time></trkpt><trkpt lat="42.20016" lon="11.89575"><ele>212.0</ele><time>2026-04-19T11:42:01.591Z</time></trkpt><trkpt lat="42.2002317" lon="11.895635"><ele>212.0</ele><time>2026-04-19T11:42:02.592Z</time></trkpt><trkpt lat="42.20031" lon="11.8955233"><ele>212.0</ele><time>2026-04-19T11:42:03.591Z</time></trkpt><trkpt lat="42.2003767" lon="11.895435"><ele>212.0</ele><time>2026-04-19T11:42:04.592Z</time></trkpt><trkpt lat="42.2004333" lon="11.8953567"><ele>212.00000000000003</ele><time>2026-04-19T11:42:05.591Z</time></trkpt><trkpt lat="42.20049" lon="11.8952617"><ele>212.0</ele><time>2026-04-19T11:42:06.592Z</time></trkpt><trkpt lat="42.2005517" lon="11.8951667"><ele>212.0</ele><time>2026-04-19T11:42:07.592Z</time></trkpt><trkpt lat="42.2006067" lon="11.8950833"><ele>212.0</ele><time>2026-04-19T11:42:08.591Z</time></trkpt><trkpt lat="42.2006867" lon="11.8949967"><ele>212.00000000000003</ele><time>2026-04-19T11:42:10.591Z</time></trkpt><trkpt lat="42.20075" lon="11.89496"><ele>212.0</ele><time>2026-04-19T11:42:14.591Z</time></trkpt><trkpt lat="42.200865" lon="11.8950067"><ele>210.50000000000003</ele><time>2026-04-19T11:42:17.592Z</time></trkpt><trkpt lat="42.2009267" lon="11.895045"><ele>209.0</ele><time>2026-04-19T11:42:18.592Z</time></trkpt><trkpt lat="42.2010033" lon="11.8951"><ele>207.5</ele><time>2026-04-19T11:42:19.592Z</time></trkpt><trkpt lat="42.2010883" lon="11.8951617"><ele>206.0</ele><time>2026-04-19T11:42:20.591Z</time></trkpt><trkpt lat="42.2011633" lon="11.895225"><ele>204.50000000000003</ele><time>2026-04-19T11:42:21.591Z</time></trkpt><trkpt lat="42.2012567" lon="11.89529"><ele>203.0</ele><time>2026-04-19T11:42:22.591Z</time></trkpt><trkpt lat="42.2013517" lon="11.8953467"><ele>202.33333333333334</ele><time>2026-04-19T11:42:23.591Z</time></trkpt><trkpt lat="42.2014367" lon="11.8953867"><ele>201.66666666666669</ele><time>2026-04-19T11:42:24.592Z</time></trkpt><trkpt lat="42.2015167" lon="11.8954117"><ele>201.0</ele><time>2026-04-19T11:42:25.591Z</time></trkpt><trkpt lat="42.2016017" lon="11.8954183"><ele>200.33333333333331</ele><time>2026-04-19T11:42:26.592Z</time></trkpt><trkpt lat="42.20169" lon="11.8954133"><ele>199.66666666666666</ele><time>2026-04-19T11:42:27.591Z</time></trkpt><trkpt lat="42.201775" lon="11.8954117"><ele>199.0</ele><time>2026-04-19T11:42:28.591Z</time></trkpt><trkpt lat="42.2018617" lon="11.8953967"><ele>197.16666666666666</ele><time>2026-04-19T11:42:29.591Z</time></trkpt><trkpt lat="42.20195" lon="11.8953767"><ele>195.33333333333331</ele><time>2026-04-19T11:42:30.591Z</time></trkpt><trkpt lat="42.2020333" lon="11.8953467"><ele>193.5</ele><time>2026-04-19T11:42:31.591Z</time></trkpt><trkpt lat="42.2021117" lon="11.8953167"><ele>191.66666666666666</ele><time>2026-04-19T11:42:32.592Z</time></trkpt><trkpt lat="42.2021883" lon="11.8952833"><ele>189.83333333333331</ele><time>2026-04-19T11:42:33.592Z</time></trkpt><trkpt lat="42.2022733" lon="11.89525"><ele>188.0</ele><time>2026-04-19T11:42:34.591Z</time></trkpt><trkpt lat="42.2023633" lon="11.8952117"><ele>186.33333333333331</ele><time>2026-04-19T11:42:35.591Z</time></trkpt><trkpt lat="42.2024517" lon="11.8951867"><ele>184.66666666666666</ele><time>2026-04-19T11:42:36.591Z</time></trkpt><trkpt lat="42.2025267" lon="11.8951633"><ele>183.0</ele><time>2026-04-19T11:42:37.591Z</time></trkpt><trkpt lat="42.2025933" lon="11.895145"><ele>181.33333333333334</ele><time>2026-04-19T11:42:38.591Z</time></trkpt><trkpt lat="42.2026867" lon="11.8950867"><ele>179.66666666666669</ele><time>2026-04-19T11:42:40.591Z</time></trkpt><trkpt lat="42.2027383" lon="11.8949567"><ele>178.0</ele><time>2026-04-19T11:42:42.592Z</time></trkpt><trkpt lat="42.2027483" lon="11.8948467"><ele>178.0</ele><time>2026-04-19T11:42:43.591Z</time></trkpt><trkpt lat="42.2027517" lon="11.894715"><ele>178.0</ele><time>2026-04-19T11:42:44.591Z</time></trkpt><trkpt lat="42.2027483" lon="11.894585"><ele>178.0</ele><time>2026-04-19T11:42:45.591Z</time></trkpt><trkpt lat="42.2027433" lon="11.8944733"><ele>178.0</ele><time>2026-04-19T11:42:46.591Z</time></trkpt><trkpt lat="42.2027367" lon="11.894375"><ele>178.0</ele><time>2026-04-19T11:42:47.591Z</time></trkpt><trkpt lat="42.2027233" lon="11.8941967"><ele>178.0</ele><time>2026-04-19T11:42:49.591Z</time></trkpt><trkpt lat="42.2027133" lon="11.894075"><ele>178.0</ele><time>2026-04-19T11:42:50.592Z</time></trkpt><trkpt lat="42.2026983" lon="11.8939283"><ele>178.0</ele><time>2026-04-19T11:42:51.591Z</time></trkpt><trkpt lat="42.20268" lon="11.8937533"><ele>178.0</ele><time>2026-04-19T11:42:52.591Z</time></trkpt><trkpt lat="42.2026533" lon="11.893575"><ele>177.5</ele><time>2026-04-19T11:42:53.591Z</time></trkpt><trkpt lat="42.20264" lon="11.8933983"><ele>177.0</ele><time>2026-04-19T11:42:54.591Z</time></trkpt><trkpt lat="42.2026333" lon="11.89323"><ele>176.5</ele><time>2026-04-19T11:42:55.591Z</time></trkpt><trkpt lat="42.2026333" lon="11.8930433"><ele>176.0</ele><time>2026-04-19T11:42:56.592Z</time></trkpt><trkpt lat="42.20265" lon="11.8928683"><ele>176.0</ele><time>2026-04-19T11:42:57.592Z</time></trkpt><trkpt lat="42.2026767" lon="11.8927183"><ele>176.0</ele><time>2026-04-19T11:42:58.591Z</time></trkpt><trkpt lat="42.2026983" lon="11.892555"><ele>176.0</ele><time>2026-04-19T11:42:59.591Z</time></trkpt><trkpt lat="42.2027183" lon="11.8923817"><ele>176.0</ele><time>2026-04-19T11:43:00.591Z</time></trkpt><trkpt lat="42.2027367" lon="11.892205"><ele>176.0</ele><time>2026-04-19T11:43:01.591Z</time></trkpt><trkpt lat="42.20275" lon="11.8920383"><ele>176.0</ele><time>2026-04-19T11:43:02.591Z</time></trkpt><trkpt lat="42.2027533" lon="11.8918933"><ele>176.0</ele><time>2026-04-19T11:43:03.592Z</time></trkpt><trkpt lat="42.2027367" lon="11.8917517"><ele>176.0</ele><time>2026-04-19T11:43:04.591Z</time></trkpt><trkpt lat="42.2027117" lon="11.891605"><ele>176.0</ele><time>2026-04-19T11:43:05.591Z</time></trkpt><trkpt lat="42.2026667" lon="11.8914667"><ele>175.4</ele><time>2026-04-19T11:43:06.592Z</time></trkpt><trkpt lat="42.202625" lon="11.8913333"><ele>174.8</ele><time>2026-04-19T11:43:07.591Z</time></trkpt><trkpt lat="42.2025733" lon="11.8912117"><ele>174.20000000000002</ele><time>2026-04-19T11:43:08.591Z</time></trkpt><trkpt lat="42.202525" lon="11.891095"><ele>173.60000000000002</ele><time>2026-04-19T11:43:09.591Z</time></trkpt><trkpt lat="42.2024633" lon="11.8909867"><ele>173.0</ele><time>2026-04-19T11:43:10.592Z</time></trkpt><trkpt lat="42.20239" lon="11.890885"><ele>172.0</ele><time>2026-04-19T11:43:11.591Z</time></trkpt><trkpt lat="42.2023017" lon="11.8907783"><ele>171.0</ele><time>2026-04-19T11:43:12.591Z</time></trkpt><trkpt lat="42.20222" lon="11.8906733"><ele>170.0</ele><time>2026-04-19T11:43:13.591Z</time></trkpt><trkpt lat="42.2021367" lon="11.8905783"><ele>169.0</ele><time>2026-04-19T11:43:14.592Z</time></trkpt><trkpt lat="42.2020517" lon="11.89051"><ele>168.0</ele><time>2026-04-19T11:43:15.591Z</time></trkpt><trkpt lat="42.2019417" lon="11.890455"><ele>168.0</ele><time>2026-04-19T11:43:16.592Z</time></trkpt><trkpt lat="42.2018183" lon="11.8903967"><ele>168.0</ele><time>2026-04-19T11:43:17.591Z</time></trkpt><trkpt lat="42.2017033" lon="11.8903367"><ele>168.0</ele><time>2026-04-19T11:43:18.591Z</time></trkpt><trkpt lat="42.2015983" lon="11.8902683"><ele>168.0</ele><time>2026-04-19T11:43:19.591Z</time></trkpt><trkpt lat="42.2015" lon="11.8901933"><ele>167.8</ele><time>2026-04-19T11:43:20.592Z</time></trkpt><trkpt lat="42.2014167" lon="11.8900983"><ele>167.60000000000002</ele><time>2026-04-19T11:43:21.591Z</time></trkpt><trkpt lat="42.2013483" lon="11.89"><ele>167.39999999999998</ele><time>2026-04-19T11:43:22.591Z</time></trkpt><trkpt lat="42.2012967" lon="11.8898883"><ele>167.2</ele><time>2026-04-19T11:43:23.591Z</time></trkpt><trkpt lat="42.2012667" lon="11.8897583"><ele>167.0</ele><time>2026-04-19T11:43:24.591Z</time></trkpt><trkpt lat="42.2012433" lon="11.8896133"><ele>167.0</ele><time>2026-04-19T11:43:25.591Z</time></trkpt><trkpt lat="42.2012333" lon="11.8894683"><ele>167.0</ele><time>2026-04-19T11:43:26.591Z</time></trkpt><trkpt lat="42.20123" lon="11.8893117"><ele>167.0</ele><time>2026-04-19T11:43:27.591Z</time></trkpt><trkpt lat="42.2012117" lon="11.8891483"><ele>167.0</ele><time>2026-04-19T11:43:28.591Z</time></trkpt><trkpt lat="42.2011783" lon="11.8889883"><ele>165.0</ele><time>2026-04-19T11:43:29.59Z</time></trkpt><trkpt lat="42.2011433" lon="11.8888467"><ele>163.0</ele><time>2026-04-19T11:43:30.59Z</time></trkpt><trkpt lat="42.20111" lon="11.88869"><ele>161.0</ele><time>2026-04-19T11:43:31.59Z</time></trkpt><trkpt lat="42.2010883" lon="11.8885217"><ele>159.0</ele><time>2026-04-19T11:43:32.59Z</time></trkpt><trkpt lat="42.201085" lon="11.8883733"><ele>158.5</ele><time>2026-04-19T11:43:33.591Z</time></trkpt><trkpt lat="42.201095" lon="11.8882383"><ele>158.0</ele><time>2026-04-19T11:43:34.59Z</time></trkpt><trkpt lat="42.20111" lon="11.88814"><ele>157.5</ele><time>2026-04-19T11:43:35.59Z</time></trkpt><trkpt lat="42.201105" lon="11.8880333"><ele>157.0</ele><time>2026-04-19T11:43:36.591Z</time></trkpt><trkpt lat="42.2010817" lon="11.8879333"><ele>156.5</ele><time>2026-04-19T11:43:37.59Z</time></trkpt><trkpt lat="42.2010433" lon="11.887855"><ele>156.0</ele><time>2026-04-19T11:43:38.59Z</time></trkpt><trkpt lat="42.2009867" lon="11.88777"><ele>156.0</ele><time>2026-04-19T11:43:39.59Z</time></trkpt><trkpt lat="42.200915" lon="11.8876933"><ele>156.0</ele><time>2026-04-19T11:43:40.59Z</time></trkpt><trkpt lat="42.2008467" lon="11.887615"><ele>156.0</ele><time>2026-04-19T11:43:41.59Z</time></trkpt><trkpt lat="42.2007883" lon="11.8875433"><ele>156.0</ele><time>2026-04-19T11:43:42.59Z</time></trkpt><trkpt lat="42.20073" lon="11.8874617"><ele>156.0</ele><time>2026-04-19T11:43:43.59Z</time></trkpt><trkpt lat="42.2006733" lon="11.88736"><ele>156.0</ele><time>2026-04-19T11:43:44.59Z</time></trkpt><trkpt lat="42.2006133" lon="11.88723"><ele>156.75</ele><time>2026-04-19T11:43:45.59Z</time></trkpt><trkpt lat="42.2005433" lon="11.8870867"><ele>157.5</ele><time>2026-04-19T11:43:46.59Z</time></trkpt><trkpt lat="42.20048" lon="11.8869283"><ele>158.25</ele><time>2026-04-19T11:43:47.59Z</time></trkpt><trkpt lat="42.2004233" lon="11.8867933"><ele>159.0</ele><time>2026-04-19T11:43:48.591Z</time></trkpt><trkpt lat="42.2003733" lon="11.88669"><ele>159.0</ele><time>2026-04-19T11:43:49.59Z</time></trkpt><trkpt lat="42.20033" lon="11.8866233"><ele>159.0</ele><time>2026-04-19T11:43:50.59Z</time></trkpt><trkpt lat="42.2002683" lon="11.8865583"><ele>159.0</ele><time>2026-04-19T11:43:52.59Z</time></trkpt><trkpt lat="42.200175" lon="11.88653"><ele>159.0</ele><time>2026-04-19T11:43:54.59Z</time></trkpt><trkpt lat="42.2000967" lon="11.8864983"><ele>159.0</ele><time>2026-04-19T11:43:55.59Z</time></trkpt><trkpt lat="42.2000083" lon="11.8864583"><ele>159.0</ele><time>2026-04-19T11:43:56.59Z</time></trkpt><trkpt lat="42.1999183" lon="11.8864233"><ele>159.0</ele><time>2026-04-19T11:43:57.59Z</time></trkpt><trkpt lat="42.199835" lon="11.88639"><ele>159.0</ele><time>2026-04-19T11:43:58.591Z</time></trkpt><trkpt lat="42.1997633" lon="11.8863533"><ele>159.0</ele><time>2026-04-19T11:43:59.59Z</time></trkpt><trkpt lat="42.199695" lon="11.88631"><ele>159.0</ele><time>2026-04-19T11:44:00.59Z</time></trkpt><trkpt lat="42.1996283" lon="11.8862533"><ele>159.0</ele><time>2026-04-19T11:44:01.59Z</time></trkpt><trkpt lat="42.1995517" lon="11.88617"><ele>159.0</ele><time>2026-04-19T11:44:02.591Z</time></trkpt><trkpt lat="42.1994683" lon="11.886045"><ele>159.25</ele><time>2026-04-19T11:44:03.59Z</time></trkpt><trkpt lat="42.19938" lon="11.8859083"><ele>159.5</ele><time>2026-04-19T11:44:04.59Z</time></trkpt><trkpt lat="42.1992933" lon="11.88576"><ele>159.75</ele><time>2026-04-19T11:44:05.59Z</time></trkpt><trkpt lat="42.1992067" lon="11.8856133"><ele>160.0</ele><time>2026-04-19T11:44:06.591Z</time></trkpt><trkpt lat="42.199115" lon="11.88546"><ele>160.0</ele><time>2026-04-19T11:44:07.59Z</time></trkpt><trkpt lat="42.19902" lon="11.8853017"><ele>160.0</ele><time>2026-04-19T11:44:08.59Z</time></trkpt><trkpt lat="42.198925" lon="11.885155"><ele>160.0</ele><time>2026-04-19T11:44:09.59Z</time></trkpt><trkpt lat="42.1988383" lon="11.8850167"><ele>160.0</ele><time>2026-04-19T11:44:10.59Z</time></trkpt><trkpt lat="42.1987533" lon="11.8848817"><ele>162.0</ele><time>2026-04-19T11:44:11.591Z</time></trkpt><trkpt lat="42.1986733" lon="11.884755"><ele>164.0</ele><time>2026-04-19T11:44:12.59Z</time></trkpt><trkpt lat="42.19859" lon="11.884635"><ele>166.0</ele><time>2026-04-19T11:44:13.59Z</time></trkpt><trkpt lat="42.1985167" lon="11.8845433"><ele>168.0</ele><time>2026-04-19T11:44:14.59Z</time></trkpt><trkpt lat="42.19842" lon="11.8844567"><ele>168.0</ele><time>2026-04-19T11:44:15.59Z</time></trkpt><trkpt lat="42.1983117" lon="11.88439"><ele>168.0</ele><time>2026-04-19T11:44:16.59Z</time></trkpt><trkpt lat="42.198195" lon="11.8843433"><ele>168.0</ele><time>2026-04-19T11:44:17.59Z</time></trkpt><trkpt lat="42.1980867" lon="11.8843067"><ele>168.0</ele><time>2026-04-19T11:44:18.59Z</time></trkpt><trkpt lat="42.197985" lon="11.8842667"><ele>168.0</ele><time>2026-04-19T11:44:19.591Z</time></trkpt><trkpt lat="42.1978833" lon="11.8842033"><ele>168.0</ele><time>2026-04-19T11:44:20.59Z</time></trkpt><trkpt lat="42.1977733" lon="11.88411"><ele>168.0</ele><time>2026-04-19T11:44:21.59Z</time></trkpt><trkpt lat="42.1976733" lon="11.8839783"><ele>168.0</ele><time>2026-04-19T11:44:22.59Z</time></trkpt><trkpt lat="42.1975717" lon="11.8838233"><ele>168.0</ele><time>2026-04-19T11:44:23.59Z</time></trkpt><trkpt lat="42.1974883" lon="11.8836533"><ele>168.0</ele><time>2026-04-19T11:44:24.59Z</time></trkpt><trkpt lat="42.1974117" lon="11.88347"><ele>168.0</ele><time>2026-04-19T11:44:25.59Z</time></trkpt><trkpt lat="42.197355" lon="11.883275"><ele>168.0</ele><time>2026-04-19T11:44:26.591Z</time></trkpt><trkpt lat="42.1973167" lon="11.883105"><ele>168.0</ele><time>2026-04-19T11:44:27.59Z</time></trkpt><trkpt lat="42.1972867" lon="11.8829583"><ele>168.0</ele><time>2026-04-19T11:44:28.59Z</time></trkpt><trkpt lat="42.1972683" lon="11.8828383"><ele>168.0</ele><time>2026-04-19T11:44:29.59Z</time></trkpt><trkpt lat="42.19723" lon="11.8827383"><ele>168.0</ele><time>2026-04-19T11:44:30.59Z</time></trkpt><trkpt lat="42.1971933" lon="11.882655"><ele>167.0</ele><time>2026-04-19T11:44:31.59Z</time></trkpt><trkpt lat="42.1971517" lon="11.88257"><ele>166.0</ele><time>2026-04-19T11:44:33.59Z</time></trkpt><trkpt lat="42.1971033" lon="11.8824933"><ele>165.0</ele><time>2026-04-19T11:44:39.59Z</time></trkpt><trkpt lat="42.1970417" lon="11.88244"><ele>164.0</ele><time>2026-04-19T11:44:41.59Z</time></trkpt><trkpt lat="42.1969783" lon="11.882355"><ele>163.0</ele><time>2026-04-19T11:44:43.591Z</time></trkpt><trkpt lat="42.19694" lon="11.8822083"><ele>162.0</ele><time>2026-04-19T11:44:45.59Z</time></trkpt><trkpt lat="42.196935" lon="11.8821033"><ele>162.0</ele><time>2026-04-19T11:44:46.59Z</time></trkpt><trkpt lat="42.1969417" lon="11.8819667"><ele>162.0</ele><time>2026-04-19T11:44:47.59Z</time></trkpt><trkpt lat="42.1969467" lon="11.88181"><ele>162.0</ele><time>2026-04-19T11:44:48.59Z</time></trkpt><trkpt lat="42.1969483" lon="11.8816183"><ele>162.0</ele><time>2026-04-19T11:44:49.59Z</time></trkpt><trkpt lat="42.1969433" lon="11.8814"><ele>160.66666666666666</ele><time>2026-04-19T11:44:50.59Z</time></trkpt><trkpt lat="42.1969283" lon="11.8811733"><ele>159.33333333333331</ele><time>2026-04-19T11:44:51.59Z</time></trkpt><trkpt lat="42.1969267" lon="11.8809233"><ele>158.0</ele><time>2026-04-19T11:44:52.591Z</time></trkpt><trkpt lat="42.1969183" lon="11.8806933"><ele>156.75</ele><time>2026-04-19T11:44:53.591Z</time></trkpt><trkpt lat="42.1969083" lon="11.8804783"><ele>155.5</ele><time>2026-04-19T11:44:54.59Z</time></trkpt><trkpt lat="42.196905" lon="11.8802817"><ele>154.25</ele><time>2026-04-19T11:44:55.59Z</time></trkpt><trkpt lat="42.196905" lon="11.8801017"><ele>153.0</ele><time>2026-04-19T11:44:56.59Z</time></trkpt><trkpt lat="42.1968967" lon="11.8799333"><ele>152.8</ele><time>2026-04-19T11:44:57.59Z</time></trkpt><trkpt lat="42.1969017" lon="11.879765"><ele>152.60000000000002</ele><time>2026-04-19T11:44:58.59Z</time></trkpt><trkpt lat="42.1969083" lon="11.8796033"><ele>152.39999999999998</ele><time>2026-04-19T11:44:59.59Z</time></trkpt><trkpt lat="42.1969083" lon="11.8794517"><ele>152.2</ele><time>2026-04-19T11:45:00.591Z</time></trkpt><trkpt lat="42.19691" lon="11.879335"><ele>152.0</ele><time>2026-04-19T11:45:01.59Z</time></trkpt><trkpt lat="42.1969217" lon="11.87924"><ele>152.0</ele><time>2026-04-19T11:45:02.591Z</time></trkpt><trkpt lat="42.196965" lon="11.8791067"><ele>152.0</ele><time>2026-04-19T11:45:04.59Z</time></trkpt><trkpt lat="42.19701" lon="11.87902"><ele>152.0</ele><time>2026-04-19T11:45:07.59Z</time></trkpt><trkpt lat="42.1971233" lon="11.8790083"><ele>152.0</ele><time>2026-04-19T11:45:10.591Z</time></trkpt><trkpt lat="42.1972033" lon="11.8790367"><ele>152.0</ele><time>2026-04-19T11:45:11.59Z</time></trkpt><trkpt lat="42.1973033" lon="11.8790683"><ele>152.5</ele><time>2026-04-19T11:45:12.591Z</time></trkpt><trkpt lat="42.1974183" lon="11.8790883"><ele>153.0</ele><time>2026-04-19T11:45:13.59Z</time></trkpt><trkpt lat="42.1975383" lon="11.8790767"><ele>153.5</ele><time>2026-04-19T11:45:14.59Z</time></trkpt><trkpt lat="42.1976533" lon="11.879065"><ele>154.0</ele><time>2026-04-19T11:45:15.59Z</time></trkpt><trkpt lat="42.1977617" lon="11.8790417"><ele>154.0</ele><time>2026-04-19T11:45:16.59Z</time></trkpt><trkpt lat="42.197865" lon="11.8789917"><ele>154.0</ele><time>2026-04-19T11:45:17.59Z</time></trkpt><trkpt lat="42.1979783" lon="11.8789017"><ele>154.0</ele><time>2026-04-19T11:45:18.59Z</time></trkpt><trkpt lat="42.1980917" lon="11.87879"><ele>154.0</ele><time>2026-04-19T11:45:19.591Z</time></trkpt><trkpt lat="42.198205" lon="11.8786567"><ele>153.5</ele><time>2026-04-19T11:45:20.59Z</time></trkpt><trkpt lat="42.198305" lon="11.8784967"><ele>153.0</ele><time>2026-04-19T11:45:21.59Z</time></trkpt><trkpt lat="42.198405" lon="11.8783383"><ele>152.5</ele><time>2026-04-19T11:45:22.59Z</time></trkpt><trkpt lat="42.1984933" lon="11.8782033"><ele>152.0</ele><time>2026-04-19T11:45:23.59Z</time></trkpt><trkpt lat="42.1985933" lon="11.8780467"><ele>153.33333333333331</ele><time>2026-04-19T11:45:24.59Z</time></trkpt><trkpt lat="42.1987033" lon="11.87788"><ele>154.66666666666666</ele><time>2026-04-19T11:45:25.59Z</time></trkpt><trkpt lat="42.198825" lon="11.8777133"><ele>156.0</ele><time>2026-04-19T11:45:26.59Z</time></trkpt><trkpt lat="42.1989417" lon="11.8775467"><ele>155.33333333333334</ele><time>2026-04-19T11:45:27.59Z</time></trkpt><trkpt lat="42.1990567" lon="11.8773783"><ele>154.66666666666669</ele><time>2026-04-19T11:45:28.59Z</time></trkpt><trkpt lat="42.19917" lon="11.877215"><ele>154.0</ele><time>2026-04-19T11:45:29.59Z</time></trkpt><trkpt lat="42.1992867" lon="11.8770483"><ele>154.0</ele><time>2026-04-19T11:45:30.591Z</time></trkpt><trkpt lat="42.1994017" lon="11.8768767"><ele>154.0</ele><time>2026-04-19T11:45:31.59Z</time></trkpt><trkpt lat="42.19951" lon="11.8767183"><ele>154.0</ele><time>2026-04-19T11:45:32.59Z</time></trkpt><trkpt lat="42.1996067" lon="11.87657"><ele>153.4</ele><time>2026-04-19T11:45:33.59Z</time></trkpt><trkpt lat="42.1996967" lon="11.87645"><ele>152.8</ele><time>2026-04-19T11:45:34.59Z</time></trkpt><trkpt lat="42.199775" lon="11.8763433"><ele>152.2</ele><time>2026-04-19T11:45:35.59Z</time></trkpt><trkpt lat="42.1998467" lon="11.876245"><ele>151.6</ele><time>2026-04-19T11:45:36.59Z</time></trkpt><trkpt lat="42.199905" lon="11.8761567"><ele>151.0</ele><time>2026-04-19T11:45:37.59Z</time></trkpt><trkpt lat="42.1999633" lon="11.8760667"><ele>151.0</ele><time>2026-04-19T11:45:38.59Z</time></trkpt><trkpt lat="42.2000117" lon="11.87599"><ele>151.0</ele><time>2026-04-19T11:45:39.59Z</time></trkpt><trkpt lat="42.2000567" lon="11.87591"><ele>151.0</ele><time>2026-04-19T11:45:40.59Z</time></trkpt><trkpt lat="42.20009" lon="11.87581"><ele>151.0</ele><time>2026-04-19T11:45:41.591Z</time></trkpt><trkpt lat="42.2001" lon="11.8757017"><ele>151.0</ele><time>2026-04-19T11:45:42.59Z</time></trkpt><trkpt lat="42.2000917" lon="11.8755733"><ele>151.0</ele><time>2026-04-19T11:45:43.59Z</time></trkpt><trkpt lat="42.20006" lon="11.875435"><ele>153.0</ele><time>2026-04-19T11:45:44.59Z</time></trkpt><trkpt lat="42.2000283" lon="11.8752867"><ele>155.0</ele><time>2026-04-19T11:45:45.59Z</time></trkpt><trkpt lat="42.2" lon="11.8751233"><ele>157.0</ele><time>2026-04-19T11:45:46.59Z</time></trkpt><trkpt lat="42.19996" lon="11.87495"><ele>159.0</ele><time>2026-04-19T11:45:47.59Z</time></trkpt><trkpt lat="42.1999283" lon="11.8747667"><ele>159.25</ele><time>2026-04-19T11:45:48.59Z</time></trkpt><trkpt lat="42.1998983" lon="11.8745967"><ele>159.5</ele><time>2026-04-19T11:45:49.591Z</time></trkpt><trkpt lat="42.199865" lon="11.874435"><ele>159.75</ele><time>2026-04-19T11:45:50.59Z</time></trkpt><trkpt lat="42.1998417" lon="11.8742817"><ele>160.0</ele><time>2026-04-19T11:45:51.591Z</time></trkpt><trkpt lat="42.199815" lon="11.8741267"><ele>161.0</ele><time>2026-04-19T11:45:52.59Z</time></trkpt><trkpt lat="42.1997717" lon="11.8739817"><ele>162.0</ele><time>2026-04-19T11:45:53.59Z</time></trkpt><trkpt lat="42.1997333" lon="11.8738383"><ele>163.0</ele><time>2026-04-19T11:45:54.591Z</time></trkpt><trkpt lat="42.1997" lon="11.8736933"><ele>164.0</ele><time>2026-04-19T11:45:55.59Z</time></trkpt><trkpt lat="42.1996733" lon="11.8735417"><ele>163.5</ele><time>2026-04-19T11:45:56.59Z</time></trkpt><trkpt lat="42.199665" lon="11.8733767"><ele>163.0</ele><time>2026-04-19T11:45:57.59Z</time></trkpt><trkpt lat="42.199665" lon="11.8732017"><ele>162.5</ele><time>2026-04-19T11:45:58.59Z</time></trkpt><trkpt lat="42.1996767" lon="11.873015"><ele>162.0</ele><time>2026-04-19T11:45:59.59Z</time></trkpt><trkpt lat="42.1997133" lon="11.8728267"><ele>162.0</ele><time>2026-04-19T11:46:00.59Z</time></trkpt><trkpt lat="42.1997517" lon="11.8726367"><ele>162.0</ele><time>2026-04-19T11:46:01.591Z</time></trkpt><trkpt lat="42.1997917" lon="11.8724717"><ele>162.0</ele><time>2026-04-19T11:46:02.59Z</time></trkpt><trkpt lat="42.1998217" lon="11.8723183"><ele>162.0</ele><time>2026-04-19T11:46:03.59Z</time></trkpt><trkpt lat="42.1998533" lon="11.8721667"><ele>159.5</ele><time>2026-04-19T11:46:04.59Z</time></trkpt><trkpt lat="42.1998633" lon="11.872"><ele>157.0</ele><time>2026-04-19T11:46:05.59Z</time></trkpt><trkpt lat="42.19986" lon="11.8718383"><ele>154.5</ele><time>2026-04-19T11:46:06.59Z</time></trkpt><trkpt lat="42.1998433" lon="11.8716883"><ele>152.0</ele><time>2026-04-19T11:46:07.59Z</time></trkpt><trkpt lat="42.1998167" lon="11.8715467"><ele>150.75</ele><time>2026-04-19T11:46:08.59Z</time></trkpt><trkpt lat="42.199795" lon="11.8714033"><ele>149.5</ele><time>2026-04-19T11:46:09.591Z</time></trkpt><trkpt lat="42.1997883" lon="11.8712433"><ele>148.25</ele><time>2026-04-19T11:46:10.59Z</time></trkpt><trkpt lat="42.1997967" lon="11.8710883"><ele>147.0</ele><time>2026-04-19T11:46:11.59Z</time></trkpt><trkpt lat="42.19982" lon="11.8709333"><ele>147.0</ele><time>2026-04-19T11:46:12.59Z</time></trkpt><trkpt lat="42.19984" lon="11.87077"><ele>147.0</ele><time>2026-04-19T11:46:13.59Z</time></trkpt><trkpt lat="42.1998733" lon="11.8706067"><ele>147.0</ele><time>2026-04-19T11:46:14.59Z</time></trkpt><trkpt lat="42.1999183" lon="11.870435"><ele>147.0</ele><time>2026-04-19T11:46:15.59Z</time></trkpt><trkpt lat="42.199975" lon="11.8702667"><ele>145.0</ele><time>2026-04-19T11:46:16.59Z</time></trkpt><trkpt lat="42.2000467" lon="11.8700983"><ele>143.0</ele><time>2026-04-19T11:46:17.59Z</time></trkpt><trkpt lat="42.2001383" lon="11.86995"><ele>141.0</ele><time>2026-04-19T11:46:18.591Z</time></trkpt><trkpt lat="42.2002417" lon="11.869805"><ele>139.0</ele><time>2026-04-19T11:46:19.591Z</time></trkpt><trkpt lat="42.2003217" lon="11.869655"><ele>139.0</ele><time>2026-04-19T11:46:20.59Z</time></trkpt><trkpt lat="42.2003967" lon="11.8694733"><ele>139.0</ele><time>2026-04-19T11:46:21.591Z</time></trkpt><trkpt lat="42.200455" lon="11.8692967"><ele>139.0</ele><time>2026-04-19T11:46:22.59Z</time></trkpt><trkpt lat="42.2005033" lon="11.86913"><ele>139.0</ele><time>2026-04-19T11:46:23.591Z</time></trkpt><trkpt lat="42.2005467" lon="11.8689633"><ele>138.4</ele><time>2026-04-19T11:46:24.59Z</time></trkpt><trkpt lat="42.2005833" lon="11.8688067"><ele>137.8</ele><time>2026-04-19T11:46:25.59Z</time></trkpt><trkpt lat="42.2006067" lon="11.8686567"><ele>137.2</ele><time>2026-04-19T11:46:26.59Z</time></trkpt><trkpt lat="42.200625" lon="11.86852"><ele>136.6</ele><time>2026-04-19T11:46:27.589Z</time></trkpt><trkpt lat="42.2006467" lon="11.8683867"><ele>136.0</ele><time>2026-04-19T11:46:28.589Z</time></trkpt><trkpt lat="42.2006767" lon="11.8682617"><ele>136.0</ele><time>2026-04-19T11:46:29.589Z</time></trkpt><trkpt lat="42.2007167" lon="11.86815"><ele>136.0</ele><time>2026-04-19T11:46:30.589Z</time></trkpt><trkpt lat="42.2007567" lon="11.8680517"><ele>136.0</ele><time>2026-04-19T11:46:31.589Z</time></trkpt><trkpt lat="42.2007833" lon="11.8679667"><ele>136.0</ele><time>2026-04-19T11:46:32.589Z</time></trkpt><trkpt lat="42.200765" lon="11.8678183"><ele>136.0</ele><time>2026-04-19T11:46:34.59Z</time></trkpt><trkpt lat="42.2007033" lon="11.8677883"><ele>136.0</ele><time>2026-04-19T11:46:35.59Z</time></trkpt><trkpt lat="42.2006267" lon="11.8677867"><ele>133.75</ele><time>2026-04-19T11:46:36.589Z</time></trkpt><trkpt lat="42.200535" lon="11.86784"><ele>131.5</ele><time>2026-04-19T11:46:37.589Z</time></trkpt><trkpt lat="42.2004383" lon="11.8679333"><ele>129.25</ele><time>2026-04-19T11:46:38.589Z</time></trkpt><trkpt lat="42.2003317" lon="11.868065"><ele>127.0</ele><time>2026-04-19T11:46:39.589Z</time></trkpt><trkpt lat="42.20022" lon="11.868205"><ele>127.0</ele><time>2026-04-19T11:46:40.589Z</time></trkpt><trkpt lat="42.2001083" lon="11.8683483"><ele>127.0</ele><time>2026-04-19T11:46:41.589Z</time></trkpt><trkpt lat="42.200005" lon="11.8684867"><ele>127.0</ele><time>2026-04-19T11:46:42.589Z</time></trkpt><trkpt lat="42.1999117" lon="11.8686267"><ele>127.0</ele><time>2026-04-19T11:46:43.589Z</time></trkpt><trkpt lat="42.1998217" lon="11.8687617"><ele>126.75</ele><time>2026-04-19T11:46:44.589Z</time></trkpt><trkpt lat="42.199745" lon="11.8689"><ele>126.5</ele><time>2026-04-19T11:46:45.589Z</time></trkpt><trkpt lat="42.1996717" lon="11.8690567"><ele>126.25</ele><time>2026-04-19T11:46:46.589Z</time></trkpt><trkpt lat="42.199605" lon="11.8692217"><ele>126.0</ele><time>2026-04-19T11:46:47.589Z</time></trkpt><trkpt lat="42.1995483" lon="11.869385"><ele>126.0</ele><time>2026-04-19T11:46:48.589Z</time></trkpt><trkpt lat="42.1995" lon="11.8695483"><ele>126.0</ele><time>2026-04-19T11:46:49.589Z</time></trkpt><trkpt lat="42.1994533" lon="11.8697133"><ele>126.0</ele><time>2026-04-19T11:46:50.589Z</time></trkpt><trkpt lat="42.1994167" lon="11.869865"><ele>126.0</ele><time>2026-04-19T11:46:51.589Z</time></trkpt><trkpt lat="42.1993717" lon="11.8700183"><ele>128.0</ele><time>2026-04-19T11:46:52.589Z</time></trkpt><trkpt lat="42.199325" lon="11.8701633"><ele>130.0</ele><time>2026-04-19T11:46:53.59Z</time></trkpt><trkpt lat="42.1992767" lon="11.8702917"><ele>132.0</ele><time>2026-04-19T11:46:54.589Z</time></trkpt><trkpt lat="42.199215" lon="11.8703967"><ele>134.0</ele><time>2026-04-19T11:46:55.589Z</time></trkpt><trkpt lat="42.1991483" lon="11.8704883"><ele>136.0</ele><time>2026-04-19T11:46:56.589Z</time></trkpt><trkpt lat="42.1990783" lon="11.870555"><ele>136.0</ele><time>2026-04-19T11:46:57.589Z</time></trkpt><trkpt lat="42.19901" lon="11.8706"><ele>136.0</ele><time>2026-04-19T11:46:58.589Z</time></trkpt><trkpt lat="42.1989433" lon="11.8706233"><ele>136.0</ele><time>2026-04-19T11:46:59.589Z</time></trkpt><trkpt lat="42.1988783" lon="11.87063"><ele>136.0</ele><time>2026-04-19T11:47:00.589Z</time></trkpt><trkpt lat="42.19881" lon="11.8706133"><ele>136.0</ele><time>2026-04-19T11:47:01.589Z</time></trkpt><trkpt lat="42.1987417" lon="11.870565"><ele>136.0</ele><time>2026-04-19T11:47:02.589Z</time></trkpt><trkpt lat="42.198665" lon="11.8704867"><ele>137.25</ele><time>2026-04-19T11:47:03.589Z</time></trkpt><trkpt lat="42.1985817" lon="11.8703433"><ele>138.5</ele><time>2026-04-19T11:47:04.589Z</time></trkpt><trkpt lat="42.19851" lon="11.87018"><ele>139.75</ele><time>2026-04-19T11:47:05.589Z</time></trkpt><trkpt lat="42.1984167" lon="11.870045"><ele>141.0</ele><time>2026-04-19T11:47:06.589Z</time></trkpt><trkpt lat="42.1983433" lon="11.8699117"><ele>139.0</ele><time>2026-04-19T11:47:07.589Z</time></trkpt><trkpt lat="42.1982667" lon="11.869775"><ele>137.0</ele><time>2026-04-19T11:47:08.589Z</time></trkpt><trkpt lat="42.19821" lon="11.86964"><ele>135.0</ele><time>2026-04-19T11:47:09.59Z</time></trkpt><trkpt lat="42.198165" lon="11.8694983"><ele>133.0</ele><time>2026-04-19T11:47:10.589Z</time></trkpt><trkpt lat="42.19814" lon="11.86933"><ele>134.75</ele><time>2026-04-19T11:47:11.589Z</time></trkpt><trkpt lat="42.1981283" lon="11.8691567"><ele>136.5</ele><time>2026-04-19T11:47:12.589Z</time></trkpt><trkpt lat="42.1981267" lon="11.869005"><ele>138.25</ele><time>2026-04-19T11:47:13.59Z</time></trkpt><trkpt lat="42.1980933" lon="11.86884"><ele>140.0</ele><time>2026-04-19T11:47:14.589Z</time></trkpt><trkpt lat="42.1980483" lon="11.8686683"><ele>140.0</ele><time>2026-04-19T11:47:15.59Z</time></trkpt><trkpt lat="42.1979833" lon="11.8685117"><ele>140.0</ele><time>2026-04-19T11:47:16.59Z</time></trkpt><trkpt lat="42.1979033" lon="11.8683567"><ele>140.0</ele><time>2026-04-19T11:47:17.59Z</time></trkpt><trkpt lat="42.1978267" lon="11.8682133"><ele>140.0</ele><time>2026-04-19T11:47:18.589Z</time></trkpt><trkpt lat="42.1977583" lon="11.86808"><ele>137.5</ele><time>2026-04-19T11:47:19.589Z</time></trkpt><trkpt lat="42.1976933" lon="11.867945"><ele>135.0</ele><time>2026-04-19T11:47:20.589Z</time></trkpt><trkpt lat="42.1976267" lon="11.8677967"><ele>132.5</ele><time>2026-04-19T11:47:21.589Z</time></trkpt><trkpt lat="42.197545" lon="11.8676383"><ele>130.0</ele><time>2026-04-19T11:47:22.59Z</time></trkpt><trkpt lat="42.197455" lon="11.86748"><ele>132.33333333333334</ele><time>2026-04-19T11:47:23.589Z</time></trkpt><trkpt lat="42.1973683" lon="11.8673067"><ele>134.66666666666666</ele><time>2026-04-19T11:47:24.59Z</time></trkpt><trkpt lat="42.1972817" lon="11.8671317"><ele>137.0</ele><time>2026-04-19T11:47:25.59Z</time></trkpt><trkpt lat="42.1971983" lon="11.866975"><ele>137.0</ele><time>2026-04-19T11:47:26.589Z</time></trkpt><trkpt lat="42.1971133" lon="11.8668383"><ele>137.0</ele><time>2026-04-19T11:47:27.589Z</time></trkpt><trkpt lat="42.1970383" lon="11.866705"><ele>137.0</ele><time>2026-04-19T11:47:28.59Z</time></trkpt><trkpt lat="42.196955" lon="11.8665467"><ele>137.0</ele><time>2026-04-19T11:47:29.59Z</time></trkpt><trkpt lat="42.1968633" lon="11.8663867"><ele>134.0</ele><time>2026-04-19T11:47:30.59Z</time></trkpt><trkpt lat="42.1967717" lon="11.866225"><ele>131.0</ele><time>2026-04-19T11:47:31.59Z</time></trkpt><trkpt lat="42.196675" lon="11.8660517"><ele>128.0</ele><time>2026-04-19T11:47:32.59Z</time></trkpt><trkpt lat="42.1965767" lon="11.86586"><ele>133.66666666666666</ele><time>2026-04-19T11:47:33.589Z</time></trkpt><trkpt lat="42.196475" lon="11.865665"><ele>139.33333333333334</ele><time>2026-04-19T11:47:34.589Z</time></trkpt><trkpt lat="42.196365" lon="11.8654533"><ele>145.0</ele><time>2026-04-19T11:47:35.589Z</time></trkpt><trkpt lat="42.1962483" lon="11.8652333"><ele>142.0</ele><time>2026-04-19T11:47:36.589Z</time></trkpt><trkpt lat="42.1961333" lon="11.8650233"><ele>139.0</ele><time>2026-04-19T11:47:37.589Z</time></trkpt><trkpt lat="42.19602" lon="11.864815"><ele>136.0</ele><time>2026-04-19T11:47:38.589Z</time></trkpt><trkpt lat="42.1959167" lon="11.8646117"><ele>136.0</ele><time>2026-04-19T11:47:39.59Z</time></trkpt><trkpt lat="42.195805" lon="11.8644067"><ele>136.0</ele><time>2026-04-19T11:47:40.589Z</time></trkpt><trkpt lat="42.195695" lon="11.8641967"><ele>136.0</ele><time>2026-04-19T11:47:41.589Z</time></trkpt><trkpt lat="42.1955883" lon="11.8639917"><ele>138.66666666666669</ele><time>2026-04-19T11:47:42.589Z</time></trkpt><trkpt lat="42.1954967" lon="11.8638083"><ele>141.33333333333334</ele><time>2026-04-19T11:47:43.589Z</time></trkpt><trkpt lat="42.195405" lon="11.8636433"><ele>144.0</ele><time>2026-04-19T11:47:44.589Z</time></trkpt><trkpt lat="42.195325" lon="11.8634867"><ele>142.66666666666666</ele><time>2026-04-19T11:47:45.589Z</time></trkpt><trkpt lat="42.195235" lon="11.86332"><ele>141.33333333333331</ele><time>2026-04-19T11:47:46.589Z</time></trkpt><trkpt lat="42.1951333" lon="11.863135"><ele>140.0</ele><time>2026-04-19T11:47:47.589Z</time></trkpt><trkpt lat="42.1950267" lon="11.8629617"><ele>140.0</ele><time>2026-04-19T11:47:48.59Z</time></trkpt><trkpt lat="42.1949267" lon="11.8628"><ele>140.0</ele><time>2026-04-19T11:47:49.589Z</time></trkpt><trkpt lat="42.1948233" lon="11.8626533"><ele>140.0</ele><time>2026-04-19T11:47:50.589Z</time></trkpt><trkpt lat="42.1947067" lon="11.86251"><ele>140.33333333333331</ele><time>2026-04-19T11:47:51.589Z</time></trkpt><trkpt lat="42.194575" lon="11.862385"><ele>140.66666666666666</ele><time>2026-04-19T11:47:52.59Z</time></trkpt><trkpt lat="42.194445" lon="11.8622483"><ele>141.0</ele><time>2026-04-19T11:47:53.59Z</time></trkpt><trkpt lat="42.1943133" lon="11.8620883"><ele>141.0</ele><time>2026-04-19T11:47:54.589Z</time></trkpt><trkpt lat="42.1941883" lon="11.8619267"><ele>141.0</ele><time>2026-04-19T11:47:55.589Z</time></trkpt><trkpt lat="42.194085" lon="11.8617567"><ele>141.0</ele><time>2026-04-19T11:47:56.589Z</time></trkpt><trkpt lat="42.1939833" lon="11.8615667"><ele>142.66666666666666</ele><time>2026-04-19T11:47:57.589Z</time></trkpt><trkpt lat="42.1938817" lon="11.861365"><ele>144.33333333333331</ele><time>2026-04-19T11:47:58.589Z</time></trkpt><trkpt lat="42.1937967" lon="11.8611733"><ele>146.0</ele><time>2026-04-19T11:47:59.589Z</time></trkpt><trkpt lat="42.1937067" lon="11.8610083"><ele>145.25</ele><time>2026-04-19T11:48:00.589Z</time></trkpt><trkpt lat="42.1936167" lon="11.8608467"><ele>144.5</ele><time>2026-04-19T11:48:01.589Z</time></trkpt><trkpt lat="42.193535" lon="11.8606983"><ele>143.75</ele><time>2026-04-19T11:48:02.589Z</time></trkpt><trkpt lat="42.1934667" lon="11.8605667"><ele>143.0</ele><time>2026-04-19T11:48:03.589Z</time></trkpt><trkpt lat="42.1933917" lon="11.8604233"><ele>143.0</ele><time>2026-04-19T11:48:04.59Z</time></trkpt><trkpt lat="42.193315" lon="11.860275"><ele>143.0</ele><time>2026-04-19T11:48:05.589Z</time></trkpt><trkpt lat="42.1932367" lon="11.86012"><ele>143.0</ele><time>2026-04-19T11:48:06.589Z</time></trkpt><trkpt lat="42.1931583" lon="11.859965"><ele>143.0</ele><time>2026-04-19T11:48:07.59Z</time></trkpt><trkpt lat="42.1930767" lon="11.85982"><ele>142.25</ele><time>2026-04-19T11:48:08.589Z</time></trkpt><trkpt lat="42.1930067" lon="11.859685"><ele>141.5</ele><time>2026-04-19T11:48:09.589Z</time></trkpt><trkpt lat="42.1929367" lon="11.8595583"><ele>140.75</ele><time>2026-04-19T11:48:10.589Z</time></trkpt><trkpt lat="42.1928717" lon="11.859435"><ele>140.0</ele><time>2026-04-19T11:48:11.589Z</time></trkpt><trkpt lat="42.1928083" lon="11.85932"><ele>139.0</ele><time>2026-04-19T11:48:12.59Z</time></trkpt><trkpt lat="42.1927417" lon="11.8592117"><ele>138.0</ele><time>2026-04-19T11:48:13.589Z</time></trkpt><trkpt lat="42.1926717" lon="11.859105"><ele>137.0</ele><time>2026-04-19T11:48:14.59Z</time></trkpt><trkpt lat="42.1925917" lon="11.8589983"><ele>136.0</ele><time>2026-04-19T11:48:15.589Z</time></trkpt><trkpt lat="42.1924983" lon="11.858885"><ele>135.0</ele><time>2026-04-19T11:48:16.589Z</time></trkpt><trkpt lat="42.1923983" lon="11.8587567"><ele>134.66666666666666</ele><time>2026-04-19T11:48:17.589Z</time></trkpt><trkpt lat="42.1923017" lon="11.8586167"><ele>134.33333333333331</ele><time>2026-04-19T11:48:18.589Z</time></trkpt><trkpt lat="42.1921883" lon="11.8584667"><ele>134.0</ele><time>2026-04-19T11:48:19.59Z</time></trkpt><trkpt lat="42.192055" lon="11.8583367"><ele>134.0</ele><time>2026-04-19T11:48:20.589Z</time></trkpt><trkpt lat="42.1919167" lon="11.8581967"><ele>134.0</ele><time>2026-04-19T11:48:21.589Z</time></trkpt><trkpt lat="42.1918017" lon="11.858065"><ele>134.0</ele><time>2026-04-19T11:48:22.589Z</time></trkpt><trkpt lat="42.1916833" lon="11.8579483"><ele>134.0</ele><time>2026-04-19T11:48:23.589Z</time></trkpt><trkpt lat="42.1915533" lon="11.8578433"><ele>134.0</ele><time>2026-04-19T11:48:24.589Z</time></trkpt><trkpt lat="42.1914367" lon="11.85776"><ele>134.0</ele><time>2026-04-19T11:48:25.589Z</time></trkpt><trkpt lat="42.19135" lon="11.857715"><ele>134.0</ele><time>2026-04-19T11:48:26.59Z</time></trkpt><trkpt lat="42.19126" lon="11.857705"><ele>135.5</ele><time>2026-04-19T11:48:27.589Z</time></trkpt><trkpt lat="42.1911567" lon="11.8577267"><ele>137.0</ele><time>2026-04-19T11:48:28.589Z</time></trkpt><trkpt lat="42.1910417" lon="11.8577717"><ele>138.5</ele><time>2026-04-19T11:48:29.589Z</time></trkpt><trkpt lat="42.1909083" lon="11.8578333"><ele>140.0</ele><time>2026-04-19T11:48:30.589Z</time></trkpt><trkpt lat="42.1907583" lon="11.8578917"><ele>139.0</ele><time>2026-04-19T11:48:31.589Z</time></trkpt><trkpt lat="42.1905933" lon="11.8579417"><ele>138.0</ele><time>2026-04-19T11:48:32.589Z</time></trkpt><trkpt lat="42.1904433" lon="11.8579833"><ele>137.0</ele><time>2026-04-19T11:48:33.589Z</time></trkpt><trkpt lat="42.1903067" lon="11.8580383"><ele>137.0</ele><time>2026-04-19T11:48:34.59Z</time></trkpt><trkpt lat="42.1901883" lon="11.85809"><ele>137.0</ele><time>2026-04-19T11:48:35.589Z</time></trkpt><trkpt lat="42.19007" lon="11.858135"><ele>137.0</ele><time>2026-04-19T11:48:36.589Z</time></trkpt><trkpt lat="42.1899617" lon="11.85818"><ele>137.0</ele><time>2026-04-19T11:48:37.589Z</time></trkpt><trkpt lat="42.189855" lon="11.8582217"><ele>137.33333333333331</ele><time>2026-04-19T11:48:38.589Z</time></trkpt><trkpt lat="42.1897633" lon="11.8582617"><ele>137.66666666666666</ele><time>2026-04-19T11:48:39.589Z</time></trkpt><trkpt lat="42.1896933" lon="11.8583017"><ele>138.0</ele><time>2026-04-19T11:48:40.589Z</time></trkpt><trkpt lat="42.1896333" lon="11.858335"><ele>138.33333333333334</ele><time>2026-04-19T11:48:41.589Z</time></trkpt><trkpt lat="42.1895133" lon="11.8583333"><ele>138.66666666666669</ele><time>2026-04-19T11:48:43.59Z</time></trkpt><trkpt lat="42.1894467" lon="11.8582783"><ele>139.0</ele><time>2026-04-19T11:48:44.589Z</time></trkpt><trkpt lat="42.189355" lon="11.8582017"><ele>139.0</ele><time>2026-04-19T11:48:45.589Z</time></trkpt><trkpt lat="42.189235" lon="11.858115"><ele>139.0</ele><time>2026-04-19T11:48:46.589Z</time></trkpt><trkpt lat="42.1891067" lon="11.8580383"><ele>139.0</ele><time>2026-04-19T11:48:47.589Z</time></trkpt><trkpt lat="42.1889883" lon="11.85797"><ele>139.0</ele><time>2026-04-19T11:48:48.589Z</time></trkpt><trkpt lat="42.18889" lon="11.8579083"><ele>139.2</ele><time>2026-04-19T11:48:49.589Z</time></trkpt><trkpt lat="42.1888083" lon="11.8578367"><ele>139.4</ele><time>2026-04-19T11:48:50.59Z</time></trkpt><trkpt lat="42.1887367" lon="11.8577383"><ele>139.6</ele><time>2026-04-19T11:48:51.589Z</time></trkpt><trkpt lat="42.1886883" lon="11.8576217"><ele>139.8</ele><time>2026-04-19T11:48:52.589Z</time></trkpt><trkpt lat="42.1886533" lon="11.8574933"><ele>140.0</ele><time>2026-04-19T11:48:53.589Z</time></trkpt><trkpt lat="42.1886017" lon="11.8573517"><ele>140.0</ele><time>2026-04-19T11:48:54.589Z</time></trkpt><trkpt lat="42.1885383" lon="11.857205"><ele>140.0</ele><time>2026-04-19T11:48:55.589Z</time></trkpt><trkpt lat="42.1884633" lon="11.85704"><ele>140.0</ele><time>2026-04-19T11:48:56.589Z</time></trkpt><trkpt lat="42.1883917" lon="11.856865"><ele>140.0</ele><time>2026-04-19T11:48:57.589Z</time></trkpt><trkpt lat="42.18834" lon="11.8566633"><ele>139.25</ele><time>2026-04-19T11:48:58.589Z</time></trkpt><trkpt lat="42.1883" lon="11.8564733"><ele>138.5</ele><time>2026-04-19T11:48:59.589Z</time></trkpt><trkpt lat="42.188245" lon="11.8562933"><ele>137.75</ele><time>2026-04-19T11:49:00.589Z</time></trkpt><trkpt lat="42.1881817" lon="11.85614"><ele>137.0</ele><time>2026-04-19T11:49:01.59Z</time></trkpt><trkpt lat="42.18812" lon="11.8560017"><ele>139.0</ele><time>2026-04-19T11:49:02.59Z</time></trkpt><trkpt lat="42.1880467" lon="11.8558733"><ele>141.0</ele><time>2026-04-19T11:49:03.589Z</time></trkpt><trkpt lat="42.1879717" lon="11.85575"><ele>143.0</ele><time>2026-04-19T11:49:04.589Z</time></trkpt><trkpt lat="42.1879083" lon="11.8556167"><ele>145.0</ele><time>2026-04-19T11:49:05.589Z</time></trkpt><trkpt lat="42.1878533" lon="11.8554633"><ele>145.0</ele><time>2026-04-19T11:49:06.589Z</time></trkpt><trkpt lat="42.1877983" lon="11.8553067"><ele>145.0</ele><time>2026-04-19T11:49:07.589Z</time></trkpt><trkpt lat="42.1877217" lon="11.85516"><ele>145.0</ele><time>2026-04-19T11:49:08.589Z</time></trkpt><trkpt lat="42.1876233" lon="11.8550083"><ele>145.0</ele><time>2026-04-19T11:49:09.59Z</time></trkpt><trkpt lat="42.1875183" lon="11.854875"><ele>145.5</ele><time>2026-04-19T11:49:10.589Z</time></trkpt><trkpt lat="42.1874217" lon="11.854755"><ele>146.0</ele><time>2026-04-19T11:49:11.589Z</time></trkpt><trkpt lat="42.1873117" lon="11.854615"><ele>146.5</ele><time>2026-04-19T11:49:12.589Z</time></trkpt><trkpt lat="42.1872" lon="11.8544933"><ele>147.0</ele><time>2026-04-19T11:49:13.589Z</time></trkpt><trkpt lat="42.1870917" lon="11.85439"><ele>144.75</ele><time>2026-04-19T11:49:14.59Z</time></trkpt><trkpt lat="42.1870017" lon="11.8542767"><ele>142.5</ele><time>2026-04-19T11:49:15.589Z</time></trkpt><trkpt lat="42.1869283" lon="11.8541467"><ele>140.25</ele><time>2026-04-19T11:49:16.589Z</time></trkpt><trkpt lat="42.186865" lon="11.853985"><ele>138.0</ele><time>2026-04-19T11:49:17.589Z</time></trkpt><trkpt lat="42.1868" lon="11.8538267"><ele>138.0</ele><time>2026-04-19T11:49:18.589Z</time></trkpt><trkpt lat="42.1867317" lon="11.8536767"><ele>138.0</ele><time>2026-04-19T11:49:19.588Z</time></trkpt><trkpt lat="42.1866383" lon="11.8535533"><ele>138.0</ele><time>2026-04-19T11:49:20.588Z</time></trkpt><trkpt lat="42.1865317" lon="11.8534483"><ele>138.0</ele><time>2026-04-19T11:49:21.588Z</time></trkpt><trkpt lat="42.1864067" lon="11.8533617"><ele>137.75</ele><time>2026-04-19T11:49:22.588Z</time></trkpt><trkpt lat="42.186275" lon="11.8533017"><ele>137.5</ele><time>2026-04-19T11:49:23.588Z</time></trkpt><trkpt lat="42.186145" lon="11.8532667"><ele>137.25</ele><time>2026-04-19T11:49:24.588Z</time></trkpt><trkpt lat="42.1859983" lon="11.85326"><ele>137.0</ele><time>2026-04-19T11:49:25.588Z</time></trkpt><trkpt lat="42.1858383" lon="11.8532833"><ele>137.0</ele><time>2026-04-19T11:49:26.588Z</time></trkpt><trkpt lat="42.1856983" lon="11.85331"><ele>137.0</ele><time>2026-04-19T11:49:27.589Z</time></trkpt><trkpt lat="42.1855883" lon="11.8533383"><ele>137.0</ele><time>2026-04-19T11:49:28.588Z</time></trkpt><trkpt lat="42.1854867" lon="11.8533617"><ele>137.0</ele><time>2026-04-19T11:49:29.588Z</time></trkpt><trkpt lat="42.1853883" lon="11.8533533"><ele>137.5</ele><time>2026-04-19T11:49:30.589Z</time></trkpt><trkpt lat="42.185285" lon="11.8533"><ele>138.0</ele><time>2026-04-19T11:49:31.588Z</time></trkpt><trkpt lat="42.1851783" lon="11.85321"><ele>138.5</ele><time>2026-04-19T11:49:32.588Z</time></trkpt><trkpt lat="42.1850633" lon="11.853095"><ele>139.0</ele><time>2026-04-19T11:49:33.588Z</time></trkpt><trkpt lat="42.1849467" lon="11.8529733"><ele>139.75</ele><time>2026-04-19T11:49:34.588Z</time></trkpt><trkpt lat="42.1848383" lon="11.852865"><ele>140.5</ele><time>2026-04-19T11:49:35.588Z</time></trkpt><trkpt lat="42.1847367" lon="11.8527767"><ele>141.25</ele><time>2026-04-19T11:49:36.589Z</time></trkpt><trkpt lat="42.1846283" lon="11.8527"><ele>142.0</ele><time>2026-04-19T11:49:37.589Z</time></trkpt><trkpt lat="42.184505" lon="11.85263"><ele>141.5</ele><time>2026-04-19T11:49:38.589Z</time></trkpt><trkpt lat="42.1843717" lon="11.852545"><ele>141.0</ele><time>2026-04-19T11:49:39.588Z</time></trkpt><trkpt lat="42.184235" lon="11.852455"><ele>140.5</ele><time>2026-04-19T11:49:40.588Z</time></trkpt><trkpt lat="42.1841117" lon="11.852375"><ele>140.0</ele><time>2026-04-19T11:49:41.589Z</time></trkpt><trkpt lat="42.1839833" lon="11.8522967"><ele>140.0</ele><time>2026-04-19T11:49:42.588Z</time></trkpt><trkpt lat="42.1838617" lon="11.8522183"><ele>140.0</ele><time>2026-04-19T11:49:43.588Z</time></trkpt><trkpt lat="42.18376" lon="11.8521333"><ele>140.0</ele><time>2026-04-19T11:49:44.589Z</time></trkpt><trkpt lat="42.1836617" lon="11.8520467"><ele>140.0</ele><time>2026-04-19T11:49:45.588Z</time></trkpt><trkpt lat="42.18356" lon="11.8519683"><ele>140.0</ele><time>2026-04-19T11:49:46.588Z</time></trkpt><trkpt lat="42.183455" lon="11.8518983"><ele>140.0</ele><time>2026-04-19T11:49:47.589Z</time></trkpt><trkpt lat="42.183345" lon="11.8518333"><ele>140.0</ele><time>2026-04-19T11:49:48.588Z</time></trkpt><trkpt lat="42.1832317" lon="11.851775"><ele>140.0</ele><time>2026-04-19T11:49:49.589Z</time></trkpt><trkpt lat="42.1831" lon="11.8517033"><ele>138.75</ele><time>2026-04-19T11:49:50.588Z</time></trkpt><trkpt lat="42.1829767" lon="11.85161"><ele>137.5</ele><time>2026-04-19T11:49:51.588Z</time></trkpt><trkpt lat="42.1828483" lon="11.851525"><ele>136.25</ele><time>2026-04-19T11:49:52.588Z</time></trkpt><trkpt lat="42.1827233" lon="11.85144"><ele>135.0</ele><time>2026-04-19T11:49:53.588Z</time></trkpt><trkpt lat="42.1826017" lon="11.851365"><ele>135.0</ele><time>2026-04-19T11:49:54.589Z</time></trkpt><trkpt lat="42.182485" lon="11.8512767"><ele>135.0</ele><time>2026-04-19T11:49:55.588Z</time></trkpt><trkpt lat="42.1823617" lon="11.8511767"><ele>135.0</ele><time>2026-04-19T11:49:56.588Z</time></trkpt><trkpt lat="42.182235" lon="11.8510883"><ele>135.0</ele><time>2026-04-19T11:49:57.588Z</time></trkpt><trkpt lat="42.18211" lon="11.8510017"><ele>133.25</ele><time>2026-04-19T11:49:58.588Z</time></trkpt><trkpt lat="42.1819917" lon="11.8509267"><ele>131.5</ele><time>2026-04-19T11:49:59.588Z</time></trkpt><trkpt lat="42.1818767" lon="11.850875"><ele>129.75</ele><time>2026-04-19T11:50:00.588Z</time></trkpt><trkpt lat="42.1817567" lon="11.8508383"><ele>128.0</ele><time>2026-04-19T11:50:01.588Z</time></trkpt><trkpt lat="42.1816383" lon="11.8508217"><ele>128.0</ele><time>2026-04-19T11:50:02.589Z</time></trkpt><trkpt lat="42.1815333" lon="11.8508283"><ele>128.0</ele><time>2026-04-19T11:50:03.588Z</time></trkpt><trkpt lat="42.1814283" lon="11.8508383"><ele>128.0</ele><time>2026-04-19T11:50:04.588Z</time></trkpt><trkpt lat="42.1813333" lon="11.8508317"><ele>128.0</ele><time>2026-04-19T11:50:05.588Z</time></trkpt><trkpt lat="42.1812383" lon="11.85081"><ele>128.0</ele><time>2026-04-19T11:50:06.588Z</time></trkpt><trkpt lat="42.1811417" lon="11.850775"><ele>128.4</ele><time>2026-04-19T11:50:07.588Z</time></trkpt><trkpt lat="42.18104" lon="11.850735"><ele>128.8</ele><time>2026-04-19T11:50:08.588Z</time></trkpt><trkpt lat="42.1809533" lon="11.8506767"><ele>129.2</ele><time>2026-04-19T11:50:09.588Z</time></trkpt><trkpt lat="42.18089" lon="11.850605"><ele>129.6</ele><time>2026-04-19T11:50:10.588Z</time></trkpt><trkpt lat="42.18084" lon="11.850515"><ele>130.0</ele><time>2026-04-19T11:50:11.588Z</time></trkpt><trkpt lat="42.1807867" lon="11.8504233"><ele>130.0</ele><time>2026-04-19T11:50:12.589Z</time></trkpt><trkpt lat="42.1807183" lon="11.850335"><ele>130.0</ele><time>2026-04-19T11:50:13.588Z</time></trkpt><trkpt lat="42.180645" lon="11.850275"><ele>130.0</ele><time>2026-04-19T11:50:14.588Z</time></trkpt><trkpt lat="42.1805733" lon="11.85023"><ele>130.0</ele><time>2026-04-19T11:50:15.588Z</time></trkpt><trkpt lat="42.1805" lon="11.8501717"><ele>130.0</ele><time>2026-04-19T11:50:16.588Z</time></trkpt><trkpt lat="42.1804233" lon="11.8500883"><ele>130.0</ele><time>2026-04-19T11:50:17.589Z</time></trkpt><trkpt lat="42.1803417" lon="11.8499867"><ele>130.2</ele><time>2026-04-19T11:50:18.588Z</time></trkpt><trkpt lat="42.1802567" lon="11.8498833"><ele>130.4</ele><time>2026-04-19T11:50:19.588Z</time></trkpt><trkpt lat="42.18018" lon="11.8497817"><ele>130.6</ele><time>2026-04-19T11:50:20.588Z</time></trkpt><trkpt lat="42.180105" lon="11.8496817"><ele>130.8</ele><time>2026-04-19T11:50:21.588Z</time></trkpt><trkpt lat="42.180045" lon="11.849595"><ele>131.0</ele><time>2026-04-19T11:50:22.588Z</time></trkpt><trkpt lat="42.18" lon="11.849515"><ele>131.0</ele><time>2026-04-19T11:50:23.588Z</time></trkpt><trkpt lat="42.179955" lon="11.84942"><ele>131.0</ele><time>2026-04-19T11:50:25.588Z</time></trkpt><trkpt lat="42.1798917" lon="11.849295"><ele>131.0</ele><time>2026-04-19T11:50:33.588Z</time></trkpt><trkpt lat="42.1798633" lon="11.8492"><ele>131.0</ele><time>2026-04-19T11:50:34.588Z</time></trkpt><trkpt lat="42.17984" lon="11.8490933"><ele>131.0</ele><time>2026-04-19T11:50:35.588Z</time></trkpt><trkpt lat="42.1798233" lon="11.8489883"><ele>131.0</ele><time>2026-04-19T11:50:36.589Z</time></trkpt><trkpt lat="42.1798233" lon="11.8488867"><ele>130.8</ele><time>2026-04-19T11:50:37.589Z</time></trkpt><trkpt lat="42.1798217" lon="11.8487717"><ele>130.6</ele><time>2026-04-19T11:50:38.588Z</time></trkpt><trkpt lat="42.1798183" lon="11.8486267"><ele>130.4</ele><time>2026-04-19T11:50:39.588Z</time></trkpt><trkpt lat="42.179815" lon="11.8484767"><ele>130.2</ele><time>2026-04-19T11:50:40.588Z</time></trkpt><trkpt lat="42.1798067" lon="11.8483367"><ele>130.0</ele><time>2026-04-19T11:50:41.588Z</time></trkpt><trkpt lat="42.1798033" lon="11.8481867"><ele>130.0</ele><time>2026-04-19T11:50:42.588Z</time></trkpt><trkpt lat="42.179795" lon="11.8480333"><ele>130.0</ele><time>2026-04-19T11:50:43.588Z</time></trkpt><trkpt lat="42.1797817" lon="11.847875"><ele>130.0</ele><time>2026-04-19T11:50:44.588Z</time></trkpt><trkpt lat="42.1797767" lon="11.8477283"><ele>130.0</ele><time>2026-04-19T11:50:45.589Z</time></trkpt><trkpt lat="42.1797667" lon="11.8476"><ele>130.0</ele><time>2026-04-19T11:50:46.589Z</time></trkpt><trkpt lat="42.179745" lon="11.8474783"><ele>128.83333333333334</ele><time>2026-04-19T11:50:47.588Z</time></trkpt><trkpt lat="42.1797133" lon="11.8473717"><ele>127.66666666666667</ele><time>2026-04-19T11:50:48.588Z</time></trkpt><trkpt lat="42.17968" lon="11.84726"><ele>126.5</ele><time>2026-04-19T11:50:49.588Z</time></trkpt><trkpt lat="42.17965" lon="11.8471533"><ele>125.33333333333334</ele><time>2026-04-19T11:50:50.588Z</time></trkpt><trkpt lat="42.1796217" lon="11.847055"><ele>124.16666666666667</ele><time>2026-04-19T11:50:51.588Z</time></trkpt><trkpt lat="42.1795983" lon="11.846965"><ele>123.0</ele><time>2026-04-19T11:50:52.588Z</time></trkpt><trkpt lat="42.179585" lon="11.8468733"><ele>121.4</ele><time>2026-04-19T11:50:53.588Z</time></trkpt><trkpt lat="42.1795667" lon="11.8467733"><ele>119.80000000000001</ele><time>2026-04-19T11:50:54.588Z</time></trkpt><trkpt lat="42.1795417" lon="11.8466667"><ele>118.2</ele><time>2026-04-19T11:50:55.589Z</time></trkpt><trkpt lat="42.179505" lon="11.8465483"><ele>116.6</ele><time>2026-04-19T11:50:56.589Z</time></trkpt><trkpt lat="42.1794633" lon="11.8464233"><ele>115.0</ele><time>2026-04-19T11:50:57.588Z</time></trkpt><trkpt lat="42.1794317" lon="11.8462717"><ele>115.0</ele><time>2026-04-19T11:50:58.588Z</time></trkpt><trkpt lat="42.1794" lon="11.8461183"><ele>115.0</ele><time>2026-04-19T11:50:59.588Z</time></trkpt><trkpt lat="42.17937" lon="11.845985"><ele>115.0</ele><time>2026-04-19T11:51:00.588Z</time></trkpt><trkpt lat="42.1793517" lon="11.8458583"><ele>115.0</ele><time>2026-04-19T11:51:01.589Z</time></trkpt><trkpt lat="42.1793217" lon="11.84574"><ele>115.0</ele><time>2026-04-19T11:51:02.588Z</time></trkpt><trkpt lat="42.1792733" lon="11.8456117"><ele>113.66666666666667</ele><time>2026-04-19T11:51:03.588Z</time></trkpt><trkpt lat="42.179215" lon="11.8454567"><ele>112.33333333333334</ele><time>2026-04-19T11:51:04.589Z</time></trkpt><trkpt lat="42.1791517" lon="11.8452617"><ele>111.0</ele><time>2026-04-19T11:51:05.588Z</time></trkpt><trkpt lat="42.1790783" lon="11.8450333"><ele>109.33333333333334</ele><time>2026-04-19T11:51:06.589Z</time></trkpt><trkpt lat="42.1789867" lon="11.8447767"><ele>107.66666666666667</ele><time>2026-04-19T11:51:07.588Z</time></trkpt><trkpt lat="42.1789" lon="11.8445267"><ele>106.0</ele><time>2026-04-19T11:51:08.588Z</time></trkpt><trkpt lat="42.1788133" lon="11.8442933"><ele>105.66666666666667</ele><time>2026-04-19T11:51:09.588Z</time></trkpt><trkpt lat="42.1787333" lon="11.8440783"><ele>105.33333333333334</ele><time>2026-04-19T11:51:10.588Z</time></trkpt><trkpt lat="42.1786583" lon="11.8438733"><ele>105.0</ele><time>2026-04-19T11:51:11.589Z</time></trkpt><trkpt lat="42.178585" lon="11.84368"><ele>105.0</ele><time>2026-04-19T11:51:12.588Z</time></trkpt><trkpt lat="42.1785067" lon="11.8435117"><ele>105.0</ele><time>2026-04-19T11:51:13.588Z</time></trkpt><trkpt lat="42.17843" lon="11.84336"><ele>105.0</ele><time>2026-04-19T11:51:14.588Z</time></trkpt><trkpt lat="42.17835" lon="11.843235"><ele>105.0</ele><time>2026-04-19T11:51:15.588Z</time></trkpt><trkpt lat="42.1782617" lon="11.8431233"><ele>104.8</ele><time>2026-04-19T11:51:16.588Z</time></trkpt><trkpt lat="42.1781833" lon="11.8430183"><ele>104.6</ele><time>2026-04-19T11:51:17.588Z</time></trkpt><trkpt lat="42.1781067" lon="11.8429417"><ele>104.4</ele><time>2026-04-19T11:51:18.588Z</time></trkpt><trkpt lat="42.1780383" lon="11.84287"><ele>104.2</ele><time>2026-04-19T11:51:19.588Z</time></trkpt><trkpt lat="42.17798" lon="11.8427967"><ele>104.0</ele><time>2026-04-19T11:51:20.589Z</time></trkpt><trkpt lat="42.177915" lon="11.842715"><ele>104.0</ele><time>2026-04-19T11:51:21.588Z</time></trkpt><trkpt lat="42.1778533" lon="11.8426367"><ele>104.0</ele><time>2026-04-19T11:51:22.588Z</time></trkpt><trkpt lat="42.1777967" lon="11.84257"><ele>104.0</ele><time>2026-04-19T11:51:23.588Z</time></trkpt><trkpt lat="42.17775" lon="11.84251"><ele>104.0</ele><time>2026-04-19T11:51:24.588Z</time></trkpt><trkpt lat="42.177665" lon="11.8424083"><ele>104.0</ele><time>2026-04-19T11:51:26.589Z</time></trkpt><trkpt lat="42.177575" lon="11.8422833"><ele>103.85714285714285</ele><time>2026-04-19T11:51:28.588Z</time></trkpt><trkpt lat="42.17753" lon="11.84222"><ele>103.71428571428572</ele><time>2026-04-19T11:51:29.588Z</time></trkpt><trkpt lat="42.177485" lon="11.842155"><ele>103.57142857142857</ele><time>2026-04-19T11:51:30.589Z</time></trkpt><trkpt lat="42.1774367" lon="11.8420867"><ele>103.42857142857142</ele><time>2026-04-19T11:51:31.588Z</time></trkpt><trkpt lat="42.1773783" lon="11.842015"><ele>103.28571428571428</ele><time>2026-04-19T11:51:32.588Z</time></trkpt><trkpt lat="42.177325" lon="11.841945"><ele>103.14285714285714</ele><time>2026-04-19T11:51:33.588Z</time></trkpt><trkpt lat="42.1772633" lon="11.8418883"><ele>103.0</ele><time>2026-04-19T11:51:34.588Z</time></trkpt><trkpt lat="42.1772117" lon="11.8418317"><ele>102.16666666666667</ele><time>2026-04-19T11:51:35.588Z</time></trkpt><trkpt lat="42.177165" lon="11.84176"><ele>101.33333333333334</ele><time>2026-04-19T11:51:36.588Z</time></trkpt><trkpt lat="42.1771117" lon="11.8416883"><ele>100.5</ele><time>2026-04-19T11:51:37.588Z</time></trkpt><trkpt lat="42.1770583" lon="11.8416083"><ele>99.66666666666666</ele><time>2026-04-19T11:51:38.588Z</time></trkpt><trkpt lat="42.1769933" lon="11.841525"><ele>98.83333333333333</ele><time>2026-04-19T11:51:39.588Z</time></trkpt><trkpt lat="42.17692" lon="11.841445"><ele>98.0</ele><time>2026-04-19T11:51:40.589Z</time></trkpt><trkpt lat="42.17685" lon="11.84137"><ele>97.99999999999999</ele><time>2026-04-19T11:51:41.588Z</time></trkpt><trkpt lat="42.1767917" lon="11.8412967"><ele>98.0</ele><time>2026-04-19T11:51:42.588Z</time></trkpt><trkpt lat="42.1767267" lon="11.8412217"><ele>98.0</ele><time>2026-04-19T11:51:43.588Z</time></trkpt><trkpt lat="42.17667" lon="11.84115"><ele>98.0</ele><time>2026-04-19T11:51:44.588Z</time></trkpt><trkpt lat="42.1766133" lon="11.841075"><ele>97.99999999999999</ele><time>2026-04-19T11:51:45.588Z</time></trkpt><trkpt lat="42.1765567" lon="11.84099"><ele>98.0</ele><time>2026-04-19T11:51:46.589Z</time></trkpt><trkpt lat="42.1765033" lon="11.8409083"><ele>96.49999999999999</ele><time>2026-04-19T11:51:47.588Z</time></trkpt><trkpt lat="42.176445" lon="11.8408317"><ele>95.0</ele><time>2026-04-19T11:51:48.589Z</time></trkpt><trkpt lat="42.1763883" lon="11.8407567"><ele>93.5</ele><time>2026-04-19T11:51:49.588Z</time></trkpt><trkpt lat="42.17633" lon="11.8406917"><ele>92.0</ele><time>2026-04-19T11:51:50.588Z</time></trkpt><trkpt lat="42.17627" lon="11.8406267"><ele>90.5</ele><time>2026-04-19T11:51:51.589Z</time></trkpt><trkpt lat="42.1762133" lon="11.84056"><ele>89.0</ele><time>2026-04-19T11:51:52.589Z</time></trkpt><trkpt lat="42.1761583" lon="11.8404867"><ele>89.0</ele><time>2026-04-19T11:51:53.588Z</time></trkpt><trkpt lat="42.1761" lon="11.840415"><ele>89.0</ele><time>2026-04-19T11:51:54.588Z</time></trkpt><trkpt lat="42.1760333" lon="11.8403367"><ele>89.0</ele><time>2026-04-19T11:51:55.588Z</time></trkpt><trkpt lat="42.17597" lon="11.8402717"><ele>89.0</ele><time>2026-04-19T11:51:56.588Z</time></trkpt><trkpt lat="42.1759033" lon="11.840205"><ele>89.0</ele><time>2026-04-19T11:51:57.588Z</time></trkpt><trkpt lat="42.1758383" lon="11.8401267"><ele>89.0</ele><time>2026-04-19T11:51:58.588Z</time></trkpt><trkpt lat="42.1757717" lon="11.8400367"><ele>88.0</ele><time>2026-04-19T11:51:59.589Z</time></trkpt><trkpt lat="42.1757033" lon="11.8399383"><ele>87.0</ele><time>2026-04-19T11:52:00.589Z</time></trkpt><trkpt lat="42.1756483" lon="11.839855"><ele>86.0</ele><time>2026-04-19T11:52:01.588Z</time></trkpt><trkpt lat="42.1755867" lon="11.8397733"><ele>85.0</ele><time>2026-04-19T11:52:02.588Z</time></trkpt><trkpt lat="42.1755217" lon="11.8396967"><ele>84.0</ele><time>2026-04-19T11:52:03.588Z</time></trkpt><trkpt lat="42.1754617" lon="11.839625"><ele>83.0</ele><time>2026-04-19T11:52:04.588Z</time></trkpt><trkpt lat="42.1753983" lon="11.83955"><ele>82.33333333333334</ele><time>2026-04-19T11:52:05.589Z</time></trkpt><trkpt lat="42.1753383" lon="11.8394833"><ele>81.66666666666667</ele><time>2026-04-19T11:52:06.588Z</time></trkpt><trkpt lat="42.1752883" lon="11.83943"><ele>81.0</ele><time>2026-04-19T11:52:07.588Z</time></trkpt><trkpt lat="42.1751617" lon="11.8394017"><ele>80.33333333333333</ele><time>2026-04-19T11:52:09.588Z</time></trkpt><trkpt lat="42.1750983" lon="11.8394383"><ele>79.66666666666666</ele><time>2026-04-19T11:52:10.588Z</time></trkpt><trkpt lat="42.1750667" lon="11.839525"><ele>79.0</ele><time>2026-04-19T11:52:11.587Z</time></trkpt><trkpt lat="42.1750483" lon="11.839615"><ele>79.0</ele><time>2026-04-19T11:52:12.587Z</time></trkpt><trkpt lat="42.1750417" lon="11.8397033"><ele>79.0</ele><time>2026-04-19T11:52:13.587Z</time></trkpt><trkpt lat="42.1750267" lon="11.839795"><ele>79.0</ele><time>2026-04-19T11:52:14.587Z</time></trkpt><trkpt lat="42.1750133" lon="11.8398883"><ele>79.0</ele><time>2026-04-19T11:52:15.587Z</time></trkpt><trkpt lat="42.175005" lon="11.83998"><ele>79.0</ele><time>2026-04-19T11:52:16.587Z</time></trkpt><trkpt lat="42.1749917" lon="11.84007"><ele>79.0</ele><time>2026-04-19T11:52:17.587Z</time></trkpt><trkpt lat="42.1749767" lon="11.8402283"><ele>78.16666666666666</ele><time>2026-04-19T11:52:19.587Z</time></trkpt><trkpt lat="42.174985" lon="11.8403817"><ele>77.33333333333333</ele><time>2026-04-19T11:52:21.587Z</time></trkpt><trkpt lat="42.175" lon="11.8404683"><ele>76.5</ele><time>2026-04-19T11:52:22.588Z</time></trkpt><trkpt lat="42.1750117" lon="11.8405533"><ele>75.66666666666667</ele><time>2026-04-19T11:52:23.588Z</time></trkpt><trkpt lat="42.1750433" lon="11.840635"><ele>74.83333333333334</ele><time>2026-04-19T11:52:24.587Z</time></trkpt><trkpt lat="42.1750767" lon="11.84072"><ele>74.0</ele><time>2026-04-19T11:52:25.587Z</time></trkpt><trkpt lat="42.1750717" lon="11.8408383"><ele>74.0</ele><time>2026-04-19T11:52:27.588Z</time></trkpt><trkpt lat="42.174995" lon="11.84085"><ele>74.0</ele><time>2026-04-19T11:52:29.588Z</time></trkpt><trkpt lat="42.1749183" lon="11.84078"><ele>74.0</ele><time>2026-04-19T11:52:31.587Z</time></trkpt><trkpt lat="42.1748267" lon="11.840665"><ele>74.0</ele><time>2026-04-19T11:52:33.587Z</time></trkpt><trkpt lat="42.17473" lon="11.8405583"><ele>74.0</ele><time>2026-04-19T11:52:35.587Z</time></trkpt><trkpt lat="42.17464" lon="11.8404333"><ele>71.33333333333334</ele><time>2026-04-19T11:52:37.587Z</time></trkpt><trkpt lat="42.1745917" lon="11.8403617"><ele>68.66666666666667</ele><time>2026-04-19T11:52:38.587Z</time></trkpt><trkpt lat="42.174535" lon="11.8402967"><ele>66.0</ele><time>2026-04-19T11:52:39.587Z</time></trkpt><trkpt lat="42.1744817" lon="11.840235"><ele>63.33333333333333</ele><time>2026-04-19T11:52:40.587Z</time></trkpt><trkpt lat="42.1744333" lon="11.8401717"><ele>60.666666666666664</ele><time>2026-04-19T11:52:41.587Z</time></trkpt><trkpt lat="42.1743667" lon="11.840075"><ele>58.0</ele><time>2026-04-19T11:52:43.587Z</time></trkpt><trkpt lat="42.1742933" lon="11.84011"><ele>57.99999999999999</ele><time>2026-04-19T11:52:46.587Z</time></trkpt><trkpt lat="42.174245" lon="11.8401867"><ele>58.0</ele><time>2026-04-19T11:52:49.588Z</time></trkpt><trkpt lat="42.174215" lon="11.8402717"><ele>58.0</ele><time>2026-04-19T11:52:51.587Z</time></trkpt><trkpt lat="42.1741367" lon="11.84026"><ele>58.0</ele><time>2026-04-19T11:52:54.587Z</time></trkpt><trkpt lat="42.1740517" lon="11.8401417"><ele>57.99999999999999</ele><time>2026-04-19T11:52:56.587Z</time></trkpt><trkpt lat="42.1739917" lon="11.8400783"><ele>58.0</ele><time>2026-04-19T11:52:57.587Z</time></trkpt><trkpt lat="42.1739233" lon="11.8399933"><ele>55.0</ele><time>2026-04-19T11:52:58.587Z</time></trkpt><trkpt lat="42.1738317" lon="11.83988"><ele>52.0</ele><time>2026-04-19T11:52:59.588Z</time></trkpt><trkpt lat="42.1737067" lon="11.8397317"><ele>49.0</ele><time>2026-04-19T11:53:00.588Z</time></trkpt><trkpt lat="42.1735857" lon="11.8395766"><ele>49.0</ele><time>2026-04-19T11:53:01.587Z</time></trkpt><trkpt lat="42.1734669" lon="11.839419"><ele>49.0</ele><time>2026-04-19T11:53:02.587Z</time></trkpt><trkpt lat="42.1733481" lon="11.8392673"><ele>49.0</ele><time>2026-04-19T11:53:03.587Z</time></trkpt><trkpt lat="42.1732285" lon="11.8391106"><ele>49.666666666666664</ele><time>2026-04-19T11:53:04.587Z</time></trkpt><trkpt lat="42.1731093" lon="11.8389493"><ele>50.33333333333333</ele><time>2026-04-19T11:53:05.588Z</time></trkpt><trkpt lat="42.1730072" lon="11.8388"><ele>51.0</ele><time>2026-04-19T11:53:06.587Z</time></trkpt><trkpt lat="42.1729193" lon="11.8386465"><ele>51.0</ele><time>2026-04-19T11:53:07.587Z</time></trkpt><trkpt lat="42.1728386" lon="11.8384828"><ele>51.0</ele><time>2026-04-19T11:53:08.587Z</time></trkpt><trkpt lat="42.1727679" lon="11.8383203"><ele>51.0</ele><time>2026-04-19T11:53:09.587Z</time></trkpt><trkpt lat="42.1727043" lon="11.8381623"><ele>51.0</ele><time>2026-04-19T11:53:10.587Z</time></trkpt><trkpt lat="42.1726548" lon="11.8380213"><ele>51.5</ele><time>2026-04-19T11:53:11.587Z</time></trkpt><trkpt lat="42.1726188" lon="11.8378764"><ele>52.0</ele><time>2026-04-19T11:53:12.587Z</time></trkpt><trkpt lat="42.1725773" lon="11.8377188"><ele>52.5</ele><time>2026-04-19T11:53:13.587Z</time></trkpt><trkpt lat="42.1725355" lon="11.8375653"><ele>53.0</ele><time>2026-04-19T11:53:14.588Z</time></trkpt><trkpt lat="42.1724988" lon="11.8374185"><ele>54.25</ele><time>2026-04-19T11:53:15.587Z</time></trkpt><trkpt lat="42.1724729" lon="11.8372654"><ele>55.5</ele><time>2026-04-19T11:53:16.588Z</time></trkpt><trkpt lat="42.1724454" lon="11.8370873"><ele>56.75</ele><time>2026-04-19T11:53:17.587Z</time></trkpt><trkpt lat="42.1724265" lon="11.8369166"><ele>58.0</ele><time>2026-04-19T11:53:18.587Z</time></trkpt><trkpt lat="42.172418" lon="11.8367742"><ele>59.166666666666664</ele><time>2026-04-19T11:53:19.587Z</time></trkpt><trkpt lat="42.1724113" lon="11.8366503"><ele>60.33333333333333</ele><time>2026-04-19T11:53:20.588Z</time></trkpt><trkpt lat="42.1724051" lon="11.8365477"><ele>61.5</ele><time>2026-04-19T11:53:21.587Z</time></trkpt><trkpt lat="42.1724024" lon="11.8364601"><ele>62.66666666666667</ele><time>2026-04-19T11:53:22.587Z</time></trkpt><trkpt lat="42.1724098" lon="11.8363616"><ele>63.833333333333336</ele><time>2026-04-19T11:53:24.587Z</time></trkpt><trkpt lat="42.1724133" lon="11.8362083"><ele>65.0</ele><time>2026-04-19T11:53:28.588Z</time></trkpt><trkpt lat="42.1724317" lon="11.836075"><ele>65.83333333333334</ele><time>2026-04-19T11:53:30.587Z</time></trkpt><trkpt lat="42.172435" lon="11.835965"><ele>66.66666666666667</ele><time>2026-04-19T11:53:32.587Z</time></trkpt><trkpt lat="42.17244" lon="11.8358417"><ele>67.5</ele><time>2026-04-19T11:53:34.587Z</time></trkpt><trkpt lat="42.17244" lon="11.8357533"><ele>68.33333333333333</ele><time>2026-04-19T11:53:35.587Z</time></trkpt><trkpt lat="42.17244" lon="11.8356583"><ele>69.16666666666666</ele><time>2026-04-19T11:53:36.588Z</time></trkpt><trkpt lat="42.1724367" lon="11.8355433"><ele>70.0</ele><time>2026-04-19T11:53:37.587Z</time></trkpt><trkpt lat="42.1724283" lon="11.83542"><ele>70.0</ele><time>2026-04-19T11:53:38.587Z</time></trkpt><trkpt lat="42.17242" lon="11.8352883"><ele>70.0</ele><time>2026-04-19T11:53:39.587Z</time></trkpt><trkpt lat="42.1724117" lon="11.8351433"><ele>70.0</ele><time>2026-04-19T11:53:40.587Z</time></trkpt><trkpt lat="42.172405" lon="11.8349917"><ele>70.0</ele><time>2026-04-19T11:53:41.587Z</time></trkpt><trkpt lat="42.172405" lon="11.8348267"><ele>70.0</ele><time>2026-04-19T11:53:42.588Z</time></trkpt><trkpt lat="42.1724133" lon="11.8346617"><ele>69.75</ele><time>2026-04-19T11:53:43.587Z</time></trkpt><trkpt lat="42.1724167" lon="11.8344883"><ele>69.5</ele><time>2026-04-19T11:53:44.587Z</time></trkpt><trkpt lat="42.17242" lon="11.8343233"><ele>69.25</ele><time>2026-04-19T11:53:45.587Z</time></trkpt><trkpt lat="42.1724283" lon="11.8341533"><ele>69.0</ele><time>2026-04-19T11:53:46.587Z</time></trkpt><trkpt lat="42.1724333" lon="11.8339917"><ele>68.25</ele><time>2026-04-19T11:53:47.587Z</time></trkpt><trkpt lat="42.17245" lon="11.8338183"><ele>67.5</ele><time>2026-04-19T11:53:48.587Z</time></trkpt><trkpt lat="42.1724683" lon="11.8336433"><ele>66.75</ele><time>2026-04-19T11:53:49.587Z</time></trkpt><trkpt lat="42.1724867" lon="11.8334767"><ele>66.0</ele><time>2026-04-19T11:53:50.587Z</time></trkpt><trkpt lat="42.172505" lon="11.8333267"><ele>65.83333333333333</ele><time>2026-04-19T11:53:51.587Z</time></trkpt><trkpt lat="42.1725233" lon="11.8331817"><ele>65.66666666666667</ele><time>2026-04-19T11:53:52.587Z</time></trkpt><trkpt lat="42.172535" lon="11.83306"><ele>65.5</ele><time>2026-04-19T11:53:53.587Z</time></trkpt><trkpt lat="42.1725483" lon="11.832955"><ele>65.33333333333334</ele><time>2026-04-19T11:53:54.587Z</time></trkpt><trkpt lat="42.1725767" lon="11.8328333"><ele>65.16666666666667</ele><time>2026-04-19T11:53:56.588Z</time></trkpt><trkpt lat="42.1725917" lon="11.8327417"><ele>65.0</ele><time>2026-04-19T11:53:59.587Z</time></trkpt><trkpt lat="42.1725367" lon="11.8326717"><ele>66.83333333333334</ele><time>2026-04-19T11:54:11.587Z</time></trkpt><trkpt lat="42.1724817" lon="11.8326"><ele>68.66666666666667</ele><time>2026-04-19T11:54:13.587Z</time></trkpt><trkpt lat="42.1724433" lon="11.8324983"><ele>70.5</ele><time>2026-04-19T11:54:16.587Z</time></trkpt><trkpt lat="42.1723733" lon="11.8324233"><ele>72.33333333333333</ele><time>2026-04-19T11:54:18.587Z</time></trkpt><trkpt lat="42.17231" lon="11.83237"><ele>74.16666666666666</ele><time>2026-04-19T11:54:19.587Z</time></trkpt><trkpt lat="42.1722383" lon="11.8323267"><ele>76.0</ele><time>2026-04-19T11:54:20.587Z</time></trkpt><trkpt lat="42.1721733" lon="11.832275"><ele>77.33333333333333</ele><time>2026-04-19T11:54:21.587Z</time></trkpt><trkpt lat="42.17211" lon="11.8322367"><ele>78.66666666666666</ele><time>2026-04-19T11:54:22.587Z</time></trkpt><trkpt lat="42.1720533" lon="11.8321917"><ele>80.0</ele><time>2026-04-19T11:54:23.587Z</time></trkpt><trkpt lat="42.171995" lon="11.83215"><ele>81.33333333333333</ele><time>2026-04-19T11:54:24.587Z</time></trkpt><trkpt lat="42.1718783" lon="11.8321167"><ele>82.66666666666667</ele><time>2026-04-19T11:54:26.587Z</time></trkpt><trkpt lat="42.171795" lon="11.83208"><ele>84.0</ele><time>2026-04-19T11:54:28.587Z</time></trkpt><trkpt lat="42.1717183" lon="11.8320017"><ele>84.0</ele><time>2026-04-19T11:54:30.587Z</time></trkpt><trkpt lat="42.171665" lon="11.83193"><ele>84.0</ele><time>2026-04-19T11:54:32.587Z</time></trkpt><trkpt lat="42.1715517" lon="11.8318333"><ele>84.0</ele><time>2026-04-19T11:54:34.587Z</time></trkpt><trkpt lat="42.1714883" lon="11.8317733"><ele>84.0</ele><time>2026-04-19T11:54:35.587Z</time></trkpt><trkpt lat="42.17144" lon="11.8317183"><ele>84.0</ele><time>2026-04-19T11:54:36.587Z</time></trkpt><trkpt lat="42.1713567" lon="11.83169"><ele>84.0</ele><time>2026-04-19T11:54:44.587Z</time></trkpt><trkpt lat="42.17124" lon="11.8316067"><ele>89.0</ele><time>2026-04-19T11:54:46.587Z</time></trkpt><trkpt lat="42.1711733" lon="11.8315783"><ele>94.0</ele><time>2026-04-19T11:54:47.587Z</time></trkpt><trkpt lat="42.171065" lon="11.8315483"><ele>99.0</ele><time>2026-04-19T11:54:49.587Z</time></trkpt><trkpt lat="42.17099" lon="11.8314683"><ele>104.0</ele><time>2026-04-19T11:54:51.587Z</time></trkpt><trkpt lat="42.1708967" lon="11.8313683"><ele>109.0</ele><time>2026-04-19T11:54:53.588Z</time></trkpt><trkpt lat="42.1708267" lon="11.8312633"><ele>109.0</ele><time>2026-04-19T11:54:55.586Z</time></trkpt><trkpt lat="42.1707533" lon="11.8311667"><ele>109.0</ele><time>2026-04-19T11:55:01.587Z</time></trkpt><trkpt lat="42.1707" lon="11.831065"><ele>109.0</ele><time>2026-04-19T11:55:03.587Z</time></trkpt><trkpt lat="42.1706033" lon="11.83097"><ele>109.0</ele><time>2026-04-19T11:55:05.586Z</time></trkpt><trkpt lat="42.170515" lon="11.83092"><ele>109.0</ele><time>2026-04-19T11:55:07.586Z</time></trkpt><trkpt lat="42.17045" lon="11.8308917"><ele>110.0</ele><time>2026-04-19T11:55:09.587Z</time></trkpt><trkpt lat="42.1703467" lon="11.8308483"><ele>111.0</ele><time>2026-04-19T11:55:11.586Z</time></trkpt><trkpt lat="42.1702617" lon="11.8308133"><ele>112.0</ele><time>2026-04-19T11:55:12.586Z</time></trkpt><trkpt lat="42.1701867" lon="11.8307717"><ele>113.0</ele><time>2026-04-19T11:55:13.586Z</time></trkpt><trkpt lat="42.1701067" lon="11.83071"><ele>114.0</ele><time>2026-04-19T11:55:14.586Z</time></trkpt><trkpt lat="42.170005" lon="11.8306383"><ele>114.0</ele><time>2026-04-19T11:55:15.586Z</time></trkpt><trkpt lat="42.169895" lon="11.8305667"><ele>114.0</ele><time>2026-04-19T11:55:16.587Z</time></trkpt><trkpt lat="42.1697983" lon="11.8304817"><ele>114.0</ele><time>2026-04-19T11:55:17.586Z</time></trkpt><trkpt lat="42.1697083" lon="11.8303917"><ele>114.0</ele><time>2026-04-19T11:55:18.586Z</time></trkpt><trkpt lat="42.16963" lon="11.8303133"><ele>114.0</ele><time>2026-04-19T11:55:19.586Z</time></trkpt><trkpt lat="42.16957" lon="11.8302533"><ele>114.0</ele><time>2026-04-19T11:55:20.586Z</time></trkpt><trkpt lat="42.1695117" lon="11.8301683"><ele>114.0</ele><time>2026-04-19T11:55:22.586Z</time></trkpt><trkpt lat="42.1694833" lon="11.8300833"><ele>114.0</ele><time>2026-04-19T12:03:29.584Z</time></trkpt><trkpt lat="42.16948" lon="11.82995"><ele>114.0</ele><time>2026-04-19T12:03:31.583Z</time></trkpt><trkpt lat="42.16947" lon="11.8298467"><ele>114.0</ele><time>2026-04-19T12:03:32.583Z</time></trkpt><trkpt lat="42.169455" lon="11.8297217"><ele>114.0</ele><time>2026-04-19T12:03:33.583Z</time></trkpt><trkpt lat="42.16943" lon="11.82943"><ele>112.5</ele><time>2026-04-19T12:03:35.583Z</time></trkpt><trkpt lat="42.169425" lon="11.82926"><ele>111.0</ele><time>2026-04-19T12:03:36.583Z</time></trkpt><trkpt lat="42.1694133" lon="11.8290817"><ele>109.5</ele><time>2026-04-19T12:03:37.584Z</time></trkpt><trkpt lat="42.1694033" lon="11.8288883"><ele>108.0</ele><time>2026-04-19T12:03:38.583Z</time></trkpt><trkpt lat="42.1693883" lon="11.82868"><ele>107.5</ele><time>2026-04-19T12:03:39.583Z</time></trkpt><trkpt lat="42.16937" lon="11.8284717"><ele>107.0</ele><time>2026-04-19T12:03:40.583Z</time></trkpt><trkpt lat="42.1693517" lon="11.82828"><ele>106.5</ele><time>2026-04-19T12:03:41.584Z</time></trkpt><trkpt lat="42.1693383" lon="11.8280917"><ele>106.0</ele><time>2026-04-19T12:03:42.583Z</time></trkpt><trkpt lat="42.1693233" lon="11.8278867"><ele>106.0</ele><time>2026-04-19T12:03:43.583Z</time></trkpt><trkpt lat="42.1692783" lon="11.8274817"><ele>106.0</ele><time>2026-04-19T12:03:45.583Z</time></trkpt><trkpt lat="42.16925" lon="11.82727"><ele>106.0</ele><time>2026-04-19T12:03:46.583Z</time></trkpt><trkpt lat="42.1692267" lon="11.82705"><ele>106.0</ele><time>2026-04-19T12:03:47.583Z</time></trkpt><trkpt lat="42.169205" lon="11.8268267"><ele>106.0</ele><time>2026-04-19T12:03:48.583Z</time></trkpt><trkpt lat="42.169185" lon="11.826605"><ele>105.66666666666667</ele><time>2026-04-19T12:03:49.584Z</time></trkpt><trkpt lat="42.1691583" lon="11.8263883"><ele>105.33333333333334</ele><time>2026-04-19T12:03:50.583Z</time></trkpt><trkpt lat="42.16914" lon="11.82617"><ele>105.0</ele><time>2026-04-19T12:03:51.583Z</time></trkpt><trkpt lat="42.1691167" lon="11.8259433"><ele>104.0</ele><time>2026-04-19T12:03:52.583Z</time></trkpt><trkpt lat="42.1690967" lon="11.8256967"><ele>103.0</ele><time>2026-04-19T12:03:53.583Z</time></trkpt><trkpt lat="42.1690733" lon="11.8254617"><ele>102.0</ele><time>2026-04-19T12:03:54.584Z</time></trkpt><trkpt lat="42.16905" lon="11.8252367"><ele>102.0</ele><time>2026-04-19T12:03:55.583Z</time></trkpt><trkpt lat="42.16903" lon="11.8250133"><ele>102.0</ele><time>2026-04-19T12:03:56.584Z</time></trkpt><trkpt lat="42.1689983" lon="11.8248"><ele>102.0</ele><time>2026-04-19T12:03:57.583Z</time></trkpt><trkpt lat="42.1689717" lon="11.8245917"><ele>102.0</ele><time>2026-04-19T12:03:58.583Z</time></trkpt><trkpt lat="42.1689483" lon="11.8243833"><ele>102.0</ele><time>2026-04-19T12:03:59.584Z</time></trkpt><trkpt lat="42.1689283" lon="11.8241617"><ele>102.0</ele><time>2026-04-19T12:04:00.584Z</time></trkpt><trkpt lat="42.168905" lon="11.8239417"><ele>102.0</ele><time>2026-04-19T12:04:01.583Z</time></trkpt><trkpt lat="42.1688833" lon="11.8237183"><ele>102.0</ele><time>2026-04-19T12:04:02.583Z</time></trkpt><trkpt lat="42.1688583" lon="11.82349"><ele>102.0</ele><time>2026-04-19T12:04:03.583Z</time></trkpt><trkpt lat="42.1688383" lon="11.8232583"><ele>102.33333333333334</ele><time>2026-04-19T12:04:04.583Z</time></trkpt><trkpt lat="42.1688117" lon="11.8230167"><ele>102.66666666666667</ele><time>2026-04-19T12:04:05.583Z</time></trkpt><trkpt lat="42.16879" lon="11.822775"><ele>103.0</ele><time>2026-04-19T12:04:06.583Z</time></trkpt><trkpt lat="42.16876" lon="11.8225317"><ele>103.33333333333334</ele><time>2026-04-19T12:04:07.583Z</time></trkpt><trkpt lat="42.1687283" lon="11.8222867"><ele>103.66666666666666</ele><time>2026-04-19T12:04:08.583Z</time></trkpt><trkpt lat="42.168705" lon="11.8220433"><ele>104.0</ele><time>2026-04-19T12:04:09.583Z</time></trkpt><trkpt lat="42.16868" lon="11.82181"><ele>104.0</ele><time>2026-04-19T12:04:10.583Z</time></trkpt><trkpt lat="42.1686533" lon="11.8215733"><ele>104.0</ele><time>2026-04-19T12:04:11.584Z</time></trkpt><trkpt lat="42.1686233" lon="11.8213317"><ele>104.0</ele><time>2026-04-19T12:04:12.583Z</time></trkpt><trkpt lat="42.1686033" lon="11.82108"><ele>103.33333333333333</ele><time>2026-04-19T12:04:13.583Z</time></trkpt><trkpt lat="42.168575" lon="11.8208333"><ele>102.66666666666666</ele><time>2026-04-19T12:04:14.583Z</time></trkpt><trkpt lat="42.168545" lon="11.8205833"><ele>102.0</ele><time>2026-04-19T12:04:15.583Z</time></trkpt><trkpt lat="42.1685183" lon="11.8203333"><ele>101.33333333333334</ele><time>2026-04-19T12:04:16.583Z</time></trkpt><trkpt lat="42.1684883" lon="11.820085"><ele>100.66666666666667</ele><time>2026-04-19T12:04:17.583Z</time></trkpt><trkpt lat="42.1684617" lon="11.8198267"><ele>100.0</ele><time>2026-04-19T12:04:18.583Z</time></trkpt><trkpt lat="42.1684283" lon="11.819565"><ele>99.66666666666667</ele><time>2026-04-19T12:04:19.583Z</time></trkpt><trkpt lat="42.1684033" lon="11.8193067"><ele>99.33333333333334</ele><time>2026-04-19T12:04:20.583Z</time></trkpt><trkpt lat="42.168375" lon="11.8190567"><ele>99.0</ele><time>2026-04-19T12:04:21.583Z</time></trkpt><trkpt lat="42.16835" lon="11.8187967"><ele>99.0</ele><time>2026-04-19T12:04:22.583Z</time></trkpt><trkpt lat="42.1683233" lon="11.8185383"><ele>99.0</ele><time>2026-04-19T12:04:23.584Z</time></trkpt><trkpt lat="42.1683017" lon="11.81827"><ele>99.0</ele><time>2026-04-19T12:04:24.583Z</time></trkpt><trkpt lat="42.1682717" lon="11.8180133"><ele>98.33333333333334</ele><time>2026-04-19T12:04:25.583Z</time></trkpt><trkpt lat="42.16825" lon="11.8177367"><ele>97.66666666666667</ele><time>2026-04-19T12:04:26.583Z</time></trkpt><trkpt lat="42.1682267" lon="11.8174667"><ele>97.0</ele><time>2026-04-19T12:04:27.583Z</time></trkpt><trkpt lat="42.1682033" lon="11.817195"><ele>97.0</ele><time>2026-04-19T12:04:28.584Z</time></trkpt><trkpt lat="42.1681767" lon="11.816935"><ele>97.0</ele><time>2026-04-19T12:04:29.583Z</time></trkpt><trkpt lat="42.168145" lon="11.8166733"><ele>97.0</ele><time>2026-04-19T12:04:30.583Z</time></trkpt><trkpt lat="42.16812" lon="11.816435"><ele>97.0</ele><time>2026-04-19T12:04:31.583Z</time></trkpt><trkpt lat="42.1680917" lon="11.81618"><ele>97.0</ele><time>2026-04-19T12:04:32.583Z</time></trkpt><trkpt lat="42.1680583" lon="11.8159217"><ele>97.0</ele><time>2026-04-19T12:04:33.583Z</time></trkpt><trkpt lat="42.1680333" lon="11.81567"><ele>96.33333333333334</ele><time>2026-04-19T12:04:34.583Z</time></trkpt><trkpt lat="42.167995" lon="11.81542"><ele>95.66666666666667</ele><time>2026-04-19T12:04:35.583Z</time></trkpt><trkpt lat="42.1679667" lon="11.8151683"><ele>95.0</ele><time>2026-04-19T12:04:36.583Z</time></trkpt><trkpt lat="42.1679367" lon="11.8149117"><ele>94.33333333333334</ele><time>2026-04-19T12:04:37.583Z</time></trkpt><trkpt lat="42.1678983" lon="11.8146483"><ele>93.66666666666667</ele><time>2026-04-19T12:04:38.583Z</time></trkpt><trkpt lat="42.1678867" lon="11.81439"><ele>93.0</ele><time>2026-04-19T12:04:39.583Z</time></trkpt><trkpt lat="42.16786" lon="11.814135"><ele>92.0</ele><time>2026-04-19T12:04:40.583Z</time></trkpt><trkpt lat="42.16783" lon="11.8138867"><ele>91.0</ele><time>2026-04-19T12:04:41.584Z</time></trkpt><trkpt lat="42.1678083" lon="11.8136333"><ele>90.0</ele><time>2026-04-19T12:04:42.583Z</time></trkpt><trkpt lat="42.1677817" lon="11.81339"><ele>89.66666666666667</ele><time>2026-04-19T12:04:43.584Z</time></trkpt><trkpt lat="42.16776" lon="11.8131483"><ele>89.33333333333334</ele><time>2026-04-19T12:04:44.583Z</time></trkpt><trkpt lat="42.1677367" lon="11.8129"><ele>89.0</ele><time>2026-04-19T12:04:45.583Z</time></trkpt><trkpt lat="42.1677067" lon="11.8126467"><ele>88.33333333333334</ele><time>2026-04-19T12:04:46.583Z</time></trkpt><trkpt lat="42.1676767" lon="11.812385"><ele>87.66666666666667</ele><time>2026-04-19T12:04:47.583Z</time></trkpt><trkpt lat="42.167645" lon="11.8121217"><ele>87.0</ele><time>2026-04-19T12:04:48.583Z</time></trkpt><trkpt lat="42.1676217" lon="11.81186"><ele>86.33333333333333</ele><time>2026-04-19T12:04:49.583Z</time></trkpt><trkpt lat="42.16759" lon="11.8116"><ele>85.66666666666666</ele><time>2026-04-19T12:04:50.584Z</time></trkpt><trkpt lat="42.1675633" lon="11.811335"><ele>85.0</ele><time>2026-04-19T12:04:51.583Z</time></trkpt><trkpt lat="42.1675367" lon="11.8110783"><ele>84.33333333333333</ele><time>2026-04-19T12:04:52.583Z</time></trkpt><trkpt lat="42.1675133" lon="11.8108233"><ele>83.66666666666667</ele><time>2026-04-19T12:04:53.583Z</time></trkpt><trkpt lat="42.167485" lon="11.8105617"><ele>83.0</ele><time>2026-04-19T12:04:54.583Z</time></trkpt><trkpt lat="42.1674533" lon="11.8102817"><ele>83.33333333333334</ele><time>2026-04-19T12:04:55.582Z</time></trkpt><trkpt lat="42.1674217" lon="11.81"><ele>83.66666666666667</ele><time>2026-04-19T12:04:56.582Z</time></trkpt><trkpt lat="42.1673933" lon="11.80972"><ele>84.0</ele><time>2026-04-19T12:04:57.582Z</time></trkpt><trkpt lat="42.167355" lon="11.8094533"><ele>83.66666666666667</ele><time>2026-04-19T12:04:58.582Z</time></trkpt><trkpt lat="42.1673317" lon="11.8091767"><ele>83.33333333333334</ele><time>2026-04-19T12:04:59.582Z</time></trkpt><trkpt lat="42.1673067" lon="11.8089017"><ele>83.0</ele><time>2026-04-19T12:05:00.583Z</time></trkpt><trkpt lat="42.1672767" lon="11.8086217"><ele>83.33333333333334</ele><time>2026-04-19T12:05:01.582Z</time></trkpt><trkpt lat="42.16725" lon="11.808325"><ele>83.66666666666667</ele><time>2026-04-19T12:05:02.583Z</time></trkpt><trkpt lat="42.16722" lon="11.808045"><ele>84.0</ele><time>2026-04-19T12:05:03.582Z</time></trkpt><trkpt lat="42.1671933" lon="11.8077683"><ele>84.0</ele><time>2026-04-19T12:05:04.582Z</time></trkpt><trkpt lat="42.167165" lon="11.8074833"><ele>84.0</ele><time>2026-04-19T12:05:05.582Z</time></trkpt><trkpt lat="42.1671333" lon="11.8072067"><ele>84.0</ele><time>2026-04-19T12:05:06.583Z</time></trkpt><trkpt lat="42.1671067" lon="11.8069267"><ele>83.33333333333333</ele><time>2026-04-19T12:05:07.582Z</time></trkpt><trkpt lat="42.1670767" lon="11.8066533"><ele>82.66666666666666</ele><time>2026-04-19T12:05:08.582Z</time></trkpt><trkpt lat="42.1670483" lon="11.80639"><ele>82.0</ele><time>2026-04-19T12:05:09.582Z</time></trkpt><trkpt lat="42.1670283" lon="11.80612"><ele>79.66666666666666</ele><time>2026-04-19T12:05:10.582Z</time></trkpt><trkpt lat="42.167" lon="11.8058533"><ele>77.33333333333333</ele><time>2026-04-19T12:05:11.582Z</time></trkpt><trkpt lat="42.1669817" lon="11.8055917"><ele>75.0</ele><time>2026-04-19T12:05:12.582Z</time></trkpt><trkpt lat="42.166955" lon="11.8053367"><ele>73.33333333333333</ele><time>2026-04-19T12:05:13.582Z</time></trkpt><trkpt lat="42.166925" lon="11.805085"><ele>71.66666666666666</ele><time>2026-04-19T12:05:14.582Z</time></trkpt><trkpt lat="42.166895" lon="11.804825"><ele>70.0</ele><time>2026-04-19T12:05:15.582Z</time></trkpt><trkpt lat="42.1668683" lon="11.80455"><ele>69.0</ele><time>2026-04-19T12:05:16.583Z</time></trkpt><trkpt lat="42.1668417" lon="11.8042667"><ele>68.0</ele><time>2026-04-19T12:05:17.583Z</time></trkpt><trkpt lat="42.16681" lon="11.803985"><ele>67.0</ele><time>2026-04-19T12:05:18.582Z</time></trkpt><trkpt lat="42.1667833" lon="11.8037033"><ele>66.0</ele><time>2026-04-19T12:05:19.582Z</time></trkpt><trkpt lat="42.16675" lon="11.803435"><ele>65.0</ele><time>2026-04-19T12:05:20.583Z</time></trkpt><trkpt lat="42.1667183" lon="11.8031617"><ele>64.0</ele><time>2026-04-19T12:05:21.582Z</time></trkpt><trkpt lat="42.166685" lon="11.8028917"><ele>64.0</ele><time>2026-04-19T12:05:22.583Z</time></trkpt><trkpt lat="42.1666517" lon="11.80262"><ele>64.0</ele><time>2026-04-19T12:05:23.582Z</time></trkpt><trkpt lat="42.1666183" lon="11.8023617"><ele>64.0</ele><time>2026-04-19T12:05:24.582Z</time></trkpt><trkpt lat="42.1665867" lon="11.802115"><ele>64.0</ele><time>2026-04-19T12:05:25.582Z</time></trkpt><trkpt lat="42.1665583" lon="11.80187"><ele>64.0</ele><time>2026-04-19T12:05:26.583Z</time></trkpt><trkpt lat="42.1665267" lon="11.8016067"><ele>64.0</ele><time>2026-04-19T12:05:27.582Z</time></trkpt><trkpt lat="42.1665033" lon="11.8013217"><ele>63.0</ele><time>2026-04-19T12:05:28.582Z</time></trkpt><trkpt lat="42.1664683" lon="11.8010417"><ele>62.0</ele><time>2026-04-19T12:05:29.582Z</time></trkpt><trkpt lat="42.1664467" lon="11.8007767"><ele>61.0</ele><time>2026-04-19T12:05:30.582Z</time></trkpt><trkpt lat="42.1664133" lon="11.8005033"><ele>61.0</ele><time>2026-04-19T12:05:31.582Z</time></trkpt><trkpt lat="42.166385" lon="11.8002183"><ele>61.0</ele><time>2026-04-19T12:05:32.583Z</time></trkpt><trkpt lat="42.1663583" lon="11.79994"><ele>61.0</ele><time>2026-04-19T12:05:33.582Z</time></trkpt><trkpt lat="42.166325" lon="11.79967"><ele>61.0</ele><time>2026-04-19T12:05:34.582Z</time></trkpt><trkpt lat="42.1663" lon="11.79943"><ele>61.0</ele><time>2026-04-19T12:05:35.582Z</time></trkpt><trkpt lat="42.1662717" lon="11.799195"><ele>61.0</ele><time>2026-04-19T12:05:36.582Z</time></trkpt><trkpt lat="42.16624" lon="11.7989617"><ele>60.666666666666664</ele><time>2026-04-19T12:05:37.583Z</time></trkpt><trkpt lat="42.16622" lon="11.79873"><ele>60.33333333333333</ele><time>2026-04-19T12:05:38.582Z</time></trkpt><trkpt lat="42.1661983" lon="11.7984883"><ele>60.0</ele><time>2026-04-19T12:05:39.582Z</time></trkpt><trkpt lat="42.1661667" lon="11.7982517"><ele>59.33333333333333</ele><time>2026-04-19T12:05:40.583Z</time></trkpt><trkpt lat="42.166145" lon="11.7980267"><ele>58.666666666666664</ele><time>2026-04-19T12:05:41.582Z</time></trkpt><trkpt lat="42.1661217" lon="11.7978033"><ele>58.0</ele><time>2026-04-19T12:05:42.582Z</time></trkpt><trkpt lat="42.1660933" lon="11.79758"><ele>58.0</ele><time>2026-04-19T12:05:43.582Z</time></trkpt><trkpt lat="42.1660683" lon="11.7973483"><ele>58.0</ele><time>2026-04-19T12:05:44.582Z</time></trkpt><trkpt lat="42.166045" lon="11.7971217"><ele>58.0</ele><time>2026-04-19T12:05:45.583Z</time></trkpt><trkpt lat="42.1660267" lon="11.7968967"><ele>56.666666666666664</ele><time>2026-04-19T12:05:46.582Z</time></trkpt><trkpt lat="42.1660033" lon="11.7966783"><ele>55.33333333333333</ele><time>2026-04-19T12:05:47.582Z</time></trkpt><trkpt lat="42.1659833" lon="11.796475"><ele>54.0</ele><time>2026-04-19T12:05:48.583Z</time></trkpt><trkpt lat="42.1659667" lon="11.7962717"><ele>54.0</ele><time>2026-04-19T12:05:49.583Z</time></trkpt><trkpt lat="42.1659467" lon="11.7960583"><ele>54.0</ele><time>2026-04-19T12:05:50.582Z</time></trkpt><trkpt lat="42.1659217" lon="11.795825"><ele>54.0</ele><time>2026-04-19T12:05:51.582Z</time></trkpt><trkpt lat="42.1658917" lon="11.7955817"><ele>52.66666666666667</ele><time>2026-04-19T12:05:52.582Z</time></trkpt><trkpt lat="42.165865" lon="11.79533"><ele>51.333333333333336</ele><time>2026-04-19T12:05:53.582Z</time></trkpt><trkpt lat="42.1658383" lon="11.79508"><ele>50.0</ele><time>2026-04-19T12:05:54.582Z</time></trkpt><trkpt lat="42.16581" lon="11.79484"><ele>49.66666666666667</ele><time>2026-04-19T12:05:55.582Z</time></trkpt><trkpt lat="42.165785" lon="11.7946017"><ele>49.33333333333333</ele><time>2026-04-19T12:05:56.582Z</time></trkpt><trkpt lat="42.1657583" lon="11.7943783"><ele>49.0</ele><time>2026-04-19T12:05:57.582Z</time></trkpt><trkpt lat="42.1657333" lon="11.7941633"><ele>49.0</ele><time>2026-04-19T12:05:58.582Z</time></trkpt><trkpt lat="42.1657067" lon="11.793965"><ele>49.0</ele><time>2026-04-19T12:05:59.582Z</time></trkpt><trkpt lat="42.165685" lon="11.7937733"><ele>49.0</ele><time>2026-04-19T12:06:00.582Z</time></trkpt><trkpt lat="42.1656683" lon="11.793595"><ele>49.0</ele><time>2026-04-19T12:06:01.582Z</time></trkpt><trkpt lat="42.1656483" lon="11.7934283"><ele>48.25</ele><time>2026-04-19T12:06:02.582Z</time></trkpt><trkpt lat="42.1656317" lon="11.7932617"><ele>47.5</ele><time>2026-04-19T12:06:03.582Z</time></trkpt><trkpt lat="42.1656133" lon="11.7930883"><ele>46.75</ele><time>2026-04-19T12:06:04.582Z</time></trkpt><trkpt lat="42.1655967" lon="11.7929083"><ele>46.0</ele><time>2026-04-19T12:06:05.582Z</time></trkpt><trkpt lat="42.1655767" lon="11.792725"><ele>45.75</ele><time>2026-04-19T12:06:06.582Z</time></trkpt><trkpt lat="42.165555" lon="11.7925367"><ele>45.5</ele><time>2026-04-19T12:06:07.582Z</time></trkpt><trkpt lat="42.1655367" lon="11.7923433"><ele>45.25</ele><time>2026-04-19T12:06:08.582Z</time></trkpt><trkpt lat="42.1655167" lon="11.7921533"><ele>45.0</ele><time>2026-04-19T12:06:09.582Z</time></trkpt><trkpt lat="42.1654933" lon="11.7919667"><ele>45.25</ele><time>2026-04-19T12:06:10.582Z</time></trkpt><trkpt lat="42.16546" lon="11.7917867"><ele>45.5</ele><time>2026-04-19T12:06:11.582Z</time></trkpt><trkpt lat="42.165415" lon="11.7916083"><ele>45.75</ele><time>2026-04-19T12:06:12.582Z</time></trkpt><trkpt lat="42.165355" lon="11.7914333"><ele>46.0</ele><time>2026-04-19T12:06:13.582Z</time></trkpt><trkpt lat="42.1652683" lon="11.7912583"><ele>46.0</ele><time>2026-04-19T12:06:14.582Z</time></trkpt><trkpt lat="42.1651633" lon="11.7910967"><ele>46.0</ele><time>2026-04-19T12:06:15.582Z</time></trkpt><trkpt lat="42.1650417" lon="11.79095"><ele>46.0</ele><time>2026-04-19T12:06:16.583Z</time></trkpt><trkpt lat="42.164905" lon="11.7908167"><ele>44.5</ele><time>2026-04-19T12:06:17.582Z</time></trkpt><trkpt lat="42.1647783" lon="11.7907017"><ele>43.0</ele><time>2026-04-19T12:06:18.582Z</time></trkpt><trkpt lat="42.16467" lon="11.7905833"><ele>41.5</ele><time>2026-04-19T12:06:19.582Z</time></trkpt><trkpt lat="42.1645683" lon="11.790465"><ele>40.0</ele><time>2026-04-19T12:06:20.583Z</time></trkpt><trkpt lat="42.1644883" lon="11.79035"><ele>40.0</ele><time>2026-04-19T12:06:21.582Z</time></trkpt><trkpt lat="42.1644183" lon="11.7902317"><ele>40.0</ele><time>2026-04-19T12:06:22.582Z</time></trkpt><trkpt lat="42.1643617" lon="11.7901133"><ele>40.0</ele><time>2026-04-19T12:06:23.582Z</time></trkpt><trkpt lat="42.1643167" lon="11.789995"><ele>40.0</ele><time>2026-04-19T12:06:24.582Z</time></trkpt><trkpt lat="42.164295" lon="11.7898933"><ele>40.0</ele><time>2026-04-19T12:06:25.582Z</time></trkpt><trkpt lat="42.1643033" lon="11.7897983"><ele>39.6</ele><time>2026-04-19T12:06:26.582Z</time></trkpt><trkpt lat="42.1643333" lon="11.7897067"><ele>39.2</ele><time>2026-04-19T12:06:27.582Z</time></trkpt><trkpt lat="42.164375" lon="11.7896133"><ele>38.8</ele><time>2026-04-19T12:06:28.582Z</time></trkpt><trkpt lat="42.1644267" lon="11.7894917"><ele>38.4</ele><time>2026-04-19T12:06:29.582Z</time></trkpt><trkpt lat="42.1644783" lon="11.7893433"><ele>38.0</ele><time>2026-04-19T12:06:30.583Z</time></trkpt><trkpt lat="42.16452" lon="11.7891783"><ele>37.25</ele><time>2026-04-19T12:06:31.582Z</time></trkpt><trkpt lat="42.1645267" lon="11.78901"><ele>36.5</ele><time>2026-04-19T12:06:32.582Z</time></trkpt><trkpt lat="42.1645117" lon="11.7888467"><ele>35.75</ele><time>2026-04-19T12:06:33.582Z</time></trkpt><trkpt lat="42.1644683" lon="11.788705"><ele>35.0</ele><time>2026-04-19T12:06:34.582Z</time></trkpt><trkpt lat="42.164395" lon="11.7885833"><ele>35.0</ele><time>2026-04-19T12:06:35.582Z</time></trkpt><trkpt lat="42.1643133" lon="11.7884783"><ele>35.0</ele><time>2026-04-19T12:06:36.582Z</time></trkpt><trkpt lat="42.1642133" lon="11.7883917"><ele>35.0</ele><time>2026-04-19T12:06:37.582Z</time></trkpt><trkpt lat="42.1641017" lon="11.7883417"><ele>35.0</ele><time>2026-04-19T12:06:38.582Z</time></trkpt><trkpt lat="42.1639833" lon="11.7883167"><ele>35.0</ele><time>2026-04-19T12:06:39.582Z</time></trkpt><trkpt lat="42.1638683" lon="11.788315"><ele>35.0</ele><time>2026-04-19T12:06:40.582Z</time></trkpt><trkpt lat="42.1637683" lon="11.78832"><ele>35.0</ele><time>2026-04-19T12:06:41.582Z</time></trkpt><trkpt lat="42.1636717" lon="11.7883067"><ele>35.0</ele><time>2026-04-19T12:06:42.582Z</time></trkpt><trkpt lat="42.1635817" lon="11.7882567"><ele>35.0</ele><time>2026-04-19T12:06:43.583Z</time></trkpt><trkpt lat="42.1634967" lon="11.78817"><ele>35.0</ele><time>2026-04-19T12:06:44.582Z</time></trkpt><trkpt lat="42.163405" lon="11.78806"><ele>35.0</ele><time>2026-04-19T12:06:45.583Z</time></trkpt><trkpt lat="42.1633017" lon="11.7879633"><ele>35.0</ele><time>2026-04-19T12:06:46.582Z</time></trkpt><trkpt lat="42.163185" lon="11.7878883"><ele>35.0</ele><time>2026-04-19T12:06:47.582Z</time></trkpt><trkpt lat="42.1630533" lon="11.7878467"><ele>35.25</ele><time>2026-04-19T12:06:48.582Z</time></trkpt><trkpt lat="42.1629217" lon="11.78782"><ele>35.5</ele><time>2026-04-19T12:06:49.582Z</time></trkpt><trkpt lat="42.1627967" lon="11.7878433"><ele>35.75</ele><time>2026-04-19T12:06:50.582Z</time></trkpt><trkpt lat="42.1626583" lon="11.7878817"><ele>36.0</ele><time>2026-04-19T12:06:51.582Z</time></trkpt><trkpt lat="42.162525" lon="11.7879483"><ele>36.0</ele><time>2026-04-19T12:06:52.582Z</time></trkpt><trkpt lat="42.1623867" lon="11.7880217"><ele>36.0</ele><time>2026-04-19T12:06:53.582Z</time></trkpt><trkpt lat="42.162235" lon="11.788105"><ele>36.0</ele><time>2026-04-19T12:06:54.582Z</time></trkpt><trkpt lat="42.1620783" lon="11.7882117"><ele>36.0</ele><time>2026-04-19T12:06:55.582Z</time></trkpt><trkpt lat="42.16193" lon="11.7883183"><ele>36.0</ele><time>2026-04-19T12:06:56.583Z</time></trkpt><trkpt lat="42.161775" lon="11.7884083"><ele>36.0</ele><time>2026-04-19T12:06:57.582Z</time></trkpt><trkpt lat="42.16161" lon="11.7884733"><ele>34.666666666666664</ele><time>2026-04-19T12:06:58.582Z</time></trkpt><trkpt lat="42.1614533" lon="11.7885283"><ele>33.33333333333333</ele><time>2026-04-19T12:06:59.582Z</time></trkpt><trkpt lat="42.1612967" lon="11.7885583"><ele>32.0</ele><time>2026-04-19T12:07:00.583Z</time></trkpt><trkpt lat="42.161145" lon="11.7885767"><ele>32.0</ele><time>2026-04-19T12:07:01.582Z</time></trkpt><trkpt lat="42.1609933" lon="11.7885967"><ele>32.0</ele><time>2026-04-19T12:07:02.582Z</time></trkpt><trkpt lat="42.16083" lon="11.7886167"><ele>32.0</ele><time>2026-04-19T12:07:03.582Z</time></trkpt><trkpt lat="42.1606617" lon="11.7886267"><ele>30.0</ele><time>2026-04-19T12:07:04.582Z</time></trkpt><trkpt lat="42.160485" lon="11.7886417"><ele>28.0</ele><time>2026-04-19T12:07:05.582Z</time></trkpt><trkpt lat="42.1603117" lon="11.788665"><ele>26.0</ele><time>2026-04-19T12:07:06.583Z</time></trkpt><trkpt lat="42.1601283" lon="11.7886967"><ele>26.0</ele><time>2026-04-19T12:07:07.583Z</time></trkpt><trkpt lat="42.1599583" lon="11.7887233"><ele>26.0</ele><time>2026-04-19T12:07:08.582Z</time></trkpt><trkpt lat="42.159795" lon="11.7887517"><ele>26.0</ele><time>2026-04-19T12:07:09.582Z</time></trkpt><trkpt lat="42.159635" lon="11.7887833"><ele>26.333333333333332</ele><time>2026-04-19T12:07:10.582Z</time></trkpt><trkpt lat="42.1594717" lon="11.7888233"><ele>26.666666666666664</ele><time>2026-04-19T12:07:11.582Z</time></trkpt><trkpt lat="42.15931" lon="11.788865"><ele>27.0</ele><time>2026-04-19T12:07:12.583Z</time></trkpt><trkpt lat="42.1591367" lon="11.7889"><ele>29.333333333333336</ele><time>2026-04-19T12:07:13.582Z</time></trkpt><trkpt lat="42.1589533" lon="11.7889433"><ele>31.666666666666668</ele><time>2026-04-19T12:07:14.582Z</time></trkpt><trkpt lat="42.1587633" lon="11.7889983"><ele>34.0</ele><time>2026-04-19T12:07:15.582Z</time></trkpt><trkpt lat="42.1585633" lon="11.7890583"><ele>34.0</ele><time>2026-04-19T12:07:16.583Z</time></trkpt><trkpt lat="42.1583483" lon="11.7891267"><ele>34.0</ele><time>2026-04-19T12:07:17.583Z</time></trkpt><trkpt lat="42.15812" lon="11.7891967"><ele>35.0</ele><time>2026-04-19T12:07:18.582Z</time></trkpt><trkpt lat="42.15788" lon="11.7892833"><ele>36.0</ele><time>2026-04-19T12:07:19.583Z</time></trkpt><trkpt lat="42.1576383" lon="11.7893683"><ele>36.0</ele><time>2026-04-19T12:07:20.582Z</time></trkpt><trkpt lat="42.1574133" lon="11.7894567"><ele>36.0</ele><time>2026-04-19T12:07:21.582Z</time></trkpt><trkpt lat="42.15719" lon="11.789545"><ele>38.0</ele><time>2026-04-19T12:07:22.582Z</time></trkpt><trkpt lat="42.156965" lon="11.7896367"><ele>40.0</ele><time>2026-04-19T12:07:23.582Z</time></trkpt><trkpt lat="42.1567483" lon="11.789725"><ele>40.0</ele><time>2026-04-19T12:07:24.582Z</time></trkpt><trkpt lat="42.1565417" lon="11.7898183"><ele>40.0</ele><time>2026-04-19T12:07:25.583Z</time></trkpt><trkpt lat="42.1563317" lon="11.789915"><ele>40.0</ele><time>2026-04-19T12:07:26.583Z</time></trkpt><trkpt lat="42.156125" lon="11.790015"><ele>41.5</ele><time>2026-04-19T12:07:27.583Z</time></trkpt><trkpt lat="42.1559167" lon="11.7901167"><ele>43.0</ele><time>2026-04-19T12:07:28.582Z</time></trkpt><trkpt lat="42.1557017" lon="11.7902217"><ele>44.0</ele><time>2026-04-19T12:07:29.582Z</time></trkpt><trkpt lat="42.15549" lon="11.7903283"><ele>45.0</ele><time>2026-04-19T12:07:30.582Z</time></trkpt><trkpt lat="42.1552783" lon="11.79043"><ele>45.0</ele><time>2026-04-19T12:07:31.583Z</time></trkpt><trkpt lat="42.1550683" lon="11.7905433"><ele>45.0</ele><time>2026-04-19T12:07:32.582Z</time></trkpt><trkpt lat="42.15487" lon="11.790645"><ele>45.0</ele><time>2026-04-19T12:07:33.581Z</time></trkpt><trkpt lat="42.15468" lon="11.79074"><ele>45.333333333333336</ele><time>2026-04-19T12:07:34.581Z</time></trkpt><trkpt lat="42.1544883" lon="11.7908367"><ele>45.66666666666667</ele><time>2026-04-19T12:07:35.582Z</time></trkpt><trkpt lat="42.1542933" lon="11.79093"><ele>46.0</ele><time>2026-04-19T12:07:36.581Z</time></trkpt><trkpt lat="42.154095" lon="11.7910333"><ele>45.5</ele><time>2026-04-19T12:07:37.581Z</time></trkpt><trkpt lat="42.1538883" lon="11.791135"><ele>45.0</ele><time>2026-04-19T12:07:38.581Z</time></trkpt><trkpt lat="42.1536667" lon="11.7912367"><ele>45.0</ele><time>2026-04-19T12:07:39.581Z</time></trkpt><trkpt lat="42.153435" lon="11.7913417"><ele>45.0</ele><time>2026-04-19T12:07:40.581Z</time></trkpt><trkpt lat="42.153205" lon="11.79144"><ele>45.0</ele><time>2026-04-19T12:07:41.581Z</time></trkpt><trkpt lat="42.1529667" lon="11.791525"><ele>45.0</ele><time>2026-04-19T12:07:42.581Z</time></trkpt><trkpt lat="42.15272" lon="11.79159"><ele>45.0</ele><time>2026-04-19T12:07:43.582Z</time></trkpt><trkpt lat="42.1524833" lon="11.791645"><ele>45.0</ele><time>2026-04-19T12:07:44.581Z</time></trkpt><trkpt lat="42.1522333" lon="11.791685"><ele>42.0</ele><time>2026-04-19T12:07:45.581Z</time></trkpt><trkpt lat="42.15197" lon="11.79171"><ele>39.0</ele><time>2026-04-19T12:07:46.582Z</time></trkpt><trkpt lat="42.1517133" lon="11.7917267"><ele>38.5</ele><time>2026-04-19T12:07:47.581Z</time></trkpt><trkpt lat="42.1514717" lon="11.7917233"><ele>38.0</ele><time>2026-04-19T12:07:48.581Z</time></trkpt><trkpt lat="42.1512383" lon="11.791715"><ele>38.0</ele><time>2026-04-19T12:07:49.581Z</time></trkpt><trkpt lat="42.1509967" lon="11.7917033"><ele>38.0</ele><time>2026-04-19T12:07:50.582Z</time></trkpt><trkpt lat="42.1507567" lon="11.791695"><ele>32.5</ele><time>2026-04-19T12:07:51.581Z</time></trkpt><trkpt lat="42.15052" lon="11.791685"><ele>27.0</ele><time>2026-04-19T12:07:52.581Z</time></trkpt><trkpt lat="42.1502817" lon="11.79168"><ele>27.0</ele><time>2026-04-19T12:07:53.581Z</time></trkpt><trkpt lat="42.1500417" lon="11.7916767"><ele>27.0</ele><time>2026-04-19T12:07:54.581Z</time></trkpt><trkpt lat="42.1498067" lon="11.791675"><ele>27.5</ele><time>2026-04-19T12:07:55.581Z</time></trkpt><trkpt lat="42.1495767" lon="11.7916717"><ele>28.0</ele><time>2026-04-19T12:07:56.581Z</time></trkpt><trkpt lat="42.14935" lon="11.7916667"><ele>28.0</ele><time>2026-04-19T12:07:57.581Z</time></trkpt><trkpt lat="42.1491217" lon="11.79166"><ele>28.0</ele><time>2026-04-19T12:07:58.582Z</time></trkpt><trkpt lat="42.1488967" lon="11.79165"><ele>32.5</ele><time>2026-04-19T12:07:59.581Z</time></trkpt><trkpt lat="42.14867" lon="11.7916467"><ele>37.0</ele><time>2026-04-19T12:08:00.581Z</time></trkpt><trkpt lat="42.1484467" lon="11.791635"><ele>37.0</ele><time>2026-04-19T12:08:01.581Z</time></trkpt><trkpt lat="42.1482217" lon="11.7916317"><ele>37.0</ele><time>2026-04-19T12:08:02.581Z</time></trkpt><trkpt lat="42.1479983" lon="11.7916283"><ele>37.0</ele><time>2026-04-19T12:08:03.581Z</time></trkpt><trkpt lat="42.1477733" lon="11.7916167"><ele>40.0</ele><time>2026-04-19T12:08:04.581Z</time></trkpt><trkpt lat="42.14755" lon="11.791615"><ele>43.0</ele><time>2026-04-19T12:08:05.581Z</time></trkpt><trkpt lat="42.1473283" lon="11.791615"><ele>46.0</ele><time>2026-04-19T12:08:06.581Z</time></trkpt><trkpt lat="42.1471017" lon="11.7916233"><ele>46.0</ele><time>2026-04-19T12:08:07.582Z</time></trkpt><trkpt lat="42.14688" lon="11.79164"><ele>46.0</ele><time>2026-04-19T12:08:08.581Z</time></trkpt><trkpt lat="42.1466683" lon="11.7916667"><ele>46.0</ele><time>2026-04-19T12:08:09.582Z</time></trkpt><trkpt lat="42.1464517" lon="11.7916967"><ele>46.0</ele><time>2026-04-19T12:08:10.581Z</time></trkpt><trkpt lat="42.146235" lon="11.7917283"><ele>46.0</ele><time>2026-04-19T12:08:11.582Z</time></trkpt><trkpt lat="42.1460117" lon="11.7917833"><ele>46.0</ele><time>2026-04-19T12:08:12.581Z</time></trkpt><trkpt lat="42.14578" lon="11.7918533"><ele>50.0</ele><time>2026-04-19T12:08:13.581Z</time></trkpt><trkpt lat="42.1455383" lon="11.79193"><ele>54.0</ele><time>2026-04-19T12:08:14.582Z</time></trkpt><trkpt lat="42.145295" lon="11.7920133"><ele>54.0</ele><time>2026-04-19T12:08:15.581Z</time></trkpt><trkpt lat="42.1450467" lon="11.7921067"><ele>54.0</ele><time>2026-04-19T12:08:16.581Z</time></trkpt><trkpt lat="42.1447967" lon="11.7922033"><ele>53.5</ele><time>2026-04-19T12:08:17.582Z</time></trkpt><trkpt lat="42.1445467" lon="11.7922933"><ele>53.0</ele><time>2026-04-19T12:08:18.581Z</time></trkpt><trkpt lat="42.1442983" lon="11.79238"><ele>53.0</ele><time>2026-04-19T12:08:19.581Z</time></trkpt><trkpt lat="42.1440583" lon="11.7924617"><ele>53.0</ele><time>2026-04-19T12:08:20.582Z</time></trkpt><trkpt lat="42.143825" lon="11.7925467"><ele>54.0</ele><time>2026-04-19T12:08:21.582Z</time></trkpt><trkpt lat="42.1436017" lon="11.79263"><ele>55.0</ele><time>2026-04-19T12:08:22.581Z</time></trkpt><trkpt lat="42.14338" lon="11.7927183"><ele>58.5</ele><time>2026-04-19T12:08:23.581Z</time></trkpt><trkpt lat="42.14316" lon="11.7928017"><ele>62.0</ele><time>2026-04-19T12:08:24.582Z</time></trkpt><trkpt lat="42.14294" lon="11.7928883"><ele>62.0</ele><time>2026-04-19T12:08:25.581Z</time></trkpt><trkpt lat="42.1427217" lon="11.792975"><ele>62.0</ele><time>2026-04-19T12:08:26.581Z</time></trkpt><trkpt lat="42.1424967" lon="11.7930667"><ele>63.0</ele><time>2026-04-19T12:08:27.581Z</time></trkpt><trkpt lat="42.14227" lon="11.793155"><ele>64.0</ele><time>2026-04-19T12:08:28.581Z</time></trkpt><trkpt lat="42.142045" lon="11.7932483"><ele>64.0</ele><time>2026-04-19T12:08:29.581Z</time></trkpt><trkpt lat="42.1418217" lon="11.793335"><ele>64.0</ele><time>2026-04-19T12:08:30.581Z</time></trkpt><trkpt lat="42.1416" lon="11.7934217"><ele>66.0</ele><time>2026-04-19T12:08:31.582Z</time></trkpt><trkpt lat="42.1413817" lon="11.7935083"><ele>68.0</ele><time>2026-04-19T12:08:32.581Z</time></trkpt><trkpt lat="42.1411617" lon="11.7935983"><ele>68.0</ele><time>2026-04-19T12:08:33.581Z</time></trkpt><trkpt lat="42.140935" lon="11.7936867"><ele>68.0</ele><time>2026-04-19T12:08:34.581Z</time></trkpt><trkpt lat="42.140705" lon="11.793775"><ele>69.0</ele><time>2026-04-19T12:08:35.581Z</time></trkpt><trkpt lat="42.1404733" lon="11.7938717"><ele>70.0</ele><time>2026-04-19T12:08:36.582Z</time></trkpt><trkpt lat="42.1402467" lon="11.7939633"><ele>70.0</ele><time>2026-04-19T12:08:37.581Z</time></trkpt><trkpt lat="42.1400233" lon="11.7940583"><ele>70.0</ele><time>2026-04-19T12:08:38.581Z</time></trkpt><trkpt lat="42.1398" lon="11.7941483"><ele>71.5</ele><time>2026-04-19T12:08:39.581Z</time></trkpt><trkpt lat="42.13957" lon="11.7942267"><ele>73.0</ele><time>2026-04-19T12:08:40.581Z</time></trkpt><trkpt lat="42.139345" lon="11.7943033"><ele>74.0</ele><time>2026-04-19T12:08:41.582Z</time></trkpt><trkpt lat="42.1391267" lon="11.7943833"><ele>75.0</ele><time>2026-04-19T12:08:42.581Z</time></trkpt><trkpt lat="42.1389133" lon="11.7944767"><ele>79.0</ele><time>2026-04-19T12:08:43.582Z</time></trkpt><trkpt lat="42.1386967" lon="11.794565"><ele>83.0</ele><time>2026-04-19T12:08:44.581Z</time></trkpt><trkpt lat="42.1384767" lon="11.7946433"><ele>83.0</ele><time>2026-04-19T12:08:45.582Z</time></trkpt><trkpt lat="42.1382533" lon="11.79472"><ele>83.0</ele><time>2026-04-19T12:08:46.581Z</time></trkpt><trkpt lat="42.1380267" lon="11.79479"><ele>85.0</ele><time>2026-04-19T12:08:47.582Z</time></trkpt><trkpt lat="42.1377967" lon="11.7948533"><ele>87.0</ele><time>2026-04-19T12:08:48.582Z</time></trkpt><trkpt lat="42.137565" lon="11.7949"><ele>89.0</ele><time>2026-04-19T12:08:49.581Z</time></trkpt><trkpt lat="42.1373367" lon="11.7949433"><ele>91.0</ele><time>2026-04-19T12:08:50.581Z</time></trkpt><trkpt lat="42.1371" lon="11.7949717"><ele>91.0</ele><time>2026-04-19T12:08:51.581Z</time></trkpt><trkpt lat="42.136865" lon="11.7949833"><ele>91.0</ele><time>2026-04-19T12:08:52.581Z</time></trkpt><trkpt lat="42.1366233" lon="11.7949833"><ele>92.0</ele><time>2026-04-19T12:08:53.581Z</time></trkpt><trkpt lat="42.13638" lon="11.794965"><ele>93.0</ele><time>2026-04-19T12:08:54.581Z</time></trkpt><trkpt lat="42.1361417" lon="11.79494"><ele>93.0</ele><time>2026-04-19T12:08:55.581Z</time></trkpt><trkpt lat="42.1359067" lon="11.7948983"><ele>93.0</ele><time>2026-04-19T12:08:56.581Z</time></trkpt><trkpt lat="42.13567" lon="11.794845"><ele>93.5</ele><time>2026-04-19T12:08:57.581Z</time></trkpt><trkpt lat="42.1354333" lon="11.794785"><ele>94.0</ele><time>2026-04-19T12:08:58.581Z</time></trkpt><trkpt lat="42.1351967" lon="11.7947067"><ele>94.0</ele><time>2026-04-19T12:08:59.581Z</time></trkpt><trkpt lat="42.1349617" lon="11.7946233"><ele>94.0</ele><time>2026-04-19T12:09:00.581Z</time></trkpt><trkpt lat="42.1347267" lon="11.79454"><ele>95.0</ele><time>2026-04-19T12:09:01.581Z</time></trkpt><trkpt lat="42.1344883" lon="11.7944483"><ele>96.0</ele><time>2026-04-19T12:09:02.582Z</time></trkpt><trkpt lat="42.1342667" lon="11.7943617"><ele>94.5</ele><time>2026-04-19T12:09:03.581Z</time></trkpt><trkpt lat="42.13404" lon="11.7942817"><ele>93.0</ele><time>2026-04-19T12:09:04.581Z</time></trkpt><trkpt lat="42.1338117" lon="11.7942067"><ele>93.0</ele><time>2026-04-19T12:09:05.581Z</time></trkpt><trkpt lat="42.133595" lon="11.7941233"><ele>93.0</ele><time>2026-04-19T12:09:06.581Z</time></trkpt><trkpt lat="42.133385" lon="11.794045"><ele>93.0</ele><time>2026-04-19T12:09:07.581Z</time></trkpt><trkpt lat="42.13317" lon="11.7939717"><ele>92.33333333333333</ele><time>2026-04-19T12:09:08.581Z</time></trkpt><trkpt lat="42.13296" lon="11.79389"><ele>91.66666666666666</ele><time>2026-04-19T12:09:09.581Z</time></trkpt><trkpt lat="42.13275" lon="11.793815"><ele>91.0</ele><time>2026-04-19T12:09:10.581Z</time></trkpt><trkpt lat="42.1325367" lon="11.7937333"><ele>91.0</ele><time>2026-04-19T12:09:11.581Z</time></trkpt><trkpt lat="42.132335" lon="11.7936617"><ele>91.0</ele><time>2026-04-19T12:09:12.581Z</time></trkpt><trkpt lat="42.1321283" lon="11.7935867"><ele>91.0</ele><time>2026-04-19T12:09:13.581Z</time></trkpt><trkpt lat="42.131925" lon="11.7935067"><ele>89.66666666666666</ele><time>2026-04-19T12:09:14.582Z</time></trkpt><trkpt lat="42.131725" lon="11.7934233"><ele>88.33333333333333</ele><time>2026-04-19T12:09:15.581Z</time></trkpt><trkpt lat="42.13151" lon="11.7933417"><ele>87.0</ele><time>2026-04-19T12:09:16.582Z</time></trkpt><trkpt lat="42.1312933" lon="11.7932583"><ele>85.66666666666667</ele><time>2026-04-19T12:09:17.581Z</time></trkpt><trkpt lat="42.1310917" lon="11.7931833"><ele>84.33333333333334</ele><time>2026-04-19T12:09:18.581Z</time></trkpt><trkpt lat="42.1309117" lon="11.79311"><ele>83.0</ele><time>2026-04-19T12:09:19.581Z</time></trkpt><trkpt lat="42.1307567" lon="11.7930317"><ele>82.33333333333334</ele><time>2026-04-19T12:09:20.582Z</time></trkpt><trkpt lat="42.1306" lon="11.7929533"><ele>81.66666666666667</ele><time>2026-04-19T12:09:21.581Z</time></trkpt><trkpt lat="42.1304483" lon="11.7928667"><ele>81.0</ele><time>2026-04-19T12:09:22.581Z</time></trkpt><trkpt lat="42.13029" lon="11.792765"><ele>79.33333333333333</ele><time>2026-04-19T12:09:23.581Z</time></trkpt><trkpt lat="42.13014" lon="11.792655"><ele>77.66666666666666</ele><time>2026-04-19T12:09:24.581Z</time></trkpt><trkpt lat="42.1299933" lon="11.79253"><ele>76.0</ele><time>2026-04-19T12:09:25.581Z</time></trkpt><trkpt lat="42.129865" lon="11.7923867"><ele>74.0</ele><time>2026-04-19T12:09:26.581Z</time></trkpt><trkpt lat="42.1297583" lon="11.792225"><ele>72.0</ele><time>2026-04-19T12:09:27.581Z</time></trkpt><trkpt lat="42.1296683" lon="11.7920433"><ele>70.0</ele><time>2026-04-19T12:09:28.582Z</time></trkpt><trkpt lat="42.1296" lon="11.791845"><ele>70.33333333333333</ele><time>2026-04-19T12:09:29.581Z</time></trkpt><trkpt lat="42.1295467" lon="11.7916317"><ele>70.66666666666667</ele><time>2026-04-19T12:09:30.582Z</time></trkpt><trkpt lat="42.1295183" lon="11.7914117"><ele>71.0</ele><time>2026-04-19T12:09:31.582Z</time></trkpt><trkpt lat="42.1295" lon="11.79118"><ele>70.33333333333334</ele><time>2026-04-19T12:09:32.581Z</time></trkpt><trkpt lat="42.129495" lon="11.7909433"><ele>69.66666666666667</ele><time>2026-04-19T12:09:33.582Z</time></trkpt><trkpt lat="42.1294833" lon="11.7907133"><ele>69.0</ele><time>2026-04-19T12:09:34.581Z</time></trkpt><trkpt lat="42.1294733" lon="11.790485"><ele>69.0</ele><time>2026-04-19T12:09:35.582Z</time></trkpt><trkpt lat="42.1294667" lon="11.7902533"><ele>69.0</ele><time>2026-04-19T12:09:36.581Z</time></trkpt><trkpt lat="42.1294567" lon="11.7900367"><ele>69.0</ele><time>2026-04-19T12:09:37.581Z</time></trkpt><trkpt lat="42.1294483" lon="11.789845"><ele>69.0</ele><time>2026-04-19T12:09:38.581Z</time></trkpt><trkpt lat="42.1294567" lon="11.7896817"><ele>69.0</ele><time>2026-04-19T12:09:39.581Z</time></trkpt><trkpt lat="42.1294983" lon="11.7895333"><ele>69.0</ele><time>2026-04-19T12:09:40.581Z</time></trkpt><trkpt lat="42.12957" lon="11.7894"><ele>69.0</ele><time>2026-04-19T12:09:41.581Z</time></trkpt><trkpt lat="42.1296717" lon="11.7892833"><ele>68.0</ele><time>2026-04-19T12:09:42.582Z</time></trkpt><trkpt lat="42.12978" lon="11.7891833"><ele>67.0</ele><time>2026-04-19T12:09:43.581Z</time></trkpt><trkpt lat="42.1298917" lon="11.7890967"><ele>66.0</ele><time>2026-04-19T12:09:44.582Z</time></trkpt><trkpt lat="42.1299867" lon="11.7889783"><ele>65.0</ele><time>2026-04-19T12:09:45.581Z</time></trkpt><trkpt lat="42.1300583" lon="11.7888417"><ele>65.0</ele><time>2026-04-19T12:09:46.581Z</time></trkpt><trkpt lat="42.1301117" lon="11.788705"><ele>65.0</ele><time>2026-04-19T12:09:47.581Z</time></trkpt><trkpt lat="42.1301583" lon="11.78858"><ele>65.0</ele><time>2026-04-19T12:09:48.582Z</time></trkpt><trkpt lat="42.1302033" lon="11.7884583"><ele>65.0</ele><time>2026-04-19T12:09:49.582Z</time></trkpt><trkpt lat="42.1302517" lon="11.7883433"><ele>65.0</ele><time>2026-04-19T12:09:50.582Z</time></trkpt><trkpt lat="42.1302867" lon="11.7882317"><ele>64.66666666666667</ele><time>2026-04-19T12:09:51.581Z</time></trkpt><trkpt lat="42.1303083" lon="11.7881133"><ele>64.33333333333334</ele><time>2026-04-19T12:09:52.581Z</time></trkpt><trkpt lat="42.1303083" lon="11.787995"><ele>64.0</ele><time>2026-04-19T12:09:53.582Z</time></trkpt><trkpt lat="42.1302833" lon="11.7878833"><ele>63.66666666666667</ele><time>2026-04-19T12:09:54.581Z</time></trkpt><trkpt lat="42.1302367" lon="11.787785"><ele>63.333333333333336</ele><time>2026-04-19T12:09:55.581Z</time></trkpt><trkpt lat="42.1301767" lon="11.7877083"><ele>63.0</ele><time>2026-04-19T12:09:56.582Z</time></trkpt><trkpt lat="42.1301117" lon="11.7876333"><ele>63.0</ele><time>2026-04-19T12:09:57.58Z</time></trkpt><trkpt lat="42.13005" lon="11.7875467"><ele>63.0</ele><time>2026-04-19T12:09:58.581Z</time></trkpt><trkpt lat="42.1299817" lon="11.787445"><ele>63.0</ele><time>2026-04-19T12:09:59.581Z</time></trkpt><trkpt lat="42.1299133" lon="11.78732"><ele>63.0</ele><time>2026-04-19T12:10:00.581Z</time></trkpt><trkpt lat="42.1298417" lon="11.787185"><ele>63.0</ele><time>2026-04-19T12:10:01.581Z</time></trkpt><trkpt lat="42.12977" lon="11.78706"><ele>63.0</ele><time>2026-04-19T12:10:02.581Z</time></trkpt><trkpt lat="42.12968" lon="11.7869417"><ele>63.0</ele><time>2026-04-19T12:10:03.581Z</time></trkpt><trkpt lat="42.129565" lon="11.78683"><ele>63.0</ele><time>2026-04-19T12:10:04.581Z</time></trkpt><trkpt lat="42.12944" lon="11.7867433"><ele>63.0</ele><time>2026-04-19T12:10:05.581Z</time></trkpt><trkpt lat="42.1293" lon="11.7866667"><ele>62.66666666666667</ele><time>2026-04-19T12:10:06.582Z</time></trkpt><trkpt lat="42.1291467" lon="11.786605"><ele>62.333333333333336</ele><time>2026-04-19T12:10:07.581Z</time></trkpt><trkpt lat="42.1289867" lon="11.7865383"><ele>62.0</ele><time>2026-04-19T12:10:08.581Z</time></trkpt><trkpt lat="42.1288133" lon="11.786465"><ele>62.0</ele><time>2026-04-19T12:10:09.581Z</time></trkpt><trkpt lat="42.1286383" lon="11.786385"><ele>62.0</ele><time>2026-04-19T12:10:10.581Z</time></trkpt><trkpt lat="42.12847" lon="11.7863033"><ele>62.0</ele><time>2026-04-19T12:10:11.581Z</time></trkpt><trkpt lat="42.1283133" lon="11.7862317"><ele>61.0</ele><time>2026-04-19T12:10:12.581Z</time></trkpt><trkpt lat="42.1281733" lon="11.7861517"><ele>60.0</ele><time>2026-04-19T12:10:13.581Z</time></trkpt><trkpt lat="42.1280283" lon="11.7860733"><ele>59.0</ele><time>2026-04-19T12:10:14.582Z</time></trkpt><trkpt lat="42.12789" lon="11.78596"><ele>58.66666666666667</ele><time>2026-04-19T12:10:15.581Z</time></trkpt><trkpt lat="42.127775" lon="11.7857967"><ele>58.33333333333333</ele><time>2026-04-19T12:10:16.582Z</time></trkpt><trkpt lat="42.1276467" lon="11.7856367"><ele>58.0</ele><time>2026-04-19T12:10:17.582Z</time></trkpt><trkpt lat="42.1275067" lon="11.7854717"><ele>56.0</ele><time>2026-04-19T12:10:18.581Z</time></trkpt><trkpt lat="42.12722" lon="11.7851983"><ele>54.0</ele><time>2026-04-19T12:10:20.608Z</time></trkpt><trkpt lat="42.1270517" lon="11.785125"><ele>53.5</ele><time>2026-04-19T12:10:21.608Z</time></trkpt><trkpt lat="42.1268633" lon="11.785055"><ele>53.0</ele><time>2026-04-19T12:10:22.608Z</time></trkpt><trkpt lat="42.1267367" lon="11.784595"><ele>51.0</ele><time>2026-04-19T12:10:23.609Z</time></trkpt><trkpt lat="42.12639" lon="11.7846317"><ele>49.0</ele><time>2026-04-19T12:10:24.608Z</time></trkpt><trkpt lat="42.1261417" lon="11.7844983"><ele>49.0</ele><time>2026-04-19T12:10:25.609Z</time></trkpt><trkpt lat="42.1259333" lon="11.784405"><ele>49.0</ele><time>2026-04-19T12:10:26.609Z</time></trkpt><trkpt lat="42.1257667" lon="11.784295"><ele>49.0</ele><time>2026-04-19T12:10:27.608Z</time></trkpt><trkpt lat="42.125615" lon="11.7841667"><ele>46.33333333333333</ele><time>2026-04-19T12:10:28.609Z</time></trkpt><trkpt lat="42.1254733" lon="11.7840133"><ele>43.666666666666664</ele><time>2026-04-19T12:10:29.609Z</time></trkpt><trkpt lat="42.1253367" lon="11.7838167"><ele>41.0</ele><time>2026-04-19T12:10:30.608Z</time></trkpt><trkpt lat="42.1252117" lon="11.78361"><ele>41.0</ele><time>2026-04-19T12:10:31.608Z</time></trkpt><trkpt lat="42.1251033" lon="11.78337"><ele>41.0</ele><time>2026-04-19T12:10:32.608Z</time></trkpt><trkpt lat="42.1250133" lon="11.7831017"><ele>41.0</ele><time>2026-04-19T12:10:33.608Z</time></trkpt><trkpt lat="42.1249417" lon="11.7828383"><ele>40.0</ele><time>2026-04-19T12:10:34.608Z</time></trkpt><trkpt lat="42.124895" lon="11.7825767"><ele>39.0</ele><time>2026-04-19T12:10:35.608Z</time></trkpt><trkpt lat="42.1248683" lon="11.7823017"><ele>38.0</ele><time>2026-04-19T12:10:36.608Z</time></trkpt><trkpt lat="42.12486" lon="11.782005"><ele>36.5</ele><time>2026-04-19T12:10:37.608Z</time></trkpt><trkpt lat="42.1248467" lon="11.7816867"><ele>35.0</ele><time>2026-04-19T12:10:38.608Z</time></trkpt><trkpt lat="42.1248283" lon="11.78137"><ele>35.0</ele><time>2026-04-19T12:10:39.608Z</time></trkpt><trkpt lat="42.12481" lon="11.7810717"><ele>35.0</ele><time>2026-04-19T12:10:40.608Z</time></trkpt><trkpt lat="42.1247917" lon="11.7807767"><ele>35.0</ele><time>2026-04-19T12:10:41.609Z</time></trkpt><trkpt lat="42.1247817" lon="11.78047"><ele>34.666666666666664</ele><time>2026-04-19T12:10:42.609Z</time></trkpt><trkpt lat="42.1247683" lon="11.780165"><ele>34.333333333333336</ele><time>2026-04-19T12:10:43.608Z</time></trkpt><trkpt lat="42.1247517" lon="11.77988"><ele>34.0</ele><time>2026-04-19T12:10:44.608Z</time></trkpt><trkpt lat="42.1247367" lon="11.7796083"><ele>34.0</ele><time>2026-04-19T12:10:45.608Z</time></trkpt><trkpt lat="42.1247217" lon="11.7793567"><ele>34.0</ele><time>2026-04-19T12:10:46.609Z</time></trkpt><trkpt lat="42.1247083" lon="11.7791283"><ele>34.0</ele><time>2026-04-19T12:10:47.608Z</time></trkpt><trkpt lat="42.124695" lon="11.77893"><ele>33.5</ele><time>2026-04-19T12:10:48.608Z</time></trkpt><trkpt lat="42.1246867" lon="11.7787583"><ele>33.0</ele><time>2026-04-19T12:10:49.608Z</time></trkpt><trkpt lat="42.1246967" lon="11.778595"><ele>32.5</ele><time>2026-04-19T12:10:50.608Z</time></trkpt><trkpt lat="42.1247233" lon="11.7784467"><ele>32.0</ele><time>2026-04-19T12:10:51.608Z</time></trkpt><trkpt lat="42.1247767" lon="11.778295"><ele>32.0</ele><time>2026-04-19T12:10:52.608Z</time></trkpt><trkpt lat="42.124835" lon="11.7781267"><ele>32.0</ele><time>2026-04-19T12:10:53.608Z</time></trkpt><trkpt lat="42.124865" lon="11.777955"><ele>32.0</ele><time>2026-04-19T12:10:54.608Z</time></trkpt><trkpt lat="42.1248567" lon="11.7778017"><ele>32.0</ele><time>2026-04-19T12:10:55.608Z</time></trkpt><trkpt lat="42.12482" lon="11.7776767"><ele>31.75</ele><time>2026-04-19T12:10:56.609Z</time></trkpt><trkpt lat="42.1247417" lon="11.7775933"><ele>31.5</ele><time>2026-04-19T12:10:57.609Z</time></trkpt><trkpt lat="42.124635" lon="11.777555"><ele>31.25</ele><time>2026-04-19T12:10:58.609Z</time></trkpt><trkpt lat="42.124505" lon="11.7775733"><ele>31.0</ele><time>2026-04-19T12:10:59.608Z</time></trkpt><trkpt lat="42.124365" lon="11.7776517"><ele>31.333333333333336</ele><time>2026-04-19T12:11:00.608Z</time></trkpt><trkpt lat="42.1242283" lon="11.777775"><ele>31.666666666666664</ele><time>2026-04-19T12:11:01.608Z</time></trkpt><trkpt lat="42.1240833" lon="11.7778917"><ele>32.0</ele><time>2026-04-19T12:11:02.608Z</time></trkpt><trkpt lat="42.1239083" lon="11.7779483"><ele>31.333333333333332</ele><time>2026-04-19T12:11:03.608Z</time></trkpt><trkpt lat="42.1236967" lon="11.77797"><ele>30.666666666666664</ele><time>2026-04-19T12:11:04.608Z</time></trkpt><trkpt lat="42.1234767" lon="11.77799"><ele>30.0</ele><time>2026-04-19T12:11:05.608Z</time></trkpt><trkpt lat="42.1232517" lon="11.7780083"><ele>29.666666666666664</ele><time>2026-04-19T12:11:06.608Z</time></trkpt><trkpt lat="42.12305" lon="11.778045"><ele>29.333333333333332</ele><time>2026-04-19T12:11:07.608Z</time></trkpt><trkpt lat="42.1228617" lon="11.77807"><ele>29.0</ele><time>2026-04-19T12:11:08.609Z</time></trkpt><trkpt lat="42.1227" lon="11.778095"><ele>29.0</ele><time>2026-04-19T12:11:09.608Z</time></trkpt><trkpt lat="42.1225817" lon="11.7781167"><ele>29.0</ele><time>2026-04-19T12:11:10.608Z</time></trkpt><trkpt lat="42.1224867" lon="11.778135"><ele>29.0</ele><time>2026-04-19T12:11:11.608Z</time></trkpt><trkpt lat="42.1224017" lon="11.7781283"><ele>29.0</ele><time>2026-04-19T12:11:12.608Z</time></trkpt><trkpt lat="42.1223167" lon="11.7781283"><ele>29.0</ele><time>2026-04-19T12:11:13.609Z</time></trkpt><trkpt lat="42.1222267" lon="11.7781433"><ele>28.499999999999996</ele><time>2026-04-19T12:11:14.608Z</time></trkpt><trkpt lat="42.1221367" lon="11.7781483"><ele>28.0</ele><time>2026-04-19T12:11:15.608Z</time></trkpt><trkpt lat="42.1220567" lon="11.77816"><ele>27.5</ele><time>2026-04-19T12:11:16.608Z</time></trkpt><trkpt lat="42.1219733" lon="11.7781733"><ele>27.0</ele><time>2026-04-19T12:11:17.608Z</time></trkpt><trkpt lat="42.1218883" lon="11.7781783"><ele>26.499999999999996</ele><time>2026-04-19T12:11:18.608Z</time></trkpt><trkpt lat="42.1218083" lon="11.7781817"><ele>26.0</ele><time>2026-04-19T12:11:19.609Z</time></trkpt><trkpt lat="42.1217283" lon="11.7781917"><ele>26.0</ele><time>2026-04-19T12:11:20.608Z</time></trkpt><trkpt lat="42.1216467" lon="11.778205"><ele>26.0</ele><time>2026-04-19T12:11:21.608Z</time></trkpt><trkpt lat="42.1215583" lon="11.7782217"><ele>26.0</ele><time>2026-04-19T12:11:22.608Z</time></trkpt><trkpt lat="42.1214683" lon="11.7782317"><ele>26.0</ele><time>2026-04-19T12:11:23.608Z</time></trkpt><trkpt lat="42.1213667" lon="11.7782433"><ele>26.0</ele><time>2026-04-19T12:11:24.608Z</time></trkpt><trkpt lat="42.12125" lon="11.778255"><ele>26.25</ele><time>2026-04-19T12:11:25.608Z</time></trkpt><trkpt lat="42.1211283" lon="11.7782717"><ele>26.5</ele><time>2026-04-19T12:11:26.609Z</time></trkpt><trkpt lat="42.1209917" lon="11.778285"><ele>26.75</ele><time>2026-04-19T12:11:27.608Z</time></trkpt><trkpt lat="42.1208533" lon="11.7782967"><ele>27.0</ele><time>2026-04-19T12:11:28.609Z</time></trkpt><trkpt lat="42.1207217" lon="11.7782933"><ele>26.5</ele><time>2026-04-19T12:11:29.608Z</time></trkpt><trkpt lat="42.1205867" lon="11.7782783"><ele>26.0</ele><time>2026-04-19T12:11:30.608Z</time></trkpt><trkpt lat="42.1204367" lon="11.77823"><ele>25.5</ele><time>2026-04-19T12:11:31.609Z</time></trkpt><trkpt lat="42.1202917" lon="11.77817"><ele>25.0</ele><time>2026-04-19T12:11:32.609Z</time></trkpt><trkpt lat="42.1201467" lon="11.778145"><ele>25.0</ele><time>2026-04-19T12:11:33.608Z</time></trkpt><trkpt lat="42.1200117" lon="11.77817"><ele>25.0</ele><time>2026-04-19T12:11:34.608Z</time></trkpt><trkpt lat="42.11988" lon="11.778235"><ele>25.0</ele><time>2026-04-19T12:11:35.608Z</time></trkpt><trkpt lat="42.1197367" lon="11.778325"><ele>25.0</ele><time>2026-04-19T12:11:36.608Z</time></trkpt><trkpt lat="42.1195833" lon="11.7784"><ele>24.0</ele><time>2026-04-19T12:11:37.608Z</time></trkpt><trkpt lat="42.119395" lon="11.7784517"><ele>23.0</ele><time>2026-04-19T12:11:38.608Z</time></trkpt><trkpt lat="42.11919" lon="11.77848"><ele>22.0</ele><time>2026-04-19T12:11:39.608Z</time></trkpt><trkpt lat="42.1189833" lon="11.7785017"><ele>22.0</ele><time>2026-04-19T12:11:40.608Z</time></trkpt><trkpt lat="42.1187983" lon="11.7785183"><ele>22.0</ele><time>2026-04-19T12:11:41.609Z</time></trkpt><trkpt lat="42.118615" lon="11.7785367"><ele>22.0</ele><time>2026-04-19T12:11:42.608Z</time></trkpt><trkpt lat="42.1184317" lon="11.7785533"><ele>22.0</ele><time>2026-04-19T12:11:43.608Z</time></trkpt><trkpt lat="42.118245" lon="11.778575"><ele>22.0</ele><time>2026-04-19T12:11:44.609Z</time></trkpt><trkpt lat="42.118055" lon="11.7786067"><ele>22.0</ele><time>2026-04-19T12:11:45.608Z</time></trkpt><trkpt lat="42.117845" lon="11.7786517"><ele>21.666666666666664</ele><time>2026-04-19T12:11:46.608Z</time></trkpt><trkpt lat="42.1176233" lon="11.778675"><ele>21.333333333333332</ele><time>2026-04-19T12:11:47.608Z</time></trkpt><trkpt lat="42.11741" lon="11.7786917"><ele>21.0</ele><time>2026-04-19T12:11:48.609Z</time></trkpt><trkpt lat="42.1172017" lon="11.7787017"><ele>21.0</ele><time>2026-04-19T12:11:49.608Z</time></trkpt><trkpt lat="42.1170083" lon="11.7787183"><ele>21.0</ele><time>2026-04-19T12:11:50.608Z</time></trkpt><trkpt lat="42.11684" lon="11.7787283"><ele>21.0</ele><time>2026-04-19T12:11:51.608Z</time></trkpt><trkpt lat="42.1166967" lon="11.7787467"><ele>21.0</ele><time>2026-04-19T12:11:52.608Z</time></trkpt><trkpt lat="42.1165733" lon="11.7787617"><ele>21.0</ele><time>2026-04-19T12:11:53.608Z</time></trkpt><trkpt lat="42.116455" lon="11.778765"><ele>21.0</ele><time>2026-04-19T12:11:54.608Z</time></trkpt><trkpt lat="42.1163367" lon="11.77877"><ele>21.0</ele><time>2026-04-19T12:11:55.609Z</time></trkpt><trkpt lat="42.1162067" lon="11.7787667"><ele>20.333333333333332</ele><time>2026-04-19T12:11:56.608Z</time></trkpt><trkpt lat="42.1160717" lon="11.7788"><ele>19.666666666666664</ele><time>2026-04-19T12:11:57.608Z</time></trkpt><trkpt lat="42.1159283" lon="11.7788683"><ele>19.0</ele><time>2026-04-19T12:11:58.608Z</time></trkpt><trkpt lat="42.1157583" lon="11.77894"><ele>17.0</ele><time>2026-04-19T12:11:59.608Z</time></trkpt><trkpt lat="42.1155633" lon="11.7790067"><ele>15.0</ele><time>2026-04-19T12:12:00.608Z</time></trkpt><trkpt lat="42.115345" lon="11.7790717"><ele>13.0</ele><time>2026-04-19T12:12:01.608Z</time></trkpt><trkpt lat="42.115105" lon="11.7791467"><ele>12.0</ele><time>2026-04-19T12:12:02.608Z</time></trkpt><trkpt lat="42.1148533" lon="11.77925"><ele>11.0</ele><time>2026-04-19T12:12:03.608Z</time></trkpt><trkpt lat="42.1145983" lon="11.7793883"><ele>11.0</ele><time>2026-04-19T12:12:04.609Z</time></trkpt><trkpt lat="42.1143483" lon="11.7795517"><ele>11.0</ele><time>2026-04-19T12:12:05.608Z</time></trkpt><trkpt lat="42.1141083" lon="11.7797233"><ele>10.0</ele><time>2026-04-19T12:12:06.608Z</time></trkpt><trkpt lat="42.11388" lon="11.779905"><ele>9.0</ele><time>2026-04-19T12:12:07.608Z</time></trkpt><trkpt lat="42.1136667" lon="11.7801017"><ele>11.5</ele><time>2026-04-19T12:12:08.608Z</time></trkpt><trkpt lat="42.113465" lon="11.7803017"><ele>14.0</ele><time>2026-04-19T12:12:09.609Z</time></trkpt><trkpt lat="42.113265" lon="11.7805117"><ele>13.5</ele><time>2026-04-19T12:12:10.608Z</time></trkpt><trkpt lat="42.1130783" lon="11.7807267"><ele>13.0</ele><time>2026-04-19T12:12:11.608Z</time></trkpt><trkpt lat="42.1129083" lon="11.780945"><ele>15.5</ele><time>2026-04-19T12:12:12.608Z</time></trkpt><trkpt lat="42.1127417" lon="11.78116"><ele>18.0</ele><time>2026-04-19T12:12:13.608Z</time></trkpt><trkpt lat="42.112575" lon="11.78138"><ele>18.0</ele><time>2026-04-19T12:12:14.608Z</time></trkpt><trkpt lat="42.1124117" lon="11.7815967"><ele>18.0</ele><time>2026-04-19T12:12:15.608Z</time></trkpt><trkpt lat="42.1122417" lon="11.7818183"><ele>18.0</ele><time>2026-04-19T12:12:16.609Z</time></trkpt><trkpt lat="42.1120633" lon="11.78206"><ele>18.0</ele><time>2026-04-19T12:12:17.608Z</time></trkpt><trkpt lat="42.11189" lon="11.7822883"><ele>18.0</ele><time>2026-04-19T12:12:18.608Z</time></trkpt><trkpt lat="42.111725" lon="11.7825017"><ele>18.0</ele><time>2026-04-19T12:12:19.608Z</time></trkpt><trkpt lat="42.1115533" lon="11.7827067"><ele>18.333333333333332</ele><time>2026-04-19T12:12:20.608Z</time></trkpt><trkpt lat="42.11139" lon="11.7829133"><ele>18.666666666666664</ele><time>2026-04-19T12:12:21.608Z</time></trkpt><trkpt lat="42.111225" lon="11.7831167"><ele>19.0</ele><time>2026-04-19T12:12:22.608Z</time></trkpt><trkpt lat="42.1110683" lon="11.7833133"><ele>19.0</ele><time>2026-04-19T12:12:23.608Z</time></trkpt><trkpt lat="42.11091" lon="11.78351"><ele>19.0</ele><time>2026-04-19T12:12:24.608Z</time></trkpt><trkpt lat="42.1107633" lon="11.7837"><ele>19.0</ele><time>2026-04-19T12:12:25.609Z</time></trkpt><trkpt lat="42.1106267" lon="11.783875"><ele>20.0</ele><time>2026-04-19T12:12:26.608Z</time></trkpt><trkpt lat="42.1104967" lon="11.7840467"><ele>21.0</ele><time>2026-04-19T12:12:27.608Z</time></trkpt><trkpt lat="42.1103717" lon="11.7842083"><ele>22.0</ele><time>2026-04-19T12:12:28.608Z</time></trkpt><trkpt lat="42.1102467" lon="11.7843733"><ele>23.0</ele><time>2026-04-19T12:12:29.608Z</time></trkpt><trkpt lat="42.1101117" lon="11.7845517"><ele>24.0</ele><time>2026-04-19T12:12:30.608Z</time></trkpt><trkpt lat="42.1099667" lon="11.784745"><ele>25.0</ele><time>2026-04-19T12:12:31.608Z</time></trkpt><trkpt lat="42.1098083" lon="11.78495"><ele>22.5</ele><time>2026-04-19T12:12:32.608Z</time></trkpt><trkpt lat="42.10964" lon="11.78516"><ele>20.0</ele><time>2026-04-19T12:12:33.608Z</time></trkpt><trkpt lat="42.109465" lon="11.785365"><ele>20.0</ele><time>2026-04-19T12:12:34.608Z</time></trkpt><trkpt lat="42.1093017" lon="11.7855517"><ele>20.0</ele><time>2026-04-19T12:12:35.608Z</time></trkpt><trkpt lat="42.1091383" lon="11.7857317"><ele>20.0</ele><time>2026-04-19T12:12:36.608Z</time></trkpt><trkpt lat="42.108965" lon="11.7859133"><ele>19.0</ele><time>2026-04-19T12:12:37.608Z</time></trkpt><trkpt lat="42.108795" lon="11.7861"><ele>18.0</ele><time>2026-04-19T12:12:38.608Z</time></trkpt><trkpt lat="42.108615" lon="11.7863017"><ele>18.0</ele><time>2026-04-19T12:12:39.608Z</time></trkpt><trkpt lat="42.108445" lon="11.786495"><ele>18.0</ele><time>2026-04-19T12:12:40.608Z</time></trkpt><trkpt lat="42.108285" lon="11.786685"><ele>18.0</ele><time>2026-04-19T12:12:41.608Z</time></trkpt><trkpt lat="42.1081167" lon="11.7868817"><ele>18.666666666666668</ele><time>2026-04-19T12:12:42.608Z</time></trkpt><trkpt lat="42.107955" lon="11.7870767"><ele>19.333333333333336</ele><time>2026-04-19T12:12:43.608Z</time></trkpt><trkpt lat="42.1078067" lon="11.787275"><ele>20.0</ele><time>2026-04-19T12:12:44.608Z</time></trkpt><trkpt lat="42.107655" lon="11.787475"><ele>20.0</ele><time>2026-04-19T12:12:45.608Z</time></trkpt><trkpt lat="42.10751" lon="11.787675"><ele>20.0</ele><time>2026-04-19T12:12:46.608Z</time></trkpt><trkpt lat="42.10738" lon="11.7878617"><ele>20.0</ele><time>2026-04-19T12:12:47.609Z</time></trkpt><trkpt lat="42.1072767" lon="11.7880167"><ele>20.6</ele><time>2026-04-19T12:12:48.608Z</time></trkpt><trkpt lat="42.1071817" lon="11.7881467"><ele>21.2</ele><time>2026-04-19T12:12:49.608Z</time></trkpt><trkpt lat="42.107105" lon="11.7882567"><ele>21.799999999999997</ele><time>2026-04-19T12:12:50.609Z</time></trkpt><trkpt lat="42.1070283" lon="11.7883433"><ele>22.4</ele><time>2026-04-19T12:12:51.608Z</time></trkpt><trkpt lat="42.1069617" lon="11.7883983"><ele>23.0</ele><time>2026-04-19T12:12:52.608Z</time></trkpt><trkpt lat="42.1068967" lon="11.7883983"><ele>23.0</ele><time>2026-04-19T12:12:53.609Z</time></trkpt><trkpt lat="42.1068217" lon="11.78834"><ele>23.0</ele><time>2026-04-19T12:12:54.608Z</time></trkpt><trkpt lat="42.1067417" lon="11.7882433"><ele>23.0</ele><time>2026-04-19T12:12:55.609Z</time></trkpt><trkpt lat="42.1066583" lon="11.788115"><ele>23.0</ele><time>2026-04-19T12:12:56.608Z</time></trkpt><trkpt lat="42.1065967" lon="11.7879983"><ele>23.0</ele><time>2026-04-19T12:12:57.608Z</time></trkpt><trkpt lat="42.10654" lon="11.787905"><ele>21.599999999999998</ele><time>2026-04-19T12:12:58.608Z</time></trkpt><trkpt lat="42.1064933" lon="11.7878183"><ele>20.2</ele><time>2026-04-19T12:12:59.608Z</time></trkpt><trkpt lat="42.106445" lon="11.7877317"><ele>18.8</ele><time>2026-04-19T12:13:00.609Z</time></trkpt><trkpt lat="42.1063933" lon="11.7876233"><ele>17.4</ele><time>2026-04-19T12:13:01.608Z</time></trkpt><trkpt lat="42.1063333" lon="11.7874667"><ele>16.0</ele><time>2026-04-19T12:13:02.608Z</time></trkpt><trkpt lat="42.1062583" lon="11.787295"><ele>16.0</ele><time>2026-04-19T12:13:03.609Z</time></trkpt><trkpt lat="42.1061433" lon="11.7871283"><ele>16.0</ele><time>2026-04-19T12:13:04.608Z</time></trkpt><trkpt lat="42.1060183" lon="11.7869967"><ele>16.0</ele><time>2026-04-19T12:13:05.608Z</time></trkpt><trkpt lat="42.1058883" lon="11.7868917"><ele>15.25</ele><time>2026-04-19T12:13:06.608Z</time></trkpt><trkpt lat="42.1057867" lon="11.7867867"><ele>14.5</ele><time>2026-04-19T12:13:07.608Z</time></trkpt><trkpt lat="42.1057" lon="11.7866683"><ele>13.75</ele><time>2026-04-19T12:13:08.609Z</time></trkpt><trkpt lat="42.1056117" lon="11.78656"><ele>13.0</ele><time>2026-04-19T12:13:09.607Z</time></trkpt><trkpt lat="42.105505" lon="11.78648"><ele>12.25</ele><time>2026-04-19T12:13:10.607Z</time></trkpt><trkpt lat="42.1053833" lon="11.7864283"><ele>11.5</ele><time>2026-04-19T12:13:11.607Z</time></trkpt><trkpt lat="42.1052567" lon="11.786405"><ele>10.75</ele><time>2026-04-19T12:13:12.607Z</time></trkpt><trkpt lat="42.1051033" lon="11.786395"><ele>10.0</ele><time>2026-04-19T12:13:13.607Z</time></trkpt><trkpt lat="42.1049717" lon="11.7863883"><ele>9.666666666666668</ele><time>2026-04-19T12:13:14.608Z</time></trkpt><trkpt lat="42.1048617" lon="11.786385"><ele>9.333333333333334</ele><time>2026-04-19T12:13:15.607Z</time></trkpt><trkpt lat="42.1047733" lon="11.78637"><ele>9.0</ele><time>2026-04-19T12:13:16.608Z</time></trkpt><trkpt lat="42.1047117" lon="11.786345"><ele>8.666666666666666</ele><time>2026-04-19T12:13:17.608Z</time></trkpt><trkpt lat="42.1047167" lon="11.7862217"><ele>8.333333333333332</ele><time>2026-04-19T12:13:19.607Z</time></trkpt><trkpt lat="42.104775" lon="11.7861317"><ele>8.0</ele><time>2026-04-19T12:13:20.607Z</time></trkpt><trkpt lat="42.1048533" lon="11.78602"><ele>8.0</ele><time>2026-04-19T12:13:21.607Z</time></trkpt><trkpt lat="42.104955" lon="11.78588"><ele>8.0</ele><time>2026-04-19T12:13:22.607Z</time></trkpt><trkpt lat="42.1050733" lon="11.7857233"><ele>8.0</ele><time>2026-04-19T12:13:23.608Z</time></trkpt><trkpt lat="42.1052167" lon="11.7855383"><ele>8.0</ele><time>2026-04-19T12:13:24.607Z</time></trkpt><trkpt lat="42.105365" lon="11.7853317"><ele>8.0</ele><time>2026-04-19T12:13:25.607Z</time></trkpt><trkpt lat="42.1055233" lon="11.7851083"><ele>8.0</ele><time>2026-04-19T12:13:26.608Z</time></trkpt><trkpt lat="42.105675" lon="11.7848817"><ele>7.666666666666666</ele><time>2026-04-19T12:13:27.607Z</time></trkpt><trkpt lat="42.1058183" lon="11.7846733"><ele>7.333333333333334</ele><time>2026-04-19T12:13:28.607Z</time></trkpt><trkpt lat="42.1059517" lon="11.7844733"><ele>7.0</ele><time>2026-04-19T12:13:29.608Z</time></trkpt><trkpt lat="42.1060917" lon="11.78426"><ele>6.0</ele><time>2026-04-19T12:13:30.608Z</time></trkpt><trkpt lat="42.1062367" lon="11.78403"><ele>5.0</ele><time>2026-04-19T12:13:31.607Z</time></trkpt><trkpt lat="42.10639" lon="11.7837817"><ele>5.0</ele><time>2026-04-19T12:13:32.607Z</time></trkpt><trkpt lat="42.1065533" lon="11.7835417"><ele>5.0</ele><time>2026-04-19T12:13:33.607Z</time></trkpt><trkpt lat="42.1066983" lon="11.783325"><ele>5.333333333333334</ele><time>2026-04-19T12:13:34.607Z</time></trkpt><trkpt lat="42.1068367" lon="11.7831267"><ele>5.666666666666667</ele><time>2026-04-19T12:13:35.607Z</time></trkpt><trkpt lat="42.10697" lon="11.7829317"><ele>6.0</ele><time>2026-04-19T12:13:36.607Z</time></trkpt><trkpt lat="42.1070933" lon="11.7827433"><ele>5.666666666666667</ele><time>2026-04-19T12:13:37.607Z</time></trkpt><trkpt lat="42.1072083" lon="11.7825633"><ele>5.333333333333334</ele><time>2026-04-19T12:13:38.607Z</time></trkpt><trkpt lat="42.10732" lon="11.7823967"><ele>5.0</ele><time>2026-04-19T12:13:39.607Z</time></trkpt><trkpt lat="42.1074133" lon="11.7822483"><ele>4.8</ele><time>2026-04-19T12:13:40.607Z</time></trkpt><trkpt lat="42.1074883" lon="11.7821267"><ele>4.6</ele><time>2026-04-19T12:13:41.607Z</time></trkpt><trkpt lat="42.107565" lon="11.78203"><ele>4.4</ele><time>2026-04-19T12:13:42.607Z</time></trkpt><trkpt lat="42.1076283" lon="11.781945"><ele>4.2</ele><time>2026-04-19T12:13:43.607Z</time></trkpt><trkpt lat="42.1076783" lon="11.781875"><ele>4.0</ele><time>2026-04-19T12:13:44.607Z</time></trkpt><trkpt lat="42.1077567" lon="11.78183"><ele>4.0</ele><time>2026-04-19T12:13:46.607Z</time></trkpt><trkpt lat="42.1077967" lon="11.7819217"><ele>3.0</ele><time>2026-04-19T12:13:48.608Z</time></trkpt><trkpt lat="42.1078433" lon="11.7820433"><ele>3.0</ele><time>2026-04-19T12:13:50.608Z</time></trkpt></trkseg></trk></gpx>